<?xml version="1.0" encoding="UTF-8" standalone="no" ?>
<gpx xmlns="http://www.topografix.com/GPX/1/1" xmlns:xsi="http://www.w3.org/2001/XMLSchema-instance" xsi:schemaLocation="http://www.topografix.com/GPX/1/1 http://www.topografix.com/GPX/1/1/gpx.xsd" version="1.1" creator="VisuGPX - https://www.visugpx.com">
  <metadata>
    <name>Traversée de Belledonne - étape 3 - Refuge de la Pierre du Carré --&gt; La Table</name>
    <desc><![CDATA[Traversée de Belledonne - étape 3 - Refuge de la Pierre du Carré --> La Table - vendredi 10 aout 2012
étape 3
30 km / 2150 m D  / 3150 m D-]]></desc>
  </metadata>
  <trk>
    <name><![CDATA[Traversée de Belledonne - étape 3 - Refuge de la Pierre du Carré --> La Table_1]]></name>
    <trkseg>
      <trkpt lat="45.37846" lon="6.14317">
        <ele>1730.5104980469</ele>
        <time>2012-08-10T06:05:30Z</time>
      </trkpt>
      <trkpt lat="45.37851" lon="6.14318">
        <ele>1736.7587890625</ele>
        <time>2012-08-10T06:05:38Z</time>
      </trkpt>
      <trkpt lat="45.37858" lon="6.14317">
        <ele>1740.1237792969</ele>
        <time>2012-08-10T06:05:45Z</time>
      </trkpt>
      <trkpt lat="45.3786" lon="6.14318">
        <ele>1742.0463867188</ele>
        <time>2012-08-10T06:05:49Z</time>
      </trkpt>
      <trkpt lat="45.37865" lon="6.14311">
        <ele>1744.4494628906</ele>
        <time>2012-08-10T06:05:57Z</time>
      </trkpt>
      <trkpt lat="45.37867" lon="6.14301">
        <ele>1744.9301757812</ele>
        <time>2012-08-10T06:06:04Z</time>
      </trkpt>
      <trkpt lat="45.37868" lon="6.14293">
        <ele>1746.3723144531</ele>
        <time>2012-08-10T06:06:11Z</time>
      </trkpt>
      <trkpt lat="45.3787" lon="6.14285">
        <ele>1748.2946777344</ele>
        <time>2012-08-10T06:06:19Z</time>
      </trkpt>
      <trkpt lat="45.37873" lon="6.14277">
        <ele>1750.2175292969</ele>
        <time>2012-08-10T06:06:26Z</time>
      </trkpt>
      <trkpt lat="45.37877" lon="6.14274">
        <ele>1751.6594238281</ele>
        <time>2012-08-10T06:06:33Z</time>
      </trkpt>
      <trkpt lat="45.37882" lon="6.14273">
        <ele>1754.0627441406</ele>
        <time>2012-08-10T06:06:41Z</time>
      </trkpt>
      <trkpt lat="45.37885" lon="6.14271">
        <ele>1756.9467773438</ele>
        <time>2012-08-10T06:06:47Z</time>
      </trkpt>
      <trkpt lat="45.37889" lon="6.14269">
        <ele>1756.9467773438</ele>
        <time>2012-08-10T06:06:54Z</time>
      </trkpt>
      <trkpt lat="45.37893" lon="6.14268">
        <ele>1757.4274902344</ele>
        <time>2012-08-10T06:07:01Z</time>
      </trkpt>
      <trkpt lat="45.37901" lon="6.14267">
        <ele>1758.388671875</ele>
        <time>2012-08-10T06:07:10Z</time>
      </trkpt>
      <trkpt lat="45.37906" lon="6.14266">
        <ele>1759.8305664062</ele>
        <time>2012-08-10T06:07:17Z</time>
      </trkpt>
      <trkpt lat="45.37913" lon="6.14266">
        <ele>1761.2727050781</ele>
        <time>2012-08-10T06:07:26Z</time>
      </trkpt>
      <trkpt lat="45.37918" lon="6.14267">
        <ele>1762.7145996094</ele>
        <time>2012-08-10T06:07:33Z</time>
      </trkpt>
      <trkpt lat="45.37925" lon="6.14268">
        <ele>1764.6372070312</ele>
        <time>2012-08-10T06:07:42Z</time>
      </trkpt>
      <trkpt lat="45.37932" lon="6.14271">
        <ele>1766.5598144531</ele>
        <time>2012-08-10T06:07:51Z</time>
      </trkpt>
      <trkpt lat="45.37936" lon="6.14276">
        <ele>1768.9631347656</ele>
        <time>2012-08-10T06:07:59Z</time>
      </trkpt>
      <trkpt lat="45.37936" lon="6.14282">
        <ele>1769.9243164062</ele>
        <time>2012-08-10T06:08:05Z</time>
      </trkpt>
      <trkpt lat="45.37934" lon="6.14291">
        <ele>1771.8469238281</ele>
        <time>2012-08-10T06:08:14Z</time>
      </trkpt>
      <trkpt lat="45.37934" lon="6.14299">
        <ele>1772.80859375</ele>
        <time>2012-08-10T06:08:22Z</time>
      </trkpt>
      <trkpt lat="45.3794" lon="6.14303">
        <ele>1774.2504882812</ele>
        <time>2012-08-10T06:08:29Z</time>
      </trkpt>
      <trkpt lat="45.37943" lon="6.14305">
        <ele>1774.7312011719</ele>
        <time>2012-08-10T06:08:32Z</time>
      </trkpt>
      <trkpt lat="45.37953" lon="6.14308">
        <ele>1776.6538085938</ele>
        <time>2012-08-10T06:08:42Z</time>
      </trkpt>
      <trkpt lat="45.3796" lon="6.14308">
        <ele>1777.6149902344</ele>
        <time>2012-08-10T06:08:49Z</time>
      </trkpt>
      <trkpt lat="45.37969" lon="6.14303">
        <ele>1779.0568847656</ele>
        <time>2012-08-10T06:08:59Z</time>
      </trkpt>
      <trkpt lat="45.37978" lon="6.14303">
        <ele>1780.4990234375</ele>
        <time>2012-08-10T06:09:09Z</time>
      </trkpt>
      <trkpt lat="45.37987" lon="6.14304">
        <ele>1781.9409179688</ele>
        <time>2012-08-10T06:09:18Z</time>
      </trkpt>
      <trkpt lat="45.37989" lon="6.14304">
        <ele>1781.9409179688</ele>
        <time>2012-08-10T06:09:20Z</time>
      </trkpt>
      <trkpt lat="45.37997" lon="6.14308">
        <ele>1783.3828125</ele>
        <time>2012-08-10T06:09:28Z</time>
      </trkpt>
      <trkpt lat="45.38004" lon="6.14311">
        <ele>1784.8249511719</ele>
        <time>2012-08-10T06:09:36Z</time>
      </trkpt>
      <trkpt lat="45.38009" lon="6.14315">
        <ele>1786.2668457031</ele>
        <time>2012-08-10T06:09:44Z</time>
      </trkpt>
      <trkpt lat="45.38016" lon="6.14318">
        <ele>1788.1896972656</ele>
        <time>2012-08-10T06:09:53Z</time>
      </trkpt>
      <trkpt lat="45.38024" lon="6.14319">
        <ele>1790.1123046875</ele>
        <time>2012-08-10T06:10:02Z</time>
      </trkpt>
      <trkpt lat="45.38029" lon="6.14322">
        <ele>1791.5541992188</ele>
        <time>2012-08-10T06:10:09Z</time>
      </trkpt>
      <trkpt lat="45.38034" lon="6.14324">
        <ele>1793.4768066406</ele>
        <time>2012-08-10T06:10:16Z</time>
      </trkpt>
      <trkpt lat="45.3804" lon="6.14327">
        <ele>1795.3994140625</ele>
        <time>2012-08-10T06:10:24Z</time>
      </trkpt>
      <trkpt lat="45.38045" lon="6.1433">
        <ele>1796.3608398438</ele>
        <time>2012-08-10T06:10:32Z</time>
      </trkpt>
      <trkpt lat="45.38042" lon="6.14335">
        <ele>1796.8413085938</ele>
        <time>2012-08-10T06:10:39Z</time>
      </trkpt>
      <trkpt lat="45.38038" lon="6.14341">
        <ele>1797.3220214844</ele>
        <time>2012-08-10T06:10:48Z</time>
      </trkpt>
      <trkpt lat="45.38031" lon="6.14345">
        <ele>1796.8413085938</ele>
        <time>2012-08-10T06:10:56Z</time>
      </trkpt>
      <trkpt lat="45.38024" lon="6.14347">
        <ele>1799.2446289062</ele>
        <time>2012-08-10T06:11:05Z</time>
      </trkpt>
      <trkpt lat="45.38016" lon="6.14348">
        <ele>1802.6091308594</ele>
        <time>2012-08-10T06:11:14Z</time>
      </trkpt>
      <trkpt lat="45.3801" lon="6.14353">
        <ele>1804.0515136719</ele>
        <time>2012-08-10T06:11:22Z</time>
      </trkpt>
      <trkpt lat="45.38006" lon="6.14357">
        <ele>1805.4934082031</ele>
        <time>2012-08-10T06:11:29Z</time>
      </trkpt>
      <trkpt lat="45.38" lon="6.14361">
        <ele>1807.416015625</ele>
        <time>2012-08-10T06:11:37Z</time>
      </trkpt>
      <trkpt lat="45.37995" lon="6.14366">
        <ele>1809.8190917969</ele>
        <time>2012-08-10T06:11:44Z</time>
      </trkpt>
      <trkpt lat="45.3799" lon="6.14373">
        <ele>1812.2224121094</ele>
        <time>2012-08-10T06:11:53Z</time>
      </trkpt>
      <trkpt lat="45.37986" lon="6.14377">
        <ele>1815.1064453125</ele>
        <time>2012-08-10T06:12:00Z</time>
      </trkpt>
      <trkpt lat="45.37984" lon="6.14382">
        <ele>1816.5483398438</ele>
        <time>2012-08-10T06:12:06Z</time>
      </trkpt>
      <trkpt lat="45.37982" lon="6.14388">
        <ele>1817.990234375</ele>
        <time>2012-08-10T06:12:14Z</time>
      </trkpt>
      <trkpt lat="45.37981" lon="6.14392">
        <ele>1819.9128417969</ele>
        <time>2012-08-10T06:12:20Z</time>
      </trkpt>
      <trkpt lat="45.37981" lon="6.14398">
        <ele>1821.8356933594</ele>
        <time>2012-08-10T06:12:27Z</time>
      </trkpt>
      <trkpt lat="45.37982" lon="6.14405">
        <ele>1824.2390136719</ele>
        <time>2012-08-10T06:12:35Z</time>
      </trkpt>
      <trkpt lat="45.37985" lon="6.14409">
        <ele>1826.1616210938</ele>
        <time>2012-08-10T06:12:42Z</time>
      </trkpt>
      <trkpt lat="45.37987" lon="6.14415">
        <ele>1828.0842285156</ele>
        <time>2012-08-10T06:12:50Z</time>
      </trkpt>
      <trkpt lat="45.37988" lon="6.14419">
        <ele>1829.5261230469</ele>
        <time>2012-08-10T06:12:57Z</time>
      </trkpt>
      <trkpt lat="45.37993" lon="6.14416">
        <ele>1831.4487304688</ele>
        <time>2012-08-10T06:13:04Z</time>
      </trkpt>
      <trkpt lat="45.37999" lon="6.14415">
        <ele>1832.890625</ele>
        <time>2012-08-10T06:13:13Z</time>
      </trkpt>
      <trkpt lat="45.38003" lon="6.14414">
        <ele>1834.3327636719</ele>
        <time>2012-08-10T06:13:21Z</time>
      </trkpt>
      <trkpt lat="45.38007" lon="6.14414">
        <ele>1835.7746582031</ele>
        <time>2012-08-10T06:13:28Z</time>
      </trkpt>
      <trkpt lat="45.38011" lon="6.14415">
        <ele>1837.6975097656</ele>
        <time>2012-08-10T06:13:36Z</time>
      </trkpt>
      <trkpt lat="45.38016" lon="6.14416">
        <ele>1839.1394042969</ele>
        <time>2012-08-10T06:13:44Z</time>
      </trkpt>
      <trkpt lat="45.3802" lon="6.14418">
        <ele>1841.0620117188</ele>
        <time>2012-08-10T06:13:51Z</time>
      </trkpt>
      <trkpt lat="45.38021" lon="6.14421">
        <ele>1842.0234375</ele>
        <time>2012-08-10T06:13:58Z</time>
      </trkpt>
      <trkpt lat="45.38018" lon="6.14424">
        <ele>1842.9846191406</ele>
        <time>2012-08-10T06:14:05Z</time>
      </trkpt>
      <trkpt lat="45.38015" lon="6.14428">
        <ele>1844.4265136719</ele>
        <time>2012-08-10T06:14:12Z</time>
      </trkpt>
      <trkpt lat="45.38013" lon="6.14434">
        <ele>1846.8298339844</ele>
        <time>2012-08-10T06:14:21Z</time>
      </trkpt>
      <trkpt lat="45.38012" lon="6.14438">
        <ele>1848.7524414062</ele>
        <time>2012-08-10T06:14:28Z</time>
      </trkpt>
      <trkpt lat="45.38012" lon="6.14444">
        <ele>1850.6750488281</ele>
        <time>2012-08-10T06:14:37Z</time>
      </trkpt>
      <trkpt lat="45.38015" lon="6.14447">
        <ele>1852.1171875</ele>
        <time>2012-08-10T06:14:44Z</time>
      </trkpt>
      <trkpt lat="45.38015" lon="6.14453">
        <ele>1853.5593261719</ele>
        <time>2012-08-10T06:14:52Z</time>
      </trkpt>
      <trkpt lat="45.38017" lon="6.14457">
        <ele>1855.0012207031</ele>
        <time>2012-08-10T06:14:59Z</time>
      </trkpt>
      <trkpt lat="45.38018" lon="6.14462">
        <ele>1857.4045410156</ele>
        <time>2012-08-10T06:15:06Z</time>
      </trkpt>
      <trkpt lat="45.38021" lon="6.14466">
        <ele>1858.8464355469</ele>
        <time>2012-08-10T06:15:13Z</time>
      </trkpt>
      <trkpt lat="45.38023" lon="6.14469">
        <ele>1860.2883300781</ele>
        <time>2012-08-10T06:15:19Z</time>
      </trkpt>
      <trkpt lat="45.38026" lon="6.14474">
        <ele>1862.2109375</ele>
        <time>2012-08-10T06:15:28Z</time>
      </trkpt>
      <trkpt lat="45.38028" lon="6.14479">
        <ele>1863.1723632812</ele>
        <time>2012-08-10T06:15:35Z</time>
      </trkpt>
      <trkpt lat="45.38031" lon="6.14484">
        <ele>1864.6142578125</ele>
        <time>2012-08-10T06:15:43Z</time>
      </trkpt>
      <trkpt lat="45.38032" lon="6.14493">
        <ele>1866.5368652344</ele>
        <time>2012-08-10T06:15:55Z</time>
      </trkpt>
      <trkpt lat="45.38033" lon="6.145">
        <ele>1867.498046875</ele>
        <time>2012-08-10T06:16:04Z</time>
      </trkpt>
      <trkpt lat="45.38033" lon="6.14506">
        <ele>1868.9404296875</ele>
        <time>2012-08-10T06:16:12Z</time>
      </trkpt>
      <trkpt lat="45.38033" lon="6.14511">
        <ele>1869.9016113281</ele>
        <time>2012-08-10T06:16:18Z</time>
      </trkpt>
      <trkpt lat="45.38033" lon="6.14517">
        <ele>1869.9016113281</ele>
        <time>2012-08-10T06:16:26Z</time>
      </trkpt>
      <trkpt lat="45.38034" lon="6.14522">
        <ele>1870.3823242188</ele>
        <time>2012-08-10T06:16:33Z</time>
      </trkpt>
      <trkpt lat="45.38034" lon="6.14529">
        <ele>1872.3049316406</ele>
        <time>2012-08-10T06:16:41Z</time>
      </trkpt>
      <trkpt lat="45.38033" lon="6.14536">
        <ele>1875.6694335938</ele>
        <time>2012-08-10T06:16:49Z</time>
      </trkpt>
      <trkpt lat="45.38033" lon="6.14543">
        <ele>1878.0727539062</ele>
        <time>2012-08-10T06:16:57Z</time>
      </trkpt>
      <trkpt lat="45.38031" lon="6.14549">
        <ele>1879.5146484375</ele>
        <time>2012-08-10T06:17:04Z</time>
      </trkpt>
      <trkpt lat="45.38031" lon="6.14555">
        <ele>1880.9567871094</ele>
        <time>2012-08-10T06:17:10Z</time>
      </trkpt>
      <trkpt lat="45.3803" lon="6.14561">
        <ele>1881.4372558594</ele>
        <time>2012-08-10T06:17:16Z</time>
      </trkpt>
      <trkpt lat="45.38028" lon="6.14564">
        <ele>1882.3986816406</ele>
        <time>2012-08-10T06:17:20Z</time>
      </trkpt>
      <trkpt lat="45.38028" lon="6.1457">
        <ele>1883.8405761719</ele>
        <time>2012-08-10T06:17:27Z</time>
      </trkpt>
      <trkpt lat="45.38028" lon="6.14574">
        <ele>1883.3598632812</ele>
        <time>2012-08-10T06:17:32Z</time>
      </trkpt>
      <trkpt lat="45.38026" lon="6.14578">
        <ele>1885.2827148438</ele>
        <time>2012-08-10T06:17:38Z</time>
      </trkpt>
      <trkpt lat="45.38026" lon="6.14584">
        <ele>1885.7634277344</ele>
        <time>2012-08-10T06:17:44Z</time>
      </trkpt>
      <trkpt lat="45.38025" lon="6.14588">
        <ele>1886.724609375</ele>
        <time>2012-08-10T06:17:49Z</time>
      </trkpt>
      <trkpt lat="45.38024" lon="6.14594">
        <ele>1887.2053222656</ele>
        <time>2012-08-10T06:17:55Z</time>
      </trkpt>
      <trkpt lat="45.38024" lon="6.14601">
        <ele>1888.1667480469</ele>
        <time>2012-08-10T06:18:03Z</time>
      </trkpt>
      <trkpt lat="45.38023" lon="6.14606">
        <ele>1890.5698242188</ele>
        <time>2012-08-10T06:18:09Z</time>
      </trkpt>
      <trkpt lat="45.38023" lon="6.1461">
        <ele>1891.53125</ele>
        <time>2012-08-10T06:18:15Z</time>
      </trkpt>
      <trkpt lat="45.38022" lon="6.14617">
        <ele>1894.4150390625</ele>
        <time>2012-08-10T06:18:22Z</time>
      </trkpt>
      <trkpt lat="45.38021" lon="6.14624">
        <ele>1894.8957519531</ele>
        <time>2012-08-10T06:18:29Z</time>
      </trkpt>
      <trkpt lat="45.3802" lon="6.1463">
        <ele>1897.2990722656</ele>
        <time>2012-08-10T06:18:36Z</time>
      </trkpt>
      <trkpt lat="45.38018" lon="6.14635">
        <ele>1899.2216796875</ele>
        <time>2012-08-10T06:18:42Z</time>
      </trkpt>
      <trkpt lat="45.38016" lon="6.1464">
        <ele>1902.1057128906</ele>
        <time>2012-08-10T06:18:51Z</time>
      </trkpt>
      <trkpt lat="45.38016" lon="6.14646">
        <ele>1904.0285644531</ele>
        <time>2012-08-10T06:18:58Z</time>
      </trkpt>
      <trkpt lat="45.38014" lon="6.14654">
        <ele>1905.4704589844</ele>
        <time>2012-08-10T06:19:07Z</time>
      </trkpt>
      <trkpt lat="45.38013" lon="6.14661">
        <ele>1906.9123535156</ele>
        <time>2012-08-10T06:19:15Z</time>
      </trkpt>
      <trkpt lat="45.38012" lon="6.14668">
        <ele>1907.8737792969</ele>
        <time>2012-08-10T06:19:24Z</time>
      </trkpt>
      <trkpt lat="45.38013" lon="6.14674">
        <ele>1908.8349609375</ele>
        <time>2012-08-10T06:19:31Z</time>
      </trkpt>
      <trkpt lat="45.38014" lon="6.14682">
        <ele>1911.7189941406</ele>
        <time>2012-08-10T06:19:38Z</time>
      </trkpt>
      <trkpt lat="45.38016" lon="6.14689">
        <ele>1914.6027832031</ele>
        <time>2012-08-10T06:19:46Z</time>
      </trkpt>
      <trkpt lat="45.38019" lon="6.14696">
        <ele>1916.5256347656</ele>
        <time>2012-08-10T06:19:54Z</time>
      </trkpt>
      <trkpt lat="45.38022" lon="6.14701">
        <ele>1917.9675292969</ele>
        <time>2012-08-10T06:20:01Z</time>
      </trkpt>
      <trkpt lat="45.38023" lon="6.14711">
        <ele>1918.9289550781</ele>
        <time>2012-08-10T06:20:10Z</time>
      </trkpt>
      <trkpt lat="45.38024" lon="6.14718">
        <ele>1919.4096679688</ele>
        <time>2012-08-10T06:20:14Z</time>
      </trkpt>
      <trkpt lat="45.38026" lon="6.14724">
        <ele>1919.8901367188</ele>
        <time>2012-08-10T06:20:18Z</time>
      </trkpt>
      <trkpt lat="45.38031" lon="6.14737">
        <ele>1920.3708496094</ele>
        <time>2012-08-10T06:20:27Z</time>
      </trkpt>
      <trkpt lat="45.38034" lon="6.14749">
        <ele>1921.33203125</ele>
        <time>2012-08-10T06:20:36Z</time>
      </trkpt>
      <trkpt lat="45.38034" lon="6.14751">
        <ele>1921.33203125</ele>
        <time>2012-08-10T06:20:38Z</time>
      </trkpt>
      <trkpt lat="45.38034" lon="6.1476">
        <ele>1922.2934570312</ele>
        <time>2012-08-10T06:20:44Z</time>
      </trkpt>
      <trkpt lat="45.38037" lon="6.14772">
        <ele>1921.33203125</ele>
        <time>2012-08-10T06:20:52Z</time>
      </trkpt>
      <trkpt lat="45.38035" lon="6.14782">
        <ele>1920.8515625</ele>
        <time>2012-08-10T06:20:58Z</time>
      </trkpt>
      <trkpt lat="45.38036" lon="6.14791">
        <ele>1922.7741699219</ele>
        <time>2012-08-10T06:21:05Z</time>
      </trkpt>
      <trkpt lat="45.38037" lon="6.14799">
        <ele>1924.2160644531</ele>
        <time>2012-08-10T06:21:13Z</time>
      </trkpt>
      <trkpt lat="45.38034" lon="6.1481">
        <ele>1926.6193847656</ele>
        <time>2012-08-10T06:21:21Z</time>
      </trkpt>
      <trkpt lat="45.38033" lon="6.14813">
        <ele>1927.1000976562</ele>
        <time>2012-08-10T06:21:24Z</time>
      </trkpt>
      <trkpt lat="45.3803" lon="6.14826">
        <ele>1928.0612792969</ele>
        <time>2012-08-10T06:21:33Z</time>
      </trkpt>
      <trkpt lat="45.38027" lon="6.14834">
        <ele>1929.0224609375</ele>
        <time>2012-08-10T06:21:41Z</time>
      </trkpt>
      <trkpt lat="45.38025" lon="6.14843">
        <ele>1930.9453125</ele>
        <time>2012-08-10T06:21:49Z</time>
      </trkpt>
      <trkpt lat="45.38024" lon="6.14851">
        <ele>1931.9064941406</ele>
        <time>2012-08-10T06:21:56Z</time>
      </trkpt>
      <trkpt lat="45.38024" lon="6.14857">
        <ele>1931.42578125</ele>
        <time>2012-08-10T06:22:02Z</time>
      </trkpt>
      <trkpt lat="45.38023" lon="6.14865">
        <ele>1928.5419921875</ele>
        <time>2012-08-10T06:22:09Z</time>
      </trkpt>
      <trkpt lat="45.38021" lon="6.14874">
        <ele>1930.4645996094</ele>
        <time>2012-08-10T06:22:17Z</time>
      </trkpt>
      <trkpt lat="45.3802" lon="6.14881">
        <ele>1931.42578125</ele>
        <time>2012-08-10T06:22:23Z</time>
      </trkpt>
      <trkpt lat="45.38018" lon="6.14888">
        <ele>1930.9453125</ele>
        <time>2012-08-10T06:22:27Z</time>
      </trkpt>
      <trkpt lat="45.38015" lon="6.149">
        <ele>1930.4645996094</ele>
        <time>2012-08-10T06:22:34Z</time>
      </trkpt>
      <trkpt lat="45.38015" lon="6.14902">
        <ele>1930.4645996094</ele>
        <time>2012-08-10T06:22:35Z</time>
      </trkpt>
      <trkpt lat="45.38014" lon="6.14918">
        <ele>1930.9453125</ele>
        <time>2012-08-10T06:22:41Z</time>
      </trkpt>
      <trkpt lat="45.38015" lon="6.14928">
        <ele>1929.9838867188</ele>
        <time>2012-08-10T06:22:46Z</time>
      </trkpt>
      <trkpt lat="45.38017" lon="6.14932">
        <ele>1930.4645996094</ele>
        <time>2012-08-10T06:22:49Z</time>
      </trkpt>
      <trkpt lat="45.38015" lon="6.14941">
        <ele>1930.9453125</ele>
        <time>2012-08-10T06:22:54Z</time>
      </trkpt>
      <trkpt lat="45.38012" lon="6.14948">
        <ele>1931.9064941406</ele>
        <time>2012-08-10T06:23:01Z</time>
      </trkpt>
      <trkpt lat="45.3801" lon="6.14952">
        <ele>1935.2712402344</ele>
        <time>2012-08-10T06:23:06Z</time>
      </trkpt>
      <trkpt lat="45.38009" lon="6.14963">
        <ele>1939.5971679688</ele>
        <time>2012-08-10T06:23:14Z</time>
      </trkpt>
      <trkpt lat="45.38008" lon="6.14968">
        <ele>1942.4812011719</ele>
        <time>2012-08-10T06:23:19Z</time>
      </trkpt>
      <trkpt lat="45.38007" lon="6.14971">
        <ele>1944.4035644531</ele>
        <time>2012-08-10T06:23:27Z</time>
      </trkpt>
      <trkpt lat="45.38004" lon="6.14973">
        <ele>1944.8842773438</ele>
        <time>2012-08-10T06:23:32Z</time>
      </trkpt>
      <trkpt lat="45.38002" lon="6.14974">
        <ele>1944.4035644531</ele>
        <time>2012-08-10T06:23:36Z</time>
      </trkpt>
      <trkpt lat="45.37999" lon="6.14976">
        <ele>1945.845703125</ele>
        <time>2012-08-10T06:23:41Z</time>
      </trkpt>
      <trkpt lat="45.37993" lon="6.14982">
        <ele>1946.3264160156</ele>
        <time>2012-08-10T06:23:48Z</time>
      </trkpt>
      <trkpt lat="45.37991" lon="6.14985">
        <ele>1946.8068847656</ele>
        <time>2012-08-10T06:23:52Z</time>
      </trkpt>
      <trkpt lat="45.37984" lon="6.14991">
        <ele>1948.7297363281</ele>
        <time>2012-08-10T06:24:05Z</time>
      </trkpt>
      <trkpt lat="45.37979" lon="6.14994">
        <ele>1948.2490234375</ele>
        <time>2012-08-10T06:24:09Z</time>
      </trkpt>
      <trkpt lat="45.3797" lon="6.14996">
        <ele>1948.7297363281</ele>
        <time>2012-08-10T06:24:15Z</time>
      </trkpt>
      <trkpt lat="45.37965" lon="6.15">
        <ele>1949.6911621094</ele>
        <time>2012-08-10T06:24:20Z</time>
      </trkpt>
      <trkpt lat="45.37955" lon="6.15006">
        <ele>1948.2490234375</ele>
        <time>2012-08-10T06:24:28Z</time>
      </trkpt>
      <trkpt lat="45.37949" lon="6.15008">
        <ele>1949.2104492188</ele>
        <time>2012-08-10T06:24:34Z</time>
      </trkpt>
      <trkpt lat="45.37948" lon="6.15008">
        <ele>1949.2104492188</ele>
        <time>2012-08-10T06:24:35Z</time>
      </trkpt>
      <trkpt lat="45.3794" lon="6.15011">
        <ele>1946.8068847656</ele>
        <time>2012-08-10T06:24:41Z</time>
      </trkpt>
      <trkpt lat="45.3793" lon="6.15015">
        <ele>1946.3264160156</ele>
        <time>2012-08-10T06:24:48Z</time>
      </trkpt>
      <trkpt lat="45.37926" lon="6.15016">
        <ele>1945.3649902344</ele>
        <time>2012-08-10T06:24:52Z</time>
      </trkpt>
      <trkpt lat="45.37919" lon="6.15018">
        <ele>1944.8842773438</ele>
        <time>2012-08-10T06:24:58Z</time>
      </trkpt>
      <trkpt lat="45.37913" lon="6.15023">
        <ele>1944.8842773438</ele>
        <time>2012-08-10T06:25:05Z</time>
      </trkpt>
      <trkpt lat="45.37909" lon="6.15026">
        <ele>1945.3649902344</ele>
        <time>2012-08-10T06:25:10Z</time>
      </trkpt>
      <trkpt lat="45.37905" lon="6.1503">
        <ele>1945.845703125</ele>
        <time>2012-08-10T06:25:14Z</time>
      </trkpt>
      <trkpt lat="45.37903" lon="6.15032">
        <ele>1947.2875976562</ele>
        <time>2012-08-10T06:25:17Z</time>
      </trkpt>
      <trkpt lat="45.37896" lon="6.15038">
        <ele>1948.2490234375</ele>
        <time>2012-08-10T06:25:25Z</time>
      </trkpt>
      <trkpt lat="45.3789" lon="6.15045">
        <ele>1948.2490234375</ele>
        <time>2012-08-10T06:25:31Z</time>
      </trkpt>
      <trkpt lat="45.37888" lon="6.15049">
        <ele>1948.2490234375</ele>
        <time>2012-08-10T06:25:38Z</time>
      </trkpt>
      <trkpt lat="45.37885" lon="6.15053">
        <ele>1948.2490234375</ele>
        <time>2012-08-10T06:25:43Z</time>
      </trkpt>
      <trkpt lat="45.37883" lon="6.15058">
        <ele>1948.2490234375</ele>
        <time>2012-08-10T06:25:48Z</time>
      </trkpt>
      <trkpt lat="45.37877" lon="6.15061">
        <ele>1947.7683105469</ele>
        <time>2012-08-10T06:25:55Z</time>
      </trkpt>
      <trkpt lat="45.37876" lon="6.15062">
        <ele>1947.2875976562</ele>
        <time>2012-08-10T06:25:56Z</time>
      </trkpt>
      <trkpt lat="45.37873" lon="6.15066">
        <ele>1947.2875976562</ele>
        <time>2012-08-10T06:26:02Z</time>
      </trkpt>
      <trkpt lat="45.37872" lon="6.1507">
        <ele>1947.7683105469</ele>
        <time>2012-08-10T06:26:08Z</time>
      </trkpt>
      <trkpt lat="45.37868" lon="6.15077">
        <ele>1948.2490234375</ele>
        <time>2012-08-10T06:26:14Z</time>
      </trkpt>
      <trkpt lat="45.37865" lon="6.15085">
        <ele>1948.7297363281</ele>
        <time>2012-08-10T06:26:21Z</time>
      </trkpt>
      <trkpt lat="45.37861" lon="6.15095">
        <ele>1949.6911621094</ele>
        <time>2012-08-10T06:26:29Z</time>
      </trkpt>
      <trkpt lat="45.3786" lon="6.15101">
        <ele>1950.171875</ele>
        <time>2012-08-10T06:26:35Z</time>
      </trkpt>
      <trkpt lat="45.37861" lon="6.1511">
        <ele>1951.1330566406</ele>
        <time>2012-08-10T06:26:41Z</time>
      </trkpt>
      <trkpt lat="45.37861" lon="6.15117">
        <ele>1949.6911621094</ele>
        <time>2012-08-10T06:26:48Z</time>
      </trkpt>
      <trkpt lat="45.37857" lon="6.15125">
        <ele>1949.2104492188</ele>
        <time>2012-08-10T06:26:54Z</time>
      </trkpt>
      <trkpt lat="45.37856" lon="6.15129">
        <ele>1948.7297363281</ele>
        <time>2012-08-10T06:26:58Z</time>
      </trkpt>
      <trkpt lat="45.37851" lon="6.15137">
        <ele>1948.2490234375</ele>
        <time>2012-08-10T06:27:05Z</time>
      </trkpt>
      <trkpt lat="45.37848" lon="6.15143">
        <ele>1948.2490234375</ele>
        <time>2012-08-10T06:27:11Z</time>
      </trkpt>
      <trkpt lat="45.37841" lon="6.15151">
        <ele>1949.6911621094</ele>
        <time>2012-08-10T06:27:22Z</time>
      </trkpt>
      <trkpt lat="45.37833" lon="6.15158">
        <ele>1950.65234375</ele>
        <time>2012-08-10T06:27:30Z</time>
      </trkpt>
      <trkpt lat="45.37827" lon="6.15167">
        <ele>1953.0556640625</ele>
        <time>2012-08-10T06:27:39Z</time>
      </trkpt>
      <trkpt lat="45.37822" lon="6.15174">
        <ele>1954.0170898438</ele>
        <time>2012-08-10T06:27:45Z</time>
      </trkpt>
      <trkpt lat="45.37815" lon="6.15181">
        <ele>1954.9782714844</ele>
        <time>2012-08-10T06:27:53Z</time>
      </trkpt>
      <trkpt lat="45.37807" lon="6.15188">
        <ele>1955.939453125</ele>
        <time>2012-08-10T06:28:00Z</time>
      </trkpt>
      <trkpt lat="45.37801" lon="6.15195">
        <ele>1955.939453125</ele>
        <time>2012-08-10T06:28:07Z</time>
      </trkpt>
      <trkpt lat="45.37791" lon="6.15205">
        <ele>1957.8623046875</ele>
        <time>2012-08-10T06:28:17Z</time>
      </trkpt>
      <trkpt lat="45.37785" lon="6.15213">
        <ele>1958.3427734375</ele>
        <time>2012-08-10T06:28:24Z</time>
      </trkpt>
      <trkpt lat="45.37778" lon="6.15221">
        <ele>1959.3041992188</ele>
        <time>2012-08-10T06:28:32Z</time>
      </trkpt>
      <trkpt lat="45.3777" lon="6.15228">
        <ele>1960.2653808594</ele>
        <time>2012-08-10T06:28:40Z</time>
      </trkpt>
      <trkpt lat="45.37769" lon="6.15229">
        <ele>1960.74609375</ele>
        <time>2012-08-10T06:28:41Z</time>
      </trkpt>
      <trkpt lat="45.37766" lon="6.15234">
        <ele>1959.7846679688</ele>
        <time>2012-08-10T06:28:45Z</time>
      </trkpt>
      <trkpt lat="45.37759" lon="6.15244">
        <ele>1959.7846679688</ele>
        <time>2012-08-10T06:28:54Z</time>
      </trkpt>
      <trkpt lat="45.37751" lon="6.15254">
        <ele>1959.7846679688</ele>
        <time>2012-08-10T06:29:03Z</time>
      </trkpt>
      <trkpt lat="45.37744" lon="6.15264">
        <ele>1960.2653808594</ele>
        <time>2012-08-10T06:29:11Z</time>
      </trkpt>
      <trkpt lat="45.37736" lon="6.15275">
        <ele>1960.74609375</ele>
        <time>2012-08-10T06:29:20Z</time>
      </trkpt>
      <trkpt lat="45.37729" lon="6.15284">
        <ele>1961.7075195312</ele>
        <time>2012-08-10T06:29:28Z</time>
      </trkpt>
      <trkpt lat="45.37721" lon="6.15291">
        <ele>1963.1494140625</ele>
        <time>2012-08-10T06:29:36Z</time>
      </trkpt>
      <trkpt lat="45.37714" lon="6.15296">
        <ele>1963.6298828125</ele>
        <time>2012-08-10T06:29:43Z</time>
      </trkpt>
      <trkpt lat="45.37707" lon="6.15303">
        <ele>1964.1108398438</ele>
        <time>2012-08-10T06:29:50Z</time>
      </trkpt>
      <trkpt lat="45.377" lon="6.15308">
        <ele>1965.072265625</ele>
        <time>2012-08-10T06:29:58Z</time>
      </trkpt>
      <trkpt lat="45.37695" lon="6.15313">
        <ele>1965.5529785156</ele>
        <time>2012-08-10T06:30:03Z</time>
      </trkpt>
      <trkpt lat="45.37691" lon="6.15317">
        <ele>1965.5529785156</ele>
        <time>2012-08-10T06:30:07Z</time>
      </trkpt>
      <trkpt lat="45.37685" lon="6.15323">
        <ele>1966.0334472656</ele>
        <time>2012-08-10T06:30:13Z</time>
      </trkpt>
      <trkpt lat="45.3768" lon="6.15326">
        <ele>1966.0334472656</ele>
        <time>2012-08-10T06:30:18Z</time>
      </trkpt>
      <trkpt lat="45.37672" lon="6.15334">
        <ele>1967.4753417969</ele>
        <time>2012-08-10T06:30:26Z</time>
      </trkpt>
      <trkpt lat="45.37665" lon="6.15345">
        <ele>1967.4753417969</ele>
        <time>2012-08-10T06:30:34Z</time>
      </trkpt>
      <trkpt lat="45.37663" lon="6.15347">
        <ele>1967.9560546875</ele>
        <time>2012-08-10T06:30:36Z</time>
      </trkpt>
      <trkpt lat="45.37656" lon="6.15356">
        <ele>1967.9560546875</ele>
        <time>2012-08-10T06:30:44Z</time>
      </trkpt>
      <trkpt lat="45.37654" lon="6.15359">
        <ele>1967.9560546875</ele>
        <time>2012-08-10T06:30:52Z</time>
      </trkpt>
      <trkpt lat="45.37655" lon="6.15357">
        <ele>1967.9560546875</ele>
        <time>2012-08-10T06:30:59Z</time>
      </trkpt>
      <trkpt lat="45.37656" lon="6.15355">
        <ele>1967.9560546875</ele>
        <time>2012-08-10T06:31:06Z</time>
      </trkpt>
      <trkpt lat="45.37655" lon="6.15358">
        <ele>1967.9560546875</ele>
        <time>2012-08-10T06:31:15Z</time>
      </trkpt>
      <trkpt lat="45.37655" lon="6.15358">
        <ele>1967.9560546875</ele>
        <time>2012-08-10T06:31:21Z</time>
      </trkpt>
      <trkpt lat="45.37655" lon="6.15358">
        <ele>1966.9948730469</ele>
        <time>2012-08-10T06:31:30Z</time>
      </trkpt>
      <trkpt lat="45.37654" lon="6.15357">
        <ele>1965.072265625</ele>
        <time>2012-08-10T06:31:45Z</time>
      </trkpt>
      <trkpt lat="45.37653" lon="6.15357">
        <ele>1965.072265625</ele>
        <time>2012-08-10T06:31:49Z</time>
      </trkpt>
      <trkpt lat="45.37652" lon="6.15358">
        <ele>1964.5915527344</ele>
        <time>2012-08-10T06:32:09Z</time>
      </trkpt>
      <trkpt lat="45.37652" lon="6.15358">
        <ele>1964.5915527344</ele>
        <time>2012-08-10T06:32:17Z</time>
      </trkpt>
      <trkpt lat="45.37654" lon="6.15361">
        <ele>1963.6298828125</ele>
        <time>2012-08-10T06:32:26Z</time>
      </trkpt>
      <trkpt lat="45.37654" lon="6.15364">
        <ele>1963.6298828125</ele>
        <time>2012-08-10T06:32:32Z</time>
      </trkpt>
      <trkpt lat="45.37655" lon="6.15364">
        <ele>1963.6298828125</ele>
        <time>2012-08-10T06:32:43Z</time>
      </trkpt>
      <trkpt lat="45.37655" lon="6.15365">
        <ele>1964.5915527344</ele>
        <time>2012-08-10T06:33:01Z</time>
      </trkpt>
      <trkpt lat="45.37655" lon="6.15365">
        <ele>1964.5915527344</ele>
        <time>2012-08-10T06:33:09Z</time>
      </trkpt>
      <trkpt lat="45.37655" lon="6.15365">
        <ele>1964.1108398438</ele>
        <time>2012-08-10T06:33:24Z</time>
      </trkpt>
      <trkpt lat="45.37654" lon="6.15365">
        <ele>1964.1108398438</ele>
        <time>2012-08-10T06:33:28Z</time>
      </trkpt>
      <trkpt lat="45.37655" lon="6.1537">
        <ele>1964.1108398438</ele>
        <time>2012-08-10T06:33:37Z</time>
      </trkpt>
      <trkpt lat="45.37656" lon="6.15375">
        <ele>1963.6298828125</ele>
        <time>2012-08-10T06:33:40Z</time>
      </trkpt>
      <trkpt lat="45.37658" lon="6.15382">
        <ele>1962.6687011719</ele>
        <time>2012-08-10T06:33:44Z</time>
      </trkpt>
      <trkpt lat="45.37662" lon="6.15393">
        <ele>1960.2653808594</ele>
        <time>2012-08-10T06:33:51Z</time>
      </trkpt>
      <trkpt lat="45.37663" lon="6.15396">
        <ele>1959.3041992188</ele>
        <time>2012-08-10T06:33:53Z</time>
      </trkpt>
      <trkpt lat="45.37671" lon="6.15407">
        <ele>1956.4201660156</ele>
        <time>2012-08-10T06:34:02Z</time>
      </trkpt>
      <trkpt lat="45.37672" lon="6.15408">
        <ele>1955.939453125</ele>
        <time>2012-08-10T06:34:03Z</time>
      </trkpt>
      <trkpt lat="45.37678" lon="6.15417">
        <ele>1952.0942382812</ele>
        <time>2012-08-10T06:34:10Z</time>
      </trkpt>
      <trkpt lat="45.37686" lon="6.15419">
        <ele>1951.1330566406</ele>
        <time>2012-08-10T06:34:14Z</time>
      </trkpt>
      <trkpt lat="45.37691" lon="6.15421">
        <ele>1948.2490234375</ele>
        <time>2012-08-10T06:34:17Z</time>
      </trkpt>
      <trkpt lat="45.37698" lon="6.15426">
        <ele>1947.2875976562</ele>
        <time>2012-08-10T06:34:22Z</time>
      </trkpt>
      <trkpt lat="45.37707" lon="6.15435">
        <ele>1944.4035644531</ele>
        <time>2012-08-10T06:34:30Z</time>
      </trkpt>
      <trkpt lat="45.37711" lon="6.15443">
        <ele>1941.5197753906</ele>
        <time>2012-08-10T06:34:35Z</time>
      </trkpt>
      <trkpt lat="45.37713" lon="6.15447">
        <ele>1940.0778808594</ele>
        <time>2012-08-10T06:34:37Z</time>
      </trkpt>
      <trkpt lat="45.37716" lon="6.15458">
        <ele>1936.7131347656</ele>
        <time>2012-08-10T06:34:43Z</time>
      </trkpt>
      <trkpt lat="45.37718" lon="6.15467">
        <ele>1934.7907714844</ele>
        <time>2012-08-10T06:34:48Z</time>
      </trkpt>
      <trkpt lat="45.3772" lon="6.15475">
        <ele>1932.8679199219</ele>
        <time>2012-08-10T06:34:53Z</time>
      </trkpt>
      <trkpt lat="45.37722" lon="6.15483">
        <ele>1930.9453125</ele>
        <time>2012-08-10T06:34:57Z</time>
      </trkpt>
      <trkpt lat="45.37728" lon="6.15498">
        <ele>1928.0612792969</ele>
        <time>2012-08-10T06:35:05Z</time>
      </trkpt>
      <trkpt lat="45.37729" lon="6.15504">
        <ele>1927.1000976562</ele>
        <time>2012-08-10T06:35:08Z</time>
      </trkpt>
      <trkpt lat="45.37732" lon="6.15515">
        <ele>1924.6967773438</ele>
        <time>2012-08-10T06:35:14Z</time>
      </trkpt>
      <trkpt lat="45.37733" lon="6.15518">
        <ele>1924.6967773438</ele>
        <time>2012-08-10T06:35:16Z</time>
      </trkpt>
      <trkpt lat="45.37736" lon="6.15528">
        <ele>1923.7353515625</ele>
        <time>2012-08-10T06:35:21Z</time>
      </trkpt>
      <trkpt lat="45.37737" lon="6.15535">
        <ele>1923.2548828125</ele>
        <time>2012-08-10T06:35:25Z</time>
      </trkpt>
      <trkpt lat="45.37738" lon="6.15543">
        <ele>1922.7741699219</ele>
        <time>2012-08-10T06:35:29Z</time>
      </trkpt>
      <trkpt lat="45.37745" lon="6.15556">
        <ele>1921.8127441406</ele>
        <time>2012-08-10T06:35:37Z</time>
      </trkpt>
      <trkpt lat="45.37748" lon="6.1556">
        <ele>1921.33203125</ele>
        <time>2012-08-10T06:35:40Z</time>
      </trkpt>
      <trkpt lat="45.37751" lon="6.15562">
        <ele>1921.33203125</ele>
        <time>2012-08-10T06:35:42Z</time>
      </trkpt>
      <trkpt lat="45.37755" lon="6.15567">
        <ele>1920.8515625</ele>
        <time>2012-08-10T06:35:46Z</time>
      </trkpt>
      <trkpt lat="45.37759" lon="6.15572">
        <ele>1920.3708496094</ele>
        <time>2012-08-10T06:35:50Z</time>
      </trkpt>
      <trkpt lat="45.3777" lon="6.15576">
        <ele>1917.4868164062</ele>
        <time>2012-08-10T06:35:57Z</time>
      </trkpt>
      <trkpt lat="45.37772" lon="6.15576">
        <ele>1917.0063476562</ele>
        <time>2012-08-10T06:35:58Z</time>
      </trkpt>
      <trkpt lat="45.37778" lon="6.15581">
        <ele>1915.0834960938</ele>
        <time>2012-08-10T06:36:04Z</time>
      </trkpt>
      <trkpt lat="45.37781" lon="6.15586">
        <ele>1914.1220703125</ele>
        <time>2012-08-10T06:36:08Z</time>
      </trkpt>
      <trkpt lat="45.37783" lon="6.15593">
        <ele>1912.6801757812</ele>
        <time>2012-08-10T06:36:12Z</time>
      </trkpt>
      <trkpt lat="45.37787" lon="6.156">
        <ele>1911.23828125</ele>
        <time>2012-08-10T06:36:19Z</time>
      </trkpt>
      <trkpt lat="45.37788" lon="6.15603">
        <ele>1910.2768554688</ele>
        <time>2012-08-10T06:36:21Z</time>
      </trkpt>
      <trkpt lat="45.3779" lon="6.15606">
        <ele>1909.7961425781</ele>
        <time>2012-08-10T06:36:24Z</time>
      </trkpt>
      <trkpt lat="45.37792" lon="6.15608">
        <ele>1909.3156738281</ele>
        <time>2012-08-10T06:36:26Z</time>
      </trkpt>
      <trkpt lat="45.37798" lon="6.15611">
        <ele>1907.3930664062</ele>
        <time>2012-08-10T06:36:31Z</time>
      </trkpt>
      <trkpt lat="45.37805" lon="6.15616">
        <ele>1905.9509277344</ele>
        <time>2012-08-10T06:36:38Z</time>
      </trkpt>
      <trkpt lat="45.3781" lon="6.1562">
        <ele>1905.4704589844</ele>
        <time>2012-08-10T06:36:43Z</time>
      </trkpt>
      <trkpt lat="45.37812" lon="6.1562">
        <ele>1905.4704589844</ele>
        <time>2012-08-10T06:36:46Z</time>
      </trkpt>
      <trkpt lat="45.37818" lon="6.15622">
        <ele>1905.9509277344</ele>
        <time>2012-08-10T06:36:51Z</time>
      </trkpt>
      <trkpt lat="45.37824" lon="6.15632">
        <ele>1904.5090332031</ele>
        <time>2012-08-10T06:36:58Z</time>
      </trkpt>
      <trkpt lat="45.37826" lon="6.15635">
        <ele>1903.5478515625</ele>
        <time>2012-08-10T06:37:00Z</time>
      </trkpt>
      <trkpt lat="45.37828" lon="6.15637">
        <ele>1903.0671386719</ele>
        <time>2012-08-10T06:37:02Z</time>
      </trkpt>
      <trkpt lat="45.37832" lon="6.15647">
        <ele>1901.14453125</ele>
        <time>2012-08-10T06:37:08Z</time>
      </trkpt>
      <trkpt lat="45.37838" lon="6.15656">
        <ele>1900.1833496094</ele>
        <time>2012-08-10T06:37:14Z</time>
      </trkpt>
      <trkpt lat="45.37842" lon="6.15664">
        <ele>1899.2216796875</ele>
        <time>2012-08-10T06:37:18Z</time>
      </trkpt>
      <trkpt lat="45.37848" lon="6.15674">
        <ele>1897.7797851562</ele>
        <time>2012-08-10T06:37:25Z</time>
      </trkpt>
      <trkpt lat="45.37851" lon="6.15682">
        <ele>1897.2990722656</ele>
        <time>2012-08-10T06:37:31Z</time>
      </trkpt>
      <trkpt lat="45.37856" lon="6.15694">
        <ele>1894.8957519531</ele>
        <time>2012-08-10T06:37:38Z</time>
      </trkpt>
      <trkpt lat="45.3786" lon="6.15704">
        <ele>1893.4538574219</ele>
        <time>2012-08-10T06:37:44Z</time>
      </trkpt>
      <trkpt lat="45.37862" lon="6.1571">
        <ele>1892.9731445312</ele>
        <time>2012-08-10T06:37:49Z</time>
      </trkpt>
      <trkpt lat="45.37867" lon="6.15717">
        <ele>1891.53125</ele>
        <time>2012-08-10T06:37:55Z</time>
      </trkpt>
      <trkpt lat="45.37872" lon="6.15721">
        <ele>1889.6086425781</ele>
        <time>2012-08-10T06:37:59Z</time>
      </trkpt>
      <trkpt lat="45.37879" lon="6.15729">
        <ele>1888.6474609375</ele>
        <time>2012-08-10T06:38:07Z</time>
      </trkpt>
      <trkpt lat="45.37885" lon="6.15738">
        <ele>1888.1667480469</ele>
        <time>2012-08-10T06:38:13Z</time>
      </trkpt>
      <trkpt lat="45.37891" lon="6.15749">
        <ele>1888.1667480469</ele>
        <time>2012-08-10T06:38:21Z</time>
      </trkpt>
      <trkpt lat="45.37896" lon="6.15755">
        <ele>1887.6860351562</ele>
        <time>2012-08-10T06:38:26Z</time>
      </trkpt>
      <trkpt lat="45.37904" lon="6.15759">
        <ele>1887.2053222656</ele>
        <time>2012-08-10T06:38:32Z</time>
      </trkpt>
      <trkpt lat="45.37908" lon="6.15765">
        <ele>1887.6860351562</ele>
        <time>2012-08-10T06:38:37Z</time>
      </trkpt>
      <trkpt lat="45.37916" lon="6.15776">
        <ele>1887.2053222656</ele>
        <time>2012-08-10T06:38:46Z</time>
      </trkpt>
      <trkpt lat="45.37917" lon="6.15778">
        <ele>1887.2053222656</ele>
        <time>2012-08-10T06:38:47Z</time>
      </trkpt>
      <trkpt lat="45.37923" lon="6.15785">
        <ele>1885.7634277344</ele>
        <time>2012-08-10T06:38:54Z</time>
      </trkpt>
      <trkpt lat="45.37929" lon="6.15789">
        <ele>1885.7634277344</ele>
        <time>2012-08-10T06:38:59Z</time>
      </trkpt>
      <trkpt lat="45.37938" lon="6.15795">
        <ele>1886.724609375</ele>
        <time>2012-08-10T06:39:07Z</time>
      </trkpt>
      <trkpt lat="45.37943" lon="6.15801">
        <ele>1887.2053222656</ele>
        <time>2012-08-10T06:39:13Z</time>
      </trkpt>
      <trkpt lat="45.37948" lon="6.15805">
        <ele>1887.6860351562</ele>
        <time>2012-08-10T06:39:18Z</time>
      </trkpt>
      <trkpt lat="45.37949" lon="6.15806">
        <ele>1887.6860351562</ele>
        <time>2012-08-10T06:39:19Z</time>
      </trkpt>
      <trkpt lat="45.37959" lon="6.15813">
        <ele>1888.6474609375</ele>
        <time>2012-08-10T06:39:27Z</time>
      </trkpt>
      <trkpt lat="45.37966" lon="6.15819">
        <ele>1888.1667480469</ele>
        <time>2012-08-10T06:39:33Z</time>
      </trkpt>
      <trkpt lat="45.37973" lon="6.15825">
        <ele>1888.6474609375</ele>
        <time>2012-08-10T06:39:39Z</time>
      </trkpt>
      <trkpt lat="45.37977" lon="6.15828">
        <ele>1888.1667480469</ele>
        <time>2012-08-10T06:39:42Z</time>
      </trkpt>
      <trkpt lat="45.37985" lon="6.15833">
        <ele>1887.6860351562</ele>
        <time>2012-08-10T06:39:48Z</time>
      </trkpt>
      <trkpt lat="45.37993" lon="6.15836">
        <ele>1888.1667480469</ele>
        <time>2012-08-10T06:39:55Z</time>
      </trkpt>
      <trkpt lat="45.38001" lon="6.15842">
        <ele>1887.6860351562</ele>
        <time>2012-08-10T06:40:02Z</time>
      </trkpt>
      <trkpt lat="45.38008" lon="6.15844">
        <ele>1888.6474609375</ele>
        <time>2012-08-10T06:40:09Z</time>
      </trkpt>
      <trkpt lat="45.38014" lon="6.15845">
        <ele>1890.0893554688</ele>
        <time>2012-08-10T06:40:15Z</time>
      </trkpt>
      <trkpt lat="45.38021" lon="6.15851">
        <ele>1891.0505371094</ele>
        <time>2012-08-10T06:40:22Z</time>
      </trkpt>
      <trkpt lat="45.38024" lon="6.15854">
        <ele>1891.53125</ele>
        <time>2012-08-10T06:40:25Z</time>
      </trkpt>
      <trkpt lat="45.38032" lon="6.1586">
        <ele>1889.1279296875</ele>
        <time>2012-08-10T06:40:32Z</time>
      </trkpt>
      <trkpt lat="45.38033" lon="6.15861">
        <ele>1889.1279296875</ele>
        <time>2012-08-10T06:40:33Z</time>
      </trkpt>
      <trkpt lat="45.38036" lon="6.15863">
        <ele>1887.6860351562</ele>
        <time>2012-08-10T06:40:37Z</time>
      </trkpt>
      <trkpt lat="45.38037" lon="6.15865">
        <ele>1887.2053222656</ele>
        <time>2012-08-10T06:40:39Z</time>
      </trkpt>
      <trkpt lat="45.38044" lon="6.15871">
        <ele>1886.244140625</ele>
        <time>2012-08-10T06:40:46Z</time>
      </trkpt>
      <trkpt lat="45.38048" lon="6.15876">
        <ele>1885.2827148438</ele>
        <time>2012-08-10T06:40:53Z</time>
      </trkpt>
      <trkpt lat="45.38046" lon="6.15878">
        <ele>1884.8022460938</ele>
        <time>2012-08-10T06:40:58Z</time>
      </trkpt>
      <trkpt lat="45.38042" lon="6.15879">
        <ele>1883.3598632812</ele>
        <time>2012-08-10T06:41:02Z</time>
      </trkpt>
      <trkpt lat="45.38037" lon="6.15881">
        <ele>1882.8791503906</ele>
        <time>2012-08-10T06:41:06Z</time>
      </trkpt>
      <trkpt lat="45.38025" lon="6.15882">
        <ele>1882.8791503906</ele>
        <time>2012-08-10T06:41:15Z</time>
      </trkpt>
      <trkpt lat="45.38018" lon="6.1588">
        <ele>1883.3598632812</ele>
        <time>2012-08-10T06:41:21Z</time>
      </trkpt>
      <trkpt lat="45.3801" lon="6.15877">
        <ele>1882.8791503906</ele>
        <time>2012-08-10T06:41:28Z</time>
      </trkpt>
      <trkpt lat="45.38002" lon="6.15873">
        <ele>1881.91796875</ele>
        <time>2012-08-10T06:41:34Z</time>
      </trkpt>
      <trkpt lat="45.37992" lon="6.15869">
        <ele>1882.8791503906</ele>
        <time>2012-08-10T06:41:41Z</time>
      </trkpt>
      <trkpt lat="45.37984" lon="6.15868">
        <ele>1883.8405761719</ele>
        <time>2012-08-10T06:41:47Z</time>
      </trkpt>
      <trkpt lat="45.37974" lon="6.15866">
        <ele>1883.8405761719</ele>
        <time>2012-08-10T06:41:55Z</time>
      </trkpt>
      <trkpt lat="45.37967" lon="6.15861">
        <ele>1883.8405761719</ele>
        <time>2012-08-10T06:42:02Z</time>
      </trkpt>
      <trkpt lat="45.37965" lon="6.1586">
        <ele>1883.3598632812</ele>
        <time>2012-08-10T06:42:04Z</time>
      </trkpt>
      <trkpt lat="45.37958" lon="6.15853">
        <ele>1882.8791503906</ele>
        <time>2012-08-10T06:42:11Z</time>
      </trkpt>
      <trkpt lat="45.37956" lon="6.15851">
        <ele>1882.3986816406</ele>
        <time>2012-08-10T06:42:13Z</time>
      </trkpt>
      <trkpt lat="45.37951" lon="6.15845">
        <ele>1880.4760742188</ele>
        <time>2012-08-10T06:42:18Z</time>
      </trkpt>
      <trkpt lat="45.37948" lon="6.1584">
        <ele>1879.5146484375</ele>
        <time>2012-08-10T06:42:22Z</time>
      </trkpt>
      <trkpt lat="45.3794" lon="6.15843">
        <ele>1877.1115722656</ele>
        <time>2012-08-10T06:42:29Z</time>
      </trkpt>
      <trkpt lat="45.37939" lon="6.15844">
        <ele>1877.1115722656</ele>
        <time>2012-08-10T06:42:30Z</time>
      </trkpt>
      <trkpt lat="45.37933" lon="6.15846">
        <ele>1876.630859375</ele>
        <time>2012-08-10T06:42:35Z</time>
      </trkpt>
      <trkpt lat="45.37927" lon="6.15842">
        <ele>1876.1501464844</ele>
        <time>2012-08-10T06:42:40Z</time>
      </trkpt>
      <trkpt lat="45.37926" lon="6.15841">
        <ele>1875.6694335938</ele>
        <time>2012-08-10T06:42:41Z</time>
      </trkpt>
      <trkpt lat="45.3792" lon="6.1584">
        <ele>1872.7856445312</ele>
        <time>2012-08-10T06:42:46Z</time>
      </trkpt>
      <trkpt lat="45.37914" lon="6.15844">
        <ele>1870.3823242188</ele>
        <time>2012-08-10T06:42:52Z</time>
      </trkpt>
      <trkpt lat="45.37907" lon="6.15847">
        <ele>1867.9787597656</ele>
        <time>2012-08-10T06:42:58Z</time>
      </trkpt>
      <trkpt lat="45.37904" lon="6.15848">
        <ele>1866.5368652344</ele>
        <time>2012-08-10T06:43:01Z</time>
      </trkpt>
      <trkpt lat="45.37906" lon="6.15859">
        <ele>1866.0561523438</ele>
        <time>2012-08-10T06:43:08Z</time>
      </trkpt>
      <trkpt lat="45.3791" lon="6.15865">
        <ele>1865.5756835938</ele>
        <time>2012-08-10T06:43:12Z</time>
      </trkpt>
      <trkpt lat="45.37917" lon="6.15874">
        <ele>1864.1335449219</ele>
        <time>2012-08-10T06:43:18Z</time>
      </trkpt>
      <trkpt lat="45.37918" lon="6.15876">
        <ele>1863.6528320312</ele>
        <time>2012-08-10T06:43:19Z</time>
      </trkpt>
      <trkpt lat="45.37924" lon="6.15884">
        <ele>1864.1335449219</ele>
        <time>2012-08-10T06:43:25Z</time>
      </trkpt>
      <trkpt lat="45.37931" lon="6.15884">
        <ele>1864.1335449219</ele>
        <time>2012-08-10T06:43:30Z</time>
      </trkpt>
      <trkpt lat="45.37935" lon="6.15888">
        <ele>1864.1335449219</ele>
        <time>2012-08-10T06:43:34Z</time>
      </trkpt>
      <trkpt lat="45.37943" lon="6.15895">
        <ele>1861.73046875</ele>
        <time>2012-08-10T06:43:41Z</time>
      </trkpt>
      <trkpt lat="45.37946" lon="6.15897">
        <ele>1861.2497558594</ele>
        <time>2012-08-10T06:43:43Z</time>
      </trkpt>
      <trkpt lat="45.37954" lon="6.15909">
        <ele>1859.3271484375</ele>
        <time>2012-08-10T06:43:51Z</time>
      </trkpt>
      <trkpt lat="45.37958" lon="6.15913">
        <ele>1858.8464355469</ele>
        <time>2012-08-10T06:43:55Z</time>
      </trkpt>
      <trkpt lat="45.37967" lon="6.15923">
        <ele>1855.9624023438</ele>
        <time>2012-08-10T06:44:03Z</time>
      </trkpt>
      <trkpt lat="45.37974" lon="6.15929">
        <ele>1853.5593261719</ele>
        <time>2012-08-10T06:44:09Z</time>
      </trkpt>
      <trkpt lat="45.37979" lon="6.15934">
        <ele>1851.6364746094</ele>
        <time>2012-08-10T06:44:14Z</time>
      </trkpt>
      <trkpt lat="45.37985" lon="6.15941">
        <ele>1848.7524414062</ele>
        <time>2012-08-10T06:44:22Z</time>
      </trkpt>
      <trkpt lat="45.37989" lon="6.15946">
        <ele>1846.8298339844</ele>
        <time>2012-08-10T06:44:28Z</time>
      </trkpt>
      <trkpt lat="45.37991" lon="6.15948">
        <ele>1845.3879394531</ele>
        <time>2012-08-10T06:44:30Z</time>
      </trkpt>
      <trkpt lat="45.37997" lon="6.15956">
        <ele>1842.9846191406</ele>
        <time>2012-08-10T06:44:38Z</time>
      </trkpt>
      <trkpt lat="45.37998" lon="6.15958">
        <ele>1842.5041503906</ele>
        <time>2012-08-10T06:44:40Z</time>
      </trkpt>
      <trkpt lat="45.37999" lon="6.15964">
        <ele>1841.0620117188</ele>
        <time>2012-08-10T06:44:46Z</time>
      </trkpt>
      <trkpt lat="45.38002" lon="6.15969">
        <ele>1838.6589355469</ele>
        <time>2012-08-10T06:44:52Z</time>
      </trkpt>
      <trkpt lat="45.38005" lon="6.15973">
        <ele>1836.7360839844</ele>
        <time>2012-08-10T06:44:59Z</time>
      </trkpt>
      <trkpt lat="45.38008" lon="6.1598">
        <ele>1834.3327636719</ele>
        <time>2012-08-10T06:45:06Z</time>
      </trkpt>
      <trkpt lat="45.38008" lon="6.15984">
        <ele>1833.3713378906</ele>
        <time>2012-08-10T06:45:10Z</time>
      </trkpt>
      <trkpt lat="45.38012" lon="6.15987">
        <ele>1831.9294433594</ele>
        <time>2012-08-10T06:45:15Z</time>
      </trkpt>
      <trkpt lat="45.38013" lon="6.15992">
        <ele>1830.4875488281</ele>
        <time>2012-08-10T06:45:20Z</time>
      </trkpt>
      <trkpt lat="45.38014" lon="6.15993">
        <ele>1829.0454101562</ele>
        <time>2012-08-10T06:45:24Z</time>
      </trkpt>
      <trkpt lat="45.38016" lon="6.15999">
        <ele>1827.123046875</ele>
        <time>2012-08-10T06:45:28Z</time>
      </trkpt>
      <trkpt lat="45.38015" lon="6.16004">
        <ele>1825.2001953125</ele>
        <time>2012-08-10T06:45:33Z</time>
      </trkpt>
      <trkpt lat="45.38018" lon="6.16009">
        <ele>1823.2778320312</ele>
        <time>2012-08-10T06:45:39Z</time>
      </trkpt>
      <trkpt lat="45.38018" lon="6.16012">
        <ele>1821.8356933594</ele>
        <time>2012-08-10T06:45:43Z</time>
      </trkpt>
      <trkpt lat="45.38022" lon="6.16019">
        <ele>1819.4323730469</ele>
        <time>2012-08-10T06:45:49Z</time>
      </trkpt>
      <trkpt lat="45.3802" lon="6.16023">
        <ele>1817.990234375</ele>
        <time>2012-08-10T06:45:53Z</time>
      </trkpt>
      <trkpt lat="45.38021" lon="6.16026">
        <ele>1817.5095214844</ele>
        <time>2012-08-10T06:45:55Z</time>
      </trkpt>
      <trkpt lat="45.38017" lon="6.16035">
        <ele>1815.1064453125</ele>
        <time>2012-08-10T06:46:01Z</time>
      </trkpt>
      <trkpt lat="45.38012" lon="6.1604">
        <ele>1812.703125</ele>
        <time>2012-08-10T06:46:07Z</time>
      </trkpt>
      <trkpt lat="45.38009" lon="6.16043">
        <ele>1810.2998046875</ele>
        <time>2012-08-10T06:46:12Z</time>
      </trkpt>
      <trkpt lat="45.3801" lon="6.1605">
        <ele>1809.8190917969</ele>
        <time>2012-08-10T06:46:16Z</time>
      </trkpt>
      <trkpt lat="45.38011" lon="6.1606">
        <ele>1808.8579101562</ele>
        <time>2012-08-10T06:46:22Z</time>
      </trkpt>
      <trkpt lat="45.38011" lon="6.16066">
        <ele>1809.3386230469</ele>
        <time>2012-08-10T06:46:26Z</time>
      </trkpt>
      <trkpt lat="45.38013" lon="6.16074">
        <ele>1809.8190917969</ele>
        <time>2012-08-10T06:46:33Z</time>
      </trkpt>
      <trkpt lat="45.38015" lon="6.1608">
        <ele>1809.3386230469</ele>
        <time>2012-08-10T06:46:37Z</time>
      </trkpt>
      <trkpt lat="45.3802" lon="6.16086">
        <ele>1809.3386230469</ele>
        <time>2012-08-10T06:46:42Z</time>
      </trkpt>
      <trkpt lat="45.38022" lon="6.16091">
        <ele>1809.3386230469</ele>
        <time>2012-08-10T06:46:47Z</time>
      </trkpt>
      <trkpt lat="45.38024" lon="6.16094">
        <ele>1810.2998046875</ele>
        <time>2012-08-10T06:46:57Z</time>
      </trkpt>
      <trkpt lat="45.38025" lon="6.16097">
        <ele>1810.2998046875</ele>
        <time>2012-08-10T06:47:02Z</time>
      </trkpt>
      <trkpt lat="45.3803" lon="6.16106">
        <ele>1809.8190917969</ele>
        <time>2012-08-10T06:47:09Z</time>
      </trkpt>
      <trkpt lat="45.38034" lon="6.16113">
        <ele>1809.3386230469</ele>
        <time>2012-08-10T06:47:16Z</time>
      </trkpt>
      <trkpt lat="45.38031" lon="6.16108">
        <ele>1808.8579101562</ele>
        <time>2012-08-10T06:47:26Z</time>
      </trkpt>
      <trkpt lat="45.38026" lon="6.161">
        <ele>1809.8190917969</ele>
        <time>2012-08-10T06:47:33Z</time>
      </trkpt>
      <trkpt lat="45.38023" lon="6.16095">
        <ele>1810.2998046875</ele>
        <time>2012-08-10T06:47:41Z</time>
      </trkpt>
      <trkpt lat="45.38021" lon="6.16092">
        <ele>1810.7805175781</ele>
        <time>2012-08-10T06:47:46Z</time>
      </trkpt>
      <trkpt lat="45.3802" lon="6.16091">
        <ele>1812.703125</ele>
        <time>2012-08-10T06:47:57Z</time>
      </trkpt>
      <trkpt lat="45.38021" lon="6.16093">
        <ele>1812.2224121094</ele>
        <time>2012-08-10T06:48:10Z</time>
      </trkpt>
      <trkpt lat="45.38022" lon="6.16094">
        <ele>1812.2224121094</ele>
        <time>2012-08-10T06:48:17Z</time>
      </trkpt>
      <trkpt lat="45.38023" lon="6.16093">
        <ele>1808.8579101562</ele>
        <time>2012-08-10T06:48:23Z</time>
      </trkpt>
      <trkpt lat="45.3802" lon="6.16097">
        <ele>1812.2224121094</ele>
        <time>2012-08-10T06:48:37Z</time>
      </trkpt>
      <trkpt lat="45.3802" lon="6.16095">
        <ele>1809.3386230469</ele>
        <time>2012-08-10T06:48:44Z</time>
      </trkpt>
      <trkpt lat="45.38019" lon="6.16093">
        <ele>1806.4545898438</ele>
        <time>2012-08-10T06:48:51Z</time>
      </trkpt>
      <trkpt lat="45.3802" lon="6.16093">
        <ele>1806.9353027344</ele>
        <time>2012-08-10T06:49:02Z</time>
      </trkpt>
      <trkpt lat="45.38021" lon="6.16092">
        <ele>1806.4545898438</ele>
        <time>2012-08-10T06:49:08Z</time>
      </trkpt>
      <trkpt lat="45.38023" lon="6.16093">
        <ele>1807.416015625</ele>
        <time>2012-08-10T06:49:15Z</time>
      </trkpt>
      <trkpt lat="45.38022" lon="6.16094">
        <ele>1808.3771972656</ele>
        <time>2012-08-10T06:49:29Z</time>
      </trkpt>
      <trkpt lat="45.38021" lon="6.16097">
        <ele>1807.416015625</ele>
        <time>2012-08-10T06:49:39Z</time>
      </trkpt>
      <trkpt lat="45.38021" lon="6.16099">
        <ele>1807.416015625</ele>
        <time>2012-08-10T06:49:44Z</time>
      </trkpt>
      <trkpt lat="45.3802" lon="6.16101">
        <ele>1807.416015625</ele>
        <time>2012-08-10T06:49:50Z</time>
      </trkpt>
      <trkpt lat="45.38021" lon="6.16102">
        <ele>1805.0126953125</ele>
        <time>2012-08-10T06:50:05Z</time>
      </trkpt>
      <trkpt lat="45.3802" lon="6.16109">
        <ele>1803.08984375</ele>
        <time>2012-08-10T06:50:11Z</time>
      </trkpt>
      <trkpt lat="45.38021" lon="6.16118">
        <ele>1802.1284179688</ele>
        <time>2012-08-10T06:50:17Z</time>
      </trkpt>
      <trkpt lat="45.3802" lon="6.16124">
        <ele>1800.2060546875</ele>
        <time>2012-08-10T06:50:22Z</time>
      </trkpt>
      <trkpt lat="45.38017" lon="6.16132">
        <ele>1798.7639160156</ele>
        <time>2012-08-10T06:50:28Z</time>
      </trkpt>
      <trkpt lat="45.38014" lon="6.16137">
        <ele>1796.8413085938</ele>
        <time>2012-08-10T06:50:33Z</time>
      </trkpt>
      <trkpt lat="45.38009" lon="6.16138">
        <ele>1794.4379882812</ele>
        <time>2012-08-10T06:50:39Z</time>
      </trkpt>
      <trkpt lat="45.38002" lon="6.16141">
        <ele>1792.515625</ele>
        <time>2012-08-10T06:50:45Z</time>
      </trkpt>
      <trkpt lat="45.37997" lon="6.16143">
        <ele>1791.5541992188</ele>
        <time>2012-08-10T06:50:50Z</time>
      </trkpt>
      <trkpt lat="45.37992" lon="6.16147">
        <ele>1790.1123046875</ele>
        <time>2012-08-10T06:50:55Z</time>
      </trkpt>
      <trkpt lat="45.37989" lon="6.16148">
        <ele>1787.7087402344</ele>
        <time>2012-08-10T06:51:00Z</time>
      </trkpt>
      <trkpt lat="45.37987" lon="6.16154">
        <ele>1786.7473144531</ele>
        <time>2012-08-10T06:51:05Z</time>
      </trkpt>
      <trkpt lat="45.37989" lon="6.16157">
        <ele>1786.7473144531</ele>
        <time>2012-08-10T06:51:07Z</time>
      </trkpt>
      <trkpt lat="45.37992" lon="6.16164">
        <ele>1785.3054199219</ele>
        <time>2012-08-10T06:51:13Z</time>
      </trkpt>
      <trkpt lat="45.37992" lon="6.16167">
        <ele>1784.8249511719</ele>
        <time>2012-08-10T06:51:15Z</time>
      </trkpt>
      <trkpt lat="45.37983" lon="6.16169">
        <ele>1782.9020996094</ele>
        <time>2012-08-10T06:51:23Z</time>
      </trkpt>
      <trkpt lat="45.3798" lon="6.1617">
        <ele>1781.9409179688</ele>
        <time>2012-08-10T06:51:27Z</time>
      </trkpt>
      <trkpt lat="45.37979" lon="6.16173">
        <ele>1780.9797363281</ele>
        <time>2012-08-10T06:51:29Z</time>
      </trkpt>
      <trkpt lat="45.37976" lon="6.16179">
        <ele>1779.0568847656</ele>
        <time>2012-08-10T06:51:36Z</time>
      </trkpt>
      <trkpt lat="45.37977" lon="6.16186">
        <ele>1778.095703125</ele>
        <time>2012-08-10T06:51:41Z</time>
      </trkpt>
      <trkpt lat="45.37976" lon="6.16193">
        <ele>1776.1730957031</ele>
        <time>2012-08-10T06:51:48Z</time>
      </trkpt>
      <trkpt lat="45.37978" lon="6.162">
        <ele>1774.7312011719</ele>
        <time>2012-08-10T06:51:54Z</time>
      </trkpt>
      <trkpt lat="45.37977" lon="6.16203">
        <ele>1773.2893066406</ele>
        <time>2012-08-10T06:52:01Z</time>
      </trkpt>
      <trkpt lat="45.37976" lon="6.16207">
        <ele>1772.80859375</ele>
        <time>2012-08-10T06:52:06Z</time>
      </trkpt>
      <trkpt lat="45.37972" lon="6.16206">
        <ele>1773.7697753906</ele>
        <time>2012-08-10T06:52:12Z</time>
      </trkpt>
      <trkpt lat="45.37968" lon="6.16208">
        <ele>1774.2504882812</ele>
        <time>2012-08-10T06:52:19Z</time>
      </trkpt>
      <trkpt lat="45.37964" lon="6.16213">
        <ele>1774.2504882812</ele>
        <time>2012-08-10T06:52:25Z</time>
      </trkpt>
      <trkpt lat="45.37961" lon="6.1622">
        <ele>1773.7697753906</ele>
        <time>2012-08-10T06:52:33Z</time>
      </trkpt>
      <trkpt lat="45.37959" lon="6.16226">
        <ele>1772.80859375</ele>
        <time>2012-08-10T06:52:39Z</time>
      </trkpt>
      <trkpt lat="45.37957" lon="6.16235">
        <ele>1772.3278808594</ele>
        <time>2012-08-10T06:52:45Z</time>
      </trkpt>
      <trkpt lat="45.37954" lon="6.16241">
        <ele>1772.3278808594</ele>
        <time>2012-08-10T06:52:49Z</time>
      </trkpt>
      <trkpt lat="45.37951" lon="6.1625">
        <ele>1771.8469238281</ele>
        <time>2012-08-10T06:52:55Z</time>
      </trkpt>
      <trkpt lat="45.3795" lon="6.16255">
        <ele>1771.8469238281</ele>
        <time>2012-08-10T06:52:58Z</time>
      </trkpt>
      <trkpt lat="45.37947" lon="6.16264">
        <ele>1771.8469238281</ele>
        <time>2012-08-10T06:53:05Z</time>
      </trkpt>
      <trkpt lat="45.37946" lon="6.1627">
        <ele>1770.8857421875</ele>
        <time>2012-08-10T06:53:12Z</time>
      </trkpt>
      <trkpt lat="45.37946" lon="6.16276">
        <ele>1770.4050292969</ele>
        <time>2012-08-10T06:53:20Z</time>
      </trkpt>
      <trkpt lat="45.37944" lon="6.16281">
        <ele>1770.4050292969</ele>
        <time>2012-08-10T06:53:25Z</time>
      </trkpt>
      <trkpt lat="45.37945" lon="6.1628">
        <ele>1769.9243164062</ele>
        <time>2012-08-10T06:53:32Z</time>
      </trkpt>
      <trkpt lat="45.37947" lon="6.16283">
        <ele>1768.482421875</ele>
        <time>2012-08-10T06:53:39Z</time>
      </trkpt>
      <trkpt lat="45.37953" lon="6.16282">
        <ele>1767.0405273438</ele>
        <time>2012-08-10T06:53:47Z</time>
      </trkpt>
      <trkpt lat="45.37957" lon="6.16283">
        <ele>1765.5986328125</ele>
        <time>2012-08-10T06:53:53Z</time>
      </trkpt>
      <trkpt lat="45.37962" lon="6.16283">
        <ele>1765.1179199219</ele>
        <time>2012-08-10T06:53:58Z</time>
      </trkpt>
      <trkpt lat="45.37967" lon="6.16283">
        <ele>1763.67578125</ele>
        <time>2012-08-10T06:54:03Z</time>
      </trkpt>
      <trkpt lat="45.37968" lon="6.16284">
        <ele>1763.67578125</ele>
        <time>2012-08-10T06:54:04Z</time>
      </trkpt>
      <trkpt lat="45.37973" lon="6.16285">
        <ele>1761.7534179688</ele>
        <time>2012-08-10T06:54:09Z</time>
      </trkpt>
      <trkpt lat="45.37978" lon="6.16279">
        <ele>1761.7534179688</ele>
        <time>2012-08-10T06:54:16Z</time>
      </trkpt>
      <trkpt lat="45.37983" lon="6.16276">
        <ele>1761.7534179688</ele>
        <time>2012-08-10T06:54:21Z</time>
      </trkpt>
      <trkpt lat="45.37985" lon="6.16276">
        <ele>1761.2727050781</ele>
        <time>2012-08-10T06:54:24Z</time>
      </trkpt>
      <trkpt lat="45.37987" lon="6.16278">
        <ele>1761.2727050781</ele>
        <time>2012-08-10T06:54:26Z</time>
      </trkpt>
      <trkpt lat="45.37994" lon="6.16281">
        <ele>1761.7534179688</ele>
        <time>2012-08-10T06:54:33Z</time>
      </trkpt>
      <trkpt lat="45.37995" lon="6.16292">
        <ele>1760.3112792969</ele>
        <time>2012-08-10T06:54:40Z</time>
      </trkpt>
      <trkpt lat="45.37997" lon="6.163">
        <ele>1758.388671875</ele>
        <time>2012-08-10T06:54:45Z</time>
      </trkpt>
      <trkpt lat="45.38" lon="6.16311">
        <ele>1756.9467773438</ele>
        <time>2012-08-10T06:54:52Z</time>
      </trkpt>
      <trkpt lat="45.38002" lon="6.16315">
        <ele>1756.9467773438</ele>
        <time>2012-08-10T06:54:54Z</time>
      </trkpt>
      <trkpt lat="45.38005" lon="6.16322">
        <ele>1755.5046386719</ele>
        <time>2012-08-10T06:54:59Z</time>
      </trkpt>
      <trkpt lat="45.38008" lon="6.16327">
        <ele>1753.58203125</ele>
        <time>2012-08-10T06:55:06Z</time>
      </trkpt>
      <trkpt lat="45.38006" lon="6.16328">
        <ele>1752.6206054688</ele>
        <time>2012-08-10T06:55:15Z</time>
      </trkpt>
      <trkpt lat="45.38003" lon="6.16335">
        <ele>1751.1787109375</ele>
        <time>2012-08-10T06:55:22Z</time>
      </trkpt>
      <trkpt lat="45.38001" lon="6.16338">
        <ele>1750.2175292969</ele>
        <time>2012-08-10T06:55:27Z</time>
      </trkpt>
      <trkpt lat="45.37998" lon="6.16341">
        <ele>1749.7368164062</ele>
        <time>2012-08-10T06:55:32Z</time>
      </trkpt>
      <trkpt lat="45.37994" lon="6.16346">
        <ele>1749.7368164062</ele>
        <time>2012-08-10T06:55:37Z</time>
      </trkpt>
      <trkpt lat="45.37989" lon="6.1635">
        <ele>1751.1787109375</ele>
        <time>2012-08-10T06:55:44Z</time>
      </trkpt>
      <trkpt lat="45.37986" lon="6.16357">
        <ele>1752.1398925781</ele>
        <time>2012-08-10T06:55:50Z</time>
      </trkpt>
      <trkpt lat="45.37985" lon="6.1636">
        <ele>1752.1398925781</ele>
        <time>2012-08-10T06:55:52Z</time>
      </trkpt>
      <trkpt lat="45.37984" lon="6.16374">
        <ele>1751.1787109375</ele>
        <time>2012-08-10T06:56:01Z</time>
      </trkpt>
      <trkpt lat="45.37984" lon="6.16384">
        <ele>1750.6979980469</ele>
        <time>2012-08-10T06:56:07Z</time>
      </trkpt>
      <trkpt lat="45.37985" lon="6.16394">
        <ele>1749.2561035156</ele>
        <time>2012-08-10T06:56:13Z</time>
      </trkpt>
      <trkpt lat="45.37987" lon="6.16404">
        <ele>1747.8142089844</ele>
        <time>2012-08-10T06:56:19Z</time>
      </trkpt>
      <trkpt lat="45.37986" lon="6.16409">
        <ele>1746.8527832031</ele>
        <time>2012-08-10T06:56:22Z</time>
      </trkpt>
      <trkpt lat="45.3799" lon="6.1642">
        <ele>1744.9301757812</ele>
        <time>2012-08-10T06:56:30Z</time>
      </trkpt>
      <trkpt lat="45.37991" lon="6.16429">
        <ele>1743.48828125</ele>
        <time>2012-08-10T06:56:36Z</time>
      </trkpt>
      <trkpt lat="45.37991" lon="6.16437">
        <ele>1742.5270996094</ele>
        <time>2012-08-10T06:56:42Z</time>
      </trkpt>
      <trkpt lat="45.37991" lon="6.16447">
        <ele>1740.6042480469</ele>
        <time>2012-08-10T06:56:49Z</time>
      </trkpt>
      <trkpt lat="45.37991" lon="6.16448">
        <ele>1740.6042480469</ele>
        <time>2012-08-10T06:56:50Z</time>
      </trkpt>
      <trkpt lat="45.37991" lon="6.16455">
        <ele>1740.1237792969</ele>
        <time>2012-08-10T06:56:54Z</time>
      </trkpt>
      <trkpt lat="45.37989" lon="6.1647">
        <ele>1739.162109375</ele>
        <time>2012-08-10T06:57:03Z</time>
      </trkpt>
      <trkpt lat="45.37987" lon="6.1648">
        <ele>1737.7202148438</ele>
        <time>2012-08-10T06:57:09Z</time>
      </trkpt>
      <trkpt lat="45.37985" lon="6.16484">
        <ele>1737.7202148438</ele>
        <time>2012-08-10T06:57:12Z</time>
      </trkpt>
      <trkpt lat="45.37984" lon="6.16487">
        <ele>1737.2395019531</ele>
        <time>2012-08-10T06:57:14Z</time>
      </trkpt>
      <trkpt lat="45.37979" lon="6.165">
        <ele>1737.2395019531</ele>
        <time>2012-08-10T06:57:22Z</time>
      </trkpt>
      <trkpt lat="45.37976" lon="6.16506">
        <ele>1736.2783203125</ele>
        <time>2012-08-10T06:57:27Z</time>
      </trkpt>
      <trkpt lat="45.3797" lon="6.16511">
        <ele>1734.8364257812</ele>
        <time>2012-08-10T06:57:32Z</time>
      </trkpt>
      <trkpt lat="45.37962" lon="6.16517">
        <ele>1732.9135742188</ele>
        <time>2012-08-10T06:57:39Z</time>
      </trkpt>
      <trkpt lat="45.37961" lon="6.16518">
        <ele>1732.9135742188</ele>
        <time>2012-08-10T06:57:41Z</time>
      </trkpt>
      <trkpt lat="45.37958" lon="6.16522">
        <ele>1733.3942871094</ele>
        <time>2012-08-10T06:57:45Z</time>
      </trkpt>
      <trkpt lat="45.37953" lon="6.16524">
        <ele>1735.7976074219</ele>
        <time>2012-08-10T06:57:52Z</time>
      </trkpt>
      <trkpt lat="45.3795" lon="6.16528">
        <ele>1735.7976074219</ele>
        <time>2012-08-10T06:57:58Z</time>
      </trkpt>
      <trkpt lat="45.37948" lon="6.16532">
        <ele>1735.7976074219</ele>
        <time>2012-08-10T06:58:03Z</time>
      </trkpt>
      <trkpt lat="45.37947" lon="6.16541">
        <ele>1736.7587890625</ele>
        <time>2012-08-10T06:58:09Z</time>
      </trkpt>
      <trkpt lat="45.37944" lon="6.16547">
        <ele>1737.2395019531</ele>
        <time>2012-08-10T06:58:15Z</time>
      </trkpt>
      <trkpt lat="45.37943" lon="6.1655">
        <ele>1738.2009277344</ele>
        <time>2012-08-10T06:58:19Z</time>
      </trkpt>
      <trkpt lat="45.3794" lon="6.16552">
        <ele>1737.2395019531</ele>
        <time>2012-08-10T06:58:22Z</time>
      </trkpt>
      <trkpt lat="45.37938" lon="6.16554">
        <ele>1735.7976074219</ele>
        <time>2012-08-10T06:58:27Z</time>
      </trkpt>
      <trkpt lat="45.37937" lon="6.16558">
        <ele>1735.7976074219</ele>
        <time>2012-08-10T06:58:32Z</time>
      </trkpt>
      <trkpt lat="45.37936" lon="6.16563">
        <ele>1737.2395019531</ele>
        <time>2012-08-10T06:58:38Z</time>
      </trkpt>
      <trkpt lat="45.37935" lon="6.16567">
        <ele>1738.2009277344</ele>
        <time>2012-08-10T06:58:44Z</time>
      </trkpt>
      <trkpt lat="45.37934" lon="6.16572">
        <ele>1739.6428222656</ele>
        <time>2012-08-10T06:58:51Z</time>
      </trkpt>
      <trkpt lat="45.37933" lon="6.16578">
        <ele>1741.0849609375</ele>
        <time>2012-08-10T06:58:59Z</time>
      </trkpt>
      <trkpt lat="45.37932" lon="6.16582">
        <ele>1741.5656738281</ele>
        <time>2012-08-10T06:59:04Z</time>
      </trkpt>
      <trkpt lat="45.3793" lon="6.16587">
        <ele>1743.0075683594</ele>
        <time>2012-08-10T06:59:11Z</time>
      </trkpt>
      <trkpt lat="45.37931" lon="6.16591">
        <ele>1744.4494628906</ele>
        <time>2012-08-10T06:59:17Z</time>
      </trkpt>
      <trkpt lat="45.37931" lon="6.16594">
        <ele>1745.8916015625</ele>
        <time>2012-08-10T06:59:22Z</time>
      </trkpt>
      <trkpt lat="45.3793" lon="6.16598">
        <ele>1746.8527832031</ele>
        <time>2012-08-10T06:59:27Z</time>
      </trkpt>
      <trkpt lat="45.37931" lon="6.16601">
        <ele>1747.8142089844</ele>
        <time>2012-08-10T06:59:31Z</time>
      </trkpt>
      <trkpt lat="45.37928" lon="6.16603">
        <ele>1746.8527832031</ele>
        <time>2012-08-10T06:59:38Z</time>
      </trkpt>
      <trkpt lat="45.37925" lon="6.16601">
        <ele>1746.8527832031</ele>
        <time>2012-08-10T06:59:45Z</time>
      </trkpt>
      <trkpt lat="45.37923" lon="6.16603">
        <ele>1749.7368164062</ele>
        <time>2012-08-10T06:59:52Z</time>
      </trkpt>
      <trkpt lat="45.37922" lon="6.16606">
        <ele>1751.6594238281</ele>
        <time>2012-08-10T07:00:00Z</time>
      </trkpt>
      <trkpt lat="45.3792" lon="6.1661">
        <ele>1752.6206054688</ele>
        <time>2012-08-10T07:00:07Z</time>
      </trkpt>
      <trkpt lat="45.37917" lon="6.16612">
        <ele>1754.0627441406</ele>
        <time>2012-08-10T07:00:12Z</time>
      </trkpt>
      <trkpt lat="45.37914" lon="6.16613">
        <ele>1754.0627441406</ele>
        <time>2012-08-10T07:00:19Z</time>
      </trkpt>
      <trkpt lat="45.37912" lon="6.16617">
        <ele>1755.0239257812</ele>
        <time>2012-08-10T07:00:26Z</time>
      </trkpt>
      <trkpt lat="45.37911" lon="6.16621">
        <ele>1755.5046386719</ele>
        <time>2012-08-10T07:00:31Z</time>
      </trkpt>
      <trkpt lat="45.3791" lon="6.16627">
        <ele>1755.5046386719</ele>
        <time>2012-08-10T07:00:37Z</time>
      </trkpt>
      <trkpt lat="45.3791" lon="6.1663">
        <ele>1757.4274902344</ele>
        <time>2012-08-10T07:00:42Z</time>
      </trkpt>
      <trkpt lat="45.37911" lon="6.16633">
        <ele>1759.8305664062</ele>
        <time>2012-08-10T07:00:49Z</time>
      </trkpt>
      <trkpt lat="45.37911" lon="6.16636">
        <ele>1759.3500976562</ele>
        <time>2012-08-10T07:00:54Z</time>
      </trkpt>
      <trkpt lat="45.3791" lon="6.16639">
        <ele>1758.8693847656</ele>
        <time>2012-08-10T07:01:00Z</time>
      </trkpt>
      <trkpt lat="45.37909" lon="6.16644">
        <ele>1759.3500976562</ele>
        <time>2012-08-10T07:01:07Z</time>
      </trkpt>
      <trkpt lat="45.37906" lon="6.16642">
        <ele>1759.3500976562</ele>
        <time>2012-08-10T07:01:13Z</time>
      </trkpt>
      <trkpt lat="45.37902" lon="6.16641">
        <ele>1759.3500976562</ele>
        <time>2012-08-10T07:01:22Z</time>
      </trkpt>
      <trkpt lat="45.37902" lon="6.16643">
        <ele>1761.2727050781</ele>
        <time>2012-08-10T07:01:27Z</time>
      </trkpt>
      <trkpt lat="45.37902" lon="6.16648">
        <ele>1763.67578125</ele>
        <time>2012-08-10T07:01:34Z</time>
      </trkpt>
      <trkpt lat="45.37903" lon="6.16655">
        <ele>1766.0791015625</ele>
        <time>2012-08-10T07:01:42Z</time>
      </trkpt>
      <trkpt lat="45.37903" lon="6.1666">
        <ele>1767.5209960938</ele>
        <time>2012-08-10T07:01:48Z</time>
      </trkpt>
      <trkpt lat="45.37904" lon="6.16664">
        <ele>1769.4438476562</ele>
        <time>2012-08-10T07:01:55Z</time>
      </trkpt>
      <trkpt lat="45.37906" lon="6.16672">
        <ele>1769.9243164062</ele>
        <time>2012-08-10T07:02:02Z</time>
      </trkpt>
      <trkpt lat="45.37907" lon="6.1668">
        <ele>1771.3662109375</ele>
        <time>2012-08-10T07:02:08Z</time>
      </trkpt>
      <trkpt lat="45.37908" lon="6.16689">
        <ele>1771.8469238281</ele>
        <time>2012-08-10T07:02:14Z</time>
      </trkpt>
      <trkpt lat="45.37907" lon="6.16693">
        <ele>1771.8469238281</ele>
        <time>2012-08-10T07:02:19Z</time>
      </trkpt>
      <trkpt lat="45.37907" lon="6.16699">
        <ele>1772.80859375</ele>
        <time>2012-08-10T07:02:24Z</time>
      </trkpt>
      <trkpt lat="45.37908" lon="6.16705">
        <ele>1774.7312011719</ele>
        <time>2012-08-10T07:02:31Z</time>
      </trkpt>
      <trkpt lat="45.3791" lon="6.16714">
        <ele>1774.2504882812</ele>
        <time>2012-08-10T07:02:38Z</time>
      </trkpt>
      <trkpt lat="45.37912" lon="6.1672">
        <ele>1774.7312011719</ele>
        <time>2012-08-10T07:02:43Z</time>
      </trkpt>
      <trkpt lat="45.37914" lon="6.1673">
        <ele>1774.7312011719</ele>
        <time>2012-08-10T07:02:51Z</time>
      </trkpt>
      <trkpt lat="45.37914" lon="6.16735">
        <ele>1776.1730957031</ele>
        <time>2012-08-10T07:02:55Z</time>
      </trkpt>
      <trkpt lat="45.37915" lon="6.16742">
        <ele>1777.6149902344</ele>
        <time>2012-08-10T07:03:01Z</time>
      </trkpt>
      <trkpt lat="45.37915" lon="6.16748">
        <ele>1778.095703125</ele>
        <time>2012-08-10T07:03:07Z</time>
      </trkpt>
      <trkpt lat="45.37915" lon="6.16755">
        <ele>1778.095703125</ele>
        <time>2012-08-10T07:03:12Z</time>
      </trkpt>
      <trkpt lat="45.37913" lon="6.16759">
        <ele>1779.0568847656</ele>
        <time>2012-08-10T07:03:17Z</time>
      </trkpt>
      <trkpt lat="45.37913" lon="6.16764">
        <ele>1780.0183105469</ele>
        <time>2012-08-10T07:03:23Z</time>
      </trkpt>
      <trkpt lat="45.37915" lon="6.16773">
        <ele>1780.4990234375</ele>
        <time>2012-08-10T07:03:31Z</time>
      </trkpt>
      <trkpt lat="45.37917" lon="6.16779">
        <ele>1781.9409179688</ele>
        <time>2012-08-10T07:03:38Z</time>
      </trkpt>
      <trkpt lat="45.37918" lon="6.16788">
        <ele>1782.9020996094</ele>
        <time>2012-08-10T07:03:45Z</time>
      </trkpt>
      <trkpt lat="45.3792" lon="6.16795">
        <ele>1783.8635253906</ele>
        <time>2012-08-10T07:03:52Z</time>
      </trkpt>
      <trkpt lat="45.37922" lon="6.16802">
        <ele>1783.8635253906</ele>
        <time>2012-08-10T07:03:58Z</time>
      </trkpt>
      <trkpt lat="45.37923" lon="6.1681">
        <ele>1784.3442382812</ele>
        <time>2012-08-10T07:04:04Z</time>
      </trkpt>
      <trkpt lat="45.37926" lon="6.16818">
        <ele>1785.3054199219</ele>
        <time>2012-08-10T07:04:11Z</time>
      </trkpt>
      <trkpt lat="45.37929" lon="6.16825">
        <ele>1785.7861328125</ele>
        <time>2012-08-10T07:04:19Z</time>
      </trkpt>
      <trkpt lat="45.37931" lon="6.16831">
        <ele>1786.2668457031</ele>
        <time>2012-08-10T07:04:25Z</time>
      </trkpt>
      <trkpt lat="45.37934" lon="6.16835">
        <ele>1786.2668457031</ele>
        <time>2012-08-10T07:04:30Z</time>
      </trkpt>
      <trkpt lat="45.37934" lon="6.1684">
        <ele>1787.2280273438</ele>
        <time>2012-08-10T07:04:36Z</time>
      </trkpt>
      <trkpt lat="45.37936" lon="6.16847">
        <ele>1788.1896972656</ele>
        <time>2012-08-10T07:04:43Z</time>
      </trkpt>
      <trkpt lat="45.37937" lon="6.16852">
        <ele>1790.1123046875</ele>
        <time>2012-08-10T07:04:50Z</time>
      </trkpt>
      <trkpt lat="45.37938" lon="6.16854">
        <ele>1789.1508789062</ele>
        <time>2012-08-10T07:04:58Z</time>
      </trkpt>
      <trkpt lat="45.37938" lon="6.16856">
        <ele>1787.7087402344</ele>
        <time>2012-08-10T07:05:03Z</time>
      </trkpt>
      <trkpt lat="45.37939" lon="6.16857">
        <ele>1787.7087402344</ele>
        <time>2012-08-10T07:05:09Z</time>
      </trkpt>
      <trkpt lat="45.37942" lon="6.16861">
        <ele>1786.7473144531</ele>
        <time>2012-08-10T07:05:17Z</time>
      </trkpt>
      <trkpt lat="45.37943" lon="6.16864">
        <ele>1786.7473144531</ele>
        <time>2012-08-10T07:05:23Z</time>
      </trkpt>
      <trkpt lat="45.37945" lon="6.16868">
        <ele>1786.7473144531</ele>
        <time>2012-08-10T07:05:28Z</time>
      </trkpt>
      <trkpt lat="45.37947" lon="6.16875">
        <ele>1787.2280273438</ele>
        <time>2012-08-10T07:05:36Z</time>
      </trkpt>
      <trkpt lat="45.37948" lon="6.16879">
        <ele>1788.1896972656</ele>
        <time>2012-08-10T07:05:42Z</time>
      </trkpt>
      <trkpt lat="45.37947" lon="6.1688">
        <ele>1789.6315917969</ele>
        <time>2012-08-10T07:05:47Z</time>
      </trkpt>
      <trkpt lat="45.37947" lon="6.16883">
        <ele>1789.1508789062</ele>
        <time>2012-08-10T07:05:55Z</time>
      </trkpt>
      <trkpt lat="45.37948" lon="6.16885">
        <ele>1788.6704101562</ele>
        <time>2012-08-10T07:06:02Z</time>
      </trkpt>
      <trkpt lat="45.37949" lon="6.16886">
        <ele>1789.1508789062</ele>
        <time>2012-08-10T07:06:08Z</time>
      </trkpt>
      <trkpt lat="45.37951" lon="6.16887">
        <ele>1788.1896972656</ele>
        <time>2012-08-10T07:06:14Z</time>
      </trkpt>
      <trkpt lat="45.37953" lon="6.1689">
        <ele>1786.7473144531</ele>
        <time>2012-08-10T07:06:21Z</time>
      </trkpt>
      <trkpt lat="45.37955" lon="6.16894">
        <ele>1785.7861328125</ele>
        <time>2012-08-10T07:06:28Z</time>
      </trkpt>
      <trkpt lat="45.37958" lon="6.16898">
        <ele>1783.3828125</ele>
        <time>2012-08-10T07:06:34Z</time>
      </trkpt>
      <trkpt lat="45.37959" lon="6.16902">
        <ele>1782.9020996094</ele>
        <time>2012-08-10T07:06:39Z</time>
      </trkpt>
      <trkpt lat="45.3796" lon="6.16907">
        <ele>1782.4216308594</ele>
        <time>2012-08-10T07:06:44Z</time>
      </trkpt>
      <trkpt lat="45.3796" lon="6.16911">
        <ele>1780.0183105469</ele>
        <time>2012-08-10T07:06:50Z</time>
      </trkpt>
      <trkpt lat="45.37963" lon="6.16912">
        <ele>1778.5764160156</ele>
        <time>2012-08-10T07:06:56Z</time>
      </trkpt>
      <trkpt lat="45.37966" lon="6.16915">
        <ele>1777.6149902344</ele>
        <time>2012-08-10T07:07:02Z</time>
      </trkpt>
      <trkpt lat="45.3797" lon="6.16917">
        <ele>1776.6538085938</ele>
        <time>2012-08-10T07:07:09Z</time>
      </trkpt>
      <trkpt lat="45.37972" lon="6.16921">
        <ele>1776.1730957031</ele>
        <time>2012-08-10T07:07:15Z</time>
      </trkpt>
      <trkpt lat="45.37975" lon="6.16929">
        <ele>1774.2504882812</ele>
        <time>2012-08-10T07:07:22Z</time>
      </trkpt>
      <trkpt lat="45.37977" lon="6.16935">
        <ele>1773.7697753906</ele>
        <time>2012-08-10T07:07:27Z</time>
      </trkpt>
      <trkpt lat="45.37981" lon="6.16938">
        <ele>1775.6923828125</ele>
        <time>2012-08-10T07:07:31Z</time>
      </trkpt>
      <trkpt lat="45.37984" lon="6.16947">
        <ele>1777.6149902344</ele>
        <time>2012-08-10T07:07:39Z</time>
      </trkpt>
      <trkpt lat="45.37985" lon="6.16952">
        <ele>1778.095703125</ele>
        <time>2012-08-10T07:07:44Z</time>
      </trkpt>
      <trkpt lat="45.37988" lon="6.16956">
        <ele>1779.5375976562</ele>
        <time>2012-08-10T07:07:49Z</time>
      </trkpt>
      <trkpt lat="45.37989" lon="6.16961">
        <ele>1779.5375976562</ele>
        <time>2012-08-10T07:07:56Z</time>
      </trkpt>
      <trkpt lat="45.37991" lon="6.16969">
        <ele>1778.5764160156</ele>
        <time>2012-08-10T07:08:02Z</time>
      </trkpt>
      <trkpt lat="45.37992" lon="6.16975">
        <ele>1777.6149902344</ele>
        <time>2012-08-10T07:08:08Z</time>
      </trkpt>
      <trkpt lat="45.37995" lon="6.16982">
        <ele>1775.6923828125</ele>
        <time>2012-08-10T07:08:14Z</time>
      </trkpt>
      <trkpt lat="45.37998" lon="6.1699">
        <ele>1775.6923828125</ele>
        <time>2012-08-10T07:08:21Z</time>
      </trkpt>
      <trkpt lat="45.38" lon="6.16996">
        <ele>1775.6923828125</ele>
        <time>2012-08-10T07:08:27Z</time>
      </trkpt>
      <trkpt lat="45.38" lon="6.17002">
        <ele>1776.6538085938</ele>
        <time>2012-08-10T07:08:34Z</time>
      </trkpt>
      <trkpt lat="45.38002" lon="6.17008">
        <ele>1777.6149902344</ele>
        <time>2012-08-10T07:08:40Z</time>
      </trkpt>
      <trkpt lat="45.38003" lon="6.17019">
        <ele>1777.6149902344</ele>
        <time>2012-08-10T07:08:47Z</time>
      </trkpt>
      <trkpt lat="45.38002" lon="6.17022">
        <ele>1777.6149902344</ele>
        <time>2012-08-10T07:08:49Z</time>
      </trkpt>
      <trkpt lat="45.38001" lon="6.17026">
        <ele>1776.6538085938</ele>
        <time>2012-08-10T07:08:52Z</time>
      </trkpt>
      <trkpt lat="45.38" lon="6.17035">
        <ele>1775.6923828125</ele>
        <time>2012-08-10T07:09:00Z</time>
      </trkpt>
      <trkpt lat="45.38" lon="6.17036">
        <ele>1776.1730957031</ele>
        <time>2012-08-10T07:09:08Z</time>
      </trkpt>
      <trkpt lat="45.38001" lon="6.17037">
        <ele>1776.6538085938</ele>
        <time>2012-08-10T07:09:14Z</time>
      </trkpt>
      <trkpt lat="45.38" lon="6.17038">
        <ele>1776.6538085938</ele>
        <time>2012-08-10T07:09:35Z</time>
      </trkpt>
      <trkpt lat="45.37999" lon="6.1704">
        <ele>1775.2116699219</ele>
        <time>2012-08-10T07:09:41Z</time>
      </trkpt>
      <trkpt lat="45.38001" lon="6.17043">
        <ele>1774.2504882812</ele>
        <time>2012-08-10T07:09:46Z</time>
      </trkpt>
      <trkpt lat="45.37999" lon="6.17047">
        <ele>1771.8469238281</ele>
        <time>2012-08-10T07:09:52Z</time>
      </trkpt>
      <trkpt lat="45.37994" lon="6.17051">
        <ele>1769.4438476562</ele>
        <time>2012-08-10T07:09:59Z</time>
      </trkpt>
      <trkpt lat="45.37986" lon="6.17054">
        <ele>1766.5598144531</ele>
        <time>2012-08-10T07:10:08Z</time>
      </trkpt>
      <trkpt lat="45.37983" lon="6.17056">
        <ele>1765.1179199219</ele>
        <time>2012-08-10T07:10:13Z</time>
      </trkpt>
      <trkpt lat="45.37978" lon="6.1706">
        <ele>1764.1564941406</ele>
        <time>2012-08-10T07:10:19Z</time>
      </trkpt>
      <trkpt lat="45.37974" lon="6.17064">
        <ele>1762.2338867188</ele>
        <time>2012-08-10T07:10:24Z</time>
      </trkpt>
      <trkpt lat="45.37971" lon="6.17066">
        <ele>1761.7534179688</ele>
        <time>2012-08-10T07:10:27Z</time>
      </trkpt>
      <trkpt lat="45.37965" lon="6.1707">
        <ele>1759.8305664062</ele>
        <time>2012-08-10T07:10:34Z</time>
      </trkpt>
      <trkpt lat="45.37962" lon="6.17075">
        <ele>1755.9851074219</ele>
        <time>2012-08-10T07:10:40Z</time>
      </trkpt>
      <trkpt lat="45.37958" lon="6.17079">
        <ele>1753.1013183594</ele>
        <time>2012-08-10T07:10:45Z</time>
      </trkpt>
      <trkpt lat="45.37952" lon="6.17082">
        <ele>1751.1787109375</ele>
        <time>2012-08-10T07:10:52Z</time>
      </trkpt>
      <trkpt lat="45.37951" lon="6.17083">
        <ele>1751.1787109375</ele>
        <time>2012-08-10T07:10:53Z</time>
      </trkpt>
      <trkpt lat="45.37946" lon="6.17086">
        <ele>1750.6979980469</ele>
        <time>2012-08-10T07:10:57Z</time>
      </trkpt>
      <trkpt lat="45.37945" lon="6.17087">
        <ele>1750.6979980469</ele>
        <time>2012-08-10T07:10:59Z</time>
      </trkpt>
      <trkpt lat="45.37939" lon="6.17093">
        <ele>1749.7368164062</ele>
        <time>2012-08-10T07:11:06Z</time>
      </trkpt>
      <trkpt lat="45.37935" lon="6.17102">
        <ele>1749.2561035156</ele>
        <time>2012-08-10T07:11:12Z</time>
      </trkpt>
      <trkpt lat="45.37934" lon="6.17104">
        <ele>1748.775390625</ele>
        <time>2012-08-10T07:11:13Z</time>
      </trkpt>
      <trkpt lat="45.37926" lon="6.17107">
        <ele>1746.8527832031</ele>
        <time>2012-08-10T07:11:21Z</time>
      </trkpt>
      <trkpt lat="45.3792" lon="6.17104">
        <ele>1747.3334960938</ele>
        <time>2012-08-10T07:11:28Z</time>
      </trkpt>
      <trkpt lat="45.37917" lon="6.17104">
        <ele>1746.8527832031</ele>
        <time>2012-08-10T07:11:34Z</time>
      </trkpt>
      <trkpt lat="45.37914" lon="6.17099">
        <ele>1745.8916015625</ele>
        <time>2012-08-10T07:11:39Z</time>
      </trkpt>
      <trkpt lat="45.37912" lon="6.17098">
        <ele>1745.4108886719</ele>
        <time>2012-08-10T07:11:42Z</time>
      </trkpt>
      <trkpt lat="45.37908" lon="6.17092">
        <ele>1744.9301757812</ele>
        <time>2012-08-10T07:11:48Z</time>
      </trkpt>
      <trkpt lat="45.37902" lon="6.17089">
        <ele>1742.5270996094</ele>
        <time>2012-08-10T07:11:54Z</time>
      </trkpt>
      <trkpt lat="45.37901" lon="6.17089">
        <ele>1741.5656738281</ele>
        <time>2012-08-10T07:11:56Z</time>
      </trkpt>
      <trkpt lat="45.37893" lon="6.17087">
        <ele>1740.1237792969</ele>
        <time>2012-08-10T07:12:04Z</time>
      </trkpt>
      <trkpt lat="45.37887" lon="6.17086">
        <ele>1740.6042480469</ele>
        <time>2012-08-10T07:12:11Z</time>
      </trkpt>
      <trkpt lat="45.3788" lon="6.17086">
        <ele>1740.1237792969</ele>
        <time>2012-08-10T07:12:17Z</time>
      </trkpt>
      <trkpt lat="45.37875" lon="6.17084">
        <ele>1740.6042480469</ele>
        <time>2012-08-10T07:12:23Z</time>
      </trkpt>
      <trkpt lat="45.37867" lon="6.1708">
        <ele>1741.5656738281</ele>
        <time>2012-08-10T07:12:31Z</time>
      </trkpt>
      <trkpt lat="45.37861" lon="6.1708">
        <ele>1741.0849609375</ele>
        <time>2012-08-10T07:12:38Z</time>
      </trkpt>
      <trkpt lat="45.37855" lon="6.17081">
        <ele>1742.5270996094</ele>
        <time>2012-08-10T07:12:45Z</time>
      </trkpt>
      <trkpt lat="45.37851" lon="6.17084">
        <ele>1741.5656738281</ele>
        <time>2012-08-10T07:12:51Z</time>
      </trkpt>
      <trkpt lat="45.3785" lon="6.1709">
        <ele>1740.1237792969</ele>
        <time>2012-08-10T07:12:58Z</time>
      </trkpt>
      <trkpt lat="45.37849" lon="6.17095">
        <ele>1738.2009277344</ele>
        <time>2012-08-10T07:13:03Z</time>
      </trkpt>
      <trkpt lat="45.37844" lon="6.171">
        <ele>1736.2783203125</ele>
        <time>2012-08-10T07:13:10Z</time>
      </trkpt>
      <trkpt lat="45.37841" lon="6.17104">
        <ele>1735.3168945312</ele>
        <time>2012-08-10T07:13:14Z</time>
      </trkpt>
      <trkpt lat="45.37837" lon="6.17106">
        <ele>1734.8364257812</ele>
        <time>2012-08-10T07:13:19Z</time>
      </trkpt>
      <trkpt lat="45.37836" lon="6.17111">
        <ele>1732.9135742188</ele>
        <time>2012-08-10T07:13:24Z</time>
      </trkpt>
      <trkpt lat="45.37831" lon="6.17113">
        <ele>1731.9523925781</ele>
        <time>2012-08-10T07:13:29Z</time>
      </trkpt>
      <trkpt lat="45.37828" lon="6.17115">
        <ele>1730.9912109375</ele>
        <time>2012-08-10T07:13:34Z</time>
      </trkpt>
      <trkpt lat="45.37825" lon="6.17119">
        <ele>1730.0297851562</ele>
        <time>2012-08-10T07:13:39Z</time>
      </trkpt>
      <trkpt lat="45.37821" lon="6.17121">
        <ele>1729.5490722656</ele>
        <time>2012-08-10T07:13:44Z</time>
      </trkpt>
      <trkpt lat="45.37818" lon="6.17126">
        <ele>1729.5490722656</ele>
        <time>2012-08-10T07:13:50Z</time>
      </trkpt>
      <trkpt lat="45.37813" lon="6.1713">
        <ele>1727.6264648438</ele>
        <time>2012-08-10T07:13:56Z</time>
      </trkpt>
      <trkpt lat="45.3781" lon="6.17132">
        <ele>1726.1845703125</ele>
        <time>2012-08-10T07:14:00Z</time>
      </trkpt>
      <trkpt lat="45.37806" lon="6.17132">
        <ele>1725.7038574219</ele>
        <time>2012-08-10T07:14:06Z</time>
      </trkpt>
      <trkpt lat="45.37802" lon="6.17133">
        <ele>1725.2231445312</ele>
        <time>2012-08-10T07:14:11Z</time>
      </trkpt>
      <trkpt lat="45.37796" lon="6.17136">
        <ele>1723.3005371094</ele>
        <time>2012-08-10T07:14:19Z</time>
      </trkpt>
      <trkpt lat="45.37792" lon="6.17135">
        <ele>1722.8198242188</ele>
        <time>2012-08-10T07:14:24Z</time>
      </trkpt>
      <trkpt lat="45.37787" lon="6.17132">
        <ele>1723.3005371094</ele>
        <time>2012-08-10T07:14:30Z</time>
      </trkpt>
      <trkpt lat="45.37782" lon="6.17129">
        <ele>1722.3391113281</ele>
        <time>2012-08-10T07:14:36Z</time>
      </trkpt>
      <trkpt lat="45.37779" lon="6.17127">
        <ele>1722.3391113281</ele>
        <time>2012-08-10T07:14:41Z</time>
      </trkpt>
      <trkpt lat="45.37772" lon="6.17125">
        <ele>1721.8583984375</ele>
        <time>2012-08-10T07:14:50Z</time>
      </trkpt>
      <trkpt lat="45.37769" lon="6.17125">
        <ele>1721.3776855469</ele>
        <time>2012-08-10T07:14:54Z</time>
      </trkpt>
      <trkpt lat="45.37765" lon="6.17123">
        <ele>1721.8583984375</ele>
        <time>2012-08-10T07:14:59Z</time>
      </trkpt>
      <trkpt lat="45.3776" lon="6.17124">
        <ele>1722.8198242188</ele>
        <time>2012-08-10T07:15:06Z</time>
      </trkpt>
      <trkpt lat="45.37759" lon="6.17127">
        <ele>1722.8198242188</ele>
        <time>2012-08-10T07:15:11Z</time>
      </trkpt>
      <trkpt lat="45.3776" lon="6.17129">
        <ele>1721.3776855469</ele>
        <time>2012-08-10T07:15:15Z</time>
      </trkpt>
      <trkpt lat="45.37762" lon="6.17131">
        <ele>1719.9357910156</ele>
        <time>2012-08-10T07:15:19Z</time>
      </trkpt>
      <trkpt lat="45.37766" lon="6.17137">
        <ele>1719.9357910156</ele>
        <time>2012-08-10T07:15:25Z</time>
      </trkpt>
      <trkpt lat="45.37767" lon="6.17143">
        <ele>1717.5324707031</ele>
        <time>2012-08-10T07:15:32Z</time>
      </trkpt>
      <trkpt lat="45.37771" lon="6.17145">
        <ele>1717.5324707031</ele>
        <time>2012-08-10T07:15:37Z</time>
      </trkpt>
      <trkpt lat="45.37774" lon="6.17146">
        <ele>1716.5712890625</ele>
        <time>2012-08-10T07:15:41Z</time>
      </trkpt>
      <trkpt lat="45.37775" lon="6.1715">
        <ele>1715.1293945312</ele>
        <time>2012-08-10T07:15:46Z</time>
      </trkpt>
      <trkpt lat="45.37775" lon="6.17151">
        <ele>1715.1293945312</ele>
        <time>2012-08-10T07:15:53Z</time>
      </trkpt>
      <trkpt lat="45.37772" lon="6.17154">
        <ele>1714.6486816406</ele>
        <time>2012-08-10T07:15:59Z</time>
      </trkpt>
      <trkpt lat="45.37769" lon="6.17153">
        <ele>1715.1293945312</ele>
        <time>2012-08-10T07:16:05Z</time>
      </trkpt>
      <trkpt lat="45.37766" lon="6.17152">
        <ele>1715.1293945312</ele>
        <time>2012-08-10T07:16:11Z</time>
      </trkpt>
      <trkpt lat="45.37763" lon="6.17156">
        <ele>1712.7260742188</ele>
        <time>2012-08-10T07:16:19Z</time>
      </trkpt>
      <trkpt lat="45.37762" lon="6.17158">
        <ele>1712.2453613281</ele>
        <time>2012-08-10T07:16:25Z</time>
      </trkpt>
      <trkpt lat="45.37761" lon="6.17161">
        <ele>1711.2841796875</ele>
        <time>2012-08-10T07:16:34Z</time>
      </trkpt>
      <trkpt lat="45.37756" lon="6.17159">
        <ele>1711.2841796875</ele>
        <time>2012-08-10T07:16:40Z</time>
      </trkpt>
      <trkpt lat="45.37754" lon="6.17158">
        <ele>1711.7648925781</ele>
        <time>2012-08-10T07:16:45Z</time>
      </trkpt>
      <trkpt lat="45.37752" lon="6.17157">
        <ele>1713.2067871094</ele>
        <time>2012-08-10T07:16:50Z</time>
      </trkpt>
      <trkpt lat="45.37748" lon="6.17154">
        <ele>1713.2067871094</ele>
        <time>2012-08-10T07:16:56Z</time>
      </trkpt>
      <trkpt lat="45.37741" lon="6.17153">
        <ele>1714.6486816406</ele>
        <time>2012-08-10T07:17:03Z</time>
      </trkpt>
      <trkpt lat="45.3774" lon="6.17155">
        <ele>1715.6101074219</ele>
        <time>2012-08-10T07:17:08Z</time>
      </trkpt>
      <trkpt lat="45.37735" lon="6.17161">
        <ele>1716.0905761719</ele>
        <time>2012-08-10T07:17:14Z</time>
      </trkpt>
      <trkpt lat="45.37735" lon="6.17162">
        <ele>1716.0905761719</ele>
        <time>2012-08-10T07:17:15Z</time>
      </trkpt>
      <trkpt lat="45.37733" lon="6.17168">
        <ele>1714.6486816406</ele>
        <time>2012-08-10T07:17:20Z</time>
      </trkpt>
      <trkpt lat="45.37732" lon="6.17172">
        <ele>1714.16796875</ele>
        <time>2012-08-10T07:17:22Z</time>
      </trkpt>
      <trkpt lat="45.37733" lon="6.17178">
        <ele>1712.7260742188</ele>
        <time>2012-08-10T07:17:28Z</time>
      </trkpt>
      <trkpt lat="45.37733" lon="6.17184">
        <ele>1710.3227539062</ele>
        <time>2012-08-10T07:17:34Z</time>
      </trkpt>
      <trkpt lat="45.37737" lon="6.17191">
        <ele>1707.4387207031</ele>
        <time>2012-08-10T07:17:40Z</time>
      </trkpt>
      <trkpt lat="45.37735" lon="6.17194">
        <ele>1706.4772949219</ele>
        <time>2012-08-10T07:17:42Z</time>
      </trkpt>
      <trkpt lat="45.37732" lon="6.17195">
        <ele>1704.07421875</ele>
        <time>2012-08-10T07:17:45Z</time>
      </trkpt>
      <trkpt lat="45.37727" lon="6.17198">
        <ele>1701.6708984375</ele>
        <time>2012-08-10T07:17:51Z</time>
      </trkpt>
      <trkpt lat="45.37724" lon="6.17199">
        <ele>1700.2290039062</ele>
        <time>2012-08-10T07:17:56Z</time>
      </trkpt>
      <trkpt lat="45.37719" lon="6.17202">
        <ele>1697.3449707031</ele>
        <time>2012-08-10T07:18:02Z</time>
      </trkpt>
      <trkpt lat="45.37714" lon="6.1721">
        <ele>1695.9030761719</ele>
        <time>2012-08-10T07:18:09Z</time>
      </trkpt>
      <trkpt lat="45.37712" lon="6.17211">
        <ele>1697.3449707031</ele>
        <time>2012-08-10T07:18:13Z</time>
      </trkpt>
      <trkpt lat="45.37706" lon="6.17208">
        <ele>1697.8256835938</ele>
        <time>2012-08-10T07:18:20Z</time>
      </trkpt>
      <trkpt lat="45.37703" lon="6.17211">
        <ele>1698.3061523438</ele>
        <time>2012-08-10T07:18:25Z</time>
      </trkpt>
      <trkpt lat="45.37702" lon="6.17213">
        <ele>1698.3061523438</ele>
        <time>2012-08-10T07:18:26Z</time>
      </trkpt>
      <trkpt lat="45.37698" lon="6.17217">
        <ele>1696.8642578125</ele>
        <time>2012-08-10T07:18:30Z</time>
      </trkpt>
      <trkpt lat="45.37695" lon="6.17223">
        <ele>1694.9416503906</ele>
        <time>2012-08-10T07:18:35Z</time>
      </trkpt>
      <trkpt lat="45.37688" lon="6.17228">
        <ele>1692.0578613281</ele>
        <time>2012-08-10T07:18:43Z</time>
      </trkpt>
      <trkpt lat="45.37686" lon="6.17228">
        <ele>1692.0578613281</ele>
        <time>2012-08-10T07:18:48Z</time>
      </trkpt>
      <trkpt lat="45.37685" lon="6.17229">
        <ele>1692.0578613281</ele>
        <time>2012-08-10T07:18:49Z</time>
      </trkpt>
      <trkpt lat="45.37679" lon="6.17235">
        <ele>1690.6154785156</ele>
        <time>2012-08-10T07:18:56Z</time>
      </trkpt>
      <trkpt lat="45.37677" lon="6.1724">
        <ele>1690.1350097656</ele>
        <time>2012-08-10T07:19:01Z</time>
      </trkpt>
      <trkpt lat="45.37679" lon="6.17241">
        <ele>1690.1350097656</ele>
        <time>2012-08-10T07:19:11Z</time>
      </trkpt>
      <trkpt lat="45.37679" lon="6.17241">
        <ele>1689.654296875</ele>
        <time>2012-08-10T07:19:16Z</time>
      </trkpt>
      <trkpt lat="45.3768" lon="6.17242">
        <ele>1689.1735839844</ele>
        <time>2012-08-10T07:19:29Z</time>
      </trkpt>
      <trkpt lat="45.3768" lon="6.17243">
        <ele>1689.1735839844</ele>
        <time>2012-08-10T07:19:38Z</time>
      </trkpt>
      <trkpt lat="45.37678" lon="6.17242">
        <ele>1689.654296875</ele>
        <time>2012-08-10T07:19:50Z</time>
      </trkpt>
      <trkpt lat="45.37677" lon="6.17246">
        <ele>1689.1735839844</ele>
        <time>2012-08-10T07:19:54Z</time>
      </trkpt>
      <trkpt lat="45.37677" lon="6.17247">
        <ele>1689.1735839844</ele>
        <time>2012-08-10T07:19:59Z</time>
      </trkpt>
      <trkpt lat="45.37678" lon="6.1725">
        <ele>1688.6931152344</ele>
        <time>2012-08-10T07:20:03Z</time>
      </trkpt>
      <trkpt lat="45.37677" lon="6.17255">
        <ele>1687.7316894531</ele>
        <time>2012-08-10T07:20:08Z</time>
      </trkpt>
      <trkpt lat="45.37678" lon="6.17259">
        <ele>1687.7316894531</ele>
        <time>2012-08-10T07:20:11Z</time>
      </trkpt>
      <trkpt lat="45.37675" lon="6.17265">
        <ele>1687.2509765625</ele>
        <time>2012-08-10T07:20:16Z</time>
      </trkpt>
      <trkpt lat="45.37673" lon="6.17269">
        <ele>1686.2897949219</ele>
        <time>2012-08-10T07:20:21Z</time>
      </trkpt>
      <trkpt lat="45.3767" lon="6.17271">
        <ele>1683.8864746094</ele>
        <time>2012-08-10T07:20:26Z</time>
      </trkpt>
      <trkpt lat="45.37666" lon="6.17273">
        <ele>1681.4831542969</ele>
        <time>2012-08-10T07:20:31Z</time>
      </trkpt>
      <trkpt lat="45.37663" lon="6.17278">
        <ele>1679.0798339844</ele>
        <time>2012-08-10T07:20:36Z</time>
      </trkpt>
      <trkpt lat="45.3766" lon="6.17285">
        <ele>1677.6379394531</ele>
        <time>2012-08-10T07:20:43Z</time>
      </trkpt>
      <trkpt lat="45.37659" lon="6.17288">
        <ele>1677.1574707031</ele>
        <time>2012-08-10T07:20:50Z</time>
      </trkpt>
      <trkpt lat="45.37658" lon="6.17294">
        <ele>1680.0412597656</ele>
        <time>2012-08-10T07:20:56Z</time>
      </trkpt>
      <trkpt lat="45.37657" lon="6.17304">
        <ele>1680.0412597656</ele>
        <time>2012-08-10T07:21:03Z</time>
      </trkpt>
      <trkpt lat="45.37656" lon="6.17309">
        <ele>1680.0412597656</ele>
        <time>2012-08-10T07:21:09Z</time>
      </trkpt>
      <trkpt lat="45.37656" lon="6.17315">
        <ele>1680.0412597656</ele>
        <time>2012-08-10T07:21:15Z</time>
      </trkpt>
      <trkpt lat="45.37658" lon="6.17325">
        <ele>1680.0412597656</ele>
        <time>2012-08-10T07:21:22Z</time>
      </trkpt>
      <trkpt lat="45.37659" lon="6.17332">
        <ele>1679.560546875</ele>
        <time>2012-08-10T07:21:28Z</time>
      </trkpt>
      <trkpt lat="45.37661" lon="6.17339">
        <ele>1679.560546875</ele>
        <time>2012-08-10T07:21:33Z</time>
      </trkpt>
      <trkpt lat="45.37663" lon="6.17346">
        <ele>1679.560546875</ele>
        <time>2012-08-10T07:21:39Z</time>
      </trkpt>
      <trkpt lat="45.37667" lon="6.17353">
        <ele>1678.1186523438</ele>
        <time>2012-08-10T07:21:46Z</time>
      </trkpt>
      <trkpt lat="45.37669" lon="6.17359">
        <ele>1676.6767578125</ele>
        <time>2012-08-10T07:21:51Z</time>
      </trkpt>
      <trkpt lat="45.37669" lon="6.17363">
        <ele>1677.1574707031</ele>
        <time>2012-08-10T07:21:55Z</time>
      </trkpt>
      <trkpt lat="45.37673" lon="6.17364">
        <ele>1675.234375</ele>
        <time>2012-08-10T07:22:00Z</time>
      </trkpt>
      <trkpt lat="45.37677" lon="6.17365">
        <ele>1674.2731933594</ele>
        <time>2012-08-10T07:22:04Z</time>
      </trkpt>
      <trkpt lat="45.37681" lon="6.17367">
        <ele>1673.7924804688</ele>
        <time>2012-08-10T07:22:08Z</time>
      </trkpt>
      <trkpt lat="45.37686" lon="6.17369">
        <ele>1671.8698730469</ele>
        <time>2012-08-10T07:22:12Z</time>
      </trkpt>
      <trkpt lat="45.37693" lon="6.17377">
        <ele>1671.8698730469</ele>
        <time>2012-08-10T07:22:19Z</time>
      </trkpt>
      <trkpt lat="45.37696" lon="6.17378">
        <ele>1672.8312988281</ele>
        <time>2012-08-10T07:22:22Z</time>
      </trkpt>
      <trkpt lat="45.37697" lon="6.17379">
        <ele>1672.8312988281</ele>
        <time>2012-08-10T07:22:24Z</time>
      </trkpt>
      <trkpt lat="45.37702" lon="6.17381">
        <ele>1672.3505859375</ele>
        <time>2012-08-10T07:22:29Z</time>
      </trkpt>
      <trkpt lat="45.37703" lon="6.17382">
        <ele>1670.9086914062</ele>
        <time>2012-08-10T07:22:32Z</time>
      </trkpt>
      <trkpt lat="45.3771" lon="6.17386">
        <ele>1668.5053710938</ele>
        <time>2012-08-10T07:22:38Z</time>
      </trkpt>
      <trkpt lat="45.37713" lon="6.17387">
        <ele>1668.9860839844</ele>
        <time>2012-08-10T07:22:40Z</time>
      </trkpt>
      <trkpt lat="45.37718" lon="6.1739">
        <ele>1671.3891601562</ele>
        <time>2012-08-10T07:22:44Z</time>
      </trkpt>
      <trkpt lat="45.3772" lon="6.17395">
        <ele>1671.8698730469</ele>
        <time>2012-08-10T07:22:48Z</time>
      </trkpt>
      <trkpt lat="45.37722" lon="6.174">
        <ele>1673.3120117188</ele>
        <time>2012-08-10T07:22:53Z</time>
      </trkpt>
      <trkpt lat="45.37724" lon="6.17406">
        <ele>1673.7924804688</ele>
        <time>2012-08-10T07:22:58Z</time>
      </trkpt>
      <trkpt lat="45.37728" lon="6.17409">
        <ele>1673.7924804688</ele>
        <time>2012-08-10T07:23:03Z</time>
      </trkpt>
      <trkpt lat="45.37734" lon="6.17413">
        <ele>1673.3120117188</ele>
        <time>2012-08-10T07:23:09Z</time>
      </trkpt>
      <trkpt lat="45.37736" lon="6.17417">
        <ele>1672.3505859375</ele>
        <time>2012-08-10T07:23:13Z</time>
      </trkpt>
      <trkpt lat="45.37737" lon="6.1742">
        <ele>1672.3505859375</ele>
        <time>2012-08-10T07:23:15Z</time>
      </trkpt>
      <trkpt lat="45.37743" lon="6.17431">
        <ele>1671.8698730469</ele>
        <time>2012-08-10T07:23:24Z</time>
      </trkpt>
      <trkpt lat="45.3775" lon="6.17439">
        <ele>1674.2731933594</ele>
        <time>2012-08-10T07:23:31Z</time>
      </trkpt>
      <trkpt lat="45.37755" lon="6.17443">
        <ele>1675.7150878906</ele>
        <time>2012-08-10T07:23:35Z</time>
      </trkpt>
      <trkpt lat="45.3776" lon="6.17447">
        <ele>1676.1960449219</ele>
        <time>2012-08-10T07:23:40Z</time>
      </trkpt>
      <trkpt lat="45.37769" lon="6.17449">
        <ele>1676.1960449219</ele>
        <time>2012-08-10T07:23:47Z</time>
      </trkpt>
      <trkpt lat="45.3777" lon="6.17451">
        <ele>1675.7150878906</ele>
        <time>2012-08-10T07:23:49Z</time>
      </trkpt>
      <trkpt lat="45.37772" lon="6.17455">
        <ele>1673.7924804688</ele>
        <time>2012-08-10T07:23:53Z</time>
      </trkpt>
      <trkpt lat="45.37772" lon="6.17464">
        <ele>1672.3505859375</ele>
        <time>2012-08-10T07:23:59Z</time>
      </trkpt>
      <trkpt lat="45.37772" lon="6.17468">
        <ele>1672.8312988281</ele>
        <time>2012-08-10T07:24:03Z</time>
      </trkpt>
      <trkpt lat="45.37774" lon="6.17473">
        <ele>1673.7924804688</ele>
        <time>2012-08-10T07:24:09Z</time>
      </trkpt>
      <trkpt lat="45.37777" lon="6.17476">
        <ele>1675.234375</ele>
        <time>2012-08-10T07:24:14Z</time>
      </trkpt>
      <trkpt lat="45.37782" lon="6.1748">
        <ele>1676.6767578125</ele>
        <time>2012-08-10T07:24:19Z</time>
      </trkpt>
      <trkpt lat="45.3779" lon="6.17493">
        <ele>1679.0798339844</ele>
        <time>2012-08-10T07:24:29Z</time>
      </trkpt>
      <trkpt lat="45.3779" lon="6.17495">
        <ele>1678.5993652344</ele>
        <time>2012-08-10T07:24:31Z</time>
      </trkpt>
      <trkpt lat="45.37796" lon="6.17503">
        <ele>1677.1574707031</ele>
        <time>2012-08-10T07:24:38Z</time>
      </trkpt>
      <trkpt lat="45.37798" lon="6.1751">
        <ele>1677.1574707031</ele>
        <time>2012-08-10T07:24:42Z</time>
      </trkpt>
      <trkpt lat="45.37796" lon="6.17513">
        <ele>1676.1960449219</ele>
        <time>2012-08-10T07:24:45Z</time>
      </trkpt>
      <trkpt lat="45.37791" lon="6.17515">
        <ele>1673.7924804688</ele>
        <time>2012-08-10T07:24:49Z</time>
      </trkpt>
      <trkpt lat="45.37786" lon="6.17517">
        <ele>1673.3120117188</ele>
        <time>2012-08-10T07:24:53Z</time>
      </trkpt>
      <trkpt lat="45.37783" lon="6.17516">
        <ele>1672.3505859375</ele>
        <time>2012-08-10T07:24:55Z</time>
      </trkpt>
      <trkpt lat="45.3778" lon="6.17518">
        <ele>1672.3505859375</ele>
        <time>2012-08-10T07:24:58Z</time>
      </trkpt>
      <trkpt lat="45.37775" lon="6.17527">
        <ele>1678.1186523438</ele>
        <time>2012-08-10T07:25:03Z</time>
      </trkpt>
      <trkpt lat="45.37773" lon="6.17529">
        <ele>1678.1186523438</ele>
        <time>2012-08-10T07:25:06Z</time>
      </trkpt>
      <trkpt lat="45.3777" lon="6.17535">
        <ele>1677.1574707031</ele>
        <time>2012-08-10T07:25:12Z</time>
      </trkpt>
      <trkpt lat="45.37771" lon="6.17538">
        <ele>1675.7150878906</ele>
        <time>2012-08-10T07:25:17Z</time>
      </trkpt>
      <trkpt lat="45.37774" lon="6.17543">
        <ele>1676.1960449219</ele>
        <time>2012-08-10T07:25:23Z</time>
      </trkpt>
      <trkpt lat="45.3778" lon="6.17553">
        <ele>1676.6767578125</ele>
        <time>2012-08-10T07:25:32Z</time>
      </trkpt>
      <trkpt lat="45.37778" lon="6.17559">
        <ele>1675.7150878906</ele>
        <time>2012-08-10T07:25:38Z</time>
      </trkpt>
      <trkpt lat="45.37778" lon="6.17568">
        <ele>1676.1960449219</ele>
        <time>2012-08-10T07:25:46Z</time>
      </trkpt>
      <trkpt lat="45.37778" lon="6.17575">
        <ele>1678.1186523438</ele>
        <time>2012-08-10T07:25:53Z</time>
      </trkpt>
      <trkpt lat="45.37778" lon="6.17581">
        <ele>1679.0798339844</ele>
        <time>2012-08-10T07:26:00Z</time>
      </trkpt>
      <trkpt lat="45.3778" lon="6.17588">
        <ele>1680.0412597656</ele>
        <time>2012-08-10T07:26:06Z</time>
      </trkpt>
      <trkpt lat="45.37781" lon="6.17595">
        <ele>1679.560546875</ele>
        <time>2012-08-10T07:26:11Z</time>
      </trkpt>
      <trkpt lat="45.37779" lon="6.17605">
        <ele>1680.5219726562</ele>
        <time>2012-08-10T07:26:17Z</time>
      </trkpt>
      <trkpt lat="45.37778" lon="6.17613">
        <ele>1681.4831542969</ele>
        <time>2012-08-10T07:26:22Z</time>
      </trkpt>
      <trkpt lat="45.37778" lon="6.17621">
        <ele>1681.9638671875</ele>
        <time>2012-08-10T07:26:28Z</time>
      </trkpt>
      <trkpt lat="45.37778" lon="6.17634">
        <ele>1680.0412597656</ele>
        <time>2012-08-10T07:26:37Z</time>
      </trkpt>
      <trkpt lat="45.37779" lon="6.17643">
        <ele>1679.560546875</ele>
        <time>2012-08-10T07:26:43Z</time>
      </trkpt>
      <trkpt lat="45.3778" lon="6.17646">
        <ele>1679.560546875</ele>
        <time>2012-08-10T07:26:45Z</time>
      </trkpt>
      <trkpt lat="45.37783" lon="6.17651">
        <ele>1679.560546875</ele>
        <time>2012-08-10T07:26:49Z</time>
      </trkpt>
      <trkpt lat="45.37782" lon="6.17658">
        <ele>1679.560546875</ele>
        <time>2012-08-10T07:26:53Z</time>
      </trkpt>
      <trkpt lat="45.37782" lon="6.17666">
        <ele>1678.1186523438</ele>
        <time>2012-08-10T07:26:58Z</time>
      </trkpt>
      <trkpt lat="45.37782" lon="6.17675">
        <ele>1676.6767578125</ele>
        <time>2012-08-10T07:27:04Z</time>
      </trkpt>
      <trkpt lat="45.37784" lon="6.17682">
        <ele>1676.1960449219</ele>
        <time>2012-08-10T07:27:08Z</time>
      </trkpt>
      <trkpt lat="45.37784" lon="6.17684">
        <ele>1675.7150878906</ele>
        <time>2012-08-10T07:27:09Z</time>
      </trkpt>
      <trkpt lat="45.37783" lon="6.17689">
        <ele>1674.2731933594</ele>
        <time>2012-08-10T07:27:14Z</time>
      </trkpt>
      <trkpt lat="45.37781" lon="6.17692">
        <ele>1674.75390625</ele>
        <time>2012-08-10T07:27:18Z</time>
      </trkpt>
      <trkpt lat="45.3778" lon="6.17698">
        <ele>1673.7924804688</ele>
        <time>2012-08-10T07:27:24Z</time>
      </trkpt>
      <trkpt lat="45.3778" lon="6.17706">
        <ele>1671.3891601562</ele>
        <time>2012-08-10T07:27:30Z</time>
      </trkpt>
      <trkpt lat="45.37779" lon="6.17711">
        <ele>1669.466796875</ele>
        <time>2012-08-10T07:27:35Z</time>
      </trkpt>
      <trkpt lat="45.37779" lon="6.17716">
        <ele>1668.0246582031</ele>
        <time>2012-08-10T07:27:40Z</time>
      </trkpt>
      <trkpt lat="45.37782" lon="6.17717">
        <ele>1666.5827636719</ele>
        <time>2012-08-10T07:27:45Z</time>
      </trkpt>
      <trkpt lat="45.37787" lon="6.17714">
        <ele>1666.5827636719</ele>
        <time>2012-08-10T07:27:51Z</time>
      </trkpt>
      <trkpt lat="45.37792" lon="6.17714">
        <ele>1665.6215820312</ele>
        <time>2012-08-10T07:27:58Z</time>
      </trkpt>
      <trkpt lat="45.37796" lon="6.17717">
        <ele>1663.6987304688</ele>
        <time>2012-08-10T07:28:04Z</time>
      </trkpt>
      <trkpt lat="45.37796" lon="6.17724">
        <ele>1662.7375488281</ele>
        <time>2012-08-10T07:28:08Z</time>
      </trkpt>
      <trkpt lat="45.37798" lon="6.17739">
        <ele>1660.3342285156</ele>
        <time>2012-08-10T07:28:15Z</time>
      </trkpt>
      <trkpt lat="45.37798" lon="6.17742">
        <ele>1659.8532714844</ele>
        <time>2012-08-10T07:28:17Z</time>
      </trkpt>
      <trkpt lat="45.37798" lon="6.17754">
        <ele>1658.4113769531</ele>
        <time>2012-08-10T07:28:23Z</time>
      </trkpt>
      <trkpt lat="45.37799" lon="6.17761">
        <ele>1656.9694824219</ele>
        <time>2012-08-10T07:28:27Z</time>
      </trkpt>
      <trkpt lat="45.378" lon="6.17764">
        <ele>1656.4887695312</ele>
        <time>2012-08-10T07:28:29Z</time>
      </trkpt>
      <trkpt lat="45.37804" lon="6.17776">
        <ele>1655.5275878906</ele>
        <time>2012-08-10T07:28:34Z</time>
      </trkpt>
      <trkpt lat="45.37804" lon="6.17779">
        <ele>1655.5275878906</ele>
        <time>2012-08-10T07:28:36Z</time>
      </trkpt>
      <trkpt lat="45.37804" lon="6.17788">
        <ele>1654.5661621094</ele>
        <time>2012-08-10T07:28:41Z</time>
      </trkpt>
      <trkpt lat="45.37804" lon="6.17794">
        <ele>1654.5661621094</ele>
        <time>2012-08-10T07:28:44Z</time>
      </trkpt>
      <trkpt lat="45.37805" lon="6.17798">
        <ele>1653.6049804688</ele>
        <time>2012-08-10T07:28:47Z</time>
      </trkpt>
      <trkpt lat="45.37807" lon="6.17807">
        <ele>1653.6049804688</ele>
        <time>2012-08-10T07:28:52Z</time>
      </trkpt>
      <trkpt lat="45.37809" lon="6.17812">
        <ele>1652.6435546875</ele>
        <time>2012-08-10T07:28:56Z</time>
      </trkpt>
      <trkpt lat="45.37811" lon="6.17817">
        <ele>1652.1628417969</ele>
        <time>2012-08-10T07:29:00Z</time>
      </trkpt>
      <trkpt lat="45.37809" lon="6.17828">
        <ele>1651.2016601562</ele>
        <time>2012-08-10T07:29:08Z</time>
      </trkpt>
      <trkpt lat="45.37807" lon="6.1783">
        <ele>1649.759765625</ele>
        <time>2012-08-10T07:29:11Z</time>
      </trkpt>
      <trkpt lat="45.37806" lon="6.17834">
        <ele>1649.2790527344</ele>
        <time>2012-08-10T07:29:13Z</time>
      </trkpt>
      <trkpt lat="45.37811" lon="6.17834">
        <ele>1647.3564453125</ele>
        <time>2012-08-10T07:29:17Z</time>
      </trkpt>
      <trkpt lat="45.37812" lon="6.17836">
        <ele>1645.4338378906</ele>
        <time>2012-08-10T07:29:21Z</time>
      </trkpt>
      <trkpt lat="45.37816" lon="6.17835">
        <ele>1642.0690917969</ele>
        <time>2012-08-10T07:29:25Z</time>
      </trkpt>
      <trkpt lat="45.37818" lon="6.17837">
        <ele>1640.146484375</ele>
        <time>2012-08-10T07:29:29Z</time>
      </trkpt>
      <trkpt lat="45.37823" lon="6.17841">
        <ele>1639.6657714844</ele>
        <time>2012-08-10T07:29:34Z</time>
      </trkpt>
      <trkpt lat="45.37824" lon="6.17841">
        <ele>1639.1850585938</ele>
        <time>2012-08-10T07:29:35Z</time>
      </trkpt>
      <trkpt lat="45.37827" lon="6.17843">
        <ele>1638.2238769531</ele>
        <time>2012-08-10T07:29:37Z</time>
      </trkpt>
      <trkpt lat="45.37828" lon="6.1785">
        <ele>1636.3012695312</ele>
        <time>2012-08-10T07:29:41Z</time>
      </trkpt>
      <trkpt lat="45.37828" lon="6.17853">
        <ele>1635.33984375</ele>
        <time>2012-08-10T07:29:43Z</time>
      </trkpt>
      <trkpt lat="45.37827" lon="6.17864">
        <ele>1632.9365234375</ele>
        <time>2012-08-10T07:29:48Z</time>
      </trkpt>
      <trkpt lat="45.37826" lon="6.17875">
        <ele>1630.5334472656</ele>
        <time>2012-08-10T07:29:54Z</time>
      </trkpt>
      <trkpt lat="45.37826" lon="6.17882">
        <ele>1630.5334472656</ele>
        <time>2012-08-10T07:29:59Z</time>
      </trkpt>
      <trkpt lat="45.37825" lon="6.1788">
        <ele>1630.052734375</ele>
        <time>2012-08-10T07:30:00Z</time>
      </trkpt>
      <trkpt lat="45.37823" lon="6.17877">
        <ele>1629.5720214844</ele>
        <time>2012-08-10T07:30:03Z</time>
      </trkpt>
      <trkpt lat="45.37817" lon="6.17873">
        <ele>1629.0913085938</ele>
        <time>2012-08-10T07:30:09Z</time>
      </trkpt>
      <trkpt lat="45.37814" lon="6.17876">
        <ele>1634.3786621094</ele>
        <time>2012-08-10T07:30:14Z</time>
      </trkpt>
      <trkpt lat="45.37812" lon="6.17877">
        <ele>1634.859375</ele>
        <time>2012-08-10T07:30:15Z</time>
      </trkpt>
      <trkpt lat="45.37811" lon="6.17882">
        <ele>1639.6657714844</ele>
        <time>2012-08-10T07:30:19Z</time>
      </trkpt>
      <trkpt lat="45.37811" lon="6.17888">
        <ele>1645.4338378906</ele>
        <time>2012-08-10T07:30:22Z</time>
      </trkpt>
      <trkpt lat="45.37809" lon="6.17889">
        <ele>1646.3952636719</ele>
        <time>2012-08-10T07:30:24Z</time>
      </trkpt>
      <trkpt lat="45.37803" lon="6.17894">
        <ele>1643.5109863281</ele>
        <time>2012-08-10T07:30:32Z</time>
      </trkpt>
      <trkpt lat="45.378" lon="6.17895">
        <ele>1642.0690917969</ele>
        <time>2012-08-10T07:30:38Z</time>
      </trkpt>
      <trkpt lat="45.37797" lon="6.17898">
        <ele>1636.7817382812</ele>
        <time>2012-08-10T07:30:43Z</time>
      </trkpt>
      <trkpt lat="45.37796" lon="6.17901">
        <ele>1631.0141601562</ele>
        <time>2012-08-10T07:30:49Z</time>
      </trkpt>
      <trkpt lat="45.37794" lon="6.17906">
        <ele>1628.1301269531</ele>
        <time>2012-08-10T07:30:54Z</time>
      </trkpt>
      <trkpt lat="45.37791" lon="6.17909">
        <ele>1628.6108398438</ele>
        <time>2012-08-10T07:30:58Z</time>
      </trkpt>
      <trkpt lat="45.37788" lon="6.17907">
        <ele>1627.1687011719</ele>
        <time>2012-08-10T07:31:02Z</time>
      </trkpt>
      <trkpt lat="45.37788" lon="6.17911">
        <ele>1624.2846679688</ele>
        <time>2012-08-10T07:31:07Z</time>
      </trkpt>
      <trkpt lat="45.37786" lon="6.17913">
        <ele>1619.9587402344</ele>
        <time>2012-08-10T07:31:11Z</time>
      </trkpt>
      <trkpt lat="45.37785" lon="6.17917">
        <ele>1616.5942382812</ele>
        <time>2012-08-10T07:31:16Z</time>
      </trkpt>
      <trkpt lat="45.37791" lon="6.17917">
        <ele>1617.0749511719</ele>
        <time>2012-08-10T07:31:21Z</time>
      </trkpt>
      <trkpt lat="45.37795" lon="6.17919">
        <ele>1615.6330566406</ele>
        <time>2012-08-10T07:31:26Z</time>
      </trkpt>
      <trkpt lat="45.37798" lon="6.17923">
        <ele>1612.7490234375</ele>
        <time>2012-08-10T07:31:32Z</time>
      </trkpt>
      <trkpt lat="45.37798" lon="6.17929">
        <ele>1609.3842773438</ele>
        <time>2012-08-10T07:31:38Z</time>
      </trkpt>
      <trkpt lat="45.37793" lon="6.17929">
        <ele>1605.5390625</ele>
        <time>2012-08-10T07:31:42Z</time>
      </trkpt>
      <trkpt lat="45.37789" lon="6.17933">
        <ele>1604.0971679688</ele>
        <time>2012-08-10T07:31:49Z</time>
      </trkpt>
      <trkpt lat="45.37794" lon="6.1794">
        <ele>1599.7712402344</ele>
        <time>2012-08-10T07:31:57Z</time>
      </trkpt>
      <trkpt lat="45.37798" lon="6.17943">
        <ele>1597.3679199219</ele>
        <time>2012-08-10T07:32:02Z</time>
      </trkpt>
      <trkpt lat="45.37797" lon="6.17947">
        <ele>1599.2905273438</ele>
        <time>2012-08-10T07:32:05Z</time>
      </trkpt>
      <trkpt lat="45.37791" lon="6.17952">
        <ele>1599.7712402344</ele>
        <time>2012-08-10T07:32:12Z</time>
      </trkpt>
      <trkpt lat="45.37793" lon="6.17955">
        <ele>1595.4450683594</ele>
        <time>2012-08-10T07:32:18Z</time>
      </trkpt>
      <trkpt lat="45.3779" lon="6.17957">
        <ele>1594.0031738281</ele>
        <time>2012-08-10T07:32:23Z</time>
      </trkpt>
      <trkpt lat="45.37788" lon="6.17966">
        <ele>1597.8486328125</ele>
        <time>2012-08-10T07:32:28Z</time>
      </trkpt>
      <trkpt lat="45.37781" lon="6.17974">
        <ele>1603.6164550781</ele>
        <time>2012-08-10T07:32:34Z</time>
      </trkpt>
      <trkpt lat="45.37775" lon="6.17977">
        <ele>1604.0971679688</ele>
        <time>2012-08-10T07:32:38Z</time>
      </trkpt>
      <trkpt lat="45.37771" lon="6.17978">
        <ele>1603.1357421875</ele>
        <time>2012-08-10T07:32:44Z</time>
      </trkpt>
      <trkpt lat="45.37772" lon="6.17978">
        <ele>1598.3291015625</ele>
        <time>2012-08-10T07:32:49Z</time>
      </trkpt>
      <trkpt lat="45.37776" lon="6.17982">
        <ele>1587.7546386719</ele>
        <time>2012-08-10T07:32:58Z</time>
      </trkpt>
      <trkpt lat="45.37778" lon="6.17985">
        <ele>1584.3901367188</ele>
        <time>2012-08-10T07:33:03Z</time>
      </trkpt>
      <trkpt lat="45.37777" lon="6.1799">
        <ele>1585.3513183594</ele>
        <time>2012-08-10T07:33:08Z</time>
      </trkpt>
      <trkpt lat="45.37774" lon="6.17994">
        <ele>1588.7160644531</ele>
        <time>2012-08-10T07:33:12Z</time>
      </trkpt>
      <trkpt lat="45.37772" lon="6.17999">
        <ele>1590.1579589844</ele>
        <time>2012-08-10T07:33:17Z</time>
      </trkpt>
      <trkpt lat="45.37775" lon="6.18001">
        <ele>1585.83203125</ele>
        <time>2012-08-10T07:33:22Z</time>
      </trkpt>
      <trkpt lat="45.37774" lon="6.18005">
        <ele>1582.9479980469</ele>
        <time>2012-08-10T07:33:27Z</time>
      </trkpt>
      <trkpt lat="45.37768" lon="6.18008">
        <ele>1578.6220703125</ele>
        <time>2012-08-10T07:33:32Z</time>
      </trkpt>
      <trkpt lat="45.37766" lon="6.18008">
        <ele>1576.6994628906</ele>
        <time>2012-08-10T07:33:34Z</time>
      </trkpt>
      <trkpt lat="45.3776" lon="6.18014">
        <ele>1573.8154296875</ele>
        <time>2012-08-10T07:33:39Z</time>
      </trkpt>
      <trkpt lat="45.37754" lon="6.18022">
        <ele>1577.1801757812</ele>
        <time>2012-08-10T07:33:45Z</time>
      </trkpt>
      <trkpt lat="45.37753" lon="6.18026">
        <ele>1577.1801757812</ele>
        <time>2012-08-10T07:33:48Z</time>
      </trkpt>
      <trkpt lat="45.37753" lon="6.18029">
        <ele>1574.2961425781</ele>
        <time>2012-08-10T07:33:51Z</time>
      </trkpt>
      <trkpt lat="45.37756" lon="6.18033">
        <ele>1570.4509277344</ele>
        <time>2012-08-10T07:33:56Z</time>
      </trkpt>
      <trkpt lat="45.37757" lon="6.18038">
        <ele>1566.6057128906</ele>
        <time>2012-08-10T07:34:01Z</time>
      </trkpt>
      <trkpt lat="45.37759" lon="6.18043">
        <ele>1567.0864257812</ele>
        <time>2012-08-10T07:34:05Z</time>
      </trkpt>
      <trkpt lat="45.37764" lon="6.18042">
        <ele>1565.64453125</ele>
        <time>2012-08-10T07:34:10Z</time>
      </trkpt>
      <trkpt lat="45.37762" lon="6.18046">
        <ele>1563.2409667969</ele>
        <time>2012-08-10T07:34:15Z</time>
      </trkpt>
      <trkpt lat="45.37759" lon="6.18055">
        <ele>1561.7990722656</ele>
        <time>2012-08-10T07:34:21Z</time>
      </trkpt>
      <trkpt lat="45.37758" lon="6.18055">
        <ele>1561.7990722656</ele>
        <time>2012-08-10T07:34:22Z</time>
      </trkpt>
      <trkpt lat="45.37754" lon="6.18059">
        <ele>1560.3569335938</ele>
        <time>2012-08-10T07:34:26Z</time>
      </trkpt>
      <trkpt lat="45.37747" lon="6.18062">
        <ele>1557.9538574219</ele>
        <time>2012-08-10T07:34:32Z</time>
      </trkpt>
      <trkpt lat="45.37745" lon="6.18064">
        <ele>1556.9924316406</ele>
        <time>2012-08-10T07:34:34Z</time>
      </trkpt>
      <trkpt lat="45.37741" lon="6.18073">
        <ele>1564.6831054688</ele>
        <time>2012-08-10T07:34:39Z</time>
      </trkpt>
      <trkpt lat="45.37735" lon="6.18079">
        <ele>1569.9702148438</ele>
        <time>2012-08-10T07:34:45Z</time>
      </trkpt>
      <trkpt lat="45.37727" lon="6.18084">
        <ele>1565.64453125</ele>
        <time>2012-08-10T07:34:52Z</time>
      </trkpt>
      <trkpt lat="45.37721" lon="6.18089">
        <ele>1557.9538574219</ele>
        <time>2012-08-10T07:34:59Z</time>
      </trkpt>
      <trkpt lat="45.37719" lon="6.1809">
        <ele>1556.0310058594</ele>
        <time>2012-08-10T07:35:01Z</time>
      </trkpt>
      <trkpt lat="45.37718" lon="6.181">
        <ele>1556.9924316406</ele>
        <time>2012-08-10T07:35:06Z</time>
      </trkpt>
      <trkpt lat="45.37715" lon="6.18109">
        <ele>1550.7438964844</ele>
        <time>2012-08-10T07:35:12Z</time>
      </trkpt>
      <trkpt lat="45.37708" lon="6.18115">
        <ele>1541.611328125</ele>
        <time>2012-08-10T07:35:20Z</time>
      </trkpt>
      <trkpt lat="45.37702" lon="6.18122">
        <ele>1539.6887207031</ele>
        <time>2012-08-10T07:35:27Z</time>
      </trkpt>
      <trkpt lat="45.37698" lon="6.18129">
        <ele>1541.1306152344</ele>
        <time>2012-08-10T07:35:33Z</time>
      </trkpt>
      <trkpt lat="45.37699" lon="6.18131">
        <ele>1540.1694335938</ele>
        <time>2012-08-10T07:35:35Z</time>
      </trkpt>
      <trkpt lat="45.377" lon="6.18139">
        <ele>1538.2468261719</ele>
        <time>2012-08-10T07:35:41Z</time>
      </trkpt>
      <trkpt lat="45.37701" lon="6.18143">
        <ele>1535.8435058594</ele>
        <time>2012-08-10T07:35:48Z</time>
      </trkpt>
      <trkpt lat="45.37703" lon="6.18144">
        <ele>1540.1694335938</ele>
        <time>2012-08-10T07:36:09Z</time>
      </trkpt>
      <trkpt lat="45.37704" lon="6.18151">
        <ele>1539.2080078125</ele>
        <time>2012-08-10T07:36:24Z</time>
      </trkpt>
      <trkpt lat="45.37702" lon="6.18158">
        <ele>1538.2468261719</ele>
        <time>2012-08-10T07:36:29Z</time>
      </trkpt>
      <trkpt lat="45.37699" lon="6.18168">
        <ele>1536.8046875</ele>
        <time>2012-08-10T07:36:36Z</time>
      </trkpt>
      <trkpt lat="45.37698" lon="6.18175">
        <ele>1534.8823242188</ele>
        <time>2012-08-10T07:36:41Z</time>
      </trkpt>
      <trkpt lat="45.377" lon="6.18183">
        <ele>1532.9594726562</ele>
        <time>2012-08-10T07:36:47Z</time>
      </trkpt>
      <trkpt lat="45.377" lon="6.18194">
        <ele>1530.5561523438</ele>
        <time>2012-08-10T07:36:53Z</time>
      </trkpt>
      <trkpt lat="45.37698" lon="6.18205">
        <ele>1526.7109375</ele>
        <time>2012-08-10T07:37:00Z</time>
      </trkpt>
      <trkpt lat="45.37696" lon="6.1821">
        <ele>1525.2687988281</ele>
        <time>2012-08-10T07:37:04Z</time>
      </trkpt>
      <trkpt lat="45.37696" lon="6.18223">
        <ele>1524.3076171875</ele>
        <time>2012-08-10T07:37:11Z</time>
      </trkpt>
      <trkpt lat="45.37697" lon="6.18231">
        <ele>1523.8269042969</ele>
        <time>2012-08-10T07:37:15Z</time>
      </trkpt>
      <trkpt lat="45.37699" lon="6.1824">
        <ele>1524.7883300781</ele>
        <time>2012-08-10T07:37:20Z</time>
      </trkpt>
      <trkpt lat="45.377" lon="6.18249">
        <ele>1525.7495117188</ele>
        <time>2012-08-10T07:37:25Z</time>
      </trkpt>
      <trkpt lat="45.37702" lon="6.18262">
        <ele>1527.1916503906</ele>
        <time>2012-08-10T07:37:31Z</time>
      </trkpt>
      <trkpt lat="45.37701" lon="6.18271">
        <ele>1526.2302246094</ele>
        <time>2012-08-10T07:37:35Z</time>
      </trkpt>
      <trkpt lat="45.37696" lon="6.18279">
        <ele>1524.7883300781</ele>
        <time>2012-08-10T07:37:40Z</time>
      </trkpt>
      <trkpt lat="45.37695" lon="6.18281">
        <ele>1524.7883300781</ele>
        <time>2012-08-10T07:37:41Z</time>
      </trkpt>
      <trkpt lat="45.3769" lon="6.18288">
        <ele>1524.7883300781</ele>
        <time>2012-08-10T07:37:45Z</time>
      </trkpt>
      <trkpt lat="45.37688" lon="6.18291">
        <ele>1525.7495117188</ele>
        <time>2012-08-10T07:37:48Z</time>
      </trkpt>
      <trkpt lat="45.37685" lon="6.18293">
        <ele>1526.7109375</ele>
        <time>2012-08-10T07:37:50Z</time>
      </trkpt>
      <trkpt lat="45.37681" lon="6.18302">
        <ele>1530.0754394531</ele>
        <time>2012-08-10T07:37:55Z</time>
      </trkpt>
      <trkpt lat="45.37679" lon="6.18303">
        <ele>1529.5947265625</ele>
        <time>2012-08-10T07:37:57Z</time>
      </trkpt>
      <trkpt lat="45.37676" lon="6.18307">
        <ele>1528.1528320312</ele>
        <time>2012-08-10T07:38:00Z</time>
      </trkpt>
      <trkpt lat="45.37676" lon="6.18308">
        <ele>1525.2687988281</ele>
        <time>2012-08-10T07:38:02Z</time>
      </trkpt>
      <trkpt lat="45.37681" lon="6.18312">
        <ele>1524.3076171875</ele>
        <time>2012-08-10T07:38:06Z</time>
      </trkpt>
      <trkpt lat="45.37683" lon="6.18315">
        <ele>1522.8657226562</ele>
        <time>2012-08-10T07:38:13Z</time>
      </trkpt>
      <trkpt lat="45.37683" lon="6.18318">
        <ele>1522.8657226562</ele>
        <time>2012-08-10T07:38:17Z</time>
      </trkpt>
      <trkpt lat="45.37682" lon="6.18317">
        <ele>1519.9816894531</ele>
        <time>2012-08-10T07:38:28Z</time>
      </trkpt>
      <trkpt lat="45.37679" lon="6.18319">
        <ele>1516.6171875</ele>
        <time>2012-08-10T07:38:34Z</time>
      </trkpt>
      <trkpt lat="45.37679" lon="6.18322">
        <ele>1514.6943359375</ele>
        <time>2012-08-10T07:38:40Z</time>
      </trkpt>
      <trkpt lat="45.37679" lon="6.1832">
        <ele>1515.1750488281</ele>
        <time>2012-08-10T07:38:45Z</time>
      </trkpt>
      <trkpt lat="45.3768" lon="6.18318">
        <ele>1515.6557617188</ele>
        <time>2012-08-10T07:38:49Z</time>
      </trkpt>
      <trkpt lat="45.3768" lon="6.18311">
        <ele>1515.6557617188</ele>
        <time>2012-08-10T07:38:55Z</time>
      </trkpt>
      <trkpt lat="45.37678" lon="6.18309">
        <ele>1517.0979003906</ele>
        <time>2012-08-10T07:39:00Z</time>
      </trkpt>
      <trkpt lat="45.37677" lon="6.18308">
        <ele>1516.1364746094</ele>
        <time>2012-08-10T07:39:09Z</time>
      </trkpt>
      <trkpt lat="45.3768" lon="6.18311">
        <ele>1515.1750488281</ele>
        <time>2012-08-10T07:39:17Z</time>
      </trkpt>
      <trkpt lat="45.3768" lon="6.18311">
        <ele>1513.7329101562</ele>
        <time>2012-08-10T07:39:23Z</time>
      </trkpt>
      <trkpt lat="45.37682" lon="6.18316">
        <ele>1512.291015625</ele>
        <time>2012-08-10T07:39:30Z</time>
      </trkpt>
      <trkpt lat="45.37679" lon="6.1832">
        <ele>1510.3684082031</ele>
        <time>2012-08-10T07:39:36Z</time>
      </trkpt>
      <trkpt lat="45.37678" lon="6.18324">
        <ele>1510.8491210938</ele>
        <time>2012-08-10T07:39:41Z</time>
      </trkpt>
      <trkpt lat="45.37677" lon="6.18324">
        <ele>1511.810546875</ele>
        <time>2012-08-10T07:39:55Z</time>
      </trkpt>
      <trkpt lat="45.37676" lon="6.18327">
        <ele>1510.8491210938</ele>
        <time>2012-08-10T07:40:00Z</time>
      </trkpt>
      <trkpt lat="45.3768" lon="6.18332">
        <ele>1509.4072265625</ele>
        <time>2012-08-10T07:40:06Z</time>
      </trkpt>
      <trkpt lat="45.37684" lon="6.18332">
        <ele>1507.9653320312</ele>
        <time>2012-08-10T07:40:12Z</time>
      </trkpt>
      <trkpt lat="45.3769" lon="6.18332">
        <ele>1505.5620117188</ele>
        <time>2012-08-10T07:40:18Z</time>
      </trkpt>
      <trkpt lat="45.37695" lon="6.18332">
        <ele>1506.0424804688</ele>
        <time>2012-08-10T07:40:22Z</time>
      </trkpt>
      <trkpt lat="45.37697" lon="6.1833">
        <ele>1506.0424804688</ele>
        <time>2012-08-10T07:40:25Z</time>
      </trkpt>
      <trkpt lat="45.377" lon="6.1833">
        <ele>1503.6394042969</ele>
        <time>2012-08-10T07:40:31Z</time>
      </trkpt>
      <trkpt lat="45.37705" lon="6.18332">
        <ele>1501.716796875</ele>
        <time>2012-08-10T07:40:38Z</time>
      </trkpt>
      <trkpt lat="45.37707" lon="6.18339">
        <ele>1499.3132324219</ele>
        <time>2012-08-10T07:40:44Z</time>
      </trkpt>
      <trkpt lat="45.3771" lon="6.18342">
        <ele>1497.390625</ele>
        <time>2012-08-10T07:40:49Z</time>
      </trkpt>
      <trkpt lat="45.37709" lon="6.18346">
        <ele>1495.9487304688</ele>
        <time>2012-08-10T07:40:53Z</time>
      </trkpt>
      <trkpt lat="45.37713" lon="6.18349">
        <ele>1493.0646972656</ele>
        <time>2012-08-10T07:41:00Z</time>
      </trkpt>
      <trkpt lat="45.37717" lon="6.18354">
        <ele>1489.7001953125</ele>
        <time>2012-08-10T07:41:06Z</time>
      </trkpt>
      <trkpt lat="45.37718" lon="6.18357">
        <ele>1488.2583007812</ele>
        <time>2012-08-10T07:41:08Z</time>
      </trkpt>
      <trkpt lat="45.37715" lon="6.18369">
        <ele>1487.296875</ele>
        <time>2012-08-10T07:41:13Z</time>
      </trkpt>
      <trkpt lat="45.37714" lon="6.18373">
        <ele>1486.3356933594</ele>
        <time>2012-08-10T07:41:15Z</time>
      </trkpt>
      <trkpt lat="45.37713" lon="6.18386">
        <ele>1486.3356933594</ele>
        <time>2012-08-10T07:41:22Z</time>
      </trkpt>
      <trkpt lat="45.37712" lon="6.18384">
        <ele>1486.3356933594</ele>
        <time>2012-08-10T07:41:26Z</time>
      </trkpt>
      <trkpt lat="45.37714" lon="6.18382">
        <ele>1487.7775878906</ele>
        <time>2012-08-10T07:41:33Z</time>
      </trkpt>
      <trkpt lat="45.37714" lon="6.18378">
        <ele>1487.7775878906</ele>
        <time>2012-08-10T07:41:38Z</time>
      </trkpt>
      <trkpt lat="45.37715" lon="6.18373">
        <ele>1488.7390136719</ele>
        <time>2012-08-10T07:41:44Z</time>
      </trkpt>
      <trkpt lat="45.37714" lon="6.18372">
        <ele>1488.7390136719</ele>
        <time>2012-08-10T07:41:49Z</time>
      </trkpt>
      <trkpt lat="45.37715" lon="6.18374">
        <ele>1488.2583007812</ele>
        <time>2012-08-10T07:41:54Z</time>
      </trkpt>
      <trkpt lat="45.37714" lon="6.18384">
        <ele>1486.3356933594</ele>
        <time>2012-08-10T07:42:02Z</time>
      </trkpt>
      <trkpt lat="45.37712" lon="6.18389">
        <ele>1482.970703125</ele>
        <time>2012-08-10T07:42:08Z</time>
      </trkpt>
      <trkpt lat="45.37709" lon="6.18393">
        <ele>1480.5676269531</ele>
        <time>2012-08-10T07:42:14Z</time>
      </trkpt>
      <trkpt lat="45.3771" lon="6.18397">
        <ele>1482.970703125</ele>
        <time>2012-08-10T07:42:19Z</time>
      </trkpt>
      <trkpt lat="45.37708" lon="6.18406">
        <ele>1486.3356933594</ele>
        <time>2012-08-10T07:42:27Z</time>
      </trkpt>
      <trkpt lat="45.37709" lon="6.1841">
        <ele>1486.8161621094</ele>
        <time>2012-08-10T07:42:33Z</time>
      </trkpt>
      <trkpt lat="45.37711" lon="6.18417">
        <ele>1486.3356933594</ele>
        <time>2012-08-10T07:42:38Z</time>
      </trkpt>
      <trkpt lat="45.37711" lon="6.18422">
        <ele>1485.3742675781</ele>
        <time>2012-08-10T07:42:42Z</time>
      </trkpt>
      <trkpt lat="45.37712" lon="6.18428">
        <ele>1484.4130859375</ele>
        <time>2012-08-10T07:42:48Z</time>
      </trkpt>
      <trkpt lat="45.37713" lon="6.18432">
        <ele>1483.9321289062</ele>
        <time>2012-08-10T07:42:55Z</time>
      </trkpt>
      <trkpt lat="45.37714" lon="6.18433">
        <ele>1483.9321289062</ele>
        <time>2012-08-10T07:43:01Z</time>
      </trkpt>
      <trkpt lat="45.37717" lon="6.18436">
        <ele>1483.4514160156</ele>
        <time>2012-08-10T07:43:08Z</time>
      </trkpt>
      <trkpt lat="45.37721" lon="6.18435">
        <ele>1481.5288085938</ele>
        <time>2012-08-10T07:43:14Z</time>
      </trkpt>
      <trkpt lat="45.37724" lon="6.18433">
        <ele>1479.6062011719</ele>
        <time>2012-08-10T07:43:19Z</time>
      </trkpt>
      <trkpt lat="45.37726" lon="6.18432">
        <ele>1477.203125</ele>
        <time>2012-08-10T07:43:25Z</time>
      </trkpt>
      <trkpt lat="45.3773" lon="6.18437">
        <ele>1473.8383789062</ele>
        <time>2012-08-10T07:43:33Z</time>
      </trkpt>
      <trkpt lat="45.37733" lon="6.18442">
        <ele>1473.3579101562</ele>
        <time>2012-08-10T07:43:39Z</time>
      </trkpt>
      <trkpt lat="45.37736" lon="6.18449">
        <ele>1473.3579101562</ele>
        <time>2012-08-10T07:43:45Z</time>
      </trkpt>
      <trkpt lat="45.37739" lon="6.18451">
        <ele>1471.9157714844</ele>
        <time>2012-08-10T07:43:50Z</time>
      </trkpt>
      <trkpt lat="45.37742" lon="6.18446">
        <ele>1470.4738769531</ele>
        <time>2012-08-10T07:43:56Z</time>
      </trkpt>
      <trkpt lat="45.37745" lon="6.18442">
        <ele>1469.0319824219</ele>
        <time>2012-08-10T07:44:02Z</time>
      </trkpt>
      <trkpt lat="45.37745" lon="6.18436">
        <ele>1467.5895996094</ele>
        <time>2012-08-10T07:44:07Z</time>
      </trkpt>
      <trkpt lat="45.37746" lon="6.18433">
        <ele>1466.6284179688</ele>
        <time>2012-08-10T07:44:14Z</time>
      </trkpt>
      <trkpt lat="45.37746" lon="6.18431">
        <ele>1464.7058105469</ele>
        <time>2012-08-10T07:44:20Z</time>
      </trkpt>
      <trkpt lat="45.3775" lon="6.18434">
        <ele>1464.2250976562</ele>
        <time>2012-08-10T07:44:27Z</time>
      </trkpt>
      <trkpt lat="45.37752" lon="6.18433">
        <ele>1461.8220214844</ele>
        <time>2012-08-10T07:44:33Z</time>
      </trkpt>
      <trkpt lat="45.37755" lon="6.1843">
        <ele>1461.3413085938</ele>
        <time>2012-08-10T07:44:37Z</time>
      </trkpt>
      <trkpt lat="45.37761" lon="6.18431">
        <ele>1460.3798828125</ele>
        <time>2012-08-10T07:44:44Z</time>
      </trkpt>
      <trkpt lat="45.37766" lon="6.18426">
        <ele>1459.4187011719</ele>
        <time>2012-08-10T07:44:50Z</time>
      </trkpt>
      <trkpt lat="45.37772" lon="6.18425">
        <ele>1457.9768066406</ele>
        <time>2012-08-10T07:44:57Z</time>
      </trkpt>
      <trkpt lat="45.37775" lon="6.18429">
        <ele>1457.0153808594</ele>
        <time>2012-08-10T07:45:03Z</time>
      </trkpt>
      <trkpt lat="45.3778" lon="6.18435">
        <ele>1455.0927734375</ele>
        <time>2012-08-10T07:45:12Z</time>
      </trkpt>
      <trkpt lat="45.37785" lon="6.18435">
        <ele>1452.689453125</ele>
        <time>2012-08-10T07:45:19Z</time>
      </trkpt>
      <trkpt lat="45.37791" lon="6.18439">
        <ele>1452.2087402344</ele>
        <time>2012-08-10T07:45:26Z</time>
      </trkpt>
      <trkpt lat="45.37792" lon="6.1844">
        <ele>1452.2087402344</ele>
        <time>2012-08-10T07:45:27Z</time>
      </trkpt>
      <trkpt lat="45.37798" lon="6.18444">
        <ele>1451.2473144531</ele>
        <time>2012-08-10T07:45:32Z</time>
      </trkpt>
      <trkpt lat="45.37804" lon="6.18437">
        <ele>1448.8439941406</ele>
        <time>2012-08-10T07:45:39Z</time>
      </trkpt>
      <trkpt lat="45.37804" lon="6.18436">
        <ele>1448.36328125</ele>
        <time>2012-08-10T07:45:40Z</time>
      </trkpt>
      <trkpt lat="45.37807" lon="6.18435">
        <ele>1446.9213867188</ele>
        <time>2012-08-10T07:45:43Z</time>
      </trkpt>
      <trkpt lat="45.37814" lon="6.18438">
        <ele>1446.9213867188</ele>
        <time>2012-08-10T07:45:49Z</time>
      </trkpt>
      <trkpt lat="45.37819" lon="6.18442">
        <ele>1445.4794921875</ele>
        <time>2012-08-10T07:45:56Z</time>
      </trkpt>
      <trkpt lat="45.37827" lon="6.18442">
        <ele>1445.9602050781</ele>
        <time>2012-08-10T07:46:01Z</time>
      </trkpt>
      <trkpt lat="45.37828" lon="6.18441">
        <ele>1445.9602050781</ele>
        <time>2012-08-10T07:46:02Z</time>
      </trkpt>
      <trkpt lat="45.37833" lon="6.18441">
        <ele>1445.9602050781</ele>
        <time>2012-08-10T07:46:07Z</time>
      </trkpt>
      <trkpt lat="45.37835" lon="6.18441">
        <ele>1444.0375976562</ele>
        <time>2012-08-10T07:46:11Z</time>
      </trkpt>
      <trkpt lat="45.37838" lon="6.18442">
        <ele>1441.6342773438</ele>
        <time>2012-08-10T07:46:15Z</time>
      </trkpt>
      <trkpt lat="45.37838" lon="6.18444">
        <ele>1438.7504882812</ele>
        <time>2012-08-10T07:46:18Z</time>
      </trkpt>
      <trkpt lat="45.37843" lon="6.18442">
        <ele>1436.8276367188</ele>
        <time>2012-08-10T07:46:23Z</time>
      </trkpt>
      <trkpt lat="45.37848" lon="6.18439">
        <ele>1437.3083496094</ele>
        <time>2012-08-10T07:46:26Z</time>
      </trkpt>
      <trkpt lat="45.37854" lon="6.18434">
        <ele>1438.2697753906</ele>
        <time>2012-08-10T07:46:31Z</time>
      </trkpt>
      <trkpt lat="45.37858" lon="6.1843">
        <ele>1436.8276367188</ele>
        <time>2012-08-10T07:46:36Z</time>
      </trkpt>
      <trkpt lat="45.37859" lon="6.1843">
        <ele>1436.3471679688</ele>
        <time>2012-08-10T07:46:37Z</time>
      </trkpt>
      <trkpt lat="45.37864" lon="6.18432">
        <ele>1433.9436035156</ele>
        <time>2012-08-10T07:46:43Z</time>
      </trkpt>
      <trkpt lat="45.37869" lon="6.18433">
        <ele>1432.9821777344</ele>
        <time>2012-08-10T07:46:48Z</time>
      </trkpt>
      <trkpt lat="45.3787" lon="6.18433">
        <ele>1432.5017089844</ele>
        <time>2012-08-10T07:46:49Z</time>
      </trkpt>
      <trkpt lat="45.37875" lon="6.18431">
        <ele>1432.0209960938</ele>
        <time>2012-08-10T07:46:54Z</time>
      </trkpt>
      <trkpt lat="45.37878" lon="6.1843">
        <ele>1431.0598144531</ele>
        <time>2012-08-10T07:46:57Z</time>
      </trkpt>
      <trkpt lat="45.37884" lon="6.18433">
        <ele>1432.0209960938</ele>
        <time>2012-08-10T07:47:01Z</time>
      </trkpt>
      <trkpt lat="45.37886" lon="6.18435">
        <ele>1431.5402832031</ele>
        <time>2012-08-10T07:47:05Z</time>
      </trkpt>
      <trkpt lat="45.37888" lon="6.18445">
        <ele>1429.1369628906</ele>
        <time>2012-08-10T07:47:13Z</time>
      </trkpt>
      <trkpt lat="45.37888" lon="6.1845">
        <ele>1428.6564941406</ele>
        <time>2012-08-10T07:47:16Z</time>
      </trkpt>
      <trkpt lat="45.37887" lon="6.18458">
        <ele>1426.7338867188</ele>
        <time>2012-08-10T07:47:23Z</time>
      </trkpt>
      <trkpt lat="45.37885" lon="6.18463">
        <ele>1425.7724609375</ele>
        <time>2012-08-10T07:47:28Z</time>
      </trkpt>
      <trkpt lat="45.37889" lon="6.18468">
        <ele>1427.6950683594</ele>
        <time>2012-08-10T07:47:34Z</time>
      </trkpt>
      <trkpt lat="45.37893" lon="6.1847">
        <ele>1427.6950683594</ele>
        <time>2012-08-10T07:47:38Z</time>
      </trkpt>
      <trkpt lat="45.37899" lon="6.18467">
        <ele>1426.7338867188</ele>
        <time>2012-08-10T07:47:44Z</time>
      </trkpt>
      <trkpt lat="45.37902" lon="6.18468">
        <ele>1425.7724609375</ele>
        <time>2012-08-10T07:47:50Z</time>
      </trkpt>
      <trkpt lat="45.37904" lon="6.18472">
        <ele>1426.2531738281</ele>
        <time>2012-08-10T07:47:56Z</time>
      </trkpt>
      <trkpt lat="45.37906" lon="6.18475">
        <ele>1425.7724609375</ele>
        <time>2012-08-10T07:48:02Z</time>
      </trkpt>
      <trkpt lat="45.37907" lon="6.18477">
        <ele>1425.7724609375</ele>
        <time>2012-08-10T07:48:07Z</time>
      </trkpt>
      <trkpt lat="45.37907" lon="6.18478">
        <ele>1426.2531738281</ele>
        <time>2012-08-10T07:48:13Z</time>
      </trkpt>
      <trkpt lat="45.37907" lon="6.18478">
        <ele>1426.7338867188</ele>
        <time>2012-08-10T07:48:24Z</time>
      </trkpt>
      <trkpt lat="45.37907" lon="6.1848">
        <ele>1426.7338867188</ele>
        <time>2012-08-10T07:48:30Z</time>
      </trkpt>
      <trkpt lat="45.37906" lon="6.1848">
        <ele>1426.2531738281</ele>
        <time>2012-08-10T07:48:35Z</time>
      </trkpt>
      <trkpt lat="45.37905" lon="6.1848">
        <ele>1425.7724609375</ele>
        <time>2012-08-10T07:48:43Z</time>
      </trkpt>
      <trkpt lat="45.37905" lon="6.1848">
        <ele>1426.2531738281</ele>
        <time>2012-08-10T07:48:49Z</time>
      </trkpt>
      <trkpt lat="45.37906" lon="6.1848">
        <ele>1426.2531738281</ele>
        <time>2012-08-10T07:48:54Z</time>
      </trkpt>
      <trkpt lat="45.37906" lon="6.18481">
        <ele>1426.2531738281</ele>
        <time>2012-08-10T07:49:05Z</time>
      </trkpt>
      <trkpt lat="45.37903" lon="6.18481">
        <ele>1425.7724609375</ele>
        <time>2012-08-10T07:49:10Z</time>
      </trkpt>
      <trkpt lat="45.37902" lon="6.18482">
        <ele>1425.2917480469</ele>
        <time>2012-08-10T07:49:16Z</time>
      </trkpt>
      <trkpt lat="45.37902" lon="6.18482">
        <ele>1425.2917480469</ele>
        <time>2012-08-10T07:49:26Z</time>
      </trkpt>
      <trkpt lat="45.379" lon="6.18481">
        <ele>1423.8498535156</ele>
        <time>2012-08-10T07:49:33Z</time>
      </trkpt>
      <trkpt lat="45.379" lon="6.18482">
        <ele>1424.3305664062</ele>
        <time>2012-08-10T07:49:39Z</time>
      </trkpt>
      <trkpt lat="45.379" lon="6.18481">
        <ele>1424.3305664062</ele>
        <time>2012-08-10T07:49:53Z</time>
      </trkpt>
      <trkpt lat="45.37899" lon="6.18481">
        <ele>1424.8112792969</ele>
        <time>2012-08-10T07:50:04Z</time>
      </trkpt>
      <trkpt lat="45.37897" lon="6.18482">
        <ele>1426.2531738281</ele>
        <time>2012-08-10T07:50:22Z</time>
      </trkpt>
      <trkpt lat="45.37896" lon="6.18482">
        <ele>1425.7724609375</ele>
        <time>2012-08-10T07:50:35Z</time>
      </trkpt>
      <trkpt lat="45.37894" lon="6.18483">
        <ele>1426.7338867188</ele>
        <time>2012-08-10T07:50:38Z</time>
      </trkpt>
      <trkpt lat="45.37893" lon="6.18481">
        <ele>1427.6950683594</ele>
        <time>2012-08-10T07:50:43Z</time>
      </trkpt>
      <trkpt lat="45.37893" lon="6.18482">
        <ele>1428.17578125</ele>
        <time>2012-08-10T07:50:48Z</time>
      </trkpt>
      <trkpt lat="45.37893" lon="6.18484">
        <ele>1429.1369628906</ele>
        <time>2012-08-10T07:50:57Z</time>
      </trkpt>
      <trkpt lat="45.37893" lon="6.18486">
        <ele>1430.0983886719</ele>
        <time>2012-08-10T07:51:04Z</time>
      </trkpt>
      <trkpt lat="45.37893" lon="6.18488">
        <ele>1429.6176757812</ele>
        <time>2012-08-10T07:51:10Z</time>
      </trkpt>
      <trkpt lat="45.37892" lon="6.1849">
        <ele>1430.0983886719</ele>
        <time>2012-08-10T07:51:15Z</time>
      </trkpt>
      <trkpt lat="45.37891" lon="6.1849">
        <ele>1428.6564941406</ele>
        <time>2012-08-10T07:51:22Z</time>
      </trkpt>
      <trkpt lat="45.37889" lon="6.1849">
        <ele>1427.6950683594</ele>
        <time>2012-08-10T07:51:28Z</time>
      </trkpt>
      <trkpt lat="45.37888" lon="6.1849">
        <ele>1427.6950683594</ele>
        <time>2012-08-10T07:51:34Z</time>
      </trkpt>
      <trkpt lat="45.37886" lon="6.18491">
        <ele>1428.6564941406</ele>
        <time>2012-08-10T07:51:40Z</time>
      </trkpt>
      <trkpt lat="45.37886" lon="6.18493">
        <ele>1428.6564941406</ele>
        <time>2012-08-10T07:51:48Z</time>
      </trkpt>
      <trkpt lat="45.37884" lon="6.18491">
        <ele>1427.6950683594</ele>
        <time>2012-08-10T07:51:55Z</time>
      </trkpt>
      <trkpt lat="45.37883" lon="6.18489">
        <ele>1430.0983886719</ele>
        <time>2012-08-10T07:52:05Z</time>
      </trkpt>
      <trkpt lat="45.37883" lon="6.1849">
        <ele>1430.0983886719</ele>
        <time>2012-08-10T07:52:13Z</time>
      </trkpt>
      <trkpt lat="45.37882" lon="6.18491">
        <ele>1429.1369628906</ele>
        <time>2012-08-10T07:52:19Z</time>
      </trkpt>
      <trkpt lat="45.37883" lon="6.18492">
        <ele>1429.6176757812</ele>
        <time>2012-08-10T07:52:28Z</time>
      </trkpt>
      <trkpt lat="45.37884" lon="6.18493">
        <ele>1429.6176757812</ele>
        <time>2012-08-10T07:52:34Z</time>
      </trkpt>
      <trkpt lat="45.37886" lon="6.18497">
        <ele>1429.6176757812</ele>
        <time>2012-08-10T07:52:41Z</time>
      </trkpt>
      <trkpt lat="45.37888" lon="6.18499">
        <ele>1429.6176757812</ele>
        <time>2012-08-10T07:52:47Z</time>
      </trkpt>
      <trkpt lat="45.37891" lon="6.18501">
        <ele>1429.6176757812</ele>
        <time>2012-08-10T07:52:53Z</time>
      </trkpt>
      <trkpt lat="45.37893" lon="6.18502">
        <ele>1430.0983886719</ele>
        <time>2012-08-10T07:52:58Z</time>
      </trkpt>
      <trkpt lat="45.37894" lon="6.18505">
        <ele>1431.0598144531</ele>
        <time>2012-08-10T07:53:05Z</time>
      </trkpt>
      <trkpt lat="45.37897" lon="6.18504">
        <ele>1431.0598144531</ele>
        <time>2012-08-10T07:53:12Z</time>
      </trkpt>
      <trkpt lat="45.379" lon="6.18505">
        <ele>1431.0598144531</ele>
        <time>2012-08-10T07:53:18Z</time>
      </trkpt>
      <trkpt lat="45.37901" lon="6.18506">
        <ele>1431.0598144531</ele>
        <time>2012-08-10T07:53:22Z</time>
      </trkpt>
      <trkpt lat="45.37903" lon="6.18507">
        <ele>1431.5402832031</ele>
        <time>2012-08-10T07:53:28Z</time>
      </trkpt>
      <trkpt lat="45.37904" lon="6.18509">
        <ele>1432.0209960938</ele>
        <time>2012-08-10T07:53:34Z</time>
      </trkpt>
      <trkpt lat="45.37907" lon="6.1851">
        <ele>1431.5402832031</ele>
        <time>2012-08-10T07:53:40Z</time>
      </trkpt>
      <trkpt lat="45.37911" lon="6.18511">
        <ele>1432.0209960938</ele>
        <time>2012-08-10T07:53:47Z</time>
      </trkpt>
      <trkpt lat="45.37913" lon="6.18509">
        <ele>1433.462890625</ele>
        <time>2012-08-10T07:53:51Z</time>
      </trkpt>
      <trkpt lat="45.37918" lon="6.18506">
        <ele>1435.8662109375</ele>
        <time>2012-08-10T07:53:59Z</time>
      </trkpt>
      <trkpt lat="45.37922" lon="6.1851">
        <ele>1435.3854980469</ele>
        <time>2012-08-10T07:54:07Z</time>
      </trkpt>
      <trkpt lat="45.37924" lon="6.18509">
        <ele>1433.9436035156</ele>
        <time>2012-08-10T07:54:16Z</time>
      </trkpt>
      <trkpt lat="45.37926" lon="6.18508">
        <ele>1432.9821777344</ele>
        <time>2012-08-10T07:54:21Z</time>
      </trkpt>
      <trkpt lat="45.3793" lon="6.18505">
        <ele>1434.9050292969</ele>
        <time>2012-08-10T07:54:28Z</time>
      </trkpt>
      <trkpt lat="45.37934" lon="6.18508">
        <ele>1435.8662109375</ele>
        <time>2012-08-10T07:54:36Z</time>
      </trkpt>
      <trkpt lat="45.37938" lon="6.18513">
        <ele>1436.3471679688</ele>
        <time>2012-08-10T07:54:43Z</time>
      </trkpt>
      <trkpt lat="45.3794" lon="6.18516">
        <ele>1436.3471679688</ele>
        <time>2012-08-10T07:54:49Z</time>
      </trkpt>
      <trkpt lat="45.37945" lon="6.18518">
        <ele>1434.9050292969</ele>
        <time>2012-08-10T07:54:57Z</time>
      </trkpt>
      <trkpt lat="45.37949" lon="6.18523">
        <ele>1434.9050292969</ele>
        <time>2012-08-10T07:55:05Z</time>
      </trkpt>
      <trkpt lat="45.37951" lon="6.18524">
        <ele>1435.8662109375</ele>
        <time>2012-08-10T07:55:11Z</time>
      </trkpt>
      <trkpt lat="45.37955" lon="6.18525">
        <ele>1436.3471679688</ele>
        <time>2012-08-10T07:55:18Z</time>
      </trkpt>
      <trkpt lat="45.37955" lon="6.18525">
        <ele>1436.8276367188</ele>
        <time>2012-08-10T07:55:24Z</time>
      </trkpt>
      <trkpt lat="45.37957" lon="6.18525">
        <ele>1436.8276367188</ele>
        <time>2012-08-10T07:55:29Z</time>
      </trkpt>
      <trkpt lat="45.3796" lon="6.18525">
        <ele>1437.3083496094</ele>
        <time>2012-08-10T07:55:36Z</time>
      </trkpt>
      <trkpt lat="45.37962" lon="6.18525">
        <ele>1436.8276367188</ele>
        <time>2012-08-10T07:55:43Z</time>
      </trkpt>
      <trkpt lat="45.3796" lon="6.18529">
        <ele>1435.8662109375</ele>
        <time>2012-08-10T07:56:28Z</time>
      </trkpt>
      <trkpt lat="45.37959" lon="6.18535">
        <ele>1436.3471679688</ele>
        <time>2012-08-10T07:56:36Z</time>
      </trkpt>
      <trkpt lat="45.37956" lon="6.18537">
        <ele>1438.2697753906</ele>
        <time>2012-08-10T07:56:41Z</time>
      </trkpt>
      <trkpt lat="45.37952" lon="6.18537">
        <ele>1441.6342773438</ele>
        <time>2012-08-10T07:56:46Z</time>
      </trkpt>
      <trkpt lat="45.37952" lon="6.18542">
        <ele>1444.0375976562</ele>
        <time>2012-08-10T07:56:52Z</time>
      </trkpt>
      <trkpt lat="45.37952" lon="6.18546">
        <ele>1444.9987792969</ele>
        <time>2012-08-10T07:56:57Z</time>
      </trkpt>
      <trkpt lat="45.37952" lon="6.18553">
        <ele>1446.4409179688</ele>
        <time>2012-08-10T07:57:04Z</time>
      </trkpt>
      <trkpt lat="45.37949" lon="6.18556">
        <ele>1448.8439941406</ele>
        <time>2012-08-10T07:57:09Z</time>
      </trkpt>
      <trkpt lat="45.37948" lon="6.18562">
        <ele>1451.2473144531</ele>
        <time>2012-08-10T07:57:19Z</time>
      </trkpt>
      <trkpt lat="45.37945" lon="6.18566">
        <ele>1450.7666015625</ele>
        <time>2012-08-10T07:57:25Z</time>
      </trkpt>
      <trkpt lat="45.37943" lon="6.1857">
        <ele>1451.7280273438</ele>
        <time>2012-08-10T07:57:33Z</time>
      </trkpt>
      <trkpt lat="45.37941" lon="6.18573">
        <ele>1453.6508789062</ele>
        <time>2012-08-10T07:57:39Z</time>
      </trkpt>
      <trkpt lat="45.37939" lon="6.18573">
        <ele>1456.5346679688</ele>
        <time>2012-08-10T07:57:43Z</time>
      </trkpt>
      <trkpt lat="45.37934" lon="6.18573">
        <ele>1457.0153808594</ele>
        <time>2012-08-10T07:57:48Z</time>
      </trkpt>
      <trkpt lat="45.37931" lon="6.18575">
        <ele>1457.0153808594</ele>
        <time>2012-08-10T07:57:52Z</time>
      </trkpt>
      <trkpt lat="45.37924" lon="6.18579">
        <ele>1457.49609375</ele>
        <time>2012-08-10T07:57:59Z</time>
      </trkpt>
      <trkpt lat="45.37921" lon="6.18581">
        <ele>1458.9379882812</ele>
        <time>2012-08-10T07:58:03Z</time>
      </trkpt>
      <trkpt lat="45.37915" lon="6.1858">
        <ele>1456.5346679688</ele>
        <time>2012-08-10T07:58:07Z</time>
      </trkpt>
      <trkpt lat="45.37913" lon="6.18579">
        <ele>1455.5734863281</ele>
        <time>2012-08-10T07:58:09Z</time>
      </trkpt>
      <trkpt lat="45.37905" lon="6.18577">
        <ele>1456.5346679688</ele>
        <time>2012-08-10T07:58:15Z</time>
      </trkpt>
      <trkpt lat="45.3789" lon="6.1858">
        <ele>1461.3413085938</ele>
        <time>2012-08-10T07:58:32Z</time>
      </trkpt>
      <trkpt lat="45.37886" lon="6.18582">
        <ele>1461.3413085938</ele>
        <time>2012-08-10T07:58:38Z</time>
      </trkpt>
      <trkpt lat="45.37877" lon="6.18584">
        <ele>1460.8605957031</ele>
        <time>2012-08-10T07:58:53Z</time>
      </trkpt>
      <trkpt lat="45.37874" lon="6.18585">
        <ele>1460.3798828125</ele>
        <time>2012-08-10T07:58:58Z</time>
      </trkpt>
      <trkpt lat="45.3787" lon="6.18586">
        <ele>1458.9379882812</ele>
        <time>2012-08-10T07:59:05Z</time>
      </trkpt>
      <trkpt lat="45.37869" lon="6.18593">
        <ele>1459.4187011719</ele>
        <time>2012-08-10T07:59:11Z</time>
      </trkpt>
      <trkpt lat="45.37867" lon="6.18594">
        <ele>1459.8991699219</ele>
        <time>2012-08-10T07:59:15Z</time>
      </trkpt>
      <trkpt lat="45.37864" lon="6.18597">
        <ele>1461.3413085938</ele>
        <time>2012-08-10T07:59:21Z</time>
      </trkpt>
      <trkpt lat="45.37861" lon="6.18598">
        <ele>1461.8220214844</ele>
        <time>2012-08-10T07:59:26Z</time>
      </trkpt>
      <trkpt lat="45.37861" lon="6.18605">
        <ele>1464.2250976562</ele>
        <time>2012-08-10T07:59:33Z</time>
      </trkpt>
      <trkpt lat="45.37862" lon="6.18613">
        <ele>1464.7058105469</ele>
        <time>2012-08-10T07:59:41Z</time>
      </trkpt>
      <trkpt lat="45.37861" lon="6.18618">
        <ele>1466.1477050781</ele>
        <time>2012-08-10T07:59:48Z</time>
      </trkpt>
      <trkpt lat="45.37859" lon="6.1862">
        <ele>1468.0705566406</ele>
        <time>2012-08-10T07:59:53Z</time>
      </trkpt>
      <trkpt lat="45.37857" lon="6.18623">
        <ele>1469.9931640625</ele>
        <time>2012-08-10T07:59:58Z</time>
      </trkpt>
      <trkpt lat="45.37855" lon="6.18627">
        <ele>1471.4350585938</ele>
        <time>2012-08-10T08:00:03Z</time>
      </trkpt>
      <trkpt lat="45.37854" lon="6.18632">
        <ele>1472.8771972656</ele>
        <time>2012-08-10T08:00:08Z</time>
      </trkpt>
      <trkpt lat="45.37852" lon="6.18634">
        <ele>1473.3579101562</ele>
        <time>2012-08-10T08:00:12Z</time>
      </trkpt>
      <trkpt lat="45.37851" lon="6.18639">
        <ele>1474.3190917969</ele>
        <time>2012-08-10T08:00:18Z</time>
      </trkpt>
      <trkpt lat="45.37846" lon="6.18644">
        <ele>1475.2802734375</ele>
        <time>2012-08-10T08:00:26Z</time>
      </trkpt>
      <trkpt lat="45.3784" lon="6.18646">
        <ele>1472.8771972656</ele>
        <time>2012-08-10T08:00:33Z</time>
      </trkpt>
      <trkpt lat="45.37836" lon="6.18646">
        <ele>1473.8383789062</ele>
        <time>2012-08-10T08:00:39Z</time>
      </trkpt>
      <trkpt lat="45.37832" lon="6.18649">
        <ele>1475.2802734375</ele>
        <time>2012-08-10T08:00:45Z</time>
      </trkpt>
      <trkpt lat="45.37829" lon="6.18654">
        <ele>1479.1254882812</ele>
        <time>2012-08-10T08:00:50Z</time>
      </trkpt>
      <trkpt lat="45.37825" lon="6.18655">
        <ele>1479.1254882812</ele>
        <time>2012-08-10T08:00:56Z</time>
      </trkpt>
      <trkpt lat="45.37824" lon="6.1866">
        <ele>1481.5288085938</ele>
        <time>2012-08-10T08:01:01Z</time>
      </trkpt>
      <trkpt lat="45.37823" lon="6.18662">
        <ele>1482.0095214844</ele>
        <time>2012-08-10T08:01:05Z</time>
      </trkpt>
      <trkpt lat="45.37819" lon="6.18664">
        <ele>1482.490234375</ele>
        <time>2012-08-10T08:01:10Z</time>
      </trkpt>
      <trkpt lat="45.37815" lon="6.18664">
        <ele>1482.970703125</ele>
        <time>2012-08-10T08:01:14Z</time>
      </trkpt>
      <trkpt lat="45.37812" lon="6.18666">
        <ele>1484.4130859375</ele>
        <time>2012-08-10T08:01:19Z</time>
      </trkpt>
      <trkpt lat="45.37811" lon="6.18669">
        <ele>1485.8549804688</ele>
        <time>2012-08-10T08:01:26Z</time>
      </trkpt>
      <trkpt lat="45.37811" lon="6.18675">
        <ele>1485.8549804688</ele>
        <time>2012-08-10T08:01:32Z</time>
      </trkpt>
      <trkpt lat="45.37807" lon="6.1868">
        <ele>1486.8161621094</ele>
        <time>2012-08-10T08:01:39Z</time>
      </trkpt>
      <trkpt lat="45.37807" lon="6.18685">
        <ele>1488.7390136719</ele>
        <time>2012-08-10T08:01:44Z</time>
      </trkpt>
      <trkpt lat="45.37807" lon="6.1869">
        <ele>1489.2194824219</ele>
        <time>2012-08-10T08:01:49Z</time>
      </trkpt>
      <trkpt lat="45.37806" lon="6.18693">
        <ele>1490.1809082031</ele>
        <time>2012-08-10T08:01:55Z</time>
      </trkpt>
      <trkpt lat="45.37803" lon="6.18697">
        <ele>1491.6228027344</ele>
        <time>2012-08-10T08:02:02Z</time>
      </trkpt>
      <trkpt lat="45.37802" lon="6.18702">
        <ele>1494.5065917969</ele>
        <time>2012-08-10T08:02:07Z</time>
      </trkpt>
      <trkpt lat="45.37803" lon="6.18703">
        <ele>1497.390625</ele>
        <time>2012-08-10T08:02:12Z</time>
      </trkpt>
      <trkpt lat="45.37804" lon="6.18707">
        <ele>1498.3518066406</ele>
        <time>2012-08-10T08:02:16Z</time>
      </trkpt>
      <trkpt lat="45.37804" lon="6.18708">
        <ele>1500.2749023438</ele>
        <time>2012-08-10T08:02:23Z</time>
      </trkpt>
      <trkpt lat="45.37803" lon="6.18711">
        <ele>1501.2360839844</ele>
        <time>2012-08-10T08:02:28Z</time>
      </trkpt>
      <trkpt lat="45.378" lon="6.18718">
        <ele>1502.6779785156</ele>
        <time>2012-08-10T08:02:37Z</time>
      </trkpt>
      <trkpt lat="45.37798" lon="6.18725">
        <ele>1503.6394042969</ele>
        <time>2012-08-10T08:02:45Z</time>
      </trkpt>
      <trkpt lat="45.37796" lon="6.18729">
        <ele>1504.1201171875</ele>
        <time>2012-08-10T08:02:49Z</time>
      </trkpt>
      <trkpt lat="45.37793" lon="6.18731">
        <ele>1504.6005859375</ele>
        <time>2012-08-10T08:02:54Z</time>
      </trkpt>
      <trkpt lat="45.37789" lon="6.18733">
        <ele>1506.0424804688</ele>
        <time>2012-08-10T08:02:58Z</time>
      </trkpt>
      <trkpt lat="45.37788" lon="6.18736">
        <ele>1507.00390625</ele>
        <time>2012-08-10T08:03:02Z</time>
      </trkpt>
      <trkpt lat="45.37784" lon="6.18736">
        <ele>1507.00390625</ele>
        <time>2012-08-10T08:03:07Z</time>
      </trkpt>
      <trkpt lat="45.37781" lon="6.18736">
        <ele>1507.00390625</ele>
        <time>2012-08-10T08:03:11Z</time>
      </trkpt>
      <trkpt lat="45.37779" lon="6.1874">
        <ele>1507.9653320312</ele>
        <time>2012-08-10T08:03:16Z</time>
      </trkpt>
      <trkpt lat="45.3778" lon="6.18746">
        <ele>1508.9265136719</ele>
        <time>2012-08-10T08:03:21Z</time>
      </trkpt>
      <trkpt lat="45.37781" lon="6.1875">
        <ele>1510.3684082031</ele>
        <time>2012-08-10T08:03:27Z</time>
      </trkpt>
      <trkpt lat="45.37782" lon="6.18755">
        <ele>1509.8876953125</ele>
        <time>2012-08-10T08:03:32Z</time>
      </trkpt>
      <trkpt lat="45.3778" lon="6.1876">
        <ele>1510.8491210938</ele>
        <time>2012-08-10T08:03:37Z</time>
      </trkpt>
      <trkpt lat="45.37777" lon="6.18764">
        <ele>1513.2524414062</ele>
        <time>2012-08-10T08:03:43Z</time>
      </trkpt>
      <trkpt lat="45.37775" lon="6.18766">
        <ele>1513.7329101562</ele>
        <time>2012-08-10T08:03:47Z</time>
      </trkpt>
      <trkpt lat="45.37773" lon="6.1877">
        <ele>1514.6943359375</ele>
        <time>2012-08-10T08:03:53Z</time>
      </trkpt>
      <trkpt lat="45.37772" lon="6.18772">
        <ele>1515.1750488281</ele>
        <time>2012-08-10T08:03:58Z</time>
      </trkpt>
      <trkpt lat="45.37767" lon="6.18775">
        <ele>1516.1364746094</ele>
        <time>2012-08-10T08:04:06Z</time>
      </trkpt>
      <trkpt lat="45.37764" lon="6.18777">
        <ele>1516.1364746094</ele>
        <time>2012-08-10T08:04:11Z</time>
      </trkpt>
      <trkpt lat="45.37761" lon="6.1878">
        <ele>1516.1364746094</ele>
        <time>2012-08-10T08:04:17Z</time>
      </trkpt>
      <trkpt lat="45.37759" lon="6.18781">
        <ele>1517.0979003906</ele>
        <time>2012-08-10T08:04:22Z</time>
      </trkpt>
      <trkpt lat="45.37755" lon="6.18785">
        <ele>1518.0590820312</ele>
        <time>2012-08-10T08:04:28Z</time>
      </trkpt>
      <trkpt lat="45.37751" lon="6.18788">
        <ele>1519.0205078125</ele>
        <time>2012-08-10T08:04:34Z</time>
      </trkpt>
      <trkpt lat="45.37748" lon="6.18791">
        <ele>1520.4624023438</ele>
        <time>2012-08-10T08:04:40Z</time>
      </trkpt>
      <trkpt lat="45.37745" lon="6.18796">
        <ele>1521.4235839844</ele>
        <time>2012-08-10T08:04:46Z</time>
      </trkpt>
      <trkpt lat="45.37742" lon="6.18798">
        <ele>1521.904296875</ele>
        <time>2012-08-10T08:04:51Z</time>
      </trkpt>
      <trkpt lat="45.37738" lon="6.18801">
        <ele>1521.4235839844</ele>
        <time>2012-08-10T08:04:57Z</time>
      </trkpt>
      <trkpt lat="45.37735" lon="6.18803">
        <ele>1521.4235839844</ele>
        <time>2012-08-10T08:05:02Z</time>
      </trkpt>
      <trkpt lat="45.37733" lon="6.18809">
        <ele>1523.8269042969</ele>
        <time>2012-08-10T08:05:09Z</time>
      </trkpt>
      <trkpt lat="45.37731" lon="6.18812">
        <ele>1524.3076171875</ele>
        <time>2012-08-10T08:05:14Z</time>
      </trkpt>
      <trkpt lat="45.37729" lon="6.18815">
        <ele>1525.2687988281</ele>
        <time>2012-08-10T08:05:18Z</time>
      </trkpt>
      <trkpt lat="45.37725" lon="6.18826">
        <ele>1527.6721191406</ele>
        <time>2012-08-10T08:05:31Z</time>
      </trkpt>
      <trkpt lat="45.37722" lon="6.18826">
        <ele>1529.5947265625</ele>
        <time>2012-08-10T08:05:35Z</time>
      </trkpt>
      <trkpt lat="45.37717" lon="6.18826">
        <ele>1530.0754394531</ele>
        <time>2012-08-10T08:05:41Z</time>
      </trkpt>
      <trkpt lat="45.37714" lon="6.18823">
        <ele>1531.0368652344</ele>
        <time>2012-08-10T08:05:47Z</time>
      </trkpt>
      <trkpt lat="45.3771" lon="6.18821">
        <ele>1532.4790039062</ele>
        <time>2012-08-10T08:05:53Z</time>
      </trkpt>
      <trkpt lat="45.37708" lon="6.18822">
        <ele>1534.4016113281</ele>
        <time>2012-08-10T08:05:58Z</time>
      </trkpt>
      <trkpt lat="45.37704" lon="6.18824">
        <ele>1535.8435058594</ele>
        <time>2012-08-10T08:06:04Z</time>
      </trkpt>
      <trkpt lat="45.37699" lon="6.18828">
        <ele>1538.2468261719</ele>
        <time>2012-08-10T08:06:13Z</time>
      </trkpt>
      <trkpt lat="45.37698" lon="6.18834">
        <ele>1541.1306152344</ele>
        <time>2012-08-10T08:06:20Z</time>
      </trkpt>
      <trkpt lat="45.37696" lon="6.18839">
        <ele>1542.0920410156</ele>
        <time>2012-08-10T08:06:27Z</time>
      </trkpt>
      <trkpt lat="45.37696" lon="6.18844">
        <ele>1542.0920410156</ele>
        <time>2012-08-10T08:06:33Z</time>
      </trkpt>
      <trkpt lat="45.37695" lon="6.18849">
        <ele>1541.1306152344</ele>
        <time>2012-08-10T08:06:39Z</time>
      </trkpt>
      <trkpt lat="45.37691" lon="6.1885">
        <ele>1541.1306152344</ele>
        <time>2012-08-10T08:06:44Z</time>
      </trkpt>
      <trkpt lat="45.37687" lon="6.18852">
        <ele>1543.0532226562</ele>
        <time>2012-08-10T08:06:52Z</time>
      </trkpt>
      <trkpt lat="45.37685" lon="6.18851">
        <ele>1544.9758300781</ele>
        <time>2012-08-10T08:06:56Z</time>
      </trkpt>
      <trkpt lat="45.37683" lon="6.18854">
        <ele>1546.8984375</ele>
        <time>2012-08-10T08:07:01Z</time>
      </trkpt>
      <trkpt lat="45.37683" lon="6.18859">
        <ele>1548.8212890625</ele>
        <time>2012-08-10T08:07:07Z</time>
      </trkpt>
      <trkpt lat="45.37683" lon="6.18866">
        <ele>1549.7827148438</ele>
        <time>2012-08-10T08:07:16Z</time>
      </trkpt>
      <trkpt lat="45.37682" lon="6.1887">
        <ele>1549.7827148438</ele>
        <time>2012-08-10T08:07:21Z</time>
      </trkpt>
      <trkpt lat="45.37681" lon="6.18875">
        <ele>1550.2634277344</ele>
        <time>2012-08-10T08:07:27Z</time>
      </trkpt>
      <trkpt lat="45.37681" lon="6.1888">
        <ele>1550.2634277344</ele>
        <time>2012-08-10T08:07:33Z</time>
      </trkpt>
      <trkpt lat="45.3768" lon="6.18886">
        <ele>1552.1857910156</ele>
        <time>2012-08-10T08:07:37Z</time>
      </trkpt>
      <trkpt lat="45.37676" lon="6.18889">
        <ele>1553.6279296875</ele>
        <time>2012-08-10T08:07:42Z</time>
      </trkpt>
      <trkpt lat="45.37675" lon="6.18893">
        <ele>1554.5891113281</ele>
        <time>2012-08-10T08:07:48Z</time>
      </trkpt>
      <trkpt lat="45.37674" lon="6.18896">
        <ele>1554.5891113281</ele>
        <time>2012-08-10T08:07:54Z</time>
      </trkpt>
      <trkpt lat="45.37675" lon="6.18903">
        <ele>1555.5505371094</ele>
        <time>2012-08-10T08:07:59Z</time>
      </trkpt>
      <trkpt lat="45.37669" lon="6.18902">
        <ele>1557.9538574219</ele>
        <time>2012-08-10T08:08:07Z</time>
      </trkpt>
      <trkpt lat="45.37664" lon="6.18901">
        <ele>1558.9150390625</ele>
        <time>2012-08-10T08:08:14Z</time>
      </trkpt>
      <trkpt lat="45.37662" lon="6.18905">
        <ele>1560.3569335938</ele>
        <time>2012-08-10T08:08:20Z</time>
      </trkpt>
      <trkpt lat="45.37658" lon="6.18907">
        <ele>1562.2795410156</ele>
        <time>2012-08-10T08:08:27Z</time>
      </trkpt>
      <trkpt lat="45.37655" lon="6.18905">
        <ele>1562.7602539062</ele>
        <time>2012-08-10T08:08:31Z</time>
      </trkpt>
      <trkpt lat="45.3765" lon="6.18905">
        <ele>1565.1638183594</ele>
        <time>2012-08-10T08:08:39Z</time>
      </trkpt>
      <trkpt lat="45.37648" lon="6.18909">
        <ele>1565.64453125</ele>
        <time>2012-08-10T08:08:44Z</time>
      </trkpt>
      <trkpt lat="45.37645" lon="6.1891">
        <ele>1567.0864257812</ele>
        <time>2012-08-10T08:08:49Z</time>
      </trkpt>
      <trkpt lat="45.37643" lon="6.18907">
        <ele>1567.0864257812</ele>
        <time>2012-08-10T08:08:53Z</time>
      </trkpt>
      <trkpt lat="45.37638" lon="6.18904">
        <ele>1570.4509277344</ele>
        <time>2012-08-10T08:09:00Z</time>
      </trkpt>
      <trkpt lat="45.37634" lon="6.18906">
        <ele>1571.8928222656</ele>
        <time>2012-08-10T08:09:08Z</time>
      </trkpt>
      <trkpt lat="45.37633" lon="6.18908">
        <ele>1573.3349609375</ele>
        <time>2012-08-10T08:09:12Z</time>
      </trkpt>
      <trkpt lat="45.37629" lon="6.18909">
        <ele>1573.8154296875</ele>
        <time>2012-08-10T08:09:19Z</time>
      </trkpt>
      <trkpt lat="45.37626" lon="6.18909">
        <ele>1574.2961425781</ele>
        <time>2012-08-10T08:09:24Z</time>
      </trkpt>
      <trkpt lat="45.37622" lon="6.18913">
        <ele>1576.21875</ele>
        <time>2012-08-10T08:09:31Z</time>
      </trkpt>
      <trkpt lat="45.37619" lon="6.18917">
        <ele>1578.6220703125</ele>
        <time>2012-08-10T08:09:38Z</time>
      </trkpt>
      <trkpt lat="45.37618" lon="6.18921">
        <ele>1579.5832519531</ele>
        <time>2012-08-10T08:09:44Z</time>
      </trkpt>
      <trkpt lat="45.37615" lon="6.18924">
        <ele>1583.4287109375</ele>
        <time>2012-08-10T08:09:53Z</time>
      </trkpt>
      <trkpt lat="45.37612" lon="6.18929">
        <ele>1584.3901367188</ele>
        <time>2012-08-10T08:10:01Z</time>
      </trkpt>
      <trkpt lat="45.37608" lon="6.18932">
        <ele>1585.83203125</ele>
        <time>2012-08-10T08:10:11Z</time>
      </trkpt>
      <trkpt lat="45.37607" lon="6.18938">
        <ele>1586.7932128906</ele>
        <time>2012-08-10T08:10:17Z</time>
      </trkpt>
      <trkpt lat="45.37604" lon="6.1894">
        <ele>1587.7546386719</ele>
        <time>2012-08-10T08:10:23Z</time>
      </trkpt>
      <trkpt lat="45.37601" lon="6.18939">
        <ele>1588.2353515625</ele>
        <time>2012-08-10T08:10:28Z</time>
      </trkpt>
      <trkpt lat="45.37599" lon="6.18942">
        <ele>1589.6772460938</ele>
        <time>2012-08-10T08:10:33Z</time>
      </trkpt>
      <trkpt lat="45.37596" lon="6.18943">
        <ele>1592.0805664062</ele>
        <time>2012-08-10T08:10:39Z</time>
      </trkpt>
      <trkpt lat="45.37592" lon="6.18945">
        <ele>1593.5224609375</ele>
        <time>2012-08-10T08:10:45Z</time>
      </trkpt>
      <trkpt lat="45.37591" lon="6.18948">
        <ele>1594.4836425781</ele>
        <time>2012-08-10T08:10:50Z</time>
      </trkpt>
      <trkpt lat="45.37589" lon="6.18951">
        <ele>1594.9643554688</ele>
        <time>2012-08-10T08:10:56Z</time>
      </trkpt>
      <trkpt lat="45.37588" lon="6.18956">
        <ele>1595.92578125</ele>
        <time>2012-08-10T08:11:03Z</time>
      </trkpt>
      <trkpt lat="45.37588" lon="6.18961">
        <ele>1595.92578125</ele>
        <time>2012-08-10T08:11:09Z</time>
      </trkpt>
      <trkpt lat="45.37584" lon="6.18964">
        <ele>1598.3291015625</ele>
        <time>2012-08-10T08:11:17Z</time>
      </trkpt>
      <trkpt lat="45.37583" lon="6.18968">
        <ele>1600.732421875</ele>
        <time>2012-08-10T08:11:22Z</time>
      </trkpt>
      <trkpt lat="45.37579" lon="6.18971">
        <ele>1602.6550292969</ele>
        <time>2012-08-10T08:11:30Z</time>
      </trkpt>
      <trkpt lat="45.37574" lon="6.18972">
        <ele>1603.1357421875</ele>
        <time>2012-08-10T08:11:38Z</time>
      </trkpt>
      <trkpt lat="45.37571" lon="6.18973">
        <ele>1604.0971679688</ele>
        <time>2012-08-10T08:11:43Z</time>
      </trkpt>
      <trkpt lat="45.37568" lon="6.18972">
        <ele>1603.6164550781</ele>
        <time>2012-08-10T08:11:47Z</time>
      </trkpt>
      <trkpt lat="45.37566" lon="6.18972">
        <ele>1604.5776367188</ele>
        <time>2012-08-10T08:11:51Z</time>
      </trkpt>
      <trkpt lat="45.37562" lon="6.18974">
        <ele>1606.01953125</ele>
        <time>2012-08-10T08:11:57Z</time>
      </trkpt>
      <trkpt lat="45.37559" lon="6.18977">
        <ele>1606.5002441406</ele>
        <time>2012-08-10T08:12:02Z</time>
      </trkpt>
      <trkpt lat="45.37556" lon="6.18975">
        <ele>1607.4616699219</ele>
        <time>2012-08-10T08:12:06Z</time>
      </trkpt>
      <trkpt lat="45.37553" lon="6.18974">
        <ele>1609.3842773438</ele>
        <time>2012-08-10T08:12:12Z</time>
      </trkpt>
      <trkpt lat="45.37548" lon="6.1897">
        <ele>1609.8647460938</ele>
        <time>2012-08-10T08:12:19Z</time>
      </trkpt>
      <trkpt lat="45.37543" lon="6.1897">
        <ele>1610.3454589844</ele>
        <time>2012-08-10T08:12:26Z</time>
      </trkpt>
      <trkpt lat="45.37539" lon="6.18966">
        <ele>1610.3454589844</ele>
        <time>2012-08-10T08:12:33Z</time>
      </trkpt>
      <trkpt lat="45.37534" lon="6.18962">
        <ele>1610.826171875</ele>
        <time>2012-08-10T08:12:41Z</time>
      </trkpt>
      <trkpt lat="45.3753" lon="6.18958">
        <ele>1610.826171875</ele>
        <time>2012-08-10T08:12:48Z</time>
      </trkpt>
      <trkpt lat="45.37526" lon="6.18952">
        <ele>1611.7875976562</ele>
        <time>2012-08-10T08:12:55Z</time>
      </trkpt>
      <trkpt lat="45.37523" lon="6.18949">
        <ele>1612.7490234375</ele>
        <time>2012-08-10T08:13:00Z</time>
      </trkpt>
      <trkpt lat="45.37519" lon="6.18952">
        <ele>1613.7102050781</ele>
        <time>2012-08-10T08:13:07Z</time>
      </trkpt>
      <trkpt lat="45.37515" lon="6.18955">
        <ele>1614.1909179688</ele>
        <time>2012-08-10T08:13:15Z</time>
      </trkpt>
      <trkpt lat="45.3751" lon="6.18958">
        <ele>1615.6330566406</ele>
        <time>2012-08-10T08:13:23Z</time>
      </trkpt>
      <trkpt lat="45.37505" lon="6.18957">
        <ele>1615.15234375</ele>
        <time>2012-08-10T08:13:30Z</time>
      </trkpt>
      <trkpt lat="45.37502" lon="6.18955">
        <ele>1615.15234375</ele>
        <time>2012-08-10T08:13:36Z</time>
      </trkpt>
      <trkpt lat="45.37498" lon="6.18948">
        <ele>1615.6330566406</ele>
        <time>2012-08-10T08:13:43Z</time>
      </trkpt>
      <trkpt lat="45.37492" lon="6.18946">
        <ele>1616.1135253906</ele>
        <time>2012-08-10T08:13:51Z</time>
      </trkpt>
      <trkpt lat="45.3749" lon="6.18946">
        <ele>1617.5554199219</ele>
        <time>2012-08-10T08:13:57Z</time>
      </trkpt>
      <trkpt lat="45.37487" lon="6.18944">
        <ele>1618.5168457031</ele>
        <time>2012-08-10T08:14:03Z</time>
      </trkpt>
      <trkpt lat="45.37483" lon="6.1894">
        <ele>1619.9587402344</ele>
        <time>2012-08-10T08:14:10Z</time>
      </trkpt>
      <trkpt lat="45.37479" lon="6.18933">
        <ele>1619.9587402344</ele>
        <time>2012-08-10T08:14:16Z</time>
      </trkpt>
      <trkpt lat="45.37477" lon="6.18927">
        <ele>1621.4006347656</ele>
        <time>2012-08-10T08:14:22Z</time>
      </trkpt>
      <trkpt lat="45.37474" lon="6.18924">
        <ele>1621.4006347656</ele>
        <time>2012-08-10T08:14:27Z</time>
      </trkpt>
      <trkpt lat="45.37471" lon="6.18926">
        <ele>1623.3234863281</ele>
        <time>2012-08-10T08:14:34Z</time>
      </trkpt>
      <trkpt lat="45.37469" lon="6.18936">
        <ele>1625.2458496094</ele>
        <time>2012-08-10T08:14:43Z</time>
      </trkpt>
      <trkpt lat="45.37467" lon="6.18942">
        <ele>1626.6879882812</ele>
        <time>2012-08-10T08:14:50Z</time>
      </trkpt>
      <trkpt lat="45.37465" lon="6.18945">
        <ele>1627.6491699219</ele>
        <time>2012-08-10T08:14:55Z</time>
      </trkpt>
      <trkpt lat="45.37462" lon="6.18949">
        <ele>1628.6108398438</ele>
        <time>2012-08-10T08:15:01Z</time>
      </trkpt>
      <trkpt lat="45.3746" lon="6.18954">
        <ele>1630.5334472656</ele>
        <time>2012-08-10T08:15:08Z</time>
      </trkpt>
      <trkpt lat="45.37456" lon="6.18958">
        <ele>1631.4946289062</ele>
        <time>2012-08-10T08:15:16Z</time>
      </trkpt>
      <trkpt lat="45.37453" lon="6.18961">
        <ele>1633.4172363281</ele>
        <time>2012-08-10T08:15:23Z</time>
      </trkpt>
      <trkpt lat="45.37451" lon="6.18966">
        <ele>1634.859375</ele>
        <time>2012-08-10T08:15:29Z</time>
      </trkpt>
      <trkpt lat="45.37449" lon="6.1897">
        <ele>1636.3012695312</ele>
        <time>2012-08-10T08:15:35Z</time>
      </trkpt>
      <trkpt lat="45.37446" lon="6.18972">
        <ele>1637.2624511719</ele>
        <time>2012-08-10T08:15:41Z</time>
      </trkpt>
      <trkpt lat="45.37443" lon="6.18973">
        <ele>1639.1850585938</ele>
        <time>2012-08-10T08:15:47Z</time>
      </trkpt>
      <trkpt lat="45.3744" lon="6.18971">
        <ele>1640.146484375</ele>
        <time>2012-08-10T08:15:53Z</time>
      </trkpt>
      <trkpt lat="45.37437" lon="6.18973">
        <ele>1641.1076660156</ele>
        <time>2012-08-10T08:15:58Z</time>
      </trkpt>
      <trkpt lat="45.37435" lon="6.18975">
        <ele>1643.0302734375</ele>
        <time>2012-08-10T08:16:03Z</time>
      </trkpt>
      <trkpt lat="45.37433" lon="6.18978">
        <ele>1643.5109863281</ele>
        <time>2012-08-10T08:16:08Z</time>
      </trkpt>
      <trkpt lat="45.37431" lon="6.18985">
        <ele>1644.953125</ele>
        <time>2012-08-10T08:16:15Z</time>
      </trkpt>
      <trkpt lat="45.37429" lon="6.1899">
        <ele>1644.953125</ele>
        <time>2012-08-10T08:16:21Z</time>
      </trkpt>
      <trkpt lat="45.37426" lon="6.18993">
        <ele>1645.4338378906</ele>
        <time>2012-08-10T08:16:28Z</time>
      </trkpt>
      <trkpt lat="45.37423" lon="6.18997">
        <ele>1646.3952636719</ele>
        <time>2012-08-10T08:16:34Z</time>
      </trkpt>
      <trkpt lat="45.37419" lon="6.19001">
        <ele>1648.7983398438</ele>
        <time>2012-08-10T08:16:42Z</time>
      </trkpt>
      <trkpt lat="45.37416" lon="6.19005">
        <ele>1650.7209472656</ele>
        <time>2012-08-10T08:16:48Z</time>
      </trkpt>
      <trkpt lat="45.37415" lon="6.1901">
        <ele>1652.1628417969</ele>
        <time>2012-08-10T08:16:54Z</time>
      </trkpt>
      <trkpt lat="45.37413" lon="6.1901">
        <ele>1653.1242675781</ele>
        <time>2012-08-10T08:16:59Z</time>
      </trkpt>
      <trkpt lat="45.37411" lon="6.19008">
        <ele>1653.6049804688</ele>
        <time>2012-08-10T08:17:04Z</time>
      </trkpt>
      <trkpt lat="45.3741" lon="6.19001">
        <ele>1654.5661621094</ele>
        <time>2012-08-10T08:17:10Z</time>
      </trkpt>
      <trkpt lat="45.37407" lon="6.18995">
        <ele>1655.5275878906</ele>
        <time>2012-08-10T08:17:17Z</time>
      </trkpt>
      <trkpt lat="45.37404" lon="6.1899">
        <ele>1657.4501953125</ele>
        <time>2012-08-10T08:17:24Z</time>
      </trkpt>
      <trkpt lat="45.37402" lon="6.18992">
        <ele>1657.9309082031</ele>
        <time>2012-08-10T08:17:28Z</time>
      </trkpt>
      <trkpt lat="45.37401" lon="6.18996">
        <ele>1658.4113769531</ele>
        <time>2012-08-10T08:17:34Z</time>
      </trkpt>
      <trkpt lat="45.37398" lon="6.18996">
        <ele>1659.3728027344</ele>
        <time>2012-08-10T08:17:40Z</time>
      </trkpt>
      <trkpt lat="45.37395" lon="6.18993">
        <ele>1660.3342285156</ele>
        <time>2012-08-10T08:17:46Z</time>
      </trkpt>
      <trkpt lat="45.37392" lon="6.18996">
        <ele>1662.7375488281</ele>
        <time>2012-08-10T08:17:52Z</time>
      </trkpt>
      <trkpt lat="45.37391" lon="6.18999">
        <ele>1663.6987304688</ele>
        <time>2012-08-10T08:17:56Z</time>
      </trkpt>
      <trkpt lat="45.3739" lon="6.19002">
        <ele>1665.1408691406</ele>
        <time>2012-08-10T08:18:02Z</time>
      </trkpt>
      <trkpt lat="45.37387" lon="6.19001">
        <ele>1666.1020507812</ele>
        <time>2012-08-10T08:18:07Z</time>
      </trkpt>
      <trkpt lat="45.37383" lon="6.19001">
        <ele>1667.5439453125</ele>
        <time>2012-08-10T08:18:13Z</time>
      </trkpt>
      <trkpt lat="45.37377" lon="6.18998">
        <ele>1668.9860839844</ele>
        <time>2012-08-10T08:18:20Z</time>
      </trkpt>
      <trkpt lat="45.37373" lon="6.18996">
        <ele>1670.4279785156</ele>
        <time>2012-08-10T08:18:27Z</time>
      </trkpt>
      <trkpt lat="45.37371" lon="6.18995">
        <ele>1671.8698730469</ele>
        <time>2012-08-10T08:18:32Z</time>
      </trkpt>
      <trkpt lat="45.37366" lon="6.18992">
        <ele>1673.7924804688</ele>
        <time>2012-08-10T08:18:39Z</time>
      </trkpt>
      <trkpt lat="45.37362" lon="6.18989">
        <ele>1674.75390625</ele>
        <time>2012-08-10T08:18:46Z</time>
      </trkpt>
      <trkpt lat="45.37359" lon="6.18988">
        <ele>1676.1960449219</ele>
        <time>2012-08-10T08:18:53Z</time>
      </trkpt>
      <trkpt lat="45.37356" lon="6.18987">
        <ele>1676.1960449219</ele>
        <time>2012-08-10T08:18:58Z</time>
      </trkpt>
      <trkpt lat="45.37354" lon="6.18985">
        <ele>1675.7150878906</ele>
        <time>2012-08-10T08:19:03Z</time>
      </trkpt>
      <trkpt lat="45.37352" lon="6.18982">
        <ele>1677.1574707031</ele>
        <time>2012-08-10T08:19:09Z</time>
      </trkpt>
      <trkpt lat="45.37349" lon="6.18979">
        <ele>1679.0798339844</ele>
        <time>2012-08-10T08:19:15Z</time>
      </trkpt>
      <trkpt lat="45.37347" lon="6.18974">
        <ele>1681.0026855469</ele>
        <time>2012-08-10T08:19:21Z</time>
      </trkpt>
      <trkpt lat="45.37344" lon="6.1897">
        <ele>1683.4057617188</ele>
        <time>2012-08-10T08:19:29Z</time>
      </trkpt>
      <trkpt lat="45.37342" lon="6.18965">
        <ele>1685.3283691406</ele>
        <time>2012-08-10T08:19:35Z</time>
      </trkpt>
      <trkpt lat="45.37341" lon="6.18961">
        <ele>1687.2509765625</ele>
        <time>2012-08-10T08:19:40Z</time>
      </trkpt>
      <trkpt lat="45.37341" lon="6.18958">
        <ele>1687.7316894531</ele>
        <time>2012-08-10T08:19:44Z</time>
      </trkpt>
      <trkpt lat="45.37339" lon="6.18952">
        <ele>1688.6931152344</ele>
        <time>2012-08-10T08:19:51Z</time>
      </trkpt>
      <trkpt lat="45.37338" lon="6.18946">
        <ele>1690.1350097656</ele>
        <time>2012-08-10T08:19:57Z</time>
      </trkpt>
      <trkpt lat="45.37337" lon="6.18941">
        <ele>1691.0961914062</ele>
        <time>2012-08-10T08:20:02Z</time>
      </trkpt>
      <trkpt lat="45.37336" lon="6.18938">
        <ele>1692.5385742188</ele>
        <time>2012-08-10T08:20:10Z</time>
      </trkpt>
      <trkpt lat="45.37336" lon="6.18931">
        <ele>1693.4997558594</ele>
        <time>2012-08-10T08:20:16Z</time>
      </trkpt>
      <trkpt lat="45.37334" lon="6.18927">
        <ele>1694.9416503906</ele>
        <time>2012-08-10T08:20:22Z</time>
      </trkpt>
      <trkpt lat="45.37332" lon="6.18921">
        <ele>1696.3837890625</ele>
        <time>2012-08-10T08:20:28Z</time>
      </trkpt>
      <trkpt lat="45.37328" lon="6.18916">
        <ele>1697.8256835938</ele>
        <time>2012-08-10T08:20:36Z</time>
      </trkpt>
      <trkpt lat="45.37326" lon="6.18914">
        <ele>1698.7868652344</ele>
        <time>2012-08-10T08:20:45Z</time>
      </trkpt>
      <trkpt lat="45.37323" lon="6.18915">
        <ele>1699.7482910156</ele>
        <time>2012-08-10T08:20:52Z</time>
      </trkpt>
      <trkpt lat="45.37319" lon="6.18915">
        <ele>1700.2290039062</ele>
        <time>2012-08-10T08:21:00Z</time>
      </trkpt>
      <trkpt lat="45.37315" lon="6.18913">
        <ele>1700.7094726562</ele>
        <time>2012-08-10T08:21:07Z</time>
      </trkpt>
      <trkpt lat="45.3731" lon="6.18912">
        <ele>1700.7094726562</ele>
        <time>2012-08-10T08:21:13Z</time>
      </trkpt>
      <trkpt lat="45.37308" lon="6.18914">
        <ele>1699.7482910156</ele>
        <time>2012-08-10T08:21:19Z</time>
      </trkpt>
      <trkpt lat="45.37304" lon="6.18916">
        <ele>1700.7094726562</ele>
        <time>2012-08-10T08:21:25Z</time>
      </trkpt>
      <trkpt lat="45.373" lon="6.18919">
        <ele>1700.7094726562</ele>
        <time>2012-08-10T08:21:31Z</time>
      </trkpt>
      <trkpt lat="45.37296" lon="6.1892">
        <ele>1705.5161132812</ele>
        <time>2012-08-10T08:21:38Z</time>
      </trkpt>
      <trkpt lat="45.37294" lon="6.18922">
        <ele>1709.3615722656</ele>
        <time>2012-08-10T08:21:43Z</time>
      </trkpt>
      <trkpt lat="45.37292" lon="6.18926">
        <ele>1711.7648925781</ele>
        <time>2012-08-10T08:21:50Z</time>
      </trkpt>
      <trkpt lat="45.37294" lon="6.18929">
        <ele>1712.7260742188</ele>
        <time>2012-08-10T08:21:56Z</time>
      </trkpt>
      <trkpt lat="45.37291" lon="6.18931">
        <ele>1713.2067871094</ele>
        <time>2012-08-10T08:22:02Z</time>
      </trkpt>
      <trkpt lat="45.37289" lon="6.18934">
        <ele>1714.6486816406</ele>
        <time>2012-08-10T08:22:08Z</time>
      </trkpt>
      <trkpt lat="45.37285" lon="6.18936">
        <ele>1717.0520019531</ele>
        <time>2012-08-10T08:22:17Z</time>
      </trkpt>
      <trkpt lat="45.37283" lon="6.18936">
        <ele>1719.4553222656</ele>
        <time>2012-08-10T08:22:22Z</time>
      </trkpt>
      <trkpt lat="45.37281" lon="6.18936">
        <ele>1719.4553222656</ele>
        <time>2012-08-10T08:22:27Z</time>
      </trkpt>
      <trkpt lat="45.37277" lon="6.18934">
        <ele>1722.3391113281</ele>
        <time>2012-08-10T08:22:36Z</time>
      </trkpt>
      <trkpt lat="45.37274" lon="6.18931">
        <ele>1724.2619628906</ele>
        <time>2012-08-10T08:22:43Z</time>
      </trkpt>
      <trkpt lat="45.37268" lon="6.18928">
        <ele>1725.2231445312</ele>
        <time>2012-08-10T08:22:51Z</time>
      </trkpt>
      <trkpt lat="45.37264" lon="6.18927">
        <ele>1725.7038574219</ele>
        <time>2012-08-10T08:22:58Z</time>
      </trkpt>
      <trkpt lat="45.37265" lon="6.1893">
        <ele>1725.7038574219</ele>
        <time>2012-08-10T08:23:04Z</time>
      </trkpt>
      <trkpt lat="45.37266" lon="6.18936">
        <ele>1726.1845703125</ele>
        <time>2012-08-10T08:23:11Z</time>
      </trkpt>
      <trkpt lat="45.37268" lon="6.18942">
        <ele>1726.6652832031</ele>
        <time>2012-08-10T08:23:18Z</time>
      </trkpt>
      <trkpt lat="45.37268" lon="6.18946">
        <ele>1726.6652832031</ele>
        <time>2012-08-10T08:23:24Z</time>
      </trkpt>
      <trkpt lat="45.37266" lon="6.18947">
        <ele>1727.6264648438</ele>
        <time>2012-08-10T08:23:31Z</time>
      </trkpt>
      <trkpt lat="45.37263" lon="6.18948">
        <ele>1728.1071777344</ele>
        <time>2012-08-10T08:23:38Z</time>
      </trkpt>
      <trkpt lat="45.37263" lon="6.18954">
        <ele>1730.5104980469</ele>
        <time>2012-08-10T08:23:46Z</time>
      </trkpt>
      <trkpt lat="45.37263" lon="6.18958">
        <ele>1732.4331054688</ele>
        <time>2012-08-10T08:23:53Z</time>
      </trkpt>
      <trkpt lat="45.37264" lon="6.18963">
        <ele>1732.4331054688</ele>
        <time>2012-08-10T08:24:00Z</time>
      </trkpt>
      <trkpt lat="45.37266" lon="6.18969">
        <ele>1733.875</ele>
        <time>2012-08-10T08:24:07Z</time>
      </trkpt>
      <trkpt lat="45.37266" lon="6.18974">
        <ele>1735.7976074219</ele>
        <time>2012-08-10T08:24:14Z</time>
      </trkpt>
      <trkpt lat="45.37265" lon="6.18978">
        <ele>1737.2395019531</ele>
        <time>2012-08-10T08:24:21Z</time>
      </trkpt>
      <trkpt lat="45.37266" lon="6.18983">
        <ele>1738.2009277344</ele>
        <time>2012-08-10T08:24:27Z</time>
      </trkpt>
      <trkpt lat="45.37265" lon="6.18986">
        <ele>1739.162109375</ele>
        <time>2012-08-10T08:24:34Z</time>
      </trkpt>
      <trkpt lat="45.37264" lon="6.18992">
        <ele>1740.1237792969</ele>
        <time>2012-08-10T08:24:41Z</time>
      </trkpt>
      <trkpt lat="45.37263" lon="6.18995">
        <ele>1740.6042480469</ele>
        <time>2012-08-10T08:24:47Z</time>
      </trkpt>
      <trkpt lat="45.37262" lon="6.19">
        <ele>1743.0075683594</ele>
        <time>2012-08-10T08:24:54Z</time>
      </trkpt>
      <trkpt lat="45.37259" lon="6.19003">
        <ele>1743.0075683594</ele>
        <time>2012-08-10T08:24:59Z</time>
      </trkpt>
      <trkpt lat="45.37257" lon="6.19004">
        <ele>1743.9689941406</ele>
        <time>2012-08-10T08:25:07Z</time>
      </trkpt>
      <trkpt lat="45.37256" lon="6.19006">
        <ele>1744.4494628906</ele>
        <time>2012-08-10T08:25:11Z</time>
      </trkpt>
      <trkpt lat="45.37254" lon="6.1901">
        <ele>1744.9301757812</ele>
        <time>2012-08-10T08:25:17Z</time>
      </trkpt>
      <trkpt lat="45.37251" lon="6.19013">
        <ele>1746.8527832031</ele>
        <time>2012-08-10T08:25:24Z</time>
      </trkpt>
      <trkpt lat="45.3725" lon="6.19017">
        <ele>1747.8142089844</ele>
        <time>2012-08-10T08:25:30Z</time>
      </trkpt>
      <trkpt lat="45.37247" lon="6.19021">
        <ele>1748.775390625</ele>
        <time>2012-08-10T08:25:37Z</time>
      </trkpt>
      <trkpt lat="45.37243" lon="6.19024">
        <ele>1750.2175292969</ele>
        <time>2012-08-10T08:25:44Z</time>
      </trkpt>
      <trkpt lat="45.37241" lon="6.19024">
        <ele>1751.6594238281</ele>
        <time>2012-08-10T08:25:50Z</time>
      </trkpt>
      <trkpt lat="45.37234" lon="6.19026">
        <ele>1754.0627441406</ele>
        <time>2012-08-10T08:25:59Z</time>
      </trkpt>
      <trkpt lat="45.37229" lon="6.1903">
        <ele>1755.9851074219</ele>
        <time>2012-08-10T08:26:06Z</time>
      </trkpt>
      <trkpt lat="45.37224" lon="6.19032">
        <ele>1757.908203125</ele>
        <time>2012-08-10T08:26:13Z</time>
      </trkpt>
      <trkpt lat="45.3722" lon="6.19033">
        <ele>1759.8305664062</ele>
        <time>2012-08-10T08:26:20Z</time>
      </trkpt>
      <trkpt lat="45.37216" lon="6.19038">
        <ele>1761.7534179688</ele>
        <time>2012-08-10T08:26:27Z</time>
      </trkpt>
      <trkpt lat="45.37212" lon="6.19041">
        <ele>1762.7145996094</ele>
        <time>2012-08-10T08:26:34Z</time>
      </trkpt>
      <trkpt lat="45.37206" lon="6.19041">
        <ele>1764.6372070312</ele>
        <time>2012-08-10T08:26:43Z</time>
      </trkpt>
      <trkpt lat="45.37204" lon="6.19044">
        <ele>1766.0791015625</ele>
        <time>2012-08-10T08:26:49Z</time>
      </trkpt>
      <trkpt lat="45.37203" lon="6.1905">
        <ele>1767.5209960938</ele>
        <time>2012-08-10T08:26:56Z</time>
      </trkpt>
      <trkpt lat="45.37199" lon="6.19057">
        <ele>1768.482421875</ele>
        <time>2012-08-10T08:27:04Z</time>
      </trkpt>
      <trkpt lat="45.37195" lon="6.19063">
        <ele>1768.482421875</ele>
        <time>2012-08-10T08:27:12Z</time>
      </trkpt>
      <trkpt lat="45.37194" lon="6.1907">
        <ele>1770.4050292969</ele>
        <time>2012-08-10T08:27:19Z</time>
      </trkpt>
      <trkpt lat="45.37196" lon="6.19078">
        <ele>1771.3662109375</ele>
        <time>2012-08-10T08:27:26Z</time>
      </trkpt>
      <trkpt lat="45.37201" lon="6.19083">
        <ele>1771.8469238281</ele>
        <time>2012-08-10T08:27:33Z</time>
      </trkpt>
      <trkpt lat="45.37201" lon="6.19089">
        <ele>1771.8469238281</ele>
        <time>2012-08-10T08:27:39Z</time>
      </trkpt>
      <trkpt lat="45.37201" lon="6.19091">
        <ele>1773.7697753906</ele>
        <time>2012-08-10T08:27:44Z</time>
      </trkpt>
      <trkpt lat="45.37203" lon="6.19095">
        <ele>1775.2116699219</ele>
        <time>2012-08-10T08:27:50Z</time>
      </trkpt>
      <trkpt lat="45.37201" lon="6.19097">
        <ele>1775.6923828125</ele>
        <time>2012-08-10T08:27:56Z</time>
      </trkpt>
      <trkpt lat="45.37198" lon="6.19097">
        <ele>1777.1345214844</ele>
        <time>2012-08-10T08:28:01Z</time>
      </trkpt>
      <trkpt lat="45.37195" lon="6.19098">
        <ele>1778.095703125</ele>
        <time>2012-08-10T08:28:09Z</time>
      </trkpt>
      <trkpt lat="45.37193" lon="6.19101">
        <ele>1778.095703125</ele>
        <time>2012-08-10T08:28:14Z</time>
      </trkpt>
      <trkpt lat="45.37191" lon="6.19106">
        <ele>1778.5764160156</ele>
        <time>2012-08-10T08:28:22Z</time>
      </trkpt>
      <trkpt lat="45.37191" lon="6.19109">
        <ele>1779.0568847656</ele>
        <time>2012-08-10T08:28:27Z</time>
      </trkpt>
      <trkpt lat="45.37192" lon="6.19116">
        <ele>1780.4990234375</ele>
        <time>2012-08-10T08:28:34Z</time>
      </trkpt>
      <trkpt lat="45.37191" lon="6.19122">
        <ele>1781.4602050781</ele>
        <time>2012-08-10T08:28:42Z</time>
      </trkpt>
      <trkpt lat="45.37188" lon="6.19124">
        <ele>1782.9020996094</ele>
        <time>2012-08-10T08:28:48Z</time>
      </trkpt>
      <trkpt lat="45.37186" lon="6.19125">
        <ele>1785.3054199219</ele>
        <time>2012-08-10T08:28:55Z</time>
      </trkpt>
      <trkpt lat="45.37186" lon="6.19129">
        <ele>1787.2280273438</ele>
        <time>2012-08-10T08:29:01Z</time>
      </trkpt>
      <trkpt lat="45.37185" lon="6.19132">
        <ele>1788.6704101562</ele>
        <time>2012-08-10T08:29:07Z</time>
      </trkpt>
      <trkpt lat="45.37181" lon="6.19133">
        <ele>1791.0734863281</ele>
        <time>2012-08-10T08:29:14Z</time>
      </trkpt>
      <trkpt lat="45.37179" lon="6.19133">
        <ele>1790.5927734375</ele>
        <time>2012-08-10T08:29:20Z</time>
      </trkpt>
      <trkpt lat="45.37175" lon="6.19134">
        <ele>1790.5927734375</ele>
        <time>2012-08-10T08:29:27Z</time>
      </trkpt>
      <trkpt lat="45.37172" lon="6.19133">
        <ele>1790.1123046875</ele>
        <time>2012-08-10T08:29:33Z</time>
      </trkpt>
      <trkpt lat="45.3717" lon="6.19134">
        <ele>1789.6315917969</ele>
        <time>2012-08-10T08:29:38Z</time>
      </trkpt>
      <trkpt lat="45.37167" lon="6.1913">
        <ele>1794.4379882812</ele>
        <time>2012-08-10T08:29:44Z</time>
      </trkpt>
      <trkpt lat="45.37163" lon="6.19129">
        <ele>1796.8413085938</ele>
        <time>2012-08-10T08:29:50Z</time>
      </trkpt>
      <trkpt lat="45.37159" lon="6.19128">
        <ele>1798.7639160156</ele>
        <time>2012-08-10T08:29:56Z</time>
      </trkpt>
      <trkpt lat="45.37157" lon="6.19127">
        <ele>1802.6091308594</ele>
        <time>2012-08-10T08:30:01Z</time>
      </trkpt>
      <trkpt lat="45.37154" lon="6.19128">
        <ele>1803.5705566406</ele>
        <time>2012-08-10T08:30:07Z</time>
      </trkpt>
      <trkpt lat="45.37151" lon="6.19129">
        <ele>1803.08984375</ele>
        <time>2012-08-10T08:30:12Z</time>
      </trkpt>
      <trkpt lat="45.37149" lon="6.19127">
        <ele>1803.08984375</ele>
        <time>2012-08-10T08:30:17Z</time>
      </trkpt>
      <trkpt lat="45.37145" lon="6.19124">
        <ele>1804.5319824219</ele>
        <time>2012-08-10T08:30:25Z</time>
      </trkpt>
      <trkpt lat="45.37141" lon="6.19123">
        <ele>1805.9738769531</ele>
        <time>2012-08-10T08:30:33Z</time>
      </trkpt>
      <trkpt lat="45.37137" lon="6.19123">
        <ele>1806.4545898438</ele>
        <time>2012-08-10T08:30:41Z</time>
      </trkpt>
      <trkpt lat="45.37133" lon="6.1912">
        <ele>1807.8967285156</ele>
        <time>2012-08-10T08:30:46Z</time>
      </trkpt>
      <trkpt lat="45.3713" lon="6.19114">
        <ele>1807.8967285156</ele>
        <time>2012-08-10T08:30:53Z</time>
      </trkpt>
      <trkpt lat="45.37125" lon="6.19108">
        <ele>1808.8579101562</ele>
        <time>2012-08-10T08:31:02Z</time>
      </trkpt>
      <trkpt lat="45.37123" lon="6.19104">
        <ele>1810.2998046875</ele>
        <time>2012-08-10T08:31:08Z</time>
      </trkpt>
      <trkpt lat="45.3712" lon="6.19102">
        <ele>1812.2224121094</ele>
        <time>2012-08-10T08:31:15Z</time>
      </trkpt>
      <trkpt lat="45.37117" lon="6.19099">
        <ele>1813.6643066406</ele>
        <time>2012-08-10T08:31:22Z</time>
      </trkpt>
      <trkpt lat="45.37114" lon="6.19098">
        <ele>1815.1064453125</ele>
        <time>2012-08-10T08:31:29Z</time>
      </trkpt>
      <trkpt lat="45.37111" lon="6.19096">
        <ele>1815.1064453125</ele>
        <time>2012-08-10T08:31:34Z</time>
      </trkpt>
      <trkpt lat="45.37108" lon="6.19092">
        <ele>1813.6643066406</ele>
        <time>2012-08-10T08:31:40Z</time>
      </trkpt>
      <trkpt lat="45.37104" lon="6.19087">
        <ele>1817.5095214844</ele>
        <time>2012-08-10T08:31:47Z</time>
      </trkpt>
      <trkpt lat="45.37102" lon="6.19084">
        <ele>1819.4323730469</ele>
        <time>2012-08-10T08:31:53Z</time>
      </trkpt>
      <trkpt lat="45.371" lon="6.19086">
        <ele>1820.3937988281</ele>
        <time>2012-08-10T08:31:58Z</time>
      </trkpt>
      <trkpt lat="45.37098" lon="6.19092">
        <ele>1820.3937988281</ele>
        <time>2012-08-10T08:32:06Z</time>
      </trkpt>
      <trkpt lat="45.37098" lon="6.19099">
        <ele>1822.31640625</ele>
        <time>2012-08-10T08:32:13Z</time>
      </trkpt>
      <trkpt lat="45.37098" lon="6.19105">
        <ele>1823.7583007812</ele>
        <time>2012-08-10T08:32:20Z</time>
      </trkpt>
      <trkpt lat="45.37096" lon="6.19107">
        <ele>1823.7583007812</ele>
        <time>2012-08-10T08:32:26Z</time>
      </trkpt>
      <trkpt lat="45.37092" lon="6.19103">
        <ele>1824.7197265625</ele>
        <time>2012-08-10T08:32:33Z</time>
      </trkpt>
      <trkpt lat="45.37089" lon="6.19103">
        <ele>1826.1616210938</ele>
        <time>2012-08-10T08:32:39Z</time>
      </trkpt>
      <trkpt lat="45.37085" lon="6.19101">
        <ele>1829.5261230469</ele>
        <time>2012-08-10T08:32:48Z</time>
      </trkpt>
      <trkpt lat="45.37081" lon="6.19103">
        <ele>1830.9682617188</ele>
        <time>2012-08-10T08:32:55Z</time>
      </trkpt>
      <trkpt lat="45.37078" lon="6.19106">
        <ele>1831.9294433594</ele>
        <time>2012-08-10T08:33:02Z</time>
      </trkpt>
      <trkpt lat="45.37077" lon="6.19111">
        <ele>1832.41015625</ele>
        <time>2012-08-10T08:33:07Z</time>
      </trkpt>
      <trkpt lat="45.37075" lon="6.19113">
        <ele>1833.3713378906</ele>
        <time>2012-08-10T08:33:13Z</time>
      </trkpt>
      <trkpt lat="45.37074" lon="6.19118">
        <ele>1834.8134765625</ele>
        <time>2012-08-10T08:33:19Z</time>
      </trkpt>
      <trkpt lat="45.37072" lon="6.19124">
        <ele>1836.7360839844</ele>
        <time>2012-08-10T08:33:25Z</time>
      </trkpt>
      <trkpt lat="45.37072" lon="6.1913">
        <ele>1837.6975097656</ele>
        <time>2012-08-10T08:33:30Z</time>
      </trkpt>
      <trkpt lat="45.37071" lon="6.19137">
        <ele>1839.1394042969</ele>
        <time>2012-08-10T08:33:37Z</time>
      </trkpt>
      <trkpt lat="45.37072" lon="6.19143">
        <ele>1841.0620117188</ele>
        <time>2012-08-10T08:33:44Z</time>
      </trkpt>
      <trkpt lat="45.37069" lon="6.19147">
        <ele>1842.5041503906</ele>
        <time>2012-08-10T08:33:51Z</time>
      </trkpt>
      <trkpt lat="45.37066" lon="6.19152">
        <ele>1844.9072265625</ele>
        <time>2012-08-10T08:34:00Z</time>
      </trkpt>
      <trkpt lat="45.37065" lon="6.19157">
        <ele>1847.310546875</ele>
        <time>2012-08-10T08:34:09Z</time>
      </trkpt>
      <trkpt lat="45.37065" lon="6.19162">
        <ele>1849.2331542969</ele>
        <time>2012-08-10T08:34:15Z</time>
      </trkpt>
      <trkpt lat="45.37069" lon="6.1916">
        <ele>1850.6750488281</ele>
        <time>2012-08-10T08:34:22Z</time>
      </trkpt>
      <trkpt lat="45.37072" lon="6.1916">
        <ele>1852.1171875</ele>
        <time>2012-08-10T08:34:29Z</time>
      </trkpt>
      <trkpt lat="45.37078" lon="6.1916">
        <ele>1854.0400390625</ele>
        <time>2012-08-10T08:34:36Z</time>
      </trkpt>
      <trkpt lat="45.37078" lon="6.19163">
        <ele>1854.5205078125</ele>
        <time>2012-08-10T08:34:41Z</time>
      </trkpt>
      <trkpt lat="45.37078" lon="6.19168">
        <ele>1855.4819335938</ele>
        <time>2012-08-10T08:34:48Z</time>
      </trkpt>
      <trkpt lat="45.37077" lon="6.19173">
        <ele>1856.923828125</ele>
        <time>2012-08-10T08:34:55Z</time>
      </trkpt>
      <trkpt lat="45.37075" lon="6.19179">
        <ele>1858.8464355469</ele>
        <time>2012-08-10T08:35:02Z</time>
      </trkpt>
      <trkpt lat="45.37074" lon="6.19185">
        <ele>1860.7690429688</ele>
        <time>2012-08-10T08:35:09Z</time>
      </trkpt>
      <trkpt lat="45.37073" lon="6.19191">
        <ele>1862.2109375</ele>
        <time>2012-08-10T08:35:17Z</time>
      </trkpt>
      <trkpt lat="45.37077" lon="6.19195">
        <ele>1864.1335449219</ele>
        <time>2012-08-10T08:35:25Z</time>
      </trkpt>
      <trkpt lat="45.3708" lon="6.19197">
        <ele>1865.5756835938</ele>
        <time>2012-08-10T08:35:32Z</time>
      </trkpt>
      <trkpt lat="45.37083" lon="6.19202">
        <ele>1867.017578125</ele>
        <time>2012-08-10T08:35:39Z</time>
      </trkpt>
      <trkpt lat="45.37085" lon="6.19204">
        <ele>1867.498046875</ele>
        <time>2012-08-10T08:35:45Z</time>
      </trkpt>
      <trkpt lat="45.37084" lon="6.19207">
        <ele>1868.4597167969</ele>
        <time>2012-08-10T08:35:51Z</time>
      </trkpt>
      <trkpt lat="45.37082" lon="6.19211">
        <ele>1869.9016113281</ele>
        <time>2012-08-10T08:35:58Z</time>
      </trkpt>
      <trkpt lat="45.3708" lon="6.19215">
        <ele>1871.3435058594</ele>
        <time>2012-08-10T08:36:05Z</time>
      </trkpt>
      <trkpt lat="45.37081" lon="6.19218">
        <ele>1873.2663574219</ele>
        <time>2012-08-10T08:36:12Z</time>
      </trkpt>
      <trkpt lat="45.37085" lon="6.19218">
        <ele>1874.2275390625</ele>
        <time>2012-08-10T08:36:17Z</time>
      </trkpt>
      <trkpt lat="45.37088" lon="6.19223">
        <ele>1875.1887207031</ele>
        <time>2012-08-10T08:36:23Z</time>
      </trkpt>
      <trkpt lat="45.3709" lon="6.19228">
        <ele>1875.6694335938</ele>
        <time>2012-08-10T08:36:29Z</time>
      </trkpt>
      <trkpt lat="45.37089" lon="6.19233">
        <ele>1876.630859375</ele>
        <time>2012-08-10T08:36:36Z</time>
      </trkpt>
      <trkpt lat="45.37086" lon="6.19237">
        <ele>1877.5920410156</ele>
        <time>2012-08-10T08:36:43Z</time>
      </trkpt>
      <trkpt lat="45.37083" lon="6.19238">
        <ele>1878.0727539062</ele>
        <time>2012-08-10T08:36:49Z</time>
      </trkpt>
      <trkpt lat="45.37078" lon="6.19238">
        <ele>1879.0339355469</ele>
        <time>2012-08-10T08:36:56Z</time>
      </trkpt>
      <trkpt lat="45.37073" lon="6.1924">
        <ele>1879.9953613281</ele>
        <time>2012-08-10T08:37:03Z</time>
      </trkpt>
      <trkpt lat="45.37071" lon="6.19242">
        <ele>1880.9567871094</ele>
        <time>2012-08-10T08:37:10Z</time>
      </trkpt>
      <trkpt lat="45.3707" lon="6.19244">
        <ele>1881.4372558594</ele>
        <time>2012-08-10T08:37:15Z</time>
      </trkpt>
      <trkpt lat="45.37068" lon="6.19248">
        <ele>1881.91796875</ele>
        <time>2012-08-10T08:37:21Z</time>
      </trkpt>
      <trkpt lat="45.37069" lon="6.19251">
        <ele>1883.3598632812</ele>
        <time>2012-08-10T08:37:26Z</time>
      </trkpt>
      <trkpt lat="45.37071" lon="6.19254">
        <ele>1885.2827148438</ele>
        <time>2012-08-10T08:37:33Z</time>
      </trkpt>
      <trkpt lat="45.3707" lon="6.19256">
        <ele>1885.7634277344</ele>
        <time>2012-08-10T08:37:37Z</time>
      </trkpt>
      <trkpt lat="45.37068" lon="6.19258">
        <ele>1886.724609375</ele>
        <time>2012-08-10T08:37:43Z</time>
      </trkpt>
      <trkpt lat="45.37066" lon="6.19261">
        <ele>1887.6860351562</ele>
        <time>2012-08-10T08:37:49Z</time>
      </trkpt>
      <trkpt lat="45.37069" lon="6.19264">
        <ele>1889.6086425781</ele>
        <time>2012-08-10T08:37:56Z</time>
      </trkpt>
      <trkpt lat="45.3707" lon="6.19268">
        <ele>1891.0505371094</ele>
        <time>2012-08-10T08:38:02Z</time>
      </trkpt>
      <trkpt lat="45.37068" lon="6.19272">
        <ele>1892.4926757812</ele>
        <time>2012-08-10T08:38:10Z</time>
      </trkpt>
      <trkpt lat="45.37068" lon="6.19275">
        <ele>1894.4150390625</ele>
        <time>2012-08-10T08:38:17Z</time>
      </trkpt>
      <trkpt lat="45.37073" lon="6.19277">
        <ele>1895.3764648438</ele>
        <time>2012-08-10T08:38:24Z</time>
      </trkpt>
      <trkpt lat="45.37079" lon="6.19277">
        <ele>1895.3764648438</ele>
        <time>2012-08-10T08:38:30Z</time>
      </trkpt>
      <trkpt lat="45.37082" lon="6.19277">
        <ele>1895.3764648438</ele>
        <time>2012-08-10T08:38:32Z</time>
      </trkpt>
      <trkpt lat="45.37086" lon="6.19282">
        <ele>1894.8957519531</ele>
        <time>2012-08-10T08:38:37Z</time>
      </trkpt>
      <trkpt lat="45.37094" lon="6.1929">
        <ele>1894.4150390625</ele>
        <time>2012-08-10T08:38:45Z</time>
      </trkpt>
      <trkpt lat="45.37097" lon="6.19295">
        <ele>1894.8957519531</ele>
        <time>2012-08-10T08:38:49Z</time>
      </trkpt>
      <trkpt lat="45.37101" lon="6.193">
        <ele>1893.9345703125</ele>
        <time>2012-08-10T08:38:55Z</time>
      </trkpt>
      <trkpt lat="45.37105" lon="6.19305">
        <ele>1892.4926757812</ele>
        <time>2012-08-10T08:39:00Z</time>
      </trkpt>
      <trkpt lat="45.3711" lon="6.19312">
        <ele>1892.0119628906</ele>
        <time>2012-08-10T08:39:06Z</time>
      </trkpt>
      <trkpt lat="45.37113" lon="6.19316">
        <ele>1892.9731445312</ele>
        <time>2012-08-10T08:39:10Z</time>
      </trkpt>
      <trkpt lat="45.37117" lon="6.19318">
        <ele>1893.9345703125</ele>
        <time>2012-08-10T08:39:16Z</time>
      </trkpt>
      <trkpt lat="45.37122" lon="6.19321">
        <ele>1893.4538574219</ele>
        <time>2012-08-10T08:39:22Z</time>
      </trkpt>
      <trkpt lat="45.37127" lon="6.19324">
        <ele>1893.4538574219</ele>
        <time>2012-08-10T08:39:28Z</time>
      </trkpt>
      <trkpt lat="45.37134" lon="6.19328">
        <ele>1894.4150390625</ele>
        <time>2012-08-10T08:39:34Z</time>
      </trkpt>
      <trkpt lat="45.37138" lon="6.19334">
        <ele>1894.8957519531</ele>
        <time>2012-08-10T08:39:40Z</time>
      </trkpt>
      <trkpt lat="45.37144" lon="6.19339">
        <ele>1895.3764648438</ele>
        <time>2012-08-10T08:39:48Z</time>
      </trkpt>
      <trkpt lat="45.37149" lon="6.19341">
        <ele>1895.8571777344</ele>
        <time>2012-08-10T08:39:52Z</time>
      </trkpt>
      <trkpt lat="45.37157" lon="6.19343">
        <ele>1895.3764648438</ele>
        <time>2012-08-10T08:40:00Z</time>
      </trkpt>
      <trkpt lat="45.3716" lon="6.19349">
        <ele>1897.2990722656</ele>
        <time>2012-08-10T08:40:07Z</time>
      </trkpt>
      <trkpt lat="45.37165" lon="6.19355">
        <ele>1898.2602539062</ele>
        <time>2012-08-10T08:40:15Z</time>
      </trkpt>
      <trkpt lat="45.37172" lon="6.19358">
        <ele>1898.7409667969</ele>
        <time>2012-08-10T08:40:22Z</time>
      </trkpt>
      <trkpt lat="45.37179" lon="6.19366">
        <ele>1898.7409667969</ele>
        <time>2012-08-10T08:40:29Z</time>
      </trkpt>
      <trkpt lat="45.37182" lon="6.1937">
        <ele>1899.2216796875</ele>
        <time>2012-08-10T08:40:32Z</time>
      </trkpt>
      <trkpt lat="45.37186" lon="6.19373">
        <ele>1900.1833496094</ele>
        <time>2012-08-10T08:40:38Z</time>
      </trkpt>
      <trkpt lat="45.37192" lon="6.19372">
        <ele>1901.6252441406</ele>
        <time>2012-08-10T08:40:45Z</time>
      </trkpt>
      <trkpt lat="45.37195" lon="6.19374">
        <ele>1903.0671386719</ele>
        <time>2012-08-10T08:40:51Z</time>
      </trkpt>
      <trkpt lat="45.37197" lon="6.19379">
        <ele>1904.9897460938</ele>
        <time>2012-08-10T08:40:57Z</time>
      </trkpt>
      <trkpt lat="45.37199" lon="6.19384">
        <ele>1907.3930664062</ele>
        <time>2012-08-10T08:41:04Z</time>
      </trkpt>
      <trkpt lat="45.37201" lon="6.19388">
        <ele>1908.8349609375</ele>
        <time>2012-08-10T08:41:10Z</time>
      </trkpt>
      <trkpt lat="45.37201" lon="6.19393">
        <ele>1910.2768554688</ele>
        <time>2012-08-10T08:41:16Z</time>
      </trkpt>
      <trkpt lat="45.37199" lon="6.19398">
        <ele>1911.23828125</ele>
        <time>2012-08-10T08:41:22Z</time>
      </trkpt>
      <trkpt lat="45.37197" lon="6.19403">
        <ele>1913.1608886719</ele>
        <time>2012-08-10T08:41:30Z</time>
      </trkpt>
      <trkpt lat="45.37197" lon="6.19409">
        <ele>1915.5642089844</ele>
        <time>2012-08-10T08:41:37Z</time>
      </trkpt>
      <trkpt lat="45.37198" lon="6.19414">
        <ele>1916.5256347656</ele>
        <time>2012-08-10T08:41:42Z</time>
      </trkpt>
      <trkpt lat="45.37198" lon="6.19418">
        <ele>1917.0063476562</ele>
        <time>2012-08-10T08:41:48Z</time>
      </trkpt>
      <trkpt lat="45.37196" lon="6.19419">
        <ele>1917.0063476562</ele>
        <time>2012-08-10T08:41:54Z</time>
      </trkpt>
      <trkpt lat="45.37194" lon="6.19419">
        <ele>1916.044921875</ele>
        <time>2012-08-10T08:42:02Z</time>
      </trkpt>
      <trkpt lat="45.37193" lon="6.1942">
        <ele>1915.5642089844</ele>
        <time>2012-08-10T08:42:16Z</time>
      </trkpt>
      <trkpt lat="45.37193" lon="6.19421">
        <ele>1915.0834960938</ele>
        <time>2012-08-10T08:42:27Z</time>
      </trkpt>
      <trkpt lat="45.37192" lon="6.19421">
        <ele>1914.1220703125</ele>
        <time>2012-08-10T08:42:33Z</time>
      </trkpt>
      <trkpt lat="45.37192" lon="6.19421">
        <ele>1912.6801757812</ele>
        <time>2012-08-10T08:42:43Z</time>
      </trkpt>
      <trkpt lat="45.37192" lon="6.19421">
        <ele>1912.6801757812</ele>
        <time>2012-08-10T08:42:58Z</time>
      </trkpt>
      <trkpt lat="45.37192" lon="6.1942">
        <ele>1912.6801757812</ele>
        <time>2012-08-10T08:43:30Z</time>
      </trkpt>
      <trkpt lat="45.37192" lon="6.19421">
        <ele>1913.1608886719</ele>
        <time>2012-08-10T08:43:42Z</time>
      </trkpt>
      <trkpt lat="45.37192" lon="6.1942">
        <ele>1913.6413574219</ele>
        <time>2012-08-10T08:43:54Z</time>
      </trkpt>
      <trkpt lat="45.37192" lon="6.1942">
        <ele>1914.6027832031</ele>
        <time>2012-08-10T08:44:09Z</time>
      </trkpt>
      <trkpt lat="45.37193" lon="6.1942">
        <ele>1914.6027832031</ele>
        <time>2012-08-10T08:44:23Z</time>
      </trkpt>
      <trkpt lat="45.37192" lon="6.19419">
        <ele>1914.1220703125</ele>
        <time>2012-08-10T08:44:31Z</time>
      </trkpt>
      <trkpt lat="45.37193" lon="6.19419">
        <ele>1914.1220703125</ele>
        <time>2012-08-10T08:44:47Z</time>
      </trkpt>
      <trkpt lat="45.37193" lon="6.1942">
        <ele>1914.1220703125</ele>
        <time>2012-08-10T08:45:01Z</time>
      </trkpt>
      <trkpt lat="45.37193" lon="6.1942">
        <ele>1914.6027832031</ele>
        <time>2012-08-10T08:45:09Z</time>
      </trkpt>
      <trkpt lat="45.37193" lon="6.19421">
        <ele>1915.0834960938</ele>
        <time>2012-08-10T08:45:22Z</time>
      </trkpt>
      <trkpt lat="45.37191" lon="6.19422">
        <ele>1913.6413574219</ele>
        <time>2012-08-10T08:45:34Z</time>
      </trkpt>
      <trkpt lat="45.37191" lon="6.19422">
        <ele>1913.6413574219</ele>
        <time>2012-08-10T08:45:44Z</time>
      </trkpt>
      <trkpt lat="45.37191" lon="6.19422">
        <ele>1912.6801757812</ele>
        <time>2012-08-10T08:45:53Z</time>
      </trkpt>
      <trkpt lat="45.37191" lon="6.19422">
        <ele>1912.6801757812</ele>
        <time>2012-08-10T08:45:59Z</time>
      </trkpt>
      <trkpt lat="45.37191" lon="6.19421">
        <ele>1912.6801757812</ele>
        <time>2012-08-10T08:46:07Z</time>
      </trkpt>
      <trkpt lat="45.37191" lon="6.19421">
        <ele>1912.1994628906</ele>
        <time>2012-08-10T08:46:15Z</time>
      </trkpt>
      <trkpt lat="45.37191" lon="6.1942">
        <ele>1912.1994628906</ele>
        <time>2012-08-10T08:46:24Z</time>
      </trkpt>
      <trkpt lat="45.37192" lon="6.1942">
        <ele>1912.1994628906</ele>
        <time>2012-08-10T08:46:39Z</time>
      </trkpt>
      <trkpt lat="45.37196" lon="6.19425">
        <ele>1911.7189941406</ele>
        <time>2012-08-10T08:46:42Z</time>
      </trkpt>
      <trkpt lat="45.37196" lon="6.19426">
        <ele>1910.2768554688</ele>
        <time>2012-08-10T08:46:46Z</time>
      </trkpt>
      <trkpt lat="45.37194" lon="6.19421">
        <ele>1912.6801757812</ele>
        <time>2012-08-10T08:46:55Z</time>
      </trkpt>
      <trkpt lat="45.37194" lon="6.19424">
        <ele>1912.6801757812</ele>
        <time>2012-08-10T08:47:01Z</time>
      </trkpt>
      <trkpt lat="45.37194" lon="6.19427">
        <ele>1912.6801757812</ele>
        <time>2012-08-10T08:47:08Z</time>
      </trkpt>
      <trkpt lat="45.37192" lon="6.19427">
        <ele>1912.1994628906</ele>
        <time>2012-08-10T08:47:28Z</time>
      </trkpt>
      <trkpt lat="45.37192" lon="6.19425">
        <ele>1913.1608886719</ele>
        <time>2012-08-10T08:47:33Z</time>
      </trkpt>
      <trkpt lat="45.37193" lon="6.19429">
        <ele>1912.6801757812</ele>
        <time>2012-08-10T08:47:43Z</time>
      </trkpt>
      <trkpt lat="45.37192" lon="6.19425">
        <ele>1913.6413574219</ele>
        <time>2012-08-10T08:48:09Z</time>
      </trkpt>
      <trkpt lat="45.37194" lon="6.19421">
        <ele>1914.6027832031</ele>
        <time>2012-08-10T08:48:17Z</time>
      </trkpt>
      <trkpt lat="45.37197" lon="6.19424">
        <ele>1916.044921875</ele>
        <time>2012-08-10T08:48:19Z</time>
      </trkpt>
      <trkpt lat="45.37194" lon="6.19431">
        <ele>1911.7189941406</ele>
        <time>2012-08-10T08:48:27Z</time>
      </trkpt>
      <trkpt lat="45.37193" lon="6.19429">
        <ele>1910.7575683594</ele>
        <time>2012-08-10T08:48:42Z</time>
      </trkpt>
      <trkpt lat="45.37193" lon="6.1943">
        <ele>1911.23828125</ele>
        <time>2012-08-10T08:48:54Z</time>
      </trkpt>
      <trkpt lat="45.37201" lon="6.19426">
        <ele>1917.4868164062</ele>
        <time>2012-08-10T08:49:03Z</time>
      </trkpt>
      <trkpt lat="45.37204" lon="6.19414">
        <ele>1937.1938476562</ele>
        <time>2012-08-10T08:49:30Z</time>
      </trkpt>
      <trkpt lat="45.37198" lon="6.1942">
        <ele>1929.0224609375</ele>
        <time>2012-08-10T08:49:33Z</time>
      </trkpt>
      <trkpt lat="45.37194" lon="6.19424">
        <ele>1925.1772460938</ele>
        <time>2012-08-10T08:49:39Z</time>
      </trkpt>
      <trkpt lat="45.37193" lon="6.19424">
        <ele>1923.7353515625</ele>
        <time>2012-08-10T08:49:43Z</time>
      </trkpt>
      <trkpt lat="45.37199" lon="6.19422">
        <ele>1931.9064941406</ele>
        <time>2012-08-10T08:49:45Z</time>
      </trkpt>
      <trkpt lat="45.37197" lon="6.19426">
        <ele>1917.4868164062</ele>
        <time>2012-08-10T08:49:52Z</time>
      </trkpt>
      <trkpt lat="45.37191" lon="6.19436">
        <ele>1907.8737792969</ele>
        <time>2012-08-10T08:50:02Z</time>
      </trkpt>
      <trkpt lat="45.3719" lon="6.19439">
        <ele>1898.2602539062</ele>
        <time>2012-08-10T08:50:16Z</time>
      </trkpt>
      <trkpt lat="45.37182" lon="6.19441">
        <ele>1887.2053222656</ele>
        <time>2012-08-10T08:50:20Z</time>
      </trkpt>
      <trkpt lat="45.37184" lon="6.19437">
        <ele>1886.724609375</ele>
        <time>2012-08-10T08:50:27Z</time>
      </trkpt>
      <trkpt lat="45.37191" lon="6.19428">
        <ele>1900.6638183594</ele>
        <time>2012-08-10T08:50:46Z</time>
      </trkpt>
      <trkpt lat="45.3719" lon="6.19428">
        <ele>1896.337890625</ele>
        <time>2012-08-10T08:50:53Z</time>
      </trkpt>
      <trkpt lat="45.37187" lon="6.19437">
        <ele>1889.1279296875</ele>
        <time>2012-08-10T08:51:02Z</time>
      </trkpt>
      <trkpt lat="45.37192" lon="6.19436">
        <ele>1899.7023925781</ele>
        <time>2012-08-10T08:51:29Z</time>
      </trkpt>
      <trkpt lat="45.37192" lon="6.19433">
        <ele>1902.1057128906</ele>
        <time>2012-08-10T08:51:37Z</time>
      </trkpt>
      <trkpt lat="45.37198" lon="6.19434">
        <ele>1914.1220703125</ele>
        <time>2012-08-10T08:51:45Z</time>
      </trkpt>
      <trkpt lat="45.372" lon="6.19433">
        <ele>1919.8901367188</ele>
        <time>2012-08-10T08:51:50Z</time>
      </trkpt>
      <trkpt lat="45.37199" lon="6.19432">
        <ele>1922.7741699219</ele>
        <time>2012-08-10T08:51:54Z</time>
      </trkpt>
      <trkpt lat="45.37191" lon="6.1943">
        <ele>1911.23828125</ele>
        <time>2012-08-10T08:52:04Z</time>
      </trkpt>
      <trkpt lat="45.37189" lon="6.1943">
        <ele>1899.2216796875</ele>
        <time>2012-08-10T08:52:19Z</time>
      </trkpt>
      <trkpt lat="45.37189" lon="6.19431">
        <ele>1898.7409667969</ele>
        <time>2012-08-10T08:52:20Z</time>
      </trkpt>
      <trkpt lat="45.37193" lon="6.19435">
        <ele>1905.4704589844</ele>
        <time>2012-08-10T08:52:27Z</time>
      </trkpt>
      <trkpt lat="45.37193" lon="6.1944">
        <ele>1902.5864257812</ele>
        <time>2012-08-10T08:52:36Z</time>
      </trkpt>
      <trkpt lat="45.37193" lon="6.19429">
        <ele>1906.431640625</ele>
        <time>2012-08-10T08:52:51Z</time>
      </trkpt>
      <trkpt lat="45.37194" lon="6.19426">
        <ele>1908.3542480469</ele>
        <time>2012-08-10T08:52:55Z</time>
      </trkpt>
      <trkpt lat="45.37194" lon="6.19424">
        <ele>1908.8349609375</ele>
        <time>2012-08-10T08:52:57Z</time>
      </trkpt>
      <trkpt lat="45.37199" lon="6.19418">
        <ele>1911.23828125</ele>
        <time>2012-08-10T08:53:05Z</time>
      </trkpt>
      <trkpt lat="45.37199" lon="6.19417">
        <ele>1913.1608886719</ele>
        <time>2012-08-10T08:53:13Z</time>
      </trkpt>
      <trkpt lat="45.372" lon="6.19416">
        <ele>1913.6413574219</ele>
        <time>2012-08-10T08:53:26Z</time>
      </trkpt>
      <trkpt lat="45.37207" lon="6.19419">
        <ele>1913.1608886719</ele>
        <time>2012-08-10T08:53:34Z</time>
      </trkpt>
      <trkpt lat="45.37212" lon="6.19419">
        <ele>1912.6801757812</ele>
        <time>2012-08-10T08:53:40Z</time>
      </trkpt>
      <trkpt lat="45.37217" lon="6.19418">
        <ele>1912.6801757812</ele>
        <time>2012-08-10T08:53:45Z</time>
      </trkpt>
      <trkpt lat="45.37219" lon="6.19418">
        <ele>1912.6801757812</ele>
        <time>2012-08-10T08:53:47Z</time>
      </trkpt>
      <trkpt lat="45.37223" lon="6.19423">
        <ele>1913.1608886719</ele>
        <time>2012-08-10T08:53:53Z</time>
      </trkpt>
      <trkpt lat="45.37227" lon="6.19426">
        <ele>1912.6801757812</ele>
        <time>2012-08-10T08:53:59Z</time>
      </trkpt>
      <trkpt lat="45.37233" lon="6.1943">
        <ele>1910.7575683594</ele>
        <time>2012-08-10T08:54:06Z</time>
      </trkpt>
      <trkpt lat="45.37236" lon="6.19435">
        <ele>1910.2768554688</ele>
        <time>2012-08-10T08:54:11Z</time>
      </trkpt>
      <trkpt lat="45.37239" lon="6.19438">
        <ele>1910.2768554688</ele>
        <time>2012-08-10T08:54:17Z</time>
      </trkpt>
      <trkpt lat="45.37243" lon="6.19438">
        <ele>1909.7961425781</ele>
        <time>2012-08-10T08:54:23Z</time>
      </trkpt>
      <trkpt lat="45.37246" lon="6.19439">
        <ele>1909.7961425781</ele>
        <time>2012-08-10T08:54:29Z</time>
      </trkpt>
      <trkpt lat="45.37252" lon="6.19439">
        <ele>1909.3156738281</ele>
        <time>2012-08-10T08:54:35Z</time>
      </trkpt>
      <trkpt lat="45.37257" lon="6.19441">
        <ele>1907.8737792969</ele>
        <time>2012-08-10T08:54:40Z</time>
      </trkpt>
      <trkpt lat="45.37264" lon="6.19443">
        <ele>1905.9509277344</ele>
        <time>2012-08-10T08:54:47Z</time>
      </trkpt>
      <trkpt lat="45.37271" lon="6.19443">
        <ele>1904.0285644531</ele>
        <time>2012-08-10T08:54:54Z</time>
      </trkpt>
      <trkpt lat="45.37272" lon="6.19443">
        <ele>1903.5478515625</ele>
        <time>2012-08-10T08:54:55Z</time>
      </trkpt>
      <trkpt lat="45.37278" lon="6.19445">
        <ele>1903.0671386719</ele>
        <time>2012-08-10T08:55:01Z</time>
      </trkpt>
      <trkpt lat="45.3728" lon="6.19446">
        <ele>1902.5864257812</ele>
        <time>2012-08-10T08:55:03Z</time>
      </trkpt>
      <trkpt lat="45.37283" lon="6.19447">
        <ele>1902.5864257812</ele>
        <time>2012-08-10T08:55:05Z</time>
      </trkpt>
      <trkpt lat="45.37288" lon="6.19452">
        <ele>1901.6252441406</ele>
        <time>2012-08-10T08:55:12Z</time>
      </trkpt>
      <trkpt lat="45.37294" lon="6.19459">
        <ele>1899.7023925781</ele>
        <time>2012-08-10T08:55:19Z</time>
      </trkpt>
      <trkpt lat="45.37295" lon="6.19459">
        <ele>1899.7023925781</ele>
        <time>2012-08-10T08:55:20Z</time>
      </trkpt>
      <trkpt lat="45.373" lon="6.19464">
        <ele>1898.2602539062</ele>
        <time>2012-08-10T08:55:26Z</time>
      </trkpt>
      <trkpt lat="45.37303" lon="6.19467">
        <ele>1897.2990722656</ele>
        <time>2012-08-10T08:55:29Z</time>
      </trkpt>
      <trkpt lat="45.37307" lon="6.1947">
        <ele>1895.3764648438</ele>
        <time>2012-08-10T08:55:35Z</time>
      </trkpt>
      <trkpt lat="45.37313" lon="6.19473">
        <ele>1894.8957519531</ele>
        <time>2012-08-10T08:55:41Z</time>
      </trkpt>
      <trkpt lat="45.37318" lon="6.19475">
        <ele>1894.8957519531</ele>
        <time>2012-08-10T08:55:47Z</time>
      </trkpt>
      <trkpt lat="45.37322" lon="6.19479">
        <ele>1895.8571777344</ele>
        <time>2012-08-10T08:55:53Z</time>
      </trkpt>
      <trkpt lat="45.37328" lon="6.19481">
        <ele>1897.7797851562</ele>
        <time>2012-08-10T08:55:59Z</time>
      </trkpt>
      <trkpt lat="45.37334" lon="6.19485">
        <ele>1898.2602539062</ele>
        <time>2012-08-10T08:56:08Z</time>
      </trkpt>
      <trkpt lat="45.37338" lon="6.19483">
        <ele>1899.7023925781</ele>
        <time>2012-08-10T08:56:13Z</time>
      </trkpt>
      <trkpt lat="45.37343" lon="6.19485">
        <ele>1899.7023925781</ele>
        <time>2012-08-10T08:56:19Z</time>
      </trkpt>
      <trkpt lat="45.37347" lon="6.19492">
        <ele>1900.1833496094</ele>
        <time>2012-08-10T08:56:26Z</time>
      </trkpt>
      <trkpt lat="45.3735" lon="6.19496">
        <ele>1901.6252441406</ele>
        <time>2012-08-10T08:56:32Z</time>
      </trkpt>
      <trkpt lat="45.37353" lon="6.19501">
        <ele>1901.14453125</ele>
        <time>2012-08-10T08:56:39Z</time>
      </trkpt>
      <trkpt lat="45.37357" lon="6.19502">
        <ele>1901.14453125</ele>
        <time>2012-08-10T08:56:44Z</time>
      </trkpt>
      <trkpt lat="45.37362" lon="6.19502">
        <ele>1903.0671386719</ele>
        <time>2012-08-10T08:56:51Z</time>
      </trkpt>
      <trkpt lat="45.37365" lon="6.19503">
        <ele>1904.9897460938</ele>
        <time>2012-08-10T08:56:56Z</time>
      </trkpt>
      <trkpt lat="45.37369" lon="6.19505">
        <ele>1906.431640625</ele>
        <time>2012-08-10T08:57:02Z</time>
      </trkpt>
      <trkpt lat="45.37373" lon="6.1951">
        <ele>1906.431640625</ele>
        <time>2012-08-10T08:57:09Z</time>
      </trkpt>
      <trkpt lat="45.37376" lon="6.19512">
        <ele>1907.8737792969</ele>
        <time>2012-08-10T08:57:15Z</time>
      </trkpt>
      <trkpt lat="45.37378" lon="6.19514">
        <ele>1907.8737792969</ele>
        <time>2012-08-10T08:57:20Z</time>
      </trkpt>
      <trkpt lat="45.37384" lon="6.19516">
        <ele>1908.8349609375</ele>
        <time>2012-08-10T08:57:27Z</time>
      </trkpt>
      <trkpt lat="45.37388" lon="6.19516">
        <ele>1909.7961425781</ele>
        <time>2012-08-10T08:57:35Z</time>
      </trkpt>
      <trkpt lat="45.37392" lon="6.19515">
        <ele>1909.3156738281</ele>
        <time>2012-08-10T08:57:41Z</time>
      </trkpt>
      <trkpt lat="45.37396" lon="6.19513">
        <ele>1909.3156738281</ele>
        <time>2012-08-10T08:57:47Z</time>
      </trkpt>
      <trkpt lat="45.37399" lon="6.19511">
        <ele>1909.3156738281</ele>
        <time>2012-08-10T08:57:53Z</time>
      </trkpt>
      <trkpt lat="45.37398" lon="6.19511">
        <ele>1908.3542480469</ele>
        <time>2012-08-10T08:58:02Z</time>
      </trkpt>
      <trkpt lat="45.374" lon="6.19507">
        <ele>1907.3930664062</ele>
        <time>2012-08-10T08:58:07Z</time>
      </trkpt>
      <trkpt lat="45.37404" lon="6.19507">
        <ele>1907.3930664062</ele>
        <time>2012-08-10T08:58:12Z</time>
      </trkpt>
      <trkpt lat="45.37408" lon="6.19508">
        <ele>1907.8737792969</ele>
        <time>2012-08-10T08:58:17Z</time>
      </trkpt>
      <trkpt lat="45.37412" lon="6.19506">
        <ele>1907.8737792969</ele>
        <time>2012-08-10T08:58:22Z</time>
      </trkpt>
      <trkpt lat="45.37416" lon="6.19504">
        <ele>1907.3930664062</ele>
        <time>2012-08-10T08:58:28Z</time>
      </trkpt>
      <trkpt lat="45.3742" lon="6.19501">
        <ele>1906.9123535156</ele>
        <time>2012-08-10T08:58:33Z</time>
      </trkpt>
      <trkpt lat="45.37427" lon="6.19497">
        <ele>1905.9509277344</ele>
        <time>2012-08-10T08:58:41Z</time>
      </trkpt>
      <trkpt lat="45.37433" lon="6.19495">
        <ele>1904.0285644531</ele>
        <time>2012-08-10T08:58:47Z</time>
      </trkpt>
      <trkpt lat="45.37436" lon="6.19494">
        <ele>1903.0671386719</ele>
        <time>2012-08-10T08:58:50Z</time>
      </trkpt>
      <trkpt lat="45.37444" lon="6.19489">
        <ele>1901.6252441406</ele>
        <time>2012-08-10T08:58:59Z</time>
      </trkpt>
      <trkpt lat="45.37445" lon="6.19487">
        <ele>1901.14453125</ele>
        <time>2012-08-10T08:59:00Z</time>
      </trkpt>
      <trkpt lat="45.37447" lon="6.19486">
        <ele>1900.1833496094</ele>
        <time>2012-08-10T08:59:02Z</time>
      </trkpt>
      <trkpt lat="45.3745" lon="6.19485">
        <ele>1899.2216796875</ele>
        <time>2012-08-10T08:59:05Z</time>
      </trkpt>
      <trkpt lat="45.37456" lon="6.1948">
        <ele>1895.8571777344</ele>
        <time>2012-08-10T08:59:14Z</time>
      </trkpt>
      <trkpt lat="45.37461" lon="6.19477">
        <ele>1893.9345703125</ele>
        <time>2012-08-10T08:59:19Z</time>
      </trkpt>
      <trkpt lat="45.37468" lon="6.19475">
        <ele>1890.5698242188</ele>
        <time>2012-08-10T08:59:26Z</time>
      </trkpt>
      <trkpt lat="45.37473" lon="6.1947">
        <ele>1888.1667480469</ele>
        <time>2012-08-10T08:59:33Z</time>
      </trkpt>
      <trkpt lat="45.37478" lon="6.19467">
        <ele>1887.2053222656</ele>
        <time>2012-08-10T08:59:39Z</time>
      </trkpt>
      <trkpt lat="45.37482" lon="6.19466">
        <ele>1885.2827148438</ele>
        <time>2012-08-10T08:59:45Z</time>
      </trkpt>
      <trkpt lat="45.37488" lon="6.19467">
        <ele>1884.3215332031</ele>
        <time>2012-08-10T08:59:51Z</time>
      </trkpt>
      <trkpt lat="45.37492" lon="6.19466">
        <ele>1883.8405761719</ele>
        <time>2012-08-10T08:59:56Z</time>
      </trkpt>
      <trkpt lat="45.37499" lon="6.19465">
        <ele>1883.3598632812</ele>
        <time>2012-08-10T09:00:03Z</time>
      </trkpt>
      <trkpt lat="45.37504" lon="6.19463">
        <ele>1881.91796875</ele>
        <time>2012-08-10T09:00:09Z</time>
      </trkpt>
      <trkpt lat="45.3751" lon="6.19461">
        <ele>1879.5146484375</ele>
        <time>2012-08-10T09:00:16Z</time>
      </trkpt>
      <trkpt lat="45.37516" lon="6.19458">
        <ele>1877.1115722656</ele>
        <time>2012-08-10T09:00:23Z</time>
      </trkpt>
      <trkpt lat="45.37521" lon="6.19458">
        <ele>1876.630859375</ele>
        <time>2012-08-10T09:00:27Z</time>
      </trkpt>
      <trkpt lat="45.37524" lon="6.19457">
        <ele>1875.6694335938</ele>
        <time>2012-08-10T09:00:32Z</time>
      </trkpt>
      <trkpt lat="45.37526" lon="6.19457">
        <ele>1875.1887207031</ele>
        <time>2012-08-10T09:00:33Z</time>
      </trkpt>
      <trkpt lat="45.37528" lon="6.19458">
        <ele>1875.1887207031</ele>
        <time>2012-08-10T09:00:35Z</time>
      </trkpt>
      <trkpt lat="45.37532" lon="6.19458">
        <ele>1875.1887207031</ele>
        <time>2012-08-10T09:00:39Z</time>
      </trkpt>
      <trkpt lat="45.37538" lon="6.19457">
        <ele>1875.6694335938</ele>
        <time>2012-08-10T09:00:43Z</time>
      </trkpt>
      <trkpt lat="45.37545" lon="6.19457">
        <ele>1876.1501464844</ele>
        <time>2012-08-10T09:00:49Z</time>
      </trkpt>
      <trkpt lat="45.37547" lon="6.19457">
        <ele>1876.1501464844</ele>
        <time>2012-08-10T09:00:51Z</time>
      </trkpt>
      <trkpt lat="45.37552" lon="6.19456">
        <ele>1876.1501464844</ele>
        <time>2012-08-10T09:00:55Z</time>
      </trkpt>
      <trkpt lat="45.3756" lon="6.19459">
        <ele>1875.6694335938</ele>
        <time>2012-08-10T09:01:02Z</time>
      </trkpt>
      <trkpt lat="45.37561" lon="6.19461">
        <ele>1876.630859375</ele>
        <time>2012-08-10T09:01:04Z</time>
      </trkpt>
      <trkpt lat="45.37564" lon="6.19463">
        <ele>1876.630859375</ele>
        <time>2012-08-10T09:01:08Z</time>
      </trkpt>
      <trkpt lat="45.37571" lon="6.19464">
        <ele>1876.1501464844</ele>
        <time>2012-08-10T09:01:14Z</time>
      </trkpt>
      <trkpt lat="45.37576" lon="6.19468">
        <ele>1876.630859375</ele>
        <time>2012-08-10T09:01:21Z</time>
      </trkpt>
      <trkpt lat="45.37583" lon="6.19471">
        <ele>1876.1501464844</ele>
        <time>2012-08-10T09:01:28Z</time>
      </trkpt>
      <trkpt lat="45.3759" lon="6.19474">
        <ele>1876.1501464844</ele>
        <time>2012-08-10T09:01:34Z</time>
      </trkpt>
      <trkpt lat="45.37595" lon="6.19473">
        <ele>1877.5920410156</ele>
        <time>2012-08-10T09:01:38Z</time>
      </trkpt>
      <trkpt lat="45.376" lon="6.19477">
        <ele>1878.5534667969</ele>
        <time>2012-08-10T09:01:44Z</time>
      </trkpt>
      <trkpt lat="45.37602" lon="6.19479">
        <ele>1878.5534667969</ele>
        <time>2012-08-10T09:01:46Z</time>
      </trkpt>
      <trkpt lat="45.37605" lon="6.19483">
        <ele>1878.5534667969</ele>
        <time>2012-08-10T09:01:50Z</time>
      </trkpt>
      <trkpt lat="45.3761" lon="6.19484">
        <ele>1879.0339355469</ele>
        <time>2012-08-10T09:01:57Z</time>
      </trkpt>
      <trkpt lat="45.37616" lon="6.19483">
        <ele>1880.9567871094</ele>
        <time>2012-08-10T09:02:04Z</time>
      </trkpt>
      <trkpt lat="45.3762" lon="6.19483">
        <ele>1882.8791503906</ele>
        <time>2012-08-10T09:02:11Z</time>
      </trkpt>
      <trkpt lat="45.37623" lon="6.19479">
        <ele>1883.3598632812</ele>
        <time>2012-08-10T09:02:18Z</time>
      </trkpt>
      <trkpt lat="45.37626" lon="6.19477">
        <ele>1882.8791503906</ele>
        <time>2012-08-10T09:02:23Z</time>
      </trkpt>
      <trkpt lat="45.3763" lon="6.19477">
        <ele>1882.3986816406</ele>
        <time>2012-08-10T09:02:28Z</time>
      </trkpt>
      <trkpt lat="45.37634" lon="6.19479">
        <ele>1883.3598632812</ele>
        <time>2012-08-10T09:02:35Z</time>
      </trkpt>
      <trkpt lat="45.37639" lon="6.19478">
        <ele>1885.2827148438</ele>
        <time>2012-08-10T09:02:42Z</time>
      </trkpt>
      <trkpt lat="45.37644" lon="6.19479">
        <ele>1886.244140625</ele>
        <time>2012-08-10T09:02:50Z</time>
      </trkpt>
      <trkpt lat="45.37648" lon="6.19479">
        <ele>1887.2053222656</ele>
        <time>2012-08-10T09:02:56Z</time>
      </trkpt>
      <trkpt lat="45.37651" lon="6.19477">
        <ele>1889.1279296875</ele>
        <time>2012-08-10T09:03:02Z</time>
      </trkpt>
      <trkpt lat="45.37655" lon="6.19476">
        <ele>1891.0505371094</ele>
        <time>2012-08-10T09:03:09Z</time>
      </trkpt>
      <trkpt lat="45.37658" lon="6.19476">
        <ele>1892.0119628906</ele>
        <time>2012-08-10T09:03:16Z</time>
      </trkpt>
      <trkpt lat="45.37661" lon="6.19473">
        <ele>1892.4926757812</ele>
        <time>2012-08-10T09:03:22Z</time>
      </trkpt>
      <trkpt lat="45.37666" lon="6.19473">
        <ele>1894.4150390625</ele>
        <time>2012-08-10T09:03:30Z</time>
      </trkpt>
      <trkpt lat="45.3767" lon="6.19472">
        <ele>1896.337890625</ele>
        <time>2012-08-10T09:03:37Z</time>
      </trkpt>
      <trkpt lat="45.37675" lon="6.19472">
        <ele>1896.818359375</ele>
        <time>2012-08-10T09:03:45Z</time>
      </trkpt>
      <trkpt lat="45.37678" lon="6.19472">
        <ele>1896.818359375</ele>
        <time>2012-08-10T09:03:51Z</time>
      </trkpt>
      <trkpt lat="45.37683" lon="6.1947">
        <ele>1896.337890625</ele>
        <time>2012-08-10T09:03:58Z</time>
      </trkpt>
      <trkpt lat="45.37688" lon="6.19472">
        <ele>1895.8571777344</ele>
        <time>2012-08-10T09:04:03Z</time>
      </trkpt>
      <trkpt lat="45.37693" lon="6.19471">
        <ele>1896.337890625</ele>
        <time>2012-08-10T09:04:10Z</time>
      </trkpt>
      <trkpt lat="45.37697" lon="6.1947">
        <ele>1897.2990722656</ele>
        <time>2012-08-10T09:04:15Z</time>
      </trkpt>
      <trkpt lat="45.37704" lon="6.19467">
        <ele>1899.7023925781</ele>
        <time>2012-08-10T09:04:23Z</time>
      </trkpt>
      <trkpt lat="45.3771" lon="6.19466">
        <ele>1898.7409667969</ele>
        <time>2012-08-10T09:04:30Z</time>
      </trkpt>
      <trkpt lat="45.37716" lon="6.19466">
        <ele>1899.2216796875</ele>
        <time>2012-08-10T09:04:38Z</time>
      </trkpt>
      <trkpt lat="45.3772" lon="6.19467">
        <ele>1899.7023925781</ele>
        <time>2012-08-10T09:04:44Z</time>
      </trkpt>
      <trkpt lat="45.37722" lon="6.19468">
        <ele>1899.7023925781</ele>
        <time>2012-08-10T09:04:49Z</time>
      </trkpt>
      <trkpt lat="45.37725" lon="6.19468">
        <ele>1899.2216796875</ele>
        <time>2012-08-10T09:04:55Z</time>
      </trkpt>
      <trkpt lat="45.3773" lon="6.19468">
        <ele>1899.7023925781</ele>
        <time>2012-08-10T09:05:00Z</time>
      </trkpt>
      <trkpt lat="45.37736" lon="6.19466">
        <ele>1901.14453125</ele>
        <time>2012-08-10T09:05:07Z</time>
      </trkpt>
      <trkpt lat="45.37738" lon="6.19464">
        <ele>1901.6252441406</ele>
        <time>2012-08-10T09:05:13Z</time>
      </trkpt>
      <trkpt lat="45.3774" lon="6.19463">
        <ele>1902.1057128906</ele>
        <time>2012-08-10T09:05:21Z</time>
      </trkpt>
      <trkpt lat="45.37742" lon="6.19462">
        <ele>1903.5478515625</ele>
        <time>2012-08-10T09:05:27Z</time>
      </trkpt>
      <trkpt lat="45.37746" lon="6.19461">
        <ele>1905.4704589844</ele>
        <time>2012-08-10T09:05:33Z</time>
      </trkpt>
      <trkpt lat="45.37749" lon="6.19462">
        <ele>1907.3930664062</ele>
        <time>2012-08-10T09:05:41Z</time>
      </trkpt>
      <trkpt lat="45.37753" lon="6.19464">
        <ele>1909.3156738281</ele>
        <time>2012-08-10T09:05:49Z</time>
      </trkpt>
      <trkpt lat="45.37756" lon="6.19466">
        <ele>1910.7575683594</ele>
        <time>2012-08-10T09:05:56Z</time>
      </trkpt>
      <trkpt lat="45.37758" lon="6.19468">
        <ele>1912.1994628906</ele>
        <time>2012-08-10T09:06:03Z</time>
      </trkpt>
      <trkpt lat="45.37761" lon="6.19468">
        <ele>1912.6801757812</ele>
        <time>2012-08-10T09:06:09Z</time>
      </trkpt>
      <trkpt lat="45.37764" lon="6.19469">
        <ele>1913.6413574219</ele>
        <time>2012-08-10T09:06:16Z</time>
      </trkpt>
      <trkpt lat="45.37768" lon="6.19468">
        <ele>1915.5642089844</ele>
        <time>2012-08-10T09:06:25Z</time>
      </trkpt>
      <trkpt lat="45.37771" lon="6.1947">
        <ele>1915.5642089844</ele>
        <time>2012-08-10T09:06:32Z</time>
      </trkpt>
      <trkpt lat="45.37773" lon="6.19476">
        <ele>1914.6027832031</ele>
        <time>2012-08-10T09:06:40Z</time>
      </trkpt>
      <trkpt lat="45.37773" lon="6.1948">
        <ele>1915.5642089844</ele>
        <time>2012-08-10T09:06:46Z</time>
      </trkpt>
      <trkpt lat="45.37774" lon="6.19481">
        <ele>1917.0063476562</ele>
        <time>2012-08-10T09:06:51Z</time>
      </trkpt>
      <trkpt lat="45.37779" lon="6.19479">
        <ele>1918.9289550781</ele>
        <time>2012-08-10T09:06:58Z</time>
      </trkpt>
      <trkpt lat="45.37783" lon="6.1948">
        <ele>1919.4096679688</ele>
        <time>2012-08-10T09:07:04Z</time>
      </trkpt>
      <trkpt lat="45.37785" lon="6.19485">
        <ele>1920.8515625</ele>
        <time>2012-08-10T09:07:11Z</time>
      </trkpt>
      <trkpt lat="45.37788" lon="6.19489">
        <ele>1922.2934570312</ele>
        <time>2012-08-10T09:07:19Z</time>
      </trkpt>
      <trkpt lat="45.37791" lon="6.19493">
        <ele>1923.7353515625</ele>
        <time>2012-08-10T09:07:27Z</time>
      </trkpt>
      <trkpt lat="45.37794" lon="6.19497">
        <ele>1924.6967773438</ele>
        <time>2012-08-10T09:07:35Z</time>
      </trkpt>
      <trkpt lat="45.37798" lon="6.195">
        <ele>1925.6579589844</ele>
        <time>2012-08-10T09:07:43Z</time>
      </trkpt>
      <trkpt lat="45.37802" lon="6.19503">
        <ele>1927.1000976562</ele>
        <time>2012-08-10T09:07:51Z</time>
      </trkpt>
      <trkpt lat="45.37806" lon="6.19507">
        <ele>1928.5419921875</ele>
        <time>2012-08-10T09:08:00Z</time>
      </trkpt>
      <trkpt lat="45.37809" lon="6.1951">
        <ele>1929.5031738281</ele>
        <time>2012-08-10T09:08:07Z</time>
      </trkpt>
      <trkpt lat="45.37813" lon="6.19514">
        <ele>1931.42578125</ele>
        <time>2012-08-10T09:08:15Z</time>
      </trkpt>
      <trkpt lat="45.37817" lon="6.19519">
        <ele>1933.3486328125</ele>
        <time>2012-08-10T09:08:24Z</time>
      </trkpt>
      <trkpt lat="45.3782" lon="6.19523">
        <ele>1934.7907714844</ele>
        <time>2012-08-10T09:08:32Z</time>
      </trkpt>
      <trkpt lat="45.37823" lon="6.19526">
        <ele>1936.2326660156</ele>
        <time>2012-08-10T09:08:39Z</time>
      </trkpt>
      <trkpt lat="45.37826" lon="6.19528">
        <ele>1937.6745605469</ele>
        <time>2012-08-10T09:08:45Z</time>
      </trkpt>
      <trkpt lat="45.37831" lon="6.1953">
        <ele>1939.5971679688</ele>
        <time>2012-08-10T09:08:54Z</time>
      </trkpt>
      <trkpt lat="45.37835" lon="6.19531">
        <ele>1942.0004882812</ele>
        <time>2012-08-10T09:09:02Z</time>
      </trkpt>
      <trkpt lat="45.3784" lon="6.19533">
        <ele>1944.4035644531</ele>
        <time>2012-08-10T09:09:10Z</time>
      </trkpt>
      <trkpt lat="45.37843" lon="6.19537">
        <ele>1946.3264160156</ele>
        <time>2012-08-10T09:09:19Z</time>
      </trkpt>
      <trkpt lat="45.37844" lon="6.1954">
        <ele>1948.2490234375</ele>
        <time>2012-08-10T09:09:26Z</time>
      </trkpt>
      <trkpt lat="45.37847" lon="6.19544">
        <ele>1949.6911621094</ele>
        <time>2012-08-10T09:09:34Z</time>
      </trkpt>
      <trkpt lat="45.37849" lon="6.19548">
        <ele>1951.6137695312</ele>
        <time>2012-08-10T09:09:41Z</time>
      </trkpt>
      <trkpt lat="45.37853" lon="6.19552">
        <ele>1952.0942382812</ele>
        <time>2012-08-10T09:09:48Z</time>
      </trkpt>
      <trkpt lat="45.37856" lon="6.19558">
        <ele>1952.5749511719</ele>
        <time>2012-08-10T09:09:55Z</time>
      </trkpt>
      <trkpt lat="45.37859" lon="6.19561">
        <ele>1954.4975585938</ele>
        <time>2012-08-10T09:10:02Z</time>
      </trkpt>
      <trkpt lat="45.37865" lon="6.19562">
        <ele>1956.4201660156</ele>
        <time>2012-08-10T09:10:10Z</time>
      </trkpt>
      <trkpt lat="45.37868" lon="6.19563">
        <ele>1958.3427734375</ele>
        <time>2012-08-10T09:10:17Z</time>
      </trkpt>
      <trkpt lat="45.37872" lon="6.19562">
        <ele>1961.2268066406</ele>
        <time>2012-08-10T09:10:24Z</time>
      </trkpt>
      <trkpt lat="45.37877" lon="6.19561">
        <ele>1965.072265625</ele>
        <time>2012-08-10T09:10:34Z</time>
      </trkpt>
      <trkpt lat="45.37881" lon="6.19561">
        <ele>1966.9948730469</ele>
        <time>2012-08-10T09:10:41Z</time>
      </trkpt>
      <trkpt lat="45.37887" lon="6.1956">
        <ele>1968.9174804688</ele>
        <time>2012-08-10T09:10:49Z</time>
      </trkpt>
      <trkpt lat="45.37896" lon="6.19564">
        <ele>1966.9948730469</ele>
        <time>2012-08-10T09:10:59Z</time>
      </trkpt>
      <trkpt lat="45.379" lon="6.19571">
        <ele>1966.5141601562</ele>
        <time>2012-08-10T09:11:05Z</time>
      </trkpt>
      <trkpt lat="45.37907" lon="6.19578">
        <ele>1966.5141601562</ele>
        <time>2012-08-10T09:11:14Z</time>
      </trkpt>
      <trkpt lat="45.37911" lon="6.19583">
        <ele>1968.4367675781</ele>
        <time>2012-08-10T09:11:21Z</time>
      </trkpt>
      <trkpt lat="45.37917" lon="6.19588">
        <ele>1968.4367675781</ele>
        <time>2012-08-10T09:11:28Z</time>
      </trkpt>
      <trkpt lat="45.37921" lon="6.19592">
        <ele>1969.3981933594</ele>
        <time>2012-08-10T09:11:35Z</time>
      </trkpt>
      <trkpt lat="45.37926" lon="6.19595">
        <ele>1970.8400878906</ele>
        <time>2012-08-10T09:11:42Z</time>
      </trkpt>
      <trkpt lat="45.37928" lon="6.19598">
        <ele>1973.2434082031</ele>
        <time>2012-08-10T09:11:48Z</time>
      </trkpt>
      <trkpt lat="45.37932" lon="6.19599">
        <ele>1975.1657714844</ele>
        <time>2012-08-10T09:11:55Z</time>
      </trkpt>
      <trkpt lat="45.37937" lon="6.19599">
        <ele>1977.5690917969</ele>
        <time>2012-08-10T09:12:02Z</time>
      </trkpt>
      <trkpt lat="45.37943" lon="6.19601">
        <ele>1979.4916992188</ele>
        <time>2012-08-10T09:12:11Z</time>
      </trkpt>
      <trkpt lat="45.37948" lon="6.19603">
        <ele>1980.9340820312</ele>
        <time>2012-08-10T09:12:19Z</time>
      </trkpt>
      <trkpt lat="45.37954" lon="6.19605">
        <ele>1982.3759765625</ele>
        <time>2012-08-10T09:12:28Z</time>
      </trkpt>
      <trkpt lat="45.37959" lon="6.19606">
        <ele>1983.3371582031</ele>
        <time>2012-08-10T09:12:37Z</time>
      </trkpt>
      <trkpt lat="45.37961" lon="6.19607">
        <ele>1985.7404785156</ele>
        <time>2012-08-10T09:12:42Z</time>
      </trkpt>
      <trkpt lat="45.37965" lon="6.19607">
        <ele>1986.2211914062</ele>
        <time>2012-08-10T09:12:47Z</time>
      </trkpt>
      <trkpt lat="45.37968" lon="6.19608">
        <ele>1987.6630859375</ele>
        <time>2012-08-10T09:12:54Z</time>
      </trkpt>
      <trkpt lat="45.37973" lon="6.19607">
        <ele>1989.5856933594</ele>
        <time>2012-08-10T09:13:00Z</time>
      </trkpt>
      <trkpt lat="45.37976" lon="6.19605">
        <ele>1991.5083007812</ele>
        <time>2012-08-10T09:13:06Z</time>
      </trkpt>
      <trkpt lat="45.37981" lon="6.19602">
        <ele>1994.3920898438</ele>
        <time>2012-08-10T09:13:13Z</time>
      </trkpt>
      <trkpt lat="45.37985" lon="6.19601">
        <ele>1996.7956542969</ele>
        <time>2012-08-10T09:13:21Z</time>
      </trkpt>
      <trkpt lat="45.37989" lon="6.196">
        <ele>1999.1989746094</ele>
        <time>2012-08-10T09:13:27Z</time>
      </trkpt>
      <trkpt lat="45.37986" lon="6.19615">
        <ele>2000.1604003906</ele>
        <time>2012-08-10T09:13:49Z</time>
      </trkpt>
      <trkpt lat="45.37986" lon="6.19618">
        <ele>2002.0827636719</ele>
        <time>2012-08-10T09:13:56Z</time>
      </trkpt>
      <trkpt lat="45.37988" lon="6.19619">
        <ele>2003.5249023438</ele>
        <time>2012-08-10T09:14:02Z</time>
      </trkpt>
      <trkpt lat="45.37992" lon="6.19618">
        <ele>2004.4860839844</ele>
        <time>2012-08-10T09:14:08Z</time>
      </trkpt>
      <trkpt lat="45.37994" lon="6.1962">
        <ele>2005.4475097656</ele>
        <time>2012-08-10T09:14:15Z</time>
      </trkpt>
      <trkpt lat="45.37994" lon="6.19619">
        <ele>2005.9279785156</ele>
        <time>2012-08-10T09:14:17Z</time>
      </trkpt>
      <trkpt lat="45.37998" lon="6.1962">
        <ele>2006.8894042969</ele>
        <time>2012-08-10T09:14:22Z</time>
      </trkpt>
      <trkpt lat="45.37999" lon="6.19621">
        <ele>2006.8894042969</ele>
        <time>2012-08-10T09:14:26Z</time>
      </trkpt>
      <trkpt lat="45.38003" lon="6.19622">
        <ele>2008.8120117188</ele>
        <time>2012-08-10T09:14:33Z</time>
      </trkpt>
      <trkpt lat="45.38007" lon="6.1962">
        <ele>2010.7346191406</ele>
        <time>2012-08-10T09:14:40Z</time>
      </trkpt>
      <trkpt lat="45.38008" lon="6.19617">
        <ele>2010.7346191406</ele>
        <time>2012-08-10T09:14:45Z</time>
      </trkpt>
      <trkpt lat="45.3801" lon="6.19615">
        <ele>2012.1767578125</ele>
        <time>2012-08-10T09:14:50Z</time>
      </trkpt>
      <trkpt lat="45.38012" lon="6.19618">
        <ele>2013.1381835938</ele>
        <time>2012-08-10T09:14:57Z</time>
      </trkpt>
      <trkpt lat="45.38013" lon="6.19624">
        <ele>2015.0607910156</ele>
        <time>2012-08-10T09:15:09Z</time>
      </trkpt>
      <trkpt lat="45.38014" lon="6.19628">
        <ele>2014.0993652344</ele>
        <time>2012-08-10T09:15:15Z</time>
      </trkpt>
      <trkpt lat="45.38015" lon="6.19633">
        <ele>2014.0993652344</ele>
        <time>2012-08-10T09:15:22Z</time>
      </trkpt>
      <trkpt lat="45.38016" lon="6.19637">
        <ele>2015.0607910156</ele>
        <time>2012-08-10T09:15:30Z</time>
      </trkpt>
      <trkpt lat="45.38018" lon="6.19639">
        <ele>2017.9445800781</ele>
        <time>2012-08-10T09:15:39Z</time>
      </trkpt>
      <trkpt lat="45.38021" lon="6.19638">
        <ele>2019.38671875</ele>
        <time>2012-08-10T09:15:45Z</time>
      </trkpt>
      <trkpt lat="45.38021" lon="6.19643">
        <ele>2019.8671875</ele>
        <time>2012-08-10T09:15:51Z</time>
      </trkpt>
      <trkpt lat="45.38022" lon="6.19644">
        <ele>2022.2705078125</ele>
        <time>2012-08-10T09:15:56Z</time>
      </trkpt>
      <trkpt lat="45.38023" lon="6.19645">
        <ele>2023.7124023438</ele>
        <time>2012-08-10T09:16:01Z</time>
      </trkpt>
      <trkpt lat="45.38023" lon="6.19651">
        <ele>2026.5964355469</ele>
        <time>2012-08-10T09:16:10Z</time>
      </trkpt>
      <trkpt lat="45.38026" lon="6.19655">
        <ele>2029.48046875</ele>
        <time>2012-08-10T09:16:20Z</time>
      </trkpt>
      <trkpt lat="45.38028" lon="6.19659">
        <ele>2033.3256835938</ele>
        <time>2012-08-10T09:16:28Z</time>
      </trkpt>
      <trkpt lat="45.38029" lon="6.1966">
        <ele>2034.287109375</ele>
        <time>2012-08-10T09:16:33Z</time>
      </trkpt>
      <trkpt lat="45.38032" lon="6.19664">
        <ele>2037.1708984375</ele>
        <time>2012-08-10T09:16:41Z</time>
      </trkpt>
      <trkpt lat="45.38035" lon="6.19666">
        <ele>2039.57421875</ele>
        <time>2012-08-10T09:16:48Z</time>
      </trkpt>
      <trkpt lat="45.38038" lon="6.19668">
        <ele>2039.57421875</ele>
        <time>2012-08-10T09:16:55Z</time>
      </trkpt>
      <trkpt lat="45.38042" lon="6.1967">
        <ele>2038.1323242188</ele>
        <time>2012-08-10T09:17:01Z</time>
      </trkpt>
      <trkpt lat="45.38044" lon="6.19674">
        <ele>2040.5354003906</ele>
        <time>2012-08-10T09:17:08Z</time>
      </trkpt>
      <trkpt lat="45.38044" lon="6.1968">
        <ele>2042.9387207031</ele>
        <time>2012-08-10T09:17:17Z</time>
      </trkpt>
      <trkpt lat="45.38047" lon="6.19685">
        <ele>2042.4582519531</ele>
        <time>2012-08-10T09:17:24Z</time>
      </trkpt>
      <trkpt lat="45.3805" lon="6.19686">
        <ele>2044.380859375</ele>
        <time>2012-08-10T09:17:31Z</time>
      </trkpt>
      <trkpt lat="45.38051" lon="6.19688">
        <ele>2045.8229980469</ele>
        <time>2012-08-10T09:17:37Z</time>
      </trkpt>
      <trkpt lat="45.38052" lon="6.19685">
        <ele>2047.7456054688</ele>
        <time>2012-08-10T09:17:43Z</time>
      </trkpt>
      <trkpt lat="45.38054" lon="6.19684">
        <ele>2055.4360351562</ele>
        <time>2012-08-10T09:17:54Z</time>
      </trkpt>
      <trkpt lat="45.38054" lon="6.19687">
        <ele>2060.7233886719</ele>
        <time>2012-08-10T09:18:04Z</time>
      </trkpt>
      <trkpt lat="45.38057" lon="6.19684">
        <ele>2059.76171875</ele>
        <time>2012-08-10T09:18:11Z</time>
      </trkpt>
      <trkpt lat="45.38058" lon="6.19682">
        <ele>2061.6848144531</ele>
        <time>2012-08-10T09:18:17Z</time>
      </trkpt>
      <trkpt lat="45.38058" lon="6.1968">
        <ele>2065.5300292969</ele>
        <time>2012-08-10T09:18:24Z</time>
      </trkpt>
      <trkpt lat="45.3806" lon="6.19679">
        <ele>2064.087890625</ele>
        <time>2012-08-10T09:18:30Z</time>
      </trkpt>
      <trkpt lat="45.38064" lon="6.19677">
        <ele>2064.087890625</ele>
        <time>2012-08-10T09:18:38Z</time>
      </trkpt>
      <trkpt lat="45.38065" lon="6.19674">
        <ele>2066.4912109375</ele>
        <time>2012-08-10T09:18:44Z</time>
      </trkpt>
      <trkpt lat="45.38065" lon="6.19669">
        <ele>2068.89453125</ele>
        <time>2012-08-10T09:18:50Z</time>
      </trkpt>
      <trkpt lat="45.38068" lon="6.19667">
        <ele>2075.6235351562</ele>
        <time>2012-08-10T09:19:03Z</time>
      </trkpt>
      <trkpt lat="45.38068" lon="6.1967">
        <ele>2081.8723144531</ele>
        <time>2012-08-10T09:19:07Z</time>
      </trkpt>
      <trkpt lat="45.38073" lon="6.19671">
        <ele>2079.9497070312</ele>
        <time>2012-08-10T09:19:14Z</time>
      </trkpt>
      <trkpt lat="45.38077" lon="6.19668">
        <ele>2074.6623535156</ele>
        <time>2012-08-10T09:19:21Z</time>
      </trkpt>
      <trkpt lat="45.3808" lon="6.19665">
        <ele>2072.2590332031</ele>
        <time>2012-08-10T09:19:28Z</time>
      </trkpt>
      <trkpt lat="45.38084" lon="6.19661">
        <ele>2072.2590332031</ele>
        <time>2012-08-10T09:19:37Z</time>
      </trkpt>
      <trkpt lat="45.38086" lon="6.19659">
        <ele>2071.7783203125</ele>
        <time>2012-08-10T09:19:44Z</time>
      </trkpt>
      <trkpt lat="45.38091" lon="6.19657">
        <ele>2073.2204589844</ele>
        <time>2012-08-10T09:19:54Z</time>
      </trkpt>
      <trkpt lat="45.38091" lon="6.19658">
        <ele>2072.7397460938</ele>
        <time>2012-08-10T09:20:00Z</time>
      </trkpt>
      <trkpt lat="45.38092" lon="6.19659">
        <ele>2072.2590332031</ele>
        <time>2012-08-10T09:20:11Z</time>
      </trkpt>
      <trkpt lat="45.38092" lon="6.1966">
        <ele>2071.2976074219</ele>
        <time>2012-08-10T09:20:26Z</time>
      </trkpt>
      <trkpt lat="45.38092" lon="6.19659">
        <ele>2072.2590332031</ele>
        <time>2012-08-10T09:20:35Z</time>
      </trkpt>
      <trkpt lat="45.38092" lon="6.19659">
        <ele>2072.2590332031</ele>
        <time>2012-08-10T09:20:42Z</time>
      </trkpt>
      <trkpt lat="45.38092" lon="6.19659">
        <ele>2072.2590332031</ele>
        <time>2012-08-10T09:20:48Z</time>
      </trkpt>
      <trkpt lat="45.38092" lon="6.19658">
        <ele>2071.7783203125</ele>
        <time>2012-08-10T09:21:04Z</time>
      </trkpt>
      <trkpt lat="45.38091" lon="6.19659">
        <ele>2070.8171386719</ele>
        <time>2012-08-10T09:21:20Z</time>
      </trkpt>
      <trkpt lat="45.38094" lon="6.19662">
        <ele>2068.4138183594</ele>
        <time>2012-08-10T09:21:29Z</time>
      </trkpt>
      <trkpt lat="45.38095" lon="6.19663">
        <ele>2067.9331054688</ele>
        <time>2012-08-10T09:21:37Z</time>
      </trkpt>
      <trkpt lat="45.38098" lon="6.19669">
        <ele>2067.4523925781</ele>
        <time>2012-08-10T09:21:44Z</time>
      </trkpt>
      <trkpt lat="45.38099" lon="6.19678">
        <ele>2067.9331054688</ele>
        <time>2012-08-10T09:21:51Z</time>
      </trkpt>
      <trkpt lat="45.381" lon="6.19686">
        <ele>2067.4523925781</ele>
        <time>2012-08-10T09:21:58Z</time>
      </trkpt>
      <trkpt lat="45.38102" lon="6.19695">
        <ele>2068.89453125</ele>
        <time>2012-08-10T09:22:05Z</time>
      </trkpt>
      <trkpt lat="45.38105" lon="6.19704">
        <ele>2070.3364257812</ele>
        <time>2012-08-10T09:22:12Z</time>
      </trkpt>
      <trkpt lat="45.3811" lon="6.19713">
        <ele>2070.3364257812</ele>
        <time>2012-08-10T09:22:21Z</time>
      </trkpt>
      <trkpt lat="45.38114" lon="6.19718">
        <ele>2072.2590332031</ele>
        <time>2012-08-10T09:22:28Z</time>
      </trkpt>
      <trkpt lat="45.38121" lon="6.19722">
        <ele>2072.2590332031</ele>
        <time>2012-08-10T09:22:35Z</time>
      </trkpt>
      <trkpt lat="45.38123" lon="6.19724">
        <ele>2072.7397460938</ele>
        <time>2012-08-10T09:22:37Z</time>
      </trkpt>
      <trkpt lat="45.38127" lon="6.19729">
        <ele>2073.2204589844</ele>
        <time>2012-08-10T09:22:44Z</time>
      </trkpt>
      <trkpt lat="45.38135" lon="6.19731">
        <ele>2073.2204589844</ele>
        <time>2012-08-10T09:22:52Z</time>
      </trkpt>
      <trkpt lat="45.3814" lon="6.19732">
        <ele>2073.7009277344</ele>
        <time>2012-08-10T09:22:57Z</time>
      </trkpt>
      <trkpt lat="45.3814" lon="6.19732">
        <ele>2073.7009277344</ele>
        <time>2012-08-10T09:22:58Z</time>
      </trkpt>
      <trkpt lat="45.38145" lon="6.19732">
        <ele>2075.1428222656</ele>
        <time>2012-08-10T09:23:02Z</time>
      </trkpt>
      <trkpt lat="45.3815" lon="6.19735">
        <ele>2077.0659179688</ele>
        <time>2012-08-10T09:23:10Z</time>
      </trkpt>
      <trkpt lat="45.38157" lon="6.19736">
        <ele>2078.5078125</ele>
        <time>2012-08-10T09:23:17Z</time>
      </trkpt>
      <trkpt lat="45.38158" lon="6.1974">
        <ele>2078.98828125</ele>
        <time>2012-08-10T09:23:23Z</time>
      </trkpt>
      <trkpt lat="45.3816" lon="6.19743">
        <ele>2079.9497070312</ele>
        <time>2012-08-10T09:23:28Z</time>
      </trkpt>
      <trkpt lat="45.38162" lon="6.19744">
        <ele>2080.4304199219</ele>
        <time>2012-08-10T09:23:34Z</time>
      </trkpt>
      <trkpt lat="45.38165" lon="6.19741">
        <ele>2081.3916015625</ele>
        <time>2012-08-10T09:23:48Z</time>
      </trkpt>
      <trkpt lat="45.38171" lon="6.19738">
        <ele>2082.8334960938</ele>
        <time>2012-08-10T09:23:55Z</time>
      </trkpt>
      <trkpt lat="45.38173" lon="6.19737">
        <ele>2082.8334960938</ele>
        <time>2012-08-10T09:23:56Z</time>
      </trkpt>
      <trkpt lat="45.38179" lon="6.1974">
        <ele>2082.8334960938</ele>
        <time>2012-08-10T09:24:03Z</time>
      </trkpt>
      <trkpt lat="45.38182" lon="6.19741">
        <ele>2082.3530273438</ele>
        <time>2012-08-10T09:24:08Z</time>
      </trkpt>
      <trkpt lat="45.38185" lon="6.19735">
        <ele>2081.8723144531</ele>
        <time>2012-08-10T09:24:13Z</time>
      </trkpt>
      <trkpt lat="45.3819" lon="6.19731">
        <ele>2081.3916015625</ele>
        <time>2012-08-10T09:24:19Z</time>
      </trkpt>
      <trkpt lat="45.38194" lon="6.19735">
        <ele>2081.3916015625</ele>
        <time>2012-08-10T09:24:27Z</time>
      </trkpt>
      <trkpt lat="45.38196" lon="6.19737">
        <ele>2079.9497070312</ele>
        <time>2012-08-10T09:24:32Z</time>
      </trkpt>
      <trkpt lat="45.38199" lon="6.19739">
        <ele>2079.4689941406</ele>
        <time>2012-08-10T09:24:37Z</time>
      </trkpt>
      <trkpt lat="45.38206" lon="6.19742">
        <ele>2078.98828125</ele>
        <time>2012-08-10T09:24:43Z</time>
      </trkpt>
      <trkpt lat="45.38208" lon="6.19747">
        <ele>2078.98828125</ele>
        <time>2012-08-10T09:24:49Z</time>
      </trkpt>
      <trkpt lat="45.38213" lon="6.19749">
        <ele>2079.4689941406</ele>
        <time>2012-08-10T09:24:55Z</time>
      </trkpt>
      <trkpt lat="45.38218" lon="6.19748">
        <ele>2079.9497070312</ele>
        <time>2012-08-10T09:25:00Z</time>
      </trkpt>
      <trkpt lat="45.38221" lon="6.19749">
        <ele>2080.4304199219</ele>
        <time>2012-08-10T09:25:06Z</time>
      </trkpt>
      <trkpt lat="45.38228" lon="6.19748">
        <ele>2082.3530273438</ele>
        <time>2012-08-10T09:25:13Z</time>
      </trkpt>
      <trkpt lat="45.38231" lon="6.19747">
        <ele>2082.3530273438</ele>
        <time>2012-08-10T09:25:19Z</time>
      </trkpt>
      <trkpt lat="45.38235" lon="6.19747">
        <ele>2083.3142089844</ele>
        <time>2012-08-10T09:25:24Z</time>
      </trkpt>
      <trkpt lat="45.3824" lon="6.19746">
        <ele>2083.3142089844</ele>
        <time>2012-08-10T09:25:31Z</time>
      </trkpt>
      <trkpt lat="45.38244" lon="6.19744">
        <ele>2083.794921875</ele>
        <time>2012-08-10T09:25:38Z</time>
      </trkpt>
      <trkpt lat="45.38247" lon="6.19741">
        <ele>2082.3530273438</ele>
        <time>2012-08-10T09:25:44Z</time>
      </trkpt>
      <trkpt lat="45.38253" lon="6.19739">
        <ele>2080.4304199219</ele>
        <time>2012-08-10T09:25:51Z</time>
      </trkpt>
      <trkpt lat="45.38258" lon="6.19739">
        <ele>2079.4689941406</ele>
        <time>2012-08-10T09:25:58Z</time>
      </trkpt>
      <trkpt lat="45.38262" lon="6.1974">
        <ele>2078.0270996094</ele>
        <time>2012-08-10T09:26:04Z</time>
      </trkpt>
      <trkpt lat="45.38266" lon="6.19742">
        <ele>2077.0659179688</ele>
        <time>2012-08-10T09:26:10Z</time>
      </trkpt>
      <trkpt lat="45.3827" lon="6.19742">
        <ele>2076.5852050781</ele>
        <time>2012-08-10T09:26:16Z</time>
      </trkpt>
      <trkpt lat="45.38274" lon="6.19739">
        <ele>2074.6623535156</ele>
        <time>2012-08-10T09:26:22Z</time>
      </trkpt>
      <trkpt lat="45.38277" lon="6.19735">
        <ele>2073.2204589844</ele>
        <time>2012-08-10T09:26:30Z</time>
      </trkpt>
      <trkpt lat="45.38279" lon="6.19731">
        <ele>2071.7783203125</ele>
        <time>2012-08-10T09:26:36Z</time>
      </trkpt>
      <trkpt lat="45.38281" lon="6.19729">
        <ele>2070.8171386719</ele>
        <time>2012-08-10T09:26:43Z</time>
      </trkpt>
      <trkpt lat="45.38285" lon="6.19724">
        <ele>2069.3752441406</ele>
        <time>2012-08-10T09:26:49Z</time>
      </trkpt>
      <trkpt lat="45.38291" lon="6.19721">
        <ele>2069.3752441406</ele>
        <time>2012-08-10T09:26:54Z</time>
      </trkpt>
      <trkpt lat="45.38297" lon="6.19717">
        <ele>2066.9719238281</ele>
        <time>2012-08-10T09:27:01Z</time>
      </trkpt>
      <trkpt lat="45.38301" lon="6.19714">
        <ele>2065.0493164062</ele>
        <time>2012-08-10T09:27:07Z</time>
      </trkpt>
      <trkpt lat="45.38306" lon="6.19713">
        <ele>2064.087890625</ele>
        <time>2012-08-10T09:27:13Z</time>
      </trkpt>
      <trkpt lat="45.38309" lon="6.19711">
        <ele>2064.087890625</ele>
        <time>2012-08-10T09:27:18Z</time>
      </trkpt>
      <trkpt lat="45.38314" lon="6.19708">
        <ele>2063.1267089844</ele>
        <time>2012-08-10T09:27:24Z</time>
      </trkpt>
      <trkpt lat="45.38319" lon="6.19708">
        <ele>2062.6459960938</ele>
        <time>2012-08-10T09:27:28Z</time>
      </trkpt>
      <trkpt lat="45.38321" lon="6.19708">
        <ele>2062.1652832031</ele>
        <time>2012-08-10T09:27:30Z</time>
      </trkpt>
      <trkpt lat="45.38329" lon="6.19703">
        <ele>2060.2426757812</ele>
        <time>2012-08-10T09:27:37Z</time>
      </trkpt>
      <trkpt lat="45.38335" lon="6.19698">
        <ele>2058.3198242188</ele>
        <time>2012-08-10T09:27:44Z</time>
      </trkpt>
      <trkpt lat="45.3834" lon="6.19694">
        <ele>2056.3972167969</ele>
        <time>2012-08-10T09:27:50Z</time>
      </trkpt>
      <trkpt lat="45.38342" lon="6.19691">
        <ele>2055.9165039062</ele>
        <time>2012-08-10T09:27:53Z</time>
      </trkpt>
      <trkpt lat="45.3835" lon="6.19684">
        <ele>2053.994140625</ele>
        <time>2012-08-10T09:28:01Z</time>
      </trkpt>
      <trkpt lat="45.38353" lon="6.19681">
        <ele>2052.5520019531</ele>
        <time>2012-08-10T09:28:05Z</time>
      </trkpt>
      <trkpt lat="45.38361" lon="6.19674">
        <ele>2050.6293945312</ele>
        <time>2012-08-10T09:28:13Z</time>
      </trkpt>
      <trkpt lat="45.38362" lon="6.19675">
        <ele>2050.1489257812</ele>
        <time>2012-08-10T09:28:19Z</time>
      </trkpt>
      <trkpt lat="45.38366" lon="6.19671">
        <ele>2048.2260742188</ele>
        <time>2012-08-10T09:28:24Z</time>
      </trkpt>
      <trkpt lat="45.38373" lon="6.19666">
        <ele>2046.7841796875</ele>
        <time>2012-08-10T09:28:31Z</time>
      </trkpt>
      <trkpt lat="45.38375" lon="6.19664">
        <ele>2046.3037109375</ele>
        <time>2012-08-10T09:28:33Z</time>
      </trkpt>
      <trkpt lat="45.38377" lon="6.19664">
        <ele>2045.8229980469</ele>
        <time>2012-08-10T09:28:38Z</time>
      </trkpt>
      <trkpt lat="45.38381" lon="6.1966">
        <ele>2045.8229980469</ele>
        <time>2012-08-10T09:28:43Z</time>
      </trkpt>
      <trkpt lat="45.38385" lon="6.19661">
        <ele>2046.3037109375</ele>
        <time>2012-08-10T09:28:49Z</time>
      </trkpt>
      <trkpt lat="45.3839" lon="6.1966">
        <ele>2047.7456054688</ele>
        <time>2012-08-10T09:28:54Z</time>
      </trkpt>
      <trkpt lat="45.38393" lon="6.19657">
        <ele>2046.3037109375</ele>
        <time>2012-08-10T09:29:00Z</time>
      </trkpt>
      <trkpt lat="45.38395" lon="6.19654">
        <ele>2044.8615722656</ele>
        <time>2012-08-10T09:29:05Z</time>
      </trkpt>
      <trkpt lat="45.384" lon="6.1965">
        <ele>2042.9387207031</ele>
        <time>2012-08-10T09:29:11Z</time>
      </trkpt>
      <trkpt lat="45.38404" lon="6.19644">
        <ele>2041.0161132812</ele>
        <time>2012-08-10T09:29:18Z</time>
      </trkpt>
      <trkpt lat="45.38408" lon="6.19639">
        <ele>2039.0935058594</ele>
        <time>2012-08-10T09:29:24Z</time>
      </trkpt>
      <trkpt lat="45.38409" lon="6.19637">
        <ele>2038.1323242188</ele>
        <time>2012-08-10T09:29:26Z</time>
      </trkpt>
      <trkpt lat="45.38414" lon="6.19632">
        <ele>2036.2097167969</ele>
        <time>2012-08-10T09:29:32Z</time>
      </trkpt>
      <trkpt lat="45.38418" lon="6.19628">
        <ele>2034.287109375</ele>
        <time>2012-08-10T09:29:38Z</time>
      </trkpt>
      <trkpt lat="45.38422" lon="6.19623">
        <ele>2031.8837890625</ele>
        <time>2012-08-10T09:29:43Z</time>
      </trkpt>
      <trkpt lat="45.38427" lon="6.19617">
        <ele>2028.9997558594</ele>
        <time>2012-08-10T09:29:50Z</time>
      </trkpt>
      <trkpt lat="45.38433" lon="6.19613">
        <ele>2028.5192871094</ele>
        <time>2012-08-10T09:29:56Z</time>
      </trkpt>
      <trkpt lat="45.38438" lon="6.19609">
        <ele>2027.0771484375</ele>
        <time>2012-08-10T09:30:02Z</time>
      </trkpt>
      <trkpt lat="45.38443" lon="6.19604">
        <ele>2024.673828125</ele>
        <time>2012-08-10T09:30:09Z</time>
      </trkpt>
      <trkpt lat="45.38446" lon="6.19603">
        <ele>2024.1931152344</ele>
        <time>2012-08-10T09:30:13Z</time>
      </trkpt>
      <trkpt lat="45.3845" lon="6.19599">
        <ele>2025.154296875</ele>
        <time>2012-08-10T09:30:19Z</time>
      </trkpt>
      <trkpt lat="45.38453" lon="6.19595">
        <ele>2026.1157226562</ele>
        <time>2012-08-10T09:30:25Z</time>
      </trkpt>
      <trkpt lat="45.38456" lon="6.19588">
        <ele>2027.5576171875</ele>
        <time>2012-08-10T09:30:33Z</time>
      </trkpt>
      <trkpt lat="45.38458" lon="6.19586">
        <ele>2028.0385742188</ele>
        <time>2012-08-10T09:30:38Z</time>
      </trkpt>
      <trkpt lat="45.38461" lon="6.19582">
        <ele>2030.4418945312</ele>
        <time>2012-08-10T09:30:46Z</time>
      </trkpt>
      <trkpt lat="45.38465" lon="6.19578">
        <ele>2031.4030761719</ele>
        <time>2012-08-10T09:30:53Z</time>
      </trkpt>
      <trkpt lat="45.38471" lon="6.19573">
        <ele>2032.8449707031</ele>
        <time>2012-08-10T09:31:02Z</time>
      </trkpt>
      <trkpt lat="45.38475" lon="6.1957">
        <ele>2033.8063964844</ele>
        <time>2012-08-10T09:31:07Z</time>
      </trkpt>
      <trkpt lat="45.38481" lon="6.19566">
        <ele>2035.7290039062</ele>
        <time>2012-08-10T09:31:14Z</time>
      </trkpt>
      <trkpt lat="45.38487" lon="6.19564">
        <ele>2038.1323242188</ele>
        <time>2012-08-10T09:31:22Z</time>
      </trkpt>
      <trkpt lat="45.38493" lon="6.19563">
        <ele>2039.57421875</ele>
        <time>2012-08-10T09:31:29Z</time>
      </trkpt>
      <trkpt lat="45.38497" lon="6.19564">
        <ele>2040.0549316406</ele>
        <time>2012-08-10T09:31:37Z</time>
      </trkpt>
      <trkpt lat="45.38501" lon="6.19562">
        <ele>2040.0549316406</ele>
        <time>2012-08-10T09:31:43Z</time>
      </trkpt>
      <trkpt lat="45.38508" lon="6.19561">
        <ele>2041.0161132812</ele>
        <time>2012-08-10T09:31:50Z</time>
      </trkpt>
      <trkpt lat="45.38513" lon="6.19563">
        <ele>2041.0161132812</ele>
        <time>2012-08-10T09:31:56Z</time>
      </trkpt>
      <trkpt lat="45.38518" lon="6.19565">
        <ele>2041.4968261719</ele>
        <time>2012-08-10T09:32:03Z</time>
      </trkpt>
      <trkpt lat="45.38523" lon="6.19566">
        <ele>2041.9775390625</ele>
        <time>2012-08-10T09:32:09Z</time>
      </trkpt>
      <trkpt lat="45.38525" lon="6.19567">
        <ele>2042.9387207031</ele>
        <time>2012-08-10T09:32:14Z</time>
      </trkpt>
      <trkpt lat="45.38525" lon="6.19569">
        <ele>2042.9387207031</ele>
        <time>2012-08-10T09:32:20Z</time>
      </trkpt>
      <trkpt lat="45.38523" lon="6.19573">
        <ele>2043.4194335938</ele>
        <time>2012-08-10T09:32:26Z</time>
      </trkpt>
      <trkpt lat="45.38523" lon="6.19576">
        <ele>2043.4194335938</ele>
        <time>2012-08-10T09:32:32Z</time>
      </trkpt>
      <trkpt lat="45.38523" lon="6.19576">
        <ele>2043.4194335938</ele>
        <time>2012-08-10T09:32:37Z</time>
      </trkpt>
      <trkpt lat="45.38522" lon="6.19579">
        <ele>2044.380859375</ele>
        <time>2012-08-10T09:32:44Z</time>
      </trkpt>
      <trkpt lat="45.38524" lon="6.19581">
        <ele>2044.8615722656</ele>
        <time>2012-08-10T09:32:56Z</time>
      </trkpt>
      <trkpt lat="45.38526" lon="6.19584">
        <ele>2047.2648925781</ele>
        <time>2012-08-10T09:33:03Z</time>
      </trkpt>
      <trkpt lat="45.38527" lon="6.19589">
        <ele>2047.7456054688</ele>
        <time>2012-08-10T09:33:11Z</time>
      </trkpt>
      <trkpt lat="45.38527" lon="6.19594">
        <ele>2047.7456054688</ele>
        <time>2012-08-10T09:33:17Z</time>
      </trkpt>
      <trkpt lat="45.3853" lon="6.196">
        <ele>2049.1875</ele>
        <time>2012-08-10T09:33:24Z</time>
      </trkpt>
      <trkpt lat="45.38532" lon="6.19602">
        <ele>2051.5908203125</ele>
        <time>2012-08-10T09:33:29Z</time>
      </trkpt>
      <trkpt lat="45.38535" lon="6.19605">
        <ele>2052.0712890625</ele>
        <time>2012-08-10T09:33:36Z</time>
      </trkpt>
      <trkpt lat="45.38539" lon="6.19608">
        <ele>2053.0327148438</ele>
        <time>2012-08-10T09:33:42Z</time>
      </trkpt>
      <trkpt lat="45.38543" lon="6.19612">
        <ele>2053.5134277344</ele>
        <time>2012-08-10T09:33:49Z</time>
      </trkpt>
      <trkpt lat="45.38548" lon="6.19615">
        <ele>2053.994140625</ele>
        <time>2012-08-10T09:33:56Z</time>
      </trkpt>
      <trkpt lat="45.3855" lon="6.19618">
        <ele>2055.9165039062</ele>
        <time>2012-08-10T09:34:03Z</time>
      </trkpt>
      <trkpt lat="45.3855" lon="6.1962">
        <ele>2056.3972167969</ele>
        <time>2012-08-10T09:34:09Z</time>
      </trkpt>
      <trkpt lat="45.38552" lon="6.19624">
        <ele>2057.8393554688</ele>
        <time>2012-08-10T09:34:15Z</time>
      </trkpt>
      <trkpt lat="45.38552" lon="6.1963">
        <ele>2058.3198242188</ele>
        <time>2012-08-10T09:34:22Z</time>
      </trkpt>
      <trkpt lat="45.38555" lon="6.19635">
        <ele>2059.28125</ele>
        <time>2012-08-10T09:34:29Z</time>
      </trkpt>
      <trkpt lat="45.38556" lon="6.1964">
        <ele>2059.76171875</ele>
        <time>2012-08-10T09:34:36Z</time>
      </trkpt>
      <trkpt lat="45.38557" lon="6.19645">
        <ele>2062.1652832031</ele>
        <time>2012-08-10T09:34:45Z</time>
      </trkpt>
      <trkpt lat="45.38558" lon="6.19652">
        <ele>2062.6459960938</ele>
        <time>2012-08-10T09:34:53Z</time>
      </trkpt>
      <trkpt lat="45.38556" lon="6.19655">
        <ele>2064.087890625</ele>
        <time>2012-08-10T09:35:00Z</time>
      </trkpt>
      <trkpt lat="45.38553" lon="6.19657">
        <ele>2065.0493164062</ele>
        <time>2012-08-10T09:35:06Z</time>
      </trkpt>
      <trkpt lat="45.38552" lon="6.1966">
        <ele>2064.087890625</ele>
        <time>2012-08-10T09:35:11Z</time>
      </trkpt>
      <trkpt lat="45.38555" lon="6.19665">
        <ele>2064.5686035156</ele>
        <time>2012-08-10T09:35:20Z</time>
      </trkpt>
      <trkpt lat="45.38554" lon="6.19669">
        <ele>2066.0104980469</ele>
        <time>2012-08-10T09:35:26Z</time>
      </trkpt>
      <trkpt lat="45.38554" lon="6.19673">
        <ele>2068.4138183594</ele>
        <time>2012-08-10T09:35:33Z</time>
      </trkpt>
      <trkpt lat="45.38557" lon="6.19679">
        <ele>2069.8557128906</ele>
        <time>2012-08-10T09:35:43Z</time>
      </trkpt>
      <trkpt lat="45.38557" lon="6.19684">
        <ele>2070.3364257812</ele>
        <time>2012-08-10T09:35:51Z</time>
      </trkpt>
      <trkpt lat="45.38558" lon="6.19687">
        <ele>2072.7397460938</ele>
        <time>2012-08-10T09:35:58Z</time>
      </trkpt>
      <trkpt lat="45.38559" lon="6.1969">
        <ele>2074.181640625</ele>
        <time>2012-08-10T09:36:04Z</time>
      </trkpt>
      <trkpt lat="45.38562" lon="6.19691">
        <ele>2076.1044921875</ele>
        <time>2012-08-10T09:36:09Z</time>
      </trkpt>
      <trkpt lat="45.38564" lon="6.19694">
        <ele>2078.5078125</ele>
        <time>2012-08-10T09:36:16Z</time>
      </trkpt>
      <trkpt lat="45.38564" lon="6.19698">
        <ele>2079.9497070312</ele>
        <time>2012-08-10T09:36:23Z</time>
      </trkpt>
      <trkpt lat="45.38564" lon="6.19702">
        <ele>2079.4689941406</ele>
        <time>2012-08-10T09:36:30Z</time>
      </trkpt>
      <trkpt lat="45.38567" lon="6.19703">
        <ele>2080.9111328125</ele>
        <time>2012-08-10T09:36:39Z</time>
      </trkpt>
      <trkpt lat="45.38568" lon="6.19705">
        <ele>2081.8723144531</ele>
        <time>2012-08-10T09:36:46Z</time>
      </trkpt>
      <trkpt lat="45.3857" lon="6.19706">
        <ele>2082.8334960938</ele>
        <time>2012-08-10T09:36:54Z</time>
      </trkpt>
      <trkpt lat="45.38572" lon="6.1971">
        <ele>2083.794921875</ele>
        <time>2012-08-10T09:37:02Z</time>
      </trkpt>
      <trkpt lat="45.38571" lon="6.19712">
        <ele>2085.7175292969</ele>
        <time>2012-08-10T09:37:08Z</time>
      </trkpt>
      <trkpt lat="45.3857" lon="6.19714">
        <ele>2087.1594238281</ele>
        <time>2012-08-10T09:37:14Z</time>
      </trkpt>
      <trkpt lat="45.38572" lon="6.19717">
        <ele>2087.6401367188</ele>
        <time>2012-08-10T09:37:21Z</time>
      </trkpt>
      <trkpt lat="45.38572" lon="6.1972">
        <ele>2088.6015625</ele>
        <time>2012-08-10T09:37:26Z</time>
      </trkpt>
      <trkpt lat="45.38572" lon="6.19723">
        <ele>2089.5627441406</ele>
        <time>2012-08-10T09:37:32Z</time>
      </trkpt>
      <trkpt lat="45.38573" lon="6.19726">
        <ele>2090.5239257812</ele>
        <time>2012-08-10T09:37:38Z</time>
      </trkpt>
      <trkpt lat="45.38572" lon="6.19728">
        <ele>2089.5627441406</ele>
        <time>2012-08-10T09:37:45Z</time>
      </trkpt>
      <trkpt lat="45.38572" lon="6.19732">
        <ele>2090.0434570312</ele>
        <time>2012-08-10T09:37:51Z</time>
      </trkpt>
      <trkpt lat="45.38571" lon="6.19735">
        <ele>2089.5627441406</ele>
        <time>2012-08-10T09:37:58Z</time>
      </trkpt>
      <trkpt lat="45.38568" lon="6.19738">
        <ele>2090.5239257812</ele>
        <time>2012-08-10T09:38:05Z</time>
      </trkpt>
      <trkpt lat="45.38567" lon="6.19741">
        <ele>2091.9660644531</ele>
        <time>2012-08-10T09:38:11Z</time>
      </trkpt>
      <trkpt lat="45.38568" lon="6.19746">
        <ele>2092.9274902344</ele>
        <time>2012-08-10T09:38:18Z</time>
      </trkpt>
      <trkpt lat="45.38568" lon="6.19749">
        <ele>2093.408203125</ele>
        <time>2012-08-10T09:38:24Z</time>
      </trkpt>
      <trkpt lat="45.38568" lon="6.19753">
        <ele>2096.2922363281</ele>
        <time>2012-08-10T09:38:32Z</time>
      </trkpt>
      <trkpt lat="45.38569" lon="6.19757">
        <ele>2097.2534179688</ele>
        <time>2012-08-10T09:38:39Z</time>
      </trkpt>
      <trkpt lat="45.38571" lon="6.19759">
        <ele>2100.1374511719</ele>
        <time>2012-08-10T09:38:45Z</time>
      </trkpt>
      <trkpt lat="45.38573" lon="6.1976">
        <ele>2101.5793457031</ele>
        <time>2012-08-10T09:38:51Z</time>
      </trkpt>
      <trkpt lat="45.38576" lon="6.1976">
        <ele>2103.501953125</ele>
        <time>2012-08-10T09:38:57Z</time>
      </trkpt>
      <trkpt lat="45.38578" lon="6.19764">
        <ele>2104.4631347656</ele>
        <time>2012-08-10T09:39:04Z</time>
      </trkpt>
      <trkpt lat="45.3858" lon="6.19766">
        <ele>2106.8664550781</ele>
        <time>2012-08-10T09:39:11Z</time>
      </trkpt>
      <trkpt lat="45.38583" lon="6.19767">
        <ele>2108.7893066406</ele>
        <time>2012-08-10T09:39:18Z</time>
      </trkpt>
      <trkpt lat="45.38586" lon="6.19766">
        <ele>2111.1926269531</ele>
        <time>2012-08-10T09:39:26Z</time>
      </trkpt>
      <trkpt lat="45.38589" lon="6.19768">
        <ele>2112.1538085938</ele>
        <time>2012-08-10T09:39:32Z</time>
      </trkpt>
      <trkpt lat="45.38591" lon="6.19772">
        <ele>2112.6345214844</ele>
        <time>2012-08-10T09:39:38Z</time>
      </trkpt>
      <trkpt lat="45.38593" lon="6.19776">
        <ele>2113.595703125</ele>
        <time>2012-08-10T09:39:45Z</time>
      </trkpt>
      <trkpt lat="45.38596" lon="6.1978">
        <ele>2114.5571289062</ele>
        <time>2012-08-10T09:39:53Z</time>
      </trkpt>
      <trkpt lat="45.38598" lon="6.19784">
        <ele>2115.9990234375</ele>
        <time>2012-08-10T09:39:59Z</time>
      </trkpt>
      <trkpt lat="45.38601" lon="6.1979">
        <ele>2117.9216308594</ele>
        <time>2012-08-10T09:40:07Z</time>
      </trkpt>
      <trkpt lat="45.38604" lon="6.19795">
        <ele>2119.3637695312</ele>
        <time>2012-08-10T09:40:14Z</time>
      </trkpt>
      <trkpt lat="45.38606" lon="6.198">
        <ele>2122.2475585938</ele>
        <time>2012-08-10T09:40:21Z</time>
      </trkpt>
      <trkpt lat="45.38608" lon="6.19803">
        <ele>2123.689453125</ele>
        <time>2012-08-10T09:40:27Z</time>
      </trkpt>
      <trkpt lat="45.38611" lon="6.19808">
        <ele>2126.0930175781</ele>
        <time>2012-08-10T09:40:36Z</time>
      </trkpt>
      <trkpt lat="45.38614" lon="6.19814">
        <ele>2127.5349121094</ele>
        <time>2012-08-10T09:40:43Z</time>
      </trkpt>
      <trkpt lat="45.38615" lon="6.19818">
        <ele>2129.4575195312</ele>
        <time>2012-08-10T09:40:49Z</time>
      </trkpt>
      <trkpt lat="45.38617" lon="6.19821">
        <ele>2131.8608398438</ele>
        <time>2012-08-10T09:40:57Z</time>
      </trkpt>
      <trkpt lat="45.38619" lon="6.19825">
        <ele>2133.302734375</ele>
        <time>2012-08-10T09:41:04Z</time>
      </trkpt>
      <trkpt lat="45.38621" lon="6.19828">
        <ele>2134.7448730469</ele>
        <time>2012-08-10T09:41:09Z</time>
      </trkpt>
      <trkpt lat="45.38623" lon="6.19831">
        <ele>2136.6672363281</ele>
        <time>2012-08-10T09:41:15Z</time>
      </trkpt>
      <trkpt lat="45.38624" lon="6.19836">
        <ele>2137.1479492188</ele>
        <time>2012-08-10T09:41:20Z</time>
      </trkpt>
      <trkpt lat="45.38624" lon="6.19841">
        <ele>2137.1479492188</ele>
        <time>2012-08-10T09:41:25Z</time>
      </trkpt>
      <trkpt lat="45.38624" lon="6.19845">
        <ele>2137.6286621094</ele>
        <time>2012-08-10T09:41:30Z</time>
      </trkpt>
      <trkpt lat="45.38625" lon="6.19849">
        <ele>2138.109375</ele>
        <time>2012-08-10T09:41:35Z</time>
      </trkpt>
      <trkpt lat="45.38627" lon="6.19855">
        <ele>2139.0705566406</ele>
        <time>2012-08-10T09:41:43Z</time>
      </trkpt>
      <trkpt lat="45.38628" lon="6.1986">
        <ele>2140.5126953125</ele>
        <time>2012-08-10T09:41:49Z</time>
      </trkpt>
      <trkpt lat="45.38628" lon="6.19863">
        <ele>2141.4741210938</ele>
        <time>2012-08-10T09:41:54Z</time>
      </trkpt>
      <trkpt lat="45.38629" lon="6.19862">
        <ele>2141.9548339844</ele>
        <time>2012-08-10T09:42:08Z</time>
      </trkpt>
      <trkpt lat="45.38631" lon="6.19861">
        <ele>2141.9548339844</ele>
        <time>2012-08-10T09:42:13Z</time>
      </trkpt>
      <trkpt lat="45.38634" lon="6.1986">
        <ele>2141.9548339844</ele>
        <time>2012-08-10T09:42:19Z</time>
      </trkpt>
      <trkpt lat="45.38637" lon="6.19859">
        <ele>2142.435546875</ele>
        <time>2012-08-10T09:42:26Z</time>
      </trkpt>
      <trkpt lat="45.38638" lon="6.19856">
        <ele>2143.8774414062</ele>
        <time>2012-08-10T09:42:36Z</time>
      </trkpt>
      <trkpt lat="45.3864" lon="6.19852">
        <ele>2145.3193359375</ele>
        <time>2012-08-10T09:42:44Z</time>
      </trkpt>
      <trkpt lat="45.38644" lon="6.19847">
        <ele>2146.7612304688</ele>
        <time>2012-08-10T09:42:53Z</time>
      </trkpt>
      <trkpt lat="45.38644" lon="6.19846">
        <ele>2147.72265625</ele>
        <time>2012-08-10T09:43:01Z</time>
      </trkpt>
      <trkpt lat="45.38645" lon="6.19844">
        <ele>2148.6838378906</ele>
        <time>2012-08-10T09:43:06Z</time>
      </trkpt>
      <trkpt lat="45.38647" lon="6.19841">
        <ele>2150.1259765625</ele>
        <time>2012-08-10T09:43:12Z</time>
      </trkpt>
      <trkpt lat="45.38649" lon="6.19838">
        <ele>2151.0871582031</ele>
        <time>2012-08-10T09:43:19Z</time>
      </trkpt>
      <trkpt lat="45.3865" lon="6.19834">
        <ele>2152.5290527344</ele>
        <time>2012-08-10T09:43:25Z</time>
      </trkpt>
      <trkpt lat="45.38651" lon="6.19831">
        <ele>2153.4904785156</ele>
        <time>2012-08-10T09:43:31Z</time>
      </trkpt>
      <trkpt lat="45.38654" lon="6.19828">
        <ele>2155.8935546875</ele>
        <time>2012-08-10T09:43:39Z</time>
      </trkpt>
      <trkpt lat="45.38655" lon="6.19828">
        <ele>2158.7778320312</ele>
        <time>2012-08-10T09:43:45Z</time>
      </trkpt>
      <trkpt lat="45.38655" lon="6.1983">
        <ele>2161.1811523438</ele>
        <time>2012-08-10T09:43:52Z</time>
      </trkpt>
      <trkpt lat="45.38656" lon="6.19832">
        <ele>2162.1423339844</ele>
        <time>2012-08-10T09:43:58Z</time>
      </trkpt>
      <trkpt lat="45.38659" lon="6.19828">
        <ele>2163.5842285156</ele>
        <time>2012-08-10T09:44:06Z</time>
      </trkpt>
      <trkpt lat="45.3866" lon="6.19826">
        <ele>2164.0649414062</ele>
        <time>2012-08-10T09:44:11Z</time>
      </trkpt>
      <trkpt lat="45.38661" lon="6.19823">
        <ele>2164.0649414062</ele>
        <time>2012-08-10T09:44:17Z</time>
      </trkpt>
      <trkpt lat="45.38663" lon="6.1982">
        <ele>2164.0649414062</ele>
        <time>2012-08-10T09:44:25Z</time>
      </trkpt>
      <trkpt lat="45.38665" lon="6.19817">
        <ele>2164.0649414062</ele>
        <time>2012-08-10T09:44:31Z</time>
      </trkpt>
      <trkpt lat="45.38666" lon="6.19814">
        <ele>2164.5456542969</ele>
        <time>2012-08-10T09:44:37Z</time>
      </trkpt>
      <trkpt lat="45.38667" lon="6.1981">
        <ele>2165.9875488281</ele>
        <time>2012-08-10T09:44:44Z</time>
      </trkpt>
      <trkpt lat="45.38669" lon="6.19805">
        <ele>2167.4294433594</ele>
        <time>2012-08-10T09:44:52Z</time>
      </trkpt>
      <trkpt lat="45.3867" lon="6.19799">
        <ele>2169.8327636719</ele>
        <time>2012-08-10T09:44:59Z</time>
      </trkpt>
      <trkpt lat="45.38671" lon="6.19793">
        <ele>2171.2746582031</ele>
        <time>2012-08-10T09:45:06Z</time>
      </trkpt>
      <trkpt lat="45.38671" lon="6.19788">
        <ele>2171.7553710938</ele>
        <time>2012-08-10T09:45:11Z</time>
      </trkpt>
      <trkpt lat="45.38673" lon="6.19784">
        <ele>2173.1977539062</ele>
        <time>2012-08-10T09:45:17Z</time>
      </trkpt>
      <trkpt lat="45.38675" lon="6.19782">
        <ele>2173.1977539062</ele>
        <time>2012-08-10T09:45:23Z</time>
      </trkpt>
      <trkpt lat="45.38676" lon="6.19779">
        <ele>2174.1589355469</ele>
        <time>2012-08-10T09:45:29Z</time>
      </trkpt>
      <trkpt lat="45.38677" lon="6.19776">
        <ele>2175.1201171875</ele>
        <time>2012-08-10T09:45:36Z</time>
      </trkpt>
      <trkpt lat="45.3868" lon="6.19771">
        <ele>2177.04296875</ele>
        <time>2012-08-10T09:45:45Z</time>
      </trkpt>
      <trkpt lat="45.38683" lon="6.19765">
        <ele>2176.5622558594</ele>
        <time>2012-08-10T09:45:52Z</time>
      </trkpt>
      <trkpt lat="45.38688" lon="6.1976">
        <ele>2178.0041503906</ele>
        <time>2012-08-10T09:46:00Z</time>
      </trkpt>
      <trkpt lat="45.38691" lon="6.19751">
        <ele>2179.4460449219</ele>
        <time>2012-08-10T09:46:10Z</time>
      </trkpt>
      <trkpt lat="45.38692" lon="6.19745">
        <ele>2180.4074707031</ele>
        <time>2012-08-10T09:46:16Z</time>
      </trkpt>
      <trkpt lat="45.38694" lon="6.19738">
        <ele>2181.3686523438</ele>
        <time>2012-08-10T09:46:23Z</time>
      </trkpt>
      <trkpt lat="45.38695" lon="6.19732">
        <ele>2183.2912597656</ele>
        <time>2012-08-10T09:46:30Z</time>
      </trkpt>
      <trkpt lat="45.38695" lon="6.19724">
        <ele>2186.1752929688</ele>
        <time>2012-08-10T09:46:38Z</time>
      </trkpt>
      <trkpt lat="45.38696" lon="6.19722">
        <ele>2187.6171875</ele>
        <time>2012-08-10T09:46:44Z</time>
      </trkpt>
      <trkpt lat="45.38696" lon="6.1972">
        <ele>2188.0981445312</ele>
        <time>2012-08-10T09:46:49Z</time>
      </trkpt>
      <trkpt lat="45.38697" lon="6.19718">
        <ele>2188.0981445312</ele>
        <time>2012-08-10T09:46:56Z</time>
      </trkpt>
      <trkpt lat="45.387" lon="6.19719">
        <ele>2189.0593261719</ele>
        <time>2012-08-10T09:47:04Z</time>
      </trkpt>
      <trkpt lat="45.38702" lon="6.1972">
        <ele>2189.0593261719</ele>
        <time>2012-08-10T09:47:09Z</time>
      </trkpt>
      <trkpt lat="45.38704" lon="6.19719">
        <ele>2189.5400390625</ele>
        <time>2012-08-10T09:47:13Z</time>
      </trkpt>
      <trkpt lat="45.38708" lon="6.1972">
        <ele>2192.4240722656</ele>
        <time>2012-08-10T09:47:22Z</time>
      </trkpt>
      <trkpt lat="45.38709" lon="6.19722">
        <ele>2194.3464355469</ele>
        <time>2012-08-10T09:47:28Z</time>
      </trkpt>
      <trkpt lat="45.38712" lon="6.19724">
        <ele>2196.2692871094</ele>
        <time>2012-08-10T09:47:34Z</time>
      </trkpt>
      <trkpt lat="45.38715" lon="6.19725">
        <ele>2198.1916503906</ele>
        <time>2012-08-10T09:47:42Z</time>
      </trkpt>
      <trkpt lat="45.38719" lon="6.19725">
        <ele>2199.6337890625</ele>
        <time>2012-08-10T09:47:48Z</time>
      </trkpt>
      <trkpt lat="45.38725" lon="6.19727">
        <ele>2201.0756835938</ele>
        <time>2012-08-10T09:47:56Z</time>
      </trkpt>
      <trkpt lat="45.38729" lon="6.19727">
        <ele>2202.0368652344</ele>
        <time>2012-08-10T09:48:03Z</time>
      </trkpt>
      <trkpt lat="45.38734" lon="6.19728">
        <ele>2203.9597167969</ele>
        <time>2012-08-10T09:48:12Z</time>
      </trkpt>
      <trkpt lat="45.38739" lon="6.19729">
        <ele>2205.8823242188</ele>
        <time>2012-08-10T09:48:19Z</time>
      </trkpt>
      <trkpt lat="45.38745" lon="6.1973">
        <ele>2208.2856445312</ele>
        <time>2012-08-10T09:48:28Z</time>
      </trkpt>
      <trkpt lat="45.38749" lon="6.1973">
        <ele>2210.2082519531</ele>
        <time>2012-08-10T09:48:36Z</time>
      </trkpt>
      <trkpt lat="45.38752" lon="6.19732">
        <ele>2211.650390625</ele>
        <time>2012-08-10T09:48:42Z</time>
      </trkpt>
      <trkpt lat="45.38755" lon="6.19734">
        <ele>2212.6115722656</ele>
        <time>2012-08-10T09:48:49Z</time>
      </trkpt>
      <trkpt lat="45.38758" lon="6.19736">
        <ele>2214.0534667969</ele>
        <time>2012-08-10T09:48:56Z</time>
      </trkpt>
      <trkpt lat="45.3876" lon="6.19739">
        <ele>2215.0148925781</ele>
        <time>2012-08-10T09:49:02Z</time>
      </trkpt>
      <trkpt lat="45.38763" lon="6.19739">
        <ele>2215.9760742188</ele>
        <time>2012-08-10T09:49:07Z</time>
      </trkpt>
      <trkpt lat="45.38767" lon="6.19739">
        <ele>2217.8986816406</ele>
        <time>2012-08-10T09:49:14Z</time>
      </trkpt>
      <trkpt lat="45.38769" lon="6.1974">
        <ele>2218.8601074219</ele>
        <time>2012-08-10T09:49:20Z</time>
      </trkpt>
      <trkpt lat="45.38773" lon="6.19743">
        <ele>2219.8212890625</ele>
        <time>2012-08-10T09:49:27Z</time>
      </trkpt>
      <trkpt lat="45.38774" lon="6.19745">
        <ele>2221.2634277344</ele>
        <time>2012-08-10T09:49:34Z</time>
      </trkpt>
      <trkpt lat="45.38776" lon="6.19748">
        <ele>2222.2248535156</ele>
        <time>2012-08-10T09:49:40Z</time>
      </trkpt>
      <trkpt lat="45.38779" lon="6.19749">
        <ele>2223.6667480469</ele>
        <time>2012-08-10T09:49:49Z</time>
      </trkpt>
      <trkpt lat="45.38783" lon="6.19751">
        <ele>2225.1086425781</ele>
        <time>2012-08-10T09:49:55Z</time>
      </trkpt>
      <trkpt lat="45.38786" lon="6.19752">
        <ele>2227.5119628906</ele>
        <time>2012-08-10T09:50:02Z</time>
      </trkpt>
      <trkpt lat="45.38789" lon="6.19753">
        <ele>2228.9538574219</ele>
        <time>2012-08-10T09:50:08Z</time>
      </trkpt>
      <trkpt lat="45.38793" lon="6.19753">
        <ele>2230.8767089844</ele>
        <time>2012-08-10T09:50:16Z</time>
      </trkpt>
      <trkpt lat="45.38797" lon="6.19753">
        <ele>2232.3186035156</ele>
        <time>2012-08-10T09:50:23Z</time>
      </trkpt>
      <trkpt lat="45.38802" lon="6.19753">
        <ele>2234.2412109375</ele>
        <time>2012-08-10T09:50:30Z</time>
      </trkpt>
      <trkpt lat="45.38808" lon="6.19754">
        <ele>2235.6831054688</ele>
        <time>2012-08-10T09:50:37Z</time>
      </trkpt>
      <trkpt lat="45.38814" lon="6.19754">
        <ele>2237.6059570312</ele>
        <time>2012-08-10T09:50:45Z</time>
      </trkpt>
      <trkpt lat="45.3882" lon="6.19756">
        <ele>2238.0866699219</ele>
        <time>2012-08-10T09:50:53Z</time>
      </trkpt>
      <trkpt lat="45.38821" lon="6.19757">
        <ele>2237.6059570312</ele>
        <time>2012-08-10T09:50:59Z</time>
      </trkpt>
      <trkpt lat="45.38825" lon="6.1976">
        <ele>2238.0866699219</ele>
        <time>2012-08-10T09:51:05Z</time>
      </trkpt>
      <trkpt lat="45.38827" lon="6.19764">
        <ele>2237.6059570312</ele>
        <time>2012-08-10T09:51:08Z</time>
      </trkpt>
      <trkpt lat="45.38832" lon="6.19774">
        <ele>2237.6059570312</ele>
        <time>2012-08-10T09:51:16Z</time>
      </trkpt>
      <trkpt lat="45.38833" lon="6.19778">
        <ele>2237.6059570312</ele>
        <time>2012-08-10T09:51:19Z</time>
      </trkpt>
      <trkpt lat="45.38836" lon="6.19786">
        <ele>2236.64453125</ele>
        <time>2012-08-10T09:51:26Z</time>
      </trkpt>
      <trkpt lat="45.38837" lon="6.19789">
        <ele>2237.1252441406</ele>
        <time>2012-08-10T09:51:31Z</time>
      </trkpt>
      <trkpt lat="45.38838" lon="6.1979">
        <ele>2237.6059570312</ele>
        <time>2012-08-10T09:51:38Z</time>
      </trkpt>
      <trkpt lat="45.38844" lon="6.19794">
        <ele>2238.0866699219</ele>
        <time>2012-08-10T09:51:45Z</time>
      </trkpt>
      <trkpt lat="45.38851" lon="6.19796">
        <ele>2239.0478515625</ele>
        <time>2012-08-10T09:51:53Z</time>
      </trkpt>
      <trkpt lat="45.38855" lon="6.19798">
        <ele>2240.4897460938</ele>
        <time>2012-08-10T09:51:57Z</time>
      </trkpt>
      <trkpt lat="45.3886" lon="6.19801">
        <ele>2240.9704589844</ele>
        <time>2012-08-10T09:52:02Z</time>
      </trkpt>
      <trkpt lat="45.38865" lon="6.19805">
        <ele>2242.4125976562</ele>
        <time>2012-08-10T09:52:09Z</time>
      </trkpt>
      <trkpt lat="45.3887" lon="6.19804">
        <ele>2243.3737792969</ele>
        <time>2012-08-10T09:52:15Z</time>
      </trkpt>
      <trkpt lat="45.38871" lon="6.19807">
        <ele>2243.8544921875</ele>
        <time>2012-08-10T09:52:19Z</time>
      </trkpt>
      <trkpt lat="45.38873" lon="6.19808">
        <ele>2243.3737792969</ele>
        <time>2012-08-10T09:52:24Z</time>
      </trkpt>
      <trkpt lat="45.38876" lon="6.19811">
        <ele>2243.3737792969</ele>
        <time>2012-08-10T09:52:29Z</time>
      </trkpt>
      <trkpt lat="45.38882" lon="6.19813">
        <ele>2243.8544921875</ele>
        <time>2012-08-10T09:52:35Z</time>
      </trkpt>
      <trkpt lat="45.38886" lon="6.19814">
        <ele>2244.8156738281</ele>
        <time>2012-08-10T09:52:40Z</time>
      </trkpt>
      <trkpt lat="45.38892" lon="6.19813">
        <ele>2244.3349609375</ele>
        <time>2012-08-10T09:52:48Z</time>
      </trkpt>
      <trkpt lat="45.38896" lon="6.1981">
        <ele>2243.8544921875</ele>
        <time>2012-08-10T09:52:54Z</time>
      </trkpt>
      <trkpt lat="45.38902" lon="6.19811">
        <ele>2243.8544921875</ele>
        <time>2012-08-10T09:53:00Z</time>
      </trkpt>
      <trkpt lat="45.38904" lon="6.19811">
        <ele>2243.8544921875</ele>
        <time>2012-08-10T09:53:05Z</time>
      </trkpt>
      <trkpt lat="45.38907" lon="6.1981">
        <ele>2243.3737792969</ele>
        <time>2012-08-10T09:53:08Z</time>
      </trkpt>
      <trkpt lat="45.3891" lon="6.19808">
        <ele>2244.8156738281</ele>
        <time>2012-08-10T09:53:13Z</time>
      </trkpt>
      <trkpt lat="45.38916" lon="6.19805">
        <ele>2247.6997070312</ele>
        <time>2012-08-10T09:53:21Z</time>
      </trkpt>
      <trkpt lat="45.38921" lon="6.19809">
        <ele>2248.6608886719</ele>
        <time>2012-08-10T09:53:27Z</time>
      </trkpt>
      <trkpt lat="45.38927" lon="6.19813">
        <ele>2249.1416015625</ele>
        <time>2012-08-10T09:53:33Z</time>
      </trkpt>
      <trkpt lat="45.38932" lon="6.19815">
        <ele>2250.5834960938</ele>
        <time>2012-08-10T09:53:41Z</time>
      </trkpt>
      <trkpt lat="45.38937" lon="6.19813">
        <ele>2252.5063476562</ele>
        <time>2012-08-10T09:53:49Z</time>
      </trkpt>
      <trkpt lat="45.38942" lon="6.19814">
        <ele>2253.4677734375</ele>
        <time>2012-08-10T09:53:56Z</time>
      </trkpt>
      <trkpt lat="45.38943" lon="6.19819">
        <ele>2253.4677734375</ele>
        <time>2012-08-10T09:54:02Z</time>
      </trkpt>
      <trkpt lat="45.38944" lon="6.19825">
        <ele>2254.4289550781</ele>
        <time>2012-08-10T09:54:08Z</time>
      </trkpt>
      <trkpt lat="45.38945" lon="6.1983">
        <ele>2254.9096679688</ele>
        <time>2012-08-10T09:54:14Z</time>
      </trkpt>
      <trkpt lat="45.3895" lon="6.19835">
        <ele>2255.8708496094</ele>
        <time>2012-08-10T09:54:21Z</time>
      </trkpt>
      <trkpt lat="45.38955" lon="6.1984">
        <ele>2256.8322753906</ele>
        <time>2012-08-10T09:54:28Z</time>
      </trkpt>
      <trkpt lat="45.38958" lon="6.19842">
        <ele>2257.7937011719</ele>
        <time>2012-08-10T09:54:34Z</time>
      </trkpt>
      <trkpt lat="45.38963" lon="6.19845">
        <ele>2258.2741699219</ele>
        <time>2012-08-10T09:54:40Z</time>
      </trkpt>
      <trkpt lat="45.38968" lon="6.19848">
        <ele>2259.7160644531</ele>
        <time>2012-08-10T09:54:47Z</time>
      </trkpt>
      <trkpt lat="45.38973" lon="6.19851">
        <ele>2261.158203125</ele>
        <time>2012-08-10T09:54:54Z</time>
      </trkpt>
      <trkpt lat="45.38977" lon="6.19852">
        <ele>2262.6000976562</ele>
        <time>2012-08-10T09:55:00Z</time>
      </trkpt>
      <trkpt lat="45.3898" lon="6.19854">
        <ele>2263.5612792969</ele>
        <time>2012-08-10T09:55:06Z</time>
      </trkpt>
      <trkpt lat="45.38985" lon="6.19857">
        <ele>2265.9645996094</ele>
        <time>2012-08-10T09:55:14Z</time>
      </trkpt>
      <trkpt lat="45.38989" lon="6.1986">
        <ele>2267.4064941406</ele>
        <time>2012-08-10T09:55:22Z</time>
      </trkpt>
      <trkpt lat="45.38993" lon="6.19864">
        <ele>2267.4064941406</ele>
        <time>2012-08-10T09:55:29Z</time>
      </trkpt>
      <trkpt lat="45.38995" lon="6.19867">
        <ele>2267.4064941406</ele>
        <time>2012-08-10T09:55:36Z</time>
      </trkpt>
      <trkpt lat="45.38995" lon="6.19866">
        <ele>2267.4064941406</ele>
        <time>2012-08-10T09:55:43Z</time>
      </trkpt>
      <trkpt lat="45.38997" lon="6.19862">
        <ele>2267.4064941406</ele>
        <time>2012-08-10T09:55:50Z</time>
      </trkpt>
      <trkpt lat="45.39001" lon="6.19857">
        <ele>2268.3681640625</ele>
        <time>2012-08-10T09:55:58Z</time>
      </trkpt>
      <trkpt lat="45.39005" lon="6.19854">
        <ele>2269.3295898438</ele>
        <time>2012-08-10T09:56:05Z</time>
      </trkpt>
      <trkpt lat="45.39009" lon="6.19853">
        <ele>2270.2907714844</ele>
        <time>2012-08-10T09:56:11Z</time>
      </trkpt>
      <trkpt lat="45.39013" lon="6.19853">
        <ele>2271.251953125</ele>
        <time>2012-08-10T09:56:16Z</time>
      </trkpt>
      <trkpt lat="45.39019" lon="6.19853">
        <ele>2273.6552734375</ele>
        <time>2012-08-10T09:56:24Z</time>
      </trkpt>
      <trkpt lat="45.39025" lon="6.19854">
        <ele>2274.6166992188</ele>
        <time>2012-08-10T09:56:33Z</time>
      </trkpt>
      <trkpt lat="45.39035" lon="6.19859">
        <ele>2273.6552734375</ele>
        <time>2012-08-10T09:56:42Z</time>
      </trkpt>
      <trkpt lat="45.39038" lon="6.19862">
        <ele>2274.1359863281</ele>
        <time>2012-08-10T09:56:46Z</time>
      </trkpt>
      <trkpt lat="45.39045" lon="6.19864">
        <ele>2274.6166992188</ele>
        <time>2012-08-10T09:56:54Z</time>
      </trkpt>
      <trkpt lat="45.39047" lon="6.19865">
        <ele>2274.6166992188</ele>
        <time>2012-08-10T09:56:59Z</time>
      </trkpt>
      <trkpt lat="45.39048" lon="6.19866">
        <ele>2275.0971679688</ele>
        <time>2012-08-10T09:57:06Z</time>
      </trkpt>
      <trkpt lat="45.39054" lon="6.19867">
        <ele>2276.05859375</ele>
        <time>2012-08-10T09:57:13Z</time>
      </trkpt>
      <trkpt lat="45.3906" lon="6.19872">
        <ele>2277.5004882812</ele>
        <time>2012-08-10T09:57:21Z</time>
      </trkpt>
      <trkpt lat="45.39067" lon="6.19877">
        <ele>2278.4619140625</ele>
        <time>2012-08-10T09:57:30Z</time>
      </trkpt>
      <trkpt lat="45.39075" lon="6.19878">
        <ele>2279.9038085938</ele>
        <time>2012-08-10T09:57:38Z</time>
      </trkpt>
      <trkpt lat="45.39082" lon="6.19881">
        <ele>2280.865234375</ele>
        <time>2012-08-10T09:57:47Z</time>
      </trkpt>
      <trkpt lat="45.39091" lon="6.19882">
        <ele>2281.345703125</ele>
        <time>2012-08-10T09:57:55Z</time>
      </trkpt>
      <trkpt lat="45.391" lon="6.19883">
        <ele>2282.3071289062</ele>
        <time>2012-08-10T09:58:03Z</time>
      </trkpt>
      <trkpt lat="45.39108" lon="6.19885">
        <ele>2281.8264160156</ele>
        <time>2012-08-10T09:58:10Z</time>
      </trkpt>
      <trkpt lat="45.39117" lon="6.19884">
        <ele>2280.3845214844</ele>
        <time>2012-08-10T09:58:18Z</time>
      </trkpt>
      <trkpt lat="45.39118" lon="6.19884">
        <ele>2279.9038085938</ele>
        <time>2012-08-10T09:58:19Z</time>
      </trkpt>
      <trkpt lat="45.39124" lon="6.19882">
        <ele>2277.9812011719</ele>
        <time>2012-08-10T09:58:26Z</time>
      </trkpt>
      <trkpt lat="45.39128" lon="6.19883">
        <ele>2277.5004882812</ele>
        <time>2012-08-10T09:58:32Z</time>
      </trkpt>
      <trkpt lat="45.39133" lon="6.19881">
        <ele>2275.0971679688</ele>
        <time>2012-08-10T09:58:40Z</time>
      </trkpt>
      <trkpt lat="45.39138" lon="6.19878">
        <ele>2273.6552734375</ele>
        <time>2012-08-10T09:58:45Z</time>
      </trkpt>
      <trkpt lat="45.39142" lon="6.19877">
        <ele>2273.1748046875</ele>
        <time>2012-08-10T09:58:49Z</time>
      </trkpt>
      <trkpt lat="45.39146" lon="6.1988">
        <ele>2271.7326660156</ele>
        <time>2012-08-10T09:58:55Z</time>
      </trkpt>
      <trkpt lat="45.3915" lon="6.19883">
        <ele>2270.2907714844</ele>
        <time>2012-08-10T09:59:01Z</time>
      </trkpt>
      <trkpt lat="45.39153" lon="6.19889">
        <ele>2269.3295898438</ele>
        <time>2012-08-10T09:59:06Z</time>
      </trkpt>
      <trkpt lat="45.39156" lon="6.19892">
        <ele>2268.8488769531</ele>
        <time>2012-08-10T09:59:11Z</time>
      </trkpt>
      <trkpt lat="45.39162" lon="6.19897">
        <ele>2267.8872070312</ele>
        <time>2012-08-10T09:59:16Z</time>
      </trkpt>
      <trkpt lat="45.39167" lon="6.199">
        <ele>2267.4064941406</ele>
        <time>2012-08-10T09:59:23Z</time>
      </trkpt>
      <trkpt lat="45.39174" lon="6.19904">
        <ele>2267.4064941406</ele>
        <time>2012-08-10T09:59:30Z</time>
      </trkpt>
      <trkpt lat="45.39182" lon="6.19911">
        <ele>2265.9645996094</ele>
        <time>2012-08-10T09:59:37Z</time>
      </trkpt>
      <trkpt lat="45.39183" lon="6.19912">
        <ele>2265.9645996094</ele>
        <time>2012-08-10T09:59:38Z</time>
      </trkpt>
      <trkpt lat="45.39185" lon="6.19913">
        <ele>2265.4841308594</ele>
        <time>2012-08-10T09:59:42Z</time>
      </trkpt>
      <trkpt lat="45.39193" lon="6.19914">
        <ele>2266.4453125</ele>
        <time>2012-08-10T09:59:50Z</time>
      </trkpt>
      <trkpt lat="45.39196" lon="6.19913">
        <ele>2265.4841308594</ele>
        <time>2012-08-10T09:59:53Z</time>
      </trkpt>
      <trkpt lat="45.392" lon="6.19908">
        <ele>2263.5612792969</ele>
        <time>2012-08-10T10:00:00Z</time>
      </trkpt>
      <trkpt lat="45.39203" lon="6.19905">
        <ele>2262.1193847656</ele>
        <time>2012-08-10T10:00:06Z</time>
      </trkpt>
      <trkpt lat="45.39206" lon="6.19902">
        <ele>2260.6774902344</ele>
        <time>2012-08-10T10:00:11Z</time>
      </trkpt>
      <trkpt lat="45.39211" lon="6.19902">
        <ele>2259.2355957031</ele>
        <time>2012-08-10T10:00:15Z</time>
      </trkpt>
      <trkpt lat="45.39214" lon="6.19907">
        <ele>2260.1967773438</ele>
        <time>2012-08-10T10:00:21Z</time>
      </trkpt>
      <trkpt lat="45.39218" lon="6.19914">
        <ele>2262.1193847656</ele>
        <time>2012-08-10T10:00:29Z</time>
      </trkpt>
      <trkpt lat="45.39222" lon="6.19922">
        <ele>2264.5227050781</ele>
        <time>2012-08-10T10:00:37Z</time>
      </trkpt>
      <trkpt lat="45.39225" lon="6.19932">
        <ele>2265.4841308594</ele>
        <time>2012-08-10T10:00:46Z</time>
      </trkpt>
      <trkpt lat="45.39227" lon="6.19936">
        <ele>2266.4453125</ele>
        <time>2012-08-10T10:00:50Z</time>
      </trkpt>
      <trkpt lat="45.39228" lon="6.19941">
        <ele>2267.4064941406</ele>
        <time>2012-08-10T10:00:55Z</time>
      </trkpt>
      <trkpt lat="45.3923" lon="6.19944">
        <ele>2267.8872070312</ele>
        <time>2012-08-10T10:01:01Z</time>
      </trkpt>
      <trkpt lat="45.39233" lon="6.19947">
        <ele>2267.4064941406</ele>
        <time>2012-08-10T10:01:06Z</time>
      </trkpt>
      <trkpt lat="45.39241" lon="6.19948">
        <ele>2267.8872070312</ele>
        <time>2012-08-10T10:01:13Z</time>
      </trkpt>
      <trkpt lat="45.3925" lon="6.19947">
        <ele>2266.4453125</ele>
        <time>2012-08-10T10:01:20Z</time>
      </trkpt>
      <trkpt lat="45.39254" lon="6.1995">
        <ele>2265.9645996094</ele>
        <time>2012-08-10T10:01:23Z</time>
      </trkpt>
      <trkpt lat="45.39257" lon="6.19959">
        <ele>2265.0034179688</ele>
        <time>2012-08-10T10:01:30Z</time>
      </trkpt>
      <trkpt lat="45.39257" lon="6.19962">
        <ele>2264.5227050781</ele>
        <time>2012-08-10T10:01:35Z</time>
      </trkpt>
      <trkpt lat="45.39259" lon="6.19963">
        <ele>2264.0419921875</ele>
        <time>2012-08-10T10:01:40Z</time>
      </trkpt>
      <trkpt lat="45.39259" lon="6.19963">
        <ele>2263.5612792969</ele>
        <time>2012-08-10T10:01:47Z</time>
      </trkpt>
      <trkpt lat="45.39259" lon="6.19963">
        <ele>2262.6000976562</ele>
        <time>2012-08-10T10:01:58Z</time>
      </trkpt>
      <trkpt lat="45.39259" lon="6.19963">
        <ele>2262.1193847656</ele>
        <time>2012-08-10T10:02:10Z</time>
      </trkpt>
      <trkpt lat="45.39258" lon="6.19963">
        <ele>2261.6389160156</ele>
        <time>2012-08-10T10:02:19Z</time>
      </trkpt>
      <trkpt lat="45.39258" lon="6.19963">
        <ele>2261.158203125</ele>
        <time>2012-08-10T10:02:33Z</time>
      </trkpt>
      <trkpt lat="45.39258" lon="6.19963">
        <ele>2261.158203125</ele>
        <time>2012-08-10T10:02:41Z</time>
      </trkpt>
      <trkpt lat="45.39258" lon="6.19962">
        <ele>2260.6774902344</ele>
        <time>2012-08-10T10:02:54Z</time>
      </trkpt>
      <trkpt lat="45.39258" lon="6.19962">
        <ele>2260.6774902344</ele>
        <time>2012-08-10T10:03:10Z</time>
      </trkpt>
      <trkpt lat="45.39258" lon="6.19962">
        <ele>2260.6774902344</ele>
        <time>2012-08-10T10:03:25Z</time>
      </trkpt>
      <trkpt lat="45.39258" lon="6.19962">
        <ele>2260.6774902344</ele>
        <time>2012-08-10T10:03:35Z</time>
      </trkpt>
      <trkpt lat="45.39258" lon="6.19962">
        <ele>2260.1967773438</ele>
        <time>2012-08-10T10:03:48Z</time>
      </trkpt>
      <trkpt lat="45.39259" lon="6.19962">
        <ele>2260.1967773438</ele>
        <time>2012-08-10T10:03:54Z</time>
      </trkpt>
      <trkpt lat="45.39259" lon="6.19962">
        <ele>2260.1967773438</ele>
        <time>2012-08-10T10:04:01Z</time>
      </trkpt>
      <trkpt lat="45.39259" lon="6.19963">
        <ele>2260.1967773438</ele>
        <time>2012-08-10T10:04:12Z</time>
      </trkpt>
      <trkpt lat="45.39259" lon="6.19962">
        <ele>2259.7160644531</ele>
        <time>2012-08-10T10:04:31Z</time>
      </trkpt>
      <trkpt lat="45.39258" lon="6.19963">
        <ele>2259.7160644531</ele>
        <time>2012-08-10T10:04:57Z</time>
      </trkpt>
      <trkpt lat="45.39259" lon="6.19963">
        <ele>2260.1967773438</ele>
        <time>2012-08-10T10:05:28Z</time>
      </trkpt>
      <trkpt lat="45.39259" lon="6.19963">
        <ele>2260.1967773438</ele>
        <time>2012-08-10T10:05:38Z</time>
      </trkpt>
      <trkpt lat="45.3926" lon="6.19963">
        <ele>2261.158203125</ele>
        <time>2012-08-10T10:06:08Z</time>
      </trkpt>
      <trkpt lat="45.3926" lon="6.19963">
        <ele>2261.158203125</ele>
        <time>2012-08-10T10:06:17Z</time>
      </trkpt>
      <trkpt lat="45.3926" lon="6.19964">
        <ele>2261.6389160156</ele>
        <time>2012-08-10T10:06:25Z</time>
      </trkpt>
      <trkpt lat="45.39259" lon="6.19964">
        <ele>2260.6774902344</ele>
        <time>2012-08-10T10:06:37Z</time>
      </trkpt>
      <trkpt lat="45.39259" lon="6.19964">
        <ele>2260.1967773438</ele>
        <time>2012-08-10T10:06:45Z</time>
      </trkpt>
      <trkpt lat="45.39259" lon="6.19963">
        <ele>2260.1967773438</ele>
        <time>2012-08-10T10:06:55Z</time>
      </trkpt>
      <trkpt lat="45.39259" lon="6.19963">
        <ele>2260.6774902344</ele>
        <time>2012-08-10T10:07:08Z</time>
      </trkpt>
      <trkpt lat="45.39259" lon="6.19963">
        <ele>2261.158203125</ele>
        <time>2012-08-10T10:07:22Z</time>
      </trkpt>
      <trkpt lat="45.39259" lon="6.19963">
        <ele>2261.158203125</ele>
        <time>2012-08-10T10:07:41Z</time>
      </trkpt>
      <trkpt lat="45.39259" lon="6.19963">
        <ele>2261.158203125</ele>
        <time>2012-08-10T10:07:59Z</time>
      </trkpt>
      <trkpt lat="45.39259" lon="6.19963">
        <ele>2260.6774902344</ele>
        <time>2012-08-10T10:08:11Z</time>
      </trkpt>
      <trkpt lat="45.39259" lon="6.19963">
        <ele>2260.6774902344</ele>
        <time>2012-08-10T10:08:19Z</time>
      </trkpt>
      <trkpt lat="45.39258" lon="6.19964">
        <ele>2260.1967773438</ele>
        <time>2012-08-10T10:08:36Z</time>
      </trkpt>
      <trkpt lat="45.39258" lon="6.19965">
        <ele>2260.6774902344</ele>
        <time>2012-08-10T10:08:54Z</time>
      </trkpt>
      <trkpt lat="45.39258" lon="6.19965">
        <ele>2260.6774902344</ele>
        <time>2012-08-10T10:09:02Z</time>
      </trkpt>
      <trkpt lat="45.39258" lon="6.19964">
        <ele>2261.158203125</ele>
        <time>2012-08-10T10:09:13Z</time>
      </trkpt>
      <trkpt lat="45.39258" lon="6.19964">
        <ele>2260.6774902344</ele>
        <time>2012-08-10T10:09:22Z</time>
      </trkpt>
      <trkpt lat="45.39258" lon="6.19964">
        <ele>2260.1967773438</ele>
        <time>2012-08-10T10:09:37Z</time>
      </trkpt>
      <trkpt lat="45.39259" lon="6.19965">
        <ele>2260.1967773438</ele>
        <time>2012-08-10T10:09:50Z</time>
      </trkpt>
      <trkpt lat="45.39259" lon="6.19964">
        <ele>2259.7160644531</ele>
        <time>2012-08-10T10:09:56Z</time>
      </trkpt>
      <trkpt lat="45.39259" lon="6.19964">
        <ele>2260.1967773438</ele>
        <time>2012-08-10T10:10:06Z</time>
      </trkpt>
      <trkpt lat="45.3926" lon="6.19964">
        <ele>2260.1967773438</ele>
        <time>2012-08-10T10:10:35Z</time>
      </trkpt>
      <trkpt lat="45.3926" lon="6.19965">
        <ele>2260.1967773438</ele>
        <time>2012-08-10T10:10:48Z</time>
      </trkpt>
      <trkpt lat="45.3926" lon="6.19964">
        <ele>2260.1967773438</ele>
        <time>2012-08-10T10:11:06Z</time>
      </trkpt>
      <trkpt lat="45.3926" lon="6.19964">
        <ele>2260.1967773438</ele>
        <time>2012-08-10T10:11:21Z</time>
      </trkpt>
      <trkpt lat="45.39259" lon="6.19964">
        <ele>2260.1967773438</ele>
        <time>2012-08-10T10:11:33Z</time>
      </trkpt>
      <trkpt lat="45.3926" lon="6.19964">
        <ele>2260.1967773438</ele>
        <time>2012-08-10T10:11:45Z</time>
      </trkpt>
      <trkpt lat="45.3926" lon="6.19963">
        <ele>2260.1967773438</ele>
        <time>2012-08-10T10:12:01Z</time>
      </trkpt>
      <trkpt lat="45.3926" lon="6.19964">
        <ele>2260.1967773438</ele>
        <time>2012-08-10T10:12:14Z</time>
      </trkpt>
      <trkpt lat="45.3926" lon="6.19963">
        <ele>2260.1967773438</ele>
        <time>2012-08-10T10:12:21Z</time>
      </trkpt>
      <trkpt lat="45.3926" lon="6.19963">
        <ele>2260.1967773438</ele>
        <time>2012-08-10T10:12:38Z</time>
      </trkpt>
      <trkpt lat="45.3926" lon="6.19963">
        <ele>2260.1967773438</ele>
        <time>2012-08-10T10:12:53Z</time>
      </trkpt>
      <trkpt lat="45.3926" lon="6.19963">
        <ele>2260.1967773438</ele>
        <time>2012-08-10T10:13:00Z</time>
      </trkpt>
      <trkpt lat="45.3926" lon="6.19963">
        <ele>2260.1967773438</ele>
        <time>2012-08-10T10:13:14Z</time>
      </trkpt>
      <trkpt lat="45.3926" lon="6.19963">
        <ele>2260.1967773438</ele>
        <time>2012-08-10T10:13:26Z</time>
      </trkpt>
      <trkpt lat="45.39259" lon="6.19964">
        <ele>2260.1967773438</ele>
        <time>2012-08-10T10:13:40Z</time>
      </trkpt>
      <trkpt lat="45.3926" lon="6.19963">
        <ele>2259.7160644531</ele>
        <time>2012-08-10T10:14:00Z</time>
      </trkpt>
      <trkpt lat="45.3926" lon="6.19963">
        <ele>2260.6774902344</ele>
        <time>2012-08-10T10:14:07Z</time>
      </trkpt>
      <trkpt lat="45.3926" lon="6.19963">
        <ele>2261.6389160156</ele>
        <time>2012-08-10T10:14:21Z</time>
      </trkpt>
      <trkpt lat="45.39259" lon="6.19963">
        <ele>2262.1193847656</ele>
        <time>2012-08-10T10:14:34Z</time>
      </trkpt>
      <trkpt lat="45.3926" lon="6.19963">
        <ele>2261.6389160156</ele>
        <time>2012-08-10T10:14:44Z</time>
      </trkpt>
      <trkpt lat="45.3926" lon="6.19963">
        <ele>2261.6389160156</ele>
        <time>2012-08-10T10:14:55Z</time>
      </trkpt>
      <trkpt lat="45.3926" lon="6.19963">
        <ele>2262.1193847656</ele>
        <time>2012-08-10T10:15:13Z</time>
      </trkpt>
      <trkpt lat="45.3926" lon="6.19963">
        <ele>2262.6000976562</ele>
        <time>2012-08-10T10:15:33Z</time>
      </trkpt>
      <trkpt lat="45.3926" lon="6.19963">
        <ele>2262.1193847656</ele>
        <time>2012-08-10T10:15:42Z</time>
      </trkpt>
      <trkpt lat="45.3926" lon="6.19963">
        <ele>2262.1193847656</ele>
        <time>2012-08-10T10:15:56Z</time>
      </trkpt>
      <trkpt lat="45.3926" lon="6.19962">
        <ele>2261.6389160156</ele>
        <time>2012-08-10T10:16:06Z</time>
      </trkpt>
      <trkpt lat="45.3926" lon="6.19962">
        <ele>2261.158203125</ele>
        <time>2012-08-10T10:16:18Z</time>
      </trkpt>
      <trkpt lat="45.3926" lon="6.19962">
        <ele>2261.158203125</ele>
        <time>2012-08-10T10:16:30Z</time>
      </trkpt>
      <trkpt lat="45.3926" lon="6.19963">
        <ele>2260.6774902344</ele>
        <time>2012-08-10T10:16:46Z</time>
      </trkpt>
      <trkpt lat="45.3926" lon="6.19963">
        <ele>2260.6774902344</ele>
        <time>2012-08-10T10:17:02Z</time>
      </trkpt>
      <trkpt lat="45.3926" lon="6.19963">
        <ele>2261.6389160156</ele>
        <time>2012-08-10T10:17:20Z</time>
      </trkpt>
      <trkpt lat="45.3926" lon="6.19963">
        <ele>2261.6389160156</ele>
        <time>2012-08-10T10:17:33Z</time>
      </trkpt>
      <trkpt lat="45.3926" lon="6.19963">
        <ele>2261.6389160156</ele>
        <time>2012-08-10T10:17:51Z</time>
      </trkpt>
      <trkpt lat="45.39261" lon="6.19964">
        <ele>2262.1193847656</ele>
        <time>2012-08-10T10:18:00Z</time>
      </trkpt>
      <trkpt lat="45.3926" lon="6.19964">
        <ele>2262.6000976562</ele>
        <time>2012-08-10T10:18:21Z</time>
      </trkpt>
      <trkpt lat="45.3926" lon="6.19964">
        <ele>2263.0808105469</ele>
        <time>2012-08-10T10:18:27Z</time>
      </trkpt>
      <trkpt lat="45.3926" lon="6.19964">
        <ele>2263.0808105469</ele>
        <time>2012-08-10T10:18:37Z</time>
      </trkpt>
      <trkpt lat="45.3926" lon="6.19965">
        <ele>2262.6000976562</ele>
        <time>2012-08-10T10:18:43Z</time>
      </trkpt>
      <trkpt lat="45.3926" lon="6.19965">
        <ele>2263.0808105469</ele>
        <time>2012-08-10T10:18:49Z</time>
      </trkpt>
      <trkpt lat="45.3926" lon="6.19965">
        <ele>2263.5612792969</ele>
        <time>2012-08-10T10:19:10Z</time>
      </trkpt>
      <trkpt lat="45.3926" lon="6.19965">
        <ele>2263.5612792969</ele>
        <time>2012-08-10T10:19:20Z</time>
      </trkpt>
      <trkpt lat="45.39259" lon="6.19966">
        <ele>2264.0419921875</ele>
        <time>2012-08-10T10:19:37Z</time>
      </trkpt>
      <trkpt lat="45.3926" lon="6.19966">
        <ele>2264.0419921875</ele>
        <time>2012-08-10T10:19:53Z</time>
      </trkpt>
      <trkpt lat="45.3926" lon="6.19966">
        <ele>2263.5612792969</ele>
        <time>2012-08-10T10:19:57Z</time>
      </trkpt>
      <trkpt lat="45.3926" lon="6.19965">
        <ele>2263.5612792969</ele>
        <time>2012-08-10T10:20:07Z</time>
      </trkpt>
      <trkpt lat="45.39259" lon="6.19964">
        <ele>2263.5612792969</ele>
        <time>2012-08-10T10:20:11Z</time>
      </trkpt>
      <trkpt lat="45.39259" lon="6.19965">
        <ele>2264.5227050781</ele>
        <time>2012-08-10T10:20:16Z</time>
      </trkpt>
      <trkpt lat="45.39259" lon="6.19965">
        <ele>2264.5227050781</ele>
        <time>2012-08-10T10:20:23Z</time>
      </trkpt>
      <trkpt lat="45.3926" lon="6.19965">
        <ele>2264.0419921875</ele>
        <time>2012-08-10T10:20:30Z</time>
      </trkpt>
      <trkpt lat="45.3926" lon="6.19965">
        <ele>2263.0808105469</ele>
        <time>2012-08-10T10:20:41Z</time>
      </trkpt>
      <trkpt lat="45.3926" lon="6.19964">
        <ele>2263.0808105469</ele>
        <time>2012-08-10T10:20:53Z</time>
      </trkpt>
      <trkpt lat="45.3926" lon="6.19964">
        <ele>2262.1193847656</ele>
        <time>2012-08-10T10:21:00Z</time>
      </trkpt>
      <trkpt lat="45.3926" lon="6.19963">
        <ele>2261.6389160156</ele>
        <time>2012-08-10T10:21:09Z</time>
      </trkpt>
      <trkpt lat="45.39261" lon="6.19965">
        <ele>2261.158203125</ele>
        <time>2012-08-10T10:21:15Z</time>
      </trkpt>
      <trkpt lat="45.39262" lon="6.19971">
        <ele>2261.158203125</ele>
        <time>2012-08-10T10:21:21Z</time>
      </trkpt>
      <trkpt lat="45.39265" lon="6.19976">
        <ele>2260.6774902344</ele>
        <time>2012-08-10T10:21:28Z</time>
      </trkpt>
      <trkpt lat="45.39265" lon="6.19977">
        <ele>2260.6774902344</ele>
        <time>2012-08-10T10:21:34Z</time>
      </trkpt>
      <trkpt lat="45.39266" lon="6.19979">
        <ele>2260.6774902344</ele>
        <time>2012-08-10T10:21:39Z</time>
      </trkpt>
      <trkpt lat="45.39267" lon="6.19982">
        <ele>2260.6774902344</ele>
        <time>2012-08-10T10:21:45Z</time>
      </trkpt>
      <trkpt lat="45.39268" lon="6.19983">
        <ele>2260.1967773438</ele>
        <time>2012-08-10T10:21:51Z</time>
      </trkpt>
      <trkpt lat="45.39269" lon="6.19982">
        <ele>2259.2355957031</ele>
        <time>2012-08-10T10:21:57Z</time>
      </trkpt>
      <trkpt lat="45.39269" lon="6.19983">
        <ele>2259.7160644531</ele>
        <time>2012-08-10T10:22:05Z</time>
      </trkpt>
      <trkpt lat="45.3927" lon="6.19985">
        <ele>2259.7160644531</ele>
        <time>2012-08-10T10:22:11Z</time>
      </trkpt>
      <trkpt lat="45.39268" lon="6.19987">
        <ele>2260.6774902344</ele>
        <time>2012-08-10T10:22:16Z</time>
      </trkpt>
      <trkpt lat="45.39268" lon="6.19992">
        <ele>2260.6774902344</ele>
        <time>2012-08-10T10:22:21Z</time>
      </trkpt>
      <trkpt lat="45.39269" lon="6.19998">
        <ele>2261.6389160156</ele>
        <time>2012-08-10T10:22:27Z</time>
      </trkpt>
      <trkpt lat="45.3927" lon="6.20001">
        <ele>2260.6774902344</ele>
        <time>2012-08-10T10:22:33Z</time>
      </trkpt>
      <trkpt lat="45.3927" lon="6.20005">
        <ele>2261.158203125</ele>
        <time>2012-08-10T10:22:38Z</time>
      </trkpt>
      <trkpt lat="45.3927" lon="6.20011">
        <ele>2260.6774902344</ele>
        <time>2012-08-10T10:22:44Z</time>
      </trkpt>
      <trkpt lat="45.39271" lon="6.20014">
        <ele>2259.2355957031</ele>
        <time>2012-08-10T10:22:50Z</time>
      </trkpt>
      <trkpt lat="45.39272" lon="6.20018">
        <ele>2257.3129882812</ele>
        <time>2012-08-10T10:22:57Z</time>
      </trkpt>
      <trkpt lat="45.39275" lon="6.2002">
        <ele>2255.8708496094</ele>
        <time>2012-08-10T10:23:02Z</time>
      </trkpt>
      <trkpt lat="45.39282" lon="6.20024">
        <ele>2253.4677734375</ele>
        <time>2012-08-10T10:23:08Z</time>
      </trkpt>
      <trkpt lat="45.39283" lon="6.20026">
        <ele>2252.5063476562</ele>
        <time>2012-08-10T10:23:11Z</time>
      </trkpt>
      <trkpt lat="45.39287" lon="6.20033">
        <ele>2249.6223144531</ele>
        <time>2012-08-10T10:23:19Z</time>
      </trkpt>
      <trkpt lat="45.3929" lon="6.20038">
        <ele>2246.73828125</ele>
        <time>2012-08-10T10:23:27Z</time>
      </trkpt>
      <trkpt lat="45.39293" lon="6.20041">
        <ele>2244.8156738281</ele>
        <time>2012-08-10T10:23:32Z</time>
      </trkpt>
      <trkpt lat="45.39297" lon="6.20046">
        <ele>2242.8930664062</ele>
        <time>2012-08-10T10:23:39Z</time>
      </trkpt>
      <trkpt lat="45.39304" lon="6.2005">
        <ele>2238.5673828125</ele>
        <time>2012-08-10T10:23:47Z</time>
      </trkpt>
      <trkpt lat="45.39309" lon="6.20058">
        <ele>2234.7219238281</ele>
        <time>2012-08-10T10:23:55Z</time>
      </trkpt>
      <trkpt lat="45.39309" lon="6.20063">
        <ele>2232.3186035156</ele>
        <time>2012-08-10T10:24:00Z</time>
      </trkpt>
      <trkpt lat="45.39311" lon="6.20066">
        <ele>2229.9152832031</ele>
        <time>2012-08-10T10:24:04Z</time>
      </trkpt>
      <trkpt lat="45.39315" lon="6.20071">
        <ele>2228.4733886719</ele>
        <time>2012-08-10T10:24:10Z</time>
      </trkpt>
      <trkpt lat="45.39322" lon="6.20074">
        <ele>2227.9926757812</ele>
        <time>2012-08-10T10:24:16Z</time>
      </trkpt>
      <trkpt lat="45.39327" lon="6.20075">
        <ele>2226.55078125</ele>
        <time>2012-08-10T10:24:21Z</time>
      </trkpt>
      <trkpt lat="45.3933" lon="6.20077">
        <ele>2225.1086425781</ele>
        <time>2012-08-10T10:24:25Z</time>
      </trkpt>
      <trkpt lat="45.39334" lon="6.2008">
        <ele>2222.2248535156</ele>
        <time>2012-08-10T10:24:31Z</time>
      </trkpt>
      <trkpt lat="45.39336" lon="6.20081">
        <ele>2221.744140625</ele>
        <time>2012-08-10T10:24:35Z</time>
      </trkpt>
      <trkpt lat="45.39339" lon="6.20084">
        <ele>2220.7829589844</ele>
        <time>2012-08-10T10:24:40Z</time>
      </trkpt>
      <trkpt lat="45.39346" lon="6.20088">
        <ele>2220.3022460938</ele>
        <time>2012-08-10T10:24:47Z</time>
      </trkpt>
      <trkpt lat="45.39349" lon="6.20087">
        <ele>2219.3408203125</ele>
        <time>2012-08-10T10:24:53Z</time>
      </trkpt>
      <trkpt lat="45.39352" lon="6.20087">
        <ele>2218.3793945312</ele>
        <time>2012-08-10T10:25:00Z</time>
      </trkpt>
      <trkpt lat="45.39357" lon="6.20089">
        <ele>2215.9760742188</ele>
        <time>2012-08-10T10:25:06Z</time>
      </trkpt>
      <trkpt lat="45.39362" lon="6.20095">
        <ele>2214.0534667969</ele>
        <time>2012-08-10T10:25:11Z</time>
      </trkpt>
      <trkpt lat="45.39367" lon="6.201">
        <ele>2212.6115722656</ele>
        <time>2012-08-10T10:25:17Z</time>
      </trkpt>
      <trkpt lat="45.3937" lon="6.20102">
        <ele>2212.130859375</ele>
        <time>2012-08-10T10:25:21Z</time>
      </trkpt>
      <trkpt lat="45.39376" lon="6.20105">
        <ele>2212.6115722656</ele>
        <time>2012-08-10T10:25:28Z</time>
      </trkpt>
      <trkpt lat="45.39382" lon="6.20106">
        <ele>2213.0922851562</ele>
        <time>2012-08-10T10:25:34Z</time>
      </trkpt>
      <trkpt lat="45.39386" lon="6.20105">
        <ele>2214.0534667969</ele>
        <time>2012-08-10T10:25:37Z</time>
      </trkpt>
      <trkpt lat="45.39391" lon="6.20105">
        <ele>2213.0922851562</ele>
        <time>2012-08-10T10:25:43Z</time>
      </trkpt>
      <trkpt lat="45.39394" lon="6.20103">
        <ele>2213.0922851562</ele>
        <time>2012-08-10T10:25:47Z</time>
      </trkpt>
      <trkpt lat="45.394" lon="6.20103">
        <ele>2211.650390625</ele>
        <time>2012-08-10T10:25:53Z</time>
      </trkpt>
      <trkpt lat="45.39405" lon="6.20105">
        <ele>2209.7275390625</ele>
        <time>2012-08-10T10:25:59Z</time>
      </trkpt>
      <trkpt lat="45.39411" lon="6.20108">
        <ele>2209.2470703125</ele>
        <time>2012-08-10T10:26:06Z</time>
      </trkpt>
      <trkpt lat="45.39416" lon="6.2011">
        <ele>2209.7275390625</ele>
        <time>2012-08-10T10:26:12Z</time>
      </trkpt>
      <trkpt lat="45.39422" lon="6.20109">
        <ele>2209.7275390625</ele>
        <time>2012-08-10T10:26:18Z</time>
      </trkpt>
      <trkpt lat="45.39426" lon="6.20109">
        <ele>2208.7663574219</ele>
        <time>2012-08-10T10:26:22Z</time>
      </trkpt>
      <trkpt lat="45.39433" lon="6.20105">
        <ele>2211.650390625</ele>
        <time>2012-08-10T10:26:30Z</time>
      </trkpt>
      <trkpt lat="45.39439" lon="6.20103">
        <ele>2210.2082519531</ele>
        <time>2012-08-10T10:26:37Z</time>
      </trkpt>
      <trkpt lat="45.39444" lon="6.201">
        <ele>2209.7275390625</ele>
        <time>2012-08-10T10:26:43Z</time>
      </trkpt>
      <trkpt lat="45.39449" lon="6.20097">
        <ele>2208.7663574219</ele>
        <time>2012-08-10T10:26:49Z</time>
      </trkpt>
      <trkpt lat="45.39452" lon="6.20094">
        <ele>2210.2082519531</ele>
        <time>2012-08-10T10:26:53Z</time>
      </trkpt>
      <trkpt lat="45.39458" lon="6.20091">
        <ele>2209.7275390625</ele>
        <time>2012-08-10T10:26:59Z</time>
      </trkpt>
      <trkpt lat="45.39462" lon="6.20089">
        <ele>2209.2470703125</ele>
        <time>2012-08-10T10:27:04Z</time>
      </trkpt>
      <trkpt lat="45.39468" lon="6.20083">
        <ele>2211.1696777344</ele>
        <time>2012-08-10T10:27:11Z</time>
      </trkpt>
      <trkpt lat="45.39471" lon="6.20082">
        <ele>2210.6889648438</ele>
        <time>2012-08-10T10:27:15Z</time>
      </trkpt>
      <trkpt lat="45.39475" lon="6.20082">
        <ele>2207.8051757812</ele>
        <time>2012-08-10T10:27:21Z</time>
      </trkpt>
      <trkpt lat="45.39479" lon="6.2008">
        <ele>2209.7275390625</ele>
        <time>2012-08-10T10:27:26Z</time>
      </trkpt>
      <trkpt lat="45.39482" lon="6.20078">
        <ele>2211.650390625</ele>
        <time>2012-08-10T10:27:32Z</time>
      </trkpt>
      <trkpt lat="45.39486" lon="6.20077">
        <ele>2212.6115722656</ele>
        <time>2012-08-10T10:27:36Z</time>
      </trkpt>
      <trkpt lat="45.39489" lon="6.20075">
        <ele>2214.5341796875</ele>
        <time>2012-08-10T10:27:40Z</time>
      </trkpt>
      <trkpt lat="45.39493" lon="6.20074">
        <ele>2213.5727539062</ele>
        <time>2012-08-10T10:27:49Z</time>
      </trkpt>
      <trkpt lat="45.39496" lon="6.20076">
        <ele>2211.650390625</ele>
        <time>2012-08-10T10:27:57Z</time>
      </trkpt>
      <trkpt lat="45.39497" lon="6.20076">
        <ele>2212.6115722656</ele>
        <time>2012-08-10T10:28:02Z</time>
      </trkpt>
      <trkpt lat="45.395" lon="6.20074">
        <ele>2215.9760742188</ele>
        <time>2012-08-10T10:28:09Z</time>
      </trkpt>
      <trkpt lat="45.39502" lon="6.20071">
        <ele>2218.3793945312</ele>
        <time>2012-08-10T10:28:16Z</time>
      </trkpt>
      <trkpt lat="45.39508" lon="6.20071">
        <ele>2216.9375</ele>
        <time>2012-08-10T10:28:25Z</time>
      </trkpt>
      <trkpt lat="45.39511" lon="6.2007">
        <ele>2218.8601074219</ele>
        <time>2012-08-10T10:28:30Z</time>
      </trkpt>
      <trkpt lat="45.39513" lon="6.20066">
        <ele>2223.1862792969</ele>
        <time>2012-08-10T10:28:37Z</time>
      </trkpt>
      <trkpt lat="45.39515" lon="6.20063">
        <ele>2227.0314941406</ele>
        <time>2012-08-10T10:28:42Z</time>
      </trkpt>
      <trkpt lat="45.39516" lon="6.20064">
        <ele>2229.9152832031</ele>
        <time>2012-08-10T10:28:49Z</time>
      </trkpt>
      <trkpt lat="45.39518" lon="6.20066">
        <ele>2229.4345703125</ele>
        <time>2012-08-10T10:28:56Z</time>
      </trkpt>
      <trkpt lat="45.3952" lon="6.20064">
        <ele>2230.8767089844</ele>
        <time>2012-08-10T10:29:03Z</time>
      </trkpt>
      <trkpt lat="45.39523" lon="6.20064">
        <ele>2230.8767089844</ele>
        <time>2012-08-10T10:29:12Z</time>
      </trkpt>
      <trkpt lat="45.39527" lon="6.20062">
        <ele>2232.7990722656</ele>
        <time>2012-08-10T10:29:19Z</time>
      </trkpt>
      <trkpt lat="45.39529" lon="6.20062">
        <ele>2234.7219238281</ele>
        <time>2012-08-10T10:29:26Z</time>
      </trkpt>
      <trkpt lat="45.39531" lon="6.20061">
        <ele>2234.7219238281</ele>
        <time>2012-08-10T10:29:33Z</time>
      </trkpt>
      <trkpt lat="45.39533" lon="6.20064">
        <ele>2235.2023925781</ele>
        <time>2012-08-10T10:29:39Z</time>
      </trkpt>
      <trkpt lat="45.39536" lon="6.20063">
        <ele>2240.0092773438</ele>
        <time>2012-08-10T10:29:51Z</time>
      </trkpt>
      <trkpt lat="45.39537" lon="6.20063">
        <ele>2241.451171875</ele>
        <time>2012-08-10T10:29:57Z</time>
      </trkpt>
      <trkpt lat="45.39538" lon="6.20062">
        <ele>2242.4125976562</ele>
        <time>2012-08-10T10:30:03Z</time>
      </trkpt>
      <trkpt lat="45.39542" lon="6.20063">
        <ele>2242.4125976562</ele>
        <time>2012-08-10T10:30:12Z</time>
      </trkpt>
      <trkpt lat="45.39547" lon="6.20065">
        <ele>2240.9704589844</ele>
        <time>2012-08-10T10:30:20Z</time>
      </trkpt>
      <trkpt lat="45.39548" lon="6.20069">
        <ele>2239.5285644531</ele>
        <time>2012-08-10T10:30:25Z</time>
      </trkpt>
      <trkpt lat="45.39551" lon="6.2007">
        <ele>2240.0092773438</ele>
        <time>2012-08-10T10:30:30Z</time>
      </trkpt>
      <trkpt lat="45.39553" lon="6.20071">
        <ele>2240.4897460938</ele>
        <time>2012-08-10T10:30:35Z</time>
      </trkpt>
      <trkpt lat="45.39555" lon="6.2007">
        <ele>2240.4897460938</ele>
        <time>2012-08-10T10:30:40Z</time>
      </trkpt>
      <trkpt lat="45.39558" lon="6.20068">
        <ele>2242.4125976562</ele>
        <time>2012-08-10T10:30:47Z</time>
      </trkpt>
      <trkpt lat="45.39561" lon="6.20068">
        <ele>2243.3737792969</ele>
        <time>2012-08-10T10:30:54Z</time>
      </trkpt>
      <trkpt lat="45.39563" lon="6.20067">
        <ele>2246.73828125</ele>
        <time>2012-08-10T10:31:00Z</time>
      </trkpt>
      <trkpt lat="45.39566" lon="6.20067">
        <ele>2246.73828125</ele>
        <time>2012-08-10T10:31:07Z</time>
      </trkpt>
      <trkpt lat="45.39569" lon="6.20065">
        <ele>2247.2189941406</ele>
        <time>2012-08-10T10:31:12Z</time>
      </trkpt>
      <trkpt lat="45.39572" lon="6.20063">
        <ele>2248.1801757812</ele>
        <time>2012-08-10T10:31:19Z</time>
      </trkpt>
      <trkpt lat="45.39575" lon="6.20062">
        <ele>2251.0642089844</ele>
        <time>2012-08-10T10:31:26Z</time>
      </trkpt>
      <trkpt lat="45.39578" lon="6.20063">
        <ele>2252.9870605469</ele>
        <time>2012-08-10T10:31:33Z</time>
      </trkpt>
      <trkpt lat="45.39583" lon="6.20063">
        <ele>2253.4677734375</ele>
        <time>2012-08-10T10:31:40Z</time>
      </trkpt>
      <trkpt lat="45.39588" lon="6.20056">
        <ele>2252.5063476562</ele>
        <time>2012-08-10T10:31:47Z</time>
      </trkpt>
      <trkpt lat="45.39591" lon="6.2005">
        <ele>2250.5834960938</ele>
        <time>2012-08-10T10:31:53Z</time>
      </trkpt>
      <trkpt lat="45.39597" lon="6.20043">
        <ele>2248.6608886719</ele>
        <time>2012-08-10T10:31:59Z</time>
      </trkpt>
      <trkpt lat="45.39601" lon="6.20039">
        <ele>2247.6997070312</ele>
        <time>2012-08-10T10:32:05Z</time>
      </trkpt>
      <trkpt lat="45.39603" lon="6.20034">
        <ele>2245.7770996094</ele>
        <time>2012-08-10T10:32:11Z</time>
      </trkpt>
      <trkpt lat="45.39607" lon="6.20029">
        <ele>2243.3737792969</ele>
        <time>2012-08-10T10:32:17Z</time>
      </trkpt>
      <trkpt lat="45.39604" lon="6.20023">
        <ele>2241.9318847656</ele>
        <time>2012-08-10T10:32:23Z</time>
      </trkpt>
      <trkpt lat="45.39604" lon="6.20017">
        <ele>2239.5285644531</ele>
        <time>2012-08-10T10:32:29Z</time>
      </trkpt>
      <trkpt lat="45.39605" lon="6.20011">
        <ele>2237.1252441406</ele>
        <time>2012-08-10T10:32:36Z</time>
      </trkpt>
      <trkpt lat="45.39606" lon="6.20005">
        <ele>2235.2023925781</ele>
        <time>2012-08-10T10:32:41Z</time>
      </trkpt>
      <trkpt lat="45.39605" lon="6.20003">
        <ele>2233.2797851562</ele>
        <time>2012-08-10T10:32:46Z</time>
      </trkpt>
      <trkpt lat="45.39605" lon="6.19999">
        <ele>2230.3959960938</ele>
        <time>2012-08-10T10:32:51Z</time>
      </trkpt>
      <trkpt lat="45.39605" lon="6.19992">
        <ele>2227.5119628906</ele>
        <time>2012-08-10T10:32:58Z</time>
      </trkpt>
      <trkpt lat="45.39606" lon="6.19986">
        <ele>2224.6281738281</ele>
        <time>2012-08-10T10:33:04Z</time>
      </trkpt>
      <trkpt lat="45.39606" lon="6.19977">
        <ele>2222.7055664062</ele>
        <time>2012-08-10T10:33:10Z</time>
      </trkpt>
      <trkpt lat="45.39606" lon="6.19967">
        <ele>2220.7829589844</ele>
        <time>2012-08-10T10:33:18Z</time>
      </trkpt>
      <trkpt lat="45.39607" lon="6.19962">
        <ele>2220.3022460938</ele>
        <time>2012-08-10T10:33:21Z</time>
      </trkpt>
      <trkpt lat="45.39607" lon="6.19958">
        <ele>2220.7829589844</ele>
        <time>2012-08-10T10:33:23Z</time>
      </trkpt>
      <trkpt lat="45.39607" lon="6.19952">
        <ele>2220.7829589844</ele>
        <time>2012-08-10T10:33:27Z</time>
      </trkpt>
      <trkpt lat="45.39609" lon="6.19948">
        <ele>2222.7055664062</ele>
        <time>2012-08-10T10:33:33Z</time>
      </trkpt>
      <trkpt lat="45.39611" lon="6.19942">
        <ele>2225.1086425781</ele>
        <time>2012-08-10T10:33:41Z</time>
      </trkpt>
      <trkpt lat="45.39614" lon="6.19939">
        <ele>2225.5893554688</ele>
        <time>2012-08-10T10:33:46Z</time>
      </trkpt>
      <trkpt lat="45.3962" lon="6.19935">
        <ele>2225.5893554688</ele>
        <time>2012-08-10T10:33:53Z</time>
      </trkpt>
      <trkpt lat="45.39623" lon="6.19934">
        <ele>2225.5893554688</ele>
        <time>2012-08-10T10:33:59Z</time>
      </trkpt>
      <trkpt lat="45.39624" lon="6.19931">
        <ele>2227.9926757812</ele>
        <time>2012-08-10T10:34:04Z</time>
      </trkpt>
      <trkpt lat="45.39627" lon="6.1993">
        <ele>2228.9538574219</ele>
        <time>2012-08-10T10:34:11Z</time>
      </trkpt>
      <trkpt lat="45.39629" lon="6.1993">
        <ele>2228.9538574219</ele>
        <time>2012-08-10T10:34:17Z</time>
      </trkpt>
      <trkpt lat="45.39631" lon="6.19926">
        <ele>2227.9926757812</ele>
        <time>2012-08-10T10:34:23Z</time>
      </trkpt>
      <trkpt lat="45.39634" lon="6.19924">
        <ele>2230.8767089844</ele>
        <time>2012-08-10T10:34:28Z</time>
      </trkpt>
      <trkpt lat="45.39637" lon="6.19919">
        <ele>2232.7990722656</ele>
        <time>2012-08-10T10:34:34Z</time>
      </trkpt>
      <trkpt lat="45.39638" lon="6.19913">
        <ele>2233.2797851562</ele>
        <time>2012-08-10T10:34:41Z</time>
      </trkpt>
      <trkpt lat="45.39641" lon="6.19905">
        <ele>2234.2412109375</ele>
        <time>2012-08-10T10:34:50Z</time>
      </trkpt>
      <trkpt lat="45.39643" lon="6.19906">
        <ele>2234.2412109375</ele>
        <time>2012-08-10T10:34:55Z</time>
      </trkpt>
      <trkpt lat="45.39645" lon="6.19908">
        <ele>2237.1252441406</ele>
        <time>2012-08-10T10:35:01Z</time>
      </trkpt>
      <trkpt lat="45.39647" lon="6.19903">
        <ele>2240.0092773438</ele>
        <time>2012-08-10T10:35:07Z</time>
      </trkpt>
      <trkpt lat="45.3965" lon="6.19898">
        <ele>2239.5285644531</ele>
        <time>2012-08-10T10:35:14Z</time>
      </trkpt>
      <trkpt lat="45.3965" lon="6.1989">
        <ele>2240.9704589844</ele>
        <time>2012-08-10T10:35:21Z</time>
      </trkpt>
      <trkpt lat="45.39651" lon="6.19884">
        <ele>2241.451171875</ele>
        <time>2012-08-10T10:35:27Z</time>
      </trkpt>
      <trkpt lat="45.39655" lon="6.19875">
        <ele>2241.9318847656</ele>
        <time>2012-08-10T10:35:35Z</time>
      </trkpt>
      <trkpt lat="45.39658" lon="6.19867">
        <ele>2241.451171875</ele>
        <time>2012-08-10T10:35:42Z</time>
      </trkpt>
      <trkpt lat="45.39663" lon="6.19866">
        <ele>2241.451171875</ele>
        <time>2012-08-10T10:35:47Z</time>
      </trkpt>
      <trkpt lat="45.39669" lon="6.19865">
        <ele>2240.4897460938</ele>
        <time>2012-08-10T10:35:53Z</time>
      </trkpt>
      <trkpt lat="45.39673" lon="6.19865">
        <ele>2238.5673828125</ele>
        <time>2012-08-10T10:35:58Z</time>
      </trkpt>
      <trkpt lat="45.39681" lon="6.19862">
        <ele>2237.1252441406</ele>
        <time>2012-08-10T10:36:03Z</time>
      </trkpt>
      <trkpt lat="45.39682" lon="6.19862">
        <ele>2237.1252441406</ele>
        <time>2012-08-10T10:36:04Z</time>
      </trkpt>
      <trkpt lat="45.39685" lon="6.19863">
        <ele>2237.1252441406</ele>
        <time>2012-08-10T10:36:07Z</time>
      </trkpt>
      <trkpt lat="45.39686" lon="6.19862">
        <ele>2237.1252441406</ele>
        <time>2012-08-10T10:36:14Z</time>
      </trkpt>
      <trkpt lat="45.39687" lon="6.1986">
        <ele>2235.6831054688</ele>
        <time>2012-08-10T10:36:19Z</time>
      </trkpt>
      <trkpt lat="45.39687" lon="6.1986">
        <ele>2235.2023925781</ele>
        <time>2012-08-10T10:36:28Z</time>
      </trkpt>
      <trkpt lat="45.39687" lon="6.1986">
        <ele>2236.1640625</ele>
        <time>2012-08-10T10:36:34Z</time>
      </trkpt>
      <trkpt lat="45.39688" lon="6.19859">
        <ele>2234.7219238281</ele>
        <time>2012-08-10T10:36:44Z</time>
      </trkpt>
      <trkpt lat="45.39691" lon="6.1986">
        <ele>2234.2412109375</ele>
        <time>2012-08-10T10:36:49Z</time>
      </trkpt>
      <trkpt lat="45.39693" lon="6.19866">
        <ele>2233.2797851562</ele>
        <time>2012-08-10T10:36:55Z</time>
      </trkpt>
      <trkpt lat="45.39695" lon="6.19871">
        <ele>2231.3571777344</ele>
        <time>2012-08-10T10:37:01Z</time>
      </trkpt>
      <trkpt lat="45.39697" lon="6.19875">
        <ele>2229.9152832031</ele>
        <time>2012-08-10T10:37:06Z</time>
      </trkpt>
      <trkpt lat="45.397" lon="6.1988">
        <ele>2228.9538574219</ele>
        <time>2012-08-10T10:37:11Z</time>
      </trkpt>
      <trkpt lat="45.39701" lon="6.19885">
        <ele>2226.0700683594</ele>
        <time>2012-08-10T10:37:16Z</time>
      </trkpt>
      <trkpt lat="45.39703" lon="6.19893">
        <ele>2224.1474609375</ele>
        <time>2012-08-10T10:37:21Z</time>
      </trkpt>
      <trkpt lat="45.39705" lon="6.19896">
        <ele>2222.2248535156</ele>
        <time>2012-08-10T10:37:25Z</time>
      </trkpt>
      <trkpt lat="45.39707" lon="6.199">
        <ele>2220.3022460938</ele>
        <time>2012-08-10T10:37:30Z</time>
      </trkpt>
      <trkpt lat="45.3971" lon="6.19906">
        <ele>2217.8986816406</ele>
        <time>2012-08-10T10:37:36Z</time>
      </trkpt>
      <trkpt lat="45.39711" lon="6.19908">
        <ele>2215.9760742188</ele>
        <time>2012-08-10T10:37:40Z</time>
      </trkpt>
      <trkpt lat="45.39716" lon="6.19912">
        <ele>2213.5727539062</ele>
        <time>2012-08-10T10:37:46Z</time>
      </trkpt>
      <trkpt lat="45.39718" lon="6.19916">
        <ele>2212.130859375</ele>
        <time>2012-08-10T10:37:51Z</time>
      </trkpt>
      <trkpt lat="45.39721" lon="6.19919">
        <ele>2211.1696777344</ele>
        <time>2012-08-10T10:37:57Z</time>
      </trkpt>
      <trkpt lat="45.39724" lon="6.19923">
        <ele>2209.7275390625</ele>
        <time>2012-08-10T10:38:02Z</time>
      </trkpt>
      <trkpt lat="45.39728" lon="6.1993">
        <ele>2206.84375</ele>
        <time>2012-08-10T10:38:10Z</time>
      </trkpt>
      <trkpt lat="45.39731" lon="6.19936">
        <ele>2204.9211425781</ele>
        <time>2012-08-10T10:38:17Z</time>
      </trkpt>
      <trkpt lat="45.39733" lon="6.19935">
        <ele>2203.4790039062</ele>
        <time>2012-08-10T10:38:23Z</time>
      </trkpt>
      <trkpt lat="45.39736" lon="6.19937">
        <ele>2201.0756835938</ele>
        <time>2012-08-10T10:38:29Z</time>
      </trkpt>
      <trkpt lat="45.39738" lon="6.19939">
        <ele>2199.6337890625</ele>
        <time>2012-08-10T10:38:33Z</time>
      </trkpt>
      <trkpt lat="45.3974" lon="6.19941">
        <ele>2199.1530761719</ele>
        <time>2012-08-10T10:38:39Z</time>
      </trkpt>
      <trkpt lat="45.39742" lon="6.19943">
        <ele>2198.1916503906</ele>
        <time>2012-08-10T10:38:50Z</time>
      </trkpt>
      <trkpt lat="45.39746" lon="6.19946">
        <ele>2197.23046875</ele>
        <time>2012-08-10T10:38:58Z</time>
      </trkpt>
      <trkpt lat="45.3975" lon="6.1995">
        <ele>2196.2692871094</ele>
        <time>2012-08-10T10:39:03Z</time>
      </trkpt>
      <trkpt lat="45.39754" lon="6.19955">
        <ele>2193.3852539062</ele>
        <time>2012-08-10T10:39:11Z</time>
      </trkpt>
      <trkpt lat="45.39757" lon="6.19955">
        <ele>2190.9819335938</ele>
        <time>2012-08-10T10:39:15Z</time>
      </trkpt>
      <trkpt lat="45.39759" lon="6.19954">
        <ele>2188.0981445312</ele>
        <time>2012-08-10T10:39:20Z</time>
      </trkpt>
      <trkpt lat="45.39762" lon="6.1995">
        <ele>2187.1364746094</ele>
        <time>2012-08-10T10:39:24Z</time>
      </trkpt>
      <trkpt lat="45.39763" lon="6.19949">
        <ele>2188.5788574219</ele>
        <time>2012-08-10T10:39:28Z</time>
      </trkpt>
      <trkpt lat="45.39766" lon="6.19952">
        <ele>2184.7333984375</ele>
        <time>2012-08-10T10:39:33Z</time>
      </trkpt>
      <trkpt lat="45.39766" lon="6.19952">
        <ele>2186.1752929688</ele>
        <time>2012-08-10T10:39:37Z</time>
      </trkpt>
      <trkpt lat="45.39771" lon="6.19956">
        <ele>2184.2526855469</ele>
        <time>2012-08-10T10:39:43Z</time>
      </trkpt>
      <trkpt lat="45.39777" lon="6.1996">
        <ele>2181.3686523438</ele>
        <time>2012-08-10T10:39:50Z</time>
      </trkpt>
      <trkpt lat="45.3978" lon="6.19961">
        <ele>2179.9267578125</ele>
        <time>2012-08-10T10:39:55Z</time>
      </trkpt>
      <trkpt lat="45.39783" lon="6.19963">
        <ele>2177.04296875</ele>
        <time>2012-08-10T10:39:59Z</time>
      </trkpt>
      <trkpt lat="45.39786" lon="6.19966">
        <ele>2174.6396484375</ele>
        <time>2012-08-10T10:40:02Z</time>
      </trkpt>
      <trkpt lat="45.39793" lon="6.1997">
        <ele>2171.7553710938</ele>
        <time>2012-08-10T10:40:10Z</time>
      </trkpt>
      <trkpt lat="45.39795" lon="6.19969">
        <ele>2169.3522949219</ele>
        <time>2012-08-10T10:40:16Z</time>
      </trkpt>
      <trkpt lat="45.39798" lon="6.19968">
        <ele>2167.4294433594</ele>
        <time>2012-08-10T10:40:19Z</time>
      </trkpt>
      <trkpt lat="45.39802" lon="6.19968">
        <ele>2164.5456542969</ele>
        <time>2012-08-10T10:40:24Z</time>
      </trkpt>
      <trkpt lat="45.39806" lon="6.19967">
        <ele>2160.7004394531</ele>
        <time>2012-08-10T10:40:29Z</time>
      </trkpt>
      <trkpt lat="45.39809" lon="6.19967">
        <ele>2155.8935546875</ele>
        <time>2012-08-10T10:40:34Z</time>
      </trkpt>
      <trkpt lat="45.39813" lon="6.19969">
        <ele>2153.9711914062</ele>
        <time>2012-08-10T10:40:41Z</time>
      </trkpt>
      <trkpt lat="45.39817" lon="6.19966">
        <ele>2152.0483398438</ele>
        <time>2012-08-10T10:40:47Z</time>
      </trkpt>
      <trkpt lat="45.39825" lon="6.19964">
        <ele>2151.5678710938</ele>
        <time>2012-08-10T10:40:53Z</time>
      </trkpt>
      <trkpt lat="45.39825" lon="6.19959">
        <ele>2154.9323730469</ele>
        <time>2012-08-10T10:40:58Z</time>
      </trkpt>
      <trkpt lat="45.39828" lon="6.19957">
        <ele>2156.8552246094</ele>
        <time>2012-08-10T10:41:00Z</time>
      </trkpt>
      <trkpt lat="45.39833" lon="6.19956">
        <ele>2154.4516601562</ele>
        <time>2012-08-10T10:41:04Z</time>
      </trkpt>
      <trkpt lat="45.39838" lon="6.19955">
        <ele>2150.6064453125</ele>
        <time>2012-08-10T10:41:09Z</time>
      </trkpt>
      <trkpt lat="45.39841" lon="6.19954">
        <ele>2148.6838378906</ele>
        <time>2012-08-10T10:41:12Z</time>
      </trkpt>
      <trkpt lat="45.39846" lon="6.19952">
        <ele>2147.2419433594</ele>
        <time>2012-08-10T10:41:16Z</time>
      </trkpt>
      <trkpt lat="45.39852" lon="6.19945">
        <ele>2148.203125</ele>
        <time>2012-08-10T10:41:21Z</time>
      </trkpt>
      <trkpt lat="45.39857" lon="6.19943">
        <ele>2145.3193359375</ele>
        <time>2012-08-10T10:41:24Z</time>
      </trkpt>
      <trkpt lat="45.39861" lon="6.19944">
        <ele>2142.916015625</ele>
        <time>2012-08-10T10:41:26Z</time>
      </trkpt>
      <trkpt lat="45.3987" lon="6.19942">
        <ele>2138.109375</ele>
        <time>2012-08-10T10:41:33Z</time>
      </trkpt>
      <trkpt lat="45.39878" lon="6.19939">
        <ele>2134.7448730469</ele>
        <time>2012-08-10T10:41:39Z</time>
      </trkpt>
      <trkpt lat="45.39888" lon="6.19936">
        <ele>2127.5349121094</ele>
        <time>2012-08-10T10:41:46Z</time>
      </trkpt>
      <trkpt lat="45.39891" lon="6.19933">
        <ele>2123.689453125</ele>
        <time>2012-08-10T10:41:50Z</time>
      </trkpt>
      <trkpt lat="45.39899" lon="6.19929">
        <ele>2117.4409179688</ele>
        <time>2012-08-10T10:41:56Z</time>
      </trkpt>
      <trkpt lat="45.39906" lon="6.19927">
        <ele>2114.0764160156</ele>
        <time>2012-08-10T10:42:01Z</time>
      </trkpt>
      <trkpt lat="45.39913" lon="6.1992">
        <ele>2110.2312011719</ele>
        <time>2012-08-10T10:42:07Z</time>
      </trkpt>
      <trkpt lat="45.39915" lon="6.19916">
        <ele>2113.115234375</ele>
        <time>2012-08-10T10:42:11Z</time>
      </trkpt>
      <trkpt lat="45.39915" lon="6.19915">
        <ele>2113.595703125</ele>
        <time>2012-08-10T10:42:12Z</time>
      </trkpt>
      <trkpt lat="45.39917" lon="6.1991">
        <ele>2113.595703125</ele>
        <time>2012-08-10T10:42:16Z</time>
      </trkpt>
      <trkpt lat="45.39919" lon="6.19906">
        <ele>2113.115234375</ele>
        <time>2012-08-10T10:42:19Z</time>
      </trkpt>
      <trkpt lat="45.39925" lon="6.19898">
        <ele>2112.1538085938</ele>
        <time>2012-08-10T10:42:26Z</time>
      </trkpt>
      <trkpt lat="45.39928" lon="6.19896">
        <ele>2109.7504882812</ele>
        <time>2012-08-10T10:42:30Z</time>
      </trkpt>
      <trkpt lat="45.39931" lon="6.19893">
        <ele>2106.3857421875</ele>
        <time>2012-08-10T10:42:35Z</time>
      </trkpt>
      <trkpt lat="45.39933" lon="6.19885">
        <ele>2105.9050292969</ele>
        <time>2012-08-10T10:42:40Z</time>
      </trkpt>
      <trkpt lat="45.39937" lon="6.19878">
        <ele>2105.4245605469</ele>
        <time>2012-08-10T10:42:44Z</time>
      </trkpt>
      <trkpt lat="45.39943" lon="6.19871">
        <ele>2103.9826660156</ele>
        <time>2012-08-10T10:42:50Z</time>
      </trkpt>
      <trkpt lat="45.3995" lon="6.19863">
        <ele>2102.0598144531</ele>
        <time>2012-08-10T10:42:57Z</time>
      </trkpt>
      <trkpt lat="45.39956" lon="6.19859">
        <ele>2099.6567382812</ele>
        <time>2012-08-10T10:43:03Z</time>
      </trkpt>
      <trkpt lat="45.3996" lon="6.19853">
        <ele>2097.7341308594</ele>
        <time>2012-08-10T10:43:09Z</time>
      </trkpt>
      <trkpt lat="45.39962" lon="6.19845">
        <ele>2096.2922363281</ele>
        <time>2012-08-10T10:43:15Z</time>
      </trkpt>
      <trkpt lat="45.39964" lon="6.19839">
        <ele>2095.8115234375</ele>
        <time>2012-08-10T10:43:20Z</time>
      </trkpt>
      <trkpt lat="45.39967" lon="6.19835">
        <ele>2093.408203125</ele>
        <time>2012-08-10T10:43:23Z</time>
      </trkpt>
      <trkpt lat="45.39968" lon="6.19832">
        <ele>2091.9660644531</ele>
        <time>2012-08-10T10:43:25Z</time>
      </trkpt>
      <trkpt lat="45.39973" lon="6.19829">
        <ele>2091.9660644531</ele>
        <time>2012-08-10T10:43:29Z</time>
      </trkpt>
      <trkpt lat="45.39976" lon="6.19825">
        <ele>2091.9660644531</ele>
        <time>2012-08-10T10:43:32Z</time>
      </trkpt>
      <trkpt lat="45.3998" lon="6.19815">
        <ele>2088.6015625</ele>
        <time>2012-08-10T10:43:38Z</time>
      </trkpt>
      <trkpt lat="45.3998" lon="6.19811">
        <ele>2086.6787109375</ele>
        <time>2012-08-10T10:43:42Z</time>
      </trkpt>
      <trkpt lat="45.39979" lon="6.19808">
        <ele>2086.6787109375</ele>
        <time>2012-08-10T10:43:44Z</time>
      </trkpt>
      <trkpt lat="45.39983" lon="6.19798">
        <ele>2084.2756347656</ele>
        <time>2012-08-10T10:43:51Z</time>
      </trkpt>
      <trkpt lat="45.39987" lon="6.19791">
        <ele>2081.8723144531</ele>
        <time>2012-08-10T10:43:57Z</time>
      </trkpt>
      <trkpt lat="45.3999" lon="6.19785">
        <ele>2076.1044921875</ele>
        <time>2012-08-10T10:44:01Z</time>
      </trkpt>
      <trkpt lat="45.39993" lon="6.19776">
        <ele>2071.2976074219</ele>
        <time>2012-08-10T10:44:07Z</time>
      </trkpt>
      <trkpt lat="45.39994" lon="6.1977">
        <ele>2069.3752441406</ele>
        <time>2012-08-10T10:44:11Z</time>
      </trkpt>
      <trkpt lat="45.39993" lon="6.19769">
        <ele>2069.3752441406</ele>
        <time>2012-08-10T10:44:12Z</time>
      </trkpt>
      <trkpt lat="45.3999" lon="6.19763">
        <ele>2068.89453125</ele>
        <time>2012-08-10T10:44:19Z</time>
      </trkpt>
      <trkpt lat="45.39988" lon="6.19757">
        <ele>2068.89453125</ele>
        <time>2012-08-10T10:44:24Z</time>
      </trkpt>
      <trkpt lat="45.39987" lon="6.1975">
        <ele>2067.4523925781</ele>
        <time>2012-08-10T10:44:30Z</time>
      </trkpt>
      <trkpt lat="45.39985" lon="6.19744">
        <ele>2065.5300292969</ele>
        <time>2012-08-10T10:44:36Z</time>
      </trkpt>
      <trkpt lat="45.39984" lon="6.19741">
        <ele>2063.6071777344</ele>
        <time>2012-08-10T10:44:39Z</time>
      </trkpt>
      <trkpt lat="45.39981" lon="6.19739">
        <ele>2061.2041015625</ele>
        <time>2012-08-10T10:44:45Z</time>
      </trkpt>
      <trkpt lat="45.39981" lon="6.19734">
        <ele>2059.76171875</ele>
        <time>2012-08-10T10:44:49Z</time>
      </trkpt>
      <trkpt lat="45.39977" lon="6.19729">
        <ele>2058.8005371094</ele>
        <time>2012-08-10T10:44:54Z</time>
      </trkpt>
      <trkpt lat="45.39975" lon="6.19724">
        <ele>2058.3198242188</ele>
        <time>2012-08-10T10:44:58Z</time>
      </trkpt>
      <trkpt lat="45.39973" lon="6.19722">
        <ele>2057.8393554688</ele>
        <time>2012-08-10T10:45:02Z</time>
      </trkpt>
      <trkpt lat="45.39971" lon="6.19717">
        <ele>2055.4360351562</ele>
        <time>2012-08-10T10:45:06Z</time>
      </trkpt>
      <trkpt lat="45.39971" lon="6.19716">
        <ele>2055.4360351562</ele>
        <time>2012-08-10T10:45:07Z</time>
      </trkpt>
      <trkpt lat="45.39966" lon="6.19709">
        <ele>2054.9553222656</ele>
        <time>2012-08-10T10:45:11Z</time>
      </trkpt>
      <trkpt lat="45.39965" lon="6.19705">
        <ele>2054.9553222656</ele>
        <time>2012-08-10T10:45:13Z</time>
      </trkpt>
      <trkpt lat="45.39965" lon="6.19703">
        <ele>2055.4360351562</ele>
        <time>2012-08-10T10:45:15Z</time>
      </trkpt>
      <trkpt lat="45.39961" lon="6.19697">
        <ele>2053.5134277344</ele>
        <time>2012-08-10T10:45:21Z</time>
      </trkpt>
      <trkpt lat="45.39959" lon="6.1969">
        <ele>2051.5908203125</ele>
        <time>2012-08-10T10:45:27Z</time>
      </trkpt>
      <trkpt lat="45.39957" lon="6.19685">
        <ele>2050.1489257812</ele>
        <time>2012-08-10T10:45:31Z</time>
      </trkpt>
      <trkpt lat="45.39957" lon="6.19682">
        <ele>2045.3422851562</ele>
        <time>2012-08-10T10:45:37Z</time>
      </trkpt>
      <trkpt lat="45.39956" lon="6.19677">
        <ele>2042.9387207031</ele>
        <time>2012-08-10T10:45:46Z</time>
      </trkpt>
      <trkpt lat="45.39956" lon="6.19672">
        <ele>2042.9387207031</ele>
        <time>2012-08-10T10:45:50Z</time>
      </trkpt>
      <trkpt lat="45.39958" lon="6.19669">
        <ele>2041.4968261719</ele>
        <time>2012-08-10T10:45:55Z</time>
      </trkpt>
      <trkpt lat="45.39959" lon="6.19665">
        <ele>2040.5354003906</ele>
        <time>2012-08-10T10:46:01Z</time>
      </trkpt>
      <trkpt lat="45.39959" lon="6.19662">
        <ele>2039.57421875</ele>
        <time>2012-08-10T10:46:07Z</time>
      </trkpt>
      <trkpt lat="45.39959" lon="6.19659">
        <ele>2038.1323242188</ele>
        <time>2012-08-10T10:46:14Z</time>
      </trkpt>
      <trkpt lat="45.39962" lon="6.19656">
        <ele>2037.6516113281</ele>
        <time>2012-08-10T10:46:21Z</time>
      </trkpt>
      <trkpt lat="45.39964" lon="6.1965">
        <ele>2036.2097167969</ele>
        <time>2012-08-10T10:46:28Z</time>
      </trkpt>
      <trkpt lat="45.39966" lon="6.19648">
        <ele>2037.1708984375</ele>
        <time>2012-08-10T10:46:31Z</time>
      </trkpt>
      <trkpt lat="45.39968" lon="6.19645">
        <ele>2035.2482910156</ele>
        <time>2012-08-10T10:46:35Z</time>
      </trkpt>
      <trkpt lat="45.39971" lon="6.1964">
        <ele>2031.8837890625</ele>
        <time>2012-08-10T10:46:40Z</time>
      </trkpt>
      <trkpt lat="45.39973" lon="6.19637">
        <ele>2030.4418945312</ele>
        <time>2012-08-10T10:46:45Z</time>
      </trkpt>
      <trkpt lat="45.39975" lon="6.19633">
        <ele>2031.8837890625</ele>
        <time>2012-08-10T10:46:49Z</time>
      </trkpt>
      <trkpt lat="45.39978" lon="6.19631">
        <ele>2028.9997558594</ele>
        <time>2012-08-10T10:46:54Z</time>
      </trkpt>
      <trkpt lat="45.39983" lon="6.19627">
        <ele>2027.0771484375</ele>
        <time>2012-08-10T10:46:59Z</time>
      </trkpt>
      <trkpt lat="45.39985" lon="6.19618">
        <ele>2025.154296875</ele>
        <time>2012-08-10T10:47:06Z</time>
      </trkpt>
      <trkpt lat="45.39988" lon="6.19612">
        <ele>2022.7512207031</ele>
        <time>2012-08-10T10:47:10Z</time>
      </trkpt>
      <trkpt lat="45.39991" lon="6.19605">
        <ele>2019.8671875</ele>
        <time>2012-08-10T10:47:14Z</time>
      </trkpt>
      <trkpt lat="45.39996" lon="6.19594">
        <ele>2017.4638671875</ele>
        <time>2012-08-10T10:47:20Z</time>
      </trkpt>
      <trkpt lat="45.39997" lon="6.19591">
        <ele>2015.5415039062</ele>
        <time>2012-08-10T10:47:24Z</time>
      </trkpt>
      <trkpt lat="45.39998" lon="6.19586">
        <ele>2014.580078125</ele>
        <time>2012-08-10T10:47:29Z</time>
      </trkpt>
      <trkpt lat="45.4" lon="6.19583">
        <ele>2014.0993652344</ele>
        <time>2012-08-10T10:47:32Z</time>
      </trkpt>
      <trkpt lat="45.40003" lon="6.19579">
        <ele>2012.6574707031</ele>
        <time>2012-08-10T10:47:37Z</time>
      </trkpt>
      <trkpt lat="45.40004" lon="6.19572">
        <ele>2010.7346191406</ele>
        <time>2012-08-10T10:47:42Z</time>
      </trkpt>
      <trkpt lat="45.40009" lon="6.19562">
        <ele>2003.5249023438</ele>
        <time>2012-08-10T10:47:49Z</time>
      </trkpt>
      <trkpt lat="45.40012" lon="6.19553">
        <ele>2001.6022949219</ele>
        <time>2012-08-10T10:47:56Z</time>
      </trkpt>
      <trkpt lat="45.40014" lon="6.19548">
        <ele>2002.0827636719</ele>
        <time>2012-08-10T10:48:01Z</time>
      </trkpt>
      <trkpt lat="45.40016" lon="6.19535">
        <ele>1999.1989746094</ele>
        <time>2012-08-10T10:48:09Z</time>
      </trkpt>
      <trkpt lat="45.40015" lon="6.19533">
        <ele>1999.6796875</ele>
        <time>2012-08-10T10:48:10Z</time>
      </trkpt>
      <trkpt lat="45.40016" lon="6.19525">
        <ele>1999.6796875</ele>
        <time>2012-08-10T10:48:16Z</time>
      </trkpt>
      <trkpt lat="45.4002" lon="6.19519">
        <ele>1997.2763671875</ele>
        <time>2012-08-10T10:48:21Z</time>
      </trkpt>
      <trkpt lat="45.40021" lon="6.19511">
        <ele>1994.8728027344</ele>
        <time>2012-08-10T10:48:26Z</time>
      </trkpt>
      <trkpt lat="45.40025" lon="6.19498">
        <ele>1991.5083007812</ele>
        <time>2012-08-10T10:48:32Z</time>
      </trkpt>
      <trkpt lat="45.4003" lon="6.19484">
        <ele>1990.546875</ele>
        <time>2012-08-10T10:48:40Z</time>
      </trkpt>
      <trkpt lat="45.40031" lon="6.19479">
        <ele>1990.546875</ele>
        <time>2012-08-10T10:48:43Z</time>
      </trkpt>
      <trkpt lat="45.40031" lon="6.1947">
        <ele>1989.5856933594</ele>
        <time>2012-08-10T10:48:48Z</time>
      </trkpt>
      <trkpt lat="45.4003" lon="6.19456">
        <ele>1988.6245117188</ele>
        <time>2012-08-10T10:48:54Z</time>
      </trkpt>
      <trkpt lat="45.40033" lon="6.19442">
        <ele>1987.1823730469</ele>
        <time>2012-08-10T10:48:59Z</time>
      </trkpt>
      <trkpt lat="45.40037" lon="6.19432">
        <ele>1986.7016601562</ele>
        <time>2012-08-10T10:49:03Z</time>
      </trkpt>
      <trkpt lat="45.40042" lon="6.19423">
        <ele>1984.2985839844</ele>
        <time>2012-08-10T10:49:08Z</time>
      </trkpt>
      <trkpt lat="45.40047" lon="6.19416">
        <ele>1982.3759765625</ele>
        <time>2012-08-10T10:49:12Z</time>
      </trkpt>
      <trkpt lat="45.40049" lon="6.19415">
        <ele>1981.4145507812</ele>
        <time>2012-08-10T10:49:15Z</time>
      </trkpt>
      <trkpt lat="45.40055" lon="6.19407">
        <ele>1981.4145507812</ele>
        <time>2012-08-10T10:49:23Z</time>
      </trkpt>
      <trkpt lat="45.40059" lon="6.19404">
        <ele>1981.8952636719</ele>
        <time>2012-08-10T10:49:28Z</time>
      </trkpt>
      <trkpt lat="45.40061" lon="6.19401">
        <ele>1980.4533691406</ele>
        <time>2012-08-10T10:49:32Z</time>
      </trkpt>
      <trkpt lat="45.40062" lon="6.19395">
        <ele>1978.5305175781</ele>
        <time>2012-08-10T10:49:38Z</time>
      </trkpt>
      <trkpt lat="45.40067" lon="6.19386">
        <ele>1978.5305175781</ele>
        <time>2012-08-10T10:49:44Z</time>
      </trkpt>
      <trkpt lat="45.40068" lon="6.19382">
        <ele>1978.5305175781</ele>
        <time>2012-08-10T10:49:47Z</time>
      </trkpt>
      <trkpt lat="45.40068" lon="6.19378">
        <ele>1977.5690917969</ele>
        <time>2012-08-10T10:49:50Z</time>
      </trkpt>
      <trkpt lat="45.40071" lon="6.1937">
        <ele>1975.646484375</ele>
        <time>2012-08-10T10:49:56Z</time>
      </trkpt>
      <trkpt lat="45.40072" lon="6.19361">
        <ele>1975.1657714844</ele>
        <time>2012-08-10T10:50:02Z</time>
      </trkpt>
      <trkpt lat="45.40076" lon="6.19347">
        <ele>1974.6853027344</ele>
        <time>2012-08-10T10:50:10Z</time>
      </trkpt>
      <trkpt lat="45.40079" lon="6.19338">
        <ele>1976.1271972656</ele>
        <time>2012-08-10T10:50:17Z</time>
      </trkpt>
      <trkpt lat="45.40079" lon="6.19337">
        <ele>1976.1271972656</ele>
        <time>2012-08-10T10:50:18Z</time>
      </trkpt>
      <trkpt lat="45.40081" lon="6.19331">
        <ele>1979.4916992188</ele>
        <time>2012-08-10T10:50:24Z</time>
      </trkpt>
      <trkpt lat="45.40083" lon="6.19324">
        <ele>1979.9724121094</ele>
        <time>2012-08-10T10:50:30Z</time>
      </trkpt>
      <trkpt lat="45.40086" lon="6.19322">
        <ele>1980.9340820312</ele>
        <time>2012-08-10T10:50:36Z</time>
      </trkpt>
      <trkpt lat="45.40084" lon="6.19318">
        <ele>1982.3759765625</ele>
        <time>2012-08-10T10:50:41Z</time>
      </trkpt>
      <trkpt lat="45.40085" lon="6.19311">
        <ele>1985.259765625</ele>
        <time>2012-08-10T10:50:46Z</time>
      </trkpt>
      <trkpt lat="45.40088" lon="6.19306">
        <ele>1986.7016601562</ele>
        <time>2012-08-10T10:50:52Z</time>
      </trkpt>
      <trkpt lat="45.40093" lon="6.193">
        <ele>1988.1437988281</ele>
        <time>2012-08-10T10:50:59Z</time>
      </trkpt>
      <trkpt lat="45.40097" lon="6.19289">
        <ele>1989.1049804688</ele>
        <time>2012-08-10T10:51:06Z</time>
      </trkpt>
      <trkpt lat="45.40102" lon="6.19284">
        <ele>1988.1437988281</ele>
        <time>2012-08-10T10:51:13Z</time>
      </trkpt>
      <trkpt lat="45.40106" lon="6.19281">
        <ele>1989.1049804688</ele>
        <time>2012-08-10T10:51:20Z</time>
      </trkpt>
      <trkpt lat="45.40107" lon="6.19275">
        <ele>1990.546875</ele>
        <time>2012-08-10T10:51:25Z</time>
      </trkpt>
      <trkpt lat="45.40112" lon="6.19266">
        <ele>1991.5083007812</ele>
        <time>2012-08-10T10:51:32Z</time>
      </trkpt>
      <trkpt lat="45.40115" lon="6.19258">
        <ele>1992.4697265625</ele>
        <time>2012-08-10T10:51:39Z</time>
      </trkpt>
      <trkpt lat="45.40117" lon="6.19254">
        <ele>1994.3920898438</ele>
        <time>2012-08-10T10:51:45Z</time>
      </trkpt>
      <trkpt lat="45.4012" lon="6.19252">
        <ele>1995.353515625</ele>
        <time>2012-08-10T10:51:51Z</time>
      </trkpt>
      <trkpt lat="45.40124" lon="6.19248">
        <ele>1996.7956542969</ele>
        <time>2012-08-10T10:51:57Z</time>
      </trkpt>
      <trkpt lat="45.40127" lon="6.19244">
        <ele>1998.2375488281</ele>
        <time>2012-08-10T10:52:03Z</time>
      </trkpt>
      <trkpt lat="45.40129" lon="6.19242">
        <ele>1998.7182617188</ele>
        <time>2012-08-10T10:52:08Z</time>
      </trkpt>
      <trkpt lat="45.40133" lon="6.19241">
        <ele>2000.1604003906</ele>
        <time>2012-08-10T10:52:15Z</time>
      </trkpt>
      <trkpt lat="45.40136" lon="6.19234">
        <ele>2001.1215820312</ele>
        <time>2012-08-10T10:52:21Z</time>
      </trkpt>
      <trkpt lat="45.40141" lon="6.19226">
        <ele>1999.6796875</ele>
        <time>2012-08-10T10:52:28Z</time>
      </trkpt>
      <trkpt lat="45.40147" lon="6.19224">
        <ele>1999.1989746094</ele>
        <time>2012-08-10T10:52:33Z</time>
      </trkpt>
      <trkpt lat="45.40153" lon="6.19223">
        <ele>1998.7182617188</ele>
        <time>2012-08-10T10:52:40Z</time>
      </trkpt>
      <trkpt lat="45.40157" lon="6.19222">
        <ele>1998.7182617188</ele>
        <time>2012-08-10T10:52:45Z</time>
      </trkpt>
      <trkpt lat="45.40161" lon="6.19221">
        <ele>2000.1604003906</ele>
        <time>2012-08-10T10:52:50Z</time>
      </trkpt>
      <trkpt lat="45.40166" lon="6.19219">
        <ele>2000.1604003906</ele>
        <time>2012-08-10T10:52:55Z</time>
      </trkpt>
      <trkpt lat="45.40169" lon="6.19214">
        <ele>2000.6408691406</ele>
        <time>2012-08-10T10:53:00Z</time>
      </trkpt>
      <trkpt lat="45.40173" lon="6.1921">
        <ele>2001.1215820312</ele>
        <time>2012-08-10T10:53:06Z</time>
      </trkpt>
      <trkpt lat="45.40176" lon="6.19208">
        <ele>2000.6408691406</ele>
        <time>2012-08-10T10:53:12Z</time>
      </trkpt>
      <trkpt lat="45.4018" lon="6.19204">
        <ele>2000.1604003906</ele>
        <time>2012-08-10T10:53:18Z</time>
      </trkpt>
      <trkpt lat="45.40184" lon="6.19202">
        <ele>1999.1989746094</ele>
        <time>2012-08-10T10:53:24Z</time>
      </trkpt>
      <trkpt lat="45.40187" lon="6.19197">
        <ele>1998.2375488281</ele>
        <time>2012-08-10T10:53:29Z</time>
      </trkpt>
      <trkpt lat="45.40192" lon="6.1919">
        <ele>1997.2763671875</ele>
        <time>2012-08-10T10:53:36Z</time>
      </trkpt>
      <trkpt lat="45.40191" lon="6.19184">
        <ele>1995.8342285156</ele>
        <time>2012-08-10T10:53:43Z</time>
      </trkpt>
      <trkpt lat="45.4019" lon="6.1918">
        <ele>1994.8728027344</ele>
        <time>2012-08-10T10:53:47Z</time>
      </trkpt>
      <trkpt lat="45.40191" lon="6.19176">
        <ele>1994.3920898438</ele>
        <time>2012-08-10T10:53:49Z</time>
      </trkpt>
      <trkpt lat="45.40195" lon="6.19168">
        <ele>1991.5083007812</ele>
        <time>2012-08-10T10:53:55Z</time>
      </trkpt>
      <trkpt lat="45.40195" lon="6.19166">
        <ele>1991.0275878906</ele>
        <time>2012-08-10T10:53:56Z</time>
      </trkpt>
      <trkpt lat="45.40198" lon="6.19163">
        <ele>1989.5856933594</ele>
        <time>2012-08-10T10:54:00Z</time>
      </trkpt>
      <trkpt lat="45.402" lon="6.19155">
        <ele>1986.2211914062</ele>
        <time>2012-08-10T10:54:05Z</time>
      </trkpt>
      <trkpt lat="45.40203" lon="6.19146">
        <ele>1983.8178710938</ele>
        <time>2012-08-10T10:54:14Z</time>
      </trkpt>
      <trkpt lat="45.40207" lon="6.19138">
        <ele>1981.4145507812</ele>
        <time>2012-08-10T10:54:19Z</time>
      </trkpt>
      <trkpt lat="45.40211" lon="6.19136">
        <ele>1979.4916992188</ele>
        <time>2012-08-10T10:54:24Z</time>
      </trkpt>
      <trkpt lat="45.40213" lon="6.19132">
        <ele>1978.0498046875</ele>
        <time>2012-08-10T10:54:29Z</time>
      </trkpt>
      <trkpt lat="45.40214" lon="6.19126">
        <ele>1976.1271972656</ele>
        <time>2012-08-10T10:54:33Z</time>
      </trkpt>
      <trkpt lat="45.40216" lon="6.19117">
        <ele>1973.7238769531</ele>
        <time>2012-08-10T10:54:38Z</time>
      </trkpt>
      <trkpt lat="45.40221" lon="6.19113">
        <ele>1972.2819824219</ele>
        <time>2012-08-10T10:54:43Z</time>
      </trkpt>
      <trkpt lat="45.40223" lon="6.19109">
        <ele>1970.359375</ele>
        <time>2012-08-10T10:54:48Z</time>
      </trkpt>
      <trkpt lat="45.40226" lon="6.19106">
        <ele>1969.8786621094</ele>
        <time>2012-08-10T10:54:54Z</time>
      </trkpt>
      <trkpt lat="45.40228" lon="6.19105">
        <ele>1969.3981933594</ele>
        <time>2012-08-10T10:54:58Z</time>
      </trkpt>
      <trkpt lat="45.40231" lon="6.19101">
        <ele>1968.4367675781</ele>
        <time>2012-08-10T10:55:06Z</time>
      </trkpt>
      <trkpt lat="45.40233" lon="6.19097">
        <ele>1966.9948730469</ele>
        <time>2012-08-10T10:55:13Z</time>
      </trkpt>
      <trkpt lat="45.40233" lon="6.19092">
        <ele>1965.5529785156</ele>
        <time>2012-08-10T10:55:18Z</time>
      </trkpt>
      <trkpt lat="45.40234" lon="6.1909">
        <ele>1965.5529785156</ele>
        <time>2012-08-10T10:55:19Z</time>
      </trkpt>
      <trkpt lat="45.40239" lon="6.19077">
        <ele>1961.7075195312</ele>
        <time>2012-08-10T10:55:25Z</time>
      </trkpt>
      <trkpt lat="45.40245" lon="6.19071">
        <ele>1960.2653808594</ele>
        <time>2012-08-10T10:55:29Z</time>
      </trkpt>
      <trkpt lat="45.40248" lon="6.19065">
        <ele>1958.8234863281</ele>
        <time>2012-08-10T10:55:34Z</time>
      </trkpt>
      <trkpt lat="45.40249" lon="6.19062">
        <ele>1957.8623046875</ele>
        <time>2012-08-10T10:55:37Z</time>
      </trkpt>
      <trkpt lat="45.4026" lon="6.19057">
        <ele>1956.9008789062</ele>
        <time>2012-08-10T10:55:43Z</time>
      </trkpt>
      <trkpt lat="45.40261" lon="6.19055">
        <ele>1955.939453125</ele>
        <time>2012-08-10T10:55:44Z</time>
      </trkpt>
      <trkpt lat="45.40269" lon="6.19045">
        <ele>1953.5363769531</ele>
        <time>2012-08-10T10:55:49Z</time>
      </trkpt>
      <trkpt lat="45.40274" lon="6.19039">
        <ele>1952.5749511719</ele>
        <time>2012-08-10T10:55:52Z</time>
      </trkpt>
      <trkpt lat="45.40282" lon="6.19031">
        <ele>1951.6137695312</ele>
        <time>2012-08-10T10:55:57Z</time>
      </trkpt>
      <trkpt lat="45.40284" lon="6.19029">
        <ele>1951.6137695312</ele>
        <time>2012-08-10T10:55:58Z</time>
      </trkpt>
      <trkpt lat="45.4029" lon="6.19022">
        <ele>1950.65234375</ele>
        <time>2012-08-10T10:56:03Z</time>
      </trkpt>
      <trkpt lat="45.40294" lon="6.19019">
        <ele>1949.6911621094</ele>
        <time>2012-08-10T10:56:06Z</time>
      </trkpt>
      <trkpt lat="45.40302" lon="6.19021">
        <ele>1949.6911621094</ele>
        <time>2012-08-10T10:56:11Z</time>
      </trkpt>
      <trkpt lat="45.40307" lon="6.19017">
        <ele>1950.171875</ele>
        <time>2012-08-10T10:56:14Z</time>
      </trkpt>
      <trkpt lat="45.40314" lon="6.19014">
        <ele>1949.2104492188</ele>
        <time>2012-08-10T10:56:19Z</time>
      </trkpt>
      <trkpt lat="45.40318" lon="6.19011">
        <ele>1948.7297363281</ele>
        <time>2012-08-10T10:56:22Z</time>
      </trkpt>
      <trkpt lat="45.40324" lon="6.1901">
        <ele>1947.2875976562</ele>
        <time>2012-08-10T10:56:28Z</time>
      </trkpt>
      <trkpt lat="45.40326" lon="6.19011">
        <ele>1946.3264160156</ele>
        <time>2012-08-10T10:56:30Z</time>
      </trkpt>
      <trkpt lat="45.4033" lon="6.1901">
        <ele>1945.3649902344</ele>
        <time>2012-08-10T10:56:33Z</time>
      </trkpt>
      <trkpt lat="45.40335" lon="6.19001">
        <ele>1945.3649902344</ele>
        <time>2012-08-10T10:56:40Z</time>
      </trkpt>
      <trkpt lat="45.40339" lon="6.18998">
        <ele>1944.8842773438</ele>
        <time>2012-08-10T10:56:45Z</time>
      </trkpt>
      <trkpt lat="45.40345" lon="6.18989">
        <ele>1943.4423828125</ele>
        <time>2012-08-10T10:56:52Z</time>
      </trkpt>
      <trkpt lat="45.40351" lon="6.18984">
        <ele>1941.5197753906</ele>
        <time>2012-08-10T10:56:58Z</time>
      </trkpt>
      <trkpt lat="45.40356" lon="6.18981">
        <ele>1941.5197753906</ele>
        <time>2012-08-10T10:57:02Z</time>
      </trkpt>
      <trkpt lat="45.40361" lon="6.18978">
        <ele>1942.4812011719</ele>
        <time>2012-08-10T10:57:08Z</time>
      </trkpt>
      <trkpt lat="45.40371" lon="6.18975">
        <ele>1942.4812011719</ele>
        <time>2012-08-10T10:57:16Z</time>
      </trkpt>
      <trkpt lat="45.40374" lon="6.18975">
        <ele>1942.0004882812</ele>
        <time>2012-08-10T10:57:20Z</time>
      </trkpt>
      <trkpt lat="45.40374" lon="6.18974">
        <ele>1941.5197753906</ele>
        <time>2012-08-10T10:57:21Z</time>
      </trkpt>
      <trkpt lat="45.40383" lon="6.18968">
        <ele>1941.0390625</ele>
        <time>2012-08-10T10:57:29Z</time>
      </trkpt>
      <trkpt lat="45.40386" lon="6.18966">
        <ele>1941.0390625</ele>
        <time>2012-08-10T10:57:32Z</time>
      </trkpt>
      <trkpt lat="45.40388" lon="6.18961">
        <ele>1940.5583496094</ele>
        <time>2012-08-10T10:57:36Z</time>
      </trkpt>
      <trkpt lat="45.40393" lon="6.18958">
        <ele>1940.5583496094</ele>
        <time>2012-08-10T10:57:41Z</time>
      </trkpt>
      <trkpt lat="45.40398" lon="6.18957">
        <ele>1939.5971679688</ele>
        <time>2012-08-10T10:57:46Z</time>
      </trkpt>
      <trkpt lat="45.40405" lon="6.18957">
        <ele>1937.6745605469</ele>
        <time>2012-08-10T10:57:54Z</time>
      </trkpt>
      <trkpt lat="45.40409" lon="6.18957">
        <ele>1936.2326660156</ele>
        <time>2012-08-10T10:57:59Z</time>
      </trkpt>
      <trkpt lat="45.40413" lon="6.18958">
        <ele>1933.8293457031</ele>
        <time>2012-08-10T10:58:06Z</time>
      </trkpt>
      <trkpt lat="45.4042" lon="6.18958">
        <ele>1931.9064941406</ele>
        <time>2012-08-10T10:58:11Z</time>
      </trkpt>
      <trkpt lat="45.40427" lon="6.18955">
        <ele>1930.9453125</ele>
        <time>2012-08-10T10:58:16Z</time>
      </trkpt>
      <trkpt lat="45.40429" lon="6.18954">
        <ele>1930.9453125</ele>
        <time>2012-08-10T10:58:18Z</time>
      </trkpt>
      <trkpt lat="45.40433" lon="6.18954">
        <ele>1930.4645996094</ele>
        <time>2012-08-10T10:58:21Z</time>
      </trkpt>
      <trkpt lat="45.40435" lon="6.18956">
        <ele>1930.4645996094</ele>
        <time>2012-08-10T10:58:25Z</time>
      </trkpt>
      <trkpt lat="45.40443" lon="6.18957">
        <ele>1929.9838867188</ele>
        <time>2012-08-10T10:58:32Z</time>
      </trkpt>
      <trkpt lat="45.40449" lon="6.18955">
        <ele>1930.9453125</ele>
        <time>2012-08-10T10:58:37Z</time>
      </trkpt>
      <trkpt lat="45.4045" lon="6.18952">
        <ele>1930.4645996094</ele>
        <time>2012-08-10T10:58:45Z</time>
      </trkpt>
      <trkpt lat="45.40452" lon="6.18945">
        <ele>1929.0224609375</ele>
        <time>2012-08-10T10:58:52Z</time>
      </trkpt>
      <trkpt lat="45.40455" lon="6.1894">
        <ele>1927.5805664062</ele>
        <time>2012-08-10T10:58:55Z</time>
      </trkpt>
      <trkpt lat="45.40459" lon="6.18934">
        <ele>1927.5805664062</ele>
        <time>2012-08-10T10:59:00Z</time>
      </trkpt>
      <trkpt lat="45.40464" lon="6.18928">
        <ele>1928.0612792969</ele>
        <time>2012-08-10T10:59:07Z</time>
      </trkpt>
      <trkpt lat="45.4047" lon="6.18923">
        <ele>1925.1772460938</ele>
        <time>2012-08-10T10:59:12Z</time>
      </trkpt>
      <trkpt lat="45.40472" lon="6.1892">
        <ele>1923.7353515625</ele>
        <time>2012-08-10T10:59:14Z</time>
      </trkpt>
      <trkpt lat="45.40477" lon="6.18919">
        <ele>1922.2934570312</ele>
        <time>2012-08-10T10:59:20Z</time>
      </trkpt>
      <trkpt lat="45.40482" lon="6.18915">
        <ele>1919.4096679688</ele>
        <time>2012-08-10T10:59:27Z</time>
      </trkpt>
      <trkpt lat="45.40485" lon="6.18913">
        <ele>1918.9289550781</ele>
        <time>2012-08-10T10:59:29Z</time>
      </trkpt>
      <trkpt lat="45.40491" lon="6.1891">
        <ele>1917.9675292969</ele>
        <time>2012-08-10T10:59:34Z</time>
      </trkpt>
      <trkpt lat="45.40501" lon="6.18906">
        <ele>1915.5642089844</ele>
        <time>2012-08-10T10:59:41Z</time>
      </trkpt>
      <trkpt lat="45.40506" lon="6.18905">
        <ele>1915.0834960938</ele>
        <time>2012-08-10T10:59:45Z</time>
      </trkpt>
      <trkpt lat="45.40509" lon="6.18903">
        <ele>1913.6413574219</ele>
        <time>2012-08-10T10:59:48Z</time>
      </trkpt>
      <trkpt lat="45.40516" lon="6.18899">
        <ele>1912.6801757812</ele>
        <time>2012-08-10T10:59:53Z</time>
      </trkpt>
      <trkpt lat="45.40521" lon="6.18896">
        <ele>1911.7189941406</ele>
        <time>2012-08-10T10:59:58Z</time>
      </trkpt>
      <trkpt lat="45.40527" lon="6.18895">
        <ele>1910.7575683594</ele>
        <time>2012-08-10T11:00:03Z</time>
      </trkpt>
      <trkpt lat="45.40528" lon="6.18894">
        <ele>1910.2768554688</ele>
        <time>2012-08-10T11:00:05Z</time>
      </trkpt>
      <trkpt lat="45.40533" lon="6.18889">
        <ele>1909.3156738281</ele>
        <time>2012-08-10T11:00:10Z</time>
      </trkpt>
      <trkpt lat="45.40536" lon="6.18882">
        <ele>1907.8737792969</ele>
        <time>2012-08-10T11:00:15Z</time>
      </trkpt>
      <trkpt lat="45.40538" lon="6.18881">
        <ele>1907.8737792969</ele>
        <time>2012-08-10T11:00:16Z</time>
      </trkpt>
      <trkpt lat="45.40539" lon="6.1888">
        <ele>1906.9123535156</ele>
        <time>2012-08-10T11:00:18Z</time>
      </trkpt>
      <trkpt lat="45.40546" lon="6.18874">
        <ele>1904.5090332031</ele>
        <time>2012-08-10T11:00:24Z</time>
      </trkpt>
      <trkpt lat="45.40551" lon="6.18871">
        <ele>1902.5864257812</ele>
        <time>2012-08-10T11:00:28Z</time>
      </trkpt>
      <trkpt lat="45.40557" lon="6.18865">
        <ele>1900.1833496094</ele>
        <time>2012-08-10T11:00:35Z</time>
      </trkpt>
      <trkpt lat="45.40559" lon="6.18863">
        <ele>1898.7409667969</ele>
        <time>2012-08-10T11:00:38Z</time>
      </trkpt>
      <trkpt lat="45.40568" lon="6.18862">
        <ele>1896.818359375</ele>
        <time>2012-08-10T11:00:44Z</time>
      </trkpt>
      <trkpt lat="45.40572" lon="6.1886">
        <ele>1895.8571777344</ele>
        <time>2012-08-10T11:00:46Z</time>
      </trkpt>
      <trkpt lat="45.40578" lon="6.18857">
        <ele>1894.4150390625</ele>
        <time>2012-08-10T11:00:50Z</time>
      </trkpt>
      <trkpt lat="45.40585" lon="6.18849">
        <ele>1891.0505371094</ele>
        <time>2012-08-10T11:00:57Z</time>
      </trkpt>
      <trkpt lat="45.40587" lon="6.18848">
        <ele>1890.5698242188</ele>
        <time>2012-08-10T11:00:58Z</time>
      </trkpt>
      <trkpt lat="45.40594" lon="6.18841">
        <ele>1889.1279296875</ele>
        <time>2012-08-10T11:01:04Z</time>
      </trkpt>
      <trkpt lat="45.40599" lon="6.18835">
        <ele>1886.244140625</ele>
        <time>2012-08-10T11:01:08Z</time>
      </trkpt>
      <trkpt lat="45.406" lon="6.18835">
        <ele>1886.244140625</ele>
        <time>2012-08-10T11:01:09Z</time>
      </trkpt>
      <trkpt lat="45.40602" lon="6.18831">
        <ele>1885.2827148438</ele>
        <time>2012-08-10T11:01:12Z</time>
      </trkpt>
      <trkpt lat="45.40608" lon="6.18824">
        <ele>1883.3598632812</ele>
        <time>2012-08-10T11:01:18Z</time>
      </trkpt>
      <trkpt lat="45.40609" lon="6.18823">
        <ele>1882.8791503906</ele>
        <time>2012-08-10T11:01:20Z</time>
      </trkpt>
      <trkpt lat="45.40611" lon="6.18816">
        <ele>1881.91796875</ele>
        <time>2012-08-10T11:01:26Z</time>
      </trkpt>
      <trkpt lat="45.40613" lon="6.18813">
        <ele>1880.9567871094</ele>
        <time>2012-08-10T11:01:31Z</time>
      </trkpt>
      <trkpt lat="45.40615" lon="6.18807">
        <ele>1879.9953613281</ele>
        <time>2012-08-10T11:01:37Z</time>
      </trkpt>
      <trkpt lat="45.40619" lon="6.18804">
        <ele>1879.5146484375</ele>
        <time>2012-08-10T11:01:42Z</time>
      </trkpt>
      <trkpt lat="45.40621" lon="6.18798">
        <ele>1879.0339355469</ele>
        <time>2012-08-10T11:01:48Z</time>
      </trkpt>
      <trkpt lat="45.40623" lon="6.18788">
        <ele>1878.0727539062</ele>
        <time>2012-08-10T11:01:54Z</time>
      </trkpt>
      <trkpt lat="45.40624" lon="6.18785">
        <ele>1877.5920410156</ele>
        <time>2012-08-10T11:01:56Z</time>
      </trkpt>
      <trkpt lat="45.40629" lon="6.18778">
        <ele>1876.630859375</ele>
        <time>2012-08-10T11:02:00Z</time>
      </trkpt>
      <trkpt lat="45.40633" lon="6.18772">
        <ele>1876.1501464844</ele>
        <time>2012-08-10T11:02:04Z</time>
      </trkpt>
      <trkpt lat="45.40638" lon="6.18768">
        <ele>1875.6694335938</ele>
        <time>2012-08-10T11:02:08Z</time>
      </trkpt>
      <trkpt lat="45.4064" lon="6.18762">
        <ele>1875.1887207031</ele>
        <time>2012-08-10T11:02:12Z</time>
      </trkpt>
      <trkpt lat="45.40642" lon="6.18759">
        <ele>1875.6694335938</ele>
        <time>2012-08-10T11:02:15Z</time>
      </trkpt>
      <trkpt lat="45.4064" lon="6.18755">
        <ele>1875.6694335938</ele>
        <time>2012-08-10T11:02:19Z</time>
      </trkpt>
      <trkpt lat="45.40642" lon="6.18746">
        <ele>1875.6694335938</ele>
        <time>2012-08-10T11:02:26Z</time>
      </trkpt>
      <trkpt lat="45.40643" lon="6.18745">
        <ele>1875.1887207031</ele>
        <time>2012-08-10T11:02:28Z</time>
      </trkpt>
      <trkpt lat="45.40651" lon="6.18737">
        <ele>1876.630859375</ele>
        <time>2012-08-10T11:02:37Z</time>
      </trkpt>
      <trkpt lat="45.40652" lon="6.18736">
        <ele>1876.630859375</ele>
        <time>2012-08-10T11:02:38Z</time>
      </trkpt>
      <trkpt lat="45.40659" lon="6.18733">
        <ele>1877.1115722656</ele>
        <time>2012-08-10T11:02:45Z</time>
      </trkpt>
      <trkpt lat="45.40661" lon="6.1873">
        <ele>1876.630859375</ele>
        <time>2012-08-10T11:02:48Z</time>
      </trkpt>
      <trkpt lat="45.40667" lon="6.18721">
        <ele>1876.630859375</ele>
        <time>2012-08-10T11:02:55Z</time>
      </trkpt>
      <trkpt lat="45.40668" lon="6.18719">
        <ele>1876.630859375</ele>
        <time>2012-08-10T11:02:56Z</time>
      </trkpt>
      <trkpt lat="45.40675" lon="6.18712">
        <ele>1877.5920410156</ele>
        <time>2012-08-10T11:03:03Z</time>
      </trkpt>
      <trkpt lat="45.40676" lon="6.18711">
        <ele>1877.5920410156</ele>
        <time>2012-08-10T11:03:04Z</time>
      </trkpt>
      <trkpt lat="45.40684" lon="6.18709">
        <ele>1876.630859375</ele>
        <time>2012-08-10T11:03:10Z</time>
      </trkpt>
      <trkpt lat="45.40685" lon="6.18709">
        <ele>1876.630859375</ele>
        <time>2012-08-10T11:03:11Z</time>
      </trkpt>
      <trkpt lat="45.40692" lon="6.18702">
        <ele>1874.7082519531</ele>
        <time>2012-08-10T11:03:18Z</time>
      </trkpt>
      <trkpt lat="45.40695" lon="6.18695">
        <ele>1872.7856445312</ele>
        <time>2012-08-10T11:03:24Z</time>
      </trkpt>
      <trkpt lat="45.40695" lon="6.18694">
        <ele>1872.3049316406</ele>
        <time>2012-08-10T11:03:25Z</time>
      </trkpt>
      <trkpt lat="45.40698" lon="6.18687">
        <ele>1870.3823242188</ele>
        <time>2012-08-10T11:03:29Z</time>
      </trkpt>
      <trkpt lat="45.40702" lon="6.18683">
        <ele>1868.9404296875</ele>
        <time>2012-08-10T11:03:32Z</time>
      </trkpt>
      <trkpt lat="45.40707" lon="6.18675">
        <ele>1868.4597167969</ele>
        <time>2012-08-10T11:03:38Z</time>
      </trkpt>
      <trkpt lat="45.40709" lon="6.18674">
        <ele>1868.4597167969</ele>
        <time>2012-08-10T11:03:40Z</time>
      </trkpt>
      <trkpt lat="45.40715" lon="6.1867">
        <ele>1866.0561523438</ele>
        <time>2012-08-10T11:03:46Z</time>
      </trkpt>
      <trkpt lat="45.40723" lon="6.18669">
        <ele>1864.6142578125</ele>
        <time>2012-08-10T11:03:52Z</time>
      </trkpt>
      <trkpt lat="45.40725" lon="6.18671">
        <ele>1864.1335449219</ele>
        <time>2012-08-10T11:03:55Z</time>
      </trkpt>
      <trkpt lat="45.40731" lon="6.18668">
        <ele>1863.6528320312</ele>
        <time>2012-08-10T11:04:02Z</time>
      </trkpt>
      <trkpt lat="45.40734" lon="6.18666">
        <ele>1862.6916503906</ele>
        <time>2012-08-10T11:04:07Z</time>
      </trkpt>
      <trkpt lat="45.40735" lon="6.18661">
        <ele>1861.2497558594</ele>
        <time>2012-08-10T11:04:12Z</time>
      </trkpt>
      <trkpt lat="45.40738" lon="6.18656">
        <ele>1861.73046875</ele>
        <time>2012-08-10T11:04:16Z</time>
      </trkpt>
      <trkpt lat="45.40741" lon="6.18654">
        <ele>1861.2497558594</ele>
        <time>2012-08-10T11:04:18Z</time>
      </trkpt>
      <trkpt lat="45.40747" lon="6.18653">
        <ele>1861.73046875</ele>
        <time>2012-08-10T11:04:24Z</time>
      </trkpt>
      <trkpt lat="45.40751" lon="6.18652">
        <ele>1862.2109375</ele>
        <time>2012-08-10T11:04:28Z</time>
      </trkpt>
      <trkpt lat="45.40755" lon="6.18648">
        <ele>1863.1723632812</ele>
        <time>2012-08-10T11:04:34Z</time>
      </trkpt>
      <trkpt lat="45.4076" lon="6.18644">
        <ele>1864.1335449219</ele>
        <time>2012-08-10T11:04:39Z</time>
      </trkpt>
      <trkpt lat="45.40761" lon="6.18638">
        <ele>1864.6142578125</ele>
        <time>2012-08-10T11:04:43Z</time>
      </trkpt>
      <trkpt lat="45.40768" lon="6.1863">
        <ele>1865.0949707031</ele>
        <time>2012-08-10T11:04:50Z</time>
      </trkpt>
      <trkpt lat="45.40769" lon="6.18629">
        <ele>1865.0949707031</ele>
        <time>2012-08-10T11:04:51Z</time>
      </trkpt>
      <trkpt lat="45.40773" lon="6.18627">
        <ele>1866.5368652344</ele>
        <time>2012-08-10T11:04:55Z</time>
      </trkpt>
      <trkpt lat="45.40778" lon="6.18623">
        <ele>1867.498046875</ele>
        <time>2012-08-10T11:05:01Z</time>
      </trkpt>
      <trkpt lat="45.4078" lon="6.18618">
        <ele>1867.9787597656</ele>
        <time>2012-08-10T11:05:06Z</time>
      </trkpt>
      <trkpt lat="45.40783" lon="6.18615">
        <ele>1867.9787597656</ele>
        <time>2012-08-10T11:05:09Z</time>
      </trkpt>
      <trkpt lat="45.40784" lon="6.18611">
        <ele>1867.9787597656</ele>
        <time>2012-08-10T11:05:12Z</time>
      </trkpt>
      <trkpt lat="45.40784" lon="6.186">
        <ele>1865.0949707031</ele>
        <time>2012-08-10T11:05:19Z</time>
      </trkpt>
      <trkpt lat="45.40783" lon="6.18596">
        <ele>1864.6142578125</ele>
        <time>2012-08-10T11:05:21Z</time>
      </trkpt>
      <trkpt lat="45.40781" lon="6.18584">
        <ele>1856.923828125</ele>
        <time>2012-08-10T11:05:26Z</time>
      </trkpt>
      <trkpt lat="45.4078" lon="6.18571">
        <ele>1852.1171875</ele>
        <time>2012-08-10T11:05:33Z</time>
      </trkpt>
      <trkpt lat="45.40781" lon="6.18563">
        <ele>1850.6750488281</ele>
        <time>2012-08-10T11:05:37Z</time>
      </trkpt>
      <trkpt lat="45.4078" lon="6.18551">
        <ele>1846.8298339844</ele>
        <time>2012-08-10T11:05:42Z</time>
      </trkpt>
      <trkpt lat="45.40779" lon="6.18547">
        <ele>1846.3493652344</ele>
        <time>2012-08-10T11:05:44Z</time>
      </trkpt>
      <trkpt lat="45.40772" lon="6.18543">
        <ele>1842.9846191406</ele>
        <time>2012-08-10T11:05:50Z</time>
      </trkpt>
      <trkpt lat="45.4077" lon="6.18543">
        <ele>1841.0620117188</ele>
        <time>2012-08-10T11:05:53Z</time>
      </trkpt>
      <trkpt lat="45.4077" lon="6.18539">
        <ele>1839.1394042969</ele>
        <time>2012-08-10T11:05:56Z</time>
      </trkpt>
      <trkpt lat="45.40766" lon="6.18535">
        <ele>1836.2556152344</ele>
        <time>2012-08-10T11:06:01Z</time>
      </trkpt>
      <trkpt lat="45.40762" lon="6.18533">
        <ele>1835.7746582031</ele>
        <time>2012-08-10T11:06:07Z</time>
      </trkpt>
      <trkpt lat="45.40759" lon="6.18536">
        <ele>1835.7746582031</ele>
        <time>2012-08-10T11:06:11Z</time>
      </trkpt>
      <trkpt lat="45.40757" lon="6.18537">
        <ele>1836.2556152344</ele>
        <time>2012-08-10T11:06:12Z</time>
      </trkpt>
      <trkpt lat="45.40753" lon="6.18542">
        <ele>1836.7360839844</ele>
        <time>2012-08-10T11:06:17Z</time>
      </trkpt>
      <trkpt lat="45.40752" lon="6.18546">
        <ele>1838.1782226562</ele>
        <time>2012-08-10T11:06:20Z</time>
      </trkpt>
      <trkpt lat="45.4075" lon="6.18546">
        <ele>1841.5427246094</ele>
        <time>2012-08-10T11:06:35Z</time>
      </trkpt>
      <trkpt lat="45.40749" lon="6.18545">
        <ele>1842.0234375</ele>
        <time>2012-08-10T11:06:46Z</time>
      </trkpt>
      <trkpt lat="45.40749" lon="6.18547">
        <ele>1842.5041503906</ele>
        <time>2012-08-10T11:06:56Z</time>
      </trkpt>
      <trkpt lat="45.40748" lon="6.18546">
        <ele>1842.9846191406</ele>
        <time>2012-08-10T11:07:04Z</time>
      </trkpt>
      <trkpt lat="45.40748" lon="6.18545">
        <ele>1843.4653320312</ele>
        <time>2012-08-10T11:07:34Z</time>
      </trkpt>
      <trkpt lat="45.40748" lon="6.18544">
        <ele>1843.9460449219</ele>
        <time>2012-08-10T11:07:45Z</time>
      </trkpt>
      <trkpt lat="45.40748" lon="6.18545">
        <ele>1843.9460449219</ele>
        <time>2012-08-10T11:08:10Z</time>
      </trkpt>
      <trkpt lat="45.40748" lon="6.18545">
        <ele>1844.9072265625</ele>
        <time>2012-08-10T11:08:25Z</time>
      </trkpt>
      <trkpt lat="45.40748" lon="6.18544">
        <ele>1845.8686523438</ele>
        <time>2012-08-10T11:08:51Z</time>
      </trkpt>
      <trkpt lat="45.40749" lon="6.18545">
        <ele>1845.8686523438</ele>
        <time>2012-08-10T11:09:08Z</time>
      </trkpt>
      <trkpt lat="45.40749" lon="6.18544">
        <ele>1844.4265136719</ele>
        <time>2012-08-10T11:09:43Z</time>
      </trkpt>
      <trkpt lat="45.40752" lon="6.18536">
        <ele>1844.4265136719</ele>
        <time>2012-08-10T11:09:51Z</time>
      </trkpt>
      <trkpt lat="45.40756" lon="6.18531">
        <ele>1844.4265136719</ele>
        <time>2012-08-10T11:10:00Z</time>
      </trkpt>
      <trkpt lat="45.40757" lon="6.18531">
        <ele>1843.9460449219</ele>
        <time>2012-08-10T11:10:09Z</time>
      </trkpt>
      <trkpt lat="45.40759" lon="6.18534">
        <ele>1843.4653320312</ele>
        <time>2012-08-10T11:10:15Z</time>
      </trkpt>
      <trkpt lat="45.40761" lon="6.18535">
        <ele>1843.4653320312</ele>
        <time>2012-08-10T11:10:19Z</time>
      </trkpt>
      <trkpt lat="45.40764" lon="6.18534">
        <ele>1842.9846191406</ele>
        <time>2012-08-10T11:10:26Z</time>
      </trkpt>
      <trkpt lat="45.40767" lon="6.18536">
        <ele>1844.4265136719</ele>
        <time>2012-08-10T11:10:32Z</time>
      </trkpt>
      <trkpt lat="45.40767" lon="6.18539">
        <ele>1844.9072265625</ele>
        <time>2012-08-10T11:10:37Z</time>
      </trkpt>
      <trkpt lat="45.40768" lon="6.18542">
        <ele>1845.8686523438</ele>
        <time>2012-08-10T11:10:43Z</time>
      </trkpt>
      <trkpt lat="45.4077" lon="6.18541">
        <ele>1846.3493652344</ele>
        <time>2012-08-10T11:10:50Z</time>
      </trkpt>
      <trkpt lat="45.40773" lon="6.18541">
        <ele>1846.8298339844</ele>
        <time>2012-08-10T11:10:57Z</time>
      </trkpt>
      <trkpt lat="45.40775" lon="6.18542">
        <ele>1847.7912597656</ele>
        <time>2012-08-10T11:11:03Z</time>
      </trkpt>
      <trkpt lat="45.40778" lon="6.18546">
        <ele>1849.2331542969</ele>
        <time>2012-08-10T11:11:10Z</time>
      </trkpt>
      <trkpt lat="45.40779" lon="6.18552">
        <ele>1852.1171875</ele>
        <time>2012-08-10T11:11:17Z</time>
      </trkpt>
      <trkpt lat="45.40778" lon="6.18558">
        <ele>1855.4819335938</ele>
        <time>2012-08-10T11:11:22Z</time>
      </trkpt>
      <trkpt lat="45.40778" lon="6.18565">
        <ele>1856.4431152344</ele>
        <time>2012-08-10T11:11:30Z</time>
      </trkpt>
      <trkpt lat="45.40779" lon="6.18572">
        <ele>1855.0012207031</ele>
        <time>2012-08-10T11:11:38Z</time>
      </trkpt>
      <trkpt lat="45.4078" lon="6.18581">
        <ele>1855.9624023438</ele>
        <time>2012-08-10T11:11:46Z</time>
      </trkpt>
      <trkpt lat="45.40782" lon="6.18585">
        <ele>1857.4045410156</ele>
        <time>2012-08-10T11:11:52Z</time>
      </trkpt>
      <trkpt lat="45.40783" lon="6.18591">
        <ele>1859.8076171875</ele>
        <time>2012-08-10T11:11:58Z</time>
      </trkpt>
      <trkpt lat="45.40785" lon="6.18597">
        <ele>1860.7690429688</ele>
        <time>2012-08-10T11:12:06Z</time>
      </trkpt>
      <trkpt lat="45.40785" lon="6.18604">
        <ele>1862.6916503906</ele>
        <time>2012-08-10T11:12:13Z</time>
      </trkpt>
      <trkpt lat="45.40787" lon="6.18609">
        <ele>1863.1723632812</ele>
        <time>2012-08-10T11:12:19Z</time>
      </trkpt>
      <trkpt lat="45.40789" lon="6.18608">
        <ele>1863.6528320312</ele>
        <time>2012-08-10T11:12:24Z</time>
      </trkpt>
      <trkpt lat="45.40791" lon="6.18605">
        <ele>1865.5756835938</ele>
        <time>2012-08-10T11:12:29Z</time>
      </trkpt>
      <trkpt lat="45.40797" lon="6.18605">
        <ele>1867.498046875</ele>
        <time>2012-08-10T11:12:38Z</time>
      </trkpt>
      <trkpt lat="45.40801" lon="6.18605">
        <ele>1868.4597167969</ele>
        <time>2012-08-10T11:12:46Z</time>
      </trkpt>
      <trkpt lat="45.40804" lon="6.18605">
        <ele>1868.4597167969</ele>
        <time>2012-08-10T11:12:52Z</time>
      </trkpt>
      <trkpt lat="45.40808" lon="6.18604">
        <ele>1868.9404296875</ele>
        <time>2012-08-10T11:12:58Z</time>
      </trkpt>
      <trkpt lat="45.40807" lon="6.18609">
        <ele>1870.3823242188</ele>
        <time>2012-08-10T11:13:03Z</time>
      </trkpt>
      <trkpt lat="45.4081" lon="6.18605">
        <ele>1870.8630371094</ele>
        <time>2012-08-10T11:13:11Z</time>
      </trkpt>
      <trkpt lat="45.40812" lon="6.18596">
        <ele>1871.3435058594</ele>
        <time>2012-08-10T11:13:17Z</time>
      </trkpt>
      <trkpt lat="45.40812" lon="6.1859">
        <ele>1871.82421875</ele>
        <time>2012-08-10T11:13:24Z</time>
      </trkpt>
      <trkpt lat="45.40816" lon="6.18585">
        <ele>1874.2275390625</ele>
        <time>2012-08-10T11:13:31Z</time>
      </trkpt>
      <trkpt lat="45.4082" lon="6.18585">
        <ele>1876.1501464844</ele>
        <time>2012-08-10T11:13:37Z</time>
      </trkpt>
      <trkpt lat="45.40824" lon="6.18586">
        <ele>1878.0727539062</ele>
        <time>2012-08-10T11:13:44Z</time>
      </trkpt>
      <trkpt lat="45.40826" lon="6.18591">
        <ele>1880.9567871094</ele>
        <time>2012-08-10T11:13:51Z</time>
      </trkpt>
      <trkpt lat="45.40824" lon="6.18599">
        <ele>1882.3986816406</ele>
        <time>2012-08-10T11:13:58Z</time>
      </trkpt>
      <trkpt lat="45.40823" lon="6.18604">
        <ele>1884.3215332031</ele>
        <time>2012-08-10T11:14:06Z</time>
      </trkpt>
      <trkpt lat="45.40824" lon="6.18607">
        <ele>1885.7634277344</ele>
        <time>2012-08-10T11:14:11Z</time>
      </trkpt>
      <trkpt lat="45.40823" lon="6.1861">
        <ele>1887.2053222656</ele>
        <time>2012-08-10T11:14:16Z</time>
      </trkpt>
      <trkpt lat="45.40823" lon="6.18614">
        <ele>1888.6474609375</ele>
        <time>2012-08-10T11:14:22Z</time>
      </trkpt>
      <trkpt lat="45.40823" lon="6.18617">
        <ele>1889.1279296875</ele>
        <time>2012-08-10T11:14:27Z</time>
      </trkpt>
      <trkpt lat="45.40821" lon="6.18623">
        <ele>1889.6086425781</ele>
        <time>2012-08-10T11:14:34Z</time>
      </trkpt>
      <trkpt lat="45.4082" lon="6.18631">
        <ele>1890.5698242188</ele>
        <time>2012-08-10T11:14:42Z</time>
      </trkpt>
      <trkpt lat="45.40821" lon="6.18633">
        <ele>1892.0119628906</ele>
        <time>2012-08-10T11:14:48Z</time>
      </trkpt>
      <trkpt lat="45.40823" lon="6.18634">
        <ele>1892.9731445312</ele>
        <time>2012-08-10T11:14:53Z</time>
      </trkpt>
      <trkpt lat="45.40827" lon="6.18633">
        <ele>1894.4150390625</ele>
        <time>2012-08-10T11:15:00Z</time>
      </trkpt>
      <trkpt lat="45.40829" lon="6.18636">
        <ele>1895.8571777344</ele>
        <time>2012-08-10T11:15:06Z</time>
      </trkpt>
      <trkpt lat="45.40831" lon="6.18638">
        <ele>1897.2990722656</ele>
        <time>2012-08-10T11:15:12Z</time>
      </trkpt>
      <trkpt lat="45.40834" lon="6.18637">
        <ele>1897.7797851562</ele>
        <time>2012-08-10T11:15:18Z</time>
      </trkpt>
      <trkpt lat="45.40836" lon="6.18641">
        <ele>1899.7023925781</ele>
        <time>2012-08-10T11:15:25Z</time>
      </trkpt>
      <trkpt lat="45.40839" lon="6.18639">
        <ele>1900.1833496094</ele>
        <time>2012-08-10T11:15:30Z</time>
      </trkpt>
      <trkpt lat="45.40846" lon="6.18637">
        <ele>1900.6638183594</ele>
        <time>2012-08-10T11:15:38Z</time>
      </trkpt>
      <trkpt lat="45.40849" lon="6.18638">
        <ele>1901.6252441406</ele>
        <time>2012-08-10T11:15:43Z</time>
      </trkpt>
      <trkpt lat="45.40849" lon="6.18643">
        <ele>1903.5478515625</ele>
        <time>2012-08-10T11:15:48Z</time>
      </trkpt>
      <trkpt lat="45.4085" lon="6.18649">
        <ele>1904.9897460938</ele>
        <time>2012-08-10T11:15:54Z</time>
      </trkpt>
      <trkpt lat="45.40852" lon="6.18654">
        <ele>1906.9123535156</ele>
        <time>2012-08-10T11:16:02Z</time>
      </trkpt>
      <trkpt lat="45.40855" lon="6.18658">
        <ele>1908.8349609375</ele>
        <time>2012-08-10T11:16:09Z</time>
      </trkpt>
      <trkpt lat="45.40858" lon="6.18659">
        <ele>1909.7961425781</ele>
        <time>2012-08-10T11:16:15Z</time>
      </trkpt>
      <trkpt lat="45.40861" lon="6.18661">
        <ele>1911.7189941406</ele>
        <time>2012-08-10T11:16:21Z</time>
      </trkpt>
      <trkpt lat="45.40859" lon="6.18668">
        <ele>1912.6801757812</ele>
        <time>2012-08-10T11:16:27Z</time>
      </trkpt>
      <trkpt lat="45.40858" lon="6.18672">
        <ele>1912.6801757812</ele>
        <time>2012-08-10T11:16:32Z</time>
      </trkpt>
      <trkpt lat="45.4086" lon="6.18674">
        <ele>1913.6413574219</ele>
        <time>2012-08-10T11:16:38Z</time>
      </trkpt>
      <trkpt lat="45.40865" lon="6.18674">
        <ele>1914.6027832031</ele>
        <time>2012-08-10T11:16:44Z</time>
      </trkpt>
      <trkpt lat="45.40865" lon="6.18679">
        <ele>1917.0063476562</ele>
        <time>2012-08-10T11:16:50Z</time>
      </trkpt>
      <trkpt lat="45.40866" lon="6.18683">
        <ele>1917.9675292969</ele>
        <time>2012-08-10T11:16:55Z</time>
      </trkpt>
      <trkpt lat="45.40867" lon="6.18686">
        <ele>1920.8515625</ele>
        <time>2012-08-10T11:17:01Z</time>
      </trkpt>
      <trkpt lat="45.40868" lon="6.18693">
        <ele>1922.2934570312</ele>
        <time>2012-08-10T11:17:08Z</time>
      </trkpt>
      <trkpt lat="45.40871" lon="6.18695">
        <ele>1923.2548828125</ele>
        <time>2012-08-10T11:17:14Z</time>
      </trkpt>
      <trkpt lat="45.40872" lon="6.18691">
        <ele>1924.2160644531</ele>
        <time>2012-08-10T11:17:19Z</time>
      </trkpt>
      <trkpt lat="45.40875" lon="6.18691">
        <ele>1925.1772460938</ele>
        <time>2012-08-10T11:17:25Z</time>
      </trkpt>
      <trkpt lat="45.40875" lon="6.18698">
        <ele>1926.6193847656</ele>
        <time>2012-08-10T11:17:34Z</time>
      </trkpt>
      <trkpt lat="45.40878" lon="6.18701">
        <ele>1927.5805664062</ele>
        <time>2012-08-10T11:17:40Z</time>
      </trkpt>
      <trkpt lat="45.4088" lon="6.18701">
        <ele>1928.5419921875</ele>
        <time>2012-08-10T11:17:46Z</time>
      </trkpt>
      <trkpt lat="45.40881" lon="6.18705">
        <ele>1929.9838867188</ele>
        <time>2012-08-10T11:17:52Z</time>
      </trkpt>
      <trkpt lat="45.40884" lon="6.18707">
        <ele>1930.4645996094</ele>
        <time>2012-08-10T11:17:58Z</time>
      </trkpt>
      <trkpt lat="45.40889" lon="6.18711">
        <ele>1930.9453125</ele>
        <time>2012-08-10T11:18:04Z</time>
      </trkpt>
      <trkpt lat="45.40891" lon="6.18716">
        <ele>1932.8679199219</ele>
        <time>2012-08-10T11:18:12Z</time>
      </trkpt>
      <trkpt lat="45.40894" lon="6.18721">
        <ele>1934.7907714844</ele>
        <time>2012-08-10T11:18:19Z</time>
      </trkpt>
      <trkpt lat="45.40896" lon="6.18726">
        <ele>1936.2326660156</ele>
        <time>2012-08-10T11:18:25Z</time>
      </trkpt>
      <trkpt lat="45.40897" lon="6.18733">
        <ele>1937.6745605469</ele>
        <time>2012-08-10T11:18:32Z</time>
      </trkpt>
      <trkpt lat="45.409" lon="6.18739">
        <ele>1940.0778808594</ele>
        <time>2012-08-10T11:18:41Z</time>
      </trkpt>
      <trkpt lat="45.40902" lon="6.18733">
        <ele>1940.0778808594</ele>
        <time>2012-08-10T11:18:47Z</time>
      </trkpt>
      <trkpt lat="45.40905" lon="6.18731">
        <ele>1941.0390625</ele>
        <time>2012-08-10T11:18:53Z</time>
      </trkpt>
      <trkpt lat="45.40904" lon="6.18737">
        <ele>1942.0004882812</ele>
        <time>2012-08-10T11:18:59Z</time>
      </trkpt>
      <trkpt lat="45.40904" lon="6.18745">
        <ele>1943.4423828125</ele>
        <time>2012-08-10T11:19:07Z</time>
      </trkpt>
      <trkpt lat="45.40905" lon="6.1875">
        <ele>1945.3649902344</ele>
        <time>2012-08-10T11:19:14Z</time>
      </trkpt>
      <trkpt lat="45.40906" lon="6.18755">
        <ele>1946.3264160156</ele>
        <time>2012-08-10T11:19:22Z</time>
      </trkpt>
      <trkpt lat="45.40907" lon="6.18762">
        <ele>1949.2104492188</ele>
        <time>2012-08-10T11:19:31Z</time>
      </trkpt>
      <trkpt lat="45.40908" lon="6.18766">
        <ele>1950.171875</ele>
        <time>2012-08-10T11:19:38Z</time>
      </trkpt>
      <trkpt lat="45.40908" lon="6.1877">
        <ele>1950.65234375</ele>
        <time>2012-08-10T11:19:44Z</time>
      </trkpt>
      <trkpt lat="45.40907" lon="6.18776">
        <ele>1952.0942382812</ele>
        <time>2012-08-10T11:19:53Z</time>
      </trkpt>
      <trkpt lat="45.40907" lon="6.18779">
        <ele>1953.5363769531</ele>
        <time>2012-08-10T11:20:00Z</time>
      </trkpt>
      <trkpt lat="45.40909" lon="6.18782">
        <ele>1955.458984375</ele>
        <time>2012-08-10T11:20:06Z</time>
      </trkpt>
      <trkpt lat="45.4091" lon="6.18785">
        <ele>1956.4201660156</ele>
        <time>2012-08-10T11:20:11Z</time>
      </trkpt>
      <trkpt lat="45.40911" lon="6.18789">
        <ele>1957.8623046875</ele>
        <time>2012-08-10T11:20:18Z</time>
      </trkpt>
      <trkpt lat="45.40912" lon="6.18794">
        <ele>1958.8234863281</ele>
        <time>2012-08-10T11:20:25Z</time>
      </trkpt>
      <trkpt lat="45.40914" lon="6.18799">
        <ele>1961.2268066406</ele>
        <time>2012-08-10T11:20:34Z</time>
      </trkpt>
      <trkpt lat="45.40912" lon="6.18803">
        <ele>1962.1879882812</ele>
        <time>2012-08-10T11:20:40Z</time>
      </trkpt>
      <trkpt lat="45.40915" lon="6.18808">
        <ele>1963.6298828125</ele>
        <time>2012-08-10T11:20:49Z</time>
      </trkpt>
      <trkpt lat="45.40916" lon="6.18812">
        <ele>1965.072265625</ele>
        <time>2012-08-10T11:20:57Z</time>
      </trkpt>
      <trkpt lat="45.40915" lon="6.18815">
        <ele>1966.5141601562</ele>
        <time>2012-08-10T11:21:02Z</time>
      </trkpt>
      <trkpt lat="45.40916" lon="6.18822">
        <ele>1967.9560546875</ele>
        <time>2012-08-10T11:21:09Z</time>
      </trkpt>
      <trkpt lat="45.40917" lon="6.1883">
        <ele>1970.359375</ele>
        <time>2012-08-10T11:21:16Z</time>
      </trkpt>
      <trkpt lat="45.4092" lon="6.18835">
        <ele>1970.8400878906</ele>
        <time>2012-08-10T11:21:22Z</time>
      </trkpt>
      <trkpt lat="45.40925" lon="6.18833">
        <ele>1971.8012695312</ele>
        <time>2012-08-10T11:21:28Z</time>
      </trkpt>
      <trkpt lat="45.40932" lon="6.18829">
        <ele>1972.2819824219</ele>
        <time>2012-08-10T11:21:36Z</time>
      </trkpt>
      <trkpt lat="45.40939" lon="6.18823">
        <ele>1973.7238769531</ele>
        <time>2012-08-10T11:21:44Z</time>
      </trkpt>
      <trkpt lat="45.40947" lon="6.18818">
        <ele>1975.1657714844</ele>
        <time>2012-08-10T11:21:51Z</time>
      </trkpt>
      <trkpt lat="45.40956" lon="6.18813">
        <ele>1974.2045898438</ele>
        <time>2012-08-10T11:21:59Z</time>
      </trkpt>
      <trkpt lat="45.40965" lon="6.18807">
        <ele>1974.6853027344</ele>
        <time>2012-08-10T11:22:07Z</time>
      </trkpt>
      <trkpt lat="45.40968" lon="6.18807">
        <ele>1975.1657714844</ele>
        <time>2012-08-10T11:22:09Z</time>
      </trkpt>
      <trkpt lat="45.40973" lon="6.18804">
        <ele>1976.6079101562</ele>
        <time>2012-08-10T11:22:16Z</time>
      </trkpt>
      <trkpt lat="45.40979" lon="6.18804">
        <ele>1978.5305175781</ele>
        <time>2012-08-10T11:22:22Z</time>
      </trkpt>
      <trkpt lat="45.40986" lon="6.18806">
        <ele>1979.4916992188</ele>
        <time>2012-08-10T11:22:28Z</time>
      </trkpt>
      <trkpt lat="45.40993" lon="6.18805">
        <ele>1980.4533691406</ele>
        <time>2012-08-10T11:22:36Z</time>
      </trkpt>
      <trkpt lat="45.40997" lon="6.18805">
        <ele>1981.8952636719</ele>
        <time>2012-08-10T11:22:39Z</time>
      </trkpt>
      <trkpt lat="45.41007" lon="6.18799">
        <ele>1983.3371582031</ele>
        <time>2012-08-10T11:22:48Z</time>
      </trkpt>
      <trkpt lat="45.41015" lon="6.18798">
        <ele>1984.779296875</ele>
        <time>2012-08-10T11:22:56Z</time>
      </trkpt>
      <trkpt lat="45.41016" lon="6.18797">
        <ele>1984.2985839844</ele>
        <time>2012-08-10T11:22:57Z</time>
      </trkpt>
      <trkpt lat="45.41022" lon="6.188">
        <ele>1986.2211914062</ele>
        <time>2012-08-10T11:23:05Z</time>
      </trkpt>
      <trkpt lat="45.41028" lon="6.18804">
        <ele>1987.1823730469</ele>
        <time>2012-08-10T11:23:12Z</time>
      </trkpt>
      <trkpt lat="45.41031" lon="6.18805">
        <ele>1988.1437988281</ele>
        <time>2012-08-10T11:23:15Z</time>
      </trkpt>
      <trkpt lat="45.41037" lon="6.18804">
        <ele>1989.1049804688</ele>
        <time>2012-08-10T11:23:21Z</time>
      </trkpt>
      <trkpt lat="45.41041" lon="6.18804">
        <ele>1989.5856933594</ele>
        <time>2012-08-10T11:23:26Z</time>
      </trkpt>
      <trkpt lat="45.41046" lon="6.188">
        <ele>1989.5856933594</ele>
        <time>2012-08-10T11:23:31Z</time>
      </trkpt>
      <trkpt lat="45.41051" lon="6.18798">
        <ele>1990.546875</ele>
        <time>2012-08-10T11:23:37Z</time>
      </trkpt>
      <trkpt lat="45.41053" lon="6.18796">
        <ele>1990.06640625</ele>
        <time>2012-08-10T11:23:39Z</time>
      </trkpt>
      <trkpt lat="45.41058" lon="6.18792">
        <ele>1989.1049804688</ele>
        <time>2012-08-10T11:23:43Z</time>
      </trkpt>
      <trkpt lat="45.41066" lon="6.18791">
        <ele>1989.5856933594</ele>
        <time>2012-08-10T11:23:50Z</time>
      </trkpt>
      <trkpt lat="45.41074" lon="6.18793">
        <ele>1990.06640625</ele>
        <time>2012-08-10T11:23:57Z</time>
      </trkpt>
      <trkpt lat="45.41075" lon="6.18793">
        <ele>1990.06640625</ele>
        <time>2012-08-10T11:23:58Z</time>
      </trkpt>
      <trkpt lat="45.4108" lon="6.18798">
        <ele>1989.5856933594</ele>
        <time>2012-08-10T11:24:04Z</time>
      </trkpt>
      <trkpt lat="45.41084" lon="6.18803">
        <ele>1989.1049804688</ele>
        <time>2012-08-10T11:24:11Z</time>
      </trkpt>
      <trkpt lat="45.41088" lon="6.18807">
        <ele>1988.6245117188</ele>
        <time>2012-08-10T11:24:18Z</time>
      </trkpt>
      <trkpt lat="45.41093" lon="6.18816">
        <ele>1988.1437988281</ele>
        <time>2012-08-10T11:24:25Z</time>
      </trkpt>
      <trkpt lat="45.41096" lon="6.1882">
        <ele>1988.6245117188</ele>
        <time>2012-08-10T11:24:28Z</time>
      </trkpt>
      <trkpt lat="45.41099" lon="6.18825">
        <ele>1988.1437988281</ele>
        <time>2012-08-10T11:24:32Z</time>
      </trkpt>
      <trkpt lat="45.41102" lon="6.18832">
        <ele>1986.7016601562</ele>
        <time>2012-08-10T11:24:37Z</time>
      </trkpt>
      <trkpt lat="45.41106" lon="6.1884">
        <ele>1985.259765625</ele>
        <time>2012-08-10T11:24:43Z</time>
      </trkpt>
      <trkpt lat="45.41107" lon="6.18842">
        <ele>1984.2985839844</ele>
        <time>2012-08-10T11:24:51Z</time>
      </trkpt>
      <trkpt lat="45.41108" lon="6.18851">
        <ele>1982.3759765625</ele>
        <time>2012-08-10T11:24:57Z</time>
      </trkpt>
      <trkpt lat="45.4111" lon="6.18857">
        <ele>1979.9724121094</ele>
        <time>2012-08-10T11:25:02Z</time>
      </trkpt>
      <trkpt lat="45.41112" lon="6.18863">
        <ele>1977.5690917969</ele>
        <time>2012-08-10T11:25:07Z</time>
      </trkpt>
      <trkpt lat="45.41117" lon="6.1887">
        <ele>1974.6853027344</ele>
        <time>2012-08-10T11:25:14Z</time>
      </trkpt>
      <trkpt lat="45.4112" lon="6.18877">
        <ele>1971.8012695312</ele>
        <time>2012-08-10T11:25:20Z</time>
      </trkpt>
      <trkpt lat="45.41121" lon="6.18878">
        <ele>1970.359375</ele>
        <time>2012-08-10T11:25:22Z</time>
      </trkpt>
      <trkpt lat="45.41124" lon="6.18885">
        <ele>1967.4753417969</ele>
        <time>2012-08-10T11:25:27Z</time>
      </trkpt>
      <trkpt lat="45.41126" lon="6.18888">
        <ele>1965.5529785156</ele>
        <time>2012-08-10T11:25:29Z</time>
      </trkpt>
      <trkpt lat="45.41132" lon="6.18898">
        <ele>1963.1494140625</ele>
        <time>2012-08-10T11:25:35Z</time>
      </trkpt>
      <trkpt lat="45.41137" lon="6.18904">
        <ele>1961.7075195312</ele>
        <time>2012-08-10T11:25:39Z</time>
      </trkpt>
      <trkpt lat="45.41138" lon="6.18906">
        <ele>1961.7075195312</ele>
        <time>2012-08-10T11:25:40Z</time>
      </trkpt>
      <trkpt lat="45.41143" lon="6.18914">
        <ele>1960.2653808594</ele>
        <time>2012-08-10T11:25:44Z</time>
      </trkpt>
      <trkpt lat="45.4115" lon="6.18923">
        <ele>1958.3427734375</ele>
        <time>2012-08-10T11:25:51Z</time>
      </trkpt>
      <trkpt lat="45.41156" lon="6.1893">
        <ele>1955.939453125</ele>
        <time>2012-08-10T11:25:57Z</time>
      </trkpt>
      <trkpt lat="45.41159" lon="6.18933">
        <ele>1955.458984375</ele>
        <time>2012-08-10T11:26:00Z</time>
      </trkpt>
      <trkpt lat="45.41165" lon="6.18933">
        <ele>1952.5749511719</ele>
        <time>2012-08-10T11:26:07Z</time>
      </trkpt>
      <trkpt lat="45.41171" lon="6.18933">
        <ele>1951.6137695312</ele>
        <time>2012-08-10T11:26:12Z</time>
      </trkpt>
      <trkpt lat="45.41171" lon="6.18934">
        <ele>1951.1330566406</ele>
        <time>2012-08-10T11:26:13Z</time>
      </trkpt>
      <trkpt lat="45.4118" lon="6.18942">
        <ele>1947.7683105469</ele>
        <time>2012-08-10T11:26:22Z</time>
      </trkpt>
      <trkpt lat="45.41186" lon="6.18951">
        <ele>1944.8842773438</ele>
        <time>2012-08-10T11:26:30Z</time>
      </trkpt>
      <trkpt lat="45.41191" lon="6.18959">
        <ele>1941.5197753906</ele>
        <time>2012-08-10T11:26:37Z</time>
      </trkpt>
      <trkpt lat="45.41197" lon="6.18964">
        <ele>1939.1164550781</ele>
        <time>2012-08-10T11:26:44Z</time>
      </trkpt>
      <trkpt lat="45.412" lon="6.18968">
        <ele>1938.1552734375</ele>
        <time>2012-08-10T11:26:50Z</time>
      </trkpt>
      <trkpt lat="45.41205" lon="6.18973">
        <ele>1937.1938476562</ele>
        <time>2012-08-10T11:26:56Z</time>
      </trkpt>
      <trkpt lat="45.41208" lon="6.18977">
        <ele>1936.2326660156</ele>
        <time>2012-08-10T11:27:00Z</time>
      </trkpt>
      <trkpt lat="45.41213" lon="6.18984">
        <ele>1934.7907714844</ele>
        <time>2012-08-10T11:27:06Z</time>
      </trkpt>
      <trkpt lat="45.41218" lon="6.18991">
        <ele>1933.8293457031</ele>
        <time>2012-08-10T11:27:12Z</time>
      </trkpt>
      <trkpt lat="45.41218" lon="6.18999">
        <ele>1933.3486328125</ele>
        <time>2012-08-10T11:27:18Z</time>
      </trkpt>
      <trkpt lat="45.41217" lon="6.19001">
        <ele>1933.8293457031</ele>
        <time>2012-08-10T11:27:23Z</time>
      </trkpt>
      <trkpt lat="45.41214" lon="6.19">
        <ele>1936.2326660156</ele>
        <time>2012-08-10T11:27:37Z</time>
      </trkpt>
      <trkpt lat="45.41211" lon="6.18994">
        <ele>1935.2712402344</ele>
        <time>2012-08-10T11:27:44Z</time>
      </trkpt>
      <trkpt lat="45.41209" lon="6.18989">
        <ele>1934.7907714844</ele>
        <time>2012-08-10T11:27:48Z</time>
      </trkpt>
      <trkpt lat="45.41205" lon="6.18983">
        <ele>1935.751953125</ele>
        <time>2012-08-10T11:27:55Z</time>
      </trkpt>
      <trkpt lat="45.41205" lon="6.18982">
        <ele>1935.2712402344</ele>
        <time>2012-08-10T11:28:02Z</time>
      </trkpt>
      <trkpt lat="45.41205" lon="6.18983">
        <ele>1939.1164550781</ele>
        <time>2012-08-10T11:28:22Z</time>
      </trkpt>
      <trkpt lat="45.412" lon="6.18979">
        <ele>1939.5971679688</ele>
        <time>2012-08-10T11:28:29Z</time>
      </trkpt>
      <trkpt lat="45.41195" lon="6.18976">
        <ele>1942.4812011719</ele>
        <time>2012-08-10T11:28:37Z</time>
      </trkpt>
      <trkpt lat="45.4119" lon="6.18978">
        <ele>1942.4812011719</ele>
        <time>2012-08-10T11:28:43Z</time>
      </trkpt>
      <trkpt lat="45.41187" lon="6.18977">
        <ele>1942.0004882812</ele>
        <time>2012-08-10T11:28:47Z</time>
      </trkpt>
      <trkpt lat="45.41183" lon="6.18979">
        <ele>1941.0390625</ele>
        <time>2012-08-10T11:28:52Z</time>
      </trkpt>
      <trkpt lat="45.41181" lon="6.18984">
        <ele>1939.1164550781</ele>
        <time>2012-08-10T11:28:58Z</time>
      </trkpt>
      <trkpt lat="45.41177" lon="6.1899">
        <ele>1935.751953125</ele>
        <time>2012-08-10T11:29:05Z</time>
      </trkpt>
      <trkpt lat="45.41173" lon="6.18991">
        <ele>1934.7907714844</ele>
        <time>2012-08-10T11:29:08Z</time>
      </trkpt>
      <trkpt lat="45.41166" lon="6.18994">
        <ele>1933.8293457031</ele>
        <time>2012-08-10T11:29:15Z</time>
      </trkpt>
      <trkpt lat="45.41161" lon="6.18997">
        <ele>1932.3874511719</ele>
        <time>2012-08-10T11:29:21Z</time>
      </trkpt>
      <trkpt lat="45.41166" lon="6.19003">
        <ele>1930.4645996094</ele>
        <time>2012-08-10T11:29:25Z</time>
      </trkpt>
      <trkpt lat="45.41169" lon="6.19008">
        <ele>1929.9838867188</ele>
        <time>2012-08-10T11:29:29Z</time>
      </trkpt>
      <trkpt lat="45.4117" lon="6.19015">
        <ele>1926.6193847656</ele>
        <time>2012-08-10T11:29:34Z</time>
      </trkpt>
      <trkpt lat="45.41172" lon="6.19022">
        <ele>1924.6967773438</ele>
        <time>2012-08-10T11:29:37Z</time>
      </trkpt>
      <trkpt lat="45.41175" lon="6.19029">
        <ele>1922.7741699219</ele>
        <time>2012-08-10T11:29:43Z</time>
      </trkpt>
      <trkpt lat="45.41174" lon="6.19038">
        <ele>1921.33203125</ele>
        <time>2012-08-10T11:29:47Z</time>
      </trkpt>
      <trkpt lat="45.41171" lon="6.19046">
        <ele>1919.8901367188</ele>
        <time>2012-08-10T11:29:52Z</time>
      </trkpt>
      <trkpt lat="45.4117" lon="6.19051">
        <ele>1920.8515625</ele>
        <time>2012-08-10T11:29:56Z</time>
      </trkpt>
      <trkpt lat="45.41172" lon="6.19062">
        <ele>1920.8515625</ele>
        <time>2012-08-10T11:30:03Z</time>
      </trkpt>
      <trkpt lat="45.41175" lon="6.19074">
        <ele>1921.33203125</ele>
        <time>2012-08-10T11:30:09Z</time>
      </trkpt>
      <trkpt lat="45.41177" lon="6.19081">
        <ele>1921.33203125</ele>
        <time>2012-08-10T11:30:13Z</time>
      </trkpt>
      <trkpt lat="45.41178" lon="6.19089">
        <ele>1921.33203125</ele>
        <time>2012-08-10T11:30:18Z</time>
      </trkpt>
      <trkpt lat="45.41181" lon="6.19098">
        <ele>1920.3708496094</ele>
        <time>2012-08-10T11:30:23Z</time>
      </trkpt>
      <trkpt lat="45.41183" lon="6.19102">
        <ele>1919.8901367188</ele>
        <time>2012-08-10T11:30:28Z</time>
      </trkpt>
      <trkpt lat="45.41187" lon="6.19106">
        <ele>1917.4868164062</ele>
        <time>2012-08-10T11:30:34Z</time>
      </trkpt>
      <trkpt lat="45.4119" lon="6.19111">
        <ele>1915.0834960938</ele>
        <time>2012-08-10T11:30:38Z</time>
      </trkpt>
      <trkpt lat="45.41192" lon="6.19118">
        <ele>1913.6413574219</ele>
        <time>2012-08-10T11:30:43Z</time>
      </trkpt>
      <trkpt lat="45.41198" lon="6.19119">
        <ele>1912.6801757812</ele>
        <time>2012-08-10T11:30:48Z</time>
      </trkpt>
      <trkpt lat="45.41201" lon="6.19123">
        <ele>1911.23828125</ele>
        <time>2012-08-10T11:30:52Z</time>
      </trkpt>
      <trkpt lat="45.41203" lon="6.19125">
        <ele>1910.7575683594</ele>
        <time>2012-08-10T11:30:54Z</time>
      </trkpt>
      <trkpt lat="45.41205" lon="6.19133">
        <ele>1911.23828125</ele>
        <time>2012-08-10T11:30:58Z</time>
      </trkpt>
      <trkpt lat="45.41208" lon="6.19138">
        <ele>1911.23828125</ele>
        <time>2012-08-10T11:31:04Z</time>
      </trkpt>
      <trkpt lat="45.41213" lon="6.19143">
        <ele>1911.23828125</ele>
        <time>2012-08-10T11:31:09Z</time>
      </trkpt>
      <trkpt lat="45.41218" lon="6.19152">
        <ele>1911.23828125</ele>
        <time>2012-08-10T11:31:15Z</time>
      </trkpt>
      <trkpt lat="45.41222" lon="6.19158">
        <ele>1909.7961425781</ele>
        <time>2012-08-10T11:31:19Z</time>
      </trkpt>
      <trkpt lat="45.41225" lon="6.19168">
        <ele>1909.3156738281</ele>
        <time>2012-08-10T11:31:25Z</time>
      </trkpt>
      <trkpt lat="45.4123" lon="6.19174">
        <ele>1908.8349609375</ele>
        <time>2012-08-10T11:31:30Z</time>
      </trkpt>
      <trkpt lat="45.41238" lon="6.19182">
        <ele>1907.8737792969</ele>
        <time>2012-08-10T11:31:37Z</time>
      </trkpt>
      <trkpt lat="45.41244" lon="6.19189">
        <ele>1906.431640625</ele>
        <time>2012-08-10T11:31:43Z</time>
      </trkpt>
      <trkpt lat="45.41249" lon="6.19193">
        <ele>1905.4704589844</ele>
        <time>2012-08-10T11:31:48Z</time>
      </trkpt>
      <trkpt lat="45.41254" lon="6.19198">
        <ele>1904.0285644531</ele>
        <time>2012-08-10T11:31:54Z</time>
      </trkpt>
      <trkpt lat="45.4126" lon="6.19201">
        <ele>1902.1057128906</ele>
        <time>2012-08-10T11:32:01Z</time>
      </trkpt>
      <trkpt lat="45.41262" lon="6.19202">
        <ele>1901.6252441406</ele>
        <time>2012-08-10T11:32:03Z</time>
      </trkpt>
      <trkpt lat="45.4127" lon="6.19208">
        <ele>1899.7023925781</ele>
        <time>2012-08-10T11:32:10Z</time>
      </trkpt>
      <trkpt lat="45.41275" lon="6.1921">
        <ele>1897.7797851562</ele>
        <time>2012-08-10T11:32:15Z</time>
      </trkpt>
      <trkpt lat="45.41279" lon="6.19216">
        <ele>1897.2990722656</ele>
        <time>2012-08-10T11:32:19Z</time>
      </trkpt>
      <trkpt lat="45.4128" lon="6.19218">
        <ele>1896.818359375</ele>
        <time>2012-08-10T11:32:21Z</time>
      </trkpt>
      <trkpt lat="45.41287" lon="6.19225">
        <ele>1895.3764648438</ele>
        <time>2012-08-10T11:32:28Z</time>
      </trkpt>
      <trkpt lat="45.41293" lon="6.19228">
        <ele>1893.4538574219</ele>
        <time>2012-08-10T11:32:33Z</time>
      </trkpt>
      <trkpt lat="45.41298" lon="6.19235">
        <ele>1891.53125</ele>
        <time>2012-08-10T11:32:39Z</time>
      </trkpt>
      <trkpt lat="45.41302" lon="6.19237">
        <ele>1890.0893554688</ele>
        <time>2012-08-10T11:32:43Z</time>
      </trkpt>
      <trkpt lat="45.41307" lon="6.19243">
        <ele>1888.6474609375</ele>
        <time>2012-08-10T11:32:49Z</time>
      </trkpt>
      <trkpt lat="45.41308" lon="6.19244">
        <ele>1888.6474609375</ele>
        <time>2012-08-10T11:32:50Z</time>
      </trkpt>
      <trkpt lat="45.41311" lon="6.19246">
        <ele>1888.1667480469</ele>
        <time>2012-08-10T11:32:53Z</time>
      </trkpt>
      <trkpt lat="45.41315" lon="6.19249">
        <ele>1886.724609375</ele>
        <time>2012-08-10T11:32:59Z</time>
      </trkpt>
      <trkpt lat="45.41319" lon="6.19252">
        <ele>1886.244140625</ele>
        <time>2012-08-10T11:33:04Z</time>
      </trkpt>
      <trkpt lat="45.41323" lon="6.19255">
        <ele>1885.7634277344</ele>
        <time>2012-08-10T11:33:08Z</time>
      </trkpt>
      <trkpt lat="45.41328" lon="6.19256">
        <ele>1884.8022460938</ele>
        <time>2012-08-10T11:33:12Z</time>
      </trkpt>
      <trkpt lat="45.41334" lon="6.19259">
        <ele>1883.3598632812</ele>
        <time>2012-08-10T11:33:16Z</time>
      </trkpt>
      <trkpt lat="45.41336" lon="6.19261">
        <ele>1882.3986816406</ele>
        <time>2012-08-10T11:33:18Z</time>
      </trkpt>
      <trkpt lat="45.41342" lon="6.19264">
        <ele>1880.9567871094</ele>
        <time>2012-08-10T11:33:25Z</time>
      </trkpt>
      <trkpt lat="45.41343" lon="6.19261">
        <ele>1879.9953613281</ele>
        <time>2012-08-10T11:33:27Z</time>
      </trkpt>
      <trkpt lat="45.41348" lon="6.19263">
        <ele>1879.0339355469</ele>
        <time>2012-08-10T11:33:32Z</time>
      </trkpt>
      <trkpt lat="45.41351" lon="6.19263">
        <ele>1877.5920410156</ele>
        <time>2012-08-10T11:33:39Z</time>
      </trkpt>
      <trkpt lat="45.41354" lon="6.19265">
        <ele>1876.630859375</ele>
        <time>2012-08-10T11:33:44Z</time>
      </trkpt>
      <trkpt lat="45.41358" lon="6.19267">
        <ele>1875.6694335938</ele>
        <time>2012-08-10T11:33:49Z</time>
      </trkpt>
      <trkpt lat="45.41362" lon="6.1927">
        <ele>1875.1887207031</ele>
        <time>2012-08-10T11:33:54Z</time>
      </trkpt>
      <trkpt lat="45.41368" lon="6.19273">
        <ele>1873.7468261719</ele>
        <time>2012-08-10T11:33:59Z</time>
      </trkpt>
      <trkpt lat="45.4137" lon="6.19275">
        <ele>1873.2663574219</ele>
        <time>2012-08-10T11:34:01Z</time>
      </trkpt>
      <trkpt lat="45.41376" lon="6.19286">
        <ele>1872.3049316406</ele>
        <time>2012-08-10T11:34:08Z</time>
      </trkpt>
      <trkpt lat="45.41376" lon="6.19287">
        <ele>1872.3049316406</ele>
        <time>2012-08-10T11:34:09Z</time>
      </trkpt>
      <trkpt lat="45.41382" lon="6.19294">
        <ele>1870.3823242188</ele>
        <time>2012-08-10T11:34:16Z</time>
      </trkpt>
      <trkpt lat="45.41388" lon="6.19296">
        <ele>1868.9404296875</ele>
        <time>2012-08-10T11:34:21Z</time>
      </trkpt>
      <trkpt lat="45.41393" lon="6.193">
        <ele>1867.9787597656</ele>
        <time>2012-08-10T11:34:25Z</time>
      </trkpt>
      <trkpt lat="45.41395" lon="6.193">
        <ele>1867.498046875</ele>
        <time>2012-08-10T11:34:27Z</time>
      </trkpt>
      <trkpt lat="45.41398" lon="6.19302">
        <ele>1866.0561523438</ele>
        <time>2012-08-10T11:34:31Z</time>
      </trkpt>
      <trkpt lat="45.414" lon="6.19303">
        <ele>1865.5756835938</ele>
        <time>2012-08-10T11:34:33Z</time>
      </trkpt>
      <trkpt lat="45.41404" lon="6.19305">
        <ele>1863.1723632812</ele>
        <time>2012-08-10T11:34:39Z</time>
      </trkpt>
      <trkpt lat="45.41408" lon="6.19307">
        <ele>1860.7690429688</ele>
        <time>2012-08-10T11:34:43Z</time>
      </trkpt>
      <trkpt lat="45.41411" lon="6.19304">
        <ele>1858.3657226562</ele>
        <time>2012-08-10T11:34:49Z</time>
      </trkpt>
      <trkpt lat="45.41417" lon="6.19309">
        <ele>1855.9624023438</ele>
        <time>2012-08-10T11:34:55Z</time>
      </trkpt>
      <trkpt lat="45.41418" lon="6.19312">
        <ele>1855.4819335938</ele>
        <time>2012-08-10T11:34:57Z</time>
      </trkpt>
      <trkpt lat="45.41418" lon="6.19316">
        <ele>1855.0012207031</ele>
        <time>2012-08-10T11:35:00Z</time>
      </trkpt>
      <trkpt lat="45.41425" lon="6.1932">
        <ele>1850.6750488281</ele>
        <time>2012-08-10T11:35:08Z</time>
      </trkpt>
      <trkpt lat="45.41429" lon="6.19324">
        <ele>1850.6750488281</ele>
        <time>2012-08-10T11:35:12Z</time>
      </trkpt>
      <trkpt lat="45.41432" lon="6.19327">
        <ele>1849.2331542969</ele>
        <time>2012-08-10T11:35:16Z</time>
      </trkpt>
      <trkpt lat="45.41439" lon="6.19329">
        <ele>1846.3493652344</ele>
        <time>2012-08-10T11:35:23Z</time>
      </trkpt>
      <trkpt lat="45.41445" lon="6.19329">
        <ele>1844.9072265625</ele>
        <time>2012-08-10T11:35:28Z</time>
      </trkpt>
      <trkpt lat="45.41451" lon="6.1933">
        <ele>1843.4653320312</ele>
        <time>2012-08-10T11:35:33Z</time>
      </trkpt>
      <trkpt lat="45.41455" lon="6.19333">
        <ele>1842.9846191406</ele>
        <time>2012-08-10T11:35:38Z</time>
      </trkpt>
      <trkpt lat="45.41457" lon="6.19336">
        <ele>1842.0234375</ele>
        <time>2012-08-10T11:35:41Z</time>
      </trkpt>
      <trkpt lat="45.41463" lon="6.19337">
        <ele>1839.1394042969</ele>
        <time>2012-08-10T11:35:48Z</time>
      </trkpt>
      <trkpt lat="45.4147" lon="6.1934">
        <ele>1836.7360839844</ele>
        <time>2012-08-10T11:35:55Z</time>
      </trkpt>
      <trkpt lat="45.41473" lon="6.19339">
        <ele>1835.7746582031</ele>
        <time>2012-08-10T11:35:58Z</time>
      </trkpt>
      <trkpt lat="45.41476" lon="6.19339">
        <ele>1833.8520507812</ele>
        <time>2012-08-10T11:36:03Z</time>
      </trkpt>
      <trkpt lat="45.4148" lon="6.1934">
        <ele>1831.4487304688</ele>
        <time>2012-08-10T11:36:09Z</time>
      </trkpt>
      <trkpt lat="45.41486" lon="6.19342">
        <ele>1829.0454101562</ele>
        <time>2012-08-10T11:36:17Z</time>
      </trkpt>
      <trkpt lat="45.41491" lon="6.19347">
        <ele>1826.6423339844</ele>
        <time>2012-08-10T11:36:23Z</time>
      </trkpt>
      <trkpt lat="45.41494" lon="6.19347">
        <ele>1824.7197265625</ele>
        <time>2012-08-10T11:36:27Z</time>
      </trkpt>
      <trkpt lat="45.41498" lon="6.19346">
        <ele>1823.7583007812</ele>
        <time>2012-08-10T11:36:32Z</time>
      </trkpt>
      <trkpt lat="45.41503" lon="6.19348">
        <ele>1821.8356933594</ele>
        <time>2012-08-10T11:36:38Z</time>
      </trkpt>
      <trkpt lat="45.41508" lon="6.19349">
        <ele>1820.3937988281</ele>
        <time>2012-08-10T11:36:43Z</time>
      </trkpt>
      <trkpt lat="45.41511" lon="6.1935">
        <ele>1820.3937988281</ele>
        <time>2012-08-10T11:36:45Z</time>
      </trkpt>
      <trkpt lat="45.41513" lon="6.19359">
        <ele>1819.9128417969</ele>
        <time>2012-08-10T11:36:52Z</time>
      </trkpt>
      <trkpt lat="45.41515" lon="6.19361">
        <ele>1819.9128417969</ele>
        <time>2012-08-10T11:36:56Z</time>
      </trkpt>
      <trkpt lat="45.41521" lon="6.19366">
        <ele>1819.4323730469</ele>
        <time>2012-08-10T11:37:02Z</time>
      </trkpt>
      <trkpt lat="45.41522" lon="6.19368">
        <ele>1818.9516601562</ele>
        <time>2012-08-10T11:37:04Z</time>
      </trkpt>
      <trkpt lat="45.41524" lon="6.1937">
        <ele>1818.9516601562</ele>
        <time>2012-08-10T11:37:06Z</time>
      </trkpt>
      <trkpt lat="45.41527" lon="6.19365">
        <ele>1817.990234375</ele>
        <time>2012-08-10T11:37:11Z</time>
      </trkpt>
      <trkpt lat="45.4153" lon="6.19359">
        <ele>1817.990234375</ele>
        <time>2012-08-10T11:37:17Z</time>
      </trkpt>
      <trkpt lat="45.41531" lon="6.19358">
        <ele>1817.990234375</ele>
        <time>2012-08-10T11:37:18Z</time>
      </trkpt>
      <trkpt lat="45.4154" lon="6.19363">
        <ele>1817.5095214844</ele>
        <time>2012-08-10T11:37:26Z</time>
      </trkpt>
      <trkpt lat="45.41542" lon="6.19365">
        <ele>1817.0290527344</ele>
        <time>2012-08-10T11:37:29Z</time>
      </trkpt>
      <trkpt lat="45.41547" lon="6.19366">
        <ele>1816.5483398438</ele>
        <time>2012-08-10T11:37:34Z</time>
      </trkpt>
      <trkpt lat="45.4155" lon="6.19368">
        <ele>1816.5483398438</ele>
        <time>2012-08-10T11:37:36Z</time>
      </trkpt>
      <trkpt lat="45.41551" lon="6.19372">
        <ele>1816.5483398438</ele>
        <time>2012-08-10T11:37:40Z</time>
      </trkpt>
      <trkpt lat="45.41553" lon="6.19375">
        <ele>1816.5483398438</ele>
        <time>2012-08-10T11:37:46Z</time>
      </trkpt>
      <trkpt lat="45.41558" lon="6.19379">
        <ele>1815.1064453125</ele>
        <time>2012-08-10T11:37:52Z</time>
      </trkpt>
      <trkpt lat="45.41563" lon="6.19383">
        <ele>1814.1450195312</ele>
        <time>2012-08-10T11:37:58Z</time>
      </trkpt>
      <trkpt lat="45.41566" lon="6.19385">
        <ele>1813.6643066406</ele>
        <time>2012-08-10T11:38:04Z</time>
      </trkpt>
      <trkpt lat="45.41567" lon="6.19385">
        <ele>1814.1450195312</ele>
        <time>2012-08-10T11:38:08Z</time>
      </trkpt>
      <trkpt lat="45.41568" lon="6.19385">
        <ele>1814.1450195312</ele>
        <time>2012-08-10T11:38:18Z</time>
      </trkpt>
      <trkpt lat="45.4157" lon="6.19385">
        <ele>1813.1838378906</ele>
        <time>2012-08-10T11:38:26Z</time>
      </trkpt>
      <trkpt lat="45.41572" lon="6.19385">
        <ele>1815.1064453125</ele>
        <time>2012-08-10T11:38:33Z</time>
      </trkpt>
      <trkpt lat="45.41574" lon="6.19388">
        <ele>1815.1064453125</ele>
        <time>2012-08-10T11:38:41Z</time>
      </trkpt>
      <trkpt lat="45.41575" lon="6.19394">
        <ele>1813.6643066406</ele>
        <time>2012-08-10T11:38:46Z</time>
      </trkpt>
      <trkpt lat="45.41578" lon="6.19397">
        <ele>1813.1838378906</ele>
        <time>2012-08-10T11:38:50Z</time>
      </trkpt>
      <trkpt lat="45.41579" lon="6.19398">
        <ele>1812.703125</ele>
        <time>2012-08-10T11:38:51Z</time>
      </trkpt>
      <trkpt lat="45.41586" lon="6.19404">
        <ele>1811.2612304688</ele>
        <time>2012-08-10T11:38:57Z</time>
      </trkpt>
      <trkpt lat="45.41587" lon="6.19406">
        <ele>1811.2612304688</ele>
        <time>2012-08-10T11:38:59Z</time>
      </trkpt>
      <trkpt lat="45.41591" lon="6.19409">
        <ele>1810.2998046875</ele>
        <time>2012-08-10T11:39:03Z</time>
      </trkpt>
      <trkpt lat="45.41595" lon="6.19414">
        <ele>1810.2998046875</ele>
        <time>2012-08-10T11:39:08Z</time>
      </trkpt>
      <trkpt lat="45.41597" lon="6.19419">
        <ele>1808.8579101562</ele>
        <time>2012-08-10T11:39:12Z</time>
      </trkpt>
      <trkpt lat="45.416" lon="6.19423">
        <ele>1808.3771972656</ele>
        <time>2012-08-10T11:39:16Z</time>
      </trkpt>
      <trkpt lat="45.41603" lon="6.19433">
        <ele>1806.4545898438</ele>
        <time>2012-08-10T11:39:23Z</time>
      </trkpt>
      <trkpt lat="45.41608" lon="6.19437">
        <ele>1805.4934082031</ele>
        <time>2012-08-10T11:39:29Z</time>
      </trkpt>
      <trkpt lat="45.41613" lon="6.1944">
        <ele>1805.0126953125</ele>
        <time>2012-08-10T11:39:34Z</time>
      </trkpt>
      <trkpt lat="45.41622" lon="6.19447">
        <ele>1805.0126953125</ele>
        <time>2012-08-10T11:39:42Z</time>
      </trkpt>
      <trkpt lat="45.41623" lon="6.19451">
        <ele>1804.0515136719</ele>
        <time>2012-08-10T11:39:45Z</time>
      </trkpt>
      <trkpt lat="45.41623" lon="6.19455">
        <ele>1803.08984375</ele>
        <time>2012-08-10T11:39:48Z</time>
      </trkpt>
      <trkpt lat="45.41624" lon="6.19463">
        <ele>1799.7253417969</ele>
        <time>2012-08-10T11:39:55Z</time>
      </trkpt>
      <trkpt lat="45.41627" lon="6.19463">
        <ele>1799.7253417969</ele>
        <time>2012-08-10T11:39:59Z</time>
      </trkpt>
      <trkpt lat="45.4163" lon="6.19468">
        <ele>1798.7639160156</ele>
        <time>2012-08-10T11:40:04Z</time>
      </trkpt>
      <trkpt lat="45.41633" lon="6.19473">
        <ele>1797.3220214844</ele>
        <time>2012-08-10T11:40:08Z</time>
      </trkpt>
      <trkpt lat="45.41637" lon="6.19479">
        <ele>1795.8801269531</ele>
        <time>2012-08-10T11:40:13Z</time>
      </trkpt>
      <trkpt lat="45.41643" lon="6.19484">
        <ele>1793.9575195312</ele>
        <time>2012-08-10T11:40:19Z</time>
      </trkpt>
      <trkpt lat="45.41649" lon="6.19489">
        <ele>1792.99609375</ele>
        <time>2012-08-10T11:40:24Z</time>
      </trkpt>
      <trkpt lat="45.41655" lon="6.19497">
        <ele>1791.0734863281</ele>
        <time>2012-08-10T11:40:30Z</time>
      </trkpt>
      <trkpt lat="45.41661" lon="6.195">
        <ele>1790.5927734375</ele>
        <time>2012-08-10T11:40:35Z</time>
      </trkpt>
      <trkpt lat="45.41666" lon="6.19502">
        <ele>1790.1123046875</ele>
        <time>2012-08-10T11:40:41Z</time>
      </trkpt>
      <trkpt lat="45.41668" lon="6.19507">
        <ele>1790.1123046875</ele>
        <time>2012-08-10T11:40:47Z</time>
      </trkpt>
      <trkpt lat="45.41671" lon="6.19515">
        <ele>1791.0734863281</ele>
        <time>2012-08-10T11:40:51Z</time>
      </trkpt>
      <trkpt lat="45.41677" lon="6.19525">
        <ele>1790.5927734375</ele>
        <time>2012-08-10T11:40:56Z</time>
      </trkpt>
      <trkpt lat="45.4168" lon="6.19531">
        <ele>1789.6315917969</ele>
        <time>2012-08-10T11:41:00Z</time>
      </trkpt>
      <trkpt lat="45.41686" lon="6.19541">
        <ele>1786.7473144531</ele>
        <time>2012-08-10T11:41:08Z</time>
      </trkpt>
      <trkpt lat="45.41689" lon="6.19544">
        <ele>1786.2668457031</ele>
        <time>2012-08-10T11:41:11Z</time>
      </trkpt>
      <trkpt lat="45.41694" lon="6.19549">
        <ele>1784.3442382812</ele>
        <time>2012-08-10T11:41:17Z</time>
      </trkpt>
      <trkpt lat="45.41697" lon="6.19557">
        <ele>1783.3828125</ele>
        <time>2012-08-10T11:41:22Z</time>
      </trkpt>
      <trkpt lat="45.41699" lon="6.19562">
        <ele>1781.9409179688</ele>
        <time>2012-08-10T11:41:27Z</time>
      </trkpt>
      <trkpt lat="45.41701" lon="6.19562">
        <ele>1781.4602050781</ele>
        <time>2012-08-10T11:41:29Z</time>
      </trkpt>
      <trkpt lat="45.41705" lon="6.19573">
        <ele>1778.095703125</ele>
        <time>2012-08-10T11:41:37Z</time>
      </trkpt>
      <trkpt lat="45.41706" lon="6.19578">
        <ele>1776.6538085938</ele>
        <time>2012-08-10T11:41:40Z</time>
      </trkpt>
      <trkpt lat="45.4171" lon="6.19582">
        <ele>1775.6923828125</ele>
        <time>2012-08-10T11:41:43Z</time>
      </trkpt>
      <trkpt lat="45.41717" lon="6.19587">
        <ele>1775.6923828125</ele>
        <time>2012-08-10T11:41:48Z</time>
      </trkpt>
      <trkpt lat="45.41719" lon="6.19591">
        <ele>1775.2116699219</ele>
        <time>2012-08-10T11:41:51Z</time>
      </trkpt>
      <trkpt lat="45.41724" lon="6.19599">
        <ele>1773.7697753906</ele>
        <time>2012-08-10T11:41:57Z</time>
      </trkpt>
      <trkpt lat="45.4173" lon="6.19608">
        <ele>1772.80859375</ele>
        <time>2012-08-10T11:42:04Z</time>
      </trkpt>
      <trkpt lat="45.41733" lon="6.19614">
        <ele>1771.3662109375</ele>
        <time>2012-08-10T11:42:08Z</time>
      </trkpt>
      <trkpt lat="45.41735" lon="6.19616">
        <ele>1770.4050292969</ele>
        <time>2012-08-10T11:42:10Z</time>
      </trkpt>
      <trkpt lat="45.41737" lon="6.19619">
        <ele>1769.4438476562</ele>
        <time>2012-08-10T11:42:13Z</time>
      </trkpt>
      <trkpt lat="45.41743" lon="6.19625">
        <ele>1766.5598144531</ele>
        <time>2012-08-10T11:42:20Z</time>
      </trkpt>
      <trkpt lat="45.41747" lon="6.19631">
        <ele>1764.6372070312</ele>
        <time>2012-08-10T11:42:24Z</time>
      </trkpt>
      <trkpt lat="45.41752" lon="6.19636">
        <ele>1763.67578125</ele>
        <time>2012-08-10T11:42:29Z</time>
      </trkpt>
      <trkpt lat="45.41755" lon="6.19646">
        <ele>1762.2338867188</ele>
        <time>2012-08-10T11:42:36Z</time>
      </trkpt>
      <trkpt lat="45.4176" lon="6.19649">
        <ele>1759.8305664062</ele>
        <time>2012-08-10T11:42:43Z</time>
      </trkpt>
      <trkpt lat="45.41766" lon="6.19655">
        <ele>1758.8693847656</ele>
        <time>2012-08-10T11:42:49Z</time>
      </trkpt>
      <trkpt lat="45.4177" lon="6.19663">
        <ele>1757.4274902344</ele>
        <time>2012-08-10T11:42:55Z</time>
      </trkpt>
      <trkpt lat="45.41772" lon="6.19669">
        <ele>1755.9851074219</ele>
        <time>2012-08-10T11:42:59Z</time>
      </trkpt>
      <trkpt lat="45.41778" lon="6.19677">
        <ele>1755.0239257812</ele>
        <time>2012-08-10T11:43:07Z</time>
      </trkpt>
      <trkpt lat="45.41784" lon="6.19684">
        <ele>1754.5432128906</ele>
        <time>2012-08-10T11:43:15Z</time>
      </trkpt>
      <trkpt lat="45.41786" lon="6.19687">
        <ele>1753.58203125</ele>
        <time>2012-08-10T11:43:18Z</time>
      </trkpt>
      <trkpt lat="45.41791" lon="6.19692">
        <ele>1751.1787109375</ele>
        <time>2012-08-10T11:43:24Z</time>
      </trkpt>
      <trkpt lat="45.41795" lon="6.19699">
        <ele>1749.2561035156</ele>
        <time>2012-08-10T11:43:30Z</time>
      </trkpt>
      <trkpt lat="45.41795" lon="6.19703">
        <ele>1748.2946777344</ele>
        <time>2012-08-10T11:43:33Z</time>
      </trkpt>
      <trkpt lat="45.41798" lon="6.19709">
        <ele>1746.8527832031</ele>
        <time>2012-08-10T11:43:40Z</time>
      </trkpt>
      <trkpt lat="45.41801" lon="6.19715">
        <ele>1745.4108886719</ele>
        <time>2012-08-10T11:43:46Z</time>
      </trkpt>
      <trkpt lat="45.41804" lon="6.19716">
        <ele>1744.4494628906</ele>
        <time>2012-08-10T11:43:48Z</time>
      </trkpt>
      <trkpt lat="45.41812" lon="6.19718">
        <ele>1743.48828125</ele>
        <time>2012-08-10T11:43:56Z</time>
      </trkpt>
      <trkpt lat="45.41814" lon="6.19719">
        <ele>1743.0075683594</ele>
        <time>2012-08-10T11:43:58Z</time>
      </trkpt>
      <trkpt lat="45.41821" lon="6.19726">
        <ele>1741.5656738281</ele>
        <time>2012-08-10T11:44:06Z</time>
      </trkpt>
      <trkpt lat="45.41821" lon="6.19733">
        <ele>1741.0849609375</ele>
        <time>2012-08-10T11:44:10Z</time>
      </trkpt>
      <trkpt lat="45.41821" lon="6.19737">
        <ele>1740.6042480469</ele>
        <time>2012-08-10T11:44:13Z</time>
      </trkpt>
      <trkpt lat="45.41822" lon="6.19742">
        <ele>1740.1237792969</ele>
        <time>2012-08-10T11:44:16Z</time>
      </trkpt>
      <trkpt lat="45.41828" lon="6.19747">
        <ele>1738.2009277344</ele>
        <time>2012-08-10T11:44:20Z</time>
      </trkpt>
      <trkpt lat="45.41834" lon="6.1975">
        <ele>1737.2395019531</ele>
        <time>2012-08-10T11:44:24Z</time>
      </trkpt>
      <trkpt lat="45.41835" lon="6.19753">
        <ele>1736.2783203125</ele>
        <time>2012-08-10T11:44:26Z</time>
      </trkpt>
      <trkpt lat="45.41837" lon="6.19755">
        <ele>1735.3168945312</ele>
        <time>2012-08-10T11:44:30Z</time>
      </trkpt>
      <trkpt lat="45.41842" lon="6.19758">
        <ele>1734.3557128906</ele>
        <time>2012-08-10T11:44:34Z</time>
      </trkpt>
      <trkpt lat="45.41845" lon="6.19759">
        <ele>1733.875</ele>
        <time>2012-08-10T11:44:37Z</time>
      </trkpt>
      <trkpt lat="45.41848" lon="6.19763">
        <ele>1732.4331054688</ele>
        <time>2012-08-10T11:44:40Z</time>
      </trkpt>
      <trkpt lat="45.41849" lon="6.19766">
        <ele>1731.9523925781</ele>
        <time>2012-08-10T11:44:42Z</time>
      </trkpt>
      <trkpt lat="45.41853" lon="6.19771">
        <ele>1730.9912109375</ele>
        <time>2012-08-10T11:44:47Z</time>
      </trkpt>
      <trkpt lat="45.41856" lon="6.19773">
        <ele>1730.0297851562</ele>
        <time>2012-08-10T11:44:49Z</time>
      </trkpt>
      <trkpt lat="45.41861" lon="6.1978">
        <ele>1729.068359375</ele>
        <time>2012-08-10T11:44:54Z</time>
      </trkpt>
      <trkpt lat="45.41865" lon="6.19784">
        <ele>1727.6264648438</ele>
        <time>2012-08-10T11:44:58Z</time>
      </trkpt>
      <trkpt lat="45.41866" lon="6.19786">
        <ele>1727.1459960938</ele>
        <time>2012-08-10T11:44:59Z</time>
      </trkpt>
      <trkpt lat="45.4187" lon="6.19791">
        <ele>1725.7038574219</ele>
        <time>2012-08-10T11:45:04Z</time>
      </trkpt>
      <trkpt lat="45.41872" lon="6.19792">
        <ele>1724.7426757812</ele>
        <time>2012-08-10T11:45:06Z</time>
      </trkpt>
      <trkpt lat="45.41879" lon="6.19801">
        <ele>1721.8583984375</ele>
        <time>2012-08-10T11:45:13Z</time>
      </trkpt>
      <trkpt lat="45.41884" lon="6.19806">
        <ele>1718.4938964844</ele>
        <time>2012-08-10T11:45:19Z</time>
      </trkpt>
      <trkpt lat="45.41887" lon="6.19811">
        <ele>1717.5324707031</ele>
        <time>2012-08-10T11:45:23Z</time>
      </trkpt>
      <trkpt lat="45.41893" lon="6.19814">
        <ele>1716.0905761719</ele>
        <time>2012-08-10T11:45:29Z</time>
      </trkpt>
      <trkpt lat="45.41899" lon="6.19815">
        <ele>1714.16796875</ele>
        <time>2012-08-10T11:45:36Z</time>
      </trkpt>
      <trkpt lat="45.41904" lon="6.19818">
        <ele>1712.7260742188</ele>
        <time>2012-08-10T11:45:41Z</time>
      </trkpt>
      <trkpt lat="45.41908" lon="6.19823">
        <ele>1709.8420410156</ele>
        <time>2012-08-10T11:45:46Z</time>
      </trkpt>
      <trkpt lat="45.41913" lon="6.19829">
        <ele>1707.9194335938</ele>
        <time>2012-08-10T11:45:52Z</time>
      </trkpt>
      <trkpt lat="45.41915" lon="6.19832">
        <ele>1707.4387207031</ele>
        <time>2012-08-10T11:45:55Z</time>
      </trkpt>
      <trkpt lat="45.41921" lon="6.19836">
        <ele>1706.4772949219</ele>
        <time>2012-08-10T11:46:01Z</time>
      </trkpt>
      <trkpt lat="45.41924" lon="6.19837">
        <ele>1705.9965820312</ele>
        <time>2012-08-10T11:46:03Z</time>
      </trkpt>
      <trkpt lat="45.41929" lon="6.19837">
        <ele>1705.0354003906</ele>
        <time>2012-08-10T11:46:07Z</time>
      </trkpt>
      <trkpt lat="45.41934" lon="6.19838">
        <ele>1704.5546875</ele>
        <time>2012-08-10T11:46:11Z</time>
      </trkpt>
      <trkpt lat="45.41939" lon="6.19838">
        <ele>1703.5935058594</ele>
        <time>2012-08-10T11:46:16Z</time>
      </trkpt>
      <trkpt lat="45.41945" lon="6.19838">
        <ele>1702.6320800781</ele>
        <time>2012-08-10T11:46:21Z</time>
      </trkpt>
      <trkpt lat="45.41954" lon="6.19842">
        <ele>1701.1901855469</ele>
        <time>2012-08-10T11:46:27Z</time>
      </trkpt>
      <trkpt lat="45.4196" lon="6.19842">
        <ele>1698.7868652344</ele>
        <time>2012-08-10T11:46:31Z</time>
      </trkpt>
      <trkpt lat="45.41965" lon="6.19844">
        <ele>1698.7868652344</ele>
        <time>2012-08-10T11:46:35Z</time>
      </trkpt>
      <trkpt lat="45.41971" lon="6.19843">
        <ele>1697.3449707031</ele>
        <time>2012-08-10T11:46:39Z</time>
      </trkpt>
      <trkpt lat="45.41979" lon="6.19841">
        <ele>1696.3837890625</ele>
        <time>2012-08-10T11:46:45Z</time>
      </trkpt>
      <trkpt lat="45.41988" lon="6.19842">
        <ele>1696.8642578125</ele>
        <time>2012-08-10T11:46:50Z</time>
      </trkpt>
      <trkpt lat="45.41993" lon="6.19844">
        <ele>1695.9030761719</ele>
        <time>2012-08-10T11:46:55Z</time>
      </trkpt>
      <trkpt lat="45.41994" lon="6.19845">
        <ele>1695.4223632812</ele>
        <time>2012-08-10T11:46:56Z</time>
      </trkpt>
      <trkpt lat="45.42" lon="6.19848">
        <ele>1694.4609375</ele>
        <time>2012-08-10T11:47:01Z</time>
      </trkpt>
      <trkpt lat="45.42001" lon="6.1985">
        <ele>1693.98046875</ele>
        <time>2012-08-10T11:47:03Z</time>
      </trkpt>
      <trkpt lat="45.42007" lon="6.19852">
        <ele>1691.5769042969</ele>
        <time>2012-08-10T11:47:08Z</time>
      </trkpt>
      <trkpt lat="45.42012" lon="6.19853">
        <ele>1690.6154785156</ele>
        <time>2012-08-10T11:47:12Z</time>
      </trkpt>
      <trkpt lat="45.42017" lon="6.19854">
        <ele>1689.1735839844</ele>
        <time>2012-08-10T11:47:17Z</time>
      </trkpt>
      <trkpt lat="45.42017" lon="6.19855">
        <ele>1688.6931152344</ele>
        <time>2012-08-10T11:47:18Z</time>
      </trkpt>
      <trkpt lat="45.42019" lon="6.19857">
        <ele>1688.6931152344</ele>
        <time>2012-08-10T11:47:20Z</time>
      </trkpt>
      <trkpt lat="45.42021" lon="6.19861">
        <ele>1687.2509765625</ele>
        <time>2012-08-10T11:47:24Z</time>
      </trkpt>
      <trkpt lat="45.42024" lon="6.19866">
        <ele>1687.2509765625</ele>
        <time>2012-08-10T11:47:28Z</time>
      </trkpt>
      <trkpt lat="45.42029" lon="6.19865">
        <ele>1686.2897949219</ele>
        <time>2012-08-10T11:47:32Z</time>
      </trkpt>
      <trkpt lat="45.42033" lon="6.19865">
        <ele>1684.3671875</ele>
        <time>2012-08-10T11:47:36Z</time>
      </trkpt>
      <trkpt lat="45.42041" lon="6.19864">
        <ele>1683.8864746094</ele>
        <time>2012-08-10T11:47:41Z</time>
      </trkpt>
      <trkpt lat="45.42045" lon="6.19864">
        <ele>1683.8864746094</ele>
        <time>2012-08-10T11:47:44Z</time>
      </trkpt>
      <trkpt lat="45.42048" lon="6.19862">
        <ele>1682.9250488281</ele>
        <time>2012-08-10T11:47:47Z</time>
      </trkpt>
      <trkpt lat="45.42054" lon="6.19862">
        <ele>1681.4831542969</ele>
        <time>2012-08-10T11:47:52Z</time>
      </trkpt>
      <trkpt lat="45.42055" lon="6.19862">
        <ele>1680.5219726562</ele>
        <time>2012-08-10T11:47:53Z</time>
      </trkpt>
      <trkpt lat="45.4206" lon="6.19866">
        <ele>1678.5993652344</ele>
        <time>2012-08-10T11:47:59Z</time>
      </trkpt>
      <trkpt lat="45.42062" lon="6.19866">
        <ele>1678.5993652344</ele>
        <time>2012-08-10T11:48:00Z</time>
      </trkpt>
      <trkpt lat="45.42068" lon="6.19866">
        <ele>1676.6767578125</ele>
        <time>2012-08-10T11:48:06Z</time>
      </trkpt>
      <trkpt lat="45.42072" lon="6.19864">
        <ele>1675.234375</ele>
        <time>2012-08-10T11:48:10Z</time>
      </trkpt>
      <trkpt lat="45.42076" lon="6.19867">
        <ele>1673.3120117188</ele>
        <time>2012-08-10T11:48:13Z</time>
      </trkpt>
      <trkpt lat="45.42083" lon="6.19868">
        <ele>1672.3505859375</ele>
        <time>2012-08-10T11:48:19Z</time>
      </trkpt>
      <trkpt lat="45.42087" lon="6.19869">
        <ele>1671.8698730469</ele>
        <time>2012-08-10T11:48:22Z</time>
      </trkpt>
      <trkpt lat="45.42092" lon="6.1987">
        <ele>1670.9086914062</ele>
        <time>2012-08-10T11:48:26Z</time>
      </trkpt>
      <trkpt lat="45.421" lon="6.19871">
        <ele>1669.466796875</ele>
        <time>2012-08-10T11:48:33Z</time>
      </trkpt>
      <trkpt lat="45.42104" lon="6.19871">
        <ele>1669.466796875</ele>
        <time>2012-08-10T11:48:38Z</time>
      </trkpt>
      <trkpt lat="45.42108" lon="6.19871">
        <ele>1668.9860839844</ele>
        <time>2012-08-10T11:48:43Z</time>
      </trkpt>
      <trkpt lat="45.42114" lon="6.19872">
        <ele>1668.5053710938</ele>
        <time>2012-08-10T11:48:48Z</time>
      </trkpt>
      <trkpt lat="45.42118" lon="6.19874">
        <ele>1668.5053710938</ele>
        <time>2012-08-10T11:48:52Z</time>
      </trkpt>
      <trkpt lat="45.4213" lon="6.19875">
        <ele>1668.9860839844</ele>
        <time>2012-08-10T11:48:59Z</time>
      </trkpt>
      <trkpt lat="45.42134" lon="6.19876">
        <ele>1667.5439453125</ele>
        <time>2012-08-10T11:49:03Z</time>
      </trkpt>
      <trkpt lat="45.4214" lon="6.19879">
        <ele>1666.1020507812</ele>
        <time>2012-08-10T11:49:08Z</time>
      </trkpt>
      <trkpt lat="45.42145" lon="6.19879">
        <ele>1664.66015625</ele>
        <time>2012-08-10T11:49:12Z</time>
      </trkpt>
      <trkpt lat="45.42155" lon="6.19885">
        <ele>1665.1408691406</ele>
        <time>2012-08-10T11:49:20Z</time>
      </trkpt>
      <trkpt lat="45.42162" lon="6.1989">
        <ele>1664.1794433594</ele>
        <time>2012-08-10T11:49:25Z</time>
      </trkpt>
      <trkpt lat="45.42167" lon="6.19894">
        <ele>1663.6987304688</ele>
        <time>2012-08-10T11:49:29Z</time>
      </trkpt>
      <trkpt lat="45.42172" lon="6.19902">
        <ele>1664.66015625</ele>
        <time>2012-08-10T11:49:35Z</time>
      </trkpt>
      <trkpt lat="45.42176" lon="6.19906">
        <ele>1664.66015625</ele>
        <time>2012-08-10T11:49:38Z</time>
      </trkpt>
      <trkpt lat="45.42181" lon="6.19914">
        <ele>1665.1408691406</ele>
        <time>2012-08-10T11:49:44Z</time>
      </trkpt>
      <trkpt lat="45.42182" lon="6.19917">
        <ele>1665.1408691406</ele>
        <time>2012-08-10T11:49:46Z</time>
      </trkpt>
      <trkpt lat="45.42184" lon="6.19923">
        <ele>1665.1408691406</ele>
        <time>2012-08-10T11:49:50Z</time>
      </trkpt>
      <trkpt lat="45.42188" lon="6.19933">
        <ele>1664.1794433594</ele>
        <time>2012-08-10T11:49:55Z</time>
      </trkpt>
      <trkpt lat="45.42189" lon="6.19937">
        <ele>1663.2182617188</ele>
        <time>2012-08-10T11:49:57Z</time>
      </trkpt>
      <trkpt lat="45.42191" lon="6.19942">
        <ele>1661.7763671875</ele>
        <time>2012-08-10T11:50:00Z</time>
      </trkpt>
      <trkpt lat="45.42197" lon="6.19951">
        <ele>1660.8149414062</ele>
        <time>2012-08-10T11:50:05Z</time>
      </trkpt>
      <trkpt lat="45.42198" lon="6.19952">
        <ele>1660.8149414062</ele>
        <time>2012-08-10T11:50:06Z</time>
      </trkpt>
      <trkpt lat="45.42201" lon="6.19964">
        <ele>1660.8149414062</ele>
        <time>2012-08-10T11:50:12Z</time>
      </trkpt>
      <trkpt lat="45.42204" lon="6.19968">
        <ele>1660.8149414062</ele>
        <time>2012-08-10T11:50:15Z</time>
      </trkpt>
      <trkpt lat="45.42205" lon="6.19968">
        <ele>1660.3342285156</ele>
        <time>2012-08-10T11:50:17Z</time>
      </trkpt>
      <trkpt lat="45.42208" lon="6.19964">
        <ele>1657.9309082031</ele>
        <time>2012-08-10T11:50:24Z</time>
      </trkpt>
      <trkpt lat="45.42214" lon="6.19961">
        <ele>1656.9694824219</ele>
        <time>2012-08-10T11:50:28Z</time>
      </trkpt>
      <trkpt lat="45.42223" lon="6.19961">
        <ele>1656.9694824219</ele>
        <time>2012-08-10T11:50:36Z</time>
      </trkpt>
      <trkpt lat="45.42231" lon="6.1996">
        <ele>1656.9694824219</ele>
        <time>2012-08-10T11:50:43Z</time>
      </trkpt>
      <trkpt lat="45.4224" lon="6.19964">
        <ele>1656.9694824219</ele>
        <time>2012-08-10T11:50:49Z</time>
      </trkpt>
      <trkpt lat="45.42241" lon="6.19961">
        <ele>1656.0080566406</ele>
        <time>2012-08-10T11:50:53Z</time>
      </trkpt>
      <trkpt lat="45.42242" lon="6.19956">
        <ele>1653.6049804688</ele>
        <time>2012-08-10T11:50:59Z</time>
      </trkpt>
      <trkpt lat="45.42242" lon="6.19951">
        <ele>1652.1628417969</ele>
        <time>2012-08-10T11:51:04Z</time>
      </trkpt>
      <trkpt lat="45.42242" lon="6.19946">
        <ele>1651.6823730469</ele>
        <time>2012-08-10T11:51:06Z</time>
      </trkpt>
      <trkpt lat="45.42249" lon="6.19935">
        <ele>1652.1628417969</ele>
        <time>2012-08-10T11:51:11Z</time>
      </trkpt>
      <trkpt lat="45.42252" lon="6.19934">
        <ele>1652.1628417969</ele>
        <time>2012-08-10T11:51:14Z</time>
      </trkpt>
      <trkpt lat="45.42257" lon="6.19932">
        <ele>1653.6049804688</ele>
        <time>2012-08-10T11:51:20Z</time>
      </trkpt>
      <trkpt lat="45.42261" lon="6.19931">
        <ele>1654.5661621094</ele>
        <time>2012-08-10T11:51:24Z</time>
      </trkpt>
      <trkpt lat="45.42265" lon="6.19928">
        <ele>1653.6049804688</ele>
        <time>2012-08-10T11:51:28Z</time>
      </trkpt>
      <trkpt lat="45.42266" lon="6.19926">
        <ele>1653.6049804688</ele>
        <time>2012-08-10T11:51:30Z</time>
      </trkpt>
      <trkpt lat="45.42269" lon="6.19922">
        <ele>1652.6435546875</ele>
        <time>2012-08-10T11:51:34Z</time>
      </trkpt>
      <trkpt lat="45.42275" lon="6.19918">
        <ele>1650.7209472656</ele>
        <time>2012-08-10T11:51:41Z</time>
      </trkpt>
      <trkpt lat="45.42276" lon="6.19916">
        <ele>1650.2404785156</ele>
        <time>2012-08-10T11:51:43Z</time>
      </trkpt>
      <trkpt lat="45.42275" lon="6.19904">
        <ele>1646.8757324219</ele>
        <time>2012-08-10T11:51:49Z</time>
      </trkpt>
      <trkpt lat="45.42273" lon="6.19902">
        <ele>1646.8757324219</ele>
        <time>2012-08-10T11:51:51Z</time>
      </trkpt>
      <trkpt lat="45.42278" lon="6.19898">
        <ele>1645.4338378906</ele>
        <time>2012-08-10T11:51:56Z</time>
      </trkpt>
      <trkpt lat="45.42286" lon="6.19898">
        <ele>1643.9916992188</ele>
        <time>2012-08-10T11:52:02Z</time>
      </trkpt>
      <trkpt lat="45.42292" lon="6.19895">
        <ele>1642.0690917969</ele>
        <time>2012-08-10T11:52:07Z</time>
      </trkpt>
      <trkpt lat="45.42296" lon="6.19892">
        <ele>1641.1076660156</ele>
        <time>2012-08-10T11:52:11Z</time>
      </trkpt>
      <trkpt lat="45.42298" lon="6.19891">
        <ele>1640.626953125</ele>
        <time>2012-08-10T11:52:12Z</time>
      </trkpt>
      <trkpt lat="45.42303" lon="6.19891">
        <ele>1639.1850585938</ele>
        <time>2012-08-10T11:52:15Z</time>
      </trkpt>
      <trkpt lat="45.4231" lon="6.19888">
        <ele>1637.7431640625</ele>
        <time>2012-08-10T11:52:20Z</time>
      </trkpt>
      <trkpt lat="45.42316" lon="6.19884">
        <ele>1636.7817382812</ele>
        <time>2012-08-10T11:52:25Z</time>
      </trkpt>
      <trkpt lat="45.42319" lon="6.19884">
        <ele>1636.3012695312</ele>
        <time>2012-08-10T11:52:27Z</time>
      </trkpt>
      <trkpt lat="45.42325" lon="6.19878">
        <ele>1633.8979492188</ele>
        <time>2012-08-10T11:52:32Z</time>
      </trkpt>
      <trkpt lat="45.42331" lon="6.1987">
        <ele>1633.4172363281</ele>
        <time>2012-08-10T11:52:37Z</time>
      </trkpt>
      <trkpt lat="45.42335" lon="6.1986">
        <ele>1631.9753417969</ele>
        <time>2012-08-10T11:52:42Z</time>
      </trkpt>
      <trkpt lat="45.42339" lon="6.19854">
        <ele>1630.5334472656</ele>
        <time>2012-08-10T11:52:45Z</time>
      </trkpt>
      <trkpt lat="45.42345" lon="6.19848">
        <ele>1628.6108398438</ele>
        <time>2012-08-10T11:52:50Z</time>
      </trkpt>
      <trkpt lat="45.4235" lon="6.19843">
        <ele>1627.1687011719</ele>
        <time>2012-08-10T11:52:54Z</time>
      </trkpt>
      <trkpt lat="45.42353" lon="6.19842">
        <ele>1625.7265625</ele>
        <time>2012-08-10T11:52:58Z</time>
      </trkpt>
      <trkpt lat="45.42355" lon="6.19841">
        <ele>1624.7653808594</ele>
        <time>2012-08-10T11:53:01Z</time>
      </trkpt>
      <trkpt lat="45.42357" lon="6.19842">
        <ele>1624.2846679688</ele>
        <time>2012-08-10T11:53:09Z</time>
      </trkpt>
      <trkpt lat="45.42356" lon="6.19839">
        <ele>1624.7653808594</ele>
        <time>2012-08-10T11:53:23Z</time>
      </trkpt>
      <trkpt lat="45.42355" lon="6.19841">
        <ele>1626.6879882812</ele>
        <time>2012-08-10T11:53:39Z</time>
      </trkpt>
      <trkpt lat="45.42357" lon="6.19841">
        <ele>1626.6879882812</ele>
        <time>2012-08-10T11:53:53Z</time>
      </trkpt>
      <trkpt lat="45.42358" lon="6.19842">
        <ele>1627.6491699219</ele>
        <time>2012-08-10T11:54:09Z</time>
      </trkpt>
      <trkpt lat="45.42359" lon="6.19843">
        <ele>1629.5720214844</ele>
        <time>2012-08-10T11:54:21Z</time>
      </trkpt>
      <trkpt lat="45.4236" lon="6.19844">
        <ele>1628.1301269531</ele>
        <time>2012-08-10T11:54:27Z</time>
      </trkpt>
      <trkpt lat="45.42361" lon="6.19846">
        <ele>1627.1687011719</ele>
        <time>2012-08-10T11:54:37Z</time>
      </trkpt>
      <trkpt lat="45.4236" lon="6.19848">
        <ele>1626.6879882812</ele>
        <time>2012-08-10T11:54:42Z</time>
      </trkpt>
      <trkpt lat="45.42358" lon="6.19848">
        <ele>1626.6879882812</ele>
        <time>2012-08-10T11:55:00Z</time>
      </trkpt>
      <trkpt lat="45.42361" lon="6.1985">
        <ele>1624.7653808594</ele>
        <time>2012-08-10T11:55:16Z</time>
      </trkpt>
      <trkpt lat="45.4236" lon="6.19853">
        <ele>1624.2846679688</ele>
        <time>2012-08-10T11:55:21Z</time>
      </trkpt>
      <trkpt lat="45.42357" lon="6.19858">
        <ele>1624.7653808594</ele>
        <time>2012-08-10T11:55:28Z</time>
      </trkpt>
      <trkpt lat="45.42357" lon="6.19863">
        <ele>1624.2846679688</ele>
        <time>2012-08-10T11:55:33Z</time>
      </trkpt>
      <trkpt lat="45.42357" lon="6.19865">
        <ele>1624.2846679688</ele>
        <time>2012-08-10T11:55:39Z</time>
      </trkpt>
      <trkpt lat="45.42358" lon="6.19865">
        <ele>1623.8039550781</ele>
        <time>2012-08-10T11:55:49Z</time>
      </trkpt>
      <trkpt lat="45.42361" lon="6.19868">
        <ele>1624.2846679688</ele>
        <time>2012-08-10T11:55:55Z</time>
      </trkpt>
      <trkpt lat="45.42365" lon="6.19875">
        <ele>1626.6879882812</ele>
        <time>2012-08-10T11:56:03Z</time>
      </trkpt>
      <trkpt lat="45.42368" lon="6.19879">
        <ele>1627.6491699219</ele>
        <time>2012-08-10T11:56:11Z</time>
      </trkpt>
      <trkpt lat="45.42373" lon="6.19879">
        <ele>1630.052734375</ele>
        <time>2012-08-10T11:56:19Z</time>
      </trkpt>
      <trkpt lat="45.42376" lon="6.19877">
        <ele>1630.5334472656</ele>
        <time>2012-08-10T11:56:24Z</time>
      </trkpt>
      <trkpt lat="45.42381" lon="6.19871">
        <ele>1633.8979492188</ele>
        <time>2012-08-10T11:56:32Z</time>
      </trkpt>
      <trkpt lat="45.42382" lon="6.19867">
        <ele>1635.33984375</ele>
        <time>2012-08-10T11:56:34Z</time>
      </trkpt>
      <trkpt lat="45.42389" lon="6.19857">
        <ele>1640.146484375</ele>
        <time>2012-08-10T11:56:42Z</time>
      </trkpt>
      <trkpt lat="45.42394" lon="6.19862">
        <ele>1637.7431640625</ele>
        <time>2012-08-10T11:56:49Z</time>
      </trkpt>
      <trkpt lat="45.42393" lon="6.19865">
        <ele>1637.2624511719</ele>
        <time>2012-08-10T11:56:55Z</time>
      </trkpt>
      <trkpt lat="45.42391" lon="6.1987">
        <ele>1632.4560546875</ele>
        <time>2012-08-10T11:57:11Z</time>
      </trkpt>
      <trkpt lat="45.42387" lon="6.19877">
        <ele>1631.4946289062</ele>
        <time>2012-08-10T11:57:18Z</time>
      </trkpt>
      <trkpt lat="45.42386" lon="6.19881">
        <ele>1631.9753417969</ele>
        <time>2012-08-10T11:57:22Z</time>
      </trkpt>
      <trkpt lat="45.42384" lon="6.19885">
        <ele>1633.4172363281</ele>
        <time>2012-08-10T11:57:27Z</time>
      </trkpt>
      <trkpt lat="45.42383" lon="6.19889">
        <ele>1634.859375</ele>
        <time>2012-08-10T11:57:32Z</time>
      </trkpt>
      <trkpt lat="45.4238" lon="6.19898">
        <ele>1637.2624511719</ele>
        <time>2012-08-10T11:57:40Z</time>
      </trkpt>
      <trkpt lat="45.42381" lon="6.19904">
        <ele>1642.0690917969</ele>
        <time>2012-08-10T11:57:46Z</time>
      </trkpt>
      <trkpt lat="45.42382" lon="6.19908">
        <ele>1643.0302734375</ele>
        <time>2012-08-10T11:57:51Z</time>
      </trkpt>
      <trkpt lat="45.42383" lon="6.19914">
        <ele>1644.4724121094</ele>
        <time>2012-08-10T11:57:58Z</time>
      </trkpt>
      <trkpt lat="45.42384" lon="6.19917">
        <ele>1644.953125</ele>
        <time>2012-08-10T11:58:03Z</time>
      </trkpt>
      <trkpt lat="45.42386" lon="6.19917">
        <ele>1645.4338378906</ele>
        <time>2012-08-10T11:58:09Z</time>
      </trkpt>
      <trkpt lat="45.42389" lon="6.19913">
        <ele>1645.4338378906</ele>
        <time>2012-08-10T11:58:15Z</time>
      </trkpt>
      <trkpt lat="45.42392" lon="6.19911">
        <ele>1645.4338378906</ele>
        <time>2012-08-10T11:58:21Z</time>
      </trkpt>
      <trkpt lat="45.42397" lon="6.19905">
        <ele>1647.3564453125</ele>
        <time>2012-08-10T11:58:29Z</time>
      </trkpt>
      <trkpt lat="45.42402" lon="6.19902">
        <ele>1649.2790527344</ele>
        <time>2012-08-10T11:58:37Z</time>
      </trkpt>
      <trkpt lat="45.42405" lon="6.19901">
        <ele>1650.7209472656</ele>
        <time>2012-08-10T11:58:42Z</time>
      </trkpt>
      <trkpt lat="45.42409" lon="6.19897">
        <ele>1654.5661621094</ele>
        <time>2012-08-10T11:58:48Z</time>
      </trkpt>
      <trkpt lat="45.42413" lon="6.19893">
        <ele>1658.8920898438</ele>
        <time>2012-08-10T11:58:57Z</time>
      </trkpt>
      <trkpt lat="45.42417" lon="6.19891">
        <ele>1661.2956542969</ele>
        <time>2012-08-10T11:59:02Z</time>
      </trkpt>
      <trkpt lat="45.42421" lon="6.1989">
        <ele>1663.6987304688</ele>
        <time>2012-08-10T11:59:08Z</time>
      </trkpt>
      <trkpt lat="45.42425" lon="6.1989">
        <ele>1662.7375488281</ele>
        <time>2012-08-10T11:59:14Z</time>
      </trkpt>
      <trkpt lat="45.4243" lon="6.19889">
        <ele>1662.2568359375</ele>
        <time>2012-08-10T11:59:21Z</time>
      </trkpt>
      <trkpt lat="45.42433" lon="6.19891">
        <ele>1662.7375488281</ele>
        <time>2012-08-10T11:59:26Z</time>
      </trkpt>
      <trkpt lat="45.42435" lon="6.19893">
        <ele>1662.7375488281</ele>
        <time>2012-08-10T11:59:31Z</time>
      </trkpt>
      <trkpt lat="45.42441" lon="6.1989">
        <ele>1662.2568359375</ele>
        <time>2012-08-10T11:59:37Z</time>
      </trkpt>
      <trkpt lat="45.42446" lon="6.1989">
        <ele>1663.6987304688</ele>
        <time>2012-08-10T11:59:44Z</time>
      </trkpt>
      <trkpt lat="45.4245" lon="6.19889">
        <ele>1664.1794433594</ele>
        <time>2012-08-10T11:59:49Z</time>
      </trkpt>
      <trkpt lat="45.4245" lon="6.19898">
        <ele>1665.6215820312</ele>
        <time>2012-08-10T12:00:00Z</time>
      </trkpt>
      <trkpt lat="45.42448" lon="6.19903">
        <ele>1666.1020507812</ele>
        <time>2012-08-10T12:00:06Z</time>
      </trkpt>
      <trkpt lat="45.42447" lon="6.19905">
        <ele>1666.1020507812</ele>
        <time>2012-08-10T12:00:09Z</time>
      </trkpt>
      <trkpt lat="45.42443" lon="6.19911">
        <ele>1668.5053710938</ele>
        <time>2012-08-10T12:00:16Z</time>
      </trkpt>
      <trkpt lat="45.42442" lon="6.19917">
        <ele>1669.947265625</ele>
        <time>2012-08-10T12:00:23Z</time>
      </trkpt>
      <trkpt lat="45.42442" lon="6.1992">
        <ele>1670.9086914062</ele>
        <time>2012-08-10T12:00:27Z</time>
      </trkpt>
      <trkpt lat="45.42441" lon="6.19923">
        <ele>1671.3891601562</ele>
        <time>2012-08-10T12:00:31Z</time>
      </trkpt>
      <trkpt lat="45.4244" lon="6.19927">
        <ele>1670.9086914062</ele>
        <time>2012-08-10T12:00:36Z</time>
      </trkpt>
      <trkpt lat="45.42439" lon="6.1993">
        <ele>1670.9086914062</ele>
        <time>2012-08-10T12:00:41Z</time>
      </trkpt>
      <trkpt lat="45.42438" lon="6.19933">
        <ele>1672.3505859375</ele>
        <time>2012-08-10T12:00:46Z</time>
      </trkpt>
      <trkpt lat="45.42434" lon="6.1994">
        <ele>1673.3120117188</ele>
        <time>2012-08-10T12:00:54Z</time>
      </trkpt>
      <trkpt lat="45.42431" lon="6.19948">
        <ele>1674.75390625</ele>
        <time>2012-08-10T12:01:02Z</time>
      </trkpt>
      <trkpt lat="45.4243" lon="6.19958">
        <ele>1676.6767578125</ele>
        <time>2012-08-10T12:01:13Z</time>
      </trkpt>
      <trkpt lat="45.4243" lon="6.19961">
        <ele>1676.6767578125</ele>
        <time>2012-08-10T12:01:17Z</time>
      </trkpt>
      <trkpt lat="45.42431" lon="6.19966">
        <ele>1677.6379394531</ele>
        <time>2012-08-10T12:01:23Z</time>
      </trkpt>
      <trkpt lat="45.4243" lon="6.19971">
        <ele>1678.5993652344</ele>
        <time>2012-08-10T12:01:30Z</time>
      </trkpt>
      <trkpt lat="45.42433" lon="6.19977">
        <ele>1683.4057617188</ele>
        <time>2012-08-10T12:01:37Z</time>
      </trkpt>
      <trkpt lat="45.42434" lon="6.19981">
        <ele>1684.3671875</ele>
        <time>2012-08-10T12:01:41Z</time>
      </trkpt>
      <trkpt lat="45.42437" lon="6.1998">
        <ele>1686.2897949219</ele>
        <time>2012-08-10T12:01:47Z</time>
      </trkpt>
      <trkpt lat="45.4244" lon="6.19975">
        <ele>1688.2124023438</ele>
        <time>2012-08-10T12:01:54Z</time>
      </trkpt>
      <trkpt lat="45.42442" lon="6.19976">
        <ele>1689.654296875</ele>
        <time>2012-08-10T12:02:00Z</time>
      </trkpt>
      <trkpt lat="45.42445" lon="6.19979">
        <ele>1690.6154785156</ele>
        <time>2012-08-10T12:02:05Z</time>
      </trkpt>
      <trkpt lat="45.42445" lon="6.19983">
        <ele>1690.1350097656</ele>
        <time>2012-08-10T12:02:11Z</time>
      </trkpt>
      <trkpt lat="45.42444" lon="6.19986">
        <ele>1690.1350097656</ele>
        <time>2012-08-10T12:02:16Z</time>
      </trkpt>
      <trkpt lat="45.42444" lon="6.19992">
        <ele>1690.6154785156</ele>
        <time>2012-08-10T12:02:22Z</time>
      </trkpt>
      <trkpt lat="45.42447" lon="6.19995">
        <ele>1693.4997558594</ele>
        <time>2012-08-10T12:02:30Z</time>
      </trkpt>
      <trkpt lat="45.4245" lon="6.19993">
        <ele>1695.4223632812</ele>
        <time>2012-08-10T12:02:36Z</time>
      </trkpt>
      <trkpt lat="45.42453" lon="6.19989">
        <ele>1696.8642578125</ele>
        <time>2012-08-10T12:02:44Z</time>
      </trkpt>
      <trkpt lat="45.42455" lon="6.1999">
        <ele>1696.8642578125</ele>
        <time>2012-08-10T12:02:49Z</time>
      </trkpt>
      <trkpt lat="45.42456" lon="6.19993">
        <ele>1696.3837890625</ele>
        <time>2012-08-10T12:02:54Z</time>
      </trkpt>
      <trkpt lat="45.42459" lon="6.1999">
        <ele>1698.3061523438</ele>
        <time>2012-08-10T12:03:02Z</time>
      </trkpt>
      <trkpt lat="45.42463" lon="6.19991">
        <ele>1698.7868652344</ele>
        <time>2012-08-10T12:03:08Z</time>
      </trkpt>
      <trkpt lat="45.42462" lon="6.19993">
        <ele>1699.7482910156</ele>
        <time>2012-08-10T12:03:13Z</time>
      </trkpt>
      <trkpt lat="45.42463" lon="6.19997">
        <ele>1702.1513671875</ele>
        <time>2012-08-10T12:03:21Z</time>
      </trkpt>
      <trkpt lat="45.42464" lon="6.19999">
        <ele>1703.1127929688</ele>
        <time>2012-08-10T12:03:26Z</time>
      </trkpt>
      <trkpt lat="45.42467" lon="6.2">
        <ele>1703.1127929688</ele>
        <time>2012-08-10T12:03:33Z</time>
      </trkpt>
      <trkpt lat="45.42469" lon="6.2">
        <ele>1704.07421875</ele>
        <time>2012-08-10T12:03:38Z</time>
      </trkpt>
      <trkpt lat="45.42471" lon="6.20001">
        <ele>1704.5546875</ele>
        <time>2012-08-10T12:03:44Z</time>
      </trkpt>
      <trkpt lat="45.42473" lon="6.20004">
        <ele>1706.4772949219</ele>
        <time>2012-08-10T12:03:51Z</time>
      </trkpt>
      <trkpt lat="45.42475" lon="6.20007">
        <ele>1707.4387207031</ele>
        <time>2012-08-10T12:03:56Z</time>
      </trkpt>
      <trkpt lat="45.42476" lon="6.2001">
        <ele>1708.4001464844</ele>
        <time>2012-08-10T12:04:03Z</time>
      </trkpt>
      <trkpt lat="45.42478" lon="6.20014">
        <ele>1709.3615722656</ele>
        <time>2012-08-10T12:04:08Z</time>
      </trkpt>
      <trkpt lat="45.42477" lon="6.2002">
        <ele>1709.8420410156</ele>
        <time>2012-08-10T12:04:16Z</time>
      </trkpt>
      <trkpt lat="45.42476" lon="6.20023">
        <ele>1710.3227539062</ele>
        <time>2012-08-10T12:04:21Z</time>
      </trkpt>
      <trkpt lat="45.42474" lon="6.20027">
        <ele>1710.8034667969</ele>
        <time>2012-08-10T12:04:27Z</time>
      </trkpt>
      <trkpt lat="45.42472" lon="6.20033">
        <ele>1712.7260742188</ele>
        <time>2012-08-10T12:04:35Z</time>
      </trkpt>
      <trkpt lat="45.42471" lon="6.20037">
        <ele>1714.6486816406</ele>
        <time>2012-08-10T12:04:40Z</time>
      </trkpt>
      <trkpt lat="45.42469" lon="6.20043">
        <ele>1717.0520019531</ele>
        <time>2012-08-10T12:04:46Z</time>
      </trkpt>
      <trkpt lat="45.42469" lon="6.20048">
        <ele>1718.974609375</ele>
        <time>2012-08-10T12:04:52Z</time>
      </trkpt>
      <trkpt lat="45.42467" lon="6.20055">
        <ele>1720.4165039062</ele>
        <time>2012-08-10T12:05:00Z</time>
      </trkpt>
      <trkpt lat="45.42467" lon="6.20058">
        <ele>1721.8583984375</ele>
        <time>2012-08-10T12:05:04Z</time>
      </trkpt>
      <trkpt lat="45.42466" lon="6.20064">
        <ele>1724.2619628906</ele>
        <time>2012-08-10T12:05:10Z</time>
      </trkpt>
      <trkpt lat="45.42464" lon="6.20071">
        <ele>1725.2231445312</ele>
        <time>2012-08-10T12:05:18Z</time>
      </trkpt>
      <trkpt lat="45.42463" lon="6.20075">
        <ele>1725.2231445312</ele>
        <time>2012-08-10T12:05:23Z</time>
      </trkpt>
      <trkpt lat="45.42462" lon="6.2008">
        <ele>1725.7038574219</ele>
        <time>2012-08-10T12:05:29Z</time>
      </trkpt>
      <trkpt lat="45.4246" lon="6.20086">
        <ele>1726.6652832031</ele>
        <time>2012-08-10T12:05:36Z</time>
      </trkpt>
      <trkpt lat="45.42459" lon="6.20093">
        <ele>1727.6264648438</ele>
        <time>2012-08-10T12:05:42Z</time>
      </trkpt>
      <trkpt lat="45.42459" lon="6.20097">
        <ele>1730.0297851562</ele>
        <time>2012-08-10T12:05:49Z</time>
      </trkpt>
      <trkpt lat="45.4246" lon="6.20101">
        <ele>1730.9912109375</ele>
        <time>2012-08-10T12:05:56Z</time>
      </trkpt>
      <trkpt lat="45.42463" lon="6.20104">
        <ele>1732.9135742188</ele>
        <time>2012-08-10T12:06:04Z</time>
      </trkpt>
      <trkpt lat="45.42462" lon="6.20109">
        <ele>1734.3557128906</ele>
        <time>2012-08-10T12:06:11Z</time>
      </trkpt>
      <trkpt lat="45.4246" lon="6.20117">
        <ele>1737.2395019531</ele>
        <time>2012-08-10T12:06:22Z</time>
      </trkpt>
      <trkpt lat="45.42458" lon="6.20122">
        <ele>1737.2395019531</ele>
        <time>2012-08-10T12:06:30Z</time>
      </trkpt>
      <trkpt lat="45.42458" lon="6.20126">
        <ele>1738.2009277344</ele>
        <time>2012-08-10T12:06:34Z</time>
      </trkpt>
      <trkpt lat="45.42454" lon="6.2013">
        <ele>1739.162109375</ele>
        <time>2012-08-10T12:06:40Z</time>
      </trkpt>
      <trkpt lat="45.42449" lon="6.20133">
        <ele>1740.6042480469</ele>
        <time>2012-08-10T12:06:48Z</time>
      </trkpt>
      <trkpt lat="45.42446" lon="6.20137">
        <ele>1741.5656738281</ele>
        <time>2012-08-10T12:06:54Z</time>
      </trkpt>
      <trkpt lat="45.42443" lon="6.20139">
        <ele>1742.0463867188</ele>
        <time>2012-08-10T12:06:59Z</time>
      </trkpt>
      <trkpt lat="45.42438" lon="6.20142">
        <ele>1741.5656738281</ele>
        <time>2012-08-10T12:07:03Z</time>
      </trkpt>
      <trkpt lat="45.42433" lon="6.20146">
        <ele>1742.0463867188</ele>
        <time>2012-08-10T12:07:09Z</time>
      </trkpt>
      <trkpt lat="45.42428" lon="6.20146">
        <ele>1741.0849609375</ele>
        <time>2012-08-10T12:07:15Z</time>
      </trkpt>
      <trkpt lat="45.42424" lon="6.20146">
        <ele>1739.6428222656</ele>
        <time>2012-08-10T12:07:22Z</time>
      </trkpt>
      <trkpt lat="45.42421" lon="6.20146">
        <ele>1739.6428222656</ele>
        <time>2012-08-10T12:07:28Z</time>
      </trkpt>
      <trkpt lat="45.42418" lon="6.20147">
        <ele>1739.6428222656</ele>
        <time>2012-08-10T12:07:33Z</time>
      </trkpt>
      <trkpt lat="45.42413" lon="6.20147">
        <ele>1739.6428222656</ele>
        <time>2012-08-10T12:07:39Z</time>
      </trkpt>
      <trkpt lat="45.42411" lon="6.20146">
        <ele>1739.162109375</ele>
        <time>2012-08-10T12:07:45Z</time>
      </trkpt>
      <trkpt lat="45.42408" lon="6.20146">
        <ele>1738.681640625</ele>
        <time>2012-08-10T12:07:50Z</time>
      </trkpt>
      <trkpt lat="45.42405" lon="6.20148">
        <ele>1739.162109375</ele>
        <time>2012-08-10T12:07:54Z</time>
      </trkpt>
      <trkpt lat="45.424" lon="6.20149">
        <ele>1738.681640625</ele>
        <time>2012-08-10T12:08:00Z</time>
      </trkpt>
      <trkpt lat="45.42405" lon="6.20147">
        <ele>1739.162109375</ele>
        <time>2012-08-10T12:08:13Z</time>
      </trkpt>
      <trkpt lat="45.4241" lon="6.20151">
        <ele>1740.1237792969</ele>
        <time>2012-08-10T12:08:20Z</time>
      </trkpt>
      <trkpt lat="45.4241" lon="6.20152">
        <ele>1741.0849609375</ele>
        <time>2012-08-10T12:08:25Z</time>
      </trkpt>
      <trkpt lat="45.42412" lon="6.20154">
        <ele>1741.5656738281</ele>
        <time>2012-08-10T12:08:30Z</time>
      </trkpt>
      <trkpt lat="45.42415" lon="6.20153">
        <ele>1740.1237792969</ele>
        <time>2012-08-10T12:08:37Z</time>
      </trkpt>
      <trkpt lat="45.42419" lon="6.20152">
        <ele>1740.1237792969</ele>
        <time>2012-08-10T12:08:43Z</time>
      </trkpt>
      <trkpt lat="45.42423" lon="6.20154">
        <ele>1741.0849609375</ele>
        <time>2012-08-10T12:08:49Z</time>
      </trkpt>
      <trkpt lat="45.42426" lon="6.20155">
        <ele>1742.5270996094</ele>
        <time>2012-08-10T12:08:55Z</time>
      </trkpt>
      <trkpt lat="45.42428" lon="6.20159">
        <ele>1744.4494628906</ele>
        <time>2012-08-10T12:09:02Z</time>
      </trkpt>
      <trkpt lat="45.42434" lon="6.20159">
        <ele>1745.4108886719</ele>
        <time>2012-08-10T12:09:11Z</time>
      </trkpt>
      <trkpt lat="45.42437" lon="6.2016">
        <ele>1746.3723144531</ele>
        <time>2012-08-10T12:09:17Z</time>
      </trkpt>
      <trkpt lat="45.42441" lon="6.20162">
        <ele>1746.8527832031</ele>
        <time>2012-08-10T12:09:23Z</time>
      </trkpt>
      <trkpt lat="45.42445" lon="6.20165">
        <ele>1748.775390625</ele>
        <time>2012-08-10T12:09:28Z</time>
      </trkpt>
      <trkpt lat="45.42447" lon="6.20166">
        <ele>1748.2946777344</ele>
        <time>2012-08-10T12:09:34Z</time>
      </trkpt>
      <trkpt lat="45.42447" lon="6.20168">
        <ele>1747.3334960938</ele>
        <time>2012-08-10T12:09:41Z</time>
      </trkpt>
      <trkpt lat="45.42451" lon="6.20175">
        <ele>1749.7368164062</ele>
        <time>2012-08-10T12:09:53Z</time>
      </trkpt>
      <trkpt lat="45.42451" lon="6.20179">
        <ele>1751.6594238281</ele>
        <time>2012-08-10T12:09:59Z</time>
      </trkpt>
      <trkpt lat="45.4245" lon="6.20183">
        <ele>1753.1013183594</ele>
        <time>2012-08-10T12:10:05Z</time>
      </trkpt>
      <trkpt lat="45.42447" lon="6.20187">
        <ele>1753.58203125</ele>
        <time>2012-08-10T12:10:10Z</time>
      </trkpt>
      <trkpt lat="45.42445" lon="6.2019">
        <ele>1755.0239257812</ele>
        <time>2012-08-10T12:10:15Z</time>
      </trkpt>
      <trkpt lat="45.42443" lon="6.20195">
        <ele>1755.9851074219</ele>
        <time>2012-08-10T12:10:22Z</time>
      </trkpt>
      <trkpt lat="45.42443" lon="6.20198">
        <ele>1757.4274902344</ele>
        <time>2012-08-10T12:10:26Z</time>
      </trkpt>
      <trkpt lat="45.4244" lon="6.20201">
        <ele>1757.908203125</ele>
        <time>2012-08-10T12:10:30Z</time>
      </trkpt>
      <trkpt lat="45.42439" lon="6.20204">
        <ele>1757.4274902344</ele>
        <time>2012-08-10T12:10:36Z</time>
      </trkpt>
      <trkpt lat="45.42437" lon="6.20207">
        <ele>1759.3500976562</ele>
        <time>2012-08-10T12:10:41Z</time>
      </trkpt>
      <trkpt lat="45.4243" lon="6.20208">
        <ele>1760.7919921875</ele>
        <time>2012-08-10T12:10:50Z</time>
      </trkpt>
      <trkpt lat="45.42427" lon="6.20209">
        <ele>1761.7534179688</ele>
        <time>2012-08-10T12:10:55Z</time>
      </trkpt>
      <trkpt lat="45.42423" lon="6.2021">
        <ele>1763.1953125</ele>
        <time>2012-08-10T12:11:02Z</time>
      </trkpt>
      <trkpt lat="45.42419" lon="6.2021">
        <ele>1763.67578125</ele>
        <time>2012-08-10T12:11:07Z</time>
      </trkpt>
      <trkpt lat="45.4242" lon="6.20212">
        <ele>1765.5986328125</ele>
        <time>2012-08-10T12:11:12Z</time>
      </trkpt>
      <trkpt lat="45.42422" lon="6.20216">
        <ele>1766.0791015625</ele>
        <time>2012-08-10T12:11:18Z</time>
      </trkpt>
      <trkpt lat="45.42423" lon="6.20221">
        <ele>1766.0791015625</ele>
        <time>2012-08-10T12:11:24Z</time>
      </trkpt>
      <trkpt lat="45.42422" lon="6.20225">
        <ele>1767.0405273438</ele>
        <time>2012-08-10T12:11:29Z</time>
      </trkpt>
      <trkpt lat="45.42422" lon="6.20231">
        <ele>1768.0017089844</ele>
        <time>2012-08-10T12:11:36Z</time>
      </trkpt>
      <trkpt lat="45.42424" lon="6.20238">
        <ele>1769.4438476562</ele>
        <time>2012-08-10T12:11:43Z</time>
      </trkpt>
      <trkpt lat="45.42425" lon="6.20247">
        <ele>1770.4050292969</ele>
        <time>2012-08-10T12:11:52Z</time>
      </trkpt>
      <trkpt lat="45.42426" lon="6.20253">
        <ele>1772.3278808594</ele>
        <time>2012-08-10T12:11:59Z</time>
      </trkpt>
      <trkpt lat="45.42428" lon="6.20255">
        <ele>1773.7697753906</ele>
        <time>2012-08-10T12:12:06Z</time>
      </trkpt>
      <trkpt lat="45.4243" lon="6.20258">
        <ele>1774.7312011719</ele>
        <time>2012-08-10T12:12:12Z</time>
      </trkpt>
      <trkpt lat="45.4243" lon="6.20262">
        <ele>1775.6923828125</ele>
        <time>2012-08-10T12:12:18Z</time>
      </trkpt>
      <trkpt lat="45.42431" lon="6.20265">
        <ele>1778.095703125</ele>
        <time>2012-08-10T12:12:24Z</time>
      </trkpt>
      <trkpt lat="45.42434" lon="6.20267">
        <ele>1779.5375976562</ele>
        <time>2012-08-10T12:12:30Z</time>
      </trkpt>
      <trkpt lat="45.42436" lon="6.20269">
        <ele>1780.4990234375</ele>
        <time>2012-08-10T12:12:37Z</time>
      </trkpt>
      <trkpt lat="45.42437" lon="6.20271">
        <ele>1780.0183105469</ele>
        <time>2012-08-10T12:12:45Z</time>
      </trkpt>
      <trkpt lat="45.42439" lon="6.20273">
        <ele>1780.9797363281</ele>
        <time>2012-08-10T12:12:52Z</time>
      </trkpt>
      <trkpt lat="45.42441" lon="6.20275">
        <ele>1783.3828125</ele>
        <time>2012-08-10T12:12:59Z</time>
      </trkpt>
      <trkpt lat="45.42441" lon="6.20279">
        <ele>1784.8249511719</ele>
        <time>2012-08-10T12:13:07Z</time>
      </trkpt>
      <trkpt lat="45.42444" lon="6.20281">
        <ele>1787.7087402344</ele>
        <time>2012-08-10T12:13:16Z</time>
      </trkpt>
      <trkpt lat="45.42445" lon="6.20283">
        <ele>1788.6704101562</ele>
        <time>2012-08-10T12:13:23Z</time>
      </trkpt>
      <trkpt lat="45.42445" lon="6.20287">
        <ele>1789.1508789062</ele>
        <time>2012-08-10T12:13:30Z</time>
      </trkpt>
      <trkpt lat="45.42445" lon="6.2029">
        <ele>1790.1123046875</ele>
        <time>2012-08-10T12:13:36Z</time>
      </trkpt>
      <trkpt lat="45.42447" lon="6.20294">
        <ele>1790.5927734375</ele>
        <time>2012-08-10T12:13:43Z</time>
      </trkpt>
      <trkpt lat="45.42447" lon="6.20297">
        <ele>1790.5927734375</ele>
        <time>2012-08-10T12:13:48Z</time>
      </trkpt>
      <trkpt lat="45.42449" lon="6.20295">
        <ele>1790.1123046875</ele>
        <time>2012-08-10T12:13:54Z</time>
      </trkpt>
      <trkpt lat="45.42451" lon="6.203">
        <ele>1792.515625</ele>
        <time>2012-08-10T12:14:02Z</time>
      </trkpt>
      <trkpt lat="45.42453" lon="6.20302">
        <ele>1794.4379882812</ele>
        <time>2012-08-10T12:14:10Z</time>
      </trkpt>
      <trkpt lat="45.42457" lon="6.20303">
        <ele>1796.3608398438</ele>
        <time>2012-08-10T12:14:17Z</time>
      </trkpt>
      <trkpt lat="45.42459" lon="6.20309">
        <ele>1799.2446289062</ele>
        <time>2012-08-10T12:14:25Z</time>
      </trkpt>
      <trkpt lat="45.42461" lon="6.20315">
        <ele>1800.6865234375</ele>
        <time>2012-08-10T12:14:32Z</time>
      </trkpt>
      <trkpt lat="45.42466" lon="6.20322">
        <ele>1804.0515136719</ele>
        <time>2012-08-10T12:14:41Z</time>
      </trkpt>
      <trkpt lat="45.42468" lon="6.20325">
        <ele>1804.5319824219</ele>
        <time>2012-08-10T12:14:47Z</time>
      </trkpt>
      <trkpt lat="45.42469" lon="6.20331">
        <ele>1805.4934082031</ele>
        <time>2012-08-10T12:14:54Z</time>
      </trkpt>
      <trkpt lat="45.4247" lon="6.20335">
        <ele>1806.4545898438</ele>
        <time>2012-08-10T12:15:00Z</time>
      </trkpt>
      <trkpt lat="45.42473" lon="6.20337">
        <ele>1806.9353027344</ele>
        <time>2012-08-10T12:15:07Z</time>
      </trkpt>
      <trkpt lat="45.42476" lon="6.20336">
        <ele>1807.8967285156</ele>
        <time>2012-08-10T12:15:13Z</time>
      </trkpt>
      <trkpt lat="45.42479" lon="6.20335">
        <ele>1808.8579101562</ele>
        <time>2012-08-10T12:15:19Z</time>
      </trkpt>
      <trkpt lat="45.42481" lon="6.20332">
        <ele>1809.3386230469</ele>
        <time>2012-08-10T12:15:24Z</time>
      </trkpt>
      <trkpt lat="45.42484" lon="6.20333">
        <ele>1810.2998046875</ele>
        <time>2012-08-10T12:15:30Z</time>
      </trkpt>
      <trkpt lat="45.42486" lon="6.20336">
        <ele>1812.703125</ele>
        <time>2012-08-10T12:15:36Z</time>
      </trkpt>
      <trkpt lat="45.42489" lon="6.20342">
        <ele>1813.1838378906</ele>
        <time>2012-08-10T12:15:44Z</time>
      </trkpt>
      <trkpt lat="45.4249" lon="6.20346">
        <ele>1813.1838378906</ele>
        <time>2012-08-10T12:15:51Z</time>
      </trkpt>
      <trkpt lat="45.42492" lon="6.2035">
        <ele>1815.5871582031</ele>
        <time>2012-08-10T12:15:55Z</time>
      </trkpt>
      <trkpt lat="45.42493" lon="6.20353">
        <ele>1816.0676269531</ele>
        <time>2012-08-10T12:16:01Z</time>
      </trkpt>
      <trkpt lat="45.42495" lon="6.20356">
        <ele>1816.0676269531</ele>
        <time>2012-08-10T12:16:07Z</time>
      </trkpt>
      <trkpt lat="45.42495" lon="6.20359">
        <ele>1816.5483398438</ele>
        <time>2012-08-10T12:16:13Z</time>
      </trkpt>
      <trkpt lat="45.42497" lon="6.20365">
        <ele>1819.4323730469</ele>
        <time>2012-08-10T12:16:21Z</time>
      </trkpt>
      <trkpt lat="45.42498" lon="6.20368">
        <ele>1820.3937988281</ele>
        <time>2012-08-10T12:16:26Z</time>
      </trkpt>
      <trkpt lat="45.42498" lon="6.20372">
        <ele>1821.3549804688</ele>
        <time>2012-08-10T12:16:31Z</time>
      </trkpt>
      <trkpt lat="45.42498" lon="6.20376">
        <ele>1823.2778320312</ele>
        <time>2012-08-10T12:16:35Z</time>
      </trkpt>
      <trkpt lat="45.42498" lon="6.20378">
        <ele>1823.7583007812</ele>
        <time>2012-08-10T12:16:39Z</time>
      </trkpt>
      <trkpt lat="45.42495" lon="6.20381">
        <ele>1823.7583007812</ele>
        <time>2012-08-10T12:16:44Z</time>
      </trkpt>
      <trkpt lat="45.42498" lon="6.20387">
        <ele>1827.603515625</ele>
        <time>2012-08-10T12:16:54Z</time>
      </trkpt>
      <trkpt lat="45.425" lon="6.20388">
        <ele>1828.5649414062</ele>
        <time>2012-08-10T12:17:01Z</time>
      </trkpt>
      <trkpt lat="45.42501" lon="6.20391">
        <ele>1830.9682617188</ele>
        <time>2012-08-10T12:17:08Z</time>
      </trkpt>
      <trkpt lat="45.425" lon="6.20395">
        <ele>1831.4487304688</ele>
        <time>2012-08-10T12:17:19Z</time>
      </trkpt>
      <trkpt lat="45.42499" lon="6.20396">
        <ele>1832.41015625</ele>
        <time>2012-08-10T12:17:26Z</time>
      </trkpt>
      <trkpt lat="45.42498" lon="6.20399">
        <ele>1832.890625</ele>
        <time>2012-08-10T12:17:32Z</time>
      </trkpt>
      <trkpt lat="45.42501" lon="6.20399">
        <ele>1833.8520507812</ele>
        <time>2012-08-10T12:17:39Z</time>
      </trkpt>
      <trkpt lat="45.42502" lon="6.20402">
        <ele>1834.3327636719</ele>
        <time>2012-08-10T12:17:45Z</time>
      </trkpt>
      <trkpt lat="45.42502" lon="6.20405">
        <ele>1835.2939453125</ele>
        <time>2012-08-10T12:17:49Z</time>
      </trkpt>
      <trkpt lat="45.42503" lon="6.20409">
        <ele>1836.2556152344</ele>
        <time>2012-08-10T12:17:56Z</time>
      </trkpt>
      <trkpt lat="45.42502" lon="6.20412">
        <ele>1837.6975097656</ele>
        <time>2012-08-10T12:18:03Z</time>
      </trkpt>
      <trkpt lat="45.42503" lon="6.20416">
        <ele>1840.1008300781</ele>
        <time>2012-08-10T12:18:09Z</time>
      </trkpt>
      <trkpt lat="45.42505" lon="6.2042">
        <ele>1842.0234375</ele>
        <time>2012-08-10T12:18:17Z</time>
      </trkpt>
      <trkpt lat="45.42505" lon="6.20426">
        <ele>1843.4653320312</ele>
        <time>2012-08-10T12:18:24Z</time>
      </trkpt>
      <trkpt lat="45.42502" lon="6.20432">
        <ele>1842.0234375</ele>
        <time>2012-08-10T12:18:31Z</time>
      </trkpt>
      <trkpt lat="45.42504" lon="6.20439">
        <ele>1843.4653320312</ele>
        <time>2012-08-10T12:18:38Z</time>
      </trkpt>
      <trkpt lat="45.42507" lon="6.20443">
        <ele>1845.8686523438</ele>
        <time>2012-08-10T12:18:44Z</time>
      </trkpt>
      <trkpt lat="45.42508" lon="6.2045">
        <ele>1845.8686523438</ele>
        <time>2012-08-10T12:18:51Z</time>
      </trkpt>
      <trkpt lat="45.42512" lon="6.20459">
        <ele>1847.7912597656</ele>
        <time>2012-08-10T12:18:58Z</time>
      </trkpt>
      <trkpt lat="45.42514" lon="6.20462">
        <ele>1849.2331542969</ele>
        <time>2012-08-10T12:19:01Z</time>
      </trkpt>
      <trkpt lat="45.42517" lon="6.2047">
        <ele>1851.1557617188</ele>
        <time>2012-08-10T12:19:09Z</time>
      </trkpt>
      <trkpt lat="45.42519" lon="6.20479">
        <ele>1851.1557617188</ele>
        <time>2012-08-10T12:19:17Z</time>
      </trkpt>
      <trkpt lat="45.42521" lon="6.20482">
        <ele>1850.6750488281</ele>
        <time>2012-08-10T12:19:22Z</time>
      </trkpt>
      <trkpt lat="45.42523" lon="6.20485">
        <ele>1852.1171875</ele>
        <time>2012-08-10T12:19:28Z</time>
      </trkpt>
      <trkpt lat="45.42529" lon="6.20491">
        <ele>1854.5205078125</ele>
        <time>2012-08-10T12:19:38Z</time>
      </trkpt>
      <trkpt lat="45.42531" lon="6.20495">
        <ele>1855.4819335938</ele>
        <time>2012-08-10T12:19:43Z</time>
      </trkpt>
      <trkpt lat="45.42537" lon="6.20505">
        <ele>1857.8852539062</ele>
        <time>2012-08-10T12:19:53Z</time>
      </trkpt>
      <trkpt lat="45.42543" lon="6.20515">
        <ele>1858.8464355469</ele>
        <time>2012-08-10T12:20:01Z</time>
      </trkpt>
      <trkpt lat="45.42548" lon="6.20525">
        <ele>1860.2883300781</ele>
        <time>2012-08-10T12:20:07Z</time>
      </trkpt>
      <trkpt lat="45.42552" lon="6.20535">
        <ele>1860.2883300781</ele>
        <time>2012-08-10T12:20:14Z</time>
      </trkpt>
      <trkpt lat="45.42557" lon="6.20545">
        <ele>1861.2497558594</ele>
        <time>2012-08-10T12:20:23Z</time>
      </trkpt>
      <trkpt lat="45.4256" lon="6.20549">
        <ele>1862.2109375</ele>
        <time>2012-08-10T12:20:29Z</time>
      </trkpt>
      <trkpt lat="45.42564" lon="6.20554">
        <ele>1864.1335449219</ele>
        <time>2012-08-10T12:20:36Z</time>
      </trkpt>
      <trkpt lat="45.42571" lon="6.2056">
        <ele>1866.0561523438</ele>
        <time>2012-08-10T12:20:47Z</time>
      </trkpt>
      <trkpt lat="45.42575" lon="6.20563">
        <ele>1867.017578125</ele>
        <time>2012-08-10T12:20:54Z</time>
      </trkpt>
      <trkpt lat="45.42579" lon="6.20568">
        <ele>1867.498046875</ele>
        <time>2012-08-10T12:21:03Z</time>
      </trkpt>
      <trkpt lat="45.42582" lon="6.20573">
        <ele>1868.4597167969</ele>
        <time>2012-08-10T12:21:12Z</time>
      </trkpt>
      <trkpt lat="45.42586" lon="6.20578">
        <ele>1870.8630371094</ele>
        <time>2012-08-10T12:21:19Z</time>
      </trkpt>
      <trkpt lat="45.42588" lon="6.20584">
        <ele>1871.82421875</ele>
        <time>2012-08-10T12:21:26Z</time>
      </trkpt>
      <trkpt lat="45.42589" lon="6.20588">
        <ele>1872.3049316406</ele>
        <time>2012-08-10T12:21:31Z</time>
      </trkpt>
      <trkpt lat="45.42591" lon="6.20594">
        <ele>1873.2663574219</ele>
        <time>2012-08-10T12:21:38Z</time>
      </trkpt>
      <trkpt lat="45.42592" lon="6.20597">
        <ele>1874.2275390625</ele>
        <time>2012-08-10T12:21:43Z</time>
      </trkpt>
      <trkpt lat="45.42594" lon="6.20603">
        <ele>1877.1115722656</ele>
        <time>2012-08-10T12:21:50Z</time>
      </trkpt>
      <trkpt lat="45.42596" lon="6.20607">
        <ele>1877.5920410156</ele>
        <time>2012-08-10T12:21:56Z</time>
      </trkpt>
      <trkpt lat="45.42598" lon="6.20612">
        <ele>1879.0339355469</ele>
        <time>2012-08-10T12:22:03Z</time>
      </trkpt>
      <trkpt lat="45.42601" lon="6.20617">
        <ele>1880.4760742188</ele>
        <time>2012-08-10T12:22:10Z</time>
      </trkpt>
      <trkpt lat="45.42606" lon="6.20622">
        <ele>1883.8405761719</ele>
        <time>2012-08-10T12:22:18Z</time>
      </trkpt>
      <trkpt lat="45.42609" lon="6.20627">
        <ele>1884.3215332031</ele>
        <time>2012-08-10T12:22:26Z</time>
      </trkpt>
      <trkpt lat="45.42613" lon="6.20633">
        <ele>1886.724609375</ele>
        <time>2012-08-10T12:22:34Z</time>
      </trkpt>
      <trkpt lat="45.42615" lon="6.20633">
        <ele>1886.724609375</ele>
        <time>2012-08-10T12:22:40Z</time>
      </trkpt>
      <trkpt lat="45.42617" lon="6.20635">
        <ele>1887.6860351562</ele>
        <time>2012-08-10T12:22:46Z</time>
      </trkpt>
      <trkpt lat="45.42618" lon="6.20641">
        <ele>1888.1667480469</ele>
        <time>2012-08-10T12:22:53Z</time>
      </trkpt>
      <trkpt lat="45.42622" lon="6.20648">
        <ele>1888.6474609375</ele>
        <time>2012-08-10T12:23:01Z</time>
      </trkpt>
      <trkpt lat="45.42627" lon="6.20654">
        <ele>1890.0893554688</ele>
        <time>2012-08-10T12:23:09Z</time>
      </trkpt>
      <trkpt lat="45.42628" lon="6.20657">
        <ele>1890.5698242188</ele>
        <time>2012-08-10T12:23:13Z</time>
      </trkpt>
      <trkpt lat="45.42633" lon="6.20665">
        <ele>1892.0119628906</ele>
        <time>2012-08-10T12:23:23Z</time>
      </trkpt>
      <trkpt lat="45.42636" lon="6.20672">
        <ele>1893.4538574219</ele>
        <time>2012-08-10T12:23:31Z</time>
      </trkpt>
      <trkpt lat="45.4264" lon="6.20679">
        <ele>1894.4150390625</ele>
        <time>2012-08-10T12:23:38Z</time>
      </trkpt>
      <trkpt lat="45.42644" lon="6.20685">
        <ele>1895.8571777344</ele>
        <time>2012-08-10T12:23:45Z</time>
      </trkpt>
      <trkpt lat="45.42646" lon="6.2069">
        <ele>1895.8571777344</ele>
        <time>2012-08-10T12:23:52Z</time>
      </trkpt>
      <trkpt lat="45.4265" lon="6.20695">
        <ele>1897.2990722656</ele>
        <time>2012-08-10T12:23:59Z</time>
      </trkpt>
      <trkpt lat="45.42655" lon="6.20702">
        <ele>1898.7409667969</ele>
        <time>2012-08-10T12:24:06Z</time>
      </trkpt>
      <trkpt lat="45.4266" lon="6.20709">
        <ele>1901.14453125</ele>
        <time>2012-08-10T12:24:14Z</time>
      </trkpt>
      <trkpt lat="45.42662" lon="6.20715">
        <ele>1902.5864257812</ele>
        <time>2012-08-10T12:24:21Z</time>
      </trkpt>
      <trkpt lat="45.42665" lon="6.20721">
        <ele>1904.0285644531</ele>
        <time>2012-08-10T12:24:28Z</time>
      </trkpt>
      <trkpt lat="45.42669" lon="6.20727">
        <ele>1905.9509277344</ele>
        <time>2012-08-10T12:24:35Z</time>
      </trkpt>
      <trkpt lat="45.42672" lon="6.20733">
        <ele>1906.9123535156</ele>
        <time>2012-08-10T12:24:42Z</time>
      </trkpt>
      <trkpt lat="45.42675" lon="6.20739">
        <ele>1908.3542480469</ele>
        <time>2012-08-10T12:24:49Z</time>
      </trkpt>
      <trkpt lat="45.4268" lon="6.20747">
        <ele>1910.2768554688</ele>
        <time>2012-08-10T12:24:57Z</time>
      </trkpt>
      <trkpt lat="45.42684" lon="6.20755">
        <ele>1911.7189941406</ele>
        <time>2012-08-10T12:25:04Z</time>
      </trkpt>
      <trkpt lat="45.42689" lon="6.20764">
        <ele>1913.1608886719</ele>
        <time>2012-08-10T12:25:12Z</time>
      </trkpt>
      <trkpt lat="45.42695" lon="6.20773">
        <ele>1913.6413574219</ele>
        <time>2012-08-10T12:25:19Z</time>
      </trkpt>
      <trkpt lat="45.42702" lon="6.20781">
        <ele>1914.1220703125</ele>
        <time>2012-08-10T12:25:26Z</time>
      </trkpt>
      <trkpt lat="45.42708" lon="6.2079">
        <ele>1914.1220703125</ele>
        <time>2012-08-10T12:25:34Z</time>
      </trkpt>
      <trkpt lat="45.42716" lon="6.20803">
        <ele>1913.1608886719</ele>
        <time>2012-08-10T12:25:44Z</time>
      </trkpt>
      <trkpt lat="45.42722" lon="6.20815">
        <ele>1914.1220703125</ele>
        <time>2012-08-10T12:25:51Z</time>
      </trkpt>
      <trkpt lat="45.42724" lon="6.20829">
        <ele>1914.6027832031</ele>
        <time>2012-08-10T12:25:59Z</time>
      </trkpt>
      <trkpt lat="45.42725" lon="6.20839">
        <ele>1914.6027832031</ele>
        <time>2012-08-10T12:26:06Z</time>
      </trkpt>
      <trkpt lat="45.42725" lon="6.20848">
        <ele>1914.6027832031</ele>
        <time>2012-08-10T12:26:14Z</time>
      </trkpt>
      <trkpt lat="45.42727" lon="6.20858">
        <ele>1916.044921875</ele>
        <time>2012-08-10T12:26:22Z</time>
      </trkpt>
      <trkpt lat="45.42728" lon="6.20865">
        <ele>1917.0063476562</ele>
        <time>2012-08-10T12:26:29Z</time>
      </trkpt>
      <trkpt lat="45.42728" lon="6.20874">
        <ele>1917.9675292969</ele>
        <time>2012-08-10T12:26:36Z</time>
      </trkpt>
      <trkpt lat="45.42728" lon="6.20882">
        <ele>1917.9675292969</ele>
        <time>2012-08-10T12:26:43Z</time>
      </trkpt>
      <trkpt lat="45.4273" lon="6.2089">
        <ele>1919.8901367188</ele>
        <time>2012-08-10T12:26:51Z</time>
      </trkpt>
      <trkpt lat="45.4273" lon="6.20898">
        <ele>1920.8515625</ele>
        <time>2012-08-10T12:26:58Z</time>
      </trkpt>
      <trkpt lat="45.42732" lon="6.20904">
        <ele>1922.2934570312</ele>
        <time>2012-08-10T12:27:03Z</time>
      </trkpt>
      <trkpt lat="45.42736" lon="6.20914">
        <ele>1924.2160644531</ele>
        <time>2012-08-10T12:27:12Z</time>
      </trkpt>
      <trkpt lat="45.4274" lon="6.20919">
        <ele>1925.1772460938</ele>
        <time>2012-08-10T12:27:17Z</time>
      </trkpt>
      <trkpt lat="45.42745" lon="6.20928">
        <ele>1926.138671875</ele>
        <time>2012-08-10T12:27:24Z</time>
      </trkpt>
      <trkpt lat="45.42749" lon="6.20937">
        <ele>1928.0612792969</ele>
        <time>2012-08-10T12:27:33Z</time>
      </trkpt>
      <trkpt lat="45.42751" lon="6.20947">
        <ele>1930.4645996094</ele>
        <time>2012-08-10T12:27:41Z</time>
      </trkpt>
      <trkpt lat="45.42753" lon="6.20955">
        <ele>1930.9453125</ele>
        <time>2012-08-10T12:27:50Z</time>
      </trkpt>
      <trkpt lat="45.42756" lon="6.20962">
        <ele>1933.3486328125</ele>
        <time>2012-08-10T12:27:58Z</time>
      </trkpt>
      <trkpt lat="45.42759" lon="6.20968">
        <ele>1936.2326660156</ele>
        <time>2012-08-10T12:28:07Z</time>
      </trkpt>
      <trkpt lat="45.42759" lon="6.20974">
        <ele>1936.2326660156</ele>
        <time>2012-08-10T12:28:13Z</time>
      </trkpt>
      <trkpt lat="45.4276" lon="6.20984">
        <ele>1937.6745605469</ele>
        <time>2012-08-10T12:28:22Z</time>
      </trkpt>
      <trkpt lat="45.42765" lon="6.20992">
        <ele>1939.5971679688</ele>
        <time>2012-08-10T12:28:30Z</time>
      </trkpt>
      <trkpt lat="45.42767" lon="6.20998">
        <ele>1939.5971679688</ele>
        <time>2012-08-10T12:28:37Z</time>
      </trkpt>
      <trkpt lat="45.42769" lon="6.21003">
        <ele>1942.0004882812</ele>
        <time>2012-08-10T12:28:43Z</time>
      </trkpt>
      <trkpt lat="45.4277" lon="6.21009">
        <ele>1944.4035644531</ele>
        <time>2012-08-10T12:28:49Z</time>
      </trkpt>
      <trkpt lat="45.4277" lon="6.21013">
        <ele>1946.3264160156</ele>
        <time>2012-08-10T12:28:56Z</time>
      </trkpt>
      <trkpt lat="45.42772" lon="6.21016">
        <ele>1947.2875976562</ele>
        <time>2012-08-10T12:29:02Z</time>
      </trkpt>
      <trkpt lat="45.42772" lon="6.2102">
        <ele>1948.2490234375</ele>
        <time>2012-08-10T12:29:07Z</time>
      </trkpt>
      <trkpt lat="45.42772" lon="6.21025">
        <ele>1949.6911621094</ele>
        <time>2012-08-10T12:29:13Z</time>
      </trkpt>
      <trkpt lat="45.42773" lon="6.21028">
        <ele>1951.1330566406</ele>
        <time>2012-08-10T12:29:20Z</time>
      </trkpt>
      <trkpt lat="45.42773" lon="6.21032">
        <ele>1952.0942382812</ele>
        <time>2012-08-10T12:29:26Z</time>
      </trkpt>
      <trkpt lat="45.42774" lon="6.21037">
        <ele>1954.4975585938</ele>
        <time>2012-08-10T12:29:34Z</time>
      </trkpt>
      <trkpt lat="45.42773" lon="6.21043">
        <ele>1956.4201660156</ele>
        <time>2012-08-10T12:29:39Z</time>
      </trkpt>
      <trkpt lat="45.42772" lon="6.21048">
        <ele>1956.9008789062</ele>
        <time>2012-08-10T12:29:45Z</time>
      </trkpt>
      <trkpt lat="45.4277" lon="6.21053">
        <ele>1959.7846679688</ele>
        <time>2012-08-10T12:29:49Z</time>
      </trkpt>
      <trkpt lat="45.4277" lon="6.21059">
        <ele>1962.1879882812</ele>
        <time>2012-08-10T12:29:55Z</time>
      </trkpt>
      <trkpt lat="45.4277" lon="6.21063">
        <ele>1961.7075195312</ele>
        <time>2012-08-10T12:30:02Z</time>
      </trkpt>
      <trkpt lat="45.42775" lon="6.21062">
        <ele>1962.6687011719</ele>
        <time>2012-08-10T12:30:09Z</time>
      </trkpt>
      <trkpt lat="45.4278" lon="6.21063">
        <ele>1964.1108398438</ele>
        <time>2012-08-10T12:30:16Z</time>
      </trkpt>
      <trkpt lat="45.42782" lon="6.21064">
        <ele>1964.5915527344</ele>
        <time>2012-08-10T12:30:22Z</time>
      </trkpt>
      <trkpt lat="45.42781" lon="6.2107">
        <ele>1965.5529785156</ele>
        <time>2012-08-10T12:30:30Z</time>
      </trkpt>
      <trkpt lat="45.42782" lon="6.21073">
        <ele>1967.4753417969</ele>
        <time>2012-08-10T12:30:35Z</time>
      </trkpt>
      <trkpt lat="45.42782" lon="6.21079">
        <ele>1969.3981933594</ele>
        <time>2012-08-10T12:30:40Z</time>
      </trkpt>
      <trkpt lat="45.42783" lon="6.21083">
        <ele>1970.359375</ele>
        <time>2012-08-10T12:30:44Z</time>
      </trkpt>
      <trkpt lat="45.42785" lon="6.21084">
        <ele>1970.8400878906</ele>
        <time>2012-08-10T12:30:49Z</time>
      </trkpt>
      <trkpt lat="45.42786" lon="6.21088">
        <ele>1971.8012695312</ele>
        <time>2012-08-10T12:30:54Z</time>
      </trkpt>
      <trkpt lat="45.42786" lon="6.21092">
        <ele>1972.7626953125</ele>
        <time>2012-08-10T12:31:00Z</time>
      </trkpt>
      <trkpt lat="45.42784" lon="6.21097">
        <ele>1973.7238769531</ele>
        <time>2012-08-10T12:31:08Z</time>
      </trkpt>
      <trkpt lat="45.42782" lon="6.21101">
        <ele>1974.6853027344</ele>
        <time>2012-08-10T12:31:13Z</time>
      </trkpt>
      <trkpt lat="45.42785" lon="6.21105">
        <ele>1976.6079101562</ele>
        <time>2012-08-10T12:31:19Z</time>
      </trkpt>
      <trkpt lat="45.42787" lon="6.2111">
        <ele>1978.0498046875</ele>
        <time>2012-08-10T12:31:24Z</time>
      </trkpt>
      <trkpt lat="45.42784" lon="6.21113">
        <ele>1978.0498046875</ele>
        <time>2012-08-10T12:31:30Z</time>
      </trkpt>
      <trkpt lat="45.42787" lon="6.21116">
        <ele>1979.4916992188</ele>
        <time>2012-08-10T12:31:36Z</time>
      </trkpt>
      <trkpt lat="45.42793" lon="6.21116">
        <ele>1981.4145507812</ele>
        <time>2012-08-10T12:31:43Z</time>
      </trkpt>
      <trkpt lat="45.42795" lon="6.21121">
        <ele>1982.3759765625</ele>
        <time>2012-08-10T12:31:49Z</time>
      </trkpt>
      <trkpt lat="45.42796" lon="6.21128">
        <ele>1985.259765625</ele>
        <time>2012-08-10T12:31:56Z</time>
      </trkpt>
      <trkpt lat="45.42797" lon="6.21134">
        <ele>1987.1823730469</ele>
        <time>2012-08-10T12:32:03Z</time>
      </trkpt>
      <trkpt lat="45.42803" lon="6.21137">
        <ele>1989.1049804688</ele>
        <time>2012-08-10T12:32:11Z</time>
      </trkpt>
      <trkpt lat="45.42803" lon="6.21137">
        <ele>1990.06640625</ele>
        <time>2012-08-10T12:32:18Z</time>
      </trkpt>
      <trkpt lat="45.42804" lon="6.21138">
        <ele>1991.5083007812</ele>
        <time>2012-08-10T12:32:25Z</time>
      </trkpt>
      <trkpt lat="45.42808" lon="6.21135">
        <ele>1991.9890136719</ele>
        <time>2012-08-10T12:32:31Z</time>
      </trkpt>
      <trkpt lat="45.4281" lon="6.21139">
        <ele>1991.5083007812</ele>
        <time>2012-08-10T12:32:36Z</time>
      </trkpt>
      <trkpt lat="45.42809" lon="6.21148">
        <ele>1991.0275878906</ele>
        <time>2012-08-10T12:32:43Z</time>
      </trkpt>
      <trkpt lat="45.42813" lon="6.21149">
        <ele>1989.5856933594</ele>
        <time>2012-08-10T12:32:48Z</time>
      </trkpt>
      <trkpt lat="45.42819" lon="6.2115">
        <ele>1989.5856933594</ele>
        <time>2012-08-10T12:32:53Z</time>
      </trkpt>
      <trkpt lat="45.42825" lon="6.21152">
        <ele>1987.6630859375</ele>
        <time>2012-08-10T12:32:58Z</time>
      </trkpt>
      <trkpt lat="45.42835" lon="6.21153">
        <ele>1984.779296875</ele>
        <time>2012-08-10T12:33:04Z</time>
      </trkpt>
      <trkpt lat="45.42847" lon="6.21159">
        <ele>1985.7404785156</ele>
        <time>2012-08-10T12:33:12Z</time>
      </trkpt>
      <trkpt lat="45.42854" lon="6.21164">
        <ele>1984.779296875</ele>
        <time>2012-08-10T12:33:16Z</time>
      </trkpt>
      <trkpt lat="45.42859" lon="6.21166">
        <ele>1983.3371582031</ele>
        <time>2012-08-10T12:33:20Z</time>
      </trkpt>
      <trkpt lat="45.42873" lon="6.21176">
        <ele>1981.4145507812</ele>
        <time>2012-08-10T12:33:27Z</time>
      </trkpt>
      <trkpt lat="45.4288" lon="6.21178">
        <ele>1981.4145507812</ele>
        <time>2012-08-10T12:33:30Z</time>
      </trkpt>
      <trkpt lat="45.42887" lon="6.21186">
        <ele>1977.5690917969</ele>
        <time>2012-08-10T12:33:36Z</time>
      </trkpt>
      <trkpt lat="45.42894" lon="6.21194">
        <ele>1975.646484375</ele>
        <time>2012-08-10T12:33:41Z</time>
      </trkpt>
      <trkpt lat="45.42902" lon="6.21204">
        <ele>1972.2819824219</ele>
        <time>2012-08-10T12:33:47Z</time>
      </trkpt>
      <trkpt lat="45.42912" lon="6.21213">
        <ele>1971.3205566406</ele>
        <time>2012-08-10T12:33:55Z</time>
      </trkpt>
      <trkpt lat="45.42919" lon="6.21217">
        <ele>1970.359375</ele>
        <time>2012-08-10T12:33:59Z</time>
      </trkpt>
      <trkpt lat="45.42929" lon="6.21223">
        <ele>1969.3981933594</ele>
        <time>2012-08-10T12:34:07Z</time>
      </trkpt>
      <trkpt lat="45.42934" lon="6.21226">
        <ele>1966.9948730469</ele>
        <time>2012-08-10T12:34:10Z</time>
      </trkpt>
      <trkpt lat="45.42944" lon="6.21232">
        <ele>1965.072265625</ele>
        <time>2012-08-10T12:34:15Z</time>
      </trkpt>
      <trkpt lat="45.42954" lon="6.21237">
        <ele>1964.1108398438</ele>
        <time>2012-08-10T12:34:21Z</time>
      </trkpt>
      <trkpt lat="45.42962" lon="6.21242">
        <ele>1964.5915527344</ele>
        <time>2012-08-10T12:34:26Z</time>
      </trkpt>
      <trkpt lat="45.42964" lon="6.21242">
        <ele>1964.1108398438</ele>
        <time>2012-08-10T12:34:30Z</time>
      </trkpt>
      <trkpt lat="45.42965" lon="6.21241">
        <ele>1963.6298828125</ele>
        <time>2012-08-10T12:34:32Z</time>
      </trkpt>
      <trkpt lat="45.42976" lon="6.21242">
        <ele>1963.6298828125</ele>
        <time>2012-08-10T12:34:37Z</time>
      </trkpt>
      <trkpt lat="45.42985" lon="6.2125">
        <ele>1962.6687011719</ele>
        <time>2012-08-10T12:34:41Z</time>
      </trkpt>
      <trkpt lat="45.42994" lon="6.21255">
        <ele>1962.6687011719</ele>
        <time>2012-08-10T12:34:45Z</time>
      </trkpt>
      <trkpt lat="45.42997" lon="6.21257">
        <ele>1958.3427734375</ele>
        <time>2012-08-10T12:34:49Z</time>
      </trkpt>
      <trkpt lat="45.43002" lon="6.21263">
        <ele>1956.4201660156</ele>
        <time>2012-08-10T12:34:55Z</time>
      </trkpt>
      <trkpt lat="45.43011" lon="6.2127">
        <ele>1954.9782714844</ele>
        <time>2012-08-10T12:35:01Z</time>
      </trkpt>
      <trkpt lat="45.43019" lon="6.21276">
        <ele>1957.3815917969</ele>
        <time>2012-08-10T12:35:07Z</time>
      </trkpt>
      <trkpt lat="45.4302" lon="6.21276">
        <ele>1957.3815917969</ele>
        <time>2012-08-10T12:35:08Z</time>
      </trkpt>
      <trkpt lat="45.43024" lon="6.21283">
        <ele>1956.4201660156</ele>
        <time>2012-08-10T12:35:12Z</time>
      </trkpt>
      <trkpt lat="45.43034" lon="6.21289">
        <ele>1955.458984375</ele>
        <time>2012-08-10T12:35:17Z</time>
      </trkpt>
      <trkpt lat="45.43039" lon="6.21294">
        <ele>1955.939453125</ele>
        <time>2012-08-10T12:35:21Z</time>
      </trkpt>
      <trkpt lat="45.43043" lon="6.21298">
        <ele>1954.9782714844</ele>
        <time>2012-08-10T12:35:25Z</time>
      </trkpt>
      <trkpt lat="45.43052" lon="6.21301">
        <ele>1953.0556640625</ele>
        <time>2012-08-10T12:35:32Z</time>
      </trkpt>
      <trkpt lat="45.43059" lon="6.21307">
        <ele>1949.6911621094</ele>
        <time>2012-08-10T12:35:37Z</time>
      </trkpt>
      <trkpt lat="45.43067" lon="6.21311">
        <ele>1947.7683105469</ele>
        <time>2012-08-10T12:35:41Z</time>
      </trkpt>
      <trkpt lat="45.43073" lon="6.21313">
        <ele>1947.7683105469</ele>
        <time>2012-08-10T12:35:45Z</time>
      </trkpt>
      <trkpt lat="45.43081" lon="6.21311">
        <ele>1948.2490234375</ele>
        <time>2012-08-10T12:35:50Z</time>
      </trkpt>
      <trkpt lat="45.43089" lon="6.21309">
        <ele>1947.2875976562</ele>
        <time>2012-08-10T12:35:54Z</time>
      </trkpt>
      <trkpt lat="45.43101" lon="6.21306">
        <ele>1947.7683105469</ele>
        <time>2012-08-10T12:36:00Z</time>
      </trkpt>
      <trkpt lat="45.43108" lon="6.21304">
        <ele>1948.7297363281</ele>
        <time>2012-08-10T12:36:04Z</time>
      </trkpt>
      <trkpt lat="45.43118" lon="6.21303">
        <ele>1949.2104492188</ele>
        <time>2012-08-10T12:36:11Z</time>
      </trkpt>
      <trkpt lat="45.43124" lon="6.21303">
        <ele>1948.2490234375</ele>
        <time>2012-08-10T12:36:15Z</time>
      </trkpt>
      <trkpt lat="45.43131" lon="6.21298">
        <ele>1947.7683105469</ele>
        <time>2012-08-10T12:36:21Z</time>
      </trkpt>
      <trkpt lat="45.43132" lon="6.21297">
        <ele>1947.7683105469</ele>
        <time>2012-08-10T12:36:22Z</time>
      </trkpt>
      <trkpt lat="45.43141" lon="6.21292">
        <ele>1947.2875976562</ele>
        <time>2012-08-10T12:36:28Z</time>
      </trkpt>
      <trkpt lat="45.43143" lon="6.2129">
        <ele>1945.845703125</ele>
        <time>2012-08-10T12:36:30Z</time>
      </trkpt>
      <trkpt lat="45.43146" lon="6.21289">
        <ele>1944.8842773438</ele>
        <time>2012-08-10T12:36:35Z</time>
      </trkpt>
      <trkpt lat="45.43153" lon="6.21287">
        <ele>1943.9230957031</ele>
        <time>2012-08-10T12:36:42Z</time>
      </trkpt>
      <trkpt lat="45.43163" lon="6.21289">
        <ele>1944.8842773438</ele>
        <time>2012-08-10T12:36:49Z</time>
      </trkpt>
      <trkpt lat="45.43169" lon="6.21294">
        <ele>1945.3649902344</ele>
        <time>2012-08-10T12:36:54Z</time>
      </trkpt>
      <trkpt lat="45.43172" lon="6.21299">
        <ele>1944.4035644531</ele>
        <time>2012-08-10T12:36:58Z</time>
      </trkpt>
      <trkpt lat="45.43173" lon="6.21302">
        <ele>1943.9230957031</ele>
        <time>2012-08-10T12:37:00Z</time>
      </trkpt>
      <trkpt lat="45.43178" lon="6.21306">
        <ele>1942.0004882812</ele>
        <time>2012-08-10T12:37:05Z</time>
      </trkpt>
      <trkpt lat="45.43184" lon="6.21311">
        <ele>1940.0778808594</ele>
        <time>2012-08-10T12:37:12Z</time>
      </trkpt>
      <trkpt lat="45.43189" lon="6.21313">
        <ele>1939.5971679688</ele>
        <time>2012-08-10T12:37:17Z</time>
      </trkpt>
      <trkpt lat="45.4319" lon="6.21312">
        <ele>1938.6359863281</ele>
        <time>2012-08-10T12:37:18Z</time>
      </trkpt>
      <trkpt lat="45.43196" lon="6.21311">
        <ele>1940.5583496094</ele>
        <time>2012-08-10T12:37:25Z</time>
      </trkpt>
      <trkpt lat="45.43204" lon="6.21304">
        <ele>1938.6359863281</ele>
        <time>2012-08-10T12:37:33Z</time>
      </trkpt>
      <trkpt lat="45.43211" lon="6.21302">
        <ele>1937.6745605469</ele>
        <time>2012-08-10T12:37:38Z</time>
      </trkpt>
      <trkpt lat="45.43219" lon="6.21302">
        <ele>1937.1938476562</ele>
        <time>2012-08-10T12:37:44Z</time>
      </trkpt>
      <trkpt lat="45.43232" lon="6.21303">
        <ele>1939.5971679688</ele>
        <time>2012-08-10T12:37:50Z</time>
      </trkpt>
      <trkpt lat="45.43237" lon="6.21301">
        <ele>1937.1938476562</ele>
        <time>2012-08-10T12:37:54Z</time>
      </trkpt>
      <trkpt lat="45.43237" lon="6.21301">
        <ele>1936.7131347656</ele>
        <time>2012-08-10T12:37:55Z</time>
      </trkpt>
      <trkpt lat="45.43241" lon="6.21302">
        <ele>1934.7907714844</ele>
        <time>2012-08-10T12:37:58Z</time>
      </trkpt>
      <trkpt lat="45.43247" lon="6.21303">
        <ele>1933.8293457031</ele>
        <time>2012-08-10T12:38:03Z</time>
      </trkpt>
      <trkpt lat="45.43256" lon="6.21303">
        <ele>1933.8293457031</ele>
        <time>2012-08-10T12:38:08Z</time>
      </trkpt>
      <trkpt lat="45.43258" lon="6.21307">
        <ele>1932.3874511719</ele>
        <time>2012-08-10T12:38:11Z</time>
      </trkpt>
      <trkpt lat="45.43261" lon="6.2131">
        <ele>1933.3486328125</ele>
        <time>2012-08-10T12:38:14Z</time>
      </trkpt>
      <trkpt lat="45.43263" lon="6.21319">
        <ele>1933.3486328125</ele>
        <time>2012-08-10T12:38:19Z</time>
      </trkpt>
      <trkpt lat="45.43265" lon="6.21326">
        <ele>1932.3874511719</ele>
        <time>2012-08-10T12:38:23Z</time>
      </trkpt>
      <trkpt lat="45.43266" lon="6.21329">
        <ele>1931.42578125</ele>
        <time>2012-08-10T12:38:25Z</time>
      </trkpt>
      <trkpt lat="45.43271" lon="6.21342">
        <ele>1929.9838867188</ele>
        <time>2012-08-10T12:38:31Z</time>
      </trkpt>
      <trkpt lat="45.43275" lon="6.21352">
        <ele>1929.5031738281</ele>
        <time>2012-08-10T12:38:35Z</time>
      </trkpt>
      <trkpt lat="45.43277" lon="6.21364">
        <ele>1927.1000976562</ele>
        <time>2012-08-10T12:38:41Z</time>
      </trkpt>
      <trkpt lat="45.43282" lon="6.21368">
        <ele>1925.1772460938</ele>
        <time>2012-08-10T12:38:45Z</time>
      </trkpt>
      <trkpt lat="45.43283" lon="6.21369">
        <ele>1925.1772460938</ele>
        <time>2012-08-10T12:38:46Z</time>
      </trkpt>
      <trkpt lat="45.43289" lon="6.21372">
        <ele>1924.2160644531</ele>
        <time>2012-08-10T12:38:51Z</time>
      </trkpt>
      <trkpt lat="45.43292" lon="6.21377">
        <ele>1923.2548828125</ele>
        <time>2012-08-10T12:38:56Z</time>
      </trkpt>
      <trkpt lat="45.433" lon="6.21378">
        <ele>1922.2934570312</ele>
        <time>2012-08-10T12:39:01Z</time>
      </trkpt>
      <trkpt lat="45.43309" lon="6.21378">
        <ele>1922.2934570312</ele>
        <time>2012-08-10T12:39:07Z</time>
      </trkpt>
      <trkpt lat="45.43313" lon="6.21378">
        <ele>1921.8127441406</ele>
        <time>2012-08-10T12:39:09Z</time>
      </trkpt>
      <trkpt lat="45.43322" lon="6.21375">
        <ele>1920.8515625</ele>
        <time>2012-08-10T12:39:13Z</time>
      </trkpt>
      <trkpt lat="45.43332" lon="6.21373">
        <ele>1918.9289550781</ele>
        <time>2012-08-10T12:39:18Z</time>
      </trkpt>
      <trkpt lat="45.43335" lon="6.21371">
        <ele>1917.4868164062</ele>
        <time>2012-08-10T12:39:20Z</time>
      </trkpt>
      <trkpt lat="45.43346" lon="6.21375">
        <ele>1914.1220703125</ele>
        <time>2012-08-10T12:39:26Z</time>
      </trkpt>
      <trkpt lat="45.43349" lon="6.21376">
        <ele>1916.044921875</ele>
        <time>2012-08-10T12:39:27Z</time>
      </trkpt>
      <trkpt lat="45.43355" lon="6.2138">
        <ele>1917.0063476562</ele>
        <time>2012-08-10T12:39:32Z</time>
      </trkpt>
      <trkpt lat="45.43356" lon="6.21382">
        <ele>1917.0063476562</ele>
        <time>2012-08-10T12:39:33Z</time>
      </trkpt>
      <trkpt lat="45.43359" lon="6.21387">
        <ele>1914.1220703125</ele>
        <time>2012-08-10T12:39:37Z</time>
      </trkpt>
      <trkpt lat="45.43361" lon="6.21391">
        <ele>1913.1608886719</ele>
        <time>2012-08-10T12:39:40Z</time>
      </trkpt>
      <trkpt lat="45.43365" lon="6.21398">
        <ele>1910.2768554688</ele>
        <time>2012-08-10T12:39:46Z</time>
      </trkpt>
      <trkpt lat="45.43372" lon="6.21398">
        <ele>1910.2768554688</ele>
        <time>2012-08-10T12:39:52Z</time>
      </trkpt>
      <trkpt lat="45.43376" lon="6.21399">
        <ele>1909.3156738281</ele>
        <time>2012-08-10T12:39:56Z</time>
      </trkpt>
      <trkpt lat="45.43383" lon="6.21402">
        <ele>1907.8737792969</ele>
        <time>2012-08-10T12:40:01Z</time>
      </trkpt>
      <trkpt lat="45.43388" lon="6.21404">
        <ele>1907.8737792969</ele>
        <time>2012-08-10T12:40:04Z</time>
      </trkpt>
      <trkpt lat="45.43397" lon="6.21411">
        <ele>1906.9123535156</ele>
        <time>2012-08-10T12:40:10Z</time>
      </trkpt>
      <trkpt lat="45.43398" lon="6.21412">
        <ele>1906.9123535156</ele>
        <time>2012-08-10T12:40:11Z</time>
      </trkpt>
      <trkpt lat="45.43406" lon="6.21419">
        <ele>1902.5864257812</ele>
        <time>2012-08-10T12:40:18Z</time>
      </trkpt>
      <trkpt lat="45.43415" lon="6.21426">
        <ele>1902.1057128906</ele>
        <time>2012-08-10T12:40:23Z</time>
      </trkpt>
      <trkpt lat="45.43424" lon="6.21434">
        <ele>1898.7409667969</ele>
        <time>2012-08-10T12:40:28Z</time>
      </trkpt>
      <trkpt lat="45.43425" lon="6.21435">
        <ele>1897.7797851562</ele>
        <time>2012-08-10T12:40:29Z</time>
      </trkpt>
      <trkpt lat="45.4343" lon="6.21439">
        <ele>1894.4150390625</ele>
        <time>2012-08-10T12:40:33Z</time>
      </trkpt>
      <trkpt lat="45.43431" lon="6.21441">
        <ele>1894.4150390625</ele>
        <time>2012-08-10T12:40:34Z</time>
      </trkpt>
      <trkpt lat="45.43437" lon="6.21449">
        <ele>1892.4926757812</ele>
        <time>2012-08-10T12:40:39Z</time>
      </trkpt>
      <trkpt lat="45.43438" lon="6.21452">
        <ele>1891.0505371094</ele>
        <time>2012-08-10T12:40:41Z</time>
      </trkpt>
      <trkpt lat="45.43438" lon="6.21455">
        <ele>1889.6086425781</ele>
        <time>2012-08-10T12:40:43Z</time>
      </trkpt>
      <trkpt lat="45.43438" lon="6.21466">
        <ele>1886.244140625</ele>
        <time>2012-08-10T12:40:48Z</time>
      </trkpt>
      <trkpt lat="45.43443" lon="6.21476">
        <ele>1883.8405761719</ele>
        <time>2012-08-10T12:40:54Z</time>
      </trkpt>
      <trkpt lat="45.43449" lon="6.21485">
        <ele>1881.91796875</ele>
        <time>2012-08-10T12:40:58Z</time>
      </trkpt>
      <trkpt lat="45.43459" lon="6.21498">
        <ele>1881.4372558594</ele>
        <time>2012-08-10T12:41:04Z</time>
      </trkpt>
      <trkpt lat="45.43462" lon="6.21501">
        <ele>1881.4372558594</ele>
        <time>2012-08-10T12:41:08Z</time>
      </trkpt>
      <trkpt lat="45.43464" lon="6.21501">
        <ele>1882.3986816406</ele>
        <time>2012-08-10T12:41:14Z</time>
      </trkpt>
      <trkpt lat="45.43462" lon="6.21501">
        <ele>1882.3986816406</ele>
        <time>2012-08-10T12:41:24Z</time>
      </trkpt>
      <trkpt lat="45.43461" lon="6.21506">
        <ele>1882.3986816406</ele>
        <time>2012-08-10T12:41:29Z</time>
      </trkpt>
      <trkpt lat="45.43467" lon="6.21511">
        <ele>1882.3986816406</ele>
        <time>2012-08-10T12:41:34Z</time>
      </trkpt>
      <trkpt lat="45.43469" lon="6.21513">
        <ele>1882.3986816406</ele>
        <time>2012-08-10T12:41:36Z</time>
      </trkpt>
      <trkpt lat="45.43473" lon="6.2152">
        <ele>1881.4372558594</ele>
        <time>2012-08-10T12:41:41Z</time>
      </trkpt>
      <trkpt lat="45.43481" lon="6.21528">
        <ele>1880.4760742188</ele>
        <time>2012-08-10T12:41:48Z</time>
      </trkpt>
      <trkpt lat="45.43488" lon="6.21533">
        <ele>1878.0727539062</ele>
        <time>2012-08-10T12:41:54Z</time>
      </trkpt>
      <trkpt lat="45.4349" lon="6.21535">
        <ele>1877.5920410156</ele>
        <time>2012-08-10T12:41:58Z</time>
      </trkpt>
      <trkpt lat="45.43499" lon="6.21544">
        <ele>1876.1501464844</ele>
        <time>2012-08-10T12:42:06Z</time>
      </trkpt>
      <trkpt lat="45.43502" lon="6.21549">
        <ele>1874.7082519531</ele>
        <time>2012-08-10T12:42:10Z</time>
      </trkpt>
      <trkpt lat="45.43506" lon="6.21555">
        <ele>1871.3435058594</ele>
        <time>2012-08-10T12:42:16Z</time>
      </trkpt>
      <trkpt lat="45.43512" lon="6.21566">
        <ele>1869.4211425781</ele>
        <time>2012-08-10T12:42:23Z</time>
      </trkpt>
      <trkpt lat="45.4352" lon="6.2157">
        <ele>1865.0949707031</ele>
        <time>2012-08-10T12:42:28Z</time>
      </trkpt>
      <trkpt lat="45.43522" lon="6.21572">
        <ele>1863.1723632812</ele>
        <time>2012-08-10T12:42:30Z</time>
      </trkpt>
      <trkpt lat="45.43531" lon="6.21584">
        <ele>1858.8464355469</ele>
        <time>2012-08-10T12:42:36Z</time>
      </trkpt>
      <trkpt lat="45.43534" lon="6.21591">
        <ele>1858.3657226562</ele>
        <time>2012-08-10T12:42:39Z</time>
      </trkpt>
      <trkpt lat="45.43541" lon="6.21602">
        <ele>1854.0400390625</ele>
        <time>2012-08-10T12:42:45Z</time>
      </trkpt>
      <trkpt lat="45.43548" lon="6.21609">
        <ele>1851.6364746094</ele>
        <time>2012-08-10T12:42:50Z</time>
      </trkpt>
      <trkpt lat="45.43549" lon="6.21611">
        <ele>1851.1557617188</ele>
        <time>2012-08-10T12:42:51Z</time>
      </trkpt>
      <trkpt lat="45.43554" lon="6.21624">
        <ele>1849.7138671875</ele>
        <time>2012-08-10T12:42:58Z</time>
      </trkpt>
      <trkpt lat="45.43559" lon="6.21635">
        <ele>1848.7524414062</ele>
        <time>2012-08-10T12:43:03Z</time>
      </trkpt>
      <trkpt lat="45.43563" lon="6.21643">
        <ele>1845.3879394531</ele>
        <time>2012-08-10T12:43:07Z</time>
      </trkpt>
      <trkpt lat="45.43564" lon="6.21647">
        <ele>1843.9460449219</ele>
        <time>2012-08-10T12:43:09Z</time>
      </trkpt>
      <trkpt lat="45.43563" lon="6.21651">
        <ele>1843.4653320312</ele>
        <time>2012-08-10T12:43:11Z</time>
      </trkpt>
      <trkpt lat="45.43567" lon="6.21662">
        <ele>1840.1008300781</ele>
        <time>2012-08-10T12:43:16Z</time>
      </trkpt>
      <trkpt lat="45.43573" lon="6.2167">
        <ele>1837.216796875</ele>
        <time>2012-08-10T12:43:20Z</time>
      </trkpt>
      <trkpt lat="45.43578" lon="6.21676">
        <ele>1836.7360839844</ele>
        <time>2012-08-10T12:43:24Z</time>
      </trkpt>
      <trkpt lat="45.43583" lon="6.21682">
        <ele>1836.2556152344</ele>
        <time>2012-08-10T12:43:28Z</time>
      </trkpt>
      <trkpt lat="45.43587" lon="6.21686">
        <ele>1836.2556152344</ele>
        <time>2012-08-10T12:43:31Z</time>
      </trkpt>
      <trkpt lat="45.43591" lon="6.21692">
        <ele>1835.2939453125</ele>
        <time>2012-08-10T12:43:34Z</time>
      </trkpt>
      <trkpt lat="45.43594" lon="6.217">
        <ele>1833.8520507812</ele>
        <time>2012-08-10T12:43:38Z</time>
      </trkpt>
      <trkpt lat="45.43602" lon="6.21716">
        <ele>1829.5261230469</ele>
        <time>2012-08-10T12:43:45Z</time>
      </trkpt>
      <trkpt lat="45.43607" lon="6.21727">
        <ele>1828.0842285156</ele>
        <time>2012-08-10T12:43:50Z</time>
      </trkpt>
      <trkpt lat="45.43607" lon="6.21729">
        <ele>1828.5649414062</ele>
        <time>2012-08-10T12:43:51Z</time>
      </trkpt>
      <trkpt lat="45.43614" lon="6.21737">
        <ele>1831.4487304688</ele>
        <time>2012-08-10T12:43:57Z</time>
      </trkpt>
      <trkpt lat="45.43617" lon="6.21746">
        <ele>1831.9294433594</ele>
        <time>2012-08-10T12:44:02Z</time>
      </trkpt>
      <trkpt lat="45.43621" lon="6.21753">
        <ele>1832.890625</ele>
        <time>2012-08-10T12:44:06Z</time>
      </trkpt>
      <trkpt lat="45.43628" lon="6.21762">
        <ele>1832.890625</ele>
        <time>2012-08-10T12:44:13Z</time>
      </trkpt>
      <trkpt lat="45.4363" lon="6.21765">
        <ele>1832.41015625</ele>
        <time>2012-08-10T12:44:15Z</time>
      </trkpt>
      <trkpt lat="45.4363" lon="6.21769">
        <ele>1832.41015625</ele>
        <time>2012-08-10T12:44:17Z</time>
      </trkpt>
      <trkpt lat="45.43635" lon="6.21779">
        <ele>1830.4875488281</ele>
        <time>2012-08-10T12:44:24Z</time>
      </trkpt>
      <trkpt lat="45.43636" lon="6.21781">
        <ele>1830.4875488281</ele>
        <time>2012-08-10T12:44:25Z</time>
      </trkpt>
      <trkpt lat="45.43642" lon="6.21789">
        <ele>1829.5261230469</ele>
        <time>2012-08-10T12:44:30Z</time>
      </trkpt>
      <trkpt lat="45.43645" lon="6.21796">
        <ele>1827.603515625</ele>
        <time>2012-08-10T12:44:34Z</time>
      </trkpt>
      <trkpt lat="45.43649" lon="6.21805">
        <ele>1826.1616210938</ele>
        <time>2012-08-10T12:44:40Z</time>
      </trkpt>
      <trkpt lat="45.43653" lon="6.21813">
        <ele>1823.2778320312</ele>
        <time>2012-08-10T12:44:45Z</time>
      </trkpt>
      <trkpt lat="45.43659" lon="6.21821">
        <ele>1820.8745117188</ele>
        <time>2012-08-10T12:44:49Z</time>
      </trkpt>
      <trkpt lat="45.43665" lon="6.21829">
        <ele>1817.990234375</ele>
        <time>2012-08-10T12:44:53Z</time>
      </trkpt>
      <trkpt lat="45.4367" lon="6.21838">
        <ele>1814.6257324219</ele>
        <time>2012-08-10T12:44:57Z</time>
      </trkpt>
      <trkpt lat="45.43673" lon="6.21847">
        <ele>1813.6643066406</ele>
        <time>2012-08-10T12:45:02Z</time>
      </trkpt>
      <trkpt lat="45.43677" lon="6.21853">
        <ele>1812.2224121094</ele>
        <time>2012-08-10T12:45:05Z</time>
      </trkpt>
      <trkpt lat="45.43684" lon="6.21866">
        <ele>1808.8579101562</ele>
        <time>2012-08-10T12:45:11Z</time>
      </trkpt>
      <trkpt lat="45.43685" lon="6.21874">
        <ele>1805.4934082031</ele>
        <time>2012-08-10T12:45:14Z</time>
      </trkpt>
      <trkpt lat="45.43687" lon="6.21879">
        <ele>1804.0515136719</ele>
        <time>2012-08-10T12:45:16Z</time>
      </trkpt>
      <trkpt lat="45.43696" lon="6.21895">
        <ele>1801.1672363281</ele>
        <time>2012-08-10T12:45:22Z</time>
      </trkpt>
      <trkpt lat="45.43703" lon="6.21903">
        <ele>1801.6479492188</ele>
        <time>2012-08-10T12:45:26Z</time>
      </trkpt>
      <trkpt lat="45.43713" lon="6.21909">
        <ele>1802.6091308594</ele>
        <time>2012-08-10T12:45:30Z</time>
      </trkpt>
      <trkpt lat="45.43724" lon="6.21918">
        <ele>1802.1284179688</ele>
        <time>2012-08-10T12:45:35Z</time>
      </trkpt>
      <trkpt lat="45.43732" lon="6.2193">
        <ele>1800.2060546875</ele>
        <time>2012-08-10T12:45:40Z</time>
      </trkpt>
      <trkpt lat="45.43736" lon="6.21936">
        <ele>1799.7253417969</ele>
        <time>2012-08-10T12:45:44Z</time>
      </trkpt>
      <trkpt lat="45.43736" lon="6.21939">
        <ele>1800.6865234375</ele>
        <time>2012-08-10T12:45:47Z</time>
      </trkpt>
      <trkpt lat="45.43741" lon="6.21947">
        <ele>1802.1284179688</ele>
        <time>2012-08-10T12:45:54Z</time>
      </trkpt>
      <trkpt lat="45.43742" lon="6.21948">
        <ele>1802.6091308594</ele>
        <time>2012-08-10T12:45:55Z</time>
      </trkpt>
      <trkpt lat="45.43748" lon="6.21953">
        <ele>1803.5705566406</ele>
        <time>2012-08-10T12:46:01Z</time>
      </trkpt>
      <trkpt lat="45.43747" lon="6.21962">
        <ele>1803.08984375</ele>
        <time>2012-08-10T12:46:09Z</time>
      </trkpt>
      <trkpt lat="45.43744" lon="6.21963">
        <ele>1808.3771972656</ele>
        <time>2012-08-10T12:47:03Z</time>
      </trkpt>
      <trkpt lat="45.43744" lon="6.21962">
        <ele>1808.3771972656</ele>
        <time>2012-08-10T12:47:12Z</time>
      </trkpt>
      <trkpt lat="45.43744" lon="6.21963">
        <ele>1809.3386230469</ele>
        <time>2012-08-10T12:48:07Z</time>
      </trkpt>
      <trkpt lat="45.43744" lon="6.21962">
        <ele>1808.3771972656</ele>
        <time>2012-08-10T12:48:25Z</time>
      </trkpt>
      <trkpt lat="45.43741" lon="6.21963">
        <ele>1805.9738769531</ele>
        <time>2012-08-10T12:50:55Z</time>
      </trkpt>
      <trkpt lat="45.43744" lon="6.21963">
        <ele>1807.416015625</ele>
        <time>2012-08-10T12:51:00Z</time>
      </trkpt>
      <trkpt lat="45.43745" lon="6.21964">
        <ele>1810.7805175781</ele>
        <time>2012-08-10T12:52:47Z</time>
      </trkpt>
      <trkpt lat="45.43744" lon="6.21964">
        <ele>1810.2998046875</ele>
        <time>2012-08-10T12:52:51Z</time>
      </trkpt>
      <trkpt lat="45.43744" lon="6.21963">
        <ele>1808.8579101562</ele>
        <time>2012-08-10T12:53:19Z</time>
      </trkpt>
      <trkpt lat="45.43744" lon="6.21963">
        <ele>1808.3771972656</ele>
        <time>2012-08-10T12:53:33Z</time>
      </trkpt>
      <trkpt lat="45.43742" lon="6.21963">
        <ele>1806.4545898438</ele>
        <time>2012-08-10T12:54:24Z</time>
      </trkpt>
      <trkpt lat="45.43744" lon="6.21964">
        <ele>1808.3771972656</ele>
        <time>2012-08-10T12:54:37Z</time>
      </trkpt>
      <trkpt lat="45.43743" lon="6.21963">
        <ele>1808.8579101562</ele>
        <time>2012-08-10T12:55:02Z</time>
      </trkpt>
      <trkpt lat="45.43743" lon="6.21965">
        <ele>1806.4545898438</ele>
        <time>2012-08-10T12:55:33Z</time>
      </trkpt>
      <trkpt lat="45.43746" lon="6.21965">
        <ele>1806.9353027344</ele>
        <time>2012-08-10T12:55:37Z</time>
      </trkpt>
      <trkpt lat="45.43748" lon="6.21965">
        <ele>1809.3386230469</ele>
        <time>2012-08-10T12:55:46Z</time>
      </trkpt>
      <trkpt lat="45.4375" lon="6.21968">
        <ele>1809.3386230469</ele>
        <time>2012-08-10T12:55:55Z</time>
      </trkpt>
      <trkpt lat="45.43749" lon="6.21965">
        <ele>1808.8579101562</ele>
        <time>2012-08-10T12:56:01Z</time>
      </trkpt>
      <trkpt lat="45.43746" lon="6.21956">
        <ele>1809.8190917969</ele>
        <time>2012-08-10T12:56:09Z</time>
      </trkpt>
      <trkpt lat="45.43744" lon="6.21949">
        <ele>1810.2998046875</ele>
        <time>2012-08-10T12:56:16Z</time>
      </trkpt>
      <trkpt lat="45.43743" lon="6.21944">
        <ele>1810.7805175781</ele>
        <time>2012-08-10T12:56:22Z</time>
      </trkpt>
      <trkpt lat="45.43742" lon="6.21942">
        <ele>1812.2224121094</ele>
        <time>2012-08-10T12:56:28Z</time>
      </trkpt>
      <trkpt lat="45.43738" lon="6.21942">
        <ele>1813.1838378906</ele>
        <time>2012-08-10T12:56:34Z</time>
      </trkpt>
      <trkpt lat="45.43737" lon="6.21937">
        <ele>1813.1838378906</ele>
        <time>2012-08-10T12:56:39Z</time>
      </trkpt>
      <trkpt lat="45.43732" lon="6.21939">
        <ele>1813.6643066406</ele>
        <time>2012-08-10T12:56:45Z</time>
      </trkpt>
      <trkpt lat="45.43731" lon="6.21939">
        <ele>1814.1450195312</ele>
        <time>2012-08-10T12:56:49Z</time>
      </trkpt>
      <trkpt lat="45.43729" lon="6.21934">
        <ele>1815.1064453125</ele>
        <time>2012-08-10T12:56:54Z</time>
      </trkpt>
      <trkpt lat="45.43724" lon="6.21928">
        <ele>1816.5483398438</ele>
        <time>2012-08-10T12:57:01Z</time>
      </trkpt>
      <trkpt lat="45.4372" lon="6.21921">
        <ele>1817.990234375</ele>
        <time>2012-08-10T12:57:09Z</time>
      </trkpt>
      <trkpt lat="45.43715" lon="6.21915">
        <ele>1819.4323730469</ele>
        <time>2012-08-10T12:57:17Z</time>
      </trkpt>
      <trkpt lat="45.4371" lon="6.2191">
        <ele>1820.8745117188</ele>
        <time>2012-08-10T12:57:26Z</time>
      </trkpt>
      <trkpt lat="45.43705" lon="6.21906">
        <ele>1821.3549804688</ele>
        <time>2012-08-10T12:57:32Z</time>
      </trkpt>
      <trkpt lat="45.43708" lon="6.21901">
        <ele>1821.8356933594</ele>
        <time>2012-08-10T12:57:38Z</time>
      </trkpt>
      <trkpt lat="45.43715" lon="6.21896">
        <ele>1822.7971191406</ele>
        <time>2012-08-10T12:57:46Z</time>
      </trkpt>
      <trkpt lat="45.4372" lon="6.21894">
        <ele>1823.7583007812</ele>
        <time>2012-08-10T12:57:53Z</time>
      </trkpt>
      <trkpt lat="45.43727" lon="6.21891">
        <ele>1827.123046875</ele>
        <time>2012-08-10T12:58:00Z</time>
      </trkpt>
      <trkpt lat="45.4373" lon="6.21889">
        <ele>1829.0454101562</ele>
        <time>2012-08-10T12:58:04Z</time>
      </trkpt>
      <trkpt lat="45.43732" lon="6.21887">
        <ele>1827.123046875</ele>
        <time>2012-08-10T12:58:10Z</time>
      </trkpt>
      <trkpt lat="45.43735" lon="6.21883">
        <ele>1826.1616210938</ele>
        <time>2012-08-10T12:58:15Z</time>
      </trkpt>
      <trkpt lat="45.43739" lon="6.21882">
        <ele>1826.1616210938</ele>
        <time>2012-08-10T12:58:22Z</time>
      </trkpt>
      <trkpt lat="45.43743" lon="6.21879">
        <ele>1827.123046875</ele>
        <time>2012-08-10T12:58:28Z</time>
      </trkpt>
      <trkpt lat="45.43748" lon="6.21875">
        <ele>1829.5261230469</ele>
        <time>2012-08-10T12:58:38Z</time>
      </trkpt>
      <trkpt lat="45.43753" lon="6.21871">
        <ele>1831.4487304688</ele>
        <time>2012-08-10T12:58:46Z</time>
      </trkpt>
      <trkpt lat="45.43755" lon="6.21867">
        <ele>1830.9682617188</ele>
        <time>2012-08-10T12:58:53Z</time>
      </trkpt>
      <trkpt lat="45.4376" lon="6.21865">
        <ele>1834.3327636719</ele>
        <time>2012-08-10T12:58:59Z</time>
      </trkpt>
      <trkpt lat="45.43764" lon="6.21862">
        <ele>1836.7360839844</ele>
        <time>2012-08-10T12:59:08Z</time>
      </trkpt>
      <trkpt lat="45.43765" lon="6.21859">
        <ele>1837.6975097656</ele>
        <time>2012-08-10T12:59:14Z</time>
      </trkpt>
      <trkpt lat="45.43767" lon="6.21855">
        <ele>1839.6201171875</ele>
        <time>2012-08-10T12:59:20Z</time>
      </trkpt>
      <trkpt lat="45.43765" lon="6.21851">
        <ele>1840.5812988281</ele>
        <time>2012-08-10T12:59:24Z</time>
      </trkpt>
      <trkpt lat="45.43763" lon="6.21844">
        <ele>1840.1008300781</ele>
        <time>2012-08-10T12:59:33Z</time>
      </trkpt>
      <trkpt lat="45.43767" lon="6.21848">
        <ele>1841.0620117188</ele>
        <time>2012-08-10T12:59:38Z</time>
      </trkpt>
      <trkpt lat="45.4377" lon="6.21847">
        <ele>1842.5041503906</ele>
        <time>2012-08-10T12:59:45Z</time>
      </trkpt>
      <trkpt lat="45.43774" lon="6.21842">
        <ele>1844.4265136719</ele>
        <time>2012-08-10T12:59:51Z</time>
      </trkpt>
      <trkpt lat="45.43782" lon="6.21837">
        <ele>1847.7912597656</ele>
        <time>2012-08-10T13:00:00Z</time>
      </trkpt>
      <trkpt lat="45.43787" lon="6.21835">
        <ele>1848.7524414062</ele>
        <time>2012-08-10T13:00:07Z</time>
      </trkpt>
      <trkpt lat="45.43792" lon="6.21836">
        <ele>1849.7138671875</ele>
        <time>2012-08-10T13:00:15Z</time>
      </trkpt>
      <trkpt lat="45.43796" lon="6.21837">
        <ele>1849.2331542969</ele>
        <time>2012-08-10T13:00:21Z</time>
      </trkpt>
      <trkpt lat="45.43804" lon="6.21836">
        <ele>1852.1171875</ele>
        <time>2012-08-10T13:00:30Z</time>
      </trkpt>
      <trkpt lat="45.43811" lon="6.21834">
        <ele>1855.0012207031</ele>
        <time>2012-08-10T13:00:39Z</time>
      </trkpt>
      <trkpt lat="45.43819" lon="6.21833">
        <ele>1856.4431152344</ele>
        <time>2012-08-10T13:00:49Z</time>
      </trkpt>
      <trkpt lat="45.43826" lon="6.21831">
        <ele>1858.3657226562</ele>
        <time>2012-08-10T13:00:57Z</time>
      </trkpt>
      <trkpt lat="45.43832" lon="6.21827">
        <ele>1859.8076171875</ele>
        <time>2012-08-10T13:01:05Z</time>
      </trkpt>
      <trkpt lat="45.4384" lon="6.21821">
        <ele>1861.2497558594</ele>
        <time>2012-08-10T13:01:14Z</time>
      </trkpt>
      <trkpt lat="45.43848" lon="6.21819">
        <ele>1862.6916503906</ele>
        <time>2012-08-10T13:01:23Z</time>
      </trkpt>
      <trkpt lat="45.43852" lon="6.21815">
        <ele>1863.6528320312</ele>
        <time>2012-08-10T13:01:29Z</time>
      </trkpt>
      <trkpt lat="45.43859" lon="6.21806">
        <ele>1865.5756835938</ele>
        <time>2012-08-10T13:01:39Z</time>
      </trkpt>
      <trkpt lat="45.43864" lon="6.21797">
        <ele>1866.0561523438</ele>
        <time>2012-08-10T13:01:48Z</time>
      </trkpt>
      <trkpt lat="45.43871" lon="6.21794">
        <ele>1866.0561523438</ele>
        <time>2012-08-10T13:01:55Z</time>
      </trkpt>
      <trkpt lat="45.43877" lon="6.21788">
        <ele>1867.017578125</ele>
        <time>2012-08-10T13:02:02Z</time>
      </trkpt>
      <trkpt lat="45.43879" lon="6.21785">
        <ele>1867.017578125</ele>
        <time>2012-08-10T13:02:05Z</time>
      </trkpt>
      <trkpt lat="45.43885" lon="6.21782">
        <ele>1867.498046875</ele>
        <time>2012-08-10T13:02:12Z</time>
      </trkpt>
      <trkpt lat="45.43892" lon="6.21777">
        <ele>1868.4597167969</ele>
        <time>2012-08-10T13:02:19Z</time>
      </trkpt>
      <trkpt lat="45.43894" lon="6.21773">
        <ele>1868.9404296875</ele>
        <time>2012-08-10T13:02:23Z</time>
      </trkpt>
      <trkpt lat="45.439" lon="6.21756">
        <ele>1869.4211425781</ele>
        <time>2012-08-10T13:02:34Z</time>
      </trkpt>
      <trkpt lat="45.43901" lon="6.21753">
        <ele>1869.4211425781</ele>
        <time>2012-08-10T13:02:37Z</time>
      </trkpt>
      <trkpt lat="45.43906" lon="6.21751">
        <ele>1870.3823242188</ele>
        <time>2012-08-10T13:02:44Z</time>
      </trkpt>
      <trkpt lat="45.4391" lon="6.21744">
        <ele>1871.3435058594</ele>
        <time>2012-08-10T13:02:51Z</time>
      </trkpt>
      <trkpt lat="45.43911" lon="6.21739">
        <ele>1871.82421875</ele>
        <time>2012-08-10T13:02:54Z</time>
      </trkpt>
      <trkpt lat="45.43916" lon="6.21725">
        <ele>1872.3049316406</ele>
        <time>2012-08-10T13:03:04Z</time>
      </trkpt>
      <trkpt lat="45.43916" lon="6.21724">
        <ele>1872.3049316406</ele>
        <time>2012-08-10T13:03:05Z</time>
      </trkpt>
      <trkpt lat="45.43917" lon="6.21721">
        <ele>1871.82421875</ele>
        <time>2012-08-10T13:03:11Z</time>
      </trkpt>
      <trkpt lat="45.43918" lon="6.21719">
        <ele>1871.3435058594</ele>
        <time>2012-08-10T13:03:16Z</time>
      </trkpt>
      <trkpt lat="45.43922" lon="6.21719">
        <ele>1871.82421875</ele>
        <time>2012-08-10T13:03:22Z</time>
      </trkpt>
      <trkpt lat="45.43928" lon="6.21725">
        <ele>1872.7856445312</ele>
        <time>2012-08-10T13:03:30Z</time>
      </trkpt>
      <trkpt lat="45.43932" lon="6.2173">
        <ele>1873.2663574219</ele>
        <time>2012-08-10T13:03:36Z</time>
      </trkpt>
      <trkpt lat="45.43937" lon="6.21735">
        <ele>1874.2275390625</ele>
        <time>2012-08-10T13:03:43Z</time>
      </trkpt>
      <trkpt lat="45.43944" lon="6.21743">
        <ele>1875.1887207031</ele>
        <time>2012-08-10T13:03:52Z</time>
      </trkpt>
      <trkpt lat="45.43951" lon="6.21748">
        <ele>1876.630859375</ele>
        <time>2012-08-10T13:04:01Z</time>
      </trkpt>
      <trkpt lat="45.43957" lon="6.21753">
        <ele>1878.0727539062</ele>
        <time>2012-08-10T13:04:09Z</time>
      </trkpt>
      <trkpt lat="45.43962" lon="6.21756">
        <ele>1879.5146484375</ele>
        <time>2012-08-10T13:04:17Z</time>
      </trkpt>
      <trkpt lat="45.43968" lon="6.21759">
        <ele>1880.9567871094</ele>
        <time>2012-08-10T13:04:25Z</time>
      </trkpt>
      <trkpt lat="45.43975" lon="6.21763">
        <ele>1882.3986816406</ele>
        <time>2012-08-10T13:04:34Z</time>
      </trkpt>
      <trkpt lat="45.43982" lon="6.21763">
        <ele>1884.8022460938</ele>
        <time>2012-08-10T13:04:42Z</time>
      </trkpt>
      <trkpt lat="45.43985" lon="6.21764">
        <ele>1886.244140625</ele>
        <time>2012-08-10T13:04:48Z</time>
      </trkpt>
      <trkpt lat="45.43991" lon="6.21764">
        <ele>1888.1667480469</ele>
        <time>2012-08-10T13:04:57Z</time>
      </trkpt>
      <trkpt lat="45.43996" lon="6.21764">
        <ele>1890.5698242188</ele>
        <time>2012-08-10T13:05:05Z</time>
      </trkpt>
      <trkpt lat="45.43998" lon="6.21765">
        <ele>1892.0119628906</ele>
        <time>2012-08-10T13:05:12Z</time>
      </trkpt>
      <trkpt lat="45.44002" lon="6.21763">
        <ele>1892.4926757812</ele>
        <time>2012-08-10T13:05:19Z</time>
      </trkpt>
      <trkpt lat="45.44007" lon="6.21764">
        <ele>1894.4150390625</ele>
        <time>2012-08-10T13:05:25Z</time>
      </trkpt>
      <trkpt lat="45.44013" lon="6.21762">
        <ele>1895.8571777344</ele>
        <time>2012-08-10T13:05:33Z</time>
      </trkpt>
      <trkpt lat="45.4402" lon="6.21763">
        <ele>1896.818359375</ele>
        <time>2012-08-10T13:05:41Z</time>
      </trkpt>
      <trkpt lat="45.44027" lon="6.21764">
        <ele>1897.2990722656</ele>
        <time>2012-08-10T13:05:50Z</time>
      </trkpt>
      <trkpt lat="45.44033" lon="6.21766">
        <ele>1898.7409667969</ele>
        <time>2012-08-10T13:05:58Z</time>
      </trkpt>
      <trkpt lat="45.44041" lon="6.21767">
        <ele>1900.1833496094</ele>
        <time>2012-08-10T13:06:06Z</time>
      </trkpt>
      <trkpt lat="45.44047" lon="6.21766">
        <ele>1901.14453125</ele>
        <time>2012-08-10T13:06:13Z</time>
      </trkpt>
      <trkpt lat="45.44053" lon="6.21764">
        <ele>1903.0671386719</ele>
        <time>2012-08-10T13:06:21Z</time>
      </trkpt>
      <trkpt lat="45.44058" lon="6.21755">
        <ele>1904.9897460938</ele>
        <time>2012-08-10T13:06:29Z</time>
      </trkpt>
      <trkpt lat="45.44064" lon="6.21747">
        <ele>1906.9123535156</ele>
        <time>2012-08-10T13:06:37Z</time>
      </trkpt>
      <trkpt lat="45.4407" lon="6.21739">
        <ele>1909.3156738281</ele>
        <time>2012-08-10T13:06:45Z</time>
      </trkpt>
      <trkpt lat="45.44076" lon="6.21733">
        <ele>1911.7189941406</ele>
        <time>2012-08-10T13:06:53Z</time>
      </trkpt>
      <trkpt lat="45.44081" lon="6.21724">
        <ele>1912.6801757812</ele>
        <time>2012-08-10T13:07:02Z</time>
      </trkpt>
      <trkpt lat="45.44086" lon="6.21717">
        <ele>1913.6413574219</ele>
        <time>2012-08-10T13:07:10Z</time>
      </trkpt>
      <trkpt lat="45.44091" lon="6.21709">
        <ele>1914.6027832031</ele>
        <time>2012-08-10T13:07:18Z</time>
      </trkpt>
      <trkpt lat="45.44094" lon="6.21707">
        <ele>1915.0834960938</ele>
        <time>2012-08-10T13:07:24Z</time>
      </trkpt>
      <trkpt lat="45.44099" lon="6.21702">
        <ele>1916.5256347656</ele>
        <time>2012-08-10T13:07:33Z</time>
      </trkpt>
      <trkpt lat="45.44105" lon="6.217">
        <ele>1917.0063476562</ele>
        <time>2012-08-10T13:07:41Z</time>
      </trkpt>
      <trkpt lat="45.4411" lon="6.21699">
        <ele>1917.4868164062</ele>
        <time>2012-08-10T13:07:48Z</time>
      </trkpt>
      <trkpt lat="45.44116" lon="6.21696">
        <ele>1918.4482421875</ele>
        <time>2012-08-10T13:07:56Z</time>
      </trkpt>
      <trkpt lat="45.44124" lon="6.21697">
        <ele>1920.8515625</ele>
        <time>2012-08-10T13:08:05Z</time>
      </trkpt>
      <trkpt lat="45.44129" lon="6.21697">
        <ele>1923.2548828125</ele>
        <time>2012-08-10T13:08:12Z</time>
      </trkpt>
      <trkpt lat="45.44133" lon="6.21695">
        <ele>1924.2160644531</ele>
        <time>2012-08-10T13:08:16Z</time>
      </trkpt>
      <trkpt lat="45.44139" lon="6.21695">
        <ele>1925.1772460938</ele>
        <time>2012-08-10T13:08:21Z</time>
      </trkpt>
      <trkpt lat="45.44151" lon="6.21696">
        <ele>1926.6193847656</ele>
        <time>2012-08-10T13:08:32Z</time>
      </trkpt>
      <trkpt lat="45.44161" lon="6.217">
        <ele>1926.6193847656</ele>
        <time>2012-08-10T13:08:40Z</time>
      </trkpt>
      <trkpt lat="45.44164" lon="6.21702">
        <ele>1926.138671875</ele>
        <time>2012-08-10T13:08:43Z</time>
      </trkpt>
      <trkpt lat="45.44172" lon="6.21701">
        <ele>1925.6579589844</ele>
        <time>2012-08-10T13:08:49Z</time>
      </trkpt>
      <trkpt lat="45.44181" lon="6.217">
        <ele>1927.1000976562</ele>
        <time>2012-08-10T13:08:56Z</time>
      </trkpt>
      <trkpt lat="45.44192" lon="6.21696">
        <ele>1929.0224609375</ele>
        <time>2012-08-10T13:09:05Z</time>
      </trkpt>
      <trkpt lat="45.44198" lon="6.21696">
        <ele>1930.4645996094</ele>
        <time>2012-08-10T13:09:11Z</time>
      </trkpt>
      <trkpt lat="45.44201" lon="6.21696">
        <ele>1930.9453125</ele>
        <time>2012-08-10T13:09:14Z</time>
      </trkpt>
      <trkpt lat="45.44205" lon="6.21696">
        <ele>1931.9064941406</ele>
        <time>2012-08-10T13:09:18Z</time>
      </trkpt>
      <trkpt lat="45.4421" lon="6.21698">
        <ele>1933.8293457031</ele>
        <time>2012-08-10T13:09:25Z</time>
      </trkpt>
      <trkpt lat="45.44215" lon="6.21697">
        <ele>1934.7907714844</ele>
        <time>2012-08-10T13:09:29Z</time>
      </trkpt>
      <trkpt lat="45.4422" lon="6.21699">
        <ele>1933.8293457031</ele>
        <time>2012-08-10T13:09:33Z</time>
      </trkpt>
      <trkpt lat="45.4423" lon="6.21701">
        <ele>1931.9064941406</ele>
        <time>2012-08-10T13:09:40Z</time>
      </trkpt>
      <trkpt lat="45.44239" lon="6.21699">
        <ele>1931.42578125</ele>
        <time>2012-08-10T13:09:47Z</time>
      </trkpt>
      <trkpt lat="45.44243" lon="6.21699">
        <ele>1931.9064941406</ele>
        <time>2012-08-10T13:09:50Z</time>
      </trkpt>
      <trkpt lat="45.44252" lon="6.21701">
        <ele>1933.3486328125</ele>
        <time>2012-08-10T13:09:58Z</time>
      </trkpt>
      <trkpt lat="45.44259" lon="6.21703">
        <ele>1933.8293457031</ele>
        <time>2012-08-10T13:10:04Z</time>
      </trkpt>
      <trkpt lat="45.44267" lon="6.21704">
        <ele>1934.3100585938</ele>
        <time>2012-08-10T13:10:11Z</time>
      </trkpt>
      <trkpt lat="45.4427" lon="6.21703">
        <ele>1934.3100585938</ele>
        <time>2012-08-10T13:10:13Z</time>
      </trkpt>
      <trkpt lat="45.44275" lon="6.21703">
        <ele>1934.7907714844</ele>
        <time>2012-08-10T13:10:17Z</time>
      </trkpt>
      <trkpt lat="45.44287" lon="6.21698">
        <ele>1935.751953125</ele>
        <time>2012-08-10T13:10:26Z</time>
      </trkpt>
      <trkpt lat="45.44296" lon="6.21695">
        <ele>1935.751953125</ele>
        <time>2012-08-10T13:10:33Z</time>
      </trkpt>
      <trkpt lat="45.44304" lon="6.21689">
        <ele>1936.7131347656</ele>
        <time>2012-08-10T13:10:38Z</time>
      </trkpt>
      <trkpt lat="45.44308" lon="6.21686">
        <ele>1937.6745605469</ele>
        <time>2012-08-10T13:10:41Z</time>
      </trkpt>
      <trkpt lat="45.44318" lon="6.21685">
        <ele>1937.6745605469</ele>
        <time>2012-08-10T13:10:46Z</time>
      </trkpt>
      <trkpt lat="45.44321" lon="6.21685">
        <ele>1937.6745605469</ele>
        <time>2012-08-10T13:10:48Z</time>
      </trkpt>
      <trkpt lat="45.44333" lon="6.21681">
        <ele>1937.1938476562</ele>
        <time>2012-08-10T13:10:57Z</time>
      </trkpt>
      <trkpt lat="45.44343" lon="6.2168">
        <ele>1936.2326660156</ele>
        <time>2012-08-10T13:11:04Z</time>
      </trkpt>
      <trkpt lat="45.44349" lon="6.2168">
        <ele>1935.751953125</ele>
        <time>2012-08-10T13:11:10Z</time>
      </trkpt>
      <trkpt lat="45.44353" lon="6.21679">
        <ele>1935.751953125</ele>
        <time>2012-08-10T13:11:14Z</time>
      </trkpt>
      <trkpt lat="45.44358" lon="6.2168">
        <ele>1936.2326660156</ele>
        <time>2012-08-10T13:11:18Z</time>
      </trkpt>
      <trkpt lat="45.44368" lon="6.21676">
        <ele>1936.7131347656</ele>
        <time>2012-08-10T13:11:26Z</time>
      </trkpt>
      <trkpt lat="45.44376" lon="6.21673">
        <ele>1936.7131347656</ele>
        <time>2012-08-10T13:11:32Z</time>
      </trkpt>
      <trkpt lat="45.44388" lon="6.21672">
        <ele>1934.3100585938</ele>
        <time>2012-08-10T13:11:40Z</time>
      </trkpt>
      <trkpt lat="45.44398" lon="6.21669">
        <ele>1933.8293457031</ele>
        <time>2012-08-10T13:11:48Z</time>
      </trkpt>
      <trkpt lat="45.44408" lon="6.21663">
        <ele>1935.2712402344</ele>
        <time>2012-08-10T13:11:57Z</time>
      </trkpt>
      <trkpt lat="45.44416" lon="6.21663">
        <ele>1936.7131347656</ele>
        <time>2012-08-10T13:12:05Z</time>
      </trkpt>
      <trkpt lat="45.44423" lon="6.21662">
        <ele>1938.1552734375</ele>
        <time>2012-08-10T13:12:12Z</time>
      </trkpt>
      <trkpt lat="45.4443" lon="6.21658">
        <ele>1939.1164550781</ele>
        <time>2012-08-10T13:12:19Z</time>
      </trkpt>
      <trkpt lat="45.44437" lon="6.21653">
        <ele>1940.0778808594</ele>
        <time>2012-08-10T13:12:27Z</time>
      </trkpt>
      <trkpt lat="45.44443" lon="6.21647">
        <ele>1941.5197753906</ele>
        <time>2012-08-10T13:12:34Z</time>
      </trkpt>
      <trkpt lat="45.4445" lon="6.21641">
        <ele>1943.4423828125</ele>
        <time>2012-08-10T13:12:43Z</time>
      </trkpt>
      <trkpt lat="45.44455" lon="6.21637">
        <ele>1943.9230957031</ele>
        <time>2012-08-10T13:12:49Z</time>
      </trkpt>
      <trkpt lat="45.4446" lon="6.2163">
        <ele>1945.845703125</ele>
        <time>2012-08-10T13:12:57Z</time>
      </trkpt>
      <trkpt lat="45.44466" lon="6.21624">
        <ele>1947.2875976562</ele>
        <time>2012-08-10T13:13:05Z</time>
      </trkpt>
      <trkpt lat="45.44471" lon="6.21621">
        <ele>1949.2104492188</ele>
        <time>2012-08-10T13:13:13Z</time>
      </trkpt>
      <trkpt lat="45.44476" lon="6.2162">
        <ele>1952.0942382812</ele>
        <time>2012-08-10T13:13:21Z</time>
      </trkpt>
      <trkpt lat="45.44483" lon="6.21615">
        <ele>1954.0170898438</ele>
        <time>2012-08-10T13:13:30Z</time>
      </trkpt>
      <trkpt lat="45.44486" lon="6.21614">
        <ele>1954.9782714844</ele>
        <time>2012-08-10T13:13:36Z</time>
      </trkpt>
      <trkpt lat="45.44492" lon="6.21609">
        <ele>1956.9008789062</ele>
        <time>2012-08-10T13:13:45Z</time>
      </trkpt>
      <trkpt lat="45.44497" lon="6.21606">
        <ele>1959.3041992188</ele>
        <time>2012-08-10T13:13:53Z</time>
      </trkpt>
      <trkpt lat="45.44503" lon="6.21601">
        <ele>1961.2268066406</ele>
        <time>2012-08-10T13:14:02Z</time>
      </trkpt>
      <trkpt lat="45.44509" lon="6.21594">
        <ele>1963.1494140625</ele>
        <time>2012-08-10T13:14:11Z</time>
      </trkpt>
      <trkpt lat="45.44515" lon="6.21589">
        <ele>1965.5529785156</ele>
        <time>2012-08-10T13:14:19Z</time>
      </trkpt>
      <trkpt lat="45.44521" lon="6.21584">
        <ele>1967.4753417969</ele>
        <time>2012-08-10T13:14:28Z</time>
      </trkpt>
      <trkpt lat="45.44525" lon="6.21578">
        <ele>1968.9174804688</ele>
        <time>2012-08-10T13:14:37Z</time>
      </trkpt>
      <trkpt lat="45.4453" lon="6.21574">
        <ele>1970.8400878906</ele>
        <time>2012-08-10T13:14:45Z</time>
      </trkpt>
      <trkpt lat="45.44535" lon="6.2157">
        <ele>1972.2819824219</ele>
        <time>2012-08-10T13:14:54Z</time>
      </trkpt>
      <trkpt lat="45.4454" lon="6.21563">
        <ele>1975.1657714844</ele>
        <time>2012-08-10T13:15:03Z</time>
      </trkpt>
      <trkpt lat="45.44544" lon="6.21558">
        <ele>1977.0886230469</ele>
        <time>2012-08-10T13:15:10Z</time>
      </trkpt>
      <trkpt lat="45.44549" lon="6.21553">
        <ele>1978.5305175781</ele>
        <time>2012-08-10T13:15:18Z</time>
      </trkpt>
      <trkpt lat="45.44553" lon="6.21546">
        <ele>1979.4916992188</ele>
        <time>2012-08-10T13:15:26Z</time>
      </trkpt>
      <trkpt lat="45.4456" lon="6.21539">
        <ele>1981.4145507812</ele>
        <time>2012-08-10T13:15:36Z</time>
      </trkpt>
      <trkpt lat="45.44565" lon="6.21536">
        <ele>1983.8178710938</ele>
        <time>2012-08-10T13:15:44Z</time>
      </trkpt>
      <trkpt lat="45.44569" lon="6.21532">
        <ele>1985.259765625</ele>
        <time>2012-08-10T13:15:51Z</time>
      </trkpt>
      <trkpt lat="45.44573" lon="6.21527">
        <ele>1986.2211914062</ele>
        <time>2012-08-10T13:15:57Z</time>
      </trkpt>
      <trkpt lat="45.44579" lon="6.21521">
        <ele>1988.1437988281</ele>
        <time>2012-08-10T13:16:05Z</time>
      </trkpt>
      <trkpt lat="45.44585" lon="6.21513">
        <ele>1990.546875</ele>
        <time>2012-08-10T13:16:14Z</time>
      </trkpt>
      <trkpt lat="45.44592" lon="6.21506">
        <ele>1991.5083007812</ele>
        <time>2012-08-10T13:16:23Z</time>
      </trkpt>
      <trkpt lat="45.44599" lon="6.21498">
        <ele>1992.9501953125</ele>
        <time>2012-08-10T13:16:32Z</time>
      </trkpt>
      <trkpt lat="45.44603" lon="6.21494">
        <ele>1994.3920898438</ele>
        <time>2012-08-10T13:16:38Z</time>
      </trkpt>
      <trkpt lat="45.44607" lon="6.21489">
        <ele>1995.353515625</ele>
        <time>2012-08-10T13:16:44Z</time>
      </trkpt>
      <trkpt lat="45.44614" lon="6.21484">
        <ele>1997.2763671875</ele>
        <time>2012-08-10T13:16:52Z</time>
      </trkpt>
      <trkpt lat="45.44619" lon="6.21479">
        <ele>1998.2375488281</ele>
        <time>2012-08-10T13:16:58Z</time>
      </trkpt>
      <trkpt lat="45.44626" lon="6.21474">
        <ele>1999.6796875</ele>
        <time>2012-08-10T13:17:06Z</time>
      </trkpt>
      <trkpt lat="45.44633" lon="6.21471">
        <ele>2001.6022949219</ele>
        <time>2012-08-10T13:17:15Z</time>
      </trkpt>
      <trkpt lat="45.44637" lon="6.21466">
        <ele>2001.6022949219</ele>
        <time>2012-08-10T13:17:22Z</time>
      </trkpt>
      <trkpt lat="45.44644" lon="6.21465">
        <ele>2001.6022949219</ele>
        <time>2012-08-10T13:17:30Z</time>
      </trkpt>
      <trkpt lat="45.44654" lon="6.21463">
        <ele>2001.1215820312</ele>
        <time>2012-08-10T13:17:37Z</time>
      </trkpt>
      <trkpt lat="45.44663" lon="6.21463">
        <ele>2000.1604003906</ele>
        <time>2012-08-10T13:17:44Z</time>
      </trkpt>
      <trkpt lat="45.44671" lon="6.21465">
        <ele>1998.7182617188</ele>
        <time>2012-08-10T13:17:50Z</time>
      </trkpt>
      <trkpt lat="45.4468" lon="6.21466">
        <ele>1997.7570800781</ele>
        <time>2012-08-10T13:17:56Z</time>
      </trkpt>
      <trkpt lat="45.44688" lon="6.21466">
        <ele>1996.7956542969</ele>
        <time>2012-08-10T13:18:02Z</time>
      </trkpt>
      <trkpt lat="45.44691" lon="6.21465">
        <ele>1996.3151855469</ele>
        <time>2012-08-10T13:18:04Z</time>
      </trkpt>
      <trkpt lat="45.44699" lon="6.21462">
        <ele>1994.3920898438</ele>
        <time>2012-08-10T13:18:11Z</time>
      </trkpt>
      <trkpt lat="45.44711" lon="6.21462">
        <ele>1991.9890136719</ele>
        <time>2012-08-10T13:18:17Z</time>
      </trkpt>
      <trkpt lat="45.44715" lon="6.21464">
        <ele>1991.5083007812</ele>
        <time>2012-08-10T13:18:19Z</time>
      </trkpt>
      <trkpt lat="45.44726" lon="6.21468">
        <ele>1991.5083007812</ele>
        <time>2012-08-10T13:18:26Z</time>
      </trkpt>
      <trkpt lat="45.44734" lon="6.21474">
        <ele>1992.9501953125</ele>
        <time>2012-08-10T13:18:34Z</time>
      </trkpt>
      <trkpt lat="45.44744" lon="6.21477">
        <ele>1993.9116210938</ele>
        <time>2012-08-10T13:18:43Z</time>
      </trkpt>
      <trkpt lat="45.44752" lon="6.21477">
        <ele>1994.3920898438</ele>
        <time>2012-08-10T13:18:49Z</time>
      </trkpt>
      <trkpt lat="45.44758" lon="6.21477">
        <ele>1994.3920898438</ele>
        <time>2012-08-10T13:18:54Z</time>
      </trkpt>
      <trkpt lat="45.44772" lon="6.21477">
        <ele>1995.353515625</ele>
        <time>2012-08-10T13:19:04Z</time>
      </trkpt>
      <trkpt lat="45.44778" lon="6.21477">
        <ele>1994.8728027344</ele>
        <time>2012-08-10T13:19:10Z</time>
      </trkpt>
      <trkpt lat="45.4479" lon="6.21474">
        <ele>1995.8342285156</ele>
        <time>2012-08-10T13:19:19Z</time>
      </trkpt>
      <trkpt lat="45.44798" lon="6.21472">
        <ele>1996.7956542969</ele>
        <time>2012-08-10T13:19:24Z</time>
      </trkpt>
      <trkpt lat="45.44806" lon="6.21467">
        <ele>1996.3151855469</ele>
        <time>2012-08-10T13:19:29Z</time>
      </trkpt>
      <trkpt lat="45.44814" lon="6.21464">
        <ele>1995.353515625</ele>
        <time>2012-08-10T13:19:33Z</time>
      </trkpt>
      <trkpt lat="45.44816" lon="6.21462">
        <ele>1994.8728027344</ele>
        <time>2012-08-10T13:19:35Z</time>
      </trkpt>
      <trkpt lat="45.44823" lon="6.21458">
        <ele>1994.3920898438</ele>
        <time>2012-08-10T13:19:39Z</time>
      </trkpt>
      <trkpt lat="45.4483" lon="6.21456">
        <ele>1995.353515625</ele>
        <time>2012-08-10T13:19:43Z</time>
      </trkpt>
      <trkpt lat="45.44839" lon="6.21452">
        <ele>1996.7956542969</ele>
        <time>2012-08-10T13:19:48Z</time>
      </trkpt>
      <trkpt lat="45.44851" lon="6.21447">
        <ele>1996.7956542969</ele>
        <time>2012-08-10T13:19:54Z</time>
      </trkpt>
      <trkpt lat="45.44858" lon="6.21442">
        <ele>1994.8728027344</ele>
        <time>2012-08-10T13:19:58Z</time>
      </trkpt>
      <trkpt lat="45.44869" lon="6.21438">
        <ele>1991.9890136719</ele>
        <time>2012-08-10T13:20:04Z</time>
      </trkpt>
      <trkpt lat="45.44878" lon="6.21435">
        <ele>1990.06640625</ele>
        <time>2012-08-10T13:20:09Z</time>
      </trkpt>
      <trkpt lat="45.44884" lon="6.21432">
        <ele>1988.1437988281</ele>
        <time>2012-08-10T13:20:13Z</time>
      </trkpt>
      <trkpt lat="45.44893" lon="6.21428">
        <ele>1985.259765625</ele>
        <time>2012-08-10T13:20:18Z</time>
      </trkpt>
      <trkpt lat="45.44901" lon="6.21424">
        <ele>1983.3371582031</ele>
        <time>2012-08-10T13:20:22Z</time>
      </trkpt>
      <trkpt lat="45.44911" lon="6.21421">
        <ele>1981.4145507812</ele>
        <time>2012-08-10T13:20:27Z</time>
      </trkpt>
      <trkpt lat="45.44922" lon="6.21417">
        <ele>1980.9340820312</ele>
        <time>2012-08-10T13:20:32Z</time>
      </trkpt>
      <trkpt lat="45.4493" lon="6.21414">
        <ele>1981.4145507812</ele>
        <time>2012-08-10T13:20:36Z</time>
      </trkpt>
      <trkpt lat="45.44941" lon="6.2141">
        <ele>1981.8952636719</ele>
        <time>2012-08-10T13:20:41Z</time>
      </trkpt>
      <trkpt lat="45.4495" lon="6.21404">
        <ele>1983.3371582031</ele>
        <time>2012-08-10T13:20:45Z</time>
      </trkpt>
      <trkpt lat="45.44954" lon="6.21399">
        <ele>1984.2985839844</ele>
        <time>2012-08-10T13:20:48Z</time>
      </trkpt>
      <trkpt lat="45.44956" lon="6.21397">
        <ele>1984.779296875</ele>
        <time>2012-08-10T13:20:50Z</time>
      </trkpt>
      <trkpt lat="45.44962" lon="6.21391">
        <ele>1986.7016601562</ele>
        <time>2012-08-10T13:20:57Z</time>
      </trkpt>
      <trkpt lat="45.44965" lon="6.21387">
        <ele>1987.1823730469</ele>
        <time>2012-08-10T13:21:01Z</time>
      </trkpt>
      <trkpt lat="45.44969" lon="6.21384">
        <ele>1987.6630859375</ele>
        <time>2012-08-10T13:21:06Z</time>
      </trkpt>
      <trkpt lat="45.44975" lon="6.21383">
        <ele>1987.6630859375</ele>
        <time>2012-08-10T13:21:10Z</time>
      </trkpt>
      <trkpt lat="45.44983" lon="6.2138">
        <ele>1987.6630859375</ele>
        <time>2012-08-10T13:21:17Z</time>
      </trkpt>
      <trkpt lat="45.44993" lon="6.21371">
        <ele>1988.6245117188</ele>
        <time>2012-08-10T13:21:26Z</time>
      </trkpt>
      <trkpt lat="45.45002" lon="6.21365">
        <ele>1988.6245117188</ele>
        <time>2012-08-10T13:21:33Z</time>
      </trkpt>
      <trkpt lat="45.45008" lon="6.21358">
        <ele>1987.6630859375</ele>
        <time>2012-08-10T13:21:39Z</time>
      </trkpt>
      <trkpt lat="45.45017" lon="6.21355">
        <ele>1986.7016601562</ele>
        <time>2012-08-10T13:21:46Z</time>
      </trkpt>
      <trkpt lat="45.45028" lon="6.21355">
        <ele>1985.259765625</ele>
        <time>2012-08-10T13:21:54Z</time>
      </trkpt>
      <trkpt lat="45.45037" lon="6.21354">
        <ele>1985.7404785156</ele>
        <time>2012-08-10T13:22:01Z</time>
      </trkpt>
      <trkpt lat="45.4504" lon="6.21353">
        <ele>1985.7404785156</ele>
        <time>2012-08-10T13:22:03Z</time>
      </trkpt>
      <trkpt lat="45.45044" lon="6.21352">
        <ele>1985.259765625</ele>
        <time>2012-08-10T13:22:05Z</time>
      </trkpt>
      <trkpt lat="45.45052" lon="6.21345">
        <ele>1984.2985839844</ele>
        <time>2012-08-10T13:22:10Z</time>
      </trkpt>
      <trkpt lat="45.45058" lon="6.21339">
        <ele>1983.3371582031</ele>
        <time>2012-08-10T13:22:14Z</time>
      </trkpt>
      <trkpt lat="45.45071" lon="6.21332">
        <ele>1981.8952636719</ele>
        <time>2012-08-10T13:22:19Z</time>
      </trkpt>
      <trkpt lat="45.45078" lon="6.21329">
        <ele>1980.4533691406</ele>
        <time>2012-08-10T13:22:23Z</time>
      </trkpt>
      <trkpt lat="45.4509" lon="6.21325">
        <ele>1979.4916992188</ele>
        <time>2012-08-10T13:22:28Z</time>
      </trkpt>
      <trkpt lat="45.45093" lon="6.21323">
        <ele>1979.0109863281</ele>
        <time>2012-08-10T13:22:30Z</time>
      </trkpt>
      <trkpt lat="45.45098" lon="6.2132">
        <ele>1978.0498046875</ele>
        <time>2012-08-10T13:22:34Z</time>
      </trkpt>
      <trkpt lat="45.45108" lon="6.21318">
        <ele>1978.5305175781</ele>
        <time>2012-08-10T13:22:41Z</time>
      </trkpt>
      <trkpt lat="45.4512" lon="6.21315">
        <ele>1980.9340820312</ele>
        <time>2012-08-10T13:22:49Z</time>
      </trkpt>
      <trkpt lat="45.45127" lon="6.21314">
        <ele>1981.8952636719</ele>
        <time>2012-08-10T13:22:55Z</time>
      </trkpt>
      <trkpt lat="45.4513" lon="6.21314">
        <ele>1982.8564453125</ele>
        <time>2012-08-10T13:22:57Z</time>
      </trkpt>
      <trkpt lat="45.45138" lon="6.21311">
        <ele>1984.2985839844</ele>
        <time>2012-08-10T13:23:03Z</time>
      </trkpt>
      <trkpt lat="45.45147" lon="6.21307">
        <ele>1984.2985839844</ele>
        <time>2012-08-10T13:23:11Z</time>
      </trkpt>
      <trkpt lat="45.45153" lon="6.21303">
        <ele>1984.779296875</ele>
        <time>2012-08-10T13:23:16Z</time>
      </trkpt>
      <trkpt lat="45.45162" lon="6.21298">
        <ele>1985.7404785156</ele>
        <time>2012-08-10T13:23:24Z</time>
      </trkpt>
      <trkpt lat="45.45172" lon="6.21295">
        <ele>1987.6630859375</ele>
        <time>2012-08-10T13:23:33Z</time>
      </trkpt>
      <trkpt lat="45.4518" lon="6.21293">
        <ele>1988.1437988281</ele>
        <time>2012-08-10T13:23:40Z</time>
      </trkpt>
      <trkpt lat="45.45183" lon="6.21292">
        <ele>1987.6630859375</ele>
        <time>2012-08-10T13:23:42Z</time>
      </trkpt>
      <trkpt lat="45.45192" lon="6.21284">
        <ele>1986.7016601562</ele>
        <time>2012-08-10T13:23:48Z</time>
      </trkpt>
      <trkpt lat="45.45198" lon="6.21283">
        <ele>1985.7404785156</ele>
        <time>2012-08-10T13:23:52Z</time>
      </trkpt>
      <trkpt lat="45.45199" lon="6.21283">
        <ele>1985.7404785156</ele>
        <time>2012-08-10T13:23:57Z</time>
      </trkpt>
      <trkpt lat="45.45202" lon="6.21285">
        <ele>1985.259765625</ele>
        <time>2012-08-10T13:24:03Z</time>
      </trkpt>
      <trkpt lat="45.45203" lon="6.21287">
        <ele>1983.8178710938</ele>
        <time>2012-08-10T13:24:08Z</time>
      </trkpt>
      <trkpt lat="45.45206" lon="6.21292">
        <ele>1982.8564453125</ele>
        <time>2012-08-10T13:24:14Z</time>
      </trkpt>
      <trkpt lat="45.45212" lon="6.21294">
        <ele>1981.8952636719</ele>
        <time>2012-08-10T13:24:20Z</time>
      </trkpt>
      <trkpt lat="45.45219" lon="6.21298">
        <ele>1980.4533691406</ele>
        <time>2012-08-10T13:24:27Z</time>
      </trkpt>
      <trkpt lat="45.45227" lon="6.21304">
        <ele>1978.5305175781</ele>
        <time>2012-08-10T13:24:35Z</time>
      </trkpt>
      <trkpt lat="45.45236" lon="6.21311">
        <ele>1976.6079101562</ele>
        <time>2012-08-10T13:24:42Z</time>
      </trkpt>
      <trkpt lat="45.45243" lon="6.21316">
        <ele>1975.1657714844</ele>
        <time>2012-08-10T13:24:47Z</time>
      </trkpt>
      <trkpt lat="45.45249" lon="6.21319">
        <ele>1973.2434082031</ele>
        <time>2012-08-10T13:24:52Z</time>
      </trkpt>
      <trkpt lat="45.45255" lon="6.21324">
        <ele>1970.359375</ele>
        <time>2012-08-10T13:24:59Z</time>
      </trkpt>
      <trkpt lat="45.4526" lon="6.21324">
        <ele>1967.9560546875</ele>
        <time>2012-08-10T13:25:06Z</time>
      </trkpt>
      <trkpt lat="45.45266" lon="6.21324">
        <ele>1966.5141601562</ele>
        <time>2012-08-10T13:25:11Z</time>
      </trkpt>
      <trkpt lat="45.45272" lon="6.21325">
        <ele>1964.5915527344</ele>
        <time>2012-08-10T13:25:17Z</time>
      </trkpt>
      <trkpt lat="45.45277" lon="6.21327">
        <ele>1963.6298828125</ele>
        <time>2012-08-10T13:25:21Z</time>
      </trkpt>
      <trkpt lat="45.45285" lon="6.21335">
        <ele>1961.7075195312</ele>
        <time>2012-08-10T13:25:28Z</time>
      </trkpt>
      <trkpt lat="45.4529" lon="6.2134">
        <ele>1959.7846679688</ele>
        <time>2012-08-10T13:25:33Z</time>
      </trkpt>
      <trkpt lat="45.45295" lon="6.21343">
        <ele>1958.3427734375</ele>
        <time>2012-08-10T13:25:38Z</time>
      </trkpt>
      <trkpt lat="45.453" lon="6.21345">
        <ele>1955.939453125</ele>
        <time>2012-08-10T13:25:42Z</time>
      </trkpt>
      <trkpt lat="45.45306" lon="6.2135">
        <ele>1954.4975585938</ele>
        <time>2012-08-10T13:25:47Z</time>
      </trkpt>
      <trkpt lat="45.45309" lon="6.21343">
        <ele>1952.0942382812</ele>
        <time>2012-08-10T13:25:52Z</time>
      </trkpt>
      <trkpt lat="45.45311" lon="6.21333">
        <ele>1951.1330566406</ele>
        <time>2012-08-10T13:25:58Z</time>
      </trkpt>
      <trkpt lat="45.45311" lon="6.21332">
        <ele>1950.65234375</ele>
        <time>2012-08-10T13:25:59Z</time>
      </trkpt>
      <trkpt lat="45.45314" lon="6.21325">
        <ele>1948.2490234375</ele>
        <time>2012-08-10T13:26:05Z</time>
      </trkpt>
      <trkpt lat="45.45318" lon="6.21324">
        <ele>1945.3649902344</ele>
        <time>2012-08-10T13:26:09Z</time>
      </trkpt>
      <trkpt lat="45.45324" lon="6.21332">
        <ele>1942.0004882812</ele>
        <time>2012-08-10T13:26:15Z</time>
      </trkpt>
      <trkpt lat="45.45329" lon="6.21336">
        <ele>1940.5583496094</ele>
        <time>2012-08-10T13:26:19Z</time>
      </trkpt>
      <trkpt lat="45.45333" lon="6.21338">
        <ele>1938.6359863281</ele>
        <time>2012-08-10T13:26:23Z</time>
      </trkpt>
      <trkpt lat="45.45341" lon="6.2134">
        <ele>1934.7907714844</ele>
        <time>2012-08-10T13:26:29Z</time>
      </trkpt>
      <trkpt lat="45.45343" lon="6.21342">
        <ele>1933.8293457031</ele>
        <time>2012-08-10T13:26:31Z</time>
      </trkpt>
      <trkpt lat="45.45345" lon="6.21344">
        <ele>1933.3486328125</ele>
        <time>2012-08-10T13:26:33Z</time>
      </trkpt>
      <trkpt lat="45.45353" lon="6.21348">
        <ele>1931.42578125</ele>
        <time>2012-08-10T13:26:38Z</time>
      </trkpt>
      <trkpt lat="45.45354" lon="6.21349">
        <ele>1931.42578125</ele>
        <time>2012-08-10T13:26:39Z</time>
      </trkpt>
      <trkpt lat="45.45362" lon="6.21352">
        <ele>1928.0612792969</ele>
        <time>2012-08-10T13:26:44Z</time>
      </trkpt>
      <trkpt lat="45.45366" lon="6.21354">
        <ele>1925.1772460938</ele>
        <time>2012-08-10T13:26:49Z</time>
      </trkpt>
      <trkpt lat="45.45367" lon="6.21355">
        <ele>1924.6967773438</ele>
        <time>2012-08-10T13:26:50Z</time>
      </trkpt>
      <trkpt lat="45.45376" lon="6.21359">
        <ele>1922.2934570312</ele>
        <time>2012-08-10T13:26:57Z</time>
      </trkpt>
      <trkpt lat="45.4538" lon="6.21361">
        <ele>1920.3708496094</ele>
        <time>2012-08-10T13:27:01Z</time>
      </trkpt>
      <trkpt lat="45.45388" lon="6.21362">
        <ele>1917.4868164062</ele>
        <time>2012-08-10T13:27:07Z</time>
      </trkpt>
      <trkpt lat="45.45395" lon="6.21365">
        <ele>1916.044921875</ele>
        <time>2012-08-10T13:27:13Z</time>
      </trkpt>
      <trkpt lat="45.45401" lon="6.21369">
        <ele>1915.0834960938</ele>
        <time>2012-08-10T13:27:18Z</time>
      </trkpt>
      <trkpt lat="45.45406" lon="6.21371">
        <ele>1914.1220703125</ele>
        <time>2012-08-10T13:27:21Z</time>
      </trkpt>
      <trkpt lat="45.45415" lon="6.21375">
        <ele>1911.23828125</ele>
        <time>2012-08-10T13:27:28Z</time>
      </trkpt>
      <trkpt lat="45.45418" lon="6.21376">
        <ele>1909.7961425781</ele>
        <time>2012-08-10T13:27:30Z</time>
      </trkpt>
      <trkpt lat="45.45425" lon="6.21372">
        <ele>1906.9123535156</ele>
        <time>2012-08-10T13:27:36Z</time>
      </trkpt>
      <trkpt lat="45.45433" lon="6.2137">
        <ele>1905.4704589844</ele>
        <time>2012-08-10T13:27:42Z</time>
      </trkpt>
      <trkpt lat="45.4544" lon="6.21369">
        <ele>1903.5478515625</ele>
        <time>2012-08-10T13:27:48Z</time>
      </trkpt>
      <trkpt lat="45.45448" lon="6.21373">
        <ele>1900.1833496094</ele>
        <time>2012-08-10T13:27:54Z</time>
      </trkpt>
      <trkpt lat="45.45456" lon="6.2138">
        <ele>1898.2602539062</ele>
        <time>2012-08-10T13:27:59Z</time>
      </trkpt>
      <trkpt lat="45.45457" lon="6.21382">
        <ele>1898.2602539062</ele>
        <time>2012-08-10T13:28:00Z</time>
      </trkpt>
      <trkpt lat="45.45467" lon="6.21385">
        <ele>1896.337890625</ele>
        <time>2012-08-10T13:28:04Z</time>
      </trkpt>
      <trkpt lat="45.4547" lon="6.21387">
        <ele>1894.4150390625</ele>
        <time>2012-08-10T13:28:06Z</time>
      </trkpt>
      <trkpt lat="45.45477" lon="6.21391">
        <ele>1891.0505371094</ele>
        <time>2012-08-10T13:28:11Z</time>
      </trkpt>
      <trkpt lat="45.45481" lon="6.21396">
        <ele>1887.2053222656</ele>
        <time>2012-08-10T13:28:16Z</time>
      </trkpt>
      <trkpt lat="45.45489" lon="6.21398">
        <ele>1888.6474609375</ele>
        <time>2012-08-10T13:28:21Z</time>
      </trkpt>
      <trkpt lat="45.45493" lon="6.21398">
        <ele>1889.1279296875</ele>
        <time>2012-08-10T13:28:23Z</time>
      </trkpt>
      <trkpt lat="45.45501" lon="6.214">
        <ele>1889.1279296875</ele>
        <time>2012-08-10T13:28:28Z</time>
      </trkpt>
      <trkpt lat="45.45505" lon="6.21401">
        <ele>1889.1279296875</ele>
        <time>2012-08-10T13:28:30Z</time>
      </trkpt>
      <trkpt lat="45.4551" lon="6.21401">
        <ele>1888.6474609375</ele>
        <time>2012-08-10T13:28:33Z</time>
      </trkpt>
      <trkpt lat="45.45518" lon="6.21405">
        <ele>1888.6474609375</ele>
        <time>2012-08-10T13:28:37Z</time>
      </trkpt>
      <trkpt lat="45.45527" lon="6.21408">
        <ele>1889.6086425781</ele>
        <time>2012-08-10T13:28:42Z</time>
      </trkpt>
      <trkpt lat="45.45531" lon="6.2141">
        <ele>1889.6086425781</ele>
        <time>2012-08-10T13:28:44Z</time>
      </trkpt>
      <trkpt lat="45.45545" lon="6.21418">
        <ele>1892.4926757812</ele>
        <time>2012-08-10T13:28:50Z</time>
      </trkpt>
      <trkpt lat="45.45555" lon="6.21423">
        <ele>1895.8571777344</ele>
        <time>2012-08-10T13:28:57Z</time>
      </trkpt>
      <trkpt lat="45.45565" lon="6.2143">
        <ele>1899.2216796875</ele>
        <time>2012-08-10T13:29:05Z</time>
      </trkpt>
      <trkpt lat="45.45571" lon="6.21433">
        <ele>1901.14453125</ele>
        <time>2012-08-10T13:29:10Z</time>
      </trkpt>
      <trkpt lat="45.45577" lon="6.21437">
        <ele>1902.1057128906</ele>
        <time>2012-08-10T13:29:15Z</time>
      </trkpt>
      <trkpt lat="45.45586" lon="6.21444">
        <ele>1901.14453125</ele>
        <time>2012-08-10T13:29:23Z</time>
      </trkpt>
      <trkpt lat="45.45593" lon="6.21448">
        <ele>1900.1833496094</ele>
        <time>2012-08-10T13:29:27Z</time>
      </trkpt>
      <trkpt lat="45.45601" lon="6.21452">
        <ele>1898.7409667969</ele>
        <time>2012-08-10T13:29:31Z</time>
      </trkpt>
      <trkpt lat="45.45602" lon="6.21455">
        <ele>1898.7409667969</ele>
        <time>2012-08-10T13:29:32Z</time>
      </trkpt>
      <trkpt lat="45.45604" lon="6.21459">
        <ele>1898.2602539062</ele>
        <time>2012-08-10T13:29:34Z</time>
      </trkpt>
      <trkpt lat="45.4561" lon="6.21464">
        <ele>1897.2990722656</ele>
        <time>2012-08-10T13:29:39Z</time>
      </trkpt>
      <trkpt lat="45.45618" lon="6.21472">
        <ele>1896.818359375</ele>
        <time>2012-08-10T13:29:47Z</time>
      </trkpt>
      <trkpt lat="45.4562" lon="6.21474">
        <ele>1896.818359375</ele>
        <time>2012-08-10T13:29:48Z</time>
      </trkpt>
      <trkpt lat="45.45625" lon="6.21481">
        <ele>1895.3764648438</ele>
        <time>2012-08-10T13:29:54Z</time>
      </trkpt>
      <trkpt lat="45.45628" lon="6.21485">
        <ele>1894.8957519531</ele>
        <time>2012-08-10T13:29:57Z</time>
      </trkpt>
      <trkpt lat="45.45636" lon="6.2149">
        <ele>1895.3764648438</ele>
        <time>2012-08-10T13:30:02Z</time>
      </trkpt>
      <trkpt lat="45.45642" lon="6.21497">
        <ele>1894.4150390625</ele>
        <time>2012-08-10T13:30:07Z</time>
      </trkpt>
      <trkpt lat="45.45649" lon="6.21503">
        <ele>1894.4150390625</ele>
        <time>2012-08-10T13:30:12Z</time>
      </trkpt>
      <trkpt lat="45.4566" lon="6.21511">
        <ele>1894.4150390625</ele>
        <time>2012-08-10T13:30:18Z</time>
      </trkpt>
      <trkpt lat="45.45669" lon="6.21522">
        <ele>1892.9731445312</ele>
        <time>2012-08-10T13:30:24Z</time>
      </trkpt>
      <trkpt lat="45.45677" lon="6.2153">
        <ele>1892.0119628906</ele>
        <time>2012-08-10T13:30:29Z</time>
      </trkpt>
      <trkpt lat="45.45685" lon="6.21536">
        <ele>1890.0893554688</ele>
        <time>2012-08-10T13:30:36Z</time>
      </trkpt>
      <trkpt lat="45.45691" lon="6.2154">
        <ele>1888.6474609375</ele>
        <time>2012-08-10T13:30:41Z</time>
      </trkpt>
      <trkpt lat="45.45697" lon="6.21545">
        <ele>1887.6860351562</ele>
        <time>2012-08-10T13:30:46Z</time>
      </trkpt>
      <trkpt lat="45.45701" lon="6.21551">
        <ele>1886.724609375</ele>
        <time>2012-08-10T13:30:50Z</time>
      </trkpt>
      <trkpt lat="45.45708" lon="6.21559">
        <ele>1885.7634277344</ele>
        <time>2012-08-10T13:30:57Z</time>
      </trkpt>
      <trkpt lat="45.45711" lon="6.21562">
        <ele>1885.2827148438</ele>
        <time>2012-08-10T13:31:00Z</time>
      </trkpt>
      <trkpt lat="45.4572" lon="6.21574">
        <ele>1883.8405761719</ele>
        <time>2012-08-10T13:31:09Z</time>
      </trkpt>
      <trkpt lat="45.45725" lon="6.21581">
        <ele>1882.8791503906</ele>
        <time>2012-08-10T13:31:14Z</time>
      </trkpt>
      <trkpt lat="45.4573" lon="6.21591">
        <ele>1880.9567871094</ele>
        <time>2012-08-10T13:31:21Z</time>
      </trkpt>
      <trkpt lat="45.45736" lon="6.21604">
        <ele>1879.9953613281</ele>
        <time>2012-08-10T13:31:26Z</time>
      </trkpt>
      <trkpt lat="45.4574" lon="6.21612">
        <ele>1881.4372558594</ele>
        <time>2012-08-10T13:31:32Z</time>
      </trkpt>
      <trkpt lat="45.45743" lon="6.2162">
        <ele>1880.9567871094</ele>
        <time>2012-08-10T13:31:37Z</time>
      </trkpt>
      <trkpt lat="45.45747" lon="6.21631">
        <ele>1879.0339355469</ele>
        <time>2012-08-10T13:31:43Z</time>
      </trkpt>
      <trkpt lat="45.45748" lon="6.21633">
        <ele>1879.0339355469</ele>
        <time>2012-08-10T13:31:44Z</time>
      </trkpt>
      <trkpt lat="45.45754" lon="6.21638">
        <ele>1877.5920410156</ele>
        <time>2012-08-10T13:31:51Z</time>
      </trkpt>
      <trkpt lat="45.45756" lon="6.2164">
        <ele>1877.5920410156</ele>
        <time>2012-08-10T13:31:53Z</time>
      </trkpt>
      <trkpt lat="45.45758" lon="6.21641">
        <ele>1877.1115722656</ele>
        <time>2012-08-10T13:31:55Z</time>
      </trkpt>
      <trkpt lat="45.45765" lon="6.21646">
        <ele>1874.7082519531</ele>
        <time>2012-08-10T13:32:02Z</time>
      </trkpt>
      <trkpt lat="45.45769" lon="6.21647">
        <ele>1873.2663574219</ele>
        <time>2012-08-10T13:32:05Z</time>
      </trkpt>
      <trkpt lat="45.45773" lon="6.21656">
        <ele>1870.8630371094</ele>
        <time>2012-08-10T13:32:12Z</time>
      </trkpt>
      <trkpt lat="45.45777" lon="6.21661">
        <ele>1869.4211425781</ele>
        <time>2012-08-10T13:32:17Z</time>
      </trkpt>
      <trkpt lat="45.45778" lon="6.21663">
        <ele>1868.4597167969</ele>
        <time>2012-08-10T13:32:19Z</time>
      </trkpt>
      <trkpt lat="45.45785" lon="6.21672">
        <ele>1865.5756835938</ele>
        <time>2012-08-10T13:32:26Z</time>
      </trkpt>
      <trkpt lat="45.45792" lon="6.2168">
        <ele>1862.6916503906</ele>
        <time>2012-08-10T13:32:33Z</time>
      </trkpt>
      <trkpt lat="45.45795" lon="6.21681">
        <ele>1861.73046875</ele>
        <time>2012-08-10T13:32:35Z</time>
      </trkpt>
      <trkpt lat="45.45798" lon="6.21685">
        <ele>1858.3657226562</ele>
        <time>2012-08-10T13:32:39Z</time>
      </trkpt>
      <trkpt lat="45.45803" lon="6.21691">
        <ele>1855.9624023438</ele>
        <time>2012-08-10T13:32:43Z</time>
      </trkpt>
      <trkpt lat="45.45814" lon="6.21703">
        <ele>1854.5205078125</ele>
        <time>2012-08-10T13:32:49Z</time>
      </trkpt>
      <trkpt lat="45.4582" lon="6.21712">
        <ele>1855.0012207031</ele>
        <time>2012-08-10T13:32:53Z</time>
      </trkpt>
      <trkpt lat="45.45827" lon="6.21716">
        <ele>1854.0400390625</ele>
        <time>2012-08-10T13:32:56Z</time>
      </trkpt>
      <trkpt lat="45.45833" lon="6.21723">
        <ele>1854.0400390625</ele>
        <time>2012-08-10T13:33:00Z</time>
      </trkpt>
      <trkpt lat="45.4584" lon="6.21732">
        <ele>1853.0786132812</ele>
        <time>2012-08-10T13:33:06Z</time>
      </trkpt>
      <trkpt lat="45.45849" lon="6.21739">
        <ele>1850.6750488281</ele>
        <time>2012-08-10T13:33:12Z</time>
      </trkpt>
      <trkpt lat="45.45852" lon="6.21742">
        <ele>1849.2331542969</ele>
        <time>2012-08-10T13:33:14Z</time>
      </trkpt>
      <trkpt lat="45.45857" lon="6.21749">
        <ele>1847.310546875</ele>
        <time>2012-08-10T13:33:18Z</time>
      </trkpt>
      <trkpt lat="45.45859" lon="6.21753">
        <ele>1846.8298339844</ele>
        <time>2012-08-10T13:33:20Z</time>
      </trkpt>
      <trkpt lat="45.45865" lon="6.21765">
        <ele>1844.9072265625</ele>
        <time>2012-08-10T13:33:27Z</time>
      </trkpt>
      <trkpt lat="45.45868" lon="6.21771">
        <ele>1845.8686523438</ele>
        <time>2012-08-10T13:33:29Z</time>
      </trkpt>
      <trkpt lat="45.45874" lon="6.21782">
        <ele>1846.8298339844</ele>
        <time>2012-08-10T13:33:35Z</time>
      </trkpt>
      <trkpt lat="45.45876" lon="6.21788">
        <ele>1846.3493652344</ele>
        <time>2012-08-10T13:33:39Z</time>
      </trkpt>
      <trkpt lat="45.45877" lon="6.21791">
        <ele>1846.3493652344</ele>
        <time>2012-08-10T13:33:41Z</time>
      </trkpt>
      <trkpt lat="45.45879" lon="6.21796">
        <ele>1845.3879394531</ele>
        <time>2012-08-10T13:33:44Z</time>
      </trkpt>
      <trkpt lat="45.4588" lon="6.21805">
        <ele>1843.9460449219</ele>
        <time>2012-08-10T13:33:49Z</time>
      </trkpt>
      <trkpt lat="45.45888" lon="6.21818">
        <ele>1842.9846191406</ele>
        <time>2012-08-10T13:33:56Z</time>
      </trkpt>
      <trkpt lat="45.45893" lon="6.21821">
        <ele>1842.9846191406</ele>
        <time>2012-08-10T13:34:00Z</time>
      </trkpt>
      <trkpt lat="45.45901" lon="6.21826">
        <ele>1842.0234375</ele>
        <time>2012-08-10T13:34:05Z</time>
      </trkpt>
      <trkpt lat="45.45908" lon="6.2183">
        <ele>1841.5427246094</ele>
        <time>2012-08-10T13:34:09Z</time>
      </trkpt>
      <trkpt lat="45.4591" lon="6.21831">
        <ele>1841.0620117188</ele>
        <time>2012-08-10T13:34:11Z</time>
      </trkpt>
      <trkpt lat="45.45914" lon="6.21835">
        <ele>1838.6589355469</ele>
        <time>2012-08-10T13:34:18Z</time>
      </trkpt>
      <trkpt lat="45.45918" lon="6.2184">
        <ele>1836.7360839844</ele>
        <time>2012-08-10T13:34:22Z</time>
      </trkpt>
      <trkpt lat="45.45923" lon="6.21846">
        <ele>1834.3327636719</ele>
        <time>2012-08-10T13:34:27Z</time>
      </trkpt>
      <trkpt lat="45.45924" lon="6.21853">
        <ele>1832.41015625</ele>
        <time>2012-08-10T13:34:32Z</time>
      </trkpt>
      <trkpt lat="45.45927" lon="6.2186">
        <ele>1829.0454101562</ele>
        <time>2012-08-10T13:34:40Z</time>
      </trkpt>
      <trkpt lat="45.45931" lon="6.21867">
        <ele>1826.1616210938</ele>
        <time>2012-08-10T13:34:46Z</time>
      </trkpt>
      <trkpt lat="45.45932" lon="6.21872">
        <ele>1823.7583007812</ele>
        <time>2012-08-10T13:34:51Z</time>
      </trkpt>
      <trkpt lat="45.45934" lon="6.21874">
        <ele>1822.31640625</ele>
        <time>2012-08-10T13:34:53Z</time>
      </trkpt>
      <trkpt lat="45.45939" lon="6.2188">
        <ele>1818.4709472656</ele>
        <time>2012-08-10T13:34:58Z</time>
      </trkpt>
      <trkpt lat="45.45943" lon="6.21886">
        <ele>1816.5483398438</ele>
        <time>2012-08-10T13:35:02Z</time>
      </trkpt>
      <trkpt lat="45.45947" lon="6.21888">
        <ele>1815.1064453125</ele>
        <time>2012-08-10T13:35:07Z</time>
      </trkpt>
      <trkpt lat="45.4595" lon="6.21893">
        <ele>1812.2224121094</ele>
        <time>2012-08-10T13:35:13Z</time>
      </trkpt>
      <trkpt lat="45.45955" lon="6.21897">
        <ele>1811.2612304688</ele>
        <time>2012-08-10T13:35:17Z</time>
      </trkpt>
      <trkpt lat="45.45961" lon="6.21902">
        <ele>1810.2998046875</ele>
        <time>2012-08-10T13:35:23Z</time>
      </trkpt>
      <trkpt lat="45.45961" lon="6.21902">
        <ele>1809.8190917969</ele>
        <time>2012-08-10T13:35:24Z</time>
      </trkpt>
      <trkpt lat="45.45969" lon="6.21906">
        <ele>1807.8967285156</ele>
        <time>2012-08-10T13:35:31Z</time>
      </trkpt>
      <trkpt lat="45.45973" lon="6.21907">
        <ele>1805.4934082031</ele>
        <time>2012-08-10T13:35:37Z</time>
      </trkpt>
      <trkpt lat="45.45977" lon="6.21912">
        <ele>1803.5705566406</ele>
        <time>2012-08-10T13:35:42Z</time>
      </trkpt>
      <trkpt lat="45.45981" lon="6.21914">
        <ele>1801.6479492188</ele>
        <time>2012-08-10T13:35:47Z</time>
      </trkpt>
      <trkpt lat="45.45981" lon="6.21922">
        <ele>1799.7253417969</ele>
        <time>2012-08-10T13:35:54Z</time>
      </trkpt>
      <trkpt lat="45.4598" lon="6.21924">
        <ele>1799.2446289062</ele>
        <time>2012-08-10T13:35:55Z</time>
      </trkpt>
      <trkpt lat="45.45974" lon="6.21933">
        <ele>1796.8413085938</ele>
        <time>2012-08-10T13:36:00Z</time>
      </trkpt>
      <trkpt lat="45.45977" lon="6.21935">
        <ele>1795.3994140625</ele>
        <time>2012-08-10T13:36:04Z</time>
      </trkpt>
      <trkpt lat="45.4598" lon="6.21936">
        <ele>1794.9187011719</ele>
        <time>2012-08-10T13:36:07Z</time>
      </trkpt>
      <trkpt lat="45.45983" lon="6.21936">
        <ele>1793.9575195312</ele>
        <time>2012-08-10T13:36:09Z</time>
      </trkpt>
      <trkpt lat="45.45987" lon="6.21941">
        <ele>1790.1123046875</ele>
        <time>2012-08-10T13:36:16Z</time>
      </trkpt>
      <trkpt lat="45.4599" lon="6.21942">
        <ele>1788.1896972656</ele>
        <time>2012-08-10T13:36:20Z</time>
      </trkpt>
      <trkpt lat="45.45994" lon="6.21945">
        <ele>1784.8249511719</ele>
        <time>2012-08-10T13:36:28Z</time>
      </trkpt>
      <trkpt lat="45.45997" lon="6.21949">
        <ele>1780.9797363281</ele>
        <time>2012-08-10T13:36:35Z</time>
      </trkpt>
      <trkpt lat="45.46" lon="6.21955">
        <ele>1778.095703125</ele>
        <time>2012-08-10T13:36:40Z</time>
      </trkpt>
      <trkpt lat="45.46003" lon="6.2196">
        <ele>1776.1730957031</ele>
        <time>2012-08-10T13:36:45Z</time>
      </trkpt>
      <trkpt lat="45.46006" lon="6.21967">
        <ele>1774.7312011719</ele>
        <time>2012-08-10T13:36:49Z</time>
      </trkpt>
      <trkpt lat="45.46011" lon="6.21975">
        <ele>1773.2893066406</ele>
        <time>2012-08-10T13:36:53Z</time>
      </trkpt>
      <trkpt lat="45.46014" lon="6.21976">
        <ele>1773.7697753906</ele>
        <time>2012-08-10T13:36:54Z</time>
      </trkpt>
      <trkpt lat="45.46023" lon="6.21978">
        <ele>1772.80859375</ele>
        <time>2012-08-10T13:37:02Z</time>
      </trkpt>
      <trkpt lat="45.46025" lon="6.21979">
        <ele>1770.8857421875</ele>
        <time>2012-08-10T13:37:07Z</time>
      </trkpt>
      <trkpt lat="45.46028" lon="6.21975">
        <ele>1769.4438476562</ele>
        <time>2012-08-10T13:37:12Z</time>
      </trkpt>
      <trkpt lat="45.46029" lon="6.21968">
        <ele>1765.5986328125</ele>
        <time>2012-08-10T13:37:18Z</time>
      </trkpt>
      <trkpt lat="45.46032" lon="6.21965">
        <ele>1761.7534179688</ele>
        <time>2012-08-10T13:37:24Z</time>
      </trkpt>
      <trkpt lat="45.46035" lon="6.21969">
        <ele>1758.388671875</ele>
        <time>2012-08-10T13:37:29Z</time>
      </trkpt>
      <trkpt lat="45.46038" lon="6.21972">
        <ele>1756.9467773438</ele>
        <time>2012-08-10T13:37:31Z</time>
      </trkpt>
      <trkpt lat="45.46043" lon="6.21979">
        <ele>1755.0239257812</ele>
        <time>2012-08-10T13:37:36Z</time>
      </trkpt>
      <trkpt lat="45.46045" lon="6.21986">
        <ele>1752.6206054688</ele>
        <time>2012-08-10T13:37:42Z</time>
      </trkpt>
      <trkpt lat="45.46047" lon="6.21989">
        <ele>1751.1787109375</ele>
        <time>2012-08-10T13:37:46Z</time>
      </trkpt>
      <trkpt lat="45.4605" lon="6.21993">
        <ele>1749.2561035156</ele>
        <time>2012-08-10T13:37:51Z</time>
      </trkpt>
      <trkpt lat="45.46054" lon="6.21998">
        <ele>1745.8916015625</ele>
        <time>2012-08-10T13:37:58Z</time>
      </trkpt>
      <trkpt lat="45.46055" lon="6.22003">
        <ele>1744.4494628906</ele>
        <time>2012-08-10T13:38:03Z</time>
      </trkpt>
      <trkpt lat="45.4606" lon="6.22005">
        <ele>1741.5656738281</ele>
        <time>2012-08-10T13:38:08Z</time>
      </trkpt>
      <trkpt lat="45.4607" lon="6.22">
        <ele>1740.6042480469</ele>
        <time>2012-08-10T13:38:13Z</time>
      </trkpt>
      <trkpt lat="45.46079" lon="6.22005">
        <ele>1736.7587890625</ele>
        <time>2012-08-10T13:38:20Z</time>
      </trkpt>
      <trkpt lat="45.46085" lon="6.2201">
        <ele>1734.8364257812</ele>
        <time>2012-08-10T13:38:24Z</time>
      </trkpt>
      <trkpt lat="45.46089" lon="6.22013">
        <ele>1734.3557128906</ele>
        <time>2012-08-10T13:38:26Z</time>
      </trkpt>
      <trkpt lat="45.46092" lon="6.22017">
        <ele>1733.3942871094</ele>
        <time>2012-08-10T13:38:28Z</time>
      </trkpt>
      <trkpt lat="45.46099" lon="6.22024">
        <ele>1732.4331054688</ele>
        <time>2012-08-10T13:38:32Z</time>
      </trkpt>
      <trkpt lat="45.46104" lon="6.22026">
        <ele>1731.9523925781</ele>
        <time>2012-08-10T13:38:34Z</time>
      </trkpt>
      <trkpt lat="45.46113" lon="6.22032">
        <ele>1730.0297851562</ele>
        <time>2012-08-10T13:38:41Z</time>
      </trkpt>
      <trkpt lat="45.4612" lon="6.22038">
        <ele>1729.068359375</ele>
        <time>2012-08-10T13:38:45Z</time>
      </trkpt>
      <trkpt lat="45.46125" lon="6.22042">
        <ele>1725.7038574219</ele>
        <time>2012-08-10T13:38:49Z</time>
      </trkpt>
      <trkpt lat="45.46127" lon="6.22042">
        <ele>1725.2231445312</ele>
        <time>2012-08-10T13:38:50Z</time>
      </trkpt>
      <trkpt lat="45.46132" lon="6.22027">
        <ele>1725.2231445312</ele>
        <time>2012-08-10T13:38:56Z</time>
      </trkpt>
      <trkpt lat="45.46134" lon="6.22016">
        <ele>1725.7038574219</ele>
        <time>2012-08-10T13:39:01Z</time>
      </trkpt>
      <trkpt lat="45.46137" lon="6.2201">
        <ele>1726.6652832031</ele>
        <time>2012-08-10T13:39:10Z</time>
      </trkpt>
      <trkpt lat="45.46137" lon="6.22008">
        <ele>1726.6652832031</ele>
        <time>2012-08-10T13:39:11Z</time>
      </trkpt>
      <trkpt lat="45.46141" lon="6.22003">
        <ele>1727.1459960938</ele>
        <time>2012-08-10T13:39:15Z</time>
      </trkpt>
      <trkpt lat="45.46144" lon="6.21996">
        <ele>1727.1459960938</ele>
        <time>2012-08-10T13:39:21Z</time>
      </trkpt>
      <trkpt lat="45.46147" lon="6.21991">
        <ele>1726.6652832031</ele>
        <time>2012-08-10T13:39:25Z</time>
      </trkpt>
      <trkpt lat="45.46151" lon="6.21986">
        <ele>1725.7038574219</ele>
        <time>2012-08-10T13:39:30Z</time>
      </trkpt>
      <trkpt lat="45.46157" lon="6.21978">
        <ele>1723.7810058594</ele>
        <time>2012-08-10T13:39:37Z</time>
      </trkpt>
      <trkpt lat="45.46164" lon="6.21972">
        <ele>1721.3776855469</ele>
        <time>2012-08-10T13:39:43Z</time>
      </trkpt>
      <trkpt lat="45.46168" lon="6.21968">
        <ele>1718.0131835938</ele>
        <time>2012-08-10T13:39:47Z</time>
      </trkpt>
      <trkpt lat="45.46172" lon="6.21966">
        <ele>1716.5712890625</ele>
        <time>2012-08-10T13:39:50Z</time>
      </trkpt>
      <trkpt lat="45.46177" lon="6.21963">
        <ele>1715.1293945312</ele>
        <time>2012-08-10T13:39:54Z</time>
      </trkpt>
      <trkpt lat="45.46186" lon="6.21956">
        <ele>1712.2453613281</ele>
        <time>2012-08-10T13:40:01Z</time>
      </trkpt>
      <trkpt lat="45.46196" lon="6.2195">
        <ele>1709.8420410156</ele>
        <time>2012-08-10T13:40:07Z</time>
      </trkpt>
      <trkpt lat="45.46202" lon="6.21948">
        <ele>1709.3615722656</ele>
        <time>2012-08-10T13:40:11Z</time>
      </trkpt>
      <trkpt lat="45.46211" lon="6.21946">
        <ele>1706.9580078125</ele>
        <time>2012-08-10T13:40:15Z</time>
      </trkpt>
      <trkpt lat="45.46214" lon="6.21943">
        <ele>1706.4772949219</ele>
        <time>2012-08-10T13:40:17Z</time>
      </trkpt>
      <trkpt lat="45.46225" lon="6.21944">
        <ele>1705.5161132812</ele>
        <time>2012-08-10T13:40:23Z</time>
      </trkpt>
      <trkpt lat="45.46236" lon="6.21947">
        <ele>1706.4772949219</ele>
        <time>2012-08-10T13:40:29Z</time>
      </trkpt>
      <trkpt lat="45.46248" lon="6.21949">
        <ele>1707.9194335938</ele>
        <time>2012-08-10T13:40:34Z</time>
      </trkpt>
      <trkpt lat="45.46258" lon="6.21953">
        <ele>1710.3227539062</ele>
        <time>2012-08-10T13:40:38Z</time>
      </trkpt>
      <trkpt lat="45.46268" lon="6.21954">
        <ele>1711.7648925781</ele>
        <time>2012-08-10T13:40:43Z</time>
      </trkpt>
      <trkpt lat="45.46278" lon="6.21961">
        <ele>1712.2453613281</ele>
        <time>2012-08-10T13:40:48Z</time>
      </trkpt>
      <trkpt lat="45.46283" lon="6.21965">
        <ele>1709.8420410156</ele>
        <time>2012-08-10T13:40:51Z</time>
      </trkpt>
      <trkpt lat="45.46288" lon="6.21967">
        <ele>1706.9580078125</ele>
        <time>2012-08-10T13:40:54Z</time>
      </trkpt>
      <trkpt lat="45.46292" lon="6.21969">
        <ele>1705.0354003906</ele>
        <time>2012-08-10T13:40:56Z</time>
      </trkpt>
      <trkpt lat="45.46301" lon="6.21962">
        <ele>1699.7482910156</ele>
        <time>2012-08-10T13:41:02Z</time>
      </trkpt>
      <trkpt lat="45.4631" lon="6.21967">
        <ele>1698.3061523438</ele>
        <time>2012-08-10T13:41:07Z</time>
      </trkpt>
      <trkpt lat="45.46316" lon="6.21975">
        <ele>1695.4223632812</ele>
        <time>2012-08-10T13:41:11Z</time>
      </trkpt>
      <trkpt lat="45.46324" lon="6.21983">
        <ele>1692.0578613281</ele>
        <time>2012-08-10T13:41:16Z</time>
      </trkpt>
      <trkpt lat="45.46333" lon="6.21984">
        <ele>1692.0578613281</ele>
        <time>2012-08-10T13:41:21Z</time>
      </trkpt>
      <trkpt lat="45.46337" lon="6.21981">
        <ele>1689.1735839844</ele>
        <time>2012-08-10T13:41:25Z</time>
      </trkpt>
      <trkpt lat="45.4634" lon="6.21973">
        <ele>1686.2897949219</ele>
        <time>2012-08-10T13:41:30Z</time>
      </trkpt>
      <trkpt lat="45.46345" lon="6.21974">
        <ele>1683.4057617188</ele>
        <time>2012-08-10T13:41:34Z</time>
      </trkpt>
      <trkpt lat="45.46353" lon="6.21981">
        <ele>1680.5219726562</ele>
        <time>2012-08-10T13:41:40Z</time>
      </trkpt>
      <trkpt lat="45.46356" lon="6.21981">
        <ele>1679.560546875</ele>
        <time>2012-08-10T13:41:42Z</time>
      </trkpt>
      <trkpt lat="45.46367" lon="6.21977">
        <ele>1677.6379394531</ele>
        <time>2012-08-10T13:41:48Z</time>
      </trkpt>
      <trkpt lat="45.46373" lon="6.21973">
        <ele>1676.1960449219</ele>
        <time>2012-08-10T13:41:51Z</time>
      </trkpt>
      <trkpt lat="45.46383" lon="6.21973">
        <ele>1675.7150878906</ele>
        <time>2012-08-10T13:41:56Z</time>
      </trkpt>
      <trkpt lat="45.46386" lon="6.21971">
        <ele>1676.1960449219</ele>
        <time>2012-08-10T13:41:58Z</time>
      </trkpt>
      <trkpt lat="45.46396" lon="6.21969">
        <ele>1675.7150878906</ele>
        <time>2012-08-10T13:42:04Z</time>
      </trkpt>
      <trkpt lat="45.46398" lon="6.21969">
        <ele>1675.234375</ele>
        <time>2012-08-10T13:42:05Z</time>
      </trkpt>
      <trkpt lat="45.46405" lon="6.2197">
        <ele>1670.4279785156</ele>
        <time>2012-08-10T13:42:11Z</time>
      </trkpt>
      <trkpt lat="45.4641" lon="6.2197">
        <ele>1668.9860839844</ele>
        <time>2012-08-10T13:42:14Z</time>
      </trkpt>
      <trkpt lat="45.46418" lon="6.21971">
        <ele>1667.5439453125</ele>
        <time>2012-08-10T13:42:19Z</time>
      </trkpt>
      <trkpt lat="45.46425" lon="6.2197">
        <ele>1666.1020507812</ele>
        <time>2012-08-10T13:42:23Z</time>
      </trkpt>
      <trkpt lat="45.46436" lon="6.21967">
        <ele>1660.8149414062</ele>
        <time>2012-08-10T13:42:30Z</time>
      </trkpt>
      <trkpt lat="45.46438" lon="6.2196">
        <ele>1657.9309082031</ele>
        <time>2012-08-10T13:42:35Z</time>
      </trkpt>
      <trkpt lat="45.4644" lon="6.21953">
        <ele>1654.0856933594</ele>
        <time>2012-08-10T13:42:39Z</time>
      </trkpt>
      <trkpt lat="45.46448" lon="6.21946">
        <ele>1650.2404785156</ele>
        <time>2012-08-10T13:42:44Z</time>
      </trkpt>
      <trkpt lat="45.46454" lon="6.21936">
        <ele>1647.3564453125</ele>
        <time>2012-08-10T13:42:49Z</time>
      </trkpt>
      <trkpt lat="45.46457" lon="6.21929">
        <ele>1645.9145507812</ele>
        <time>2012-08-10T13:42:52Z</time>
      </trkpt>
      <trkpt lat="45.46469" lon="6.21924">
        <ele>1643.0302734375</ele>
        <time>2012-08-10T13:42:59Z</time>
      </trkpt>
      <trkpt lat="45.46476" lon="6.21922">
        <ele>1639.6657714844</ele>
        <time>2012-08-10T13:43:03Z</time>
      </trkpt>
      <trkpt lat="45.46484" lon="6.21917">
        <ele>1638.7045898438</ele>
        <time>2012-08-10T13:43:08Z</time>
      </trkpt>
      <trkpt lat="45.46493" lon="6.21916">
        <ele>1639.1850585938</ele>
        <time>2012-08-10T13:43:12Z</time>
      </trkpt>
      <trkpt lat="45.46497" lon="6.21915">
        <ele>1638.7045898438</ele>
        <time>2012-08-10T13:43:14Z</time>
      </trkpt>
      <trkpt lat="45.46508" lon="6.21913">
        <ele>1636.7817382812</ele>
        <time>2012-08-10T13:43:19Z</time>
      </trkpt>
      <trkpt lat="45.46521" lon="6.21908">
        <ele>1634.3786621094</ele>
        <time>2012-08-10T13:43:26Z</time>
      </trkpt>
      <trkpt lat="45.46537" lon="6.21913">
        <ele>1635.33984375</ele>
        <time>2012-08-10T13:43:32Z</time>
      </trkpt>
      <trkpt lat="45.46542" lon="6.21911">
        <ele>1636.3012695312</ele>
        <time>2012-08-10T13:43:34Z</time>
      </trkpt>
      <trkpt lat="45.46552" lon="6.21912">
        <ele>1634.859375</ele>
        <time>2012-08-10T13:43:39Z</time>
      </trkpt>
      <trkpt lat="45.46558" lon="6.21913">
        <ele>1631.9753417969</ele>
        <time>2012-08-10T13:43:42Z</time>
      </trkpt>
      <trkpt lat="45.46566" lon="6.21917">
        <ele>1633.4172363281</ele>
        <time>2012-08-10T13:43:46Z</time>
      </trkpt>
      <trkpt lat="45.46576" lon="6.21916">
        <ele>1637.7431640625</ele>
        <time>2012-08-10T13:43:50Z</time>
      </trkpt>
      <trkpt lat="45.46589" lon="6.21908">
        <ele>1641.1076660156</ele>
        <time>2012-08-10T13:43:56Z</time>
      </trkpt>
      <trkpt lat="45.466" lon="6.21904">
        <ele>1641.5883789062</ele>
        <time>2012-08-10T13:44:01Z</time>
      </trkpt>
      <trkpt lat="45.4661" lon="6.21905">
        <ele>1642.5498046875</ele>
        <time>2012-08-10T13:44:06Z</time>
      </trkpt>
      <trkpt lat="45.46617" lon="6.21899">
        <ele>1638.2238769531</ele>
        <time>2012-08-10T13:44:11Z</time>
      </trkpt>
      <trkpt lat="45.46621" lon="6.21891">
        <ele>1634.3786621094</ele>
        <time>2012-08-10T13:44:15Z</time>
      </trkpt>
      <trkpt lat="45.46622" lon="6.21882">
        <ele>1631.4946289062</ele>
        <time>2012-08-10T13:44:19Z</time>
      </trkpt>
      <trkpt lat="45.46621" lon="6.2188">
        <ele>1630.5334472656</ele>
        <time>2012-08-10T13:44:20Z</time>
      </trkpt>
      <trkpt lat="45.46618" lon="6.21878">
        <ele>1627.6491699219</ele>
        <time>2012-08-10T13:44:22Z</time>
      </trkpt>
      <trkpt lat="45.46609" lon="6.21876">
        <ele>1624.7653808594</ele>
        <time>2012-08-10T13:44:26Z</time>
      </trkpt>
      <trkpt lat="45.46598" lon="6.21873">
        <ele>1621.8813476562</ele>
        <time>2012-08-10T13:44:32Z</time>
      </trkpt>
      <trkpt lat="45.46596" lon="6.21872">
        <ele>1620.439453125</ele>
        <time>2012-08-10T13:44:34Z</time>
      </trkpt>
      <trkpt lat="45.46595" lon="6.21866">
        <ele>1616.5942382812</ele>
        <time>2012-08-10T13:44:38Z</time>
      </trkpt>
      <trkpt lat="45.46592" lon="6.21863">
        <ele>1614.1909179688</ele>
        <time>2012-08-10T13:44:41Z</time>
      </trkpt>
      <trkpt lat="45.4659" lon="6.21862">
        <ele>1610.826171875</ele>
        <time>2012-08-10T13:44:43Z</time>
      </trkpt>
      <trkpt lat="45.46589" lon="6.21858">
        <ele>1606.9809570312</ele>
        <time>2012-08-10T13:44:47Z</time>
      </trkpt>
      <trkpt lat="45.46584" lon="6.21852">
        <ele>1601.6938476562</ele>
        <time>2012-08-10T13:44:52Z</time>
      </trkpt>
      <trkpt lat="45.46582" lon="6.21848">
        <ele>1601.2131347656</ele>
        <time>2012-08-10T13:44:55Z</time>
      </trkpt>
      <trkpt lat="45.46581" lon="6.21846">
        <ele>1601.2131347656</ele>
        <time>2012-08-10T13:44:56Z</time>
      </trkpt>
      <trkpt lat="45.46583" lon="6.21841">
        <ele>1596.8872070312</ele>
        <time>2012-08-10T13:45:00Z</time>
      </trkpt>
      <trkpt lat="45.46587" lon="6.21832">
        <ele>1591.119140625</ele>
        <time>2012-08-10T13:45:06Z</time>
      </trkpt>
      <trkpt lat="45.46589" lon="6.21829">
        <ele>1588.7160644531</ele>
        <time>2012-08-10T13:45:08Z</time>
      </trkpt>
      <trkpt lat="45.46594" lon="6.2182">
        <ele>1586.3127441406</ele>
        <time>2012-08-10T13:45:14Z</time>
      </trkpt>
      <trkpt lat="45.46592" lon="6.21815">
        <ele>1586.3127441406</ele>
        <time>2012-08-10T13:45:17Z</time>
      </trkpt>
      <trkpt lat="45.46592" lon="6.21805">
        <ele>1586.7932128906</ele>
        <time>2012-08-10T13:45:21Z</time>
      </trkpt>
      <trkpt lat="45.46598" lon="6.21799">
        <ele>1584.8708496094</ele>
        <time>2012-08-10T13:45:27Z</time>
      </trkpt>
      <trkpt lat="45.466" lon="6.21798">
        <ele>1584.8708496094</ele>
        <time>2012-08-10T13:45:28Z</time>
      </trkpt>
      <trkpt lat="45.46601" lon="6.21795">
        <ele>1584.8708496094</ele>
        <time>2012-08-10T13:45:30Z</time>
      </trkpt>
      <trkpt lat="45.466" lon="6.21791">
        <ele>1584.3901367188</ele>
        <time>2012-08-10T13:45:33Z</time>
      </trkpt>
      <trkpt lat="45.46598" lon="6.2178">
        <ele>1581.9868164062</ele>
        <time>2012-08-10T13:45:39Z</time>
      </trkpt>
      <trkpt lat="45.46598" lon="6.21773">
        <ele>1579.5832519531</ele>
        <time>2012-08-10T13:45:44Z</time>
      </trkpt>
      <trkpt lat="45.46596" lon="6.21765">
        <ele>1577.6606445312</ele>
        <time>2012-08-10T13:45:48Z</time>
      </trkpt>
      <trkpt lat="45.46599" lon="6.21759">
        <ele>1575.7380371094</ele>
        <time>2012-08-10T13:45:52Z</time>
      </trkpt>
      <trkpt lat="45.46598" lon="6.21755">
        <ele>1575.2573242188</ele>
        <time>2012-08-10T13:45:54Z</time>
      </trkpt>
      <trkpt lat="45.46593" lon="6.21748">
        <ele>1575.2573242188</ele>
        <time>2012-08-10T13:45:59Z</time>
      </trkpt>
      <trkpt lat="45.46592" lon="6.21744">
        <ele>1570.931640625</ele>
        <time>2012-08-10T13:46:02Z</time>
      </trkpt>
      <trkpt lat="45.46593" lon="6.21739">
        <ele>1567.5668945312</ele>
        <time>2012-08-10T13:46:06Z</time>
      </trkpt>
      <trkpt lat="45.46589" lon="6.21724">
        <ele>1565.1638183594</ele>
        <time>2012-08-10T13:46:12Z</time>
      </trkpt>
      <trkpt lat="45.46586" lon="6.21717">
        <ele>1565.64453125</ele>
        <time>2012-08-10T13:46:17Z</time>
      </trkpt>
      <trkpt lat="45.46584" lon="6.2171">
        <ele>1563.7214355469</ele>
        <time>2012-08-10T13:46:21Z</time>
      </trkpt>
      <trkpt lat="45.46585" lon="6.21698">
        <ele>1563.7214355469</ele>
        <time>2012-08-10T13:46:26Z</time>
      </trkpt>
      <trkpt lat="45.46585" lon="6.21693">
        <ele>1562.2795410156</ele>
        <time>2012-08-10T13:46:29Z</time>
      </trkpt>
      <trkpt lat="45.46585" lon="6.21686">
        <ele>1559.3957519531</ele>
        <time>2012-08-10T13:46:33Z</time>
      </trkpt>
      <trkpt lat="45.46587" lon="6.21683">
        <ele>1557.9538574219</ele>
        <time>2012-08-10T13:46:36Z</time>
      </trkpt>
      <trkpt lat="45.46589" lon="6.21675">
        <ele>1556.51171875</ele>
        <time>2012-08-10T13:46:41Z</time>
      </trkpt>
      <trkpt lat="45.46592" lon="6.2167">
        <ele>1554.5891113281</ele>
        <time>2012-08-10T13:46:45Z</time>
      </trkpt>
      <trkpt lat="45.46593" lon="6.21668">
        <ele>1554.1086425781</ele>
        <time>2012-08-10T13:46:46Z</time>
      </trkpt>
      <trkpt lat="45.46599" lon="6.21655">
        <ele>1549.7827148438</ele>
        <time>2012-08-10T13:46:53Z</time>
      </trkpt>
      <trkpt lat="45.46598" lon="6.21646">
        <ele>1548.3405761719</ele>
        <time>2012-08-10T13:46:57Z</time>
      </trkpt>
      <trkpt lat="45.46598" lon="6.21634">
        <ele>1547.8598632812</ele>
        <time>2012-08-10T13:47:02Z</time>
      </trkpt>
      <trkpt lat="45.46598" lon="6.21632">
        <ele>1546.8984375</ele>
        <time>2012-08-10T13:47:03Z</time>
      </trkpt>
      <trkpt lat="45.46595" lon="6.21619">
        <ele>1546.8984375</ele>
        <time>2012-08-10T13:47:08Z</time>
      </trkpt>
      <trkpt lat="45.46601" lon="6.21616">
        <ele>1546.8984375</ele>
        <time>2012-08-10T13:47:13Z</time>
      </trkpt>
      <trkpt lat="45.46606" lon="6.21623">
        <ele>1546.41796875</ele>
        <time>2012-08-10T13:47:17Z</time>
      </trkpt>
      <trkpt lat="45.4661" lon="6.21631">
        <ele>1546.8984375</ele>
        <time>2012-08-10T13:47:21Z</time>
      </trkpt>
      <trkpt lat="45.46616" lon="6.2164">
        <ele>1547.3791503906</ele>
        <time>2012-08-10T13:47:26Z</time>
      </trkpt>
      <trkpt lat="45.46622" lon="6.21649">
        <ele>1547.3791503906</ele>
        <time>2012-08-10T13:47:31Z</time>
      </trkpt>
      <trkpt lat="45.46629" lon="6.21656">
        <ele>1547.8598632812</ele>
        <time>2012-08-10T13:47:35Z</time>
      </trkpt>
      <trkpt lat="45.4663" lon="6.21661">
        <ele>1546.8984375</ele>
        <time>2012-08-10T13:47:37Z</time>
      </trkpt>
      <trkpt lat="45.46637" lon="6.21672">
        <ele>1545.9372558594</ele>
        <time>2012-08-10T13:47:42Z</time>
      </trkpt>
      <trkpt lat="45.46638" lon="6.21674">
        <ele>1545.4565429688</ele>
        <time>2012-08-10T13:47:43Z</time>
      </trkpt>
      <trkpt lat="45.46647" lon="6.21687">
        <ele>1544.0146484375</ele>
        <time>2012-08-10T13:47:49Z</time>
      </trkpt>
      <trkpt lat="45.46653" lon="6.21694">
        <ele>1544.0146484375</ele>
        <time>2012-08-10T13:47:52Z</time>
      </trkpt>
      <trkpt lat="45.46663" lon="6.21705">
        <ele>1542.5727539062</ele>
        <time>2012-08-10T13:47:57Z</time>
      </trkpt>
      <trkpt lat="45.46671" lon="6.21713">
        <ele>1543.0532226562</ele>
        <time>2012-08-10T13:48:01Z</time>
      </trkpt>
      <trkpt lat="45.46683" lon="6.21723">
        <ele>1544.4951171875</ele>
        <time>2012-08-10T13:48:07Z</time>
      </trkpt>
      <trkpt lat="45.46691" lon="6.21726">
        <ele>1545.9372558594</ele>
        <time>2012-08-10T13:48:11Z</time>
      </trkpt>
      <trkpt lat="45.46701" lon="6.21732">
        <ele>1546.8984375</ele>
        <time>2012-08-10T13:48:15Z</time>
      </trkpt>
      <trkpt lat="45.46709" lon="6.21733">
        <ele>1546.8984375</ele>
        <time>2012-08-10T13:48:19Z</time>
      </trkpt>
      <trkpt lat="45.46716" lon="6.21736">
        <ele>1547.8598632812</ele>
        <time>2012-08-10T13:48:22Z</time>
      </trkpt>
      <trkpt lat="45.46726" lon="6.21741">
        <ele>1545.4565429688</ele>
        <time>2012-08-10T13:48:27Z</time>
      </trkpt>
      <trkpt lat="45.46737" lon="6.21747">
        <ele>1543.5339355469</ele>
        <time>2012-08-10T13:48:32Z</time>
      </trkpt>
      <trkpt lat="45.46748" lon="6.21754">
        <ele>1544.9758300781</ele>
        <time>2012-08-10T13:48:37Z</time>
      </trkpt>
      <trkpt lat="45.46757" lon="6.21759">
        <ele>1545.4565429688</ele>
        <time>2012-08-10T13:48:41Z</time>
      </trkpt>
      <trkpt lat="45.46766" lon="6.21763">
        <ele>1546.8984375</ele>
        <time>2012-08-10T13:48:45Z</time>
      </trkpt>
      <trkpt lat="45.46777" lon="6.21769">
        <ele>1546.8984375</ele>
        <time>2012-08-10T13:48:50Z</time>
      </trkpt>
      <trkpt lat="45.46789" lon="6.21771">
        <ele>1547.3791503906</ele>
        <time>2012-08-10T13:48:55Z</time>
      </trkpt>
      <trkpt lat="45.46801" lon="6.21774">
        <ele>1547.8598632812</ele>
        <time>2012-08-10T13:49:00Z</time>
      </trkpt>
      <trkpt lat="45.46815" lon="6.21774">
        <ele>1551.7053222656</ele>
        <time>2012-08-10T13:49:05Z</time>
      </trkpt>
      <trkpt lat="45.46826" lon="6.21778">
        <ele>1547.8598632812</ele>
        <time>2012-08-10T13:49:10Z</time>
      </trkpt>
      <trkpt lat="45.46828" lon="6.21778">
        <ele>1546.8984375</ele>
        <time>2012-08-10T13:49:11Z</time>
      </trkpt>
      <trkpt lat="45.4684" lon="6.21787">
        <ele>1543.0532226562</ele>
        <time>2012-08-10T13:49:17Z</time>
      </trkpt>
      <trkpt lat="45.46842" lon="6.21788">
        <ele>1542.5727539062</ele>
        <time>2012-08-10T13:49:18Z</time>
      </trkpt>
      <trkpt lat="45.46854" lon="6.21792">
        <ele>1540.1694335938</ele>
        <time>2012-08-10T13:49:24Z</time>
      </trkpt>
      <trkpt lat="45.46859" lon="6.21783">
        <ele>1535.3627929688</ele>
        <time>2012-08-10T13:49:29Z</time>
      </trkpt>
      <trkpt lat="45.46865" lon="6.21781">
        <ele>1531.0368652344</ele>
        <time>2012-08-10T13:49:33Z</time>
      </trkpt>
      <trkpt lat="45.46877" lon="6.21779">
        <ele>1526.7109375</ele>
        <time>2012-08-10T13:49:38Z</time>
      </trkpt>
      <trkpt lat="45.46885" lon="6.21778">
        <ele>1525.2687988281</ele>
        <time>2012-08-10T13:49:42Z</time>
      </trkpt>
      <trkpt lat="45.46894" lon="6.21784">
        <ele>1522.3850097656</ele>
        <time>2012-08-10T13:49:46Z</time>
      </trkpt>
      <trkpt lat="45.46904" lon="6.21785">
        <ele>1517.5783691406</ele>
        <time>2012-08-10T13:49:51Z</time>
      </trkpt>
      <trkpt lat="45.46907" lon="6.21785">
        <ele>1517.0979003906</ele>
        <time>2012-08-10T13:49:52Z</time>
      </trkpt>
      <trkpt lat="45.4692" lon="6.21782">
        <ele>1519.5012207031</ele>
        <time>2012-08-10T13:49:57Z</time>
      </trkpt>
      <trkpt lat="45.46933" lon="6.2179">
        <ele>1515.1750488281</ele>
        <time>2012-08-10T13:50:04Z</time>
      </trkpt>
      <trkpt lat="45.46945" lon="6.21793">
        <ele>1510.8491210938</ele>
        <time>2012-08-10T13:50:10Z</time>
      </trkpt>
      <trkpt lat="45.46953" lon="6.21794">
        <ele>1510.3684082031</ele>
        <time>2012-08-10T13:50:14Z</time>
      </trkpt>
      <trkpt lat="45.46962" lon="6.21799">
        <ele>1508.4458007812</ele>
        <time>2012-08-10T13:50:18Z</time>
      </trkpt>
      <trkpt lat="45.46968" lon="6.21803">
        <ele>1506.0424804688</ele>
        <time>2012-08-10T13:50:23Z</time>
      </trkpt>
      <trkpt lat="45.46979" lon="6.21811">
        <ele>1503.6394042969</ele>
        <time>2012-08-10T13:50:28Z</time>
      </trkpt>
      <trkpt lat="45.46985" lon="6.21814">
        <ele>1501.716796875</ele>
        <time>2012-08-10T13:50:32Z</time>
      </trkpt>
      <trkpt lat="45.47003" lon="6.21821">
        <ele>1506.0424804688</ele>
        <time>2012-08-10T13:50:39Z</time>
      </trkpt>
      <trkpt lat="45.47011" lon="6.21821">
        <ele>1505.5620117188</ele>
        <time>2012-08-10T13:50:43Z</time>
      </trkpt>
      <trkpt lat="45.4702" lon="6.21831">
        <ele>1504.1201171875</ele>
        <time>2012-08-10T13:50:47Z</time>
      </trkpt>
      <trkpt lat="45.47026" lon="6.21837">
        <ele>1501.716796875</ele>
        <time>2012-08-10T13:50:51Z</time>
      </trkpt>
      <trkpt lat="45.47034" lon="6.21846">
        <ele>1499.7939453125</ele>
        <time>2012-08-10T13:50:56Z</time>
      </trkpt>
      <trkpt lat="45.47039" lon="6.21852">
        <ele>1494.5065917969</ele>
        <time>2012-08-10T13:51:01Z</time>
      </trkpt>
      <trkpt lat="45.47047" lon="6.21858">
        <ele>1494.0261230469</ele>
        <time>2012-08-10T13:51:06Z</time>
      </trkpt>
      <trkpt lat="45.47053" lon="6.21862">
        <ele>1493.5454101562</ele>
        <time>2012-08-10T13:51:09Z</time>
      </trkpt>
      <trkpt lat="45.47067" lon="6.21873">
        <ele>1492.5842285156</ele>
        <time>2012-08-10T13:51:16Z</time>
      </trkpt>
      <trkpt lat="45.47076" lon="6.21878">
        <ele>1491.1420898438</ele>
        <time>2012-08-10T13:51:20Z</time>
      </trkpt>
      <trkpt lat="45.47086" lon="6.21889">
        <ele>1489.2194824219</ele>
        <time>2012-08-10T13:51:26Z</time>
      </trkpt>
      <trkpt lat="45.47094" lon="6.21893">
        <ele>1487.296875</ele>
        <time>2012-08-10T13:51:30Z</time>
      </trkpt>
      <trkpt lat="45.47104" lon="6.21897">
        <ele>1488.2583007812</ele>
        <time>2012-08-10T13:51:35Z</time>
      </trkpt>
      <trkpt lat="45.47115" lon="6.21901">
        <ele>1491.1420898438</ele>
        <time>2012-08-10T13:51:39Z</time>
      </trkpt>
      <trkpt lat="45.47117" lon="6.21902">
        <ele>1491.6228027344</ele>
        <time>2012-08-10T13:51:40Z</time>
      </trkpt>
      <trkpt lat="45.47121" lon="6.21905">
        <ele>1491.6228027344</ele>
        <time>2012-08-10T13:51:43Z</time>
      </trkpt>
      <trkpt lat="45.47128" lon="6.21914">
        <ele>1489.2194824219</ele>
        <time>2012-08-10T13:51:49Z</time>
      </trkpt>
      <trkpt lat="45.4713" lon="6.21918">
        <ele>1487.296875</ele>
        <time>2012-08-10T13:51:51Z</time>
      </trkpt>
      <trkpt lat="45.47137" lon="6.21926">
        <ele>1485.8549804688</ele>
        <time>2012-08-10T13:51:56Z</time>
      </trkpt>
      <trkpt lat="45.47141" lon="6.21926">
        <ele>1485.8549804688</ele>
        <time>2012-08-10T13:51:58Z</time>
      </trkpt>
      <trkpt lat="45.47152" lon="6.21922">
        <ele>1487.296875</ele>
        <time>2012-08-10T13:52:04Z</time>
      </trkpt>
      <trkpt lat="45.4716" lon="6.2192">
        <ele>1486.8161621094</ele>
        <time>2012-08-10T13:52:09Z</time>
      </trkpt>
      <trkpt lat="45.47163" lon="6.2192">
        <ele>1484.8937988281</ele>
        <time>2012-08-10T13:52:13Z</time>
      </trkpt>
      <trkpt lat="45.47164" lon="6.2192">
        <ele>1483.9321289062</ele>
        <time>2012-08-10T13:52:14Z</time>
      </trkpt>
      <trkpt lat="45.47166" lon="6.21918">
        <ele>1481.5288085938</ele>
        <time>2012-08-10T13:52:20Z</time>
      </trkpt>
      <trkpt lat="45.47168" lon="6.21914">
        <ele>1483.4514160156</ele>
        <time>2012-08-10T13:52:23Z</time>
      </trkpt>
      <trkpt lat="45.47173" lon="6.21912">
        <ele>1484.4130859375</ele>
        <time>2012-08-10T13:52:30Z</time>
      </trkpt>
      <trkpt lat="45.47173" lon="6.21909">
        <ele>1482.0095214844</ele>
        <time>2012-08-10T13:52:43Z</time>
      </trkpt>
      <trkpt lat="45.47176" lon="6.21907">
        <ele>1481.0483398438</ele>
        <time>2012-08-10T13:52:47Z</time>
      </trkpt>
      <trkpt lat="45.47183" lon="6.219">
        <ele>1481.0483398438</ele>
        <time>2012-08-10T13:52:51Z</time>
      </trkpt>
      <trkpt lat="45.47187" lon="6.21898">
        <ele>1481.5288085938</ele>
        <time>2012-08-10T13:52:53Z</time>
      </trkpt>
      <trkpt lat="45.47189" lon="6.21896">
        <ele>1480.0869140625</ele>
        <time>2012-08-10T13:52:55Z</time>
      </trkpt>
      <trkpt lat="45.47201" lon="6.21892">
        <ele>1482.490234375</ele>
        <time>2012-08-10T13:53:00Z</time>
      </trkpt>
      <trkpt lat="45.47205" lon="6.21879">
        <ele>1480.5676269531</ele>
        <time>2012-08-10T13:53:05Z</time>
      </trkpt>
      <trkpt lat="45.47203" lon="6.21867">
        <ele>1479.1254882812</ele>
        <time>2012-08-10T13:53:10Z</time>
      </trkpt>
      <trkpt lat="45.47202" lon="6.21865">
        <ele>1478.1643066406</ele>
        <time>2012-08-10T13:53:11Z</time>
      </trkpt>
      <trkpt lat="45.47202" lon="6.2185">
        <ele>1473.3579101562</ele>
        <time>2012-08-10T13:53:18Z</time>
      </trkpt>
      <trkpt lat="45.47202" lon="6.21845">
        <ele>1471.4350585938</ele>
        <time>2012-08-10T13:53:20Z</time>
      </trkpt>
      <trkpt lat="45.472" lon="6.21833">
        <ele>1470.4738769531</ele>
        <time>2012-08-10T13:53:26Z</time>
      </trkpt>
      <trkpt lat="45.47197" lon="6.21821">
        <ele>1458.9379882812</ele>
        <time>2012-08-10T13:53:31Z</time>
      </trkpt>
      <trkpt lat="45.47198" lon="6.21809">
        <ele>1457.49609375</ele>
        <time>2012-08-10T13:53:35Z</time>
      </trkpt>
      <trkpt lat="45.47208" lon="6.21802">
        <ele>1457.0153808594</ele>
        <time>2012-08-10T13:53:40Z</time>
      </trkpt>
      <trkpt lat="45.47214" lon="6.21804">
        <ele>1455.5734863281</ele>
        <time>2012-08-10T13:53:44Z</time>
      </trkpt>
      <trkpt lat="45.4722" lon="6.21804">
        <ele>1456.0539550781</ele>
        <time>2012-08-10T13:53:47Z</time>
      </trkpt>
      <trkpt lat="45.47224" lon="6.21804">
        <ele>1457.0153808594</ele>
        <time>2012-08-10T13:53:49Z</time>
      </trkpt>
      <trkpt lat="45.47234" lon="6.21808">
        <ele>1458.9379882812</ele>
        <time>2012-08-10T13:53:55Z</time>
      </trkpt>
      <trkpt lat="45.47239" lon="6.21809">
        <ele>1459.8991699219</ele>
        <time>2012-08-10T13:54:02Z</time>
      </trkpt>
      <trkpt lat="45.47241" lon="6.21811">
        <ele>1458.4572753906</ele>
        <time>2012-08-10T13:54:07Z</time>
      </trkpt>
      <trkpt lat="45.47249" lon="6.21812">
        <ele>1457.49609375</ele>
        <time>2012-08-10T13:54:14Z</time>
      </trkpt>
      <trkpt lat="45.47255" lon="6.21814">
        <ele>1454.6120605469</ele>
        <time>2012-08-10T13:54:18Z</time>
      </trkpt>
      <trkpt lat="45.47264" lon="6.21813">
        <ele>1452.689453125</ele>
        <time>2012-08-10T13:54:24Z</time>
      </trkpt>
      <trkpt lat="45.47266" lon="6.21814">
        <ele>1452.2087402344</ele>
        <time>2012-08-10T13:54:25Z</time>
      </trkpt>
      <trkpt lat="45.47271" lon="6.21812">
        <ele>1448.36328125</ele>
        <time>2012-08-10T13:54:30Z</time>
      </trkpt>
      <trkpt lat="45.47269" lon="6.21804">
        <ele>1445.4794921875</ele>
        <time>2012-08-10T13:54:34Z</time>
      </trkpt>
      <trkpt lat="45.47269" lon="6.21797">
        <ele>1441.6342773438</ele>
        <time>2012-08-10T13:54:38Z</time>
      </trkpt>
      <trkpt lat="45.47268" lon="6.21794">
        <ele>1441.1535644531</ele>
        <time>2012-08-10T13:54:40Z</time>
      </trkpt>
      <trkpt lat="45.47268" lon="6.21789">
        <ele>1438.2697753906</ele>
        <time>2012-08-10T13:54:42Z</time>
      </trkpt>
      <trkpt lat="45.47273" lon="6.21781">
        <ele>1434.9050292969</ele>
        <time>2012-08-10T13:54:48Z</time>
      </trkpt>
      <trkpt lat="45.47281" lon="6.21782">
        <ele>1434.4243164062</ele>
        <time>2012-08-10T13:54:53Z</time>
      </trkpt>
      <trkpt lat="45.47287" lon="6.21783">
        <ele>1434.4243164062</ele>
        <time>2012-08-10T13:54:57Z</time>
      </trkpt>
      <trkpt lat="45.47289" lon="6.21783">
        <ele>1434.9050292969</ele>
        <time>2012-08-10T13:54:58Z</time>
      </trkpt>
      <trkpt lat="45.47293" lon="6.21785">
        <ele>1432.5017089844</ele>
        <time>2012-08-10T13:55:01Z</time>
      </trkpt>
      <trkpt lat="45.47305" lon="6.21789">
        <ele>1432.5017089844</ele>
        <time>2012-08-10T13:55:07Z</time>
      </trkpt>
      <trkpt lat="45.47312" lon="6.21793">
        <ele>1431.5402832031</ele>
        <time>2012-08-10T13:55:11Z</time>
      </trkpt>
      <trkpt lat="45.47324" lon="6.21796">
        <ele>1432.0209960938</ele>
        <time>2012-08-10T13:55:17Z</time>
      </trkpt>
      <trkpt lat="45.47329" lon="6.21797">
        <ele>1431.0598144531</ele>
        <time>2012-08-10T13:55:20Z</time>
      </trkpt>
      <trkpt lat="45.47333" lon="6.21798">
        <ele>1427.2145996094</ele>
        <time>2012-08-10T13:55:24Z</time>
      </trkpt>
      <trkpt lat="45.47335" lon="6.218">
        <ele>1424.3305664062</ele>
        <time>2012-08-10T13:55:26Z</time>
      </trkpt>
      <trkpt lat="45.47342" lon="6.21798">
        <ele>1415.6787109375</ele>
        <time>2012-08-10T13:55:33Z</time>
      </trkpt>
      <trkpt lat="45.4735" lon="6.21803">
        <ele>1412.7946777344</ele>
        <time>2012-08-10T13:55:39Z</time>
      </trkpt>
      <trkpt lat="45.47353" lon="6.21805">
        <ele>1411.8334960938</ele>
        <time>2012-08-10T13:55:41Z</time>
      </trkpt>
      <trkpt lat="45.4736" lon="6.21807">
        <ele>1412.7946777344</ele>
        <time>2012-08-10T13:55:46Z</time>
      </trkpt>
      <trkpt lat="45.47369" lon="6.21811">
        <ele>1413.275390625</ele>
        <time>2012-08-10T13:55:51Z</time>
      </trkpt>
      <trkpt lat="45.47373" lon="6.21815">
        <ele>1409.9106445312</ele>
        <time>2012-08-10T13:55:55Z</time>
      </trkpt>
      <trkpt lat="45.47379" lon="6.21824">
        <ele>1404.6235351562</ele>
        <time>2012-08-10T13:56:00Z</time>
      </trkpt>
      <trkpt lat="45.4739" lon="6.21833">
        <ele>1405.1042480469</ele>
        <time>2012-08-10T13:56:05Z</time>
      </trkpt>
      <trkpt lat="45.47395" lon="6.2184">
        <ele>1401.7395019531</ele>
        <time>2012-08-10T13:56:09Z</time>
      </trkpt>
      <trkpt lat="45.47402" lon="6.2184">
        <ele>1397.8942871094</ele>
        <time>2012-08-10T13:56:14Z</time>
      </trkpt>
      <trkpt lat="45.47402" lon="6.21838">
        <ele>1395.9716796875</ele>
        <time>2012-08-10T13:56:16Z</time>
      </trkpt>
      <trkpt lat="45.47401" lon="6.2183">
        <ele>1391.6457519531</ele>
        <time>2012-08-10T13:56:21Z</time>
      </trkpt>
      <trkpt lat="45.474" lon="6.21818">
        <ele>1387.3195800781</ele>
        <time>2012-08-10T13:56:26Z</time>
      </trkpt>
      <trkpt lat="45.474" lon="6.21807">
        <ele>1387.3195800781</ele>
        <time>2012-08-10T13:56:30Z</time>
      </trkpt>
      <trkpt lat="45.47395" lon="6.21793">
        <ele>1384.4357910156</ele>
        <time>2012-08-10T13:56:35Z</time>
      </trkpt>
      <trkpt lat="45.47394" lon="6.21788">
        <ele>1383.955078125</ele>
        <time>2012-08-10T13:56:37Z</time>
      </trkpt>
      <trkpt lat="45.47397" lon="6.21777">
        <ele>1387.3195800781</ele>
        <time>2012-08-10T13:56:43Z</time>
      </trkpt>
      <trkpt lat="45.47399" lon="6.2178">
        <ele>1386.3583984375</ele>
        <time>2012-08-10T13:56:45Z</time>
      </trkpt>
      <trkpt lat="45.47404" lon="6.21784">
        <ele>1385.8776855469</ele>
        <time>2012-08-10T13:56:48Z</time>
      </trkpt>
      <trkpt lat="45.47411" lon="6.21798">
        <ele>1382.9936523438</ele>
        <time>2012-08-10T13:56:54Z</time>
      </trkpt>
      <trkpt lat="45.47416" lon="6.21807">
        <ele>1380.5905761719</ele>
        <time>2012-08-10T13:56:58Z</time>
      </trkpt>
      <trkpt lat="45.47423" lon="6.21817">
        <ele>1377.2260742188</ele>
        <time>2012-08-10T13:57:03Z</time>
      </trkpt>
      <trkpt lat="45.47428" lon="6.21822">
        <ele>1375.7839355469</ele>
        <time>2012-08-10T13:57:07Z</time>
      </trkpt>
      <trkpt lat="45.47429" lon="6.21809">
        <ele>1375.3032226562</ele>
        <time>2012-08-10T13:57:14Z</time>
      </trkpt>
      <trkpt lat="45.4743" lon="6.21805">
        <ele>1374.8227539062</ele>
        <time>2012-08-10T13:57:17Z</time>
      </trkpt>
      <trkpt lat="45.4743" lon="6.21796">
        <ele>1371.4577636719</ele>
        <time>2012-08-10T13:57:21Z</time>
      </trkpt>
      <trkpt lat="45.4743" lon="6.21782">
        <ele>1368.0932617188</ele>
        <time>2012-08-10T13:57:27Z</time>
      </trkpt>
      <trkpt lat="45.47427" lon="6.21771">
        <ele>1362.8061523438</ele>
        <time>2012-08-10T13:57:32Z</time>
      </trkpt>
      <trkpt lat="45.4743" lon="6.21774">
        <ele>1358.4802246094</ele>
        <time>2012-08-10T13:57:36Z</time>
      </trkpt>
      <trkpt lat="45.47433" lon="6.21775">
        <ele>1357.9997558594</ele>
        <time>2012-08-10T13:57:38Z</time>
      </trkpt>
      <trkpt lat="45.47442" lon="6.21779">
        <ele>1356.0769042969</ele>
        <time>2012-08-10T13:57:44Z</time>
      </trkpt>
      <trkpt lat="45.47444" lon="6.21779">
        <ele>1357.0383300781</ele>
        <time>2012-08-10T13:57:45Z</time>
      </trkpt>
      <trkpt lat="45.47452" lon="6.21786">
        <ele>1357.0383300781</ele>
        <time>2012-08-10T13:57:50Z</time>
      </trkpt>
      <trkpt lat="45.47453" lon="6.21787">
        <ele>1356.5576171875</ele>
        <time>2012-08-10T13:57:51Z</time>
      </trkpt>
      <trkpt lat="45.47455" lon="6.21781">
        <ele>1354.634765625</ele>
        <time>2012-08-10T13:57:56Z</time>
      </trkpt>
      <trkpt lat="45.47455" lon="6.2178">
        <ele>1354.634765625</ele>
        <time>2012-08-10T13:57:57Z</time>
      </trkpt>
      <trkpt lat="45.47457" lon="6.21771">
        <ele>1350.3090820312</ele>
        <time>2012-08-10T13:58:02Z</time>
      </trkpt>
      <trkpt lat="45.47456" lon="6.21766">
        <ele>1349.34765625</ele>
        <time>2012-08-10T13:58:04Z</time>
      </trkpt>
      <trkpt lat="45.47455" lon="6.2176">
        <ele>1347.9057617188</ele>
        <time>2012-08-10T13:58:07Z</time>
      </trkpt>
      <trkpt lat="45.47455" lon="6.21753">
        <ele>1343.0991210938</ele>
        <time>2012-08-10T13:58:12Z</time>
      </trkpt>
      <trkpt lat="45.47456" lon="6.21742">
        <ele>1340.2153320312</ele>
        <time>2012-08-10T13:58:17Z</time>
      </trkpt>
      <trkpt lat="45.47454" lon="6.21737">
        <ele>1337.8117675781</ele>
        <time>2012-08-10T13:58:20Z</time>
      </trkpt>
      <trkpt lat="45.47452" lon="6.2172">
        <ele>1334.447265625</ele>
        <time>2012-08-10T13:58:26Z</time>
      </trkpt>
      <trkpt lat="45.47453" lon="6.21716">
        <ele>1333.9665527344</ele>
        <time>2012-08-10T13:58:28Z</time>
      </trkpt>
      <trkpt lat="45.47462" lon="6.21716">
        <ele>1332.5246582031</ele>
        <time>2012-08-10T13:58:34Z</time>
      </trkpt>
      <trkpt lat="45.47466" lon="6.21717">
        <ele>1332.0439453125</ele>
        <time>2012-08-10T13:58:36Z</time>
      </trkpt>
      <trkpt lat="45.47476" lon="6.21721">
        <ele>1334.9279785156</ele>
        <time>2012-08-10T13:58:40Z</time>
      </trkpt>
      <trkpt lat="45.47483" lon="6.21721">
        <ele>1332.0439453125</ele>
        <time>2012-08-10T13:58:45Z</time>
      </trkpt>
      <trkpt lat="45.4749" lon="6.21726">
        <ele>1328.6794433594</ele>
        <time>2012-08-10T13:58:51Z</time>
      </trkpt>
      <trkpt lat="45.47492" lon="6.21729">
        <ele>1326.7568359375</ele>
        <time>2012-08-10T13:58:53Z</time>
      </trkpt>
      <trkpt lat="45.47502" lon="6.21733">
        <ele>1326.7568359375</ele>
        <time>2012-08-10T13:58:59Z</time>
      </trkpt>
      <trkpt lat="45.47511" lon="6.21739">
        <ele>1326.2761230469</ele>
        <time>2012-08-10T13:59:04Z</time>
      </trkpt>
      <trkpt lat="45.47515" lon="6.21743">
        <ele>1324.353515625</ele>
        <time>2012-08-10T13:59:07Z</time>
      </trkpt>
      <trkpt lat="45.47524" lon="6.21756">
        <ele>1323.3920898438</ele>
        <time>2012-08-10T13:59:15Z</time>
      </trkpt>
      <trkpt lat="45.47527" lon="6.21761">
        <ele>1319.546875</ele>
        <time>2012-08-10T13:59:18Z</time>
      </trkpt>
      <trkpt lat="45.47529" lon="6.21769">
        <ele>1311.8564453125</ele>
        <time>2012-08-10T13:59:22Z</time>
      </trkpt>
      <trkpt lat="45.47536" lon="6.21779">
        <ele>1304.6462402344</ele>
        <time>2012-08-10T13:59:27Z</time>
      </trkpt>
      <trkpt lat="45.47542" lon="6.21787">
        <ele>1297.4365234375</ele>
        <time>2012-08-10T13:59:32Z</time>
      </trkpt>
      <trkpt lat="45.47553" lon="6.218">
        <ele>1293.5913085938</ele>
        <time>2012-08-10T13:59:39Z</time>
      </trkpt>
      <trkpt lat="45.47557" lon="6.21808">
        <ele>1293.1105957031</ele>
        <time>2012-08-10T13:59:43Z</time>
      </trkpt>
      <trkpt lat="45.47563" lon="6.21814">
        <ele>1290.70703125</ele>
        <time>2012-08-10T13:59:48Z</time>
      </trkpt>
      <trkpt lat="45.47572" lon="6.21822">
        <ele>1289.2651367188</ele>
        <time>2012-08-10T13:59:54Z</time>
      </trkpt>
      <trkpt lat="45.47572" lon="6.21824">
        <ele>1288.7846679688</ele>
        <time>2012-08-10T13:59:55Z</time>
      </trkpt>
      <trkpt lat="45.47578" lon="6.21827">
        <ele>1285.419921875</ele>
        <time>2012-08-10T14:00:01Z</time>
      </trkpt>
      <trkpt lat="45.47583" lon="6.21829">
        <ele>1284.4587402344</ele>
        <time>2012-08-10T14:00:04Z</time>
      </trkpt>
      <trkpt lat="45.47586" lon="6.21836">
        <ele>1282.0554199219</ele>
        <time>2012-08-10T14:00:08Z</time>
      </trkpt>
      <trkpt lat="45.47589" lon="6.2184">
        <ele>1277.7294921875</ele>
        <time>2012-08-10T14:00:12Z</time>
      </trkpt>
      <trkpt lat="45.47591" lon="6.21848">
        <ele>1274.3647460938</ele>
        <time>2012-08-10T14:00:17Z</time>
      </trkpt>
      <trkpt lat="45.47591" lon="6.21851">
        <ele>1271.4807128906</ele>
        <time>2012-08-10T14:00:20Z</time>
      </trkpt>
      <trkpt lat="45.47595" lon="6.2185">
        <ele>1269.5583496094</ele>
        <time>2012-08-10T14:00:23Z</time>
      </trkpt>
      <trkpt lat="45.47598" lon="6.21848">
        <ele>1269.5583496094</ele>
        <time>2012-08-10T14:00:25Z</time>
      </trkpt>
      <trkpt lat="45.47604" lon="6.21843">
        <ele>1266.1936035156</ele>
        <time>2012-08-10T14:00:31Z</time>
      </trkpt>
      <trkpt lat="45.47606" lon="6.21843">
        <ele>1266.1936035156</ele>
        <time>2012-08-10T14:00:32Z</time>
      </trkpt>
      <trkpt lat="45.47609" lon="6.21839">
        <ele>1264.7517089844</ele>
        <time>2012-08-10T14:00:36Z</time>
      </trkpt>
      <trkpt lat="45.47614" lon="6.21833">
        <ele>1263.3098144531</ele>
        <time>2012-08-10T14:00:40Z</time>
      </trkpt>
      <trkpt lat="45.47617" lon="6.21827">
        <ele>1264.7517089844</ele>
        <time>2012-08-10T14:00:43Z</time>
      </trkpt>
      <trkpt lat="45.47623" lon="6.21818">
        <ele>1262.8291015625</ele>
        <time>2012-08-10T14:00:48Z</time>
      </trkpt>
      <trkpt lat="45.47627" lon="6.21812">
        <ele>1259.9448242188</ele>
        <time>2012-08-10T14:00:52Z</time>
      </trkpt>
      <trkpt lat="45.47628" lon="6.21803">
        <ele>1255.619140625</ele>
        <time>2012-08-10T14:00:57Z</time>
      </trkpt>
      <trkpt lat="45.4763" lon="6.2179">
        <ele>1252.2543945312</ele>
        <time>2012-08-10T14:01:03Z</time>
      </trkpt>
      <trkpt lat="45.47631" lon="6.2178">
        <ele>1249.8513183594</ele>
        <time>2012-08-10T14:01:08Z</time>
      </trkpt>
      <trkpt lat="45.47634" lon="6.21764">
        <ele>1244.5639648438</ele>
        <time>2012-08-10T14:01:16Z</time>
      </trkpt>
      <trkpt lat="45.47634" lon="6.21761">
        <ele>1243.1218261719</ele>
        <time>2012-08-10T14:01:17Z</time>
      </trkpt>
      <trkpt lat="45.47636" lon="6.21743">
        <ele>1239.7573242188</ele>
        <time>2012-08-10T14:01:23Z</time>
      </trkpt>
      <trkpt lat="45.47636" lon="6.21737">
        <ele>1238.3154296875</ele>
        <time>2012-08-10T14:01:25Z</time>
      </trkpt>
      <trkpt lat="45.47635" lon="6.21734">
        <ele>1237.3540039062</ele>
        <time>2012-08-10T14:01:27Z</time>
      </trkpt>
      <trkpt lat="45.47635" lon="6.21719">
        <ele>1235.4313964844</ele>
        <time>2012-08-10T14:01:33Z</time>
      </trkpt>
      <trkpt lat="45.47633" lon="6.21706">
        <ele>1233.9895019531</ele>
        <time>2012-08-10T14:01:38Z</time>
      </trkpt>
      <trkpt lat="45.47635" lon="6.21702">
        <ele>1233.9895019531</ele>
        <time>2012-08-10T14:01:40Z</time>
      </trkpt>
      <trkpt lat="45.47635" lon="6.21699">
        <ele>1232.5476074219</ele>
        <time>2012-08-10T14:01:42Z</time>
      </trkpt>
      <trkpt lat="45.47634" lon="6.21686">
        <ele>1231.1057128906</ele>
        <time>2012-08-10T14:01:48Z</time>
      </trkpt>
      <trkpt lat="45.47635" lon="6.21678">
        <ele>1233.5087890625</ele>
        <time>2012-08-10T14:01:51Z</time>
      </trkpt>
      <trkpt lat="45.47638" lon="6.21679">
        <ele>1233.9895019531</ele>
        <time>2012-08-10T14:01:53Z</time>
      </trkpt>
      <trkpt lat="45.47641" lon="6.21682">
        <ele>1233.9895019531</ele>
        <time>2012-08-10T14:01:56Z</time>
      </trkpt>
      <trkpt lat="45.47652" lon="6.21687">
        <ele>1233.5087890625</ele>
        <time>2012-08-10T14:02:02Z</time>
      </trkpt>
      <trkpt lat="45.47654" lon="6.2169">
        <ele>1231.5861816406</ele>
        <time>2012-08-10T14:02:04Z</time>
      </trkpt>
      <trkpt lat="45.47665" lon="6.21697">
        <ele>1231.1057128906</ele>
        <time>2012-08-10T14:02:10Z</time>
      </trkpt>
      <trkpt lat="45.47667" lon="6.217">
        <ele>1230.625</ele>
        <time>2012-08-10T14:02:12Z</time>
      </trkpt>
      <trkpt lat="45.47674" lon="6.21709">
        <ele>1225.3374023438</ele>
        <time>2012-08-10T14:02:17Z</time>
      </trkpt>
      <trkpt lat="45.47681" lon="6.21714">
        <ele>1221.01171875</ele>
        <time>2012-08-10T14:02:22Z</time>
      </trkpt>
      <trkpt lat="45.47688" lon="6.21721">
        <ele>1214.2824707031</ele>
        <time>2012-08-10T14:02:26Z</time>
      </trkpt>
      <trkpt lat="45.47694" lon="6.2173">
        <ele>1207.0725097656</ele>
        <time>2012-08-10T14:02:31Z</time>
      </trkpt>
      <trkpt lat="45.47704" lon="6.21739">
        <ele>1201.7854003906</ele>
        <time>2012-08-10T14:02:36Z</time>
      </trkpt>
      <trkpt lat="45.4771" lon="6.21747">
        <ele>1198.9013671875</ele>
        <time>2012-08-10T14:02:40Z</time>
      </trkpt>
      <trkpt lat="45.47715" lon="6.21754">
        <ele>1196.4982910156</ele>
        <time>2012-08-10T14:02:43Z</time>
      </trkpt>
      <trkpt lat="45.47717" lon="6.2176">
        <ele>1194.0947265625</ele>
        <time>2012-08-10T14:02:46Z</time>
      </trkpt>
      <trkpt lat="45.47721" lon="6.21772">
        <ele>1191.69140625</ele>
        <time>2012-08-10T14:02:53Z</time>
      </trkpt>
      <trkpt lat="45.47723" lon="6.21778">
        <ele>1189.7687988281</ele>
        <time>2012-08-10T14:02:57Z</time>
      </trkpt>
      <trkpt lat="45.47723" lon="6.21781">
        <ele>1189.2880859375</ele>
        <time>2012-08-10T14:02:59Z</time>
      </trkpt>
      <trkpt lat="45.47723" lon="6.21784">
        <ele>1188.3269042969</ele>
        <time>2012-08-10T14:03:01Z</time>
      </trkpt>
      <trkpt lat="45.47726" lon="6.2179">
        <ele>1185.4428710938</ele>
        <time>2012-08-10T14:03:07Z</time>
      </trkpt>
      <trkpt lat="45.4773" lon="6.21786">
        <ele>1184.9624023438</ele>
        <time>2012-08-10T14:03:11Z</time>
      </trkpt>
      <trkpt lat="45.47738" lon="6.2178">
        <ele>1183.0395507812</ele>
        <time>2012-08-10T14:03:18Z</time>
      </trkpt>
      <trkpt lat="45.47742" lon="6.21774">
        <ele>1181.59765625</ele>
        <time>2012-08-10T14:03:23Z</time>
      </trkpt>
      <trkpt lat="45.4775" lon="6.21767">
        <ele>1180.1557617188</ele>
        <time>2012-08-10T14:03:28Z</time>
      </trkpt>
      <trkpt lat="45.47751" lon="6.21765">
        <ele>1179.6748046875</ele>
        <time>2012-08-10T14:03:29Z</time>
      </trkpt>
      <trkpt lat="45.47756" lon="6.2176">
        <ele>1177.7521972656</ele>
        <time>2012-08-10T14:03:33Z</time>
      </trkpt>
      <trkpt lat="45.4776" lon="6.21752">
        <ele>1176.791015625</ele>
        <time>2012-08-10T14:03:38Z</time>
      </trkpt>
      <trkpt lat="45.4776" lon="6.21747">
        <ele>1175.8295898438</ele>
        <time>2012-08-10T14:03:40Z</time>
      </trkpt>
      <trkpt lat="45.47759" lon="6.2174">
        <ele>1175.8295898438</ele>
        <time>2012-08-10T14:03:43Z</time>
      </trkpt>
      <trkpt lat="45.47755" lon="6.21726">
        <ele>1173.9069824219</ele>
        <time>2012-08-10T14:03:48Z</time>
      </trkpt>
      <trkpt lat="45.47753" lon="6.21713">
        <ele>1170.0617675781</ele>
        <time>2012-08-10T14:03:53Z</time>
      </trkpt>
      <trkpt lat="45.47751" lon="6.21703">
        <ele>1168.6198730469</ele>
        <time>2012-08-10T14:03:57Z</time>
      </trkpt>
      <trkpt lat="45.47751" lon="6.21696">
        <ele>1166.697265625</ele>
        <time>2012-08-10T14:04:01Z</time>
      </trkpt>
      <trkpt lat="45.47752" lon="6.21688">
        <ele>1164.7746582031</ele>
        <time>2012-08-10T14:04:05Z</time>
      </trkpt>
      <trkpt lat="45.47747" lon="6.21674">
        <ele>1159.9677734375</ele>
        <time>2012-08-10T14:04:11Z</time>
      </trkpt>
      <trkpt lat="45.47744" lon="6.21655">
        <ele>1154.2001953125</ele>
        <time>2012-08-10T14:04:18Z</time>
      </trkpt>
      <trkpt lat="45.47747" lon="6.21651">
        <ele>1153.2387695312</ele>
        <time>2012-08-10T14:04:21Z</time>
      </trkpt>
      <trkpt lat="45.47756" lon="6.2166">
        <ele>1155.1613769531</ele>
        <time>2012-08-10T14:04:27Z</time>
      </trkpt>
      <trkpt lat="45.47757" lon="6.21661">
        <ele>1154.6806640625</ele>
        <time>2012-08-10T14:04:28Z</time>
      </trkpt>
      <trkpt lat="45.47761" lon="6.2167">
        <ele>1150.8354492188</ele>
        <time>2012-08-10T14:04:32Z</time>
      </trkpt>
      <trkpt lat="45.47768" lon="6.21677">
        <ele>1147.470703125</ele>
        <time>2012-08-10T14:04:38Z</time>
      </trkpt>
      <trkpt lat="45.4777" lon="6.21679">
        <ele>1146.0288085938</ele>
        <time>2012-08-10T14:04:40Z</time>
      </trkpt>
      <trkpt lat="45.47776" lon="6.21685">
        <ele>1141.7028808594</ele>
        <time>2012-08-10T14:04:46Z</time>
      </trkpt>
      <trkpt lat="45.47784" lon="6.21688">
        <ele>1142.18359375</ele>
        <time>2012-08-10T14:04:50Z</time>
      </trkpt>
      <trkpt lat="45.47792" lon="6.21702">
        <ele>1139.7802734375</ele>
        <time>2012-08-10T14:04:56Z</time>
      </trkpt>
      <trkpt lat="45.47802" lon="6.21713">
        <ele>1141.2221679688</ele>
        <time>2012-08-10T14:05:01Z</time>
      </trkpt>
      <trkpt lat="45.47804" lon="6.21715">
        <ele>1141.7028808594</ele>
        <time>2012-08-10T14:05:02Z</time>
      </trkpt>
      <trkpt lat="45.47811" lon="6.21722">
        <ele>1141.2221679688</ele>
        <time>2012-08-10T14:05:08Z</time>
      </trkpt>
      <trkpt lat="45.47813" lon="6.21723">
        <ele>1140.2609863281</ele>
        <time>2012-08-10T14:05:10Z</time>
      </trkpt>
      <trkpt lat="45.47821" lon="6.21716">
        <ele>1135.9350585938</ele>
        <time>2012-08-10T14:05:16Z</time>
      </trkpt>
      <trkpt lat="45.47825" lon="6.21706">
        <ele>1131.1284179688</ele>
        <time>2012-08-10T14:05:21Z</time>
      </trkpt>
      <trkpt lat="45.47825" lon="6.21693">
        <ele>1128.7250976562</ele>
        <time>2012-08-10T14:05:26Z</time>
      </trkpt>
      <trkpt lat="45.47825" lon="6.21681">
        <ele>1123.9184570312</ele>
        <time>2012-08-10T14:05:30Z</time>
      </trkpt>
      <trkpt lat="45.47825" lon="6.21678">
        <ele>1122.9572753906</ele>
        <time>2012-08-10T14:05:31Z</time>
      </trkpt>
      <trkpt lat="45.47827" lon="6.21674">
        <ele>1120.5539550781</ele>
        <time>2012-08-10T14:05:34Z</time>
      </trkpt>
      <trkpt lat="45.47829" lon="6.21656">
        <ele>1116.2280273438</ele>
        <time>2012-08-10T14:05:40Z</time>
      </trkpt>
      <trkpt lat="45.4783" lon="6.21638">
        <ele>1115.7473144531</ele>
        <time>2012-08-10T14:05:45Z</time>
      </trkpt>
      <trkpt lat="45.47828" lon="6.2162">
        <ele>1109.9792480469</ele>
        <time>2012-08-10T14:05:50Z</time>
      </trkpt>
      <trkpt lat="45.47826" lon="6.21603">
        <ele>1106.1340332031</ele>
        <time>2012-08-10T14:05:55Z</time>
      </trkpt>
      <trkpt lat="45.47823" lon="6.21594">
        <ele>1105.1728515625</ele>
        <time>2012-08-10T14:06:00Z</time>
      </trkpt>
      <trkpt lat="45.47818" lon="6.21582">
        <ele>1104.6921386719</ele>
        <time>2012-08-10T14:06:04Z</time>
      </trkpt>
      <trkpt lat="45.47815" lon="6.21578">
        <ele>1103.2502441406</ele>
        <time>2012-08-10T14:06:05Z</time>
      </trkpt>
      <trkpt lat="45.47812" lon="6.21561">
        <ele>1098.9240722656</ele>
        <time>2012-08-10T14:06:10Z</time>
      </trkpt>
      <trkpt lat="45.4781" lon="6.21552">
        <ele>1097.4821777344</ele>
        <time>2012-08-10T14:06:13Z</time>
      </trkpt>
      <trkpt lat="45.47805" lon="6.21533">
        <ele>1097.0014648438</ele>
        <time>2012-08-10T14:06:19Z</time>
      </trkpt>
      <trkpt lat="45.47803" lon="6.21518">
        <ele>1097.962890625</ele>
        <time>2012-08-10T14:06:23Z</time>
      </trkpt>
      <trkpt lat="45.47799" lon="6.21502">
        <ele>1095.0788574219</ele>
        <time>2012-08-10T14:06:28Z</time>
      </trkpt>
      <trkpt lat="45.47796" lon="6.21496">
        <ele>1094.5981445312</ele>
        <time>2012-08-10T14:06:30Z</time>
      </trkpt>
      <trkpt lat="45.47795" lon="6.21484">
        <ele>1093.6369628906</ele>
        <time>2012-08-10T14:06:34Z</time>
      </trkpt>
      <trkpt lat="45.47791" lon="6.2147">
        <ele>1090.7529296875</ele>
        <time>2012-08-10T14:06:39Z</time>
      </trkpt>
      <trkpt lat="45.47788" lon="6.21455">
        <ele>1087.869140625</ele>
        <time>2012-08-10T14:06:44Z</time>
      </trkpt>
      <trkpt lat="45.47787" lon="6.21452">
        <ele>1086.9077148438</ele>
        <time>2012-08-10T14:06:45Z</time>
      </trkpt>
      <trkpt lat="45.47786" lon="6.21435">
        <ele>1083.0622558594</ele>
        <time>2012-08-10T14:06:51Z</time>
      </trkpt>
      <trkpt lat="45.47787" lon="6.21422">
        <ele>1082.1010742188</ele>
        <time>2012-08-10T14:06:55Z</time>
      </trkpt>
      <trkpt lat="45.47783" lon="6.21406">
        <ele>1079.2170410156</ele>
        <time>2012-08-10T14:07:00Z</time>
      </trkpt>
      <trkpt lat="45.47782" lon="6.21402">
        <ele>1077.2946777344</ele>
        <time>2012-08-10T14:07:02Z</time>
      </trkpt>
      <trkpt lat="45.47778" lon="6.21388">
        <ele>1075.3718261719</ele>
        <time>2012-08-10T14:07:07Z</time>
      </trkpt>
      <trkpt lat="45.47774" lon="6.21373">
        <ele>1073.4494628906</ele>
        <time>2012-08-10T14:07:12Z</time>
      </trkpt>
      <trkpt lat="45.47773" lon="6.2136">
        <ele>1072.0073242188</ele>
        <time>2012-08-10T14:07:17Z</time>
      </trkpt>
      <trkpt lat="45.47774" lon="6.21348">
        <ele>1069.1235351562</ele>
        <time>2012-08-10T14:07:21Z</time>
      </trkpt>
      <trkpt lat="45.47769" lon="6.21322">
        <ele>1067.6811523438</ele>
        <time>2012-08-10T14:07:27Z</time>
      </trkpt>
      <trkpt lat="45.47768" lon="6.21296">
        <ele>1062.3940429688</ele>
        <time>2012-08-10T14:07:32Z</time>
      </trkpt>
      <trkpt lat="45.47768" lon="6.21282">
        <ele>1059.5102539062</ele>
        <time>2012-08-10T14:07:35Z</time>
      </trkpt>
      <trkpt lat="45.47764" lon="6.21263">
        <ele>1056.1455078125</ele>
        <time>2012-08-10T14:07:40Z</time>
      </trkpt>
      <trkpt lat="45.4776" lon="6.2124">
        <ele>1053.7424316406</ele>
        <time>2012-08-10T14:07:46Z</time>
      </trkpt>
      <trkpt lat="45.47756" lon="6.21221">
        <ele>1049.8969726562</ele>
        <time>2012-08-10T14:07:52Z</time>
      </trkpt>
      <trkpt lat="45.47755" lon="6.21218">
        <ele>1049.4162597656</ele>
        <time>2012-08-10T14:07:53Z</time>
      </trkpt>
      <trkpt lat="45.47752" lon="6.21202">
        <ele>1043.1677246094</ele>
        <time>2012-08-10T14:07:58Z</time>
      </trkpt>
      <trkpt lat="45.47752" lon="6.21189">
        <ele>1039.3225097656</ele>
        <time>2012-08-10T14:08:02Z</time>
      </trkpt>
      <trkpt lat="45.47751" lon="6.2118">
        <ele>1034.03515625</ele>
        <time>2012-08-10T14:08:06Z</time>
      </trkpt>
      <trkpt lat="45.4775" lon="6.21171">
        <ele>1031.1513671875</ele>
        <time>2012-08-10T14:08:10Z</time>
      </trkpt>
      <trkpt lat="45.47749" lon="6.21157">
        <ele>1031.1513671875</ele>
        <time>2012-08-10T14:08:16Z</time>
      </trkpt>
      <trkpt lat="45.47746" lon="6.2114">
        <ele>1029.228515625</ele>
        <time>2012-08-10T14:08:22Z</time>
      </trkpt>
      <trkpt lat="45.47746" lon="6.21122">
        <ele>1031.1513671875</ele>
        <time>2012-08-10T14:08:27Z</time>
      </trkpt>
      <trkpt lat="45.47746" lon="6.21103">
        <ele>1034.9965820312</ele>
        <time>2012-08-10T14:08:32Z</time>
      </trkpt>
      <trkpt lat="45.47746" lon="6.211">
        <ele>1034.9965820312</ele>
        <time>2012-08-10T14:08:34Z</time>
      </trkpt>
      <trkpt lat="45.47752" lon="6.21094">
        <ele>1037.3999023438</ele>
        <time>2012-08-10T14:08:40Z</time>
      </trkpt>
      <trkpt lat="45.47752" lon="6.21087">
        <ele>1035.9577636719</ele>
        <time>2012-08-10T14:08:46Z</time>
      </trkpt>
      <trkpt lat="45.47752" lon="6.21086">
        <ele>1035.4770507812</ele>
        <time>2012-08-10T14:08:47Z</time>
      </trkpt>
      <trkpt lat="45.4775" lon="6.2108">
        <ele>1030.1899414062</ele>
        <time>2012-08-10T14:08:54Z</time>
      </trkpt>
      <trkpt lat="45.4775" lon="6.21071">
        <ele>1029.228515625</ele>
        <time>2012-08-10T14:09:00Z</time>
      </trkpt>
      <trkpt lat="45.4775" lon="6.21066">
        <ele>1029.7092285156</ele>
        <time>2012-08-10T14:09:02Z</time>
      </trkpt>
      <trkpt lat="45.4775" lon="6.21057">
        <ele>1026.8254394531</ele>
        <time>2012-08-10T14:09:06Z</time>
      </trkpt>
      <trkpt lat="45.47749" lon="6.21047">
        <ele>1025.3833007812</ele>
        <time>2012-08-10T14:09:12Z</time>
      </trkpt>
      <trkpt lat="45.47749" lon="6.21045">
        <ele>1024.9028320312</ele>
        <time>2012-08-10T14:09:14Z</time>
      </trkpt>
      <trkpt lat="45.47747" lon="6.21035">
        <ele>1022.9802246094</ele>
        <time>2012-08-10T14:09:19Z</time>
      </trkpt>
      <trkpt lat="45.47744" lon="6.21019">
        <ele>1024.4221191406</ele>
        <time>2012-08-10T14:09:26Z</time>
      </trkpt>
      <trkpt lat="45.47741" lon="6.21007">
        <ele>1022.4995117188</ele>
        <time>2012-08-10T14:09:31Z</time>
      </trkpt>
      <trkpt lat="45.47734" lon="6.20995">
        <ele>1018.1733398438</ele>
        <time>2012-08-10T14:09:37Z</time>
      </trkpt>
      <trkpt lat="45.47731" lon="6.20985">
        <ele>1015.7702636719</ele>
        <time>2012-08-10T14:09:42Z</time>
      </trkpt>
      <trkpt lat="45.47731" lon="6.20972">
        <ele>1010.9636230469</ele>
        <time>2012-08-10T14:09:47Z</time>
      </trkpt>
      <trkpt lat="45.4773" lon="6.20956">
        <ele>1008.0798339844</ele>
        <time>2012-08-10T14:09:53Z</time>
      </trkpt>
      <trkpt lat="45.47728" lon="6.20947">
        <ele>1007.5991210938</ele>
        <time>2012-08-10T14:09:57Z</time>
      </trkpt>
      <trkpt lat="45.47726" lon="6.20942">
        <ele>1006.6376953125</ele>
        <time>2012-08-10T14:10:00Z</time>
      </trkpt>
      <trkpt lat="45.47721" lon="6.2093">
        <ele>1003.2729492188</ele>
        <time>2012-08-10T14:10:05Z</time>
      </trkpt>
      <trkpt lat="45.4772" lon="6.2092">
        <ele>1005.6765136719</ele>
        <time>2012-08-10T14:10:08Z</time>
      </trkpt>
      <trkpt lat="45.47717" lon="6.20911">
        <ele>1008.5603027344</ele>
        <time>2012-08-10T14:10:11Z</time>
      </trkpt>
      <trkpt lat="45.47714" lon="6.20897">
        <ele>1000.3891601562</ele>
        <time>2012-08-10T14:10:16Z</time>
      </trkpt>
      <trkpt lat="45.4771" lon="6.20884">
        <ele>996.5439453125</ele>
        <time>2012-08-10T14:10:21Z</time>
      </trkpt>
      <trkpt lat="45.47712" lon="6.20873">
        <ele>997.50512695312</ele>
        <time>2012-08-10T14:10:25Z</time>
      </trkpt>
      <trkpt lat="45.47712" lon="6.20869">
        <ele>997.50512695312</ele>
        <time>2012-08-10T14:10:26Z</time>
      </trkpt>
      <trkpt lat="45.47711" lon="6.20854">
        <ele>993.17919921875</ele>
        <time>2012-08-10T14:10:30Z</time>
      </trkpt>
      <trkpt lat="45.47709" lon="6.20844">
        <ele>993.65991210938</ele>
        <time>2012-08-10T14:10:34Z</time>
      </trkpt>
      <trkpt lat="45.47704" lon="6.20827">
        <ele>994.62109375</ele>
        <time>2012-08-10T14:10:41Z</time>
      </trkpt>
      <trkpt lat="45.47703" lon="6.20825">
        <ele>993.65991210938</ele>
        <time>2012-08-10T14:10:42Z</time>
      </trkpt>
      <trkpt lat="45.47702" lon="6.20812">
        <ele>989.333984375</ele>
        <time>2012-08-10T14:10:47Z</time>
      </trkpt>
      <trkpt lat="45.47703" lon="6.2081">
        <ele>989.333984375</ele>
        <time>2012-08-10T14:10:48Z</time>
      </trkpt>
      <trkpt lat="45.47705" lon="6.20807">
        <ele>987.89184570312</ele>
        <time>2012-08-10T14:10:50Z</time>
      </trkpt>
      <trkpt lat="45.47714" lon="6.208">
        <ele>985.00805664062</ele>
        <time>2012-08-10T14:10:56Z</time>
      </trkpt>
      <trkpt lat="45.47715" lon="6.208">
        <ele>985.48852539062</ele>
        <time>2012-08-10T14:10:57Z</time>
      </trkpt>
      <trkpt lat="45.47728" lon="6.20798">
        <ele>985.96923828125</ele>
        <time>2012-08-10T14:11:02Z</time>
      </trkpt>
      <trkpt lat="45.47734" lon="6.208">
        <ele>986.44995117188</ele>
        <time>2012-08-10T14:11:06Z</time>
      </trkpt>
      <trkpt lat="45.47738" lon="6.20801">
        <ele>985.48852539062</ele>
        <time>2012-08-10T14:11:08Z</time>
      </trkpt>
      <trkpt lat="45.4775" lon="6.20806">
        <ele>988.37280273438</ele>
        <time>2012-08-10T14:11:14Z</time>
      </trkpt>
      <trkpt lat="45.47753" lon="6.20808">
        <ele>988.37280273438</ele>
        <time>2012-08-10T14:11:15Z</time>
      </trkpt>
      <trkpt lat="45.47756" lon="6.2081">
        <ele>989.333984375</ele>
        <time>2012-08-10T14:11:17Z</time>
      </trkpt>
      <trkpt lat="45.47763" lon="6.20811">
        <ele>988.853515625</ele>
        <time>2012-08-10T14:11:20Z</time>
      </trkpt>
      <trkpt lat="45.47769" lon="6.20815">
        <ele>986.93041992188</ele>
        <time>2012-08-10T14:11:24Z</time>
      </trkpt>
      <trkpt lat="45.47782" lon="6.20817">
        <ele>985.00805664062</ele>
        <time>2012-08-10T14:11:30Z</time>
      </trkpt>
      <trkpt lat="45.47793" lon="6.20818">
        <ele>985.00805664062</ele>
        <time>2012-08-10T14:11:35Z</time>
      </trkpt>
      <trkpt lat="45.47797" lon="6.2082">
        <ele>984.04663085938</ele>
        <time>2012-08-10T14:11:37Z</time>
      </trkpt>
      <trkpt lat="45.47805" lon="6.20825">
        <ele>981.16284179688</ele>
        <time>2012-08-10T14:11:41Z</time>
      </trkpt>
      <trkpt lat="45.47817" lon="6.20836">
        <ele>978.75952148438</ele>
        <time>2012-08-10T14:11:48Z</time>
      </trkpt>
      <trkpt lat="45.47823" lon="6.20843">
        <ele>976.35620117188</ele>
        <time>2012-08-10T14:11:51Z</time>
      </trkpt>
      <trkpt lat="45.47831" lon="6.20855">
        <ele>971.54931640625</ele>
        <time>2012-08-10T14:11:57Z</time>
      </trkpt>
      <trkpt lat="45.47834" lon="6.20861">
        <ele>969.626953125</ele>
        <time>2012-08-10T14:12:01Z</time>
      </trkpt>
      <trkpt lat="45.47839" lon="6.20866">
        <ele>966.74291992188</ele>
        <time>2012-08-10T14:12:07Z</time>
      </trkpt>
      <trkpt lat="45.4784" lon="6.20869">
        <ele>965.30102539062</ele>
        <time>2012-08-10T14:12:09Z</time>
      </trkpt>
      <trkpt lat="45.47849" lon="6.2088">
        <ele>960.49438476562</ele>
        <time>2012-08-10T14:12:15Z</time>
      </trkpt>
      <trkpt lat="45.47852" lon="6.20886">
        <ele>959.05249023438</ele>
        <time>2012-08-10T14:12:18Z</time>
      </trkpt>
      <trkpt lat="45.47863" lon="6.20894">
        <ele>961.45581054688</ele>
        <time>2012-08-10T14:12:24Z</time>
      </trkpt>
      <trkpt lat="45.47866" lon="6.209">
        <ele>959.05249023438</ele>
        <time>2012-08-10T14:12:28Z</time>
      </trkpt>
      <trkpt lat="45.47877" lon="6.2091">
        <ele>956.64916992188</ele>
        <time>2012-08-10T14:12:35Z</time>
      </trkpt>
      <trkpt lat="45.47884" lon="6.20914">
        <ele>949.43920898438</ele>
        <time>2012-08-10T14:12:41Z</time>
      </trkpt>
      <trkpt lat="45.47892" lon="6.20919">
        <ele>944.63256835938</ele>
        <time>2012-08-10T14:12:46Z</time>
      </trkpt>
      <trkpt lat="45.47899" lon="6.2092">
        <ele>940.78735351562</ele>
        <time>2012-08-10T14:12:50Z</time>
      </trkpt>
      <trkpt lat="45.47909" lon="6.20922">
        <ele>937.9033203125</ele>
        <time>2012-08-10T14:12:57Z</time>
      </trkpt>
      <trkpt lat="45.4792" lon="6.20923">
        <ele>938.86474609375</ele>
        <time>2012-08-10T14:13:02Z</time>
      </trkpt>
      <trkpt lat="45.47923" lon="6.20926">
        <ele>938.38403320312</ele>
        <time>2012-08-10T14:13:04Z</time>
      </trkpt>
      <trkpt lat="45.47925" lon="6.20927">
        <ele>937.9033203125</ele>
        <time>2012-08-10T14:13:06Z</time>
      </trkpt>
      <trkpt lat="45.47927" lon="6.20926">
        <ele>937.9033203125</ele>
        <time>2012-08-10T14:13:08Z</time>
      </trkpt>
      <trkpt lat="45.47933" lon="6.20911">
        <ele>935.5</ele>
        <time>2012-08-10T14:13:14Z</time>
      </trkpt>
      <trkpt lat="45.47937" lon="6.20896">
        <ele>934.05810546875</ele>
        <time>2012-08-10T14:13:19Z</time>
      </trkpt>
      <trkpt lat="45.47937" lon="6.20889">
        <ele>929.73217773438</ele>
        <time>2012-08-10T14:13:22Z</time>
      </trkpt>
      <trkpt lat="45.47941" lon="6.20876">
        <ele>923.96411132812</ele>
        <time>2012-08-10T14:13:28Z</time>
      </trkpt>
      <trkpt lat="45.47944" lon="6.20868">
        <ele>922.04150390625</ele>
        <time>2012-08-10T14:13:33Z</time>
      </trkpt>
      <trkpt lat="45.47939" lon="6.2085">
        <ele>912.9091796875</ele>
        <time>2012-08-10T14:13:39Z</time>
      </trkpt>
      <trkpt lat="45.47933" lon="6.20837">
        <ele>905.69921875</ele>
        <time>2012-08-10T14:13:44Z</time>
      </trkpt>
      <trkpt lat="45.47929" lon="6.20827">
        <ele>901.37329101562</ele>
        <time>2012-08-10T14:13:47Z</time>
      </trkpt>
      <trkpt lat="45.47926" lon="6.20811">
        <ele>897.04736328125</ele>
        <time>2012-08-10T14:13:53Z</time>
      </trkpt>
      <trkpt lat="45.47921" lon="6.20793">
        <ele>893.2021484375</ele>
        <time>2012-08-10T14:13:59Z</time>
      </trkpt>
      <trkpt lat="45.47921" lon="6.2079">
        <ele>892.7216796875</ele>
        <time>2012-08-10T14:14:00Z</time>
      </trkpt>
      <trkpt lat="45.47916" lon="6.20776">
        <ele>892.7216796875</ele>
        <time>2012-08-10T14:14:05Z</time>
      </trkpt>
      <trkpt lat="45.47912" lon="6.20766">
        <ele>891.279296875</ele>
        <time>2012-08-10T14:14:09Z</time>
      </trkpt>
      <trkpt lat="45.4791" lon="6.20749">
        <ele>892.24096679688</ele>
        <time>2012-08-10T14:14:14Z</time>
      </trkpt>
      <trkpt lat="45.47909" lon="6.20745">
        <ele>891.76000976562</ele>
        <time>2012-08-10T14:14:15Z</time>
      </trkpt>
      <trkpt lat="45.47904" lon="6.20723">
        <ele>890.31811523438</ele>
        <time>2012-08-10T14:14:21Z</time>
      </trkpt>
      <trkpt lat="45.47903" lon="6.20715">
        <ele>889.83740234375</ele>
        <time>2012-08-10T14:14:24Z</time>
      </trkpt>
      <trkpt lat="45.47899" lon="6.20699">
        <ele>888.3955078125</ele>
        <time>2012-08-10T14:14:29Z</time>
      </trkpt>
      <trkpt lat="45.47898" lon="6.20696">
        <ele>887.91479492188</ele>
        <time>2012-08-10T14:14:30Z</time>
      </trkpt>
      <trkpt lat="45.47894" lon="6.20677">
        <ele>889.35668945312</ele>
        <time>2012-08-10T14:14:37Z</time>
      </trkpt>
      <trkpt lat="45.47895" lon="6.20665">
        <ele>881.18579101562</ele>
        <time>2012-08-10T14:14:42Z</time>
      </trkpt>
      <trkpt lat="45.47897" lon="6.20662">
        <ele>881.66625976562</ele>
        <time>2012-08-10T14:14:44Z</time>
      </trkpt>
      <trkpt lat="45.47905" lon="6.20654">
        <ele>879.74365234375</ele>
        <time>2012-08-10T14:14:50Z</time>
      </trkpt>
      <trkpt lat="45.47906" lon="6.20652">
        <ele>879.26293945312</ele>
        <time>2012-08-10T14:14:51Z</time>
      </trkpt>
      <trkpt lat="45.47911" lon="6.20642">
        <ele>875.89819335938</ele>
        <time>2012-08-10T14:14:57Z</time>
      </trkpt>
      <trkpt lat="45.47915" lon="6.20628">
        <ele>875.89819335938</ele>
        <time>2012-08-10T14:15:03Z</time>
      </trkpt>
      <trkpt lat="45.47916" lon="6.20614">
        <ele>884.55029296875</ele>
        <time>2012-08-10T14:15:08Z</time>
      </trkpt>
      <trkpt lat="45.47907" lon="6.20595">
        <ele>883.10815429688</ele>
        <time>2012-08-10T14:15:14Z</time>
      </trkpt>
      <trkpt lat="45.47901" lon="6.20587">
        <ele>883.10815429688</ele>
        <time>2012-08-10T14:15:17Z</time>
      </trkpt>
      <trkpt lat="45.47894" lon="6.20567">
        <ele>879.74365234375</ele>
        <time>2012-08-10T14:15:23Z</time>
      </trkpt>
      <trkpt lat="45.47887" lon="6.20552">
        <ele>880.705078125</ele>
        <time>2012-08-10T14:15:28Z</time>
      </trkpt>
      <trkpt lat="45.47886" lon="6.20535">
        <ele>883.5888671875</ele>
        <time>2012-08-10T14:15:33Z</time>
      </trkpt>
      <trkpt lat="45.47884" lon="6.20524">
        <ele>884.06958007812</ele>
        <time>2012-08-10T14:15:36Z</time>
      </trkpt>
      <trkpt lat="45.47884" lon="6.20513">
        <ele>877.82104492188</ele>
        <time>2012-08-10T14:15:41Z</time>
      </trkpt>
      <trkpt lat="45.47884" lon="6.20504">
        <ele>875.41748046875</ele>
        <time>2012-08-10T14:15:44Z</time>
      </trkpt>
      <trkpt lat="45.47886" lon="6.20496">
        <ele>878.3017578125</ele>
        <time>2012-08-10T14:15:46Z</time>
      </trkpt>
      <trkpt lat="45.47889" lon="6.20476">
        <ele>866.76586914062</ele>
        <time>2012-08-10T14:15:51Z</time>
      </trkpt>
      <trkpt lat="45.47893" lon="6.20461">
        <ele>860.51733398438</ele>
        <time>2012-08-10T14:15:55Z</time>
      </trkpt>
      <trkpt lat="45.47897" lon="6.20453">
        <ele>855.22998046875</ele>
        <time>2012-08-10T14:15:58Z</time>
      </trkpt>
      <trkpt lat="45.47903" lon="6.20437">
        <ele>849.94287109375</ele>
        <time>2012-08-10T14:16:03Z</time>
      </trkpt>
      <trkpt lat="45.47911" lon="6.20425">
        <ele>848.02026367188</ele>
        <time>2012-08-10T14:16:07Z</time>
      </trkpt>
      <trkpt lat="45.47914" lon="6.20419">
        <ele>847.05883789062</ele>
        <time>2012-08-10T14:16:09Z</time>
      </trkpt>
      <trkpt lat="45.4792" lon="6.20407">
        <ele>844.17504882812</ele>
        <time>2012-08-10T14:16:14Z</time>
      </trkpt>
      <trkpt lat="45.47927" lon="6.20394">
        <ele>841.29077148438</ele>
        <time>2012-08-10T14:16:19Z</time>
      </trkpt>
      <trkpt lat="45.47928" lon="6.20392">
        <ele>839.84887695312</ele>
        <time>2012-08-10T14:16:20Z</time>
      </trkpt>
      <trkpt lat="45.47939" lon="6.20381">
        <ele>838.40698242188</ele>
        <time>2012-08-10T14:16:26Z</time>
      </trkpt>
      <trkpt lat="45.4794" lon="6.20379">
        <ele>836.96484375</ele>
        <time>2012-08-10T14:16:27Z</time>
      </trkpt>
      <trkpt lat="45.47946" lon="6.20357">
        <ele>832.15844726562</ele>
        <time>2012-08-10T14:16:32Z</time>
      </trkpt>
      <trkpt lat="45.47955" lon="6.20351">
        <ele>832.15844726562</ele>
        <time>2012-08-10T14:16:36Z</time>
      </trkpt>
      <trkpt lat="45.47964" lon="6.20345">
        <ele>836.96484375</ele>
        <time>2012-08-10T14:16:40Z</time>
      </trkpt>
      <trkpt lat="45.47974" lon="6.20344">
        <ele>838.40698242188</ele>
        <time>2012-08-10T14:16:45Z</time>
      </trkpt>
      <trkpt lat="45.47986" lon="6.20334">
        <ele>835.04248046875</ele>
        <time>2012-08-10T14:16:51Z</time>
      </trkpt>
      <trkpt lat="45.47996" lon="6.20319">
        <ele>837.92626953125</ele>
        <time>2012-08-10T14:16:56Z</time>
      </trkpt>
      <trkpt lat="45.47998" lon="6.20316">
        <ele>838.40698242188</ele>
        <time>2012-08-10T14:16:57Z</time>
      </trkpt>
      <trkpt lat="45.48009" lon="6.20302">
        <ele>836.00366210938</ele>
        <time>2012-08-10T14:17:02Z</time>
      </trkpt>
      <trkpt lat="45.48011" lon="6.203">
        <ele>835.04248046875</ele>
        <time>2012-08-10T14:17:03Z</time>
      </trkpt>
      <trkpt lat="45.48021" lon="6.2029">
        <ele>832.63916015625</ele>
        <time>2012-08-10T14:17:08Z</time>
      </trkpt>
      <trkpt lat="45.48023" lon="6.20289">
        <ele>832.15844726562</ele>
        <time>2012-08-10T14:17:09Z</time>
      </trkpt>
      <trkpt lat="45.48033" lon="6.20278">
        <ele>827.83227539062</ele>
        <time>2012-08-10T14:17:14Z</time>
      </trkpt>
      <trkpt lat="45.48039" lon="6.20265">
        <ele>825.42895507812</ele>
        <time>2012-08-10T14:17:18Z</time>
      </trkpt>
      <trkpt lat="45.48047" lon="6.20251">
        <ele>825.90966796875</ele>
        <time>2012-08-10T14:17:23Z</time>
      </trkpt>
      <trkpt lat="45.48053" lon="6.2024">
        <ele>826.87109375</ele>
        <time>2012-08-10T14:17:27Z</time>
      </trkpt>
      <trkpt lat="45.48059" lon="6.2023">
        <ele>824.94848632812</ele>
        <time>2012-08-10T14:17:31Z</time>
      </trkpt>
      <trkpt lat="45.4806" lon="6.20227">
        <ele>824.4677734375</ele>
        <time>2012-08-10T14:17:32Z</time>
      </trkpt>
      <trkpt lat="45.48072" lon="6.20216">
        <ele>823.98706054688</ele>
        <time>2012-08-10T14:17:39Z</time>
      </trkpt>
      <trkpt lat="45.48076" lon="6.20215">
        <ele>823.50659179688</ele>
        <time>2012-08-10T14:17:41Z</time>
      </trkpt>
      <trkpt lat="45.4808" lon="6.20208">
        <ele>820.62255859375</ele>
        <time>2012-08-10T14:17:44Z</time>
      </trkpt>
      <trkpt lat="45.48086" lon="6.202">
        <ele>819.1806640625</ele>
        <time>2012-08-10T14:17:48Z</time>
      </trkpt>
      <trkpt lat="45.48088" lon="6.20198">
        <ele>818.69995117188</ele>
        <time>2012-08-10T14:17:49Z</time>
      </trkpt>
      <trkpt lat="45.48098" lon="6.20184">
        <ele>815.33544921875</ele>
        <time>2012-08-10T14:17:55Z</time>
      </trkpt>
      <trkpt lat="45.48107" lon="6.20168">
        <ele>815.33544921875</ele>
        <time>2012-08-10T14:18:00Z</time>
      </trkpt>
      <trkpt lat="45.48112" lon="6.20153">
        <ele>811.970703125</ele>
        <time>2012-08-10T14:18:05Z</time>
      </trkpt>
      <trkpt lat="45.48117" lon="6.2014">
        <ele>808.12548828125</ele>
        <time>2012-08-10T14:18:09Z</time>
      </trkpt>
      <trkpt lat="45.48122" lon="6.20129">
        <ele>805.24145507812</ele>
        <time>2012-08-10T14:18:13Z</time>
      </trkpt>
      <trkpt lat="45.48127" lon="6.20121">
        <ele>804.2802734375</ele>
        <time>2012-08-10T14:18:16Z</time>
      </trkpt>
      <trkpt lat="45.4813" lon="6.20112">
        <ele>805.72216796875</ele>
        <time>2012-08-10T14:18:19Z</time>
      </trkpt>
      <trkpt lat="45.48123" lon="6.20098">
        <ele>804.7607421875</ele>
        <time>2012-08-10T14:18:25Z</time>
      </trkpt>
      <trkpt lat="45.48116" lon="6.20088">
        <ele>805.72216796875</ele>
        <time>2012-08-10T14:18:30Z</time>
      </trkpt>
      <trkpt lat="45.48109" lon="6.20079">
        <ele>805.72216796875</ele>
        <time>2012-08-10T14:18:35Z</time>
      </trkpt>
      <trkpt lat="45.481" lon="6.20065">
        <ele>807.1640625</ele>
        <time>2012-08-10T14:18:41Z</time>
      </trkpt>
      <trkpt lat="45.48096" lon="6.20055">
        <ele>807.64477539062</ele>
        <time>2012-08-10T14:18:45Z</time>
      </trkpt>
      <trkpt lat="45.48091" lon="6.2005">
        <ele>808.12548828125</ele>
        <time>2012-08-10T14:18:48Z</time>
      </trkpt>
      <trkpt lat="45.48082" lon="6.20036">
        <ele>808.60595703125</ele>
        <time>2012-08-10T14:18:54Z</time>
      </trkpt>
      <trkpt lat="45.48076" lon="6.20026">
        <ele>808.60595703125</ele>
        <time>2012-08-10T14:18:59Z</time>
      </trkpt>
      <trkpt lat="45.48074" lon="6.20017">
        <ele>808.60595703125</ele>
        <time>2012-08-10T14:19:03Z</time>
      </trkpt>
      <trkpt lat="45.48071" lon="6.20013">
        <ele>808.60595703125</ele>
        <time>2012-08-10T14:19:05Z</time>
      </trkpt>
      <trkpt lat="45.48067" lon="6.20005">
        <ele>808.12548828125</ele>
        <time>2012-08-10T14:19:09Z</time>
      </trkpt>
      <trkpt lat="45.48065" lon="6.19996">
        <ele>807.64477539062</ele>
        <time>2012-08-10T14:19:13Z</time>
      </trkpt>
      <trkpt lat="45.48062" lon="6.19987">
        <ele>806.68334960938</ele>
        <time>2012-08-10T14:19:17Z</time>
      </trkpt>
      <trkpt lat="45.48054" lon="6.19969">
        <ele>808.60595703125</ele>
        <time>2012-08-10T14:19:23Z</time>
      </trkpt>
      <trkpt lat="45.48047" lon="6.19953">
        <ele>810.0478515625</ele>
        <time>2012-08-10T14:19:29Z</time>
      </trkpt>
      <trkpt lat="45.48043" lon="6.19938">
        <ele>811.00927734375</ele>
        <time>2012-08-10T14:19:34Z</time>
      </trkpt>
      <trkpt lat="45.48038" lon="6.19929">
        <ele>811.00927734375</ele>
        <time>2012-08-10T14:19:38Z</time>
      </trkpt>
      <trkpt lat="45.48032" lon="6.19916">
        <ele>810.52856445312</ele>
        <time>2012-08-10T14:19:43Z</time>
      </trkpt>
      <trkpt lat="45.48026" lon="6.19903">
        <ele>810.52856445312</ele>
        <time>2012-08-10T14:19:48Z</time>
      </trkpt>
      <trkpt lat="45.48018" lon="6.19886">
        <ele>809.5673828125</ele>
        <time>2012-08-10T14:19:54Z</time>
      </trkpt>
      <trkpt lat="45.48016" lon="6.19877">
        <ele>809.5673828125</ele>
        <time>2012-08-10T14:19:57Z</time>
      </trkpt>
      <trkpt lat="45.48011" lon="6.19867">
        <ele>807.64477539062</ele>
        <time>2012-08-10T14:20:01Z</time>
      </trkpt>
      <trkpt lat="45.48007" lon="6.19855">
        <ele>808.60595703125</ele>
        <time>2012-08-10T14:20:05Z</time>
      </trkpt>
      <trkpt lat="45.47999" lon="6.19837">
        <ele>808.60595703125</ele>
        <time>2012-08-10T14:20:11Z</time>
      </trkpt>
      <trkpt lat="45.47993" lon="6.19826">
        <ele>809.08666992188</ele>
        <time>2012-08-10T14:20:15Z</time>
      </trkpt>
      <trkpt lat="45.47989" lon="6.19817">
        <ele>809.5673828125</ele>
        <time>2012-08-10T14:20:18Z</time>
      </trkpt>
      <trkpt lat="45.47984" lon="6.1981">
        <ele>809.08666992188</ele>
        <time>2012-08-10T14:20:21Z</time>
      </trkpt>
      <trkpt lat="45.47979" lon="6.198">
        <ele>809.08666992188</ele>
        <time>2012-08-10T14:20:25Z</time>
      </trkpt>
      <trkpt lat="45.47971" lon="6.19782">
        <ele>808.60595703125</ele>
        <time>2012-08-10T14:20:31Z</time>
      </trkpt>
      <trkpt lat="45.47967" lon="6.19769">
        <ele>807.1640625</ele>
        <time>2012-08-10T14:20:35Z</time>
      </trkpt>
      <trkpt lat="45.47963" lon="6.19751">
        <ele>805.24145507812</ele>
        <time>2012-08-10T14:20:41Z</time>
      </trkpt>
      <trkpt lat="45.47958" lon="6.19737">
        <ele>805.72216796875</ele>
        <time>2012-08-10T14:20:46Z</time>
      </trkpt>
      <trkpt lat="45.47958" lon="6.19732">
        <ele>806.20263671875</ele>
        <time>2012-08-10T14:20:48Z</time>
      </trkpt>
      <trkpt lat="45.47955" lon="6.1972">
        <ele>806.20263671875</ele>
        <time>2012-08-10T14:20:52Z</time>
      </trkpt>
      <trkpt lat="45.47952" lon="6.19713">
        <ele>805.72216796875</ele>
        <time>2012-08-10T14:20:55Z</time>
      </trkpt>
      <trkpt lat="45.47946" lon="6.19702">
        <ele>805.72216796875</ele>
        <time>2012-08-10T14:21:00Z</time>
      </trkpt>
      <trkpt lat="45.47942" lon="6.1969">
        <ele>805.72216796875</ele>
        <time>2012-08-10T14:21:04Z</time>
      </trkpt>
      <trkpt lat="45.47936" lon="6.19676">
        <ele>803.31884765625</ele>
        <time>2012-08-10T14:21:09Z</time>
      </trkpt>
      <trkpt lat="45.47936" lon="6.19667">
        <ele>803.79956054688</ele>
        <time>2012-08-10T14:21:12Z</time>
      </trkpt>
      <trkpt lat="45.4793" lon="6.19649">
        <ele>803.79956054688</ele>
        <time>2012-08-10T14:21:18Z</time>
      </trkpt>
      <trkpt lat="45.47926" lon="6.19638">
        <ele>804.2802734375</ele>
        <time>2012-08-10T14:21:22Z</time>
      </trkpt>
      <trkpt lat="45.47919" lon="6.19626">
        <ele>805.72216796875</ele>
        <time>2012-08-10T14:21:27Z</time>
      </trkpt>
      <trkpt lat="45.47915" lon="6.19615">
        <ele>806.20263671875</ele>
        <time>2012-08-10T14:21:32Z</time>
      </trkpt>
      <trkpt lat="45.47911" lon="6.19601">
        <ele>806.68334960938</ele>
        <time>2012-08-10T14:21:37Z</time>
      </trkpt>
      <trkpt lat="45.4791" lon="6.1959">
        <ele>804.2802734375</ele>
        <time>2012-08-10T14:21:41Z</time>
      </trkpt>
      <trkpt lat="45.47908" lon="6.19583">
        <ele>804.7607421875</ele>
        <time>2012-08-10T14:21:44Z</time>
      </trkpt>
      <trkpt lat="45.47905" lon="6.19571">
        <ele>804.2802734375</ele>
        <time>2012-08-10T14:21:48Z</time>
      </trkpt>
      <trkpt lat="45.47903" lon="6.19554">
        <ele>803.79956054688</ele>
        <time>2012-08-10T14:21:53Z</time>
      </trkpt>
      <trkpt lat="45.47901" lon="6.19544">
        <ele>802.83813476562</ele>
        <time>2012-08-10T14:21:56Z</time>
      </trkpt>
      <trkpt lat="45.47898" lon="6.19524">
        <ele>801.876953125</ele>
        <time>2012-08-10T14:22:03Z</time>
      </trkpt>
      <trkpt lat="45.47898" lon="6.19521">
        <ele>801.39624023438</ele>
        <time>2012-08-10T14:22:04Z</time>
      </trkpt>
      <trkpt lat="45.47896" lon="6.1951">
        <ele>801.39624023438</ele>
        <time>2012-08-10T14:22:08Z</time>
      </trkpt>
      <trkpt lat="45.47893" lon="6.19494">
        <ele>802.357421875</ele>
        <time>2012-08-10T14:22:13Z</time>
      </trkpt>
      <trkpt lat="45.47891" lon="6.19485">
        <ele>802.83813476562</ele>
        <time>2012-08-10T14:22:16Z</time>
      </trkpt>
      <trkpt lat="45.47885" lon="6.19471">
        <ele>801.39624023438</ele>
        <time>2012-08-10T14:22:22Z</time>
      </trkpt>
      <trkpt lat="45.47882" lon="6.19465">
        <ele>801.876953125</ele>
        <time>2012-08-10T14:22:24Z</time>
      </trkpt>
      <trkpt lat="45.47873" lon="6.1945">
        <ele>802.83813476562</ele>
        <time>2012-08-10T14:22:31Z</time>
      </trkpt>
      <trkpt lat="45.47871" lon="6.19449">
        <ele>802.83813476562</ele>
        <time>2012-08-10T14:22:32Z</time>
      </trkpt>
      <trkpt lat="45.47864" lon="6.1944">
        <ele>805.24145507812</ele>
        <time>2012-08-10T14:22:37Z</time>
      </trkpt>
      <trkpt lat="45.47861" lon="6.19435">
        <ele>808.60595703125</ele>
        <time>2012-08-10T14:22:39Z</time>
      </trkpt>
      <trkpt lat="45.47855" lon="6.19419">
        <ele>811.48999023438</ele>
        <time>2012-08-10T14:22:44Z</time>
      </trkpt>
      <trkpt lat="45.47851" lon="6.19412">
        <ele>809.5673828125</ele>
        <time>2012-08-10T14:22:47Z</time>
      </trkpt>
      <trkpt lat="45.47847" lon="6.19393">
        <ele>811.48999023438</ele>
        <time>2012-08-10T14:22:53Z</time>
      </trkpt>
      <trkpt lat="45.47842" lon="6.19382">
        <ele>808.12548828125</ele>
        <time>2012-08-10T14:22:57Z</time>
      </trkpt>
      <trkpt lat="45.47839" lon="6.19366">
        <ele>810.0478515625</ele>
        <time>2012-08-10T14:23:03Z</time>
      </trkpt>
      <trkpt lat="45.47837" lon="6.19355">
        <ele>811.00927734375</ele>
        <time>2012-08-10T14:23:06Z</time>
      </trkpt>
      <trkpt lat="45.47836" lon="6.19339">
        <ele>810.0478515625</ele>
        <time>2012-08-10T14:23:11Z</time>
      </trkpt>
      <trkpt lat="45.47832" lon="6.19323">
        <ele>809.08666992188</ele>
        <time>2012-08-10T14:23:16Z</time>
      </trkpt>
      <trkpt lat="45.47828" lon="6.19308">
        <ele>809.5673828125</ele>
        <time>2012-08-10T14:23:21Z</time>
      </trkpt>
      <trkpt lat="45.47824" lon="6.19298">
        <ele>808.60595703125</ele>
        <time>2012-08-10T14:23:25Z</time>
      </trkpt>
      <trkpt lat="45.47818" lon="6.19289">
        <ele>807.64477539062</ele>
        <time>2012-08-10T14:23:29Z</time>
      </trkpt>
      <trkpt lat="45.4781" lon="6.19277">
        <ele>805.72216796875</ele>
        <time>2012-08-10T14:23:34Z</time>
      </trkpt>
      <trkpt lat="45.47802" lon="6.19261">
        <ele>800.43505859375</ele>
        <time>2012-08-10T14:23:40Z</time>
      </trkpt>
      <trkpt lat="45.47795" lon="6.19253">
        <ele>797.55102539062</ele>
        <time>2012-08-10T14:23:44Z</time>
      </trkpt>
      <trkpt lat="45.4779" lon="6.19242">
        <ele>795.62817382812</ele>
        <time>2012-08-10T14:23:48Z</time>
      </trkpt>
      <trkpt lat="45.47785" lon="6.1923">
        <ele>794.18627929688</ele>
        <time>2012-08-10T14:23:53Z</time>
      </trkpt>
      <trkpt lat="45.47781" lon="6.19217">
        <ele>795.1474609375</ele>
        <time>2012-08-10T14:23:58Z</time>
      </trkpt>
      <trkpt lat="45.47775" lon="6.19207">
        <ele>795.1474609375</ele>
        <time>2012-08-10T14:24:02Z</time>
      </trkpt>
      <trkpt lat="45.4777" lon="6.19196">
        <ele>793.22485351562</ele>
        <time>2012-08-10T14:24:06Z</time>
      </trkpt>
      <trkpt lat="45.47765" lon="6.19186">
        <ele>792.263671875</ele>
        <time>2012-08-10T14:24:10Z</time>
      </trkpt>
      <trkpt lat="45.47759" lon="6.19176">
        <ele>794.66674804688</ele>
        <time>2012-08-10T14:24:14Z</time>
      </trkpt>
      <trkpt lat="45.47752" lon="6.19166">
        <ele>793.70556640625</ele>
        <time>2012-08-10T14:24:18Z</time>
      </trkpt>
      <trkpt lat="45.47744" lon="6.19157">
        <ele>795.62817382812</ele>
        <time>2012-08-10T14:24:23Z</time>
      </trkpt>
      <trkpt lat="45.47742" lon="6.19156">
        <ele>795.62817382812</ele>
        <time>2012-08-10T14:24:24Z</time>
      </trkpt>
      <trkpt lat="45.47734" lon="6.19146">
        <ele>793.70556640625</ele>
        <time>2012-08-10T14:24:29Z</time>
      </trkpt>
      <trkpt lat="45.47728" lon="6.19143">
        <ele>795.62817382812</ele>
        <time>2012-08-10T14:24:32Z</time>
      </trkpt>
      <trkpt lat="45.47718" lon="6.19138">
        <ele>795.1474609375</ele>
        <time>2012-08-10T14:24:37Z</time>
      </trkpt>
      <trkpt lat="45.4771" lon="6.19134">
        <ele>792.74438476562</ele>
        <time>2012-08-10T14:24:41Z</time>
      </trkpt>
      <trkpt lat="45.47701" lon="6.19131">
        <ele>787.93774414062</ele>
        <time>2012-08-10T14:24:46Z</time>
      </trkpt>
      <trkpt lat="45.47692" lon="6.1913">
        <ele>784.09252929688</ele>
        <time>2012-08-10T14:24:50Z</time>
      </trkpt>
      <trkpt lat="45.47683" lon="6.1913">
        <ele>779.76635742188</ele>
        <time>2012-08-10T14:24:54Z</time>
      </trkpt>
      <trkpt lat="45.47678" lon="6.19128">
        <ele>777.36328125</ele>
        <time>2012-08-10T14:24:56Z</time>
      </trkpt>
      <trkpt lat="45.4767" lon="6.19128">
        <ele>771.59521484375</ele>
        <time>2012-08-10T14:25:00Z</time>
      </trkpt>
      <trkpt lat="45.47657" lon="6.19125">
        <ele>765.34692382812</ele>
        <time>2012-08-10T14:25:06Z</time>
      </trkpt>
      <trkpt lat="45.47655" lon="6.19123">
        <ele>774.9599609375</ele>
        <time>2012-08-10T14:25:08Z</time>
      </trkpt>
      <trkpt lat="45.47647" lon="6.19116">
        <ele>790.34106445312</ele>
        <time>2012-08-10T14:25:14Z</time>
      </trkpt>
      <trkpt lat="45.47643" lon="6.19116">
        <ele>790.34106445312</ele>
        <time>2012-08-10T14:25:16Z</time>
      </trkpt>
      <trkpt lat="45.47634" lon="6.19115">
        <ele>794.18627929688</ele>
        <time>2012-08-10T14:25:21Z</time>
      </trkpt>
      <trkpt lat="45.47629" lon="6.19115">
        <ele>794.18627929688</ele>
        <time>2012-08-10T14:25:23Z</time>
      </trkpt>
      <trkpt lat="45.4762" lon="6.19117">
        <ele>793.70556640625</ele>
        <time>2012-08-10T14:25:27Z</time>
      </trkpt>
      <trkpt lat="45.47607" lon="6.19118">
        <ele>797.0703125</ele>
        <time>2012-08-10T14:25:33Z</time>
      </trkpt>
      <trkpt lat="45.47598" lon="6.19117">
        <ele>796.58984375</ele>
        <time>2012-08-10T14:25:38Z</time>
      </trkpt>
      <trkpt lat="45.47586" lon="6.191">
        <ele>796.10913085938</ele>
        <time>2012-08-10T14:25:43Z</time>
      </trkpt>
      <trkpt lat="45.47583" lon="6.19082">
        <ele>800.91552734375</ele>
        <time>2012-08-10T14:25:48Z</time>
      </trkpt>
      <trkpt lat="45.47583" lon="6.19078">
        <ele>800.91552734375</ele>
        <time>2012-08-10T14:25:49Z</time>
      </trkpt>
      <trkpt lat="45.4759" lon="6.19067">
        <ele>806.68334960938</ele>
        <time>2012-08-10T14:25:54Z</time>
      </trkpt>
      <trkpt lat="45.47598" lon="6.19056">
        <ele>809.5673828125</ele>
        <time>2012-08-10T14:25:58Z</time>
      </trkpt>
      <trkpt lat="45.47604" lon="6.19046">
        <ele>809.08666992188</ele>
        <time>2012-08-10T14:26:02Z</time>
      </trkpt>
      <trkpt lat="45.47613" lon="6.19036">
        <ele>811.970703125</ele>
        <time>2012-08-10T14:26:07Z</time>
      </trkpt>
      <trkpt lat="45.47617" lon="6.19026">
        <ele>811.970703125</ele>
        <time>2012-08-10T14:26:11Z</time>
      </trkpt>
      <trkpt lat="45.47621" lon="6.19013">
        <ele>809.5673828125</ele>
        <time>2012-08-10T14:26:16Z</time>
      </trkpt>
      <trkpt lat="45.47627" lon="6.18997">
        <ele>803.79956054688</ele>
        <time>2012-08-10T14:26:22Z</time>
      </trkpt>
      <trkpt lat="45.47626" lon="6.18994">
        <ele>804.2802734375</ele>
        <time>2012-08-10T14:26:23Z</time>
      </trkpt>
      <trkpt lat="45.47628" lon="6.18977">
        <ele>803.79956054688</ele>
        <time>2012-08-10T14:26:29Z</time>
      </trkpt>
      <trkpt lat="45.4763" lon="6.18955">
        <ele>805.72216796875</ele>
        <time>2012-08-10T14:26:36Z</time>
      </trkpt>
      <trkpt lat="45.47628" lon="6.18943">
        <ele>806.20263671875</ele>
        <time>2012-08-10T14:26:40Z</time>
      </trkpt>
      <trkpt lat="45.47626" lon="6.18925">
        <ele>804.2802734375</ele>
        <time>2012-08-10T14:26:45Z</time>
      </trkpt>
      <trkpt lat="45.47624" lon="6.18911">
        <ele>802.83813476562</ele>
        <time>2012-08-10T14:26:49Z</time>
      </trkpt>
      <trkpt lat="45.4762" lon="6.18902">
        <ele>803.31884765625</ele>
        <time>2012-08-10T14:26:52Z</time>
      </trkpt>
      <trkpt lat="45.47615" lon="6.18892">
        <ele>799.4736328125</ele>
        <time>2012-08-10T14:26:56Z</time>
      </trkpt>
      <trkpt lat="45.47612" lon="6.18885">
        <ele>802.83813476562</ele>
        <time>2012-08-10T14:27:00Z</time>
      </trkpt>
      <trkpt lat="45.47603" lon="6.18876">
        <ele>804.7607421875</ele>
        <time>2012-08-10T14:27:05Z</time>
      </trkpt>
      <trkpt lat="45.47596" lon="6.18862">
        <ele>806.20263671875</ele>
        <time>2012-08-10T14:27:10Z</time>
      </trkpt>
      <trkpt lat="45.47589" lon="6.18852">
        <ele>807.1640625</ele>
        <time>2012-08-10T14:27:14Z</time>
      </trkpt>
      <trkpt lat="45.47585" lon="6.18848">
        <ele>806.68334960938</ele>
        <time>2012-08-10T14:27:16Z</time>
      </trkpt>
      <trkpt lat="45.47577" lon="6.18834">
        <ele>808.60595703125</ele>
        <time>2012-08-10T14:27:22Z</time>
      </trkpt>
      <trkpt lat="45.47572" lon="6.18827">
        <ele>806.68334960938</ele>
        <time>2012-08-10T14:27:25Z</time>
      </trkpt>
      <trkpt lat="45.47566" lon="6.18818">
        <ele>803.79956054688</ele>
        <time>2012-08-10T14:27:29Z</time>
      </trkpt>
      <trkpt lat="45.47561" lon="6.18807">
        <ele>802.83813476562</ele>
        <time>2012-08-10T14:27:33Z</time>
      </trkpt>
      <trkpt lat="45.47555" lon="6.18795">
        <ele>800.43505859375</ele>
        <time>2012-08-10T14:27:38Z</time>
      </trkpt>
      <trkpt lat="45.47549" lon="6.1878">
        <ele>802.83813476562</ele>
        <time>2012-08-10T14:27:43Z</time>
      </trkpt>
      <trkpt lat="45.47542" lon="6.1877">
        <ele>801.876953125</ele>
        <time>2012-08-10T14:27:47Z</time>
      </trkpt>
      <trkpt lat="45.47532" lon="6.18758">
        <ele>798.51220703125</ele>
        <time>2012-08-10T14:27:53Z</time>
      </trkpt>
      <trkpt lat="45.47526" lon="6.18755">
        <ele>797.0703125</ele>
        <time>2012-08-10T14:27:55Z</time>
      </trkpt>
      <trkpt lat="45.47521" lon="6.18748">
        <ele>798.03173828125</ele>
        <time>2012-08-10T14:27:58Z</time>
      </trkpt>
      <trkpt lat="45.47505" lon="6.1874">
        <ele>798.99291992188</ele>
        <time>2012-08-10T14:28:05Z</time>
      </trkpt>
      <trkpt lat="45.47496" lon="6.18733">
        <ele>801.876953125</ele>
        <time>2012-08-10T14:28:09Z</time>
      </trkpt>
      <trkpt lat="45.47489" lon="6.18717">
        <ele>801.39624023438</ele>
        <time>2012-08-10T14:28:14Z</time>
      </trkpt>
      <trkpt lat="45.47491" lon="6.18702">
        <ele>801.39624023438</ele>
        <time>2012-08-10T14:28:19Z</time>
      </trkpt>
      <trkpt lat="45.47494" lon="6.18691">
        <ele>800.91552734375</ele>
        <time>2012-08-10T14:28:22Z</time>
      </trkpt>
      <trkpt lat="45.47498" lon="6.18677">
        <ele>800.91552734375</ele>
        <time>2012-08-10T14:28:26Z</time>
      </trkpt>
      <trkpt lat="45.47503" lon="6.18664">
        <ele>800.91552734375</ele>
        <time>2012-08-10T14:28:31Z</time>
      </trkpt>
      <trkpt lat="45.47499" lon="6.18643">
        <ele>800.91552734375</ele>
        <time>2012-08-10T14:28:37Z</time>
      </trkpt>
      <trkpt lat="45.47499" lon="6.18636">
        <ele>800.43505859375</ele>
        <time>2012-08-10T14:28:39Z</time>
      </trkpt>
      <trkpt lat="45.47495" lon="6.18617">
        <ele>800.91552734375</ele>
        <time>2012-08-10T14:28:45Z</time>
      </trkpt>
      <trkpt lat="45.47493" lon="6.18602">
        <ele>798.51220703125</ele>
        <time>2012-08-10T14:28:50Z</time>
      </trkpt>
      <trkpt lat="45.47493" lon="6.18599">
        <ele>798.03173828125</ele>
        <time>2012-08-10T14:28:51Z</time>
      </trkpt>
      <trkpt lat="45.47493" lon="6.18584">
        <ele>799.4736328125</ele>
        <time>2012-08-10T14:28:55Z</time>
      </trkpt>
      <trkpt lat="45.47488" lon="6.18563">
        <ele>799.4736328125</ele>
        <time>2012-08-10T14:29:01Z</time>
      </trkpt>
      <trkpt lat="45.47485" lon="6.18554">
        <ele>799.95434570312</ele>
        <time>2012-08-10T14:29:04Z</time>
      </trkpt>
      <trkpt lat="45.47474" lon="6.18541">
        <ele>800.43505859375</ele>
        <time>2012-08-10T14:29:09Z</time>
      </trkpt>
      <trkpt lat="45.47467" lon="6.18531">
        <ele>799.4736328125</ele>
        <time>2012-08-10T14:29:13Z</time>
      </trkpt>
      <trkpt lat="45.47459" lon="6.18519">
        <ele>797.55102539062</ele>
        <time>2012-08-10T14:29:18Z</time>
      </trkpt>
      <trkpt lat="45.47449" lon="6.18507">
        <ele>797.55102539062</ele>
        <time>2012-08-10T14:29:24Z</time>
      </trkpt>
      <trkpt lat="45.47441" lon="6.18499">
        <ele>795.62817382812</ele>
        <time>2012-08-10T14:29:28Z</time>
      </trkpt>
      <trkpt lat="45.47435" lon="6.18487">
        <ele>797.55102539062</ele>
        <time>2012-08-10T14:29:33Z</time>
      </trkpt>
      <trkpt lat="45.47429" lon="6.18478">
        <ele>796.58984375</ele>
        <time>2012-08-10T14:29:37Z</time>
      </trkpt>
      <trkpt lat="45.47426" lon="6.18471">
        <ele>796.10913085938</ele>
        <time>2012-08-10T14:29:40Z</time>
      </trkpt>
      <trkpt lat="45.47423" lon="6.18466">
        <ele>795.62817382812</ele>
        <time>2012-08-10T14:29:42Z</time>
      </trkpt>
      <trkpt lat="45.47414" lon="6.18453">
        <ele>800.91552734375</ele>
        <time>2012-08-10T14:29:48Z</time>
      </trkpt>
      <trkpt lat="45.47411" lon="6.18448">
        <ele>801.876953125</ele>
        <time>2012-08-10T14:29:50Z</time>
      </trkpt>
      <trkpt lat="45.47403" lon="6.18436">
        <ele>802.83813476562</ele>
        <time>2012-08-10T14:29:55Z</time>
      </trkpt>
      <trkpt lat="45.47395" lon="6.18431">
        <ele>802.357421875</ele>
        <time>2012-08-10T14:29:58Z</time>
      </trkpt>
      <trkpt lat="45.47382" lon="6.18419">
        <ele>798.99291992188</ele>
        <time>2012-08-10T14:30:04Z</time>
      </trkpt>
      <trkpt lat="45.47373" lon="6.18408">
        <ele>797.0703125</ele>
        <time>2012-08-10T14:30:09Z</time>
      </trkpt>
      <trkpt lat="45.47369" lon="6.18404">
        <ele>796.10913085938</ele>
        <time>2012-08-10T14:30:11Z</time>
      </trkpt>
      <trkpt lat="45.47363" lon="6.18398">
        <ele>794.18627929688</ele>
        <time>2012-08-10T14:30:14Z</time>
      </trkpt>
      <trkpt lat="45.47347" lon="6.18397">
        <ele>789.37963867188</ele>
        <time>2012-08-10T14:30:20Z</time>
      </trkpt>
      <trkpt lat="45.47339" lon="6.18399">
        <ele>788.41845703125</ele>
        <time>2012-08-10T14:30:23Z</time>
      </trkpt>
      <trkpt lat="45.47327" lon="6.18402">
        <ele>788.41845703125</ele>
        <time>2012-08-10T14:30:27Z</time>
      </trkpt>
      <trkpt lat="45.47318" lon="6.18402">
        <ele>786.01513671875</ele>
        <time>2012-08-10T14:30:31Z</time>
      </trkpt>
      <trkpt lat="45.4731" lon="6.18401">
        <ele>785.53442382812</ele>
        <time>2012-08-10T14:30:34Z</time>
      </trkpt>
      <trkpt lat="45.47303" lon="6.18398">
        <ele>784.09252929688</ele>
        <time>2012-08-10T14:30:37Z</time>
      </trkpt>
      <trkpt lat="45.47289" lon="6.18389">
        <ele>780.72802734375</ele>
        <time>2012-08-10T14:30:43Z</time>
      </trkpt>
      <trkpt lat="45.47277" lon="6.18383">
        <ele>778.32446289062</ele>
        <time>2012-08-10T14:30:47Z</time>
      </trkpt>
      <trkpt lat="45.47276" lon="6.18381">
        <ele>777.84375</ele>
        <time>2012-08-10T14:30:48Z</time>
      </trkpt>
      <trkpt lat="45.47258" lon="6.18372">
        <ele>776.40185546875</ele>
        <time>2012-08-10T14:30:55Z</time>
      </trkpt>
      <trkpt lat="45.47245" lon="6.18366">
        <ele>774.9599609375</ele>
        <time>2012-08-10T14:31:00Z</time>
      </trkpt>
      <trkpt lat="45.47233" lon="6.18362">
        <ele>777.84375</ele>
        <time>2012-08-10T14:31:05Z</time>
      </trkpt>
      <trkpt lat="45.47231" lon="6.18361">
        <ele>777.84375</ele>
        <time>2012-08-10T14:31:06Z</time>
      </trkpt>
      <trkpt lat="45.47215" lon="6.18353">
        <ele>776.88256835938</ele>
        <time>2012-08-10T14:31:12Z</time>
      </trkpt>
      <trkpt lat="45.47202" lon="6.1835">
        <ele>774.47924804688</ele>
        <time>2012-08-10T14:31:17Z</time>
      </trkpt>
      <trkpt lat="45.47194" lon="6.18348">
        <ele>773.03735351562</ele>
        <time>2012-08-10T14:31:20Z</time>
      </trkpt>
      <trkpt lat="45.4718" lon="6.18341">
        <ele>770.1533203125</ele>
        <time>2012-08-10T14:31:25Z</time>
      </trkpt>
      <trkpt lat="45.47171" lon="6.18336">
        <ele>771.59521484375</ele>
        <time>2012-08-10T14:31:29Z</time>
      </trkpt>
      <trkpt lat="45.47158" lon="6.18327">
        <ele>771.11474609375</ele>
        <time>2012-08-10T14:31:35Z</time>
      </trkpt>
      <trkpt lat="45.47149" lon="6.18322">
        <ele>768.71142578125</ele>
        <time>2012-08-10T14:31:39Z</time>
      </trkpt>
      <trkpt lat="45.47142" lon="6.18318">
        <ele>768.71142578125</ele>
        <time>2012-08-10T14:31:42Z</time>
      </trkpt>
      <trkpt lat="45.47131" lon="6.18308">
        <ele>770.1533203125</ele>
        <time>2012-08-10T14:31:47Z</time>
      </trkpt>
      <trkpt lat="45.47122" lon="6.18299">
        <ele>772.07592773438</ele>
        <time>2012-08-10T14:31:51Z</time>
      </trkpt>
      <trkpt lat="45.47116" lon="6.18295">
        <ele>773.51806640625</ele>
        <time>2012-08-10T14:31:53Z</time>
      </trkpt>
      <trkpt lat="45.47102" lon="6.18288">
        <ele>773.99853515625</ele>
        <time>2012-08-10T14:31:58Z</time>
      </trkpt>
      <trkpt lat="45.47091" lon="6.18283">
        <ele>775.4404296875</ele>
        <time>2012-08-10T14:32:02Z</time>
      </trkpt>
      <trkpt lat="45.47078" lon="6.18278">
        <ele>775.4404296875</ele>
        <time>2012-08-10T14:32:07Z</time>
      </trkpt>
      <trkpt lat="45.47065" lon="6.18283">
        <ele>774.9599609375</ele>
        <time>2012-08-10T14:32:12Z</time>
      </trkpt>
      <trkpt lat="45.47056" lon="6.18295">
        <ele>775.4404296875</ele>
        <time>2012-08-10T14:32:16Z</time>
      </trkpt>
      <trkpt lat="45.4705" lon="6.1831">
        <ele>775.4404296875</ele>
        <time>2012-08-10T14:32:20Z</time>
      </trkpt>
      <trkpt lat="45.47048" lon="6.18322">
        <ele>774.9599609375</ele>
        <time>2012-08-10T14:32:23Z</time>
      </trkpt>
      <trkpt lat="45.47047" lon="6.18343">
        <ele>773.03735351562</ele>
        <time>2012-08-10T14:32:28Z</time>
      </trkpt>
      <trkpt lat="45.47042" lon="6.18357">
        <ele>771.59521484375</ele>
        <time>2012-08-10T14:32:32Z</time>
      </trkpt>
      <trkpt lat="45.47034" lon="6.18369">
        <ele>769.6728515625</ele>
        <time>2012-08-10T14:32:36Z</time>
      </trkpt>
      <trkpt lat="45.47025" lon="6.18378">
        <ele>770.1533203125</ele>
        <time>2012-08-10T14:32:40Z</time>
      </trkpt>
      <trkpt lat="45.47015" lon="6.18386">
        <ele>768.23071289062</ele>
        <time>2012-08-10T14:32:45Z</time>
      </trkpt>
      <trkpt lat="45.47004" lon="6.18394">
        <ele>766.30810546875</ele>
        <time>2012-08-10T14:32:50Z</time>
      </trkpt>
      <trkpt lat="45.47001" lon="6.18396">
        <ele>765.82763671875</ele>
        <time>2012-08-10T14:32:51Z</time>
      </trkpt>
      <trkpt lat="45.46992" lon="6.18401">
        <ele>764.38549804688</ele>
        <time>2012-08-10T14:32:55Z</time>
      </trkpt>
      <trkpt lat="45.46983" lon="6.18411">
        <ele>763.42407226562</ele>
        <time>2012-08-10T14:33:00Z</time>
      </trkpt>
      <trkpt lat="45.46973" lon="6.1842">
        <ele>762.46264648438</ele>
        <time>2012-08-10T14:33:05Z</time>
      </trkpt>
      <trkpt lat="45.46966" lon="6.18424">
        <ele>763.42407226562</ele>
        <time>2012-08-10T14:33:08Z</time>
      </trkpt>
      <trkpt lat="45.4696" lon="6.18424">
        <ele>761.50146484375</ele>
        <time>2012-08-10T14:33:11Z</time>
      </trkpt>
      <trkpt lat="45.46949" lon="6.18408">
        <ele>756.69482421875</ele>
        <time>2012-08-10T14:33:17Z</time>
      </trkpt>
      <trkpt lat="45.46942" lon="6.18394">
        <ele>753.81103515625</ele>
        <time>2012-08-10T14:33:22Z</time>
      </trkpt>
      <trkpt lat="45.46939" lon="6.18388">
        <ele>752.849609375</ele>
        <time>2012-08-10T14:33:24Z</time>
      </trkpt>
      <trkpt lat="45.46928" lon="6.18368">
        <ele>753.33032226562</ele>
        <time>2012-08-10T14:33:30Z</time>
      </trkpt>
      <trkpt lat="45.46917" lon="6.18356">
        <ele>755.73364257812</ele>
        <time>2012-08-10T14:33:35Z</time>
      </trkpt>
      <trkpt lat="45.46906" lon="6.18346">
        <ele>755.2529296875</ele>
        <time>2012-08-10T14:33:40Z</time>
      </trkpt>
      <trkpt lat="45.46894" lon="6.18337">
        <ele>757.17553710938</ele>
        <time>2012-08-10T14:33:45Z</time>
      </trkpt>
      <trkpt lat="45.46886" lon="6.18325">
        <ele>760.5400390625</ele>
        <time>2012-08-10T14:33:50Z</time>
      </trkpt>
      <trkpt lat="45.46884" lon="6.18322">
        <ele>761.02075195312</ele>
        <time>2012-08-10T14:33:51Z</time>
      </trkpt>
      <trkpt lat="45.46875" lon="6.18308">
        <ele>768.71142578125</ele>
        <time>2012-08-10T14:33:56Z</time>
      </trkpt>
      <trkpt lat="45.46864" lon="6.18286">
        <ele>773.99853515625</ele>
        <time>2012-08-10T14:34:02Z</time>
      </trkpt>
      <trkpt lat="45.46862" lon="6.1828">
        <ele>772.07592773438</ele>
        <time>2012-08-10T14:34:04Z</time>
      </trkpt>
      <trkpt lat="45.46857" lon="6.18265">
        <ele>774.47924804688</ele>
        <time>2012-08-10T14:34:09Z</time>
      </trkpt>
      <trkpt lat="45.46854" lon="6.1826">
        <ele>775.4404296875</ele>
        <time>2012-08-10T14:34:11Z</time>
      </trkpt>
      <trkpt lat="45.46841" lon="6.18245">
        <ele>771.59521484375</ele>
        <time>2012-08-10T14:34:17Z</time>
      </trkpt>
      <trkpt lat="45.46831" lon="6.18233">
        <ele>764.38549804688</ele>
        <time>2012-08-10T14:34:21Z</time>
      </trkpt>
      <trkpt lat="45.46821" lon="6.18214">
        <ele>759.57885742188</ele>
        <time>2012-08-10T14:34:26Z</time>
      </trkpt>
      <trkpt lat="45.46812" lon="6.18193">
        <ele>758.13696289062</ele>
        <time>2012-08-10T14:34:31Z</time>
      </trkpt>
      <trkpt lat="45.46806" lon="6.18169">
        <ele>754.29174804688</ele>
        <time>2012-08-10T14:34:37Z</time>
      </trkpt>
      <trkpt lat="45.46806" lon="6.1815">
        <ele>750.44653320312</ele>
        <time>2012-08-10T14:34:42Z</time>
      </trkpt>
      <trkpt lat="45.46806" lon="6.18132">
        <ele>749.9658203125</ele>
        <time>2012-08-10T14:34:46Z</time>
      </trkpt>
      <trkpt lat="45.4681" lon="6.18117">
        <ele>748.04321289062</ele>
        <time>2012-08-10T14:34:50Z</time>
      </trkpt>
      <trkpt lat="45.46814" lon="6.18104">
        <ele>745.6396484375</ele>
        <time>2012-08-10T14:34:54Z</time>
      </trkpt>
      <trkpt lat="45.46813" lon="6.1809">
        <ele>744.67822265625</ele>
        <time>2012-08-10T14:34:58Z</time>
      </trkpt>
      <trkpt lat="45.46807" lon="6.18081">
        <ele>742.755859375</ele>
        <time>2012-08-10T14:35:02Z</time>
      </trkpt>
      <trkpt lat="45.46803" lon="6.18081">
        <ele>741.31372070312</ele>
        <time>2012-08-10T14:35:04Z</time>
      </trkpt>
      <trkpt lat="45.46802" lon="6.18081">
        <ele>740.3525390625</ele>
        <time>2012-08-10T14:35:05Z</time>
      </trkpt>
      <trkpt lat="45.46786" lon="6.18055">
        <ele>750.92700195312</ele>
        <time>2012-08-10T14:37:23Z</time>
      </trkpt>
      <trkpt lat="45.46787" lon="6.18055">
        <ele>751.40771484375</ele>
        <time>2012-08-10T14:37:24Z</time>
      </trkpt>
      <trkpt lat="45.46787" lon="6.18055">
        <ele>751.40771484375</ele>
        <time>2012-08-10T14:37:25Z</time>
      </trkpt>
    </trkseg>
  </trk>
</gpx>